<?xml version="1.0" encoding="UTF-8" standalone="no" ?>
<gpx xmlns="http://www.topografix.com/GPX/1/1" xmlns:gpxtpx="http://www.garmin.com/xmlschemas/TrackPointExtension/v1" creator="OruxMaps v.6.0.7 Donate" version="1.1" xmlns:xsi="http://www.w3.org/2001/XMLSchema-instance" xsi:schemaLocation="http://www.topografix.com/GPX/1/1 http://www.topografix.com/GPX/1/1/gpx.xsd">
<metadata>
<name><![CDATA[2015-04-27 09:02]]></name>
<desc><![CDATA[]]></desc>
<link href="http://www.oruxmaps.com">
<text>OruxMaps</text>
</link>
<time>2015-04-27T06:02:21Z</time><bounds maxlat="35.1159427" maxlon="32.8291498" minlat="34.9617573" minlon="32.5032409"/>
</metadata>
<trk>
<name><![CDATA[2015-04-27 09:02]]></name>
<desc><![CDATA[<h1>OruxMaps</h1><br /><hr align="center" width="480" style="height: 2px; width: 517px"/><h2>Name: 2015-04-27 09:02</h2><br /><p>Start time: 04/27/2015 09:03</p><p>Finish time: 04/27/2015 18:47</p><p>Distance: 67km (09:44)</p><p>Moving time: 06:41</p><p>Average speed: 6.9km/h</p><p>Avg. Speed Mov.: 10km/h</p><p>Max. Speed: 47.5km/h</p><p>Minimum altitude: -2m</p><p>Maximum altitude: 1257m</p><p>Ascent speed: 383.9m/h</p><p>Descent speed: -479.1m/h</p><p>Elevation gain: 2307m</p><p>Elevation loss: -1182m</p><p>Ascent time: 06:00</p><p>Descent time: 02:28</p><hr align="center" width="480" style="height: 2px; width: 517px"/>]]></desc>
<type>Undefined</type>
<extensions>
<om:oruxmapsextensions xmlns:om="http://www.oruxmaps.com/oruxmapsextensions/1/0">
<om:ext type="TYPE" subtype="0">0</om:ext>
</om:oruxmapsextensions>
</extensions>
<trkseg>
<trkpt lat="35.1112206" lon="32.5079370">
<ele>3.92</ele>
<time>2015-04-27T06:03:11Z</time>
</trkpt>
<trkpt lat="35.1112668" lon="32.5079548">
<ele>4.93</ele>
<time>2015-04-27T06:03:12Z</time>
</trkpt>
<trkpt lat="35.1113325" lon="32.5080112">
<ele>5.18</ele>
<time>2015-04-27T06:03:14Z</time>
</trkpt>
<trkpt lat="35.1114507" lon="32.5080302">
<ele>5.49</ele>
<time>2015-04-27T06:03:16Z</time>
</trkpt>
<trkpt lat="35.1115076" lon="32.5080482">
<ele>5.21</ele>
<time>2015-04-27T06:03:17Z</time>
</trkpt>
<trkpt lat="35.1115257" lon="32.5081207">
<ele>5.50</ele>
<time>2015-04-27T06:03:19Z</time>
</trkpt>
<trkpt lat="35.1115584" lon="32.5081802">
<ele>4.71</ele>
<time>2015-04-27T06:03:20Z</time>
</trkpt>
<trkpt lat="35.1116378" lon="32.5081948">
<ele>3.32</ele>
<time>2015-04-27T06:03:21Z</time>
</trkpt>
<trkpt lat="35.1117376" lon="32.5081944">
<ele>2.52</ele>
<time>2015-04-27T06:03:23Z</time>
</trkpt>
<trkpt lat="35.1117751" lon="32.5082443">
<ele>1.22</ele>
<time>2015-04-27T06:03:24Z</time>
</trkpt>
<trkpt lat="35.1118205" lon="32.5082706">
<ele>1.07</ele>
<time>2015-04-27T06:03:25Z</time>
</trkpt>
<trkpt lat="35.1119425" lon="32.5082806">
<ele>1.00</ele>
<time>2015-04-27T06:03:26Z</time>
</trkpt>
<trkpt lat="35.1118762" lon="32.5083922">
<ele>0.46</ele>
<time>2015-04-27T06:03:27Z</time>
</trkpt>
<trkpt lat="35.1119766" lon="32.5084297">
<ele>-0.81</ele>
<time>2015-04-27T06:03:28Z</time>
</trkpt>
<trkpt lat="35.1120010" lon="32.5084882">
<ele>-0.94</ele>
<time>2015-04-27T06:03:29Z</time>
</trkpt>
<trkpt lat="35.1120420" lon="32.5085118">
<ele>-1.51</ele>
<time>2015-04-27T06:03:30Z</time>
</trkpt>
<trkpt lat="35.1122206" lon="32.5084857">
<ele>-2.08</ele>
<time>2015-04-27T06:03:32Z</time>
</trkpt>
<trkpt lat="35.1122674" lon="32.5085145">
<ele>7.93</ele>
<time>2015-04-27T06:03:35Z</time>
</trkpt>
<trkpt lat="35.1123161" lon="32.5085233">
<ele>10.43</ele>
<time>2015-04-27T06:03:36Z</time>
</trkpt>
<trkpt lat="35.1123716" lon="32.5085532">
<ele>11.68</ele>
<time>2015-04-27T06:03:37Z</time>
</trkpt>
<trkpt lat="35.1124309" lon="32.5085808">
<ele>14.30</ele>
<time>2015-04-27T06:03:38Z</time>
</trkpt>
<trkpt lat="35.1124771" lon="32.5086100">
<ele>16.11</ele>
<time>2015-04-27T06:03:39Z</time>
</trkpt>
<trkpt lat="35.1125280" lon="32.5086375">
<ele>17.52</ele>
<time>2015-04-27T06:03:40Z</time>
</trkpt>
<trkpt lat="35.1125761" lon="32.5086682">
<ele>18.22</ele>
<time>2015-04-27T06:03:41Z</time>
</trkpt>
<trkpt lat="35.1126116" lon="32.5087022">
<ele>18.57</ele>
<time>2015-04-27T06:03:42Z</time>
</trkpt>
<trkpt lat="35.1126615" lon="32.5087316">
<ele>18.75</ele>
<time>2015-04-27T06:03:43Z</time>
</trkpt>
<trkpt lat="35.1127148" lon="32.5087656">
<ele>19.34</ele>
<time>2015-04-27T06:03:44Z</time>
</trkpt>
<trkpt lat="35.1127667" lon="32.5087953">
<ele>19.63</ele>
<time>2015-04-27T06:03:45Z</time>
</trkpt>
<trkpt lat="35.1128208" lon="32.5088248">
<ele>19.78</ele>
<time>2015-04-27T06:03:46Z</time>
</trkpt>
<trkpt lat="35.1128764" lon="32.5088506">
<ele>19.85</ele>
<time>2015-04-27T06:03:47Z</time>
</trkpt>
<trkpt lat="35.1129307" lon="32.5088803">
<ele>19.89</ele>
<time>2015-04-27T06:03:48Z</time>
</trkpt>
<trkpt lat="35.1129840" lon="32.5089091">
<ele>19.91</ele>
<time>2015-04-27T06:03:49Z</time>
</trkpt>
<trkpt lat="35.1130374" lon="32.5089323">
<ele>19.92</ele>
<time>2015-04-27T06:03:50Z</time>
</trkpt>
<trkpt lat="35.1130910" lon="32.5089629">
<ele>19.92</ele>
<time>2015-04-27T06:03:51Z</time>
</trkpt>
<trkpt lat="35.1131479" lon="32.5089899">
<ele>19.92</ele>
<time>2015-04-27T06:03:52Z</time>
</trkpt>
<trkpt lat="35.1132022" lon="32.5090141">
<ele>19.92</ele>
<time>2015-04-27T06:03:53Z</time>
</trkpt>
<trkpt lat="35.1132541" lon="32.5090462">
<ele>19.92</ele>
<time>2015-04-27T06:03:54Z</time>
</trkpt>
<trkpt lat="35.1133087" lon="32.5090768">
<ele>19.92</ele>
<time>2015-04-27T06:03:55Z</time>
</trkpt>
<trkpt lat="35.1133643" lon="32.5091075">
<ele>19.92</ele>
<time>2015-04-27T06:03:56Z</time>
</trkpt>
<trkpt lat="35.1134182" lon="32.5091378">
<ele>19.92</ele>
<time>2015-04-27T06:03:57Z</time>
</trkpt>
<trkpt lat="35.1134754" lon="32.5091614">
<ele>19.92</ele>
<time>2015-04-27T06:03:58Z</time>
</trkpt>
<trkpt lat="35.1135300" lon="32.5091862">
<ele>19.92</ele>
<time>2015-04-27T06:03:59Z</time>
</trkpt>
<trkpt lat="35.1135910" lon="32.5092141">
<ele>19.92</ele>
<time>2015-04-27T06:04:00Z</time>
</trkpt>
<trkpt lat="35.1136472" lon="32.5092434">
<ele>19.92</ele>
<time>2015-04-27T06:04:01Z</time>
</trkpt>
<trkpt lat="35.1137035" lon="32.5092684">
<ele>20.42</ele>
<time>2015-04-27T06:04:02Z</time>
</trkpt>
<trkpt lat="35.1137583" lon="32.5092919">
<ele>20.67</ele>
<time>2015-04-27T06:04:03Z</time>
</trkpt>
<trkpt lat="35.1138134" lon="32.5093086">
<ele>20.30</ele>
<time>2015-04-27T06:04:04Z</time>
</trkpt>
<trkpt lat="35.1138676" lon="32.5093317">
<ele>20.11</ele>
<time>2015-04-27T06:04:05Z</time>
</trkpt>
<trkpt lat="35.1139220" lon="32.5093523">
<ele>20.02</ele>
<time>2015-04-27T06:04:06Z</time>
</trkpt>
<trkpt lat="35.1139814" lon="32.5093717">
<ele>19.97</ele>
<time>2015-04-27T06:04:07Z</time>
</trkpt>
<trkpt lat="35.1140356" lon="32.5093930">
<ele>19.95</ele>
<time>2015-04-27T06:04:08Z</time>
</trkpt>
<trkpt lat="35.1140903" lon="32.5094155">
<ele>19.94</ele>
<time>2015-04-27T06:04:09Z</time>
</trkpt>
<trkpt lat="35.1141484" lon="32.5094271">
<ele>19.93</ele>
<time>2015-04-27T06:04:10Z</time>
</trkpt>
<trkpt lat="35.1141993" lon="32.5094464">
<ele>19.93</ele>
<time>2015-04-27T06:04:11Z</time>
</trkpt>
<trkpt lat="35.1142856" lon="32.5094776">
<ele>19.93</ele>
<time>2015-04-27T06:04:13Z</time>
</trkpt>
<trkpt lat="35.1143349" lon="32.5095030">
<ele>19.93</ele>
<time>2015-04-27T06:04:14Z</time>
</trkpt>
<trkpt lat="35.1143822" lon="32.5095243">
<ele>19.93</ele>
<time>2015-04-27T06:04:15Z</time>
</trkpt>
<trkpt lat="35.1144412" lon="32.5095489">
<ele>19.93</ele>
<time>2015-04-27T06:04:16Z</time>
</trkpt>
<trkpt lat="35.1144911" lon="32.5095675">
<ele>19.93</ele>
<time>2015-04-27T06:04:17Z</time>
</trkpt>
<trkpt lat="35.1145393" lon="32.5095847">
<ele>19.93</ele>
<time>2015-04-27T06:04:18Z</time>
</trkpt>
<trkpt lat="35.1145925" lon="32.5096069">
<ele>19.43</ele>
<time>2015-04-27T06:04:19Z</time>
</trkpt>
<trkpt lat="35.1146431" lon="32.5096266">
<ele>19.68</ele>
<time>2015-04-27T06:04:20Z</time>
</trkpt>
<trkpt lat="35.1146948" lon="32.5096465">
<ele>19.80</ele>
<time>2015-04-27T06:04:21Z</time>
</trkpt>
<trkpt lat="35.1147476" lon="32.5096727">
<ele>19.36</ele>
<time>2015-04-27T06:04:22Z</time>
</trkpt>
<trkpt lat="35.1147989" lon="32.5096920">
<ele>19.64</ele>
<time>2015-04-27T06:04:23Z</time>
</trkpt>
<trkpt lat="35.1148454" lon="32.5097096">
<ele>19.28</ele>
<time>2015-04-27T06:04:24Z</time>
</trkpt>
<trkpt lat="35.1148936" lon="32.5097266">
<ele>19.10</ele>
<time>2015-04-27T06:04:25Z</time>
</trkpt>
<trkpt lat="35.1149369" lon="32.5097502">
<ele>19.01</ele>
<time>2015-04-27T06:04:26Z</time>
</trkpt>
<trkpt lat="35.1149850" lon="32.5097681">
<ele>18.97</ele>
<time>2015-04-27T06:04:27Z</time>
</trkpt>
<trkpt lat="35.1150339" lon="32.5097859">
<ele>18.95</ele>
<time>2015-04-27T06:04:28Z</time>
</trkpt>
<trkpt lat="35.1150810" lon="32.5098047">
<ele>18.94</ele>
<time>2015-04-27T06:04:29Z</time>
</trkpt>
<trkpt lat="35.1151316" lon="32.5098257">
<ele>18.43</ele>
<time>2015-04-27T06:04:30Z</time>
</trkpt>
<trkpt lat="35.1151781" lon="32.5098464">
<ele>18.18</ele>
<time>2015-04-27T06:04:31Z</time>
</trkpt>
<trkpt lat="35.1152235" lon="32.5098606">
<ele>18.05</ele>
<time>2015-04-27T06:04:32Z</time>
</trkpt>
<trkpt lat="35.1152710" lon="32.5098731">
<ele>18.49</ele>
<time>2015-04-27T06:04:33Z</time>
</trkpt>
<trkpt lat="35.1153532" lon="32.5099065">
<ele>18.07</ele>
<time>2015-04-27T06:04:35Z</time>
</trkpt>
<trkpt lat="35.1154007" lon="32.5099188">
<ele>18.00</ele>
<time>2015-04-27T06:04:36Z</time>
</trkpt>
<trkpt lat="35.1154445" lon="32.5099368">
<ele>17.96</ele>
<time>2015-04-27T06:04:37Z</time>
</trkpt>
<trkpt lat="35.1155193" lon="32.5099852">
<ele>17.93</ele>
<time>2015-04-27T06:04:39Z</time>
</trkpt>
<trkpt lat="35.1155623" lon="32.5100057">
<ele>17.93</ele>
<time>2015-04-27T06:04:40Z</time>
</trkpt>
<trkpt lat="35.1156335" lon="32.5100488">
<ele>17.93</ele>
<time>2015-04-27T06:04:42Z</time>
</trkpt>
<trkpt lat="35.1157061" lon="32.5100835">
<ele>18.68</ele>
<time>2015-04-27T06:04:44Z</time>
</trkpt>
<trkpt lat="35.1157725" lon="32.5101157">
<ele>18.36</ele>
<time>2015-04-27T06:04:46Z</time>
</trkpt>
<trkpt lat="35.1158281" lon="32.5101450">
<ele>18.03</ele>
<time>2015-04-27T06:04:48Z</time>
</trkpt>
<trkpt lat="35.1158842" lon="32.5101737">
<ele>17.95</ele>
<time>2015-04-27T06:04:50Z</time>
</trkpt>
<trkpt lat="35.1159427" lon="32.5101994">
<ele>17.93</ele>
<time>2015-04-27T06:04:53Z</time>
</trkpt>
<trkpt lat="35.1159086" lon="32.5101495">
<ele>16.57</ele>
<time>2015-04-27T06:05:04Z</time>
</trkpt>
<trkpt lat="35.1159241" lon="32.5102062">
<ele>21.37</ele>
<time>2015-04-27T06:09:42Z</time>
</trkpt>
<trkpt lat="35.1158833" lon="32.5102389">
<ele>22.06</ele>
<time>2015-04-27T06:09:47Z</time>
</trkpt>
<trkpt lat="35.1158335" lon="32.5102355">
<ele>22.18</ele>
<time>2015-04-27T06:09:51Z</time>
</trkpt>
<trkpt lat="35.1157975" lon="32.5102019">
<ele>21.47</ele>
<time>2015-04-27T06:09:59Z</time>
</trkpt>
<trkpt lat="35.1157490" lon="32.5101806">
<ele>22.37</ele>
<time>2015-04-27T06:10:02Z</time>
</trkpt>
<trkpt lat="35.1156914" lon="32.5101503">
<ele>23.29</ele>
<time>2015-04-27T06:10:04Z</time>
</trkpt>
<trkpt lat="35.1156268" lon="32.5101137">
<ele>24.52</ele>
<time>2015-04-27T06:10:06Z</time>
</trkpt>
<trkpt lat="35.1155572" lon="32.5100761">
<ele>24.07</ele>
<time>2015-04-27T06:10:08Z</time>
</trkpt>
<trkpt lat="35.1154759" lon="32.5100341">
<ele>24.46</ele>
<time>2015-04-27T06:10:10Z</time>
</trkpt>
<trkpt lat="35.1154336" lon="32.5100114">
<ele>24.69</ele>
<time>2015-04-27T06:10:11Z</time>
</trkpt>
<trkpt lat="35.1153917" lon="32.5099888">
<ele>23.81</ele>
<time>2015-04-27T06:10:12Z</time>
</trkpt>
<trkpt lat="35.1153116" lon="32.5099442">
<ele>23.65</ele>
<time>2015-04-27T06:10:14Z</time>
</trkpt>
<trkpt lat="35.1152328" lon="32.5099090">
<ele>25.11</ele>
<time>2015-04-27T06:10:16Z</time>
</trkpt>
<trkpt lat="35.1151528" lon="32.5098780">
<ele>25.72</ele>
<time>2015-04-27T06:10:18Z</time>
</trkpt>
<trkpt lat="35.1150742" lon="32.5098411">
<ele>25.87</ele>
<time>2015-04-27T06:10:20Z</time>
</trkpt>
<trkpt lat="35.1149955" lon="32.5098021">
<ele>26.66</ele>
<time>2015-04-27T06:10:22Z</time>
</trkpt>
<trkpt lat="35.1149182" lon="32.5097701">
<ele>26.61</ele>
<time>2015-04-27T06:10:24Z</time>
</trkpt>
<trkpt lat="35.1148432" lon="32.5097486">
<ele>25.85</ele>
<time>2015-04-27T06:10:26Z</time>
</trkpt>
<trkpt lat="35.1147706" lon="32.5097210">
<ele>25.41</ele>
<time>2015-04-27T06:10:28Z</time>
</trkpt>
<trkpt lat="35.1146941" lon="32.5096913">
<ele>25.05</ele>
<time>2015-04-27T06:10:30Z</time>
</trkpt>
<trkpt lat="35.1146150" lon="32.5096593">
<ele>24.21</ele>
<time>2015-04-27T06:10:32Z</time>
</trkpt>
<trkpt lat="35.1145621" lon="32.5096352">
<ele>23.57</ele>
<time>2015-04-27T06:10:33Z</time>
</trkpt>
<trkpt lat="35.1145173" lon="32.5096162">
<ele>22.75</ele>
<time>2015-04-27T06:10:34Z</time>
</trkpt>
<trkpt lat="35.1144647" lon="32.5095992">
<ele>22.34</ele>
<time>2015-04-27T06:10:35Z</time>
</trkpt>
<trkpt lat="35.1144145" lon="32.5095798">
<ele>22.63</ele>
<time>2015-04-27T06:10:36Z</time>
</trkpt>
<trkpt lat="35.1143618" lon="32.5095632">
<ele>22.78</ele>
<time>2015-04-27T06:10:37Z</time>
</trkpt>
<trkpt lat="35.1143152" lon="32.5095435">
<ele>22.35</ele>
<time>2015-04-27T06:10:38Z</time>
</trkpt>
<trkpt lat="35.1142651" lon="32.5095314">
<ele>22.14</ele>
<time>2015-04-27T06:10:39Z</time>
</trkpt>
<trkpt lat="35.1142127" lon="32.5095078">
<ele>22.03</ele>
<time>2015-04-27T06:10:40Z</time>
</trkpt>
<trkpt lat="35.1141635" lon="32.5094856">
<ele>21.48</ele>
<time>2015-04-27T06:10:41Z</time>
</trkpt>
<trkpt lat="35.1141119" lon="32.5094683">
<ele>21.20</ele>
<time>2015-04-27T06:10:42Z</time>
</trkpt>
<trkpt lat="35.1140534" lon="32.5094531">
<ele>21.56</ele>
<time>2015-04-27T06:10:43Z</time>
</trkpt>
<trkpt lat="35.1140026" lon="32.5094296">
<ele>22.24</ele>
<time>2015-04-27T06:10:44Z</time>
</trkpt>
<trkpt lat="35.1139526" lon="32.5094113">
<ele>22.08</ele>
<time>2015-04-27T06:10:45Z</time>
</trkpt>
<trkpt lat="35.1139136" lon="32.5093829">
<ele>22.50</ele>
<time>2015-04-27T06:10:46Z</time>
</trkpt>
<trkpt lat="35.1138593" lon="32.5093653">
<ele>22.21</ele>
<time>2015-04-27T06:10:47Z</time>
</trkpt>
<trkpt lat="35.1138102" lon="32.5093508">
<ele>22.07</ele>
<time>2015-04-27T06:10:48Z</time>
</trkpt>
<trkpt lat="35.1137590" lon="32.5093315">
<ele>22.00</ele>
<time>2015-04-27T06:10:49Z</time>
</trkpt>
<trkpt lat="35.1137000" lon="32.5093032">
<ele>21.96</ele>
<time>2015-04-27T06:10:50Z</time>
</trkpt>
<trkpt lat="35.1136498" lon="32.5092797">
<ele>21.94</ele>
<time>2015-04-27T06:10:51Z</time>
</trkpt>
<trkpt lat="35.1135920" lon="32.5092545">
<ele>21.43</ele>
<time>2015-04-27T06:10:52Z</time>
</trkpt>
<trkpt lat="35.1135368" lon="32.5092316">
<ele>21.18</ele>
<time>2015-04-27T06:10:53Z</time>
</trkpt>
<trkpt lat="35.1134864" lon="32.5092090">
<ele>21.05</ele>
<time>2015-04-27T06:10:54Z</time>
</trkpt>
<trkpt lat="35.1134360" lon="32.5091950">
<ele>20.99</ele>
<time>2015-04-27T06:10:55Z</time>
</trkpt>
<trkpt lat="35.1133737" lon="32.5091721">
<ele>21.46</ele>
<time>2015-04-27T06:10:56Z</time>
</trkpt>
<trkpt lat="35.1133213" lon="32.5091432">
<ele>21.69</ele>
<time>2015-04-27T06:10:57Z</time>
</trkpt>
<trkpt lat="35.1132698" lon="32.5091176">
<ele>21.81</ele>
<time>2015-04-27T06:10:58Z</time>
</trkpt>
<trkpt lat="35.1132196" lon="32.5090840">
<ele>21.37</ele>
<time>2015-04-27T06:10:59Z</time>
</trkpt>
<trkpt lat="35.1131655" lon="32.5090472">
<ele>20.65</ele>
<time>2015-04-27T06:11:00Z</time>
</trkpt>
<trkpt lat="35.1131198" lon="32.5090252">
<ele>20.29</ele>
<time>2015-04-27T06:11:01Z</time>
</trkpt>
<trkpt lat="35.1130668" lon="32.5090000">
<ele>20.61</ele>
<time>2015-04-27T06:11:02Z</time>
</trkpt>
<trkpt lat="35.1130158" lon="32.5089752">
<ele>20.27</ele>
<time>2015-04-27T06:11:03Z</time>
</trkpt>
<trkpt lat="35.1129508" lon="32.5089503">
<ele>21.60</ele>
<time>2015-04-27T06:11:04Z</time>
</trkpt>
<trkpt lat="35.1128997" lon="32.5089143">
<ele>22.26</ele>
<time>2015-04-27T06:11:05Z</time>
</trkpt>
<trkpt lat="35.1128487" lon="32.5088868">
<ele>22.59</ele>
<time>2015-04-27T06:11:06Z</time>
</trkpt>
<trkpt lat="35.1127985" lon="32.5088591">
<ele>22.26</ele>
<time>2015-04-27T06:11:07Z</time>
</trkpt>
<trkpt lat="35.1127434" lon="32.5088303">
<ele>22.59</ele>
<time>2015-04-27T06:11:08Z</time>
</trkpt>
<trkpt lat="35.1126875" lon="32.5087944">
<ele>22.26</ele>
<time>2015-04-27T06:11:09Z</time>
</trkpt>
<trkpt lat="35.1126338" lon="32.5087648">
<ele>22.09</ele>
<time>2015-04-27T06:11:10Z</time>
</trkpt>
<trkpt lat="35.1125804" lon="32.5087329">
<ele>22.01</ele>
<time>2015-04-27T06:11:11Z</time>
</trkpt>
<trkpt lat="35.1125360" lon="32.5087124">
<ele>21.47</ele>
<time>2015-04-27T06:11:12Z</time>
</trkpt>
<trkpt lat="35.1124834" lon="32.5086823">
<ele>21.20</ele>
<time>2015-04-27T06:11:13Z</time>
</trkpt>
<trkpt lat="35.1124325" lon="32.5086527">
<ele>21.56</ele>
<time>2015-04-27T06:11:14Z</time>
</trkpt>
<trkpt lat="35.1123757" lon="32.5086170">
<ele>21.74</ele>
<time>2015-04-27T06:11:15Z</time>
</trkpt>
<trkpt lat="35.1123245" lon="32.5085824">
<ele>21.33</ele>
<time>2015-04-27T06:11:16Z</time>
</trkpt>
<trkpt lat="35.1122718" lon="32.5085538">
<ele>21.63</ele>
<time>2015-04-27T06:11:17Z</time>
</trkpt>
<trkpt lat="35.1122148" lon="32.5085317">
<ele>21.78</ele>
<time>2015-04-27T06:11:18Z</time>
</trkpt>
<trkpt lat="35.1121585" lon="32.5084996">
<ele>22.35</ele>
<time>2015-04-27T06:11:19Z</time>
</trkpt>
<trkpt lat="35.1120998" lon="32.5084618">
<ele>22.64</ele>
<time>2015-04-27T06:11:20Z</time>
</trkpt>
<trkpt lat="35.1120424" lon="32.5084211">
<ele>22.78</ele>
<time>2015-04-27T06:11:21Z</time>
</trkpt>
<trkpt lat="35.1119865" lon="32.5083840">
<ele>22.85</ele>
<time>2015-04-27T06:11:22Z</time>
</trkpt>
<trkpt lat="35.1119319" lon="32.5083486">
<ele>22.89</ele>
<time>2015-04-27T06:11:23Z</time>
</trkpt>
<trkpt lat="35.1118767" lon="32.5083201">
<ele>23.41</ele>
<time>2015-04-27T06:11:24Z</time>
</trkpt>
<trkpt lat="35.1118136" lon="32.5082949">
<ele>23.17</ele>
<time>2015-04-27T06:11:25Z</time>
</trkpt>
<trkpt lat="35.1117596" lon="32.5082684">
<ele>23.05</ele>
<time>2015-04-27T06:11:26Z</time>
</trkpt>
<trkpt lat="35.1117136" lon="32.5082394">
<ele>22.49</ele>
<time>2015-04-27T06:11:27Z</time>
</trkpt>
<trkpt lat="35.1116659" lon="32.5082077">
<ele>22.21</ele>
<time>2015-04-27T06:11:28Z</time>
</trkpt>
<trkpt lat="35.1116095" lon="32.5081712">
<ele>22.57</ele>
<time>2015-04-27T06:11:29Z</time>
</trkpt>
<trkpt lat="35.1115644" lon="32.5081379">
<ele>22.25</ele>
<time>2015-04-27T06:11:30Z</time>
</trkpt>
<trkpt lat="35.1115099" lon="32.5081084">
<ele>22.09</ele>
<time>2015-04-27T06:11:31Z</time>
</trkpt>
<trkpt lat="35.1114684" lon="32.5080727">
<ele>22.01</ele>
<time>2015-04-27T06:11:32Z</time>
</trkpt>
<trkpt lat="35.1114140" lon="32.5080552">
<ele>21.97</ele>
<time>2015-04-27T06:11:33Z</time>
</trkpt>
<trkpt lat="35.1113657" lon="32.5080339">
<ele>22.45</ele>
<time>2015-04-27T06:11:34Z</time>
</trkpt>
<trkpt lat="35.1113172" lon="32.5080033">
<ele>22.19</ele>
<time>2015-04-27T06:11:35Z</time>
</trkpt>
<trkpt lat="35.1112697" lon="32.5079689">
<ele>22.06</ele>
<time>2015-04-27T06:11:36Z</time>
</trkpt>
<trkpt lat="35.1112131" lon="32.5079325">
<ele>22.49</ele>
<time>2015-04-27T06:11:37Z</time>
</trkpt>
<trkpt lat="35.1111679" lon="32.5078970">
<ele>22.71</ele>
<time>2015-04-27T06:11:38Z</time>
</trkpt>
<trkpt lat="35.1111170" lon="32.5078686">
<ele>22.82</ele>
<time>2015-04-27T06:11:39Z</time>
</trkpt>
<trkpt lat="35.1110651" lon="32.5078416">
<ele>22.87</ele>
<time>2015-04-27T06:11:40Z</time>
</trkpt>
<trkpt lat="35.1110181" lon="32.5078166">
<ele>22.40</ele>
<time>2015-04-27T06:11:41Z</time>
</trkpt>
<trkpt lat="35.1109717" lon="32.5077818">
<ele>21.66</ele>
<time>2015-04-27T06:11:42Z</time>
</trkpt>
<trkpt lat="35.1109211" lon="32.5077342">
<ele>21.29</ele>
<time>2015-04-27T06:11:43Z</time>
</trkpt>
<trkpt lat="35.1108766" lon="32.5077062">
<ele>20.61</ele>
<time>2015-04-27T06:11:44Z</time>
</trkpt>
<trkpt lat="35.1108289" lon="32.5076852">
<ele>20.27</ele>
<time>2015-04-27T06:11:45Z</time>
</trkpt>
<trkpt lat="35.1107746" lon="32.5076562">
<ele>20.10</ele>
<time>2015-04-27T06:11:46Z</time>
</trkpt>
<trkpt lat="35.1107255" lon="32.5076243">
<ele>20.01</ele>
<time>2015-04-27T06:11:47Z</time>
</trkpt>
<trkpt lat="35.1106842" lon="32.5075936">
<ele>19.97</ele>
<time>2015-04-27T06:11:48Z</time>
</trkpt>
<trkpt lat="35.1106366" lon="32.5075793">
<ele>20.45</ele>
<time>2015-04-27T06:11:49Z</time>
</trkpt>
<trkpt lat="35.1105894" lon="32.5075456">
<ele>20.19</ele>
<time>2015-04-27T06:11:50Z</time>
</trkpt>
<trkpt lat="35.1105370" lon="32.5075078">
<ele>20.06</ele>
<time>2015-04-27T06:11:51Z</time>
</trkpt>
<trkpt lat="35.1104821" lon="32.5074752">
<ele>19.99</ele>
<time>2015-04-27T06:11:52Z</time>
</trkpt>
<trkpt lat="35.1104336" lon="32.5074434">
<ele>19.96</ele>
<time>2015-04-27T06:11:53Z</time>
</trkpt>
<trkpt lat="35.1103800" lon="32.5074092">
<ele>19.94</ele>
<time>2015-04-27T06:11:54Z</time>
</trkpt>
<trkpt lat="35.1103301" lon="32.5073631">
<ele>19.93</ele>
<time>2015-04-27T06:11:55Z</time>
</trkpt>
<trkpt lat="35.1102798" lon="32.5073297">
<ele>19.93</ele>
<time>2015-04-27T06:11:56Z</time>
</trkpt>
<trkpt lat="35.1102307" lon="32.5072954">
<ele>19.93</ele>
<time>2015-04-27T06:11:57Z</time>
</trkpt>
<trkpt lat="35.1101757" lon="32.5072513">
<ele>19.93</ele>
<time>2015-04-27T06:11:58Z</time>
</trkpt>
<trkpt lat="35.1101212" lon="32.5072179">
<ele>19.93</ele>
<time>2015-04-27T06:11:59Z</time>
</trkpt>
<trkpt lat="35.1100645" lon="32.5071908">
<ele>19.93</ele>
<time>2015-04-27T06:12:00Z</time>
</trkpt>
<trkpt lat="35.1100135" lon="32.5071555">
<ele>19.93</ele>
<time>2015-04-27T06:12:01Z</time>
</trkpt>
<trkpt lat="35.1099688" lon="32.5071243">
<ele>19.43</ele>
<time>2015-04-27T06:12:02Z</time>
</trkpt>
<trkpt lat="35.1099199" lon="32.5070904">
<ele>18.68</ele>
<time>2015-04-27T06:12:03Z</time>
</trkpt>
<trkpt lat="35.1098709" lon="32.5070599">
<ele>18.30</ele>
<time>2015-04-27T06:12:04Z</time>
</trkpt>
<trkpt lat="35.1098185" lon="32.5070261">
<ele>18.11</ele>
<time>2015-04-27T06:12:05Z</time>
</trkpt>
<trkpt lat="35.1097660" lon="32.5069945">
<ele>18.02</ele>
<time>2015-04-27T06:12:06Z</time>
</trkpt>
<trkpt lat="35.1097117" lon="32.5069567">
<ele>17.47</ele>
<time>2015-04-27T06:12:07Z</time>
</trkpt>
<trkpt lat="35.1096646" lon="32.5069166">
<ele>17.20</ele>
<time>2015-04-27T06:12:08Z</time>
</trkpt>
<trkpt lat="35.1096129" lon="32.5068801">
<ele>17.06</ele>
<time>2015-04-27T06:12:09Z</time>
</trkpt>
<trkpt lat="35.1095631" lon="32.5068514">
<ele>16.99</ele>
<time>2015-04-27T06:12:10Z</time>
</trkpt>
<trkpt lat="35.1095163" lon="32.5068174">
<ele>16.46</ele>
<time>2015-04-27T06:12:11Z</time>
</trkpt>
<trkpt lat="35.1094650" lon="32.5067816">
<ele>15.69</ele>
<time>2015-04-27T06:12:12Z</time>
</trkpt>
<trkpt lat="35.1094167" lon="32.5067546">
<ele>15.31</ele>
<time>2015-04-27T06:12:13Z</time>
</trkpt>
<trkpt lat="35.1093696" lon="32.5067205">
<ele>15.62</ele>
<time>2015-04-27T06:12:14Z</time>
</trkpt>
<trkpt lat="35.1093201" lon="32.5066865">
<ele>15.77</ele>
<time>2015-04-27T06:12:15Z</time>
</trkpt>
<trkpt lat="35.1092731" lon="32.5066498">
<ele>15.35</ele>
<time>2015-04-27T06:12:16Z</time>
</trkpt>
<trkpt lat="35.1092241" lon="32.5066150">
<ele>15.14</ele>
<time>2015-04-27T06:12:17Z</time>
</trkpt>
<trkpt lat="35.1091739" lon="32.5065812">
<ele>15.03</ele>
<time>2015-04-27T06:12:18Z</time>
</trkpt>
<trkpt lat="35.1091263" lon="32.5065481">
<ele>14.98</ele>
<time>2015-04-27T06:12:19Z</time>
</trkpt>
<trkpt lat="35.1090752" lon="32.5065114">
<ele>14.95</ele>
<time>2015-04-27T06:12:20Z</time>
</trkpt>
<trkpt lat="35.1090264" lon="32.5064753">
<ele>14.94</ele>
<time>2015-04-27T06:12:21Z</time>
</trkpt>
<trkpt lat="35.1089790" lon="32.5064427">
<ele>14.93</ele>
<time>2015-04-27T06:12:22Z</time>
</trkpt>
<trkpt lat="35.1089304" lon="32.5064080">
<ele>14.93</ele>
<time>2015-04-27T06:12:23Z</time>
</trkpt>
<trkpt lat="35.1088882" lon="32.5063756">
<ele>14.43</ele>
<time>2015-04-27T06:12:24Z</time>
</trkpt>
<trkpt lat="35.1088438" lon="32.5063419">
<ele>14.68</ele>
<time>2015-04-27T06:12:25Z</time>
</trkpt>
<trkpt lat="35.1088006" lon="32.5063106">
<ele>14.80</ele>
<time>2015-04-27T06:12:26Z</time>
</trkpt>
<trkpt lat="35.1087603" lon="32.5062784">
<ele>14.86</ele>
<time>2015-04-27T06:12:27Z</time>
</trkpt>
<trkpt lat="35.1087200" lon="32.5062480">
<ele>14.89</ele>
<time>2015-04-27T06:12:28Z</time>
</trkpt>
<trkpt lat="35.1086796" lon="32.5062182">
<ele>14.91</ele>
<time>2015-04-27T06:12:29Z</time>
</trkpt>
<trkpt lat="35.1086372" lon="32.5061978">
<ele>14.92</ele>
<time>2015-04-27T06:12:30Z</time>
</trkpt>
<trkpt lat="35.1085923" lon="32.5061703">
<ele>14.92</ele>
<time>2015-04-27T06:12:31Z</time>
</trkpt>
<trkpt lat="35.1085516" lon="32.5061397">
<ele>14.92</ele>
<time>2015-04-27T06:12:32Z</time>
</trkpt>
<trkpt lat="35.1085066" lon="32.5061148">
<ele>14.92</ele>
<time>2015-04-27T06:12:33Z</time>
</trkpt>
<trkpt lat="35.1084638" lon="32.5060785">
<ele>14.92</ele>
<time>2015-04-27T06:12:34Z</time>
</trkpt>
<trkpt lat="35.1084197" lon="32.5060503">
<ele>14.42</ele>
<time>2015-04-27T06:12:35Z</time>
</trkpt>
<trkpt lat="35.1083778" lon="32.5060112">
<ele>14.17</ele>
<time>2015-04-27T06:12:36Z</time>
</trkpt>
<trkpt lat="35.1083304" lon="32.5059802">
<ele>14.55</ele>
<time>2015-04-27T06:12:37Z</time>
</trkpt>
<trkpt lat="35.1082794" lon="32.5059502">
<ele>15.24</ele>
<time>2015-04-27T06:12:38Z</time>
</trkpt>
<trkpt lat="35.1082325" lon="32.5059156">
<ele>16.08</ele>
<time>2015-04-27T06:12:39Z</time>
</trkpt>
<trkpt lat="35.1081827" lon="32.5058888">
<ele>16.50</ele>
<time>2015-04-27T06:12:40Z</time>
</trkpt>
<trkpt lat="35.1081390" lon="32.5058563">
<ele>16.71</ele>
<time>2015-04-27T06:12:41Z</time>
</trkpt>
<trkpt lat="35.1080910" lon="32.5058183">
<ele>17.32</ele>
<time>2015-04-27T06:12:42Z</time>
</trkpt>
<trkpt lat="35.1080398" lon="32.5057879">
<ele>18.12</ele>
<time>2015-04-27T06:12:43Z</time>
</trkpt>
<trkpt lat="35.1079877" lon="32.5057488">
<ele>18.52</ele>
<time>2015-04-27T06:12:44Z</time>
</trkpt>
<trkpt lat="35.1079386" lon="32.5057232">
<ele>17.72</ele>
<time>2015-04-27T06:12:45Z</time>
</trkpt>
<trkpt lat="35.1078906" lon="32.5056831">
<ele>17.32</ele>
<time>2015-04-27T06:12:46Z</time>
</trkpt>
<trkpt lat="35.1078389" lon="32.5056467">
<ele>17.12</ele>
<time>2015-04-27T06:12:47Z</time>
</trkpt>
<trkpt lat="35.1077894" lon="32.5056146">
<ele>17.02</ele>
<time>2015-04-27T06:12:48Z</time>
</trkpt>
<trkpt lat="35.1077336" lon="32.5055792">
<ele>16.97</ele>
<time>2015-04-27T06:12:49Z</time>
</trkpt>
<trkpt lat="35.1076867" lon="32.5055406">
<ele>16.95</ele>
<time>2015-04-27T06:12:50Z</time>
</trkpt>
<trkpt lat="35.1076391" lon="32.5054991">
<ele>16.94</ele>
<time>2015-04-27T06:12:51Z</time>
</trkpt>
<trkpt lat="35.1075906" lon="32.5054626">
<ele>16.93</ele>
<time>2015-04-27T06:12:52Z</time>
</trkpt>
<trkpt lat="35.1075358" lon="32.5054230">
<ele>17.43</ele>
<time>2015-04-27T06:12:53Z</time>
</trkpt>
<trkpt lat="35.1074834" lon="32.5053938">
<ele>17.68</ele>
<time>2015-04-27T06:12:54Z</time>
</trkpt>
<trkpt lat="35.1074299" lon="32.5053715">
<ele>17.80</ele>
<time>2015-04-27T06:12:55Z</time>
</trkpt>
<trkpt lat="35.1073789" lon="32.5053483">
<ele>18.36</ele>
<time>2015-04-27T06:12:56Z</time>
</trkpt>
<trkpt lat="35.1073363" lon="32.5053127">
<ele>18.64</ele>
<time>2015-04-27T06:12:57Z</time>
</trkpt>
<trkpt lat="35.1072946" lon="32.5052802">
<ele>18.78</ele>
<time>2015-04-27T06:12:58Z</time>
</trkpt>
<trkpt lat="35.1072463" lon="32.5052336">
<ele>18.85</ele>
<time>2015-04-27T06:12:59Z</time>
</trkpt>
<trkpt lat="35.1071938" lon="32.5052020">
<ele>19.39</ele>
<time>2015-04-27T06:13:00Z</time>
</trkpt>
<trkpt lat="35.1071464" lon="32.5051630">
<ele>19.66</ele>
<time>2015-04-27T06:13:01Z</time>
</trkpt>
<trkpt lat="35.1071015" lon="32.5051368">
<ele>19.79</ele>
<time>2015-04-27T06:13:02Z</time>
</trkpt>
<trkpt lat="35.1070487" lon="32.5051040">
<ele>19.36</ele>
<time>2015-04-27T06:13:03Z</time>
</trkpt>
<trkpt lat="35.1069898" lon="32.5050747">
<ele>20.14</ele>
<time>2015-04-27T06:13:04Z</time>
</trkpt>
<trkpt lat="35.1069416" lon="32.5050464">
<ele>20.03</ele>
<time>2015-04-27T06:13:05Z</time>
</trkpt>
<trkpt lat="35.1068913" lon="32.5050114">
<ele>20.48</ele>
<time>2015-04-27T06:13:06Z</time>
</trkpt>
<trkpt lat="35.1068490" lon="32.5049858">
<ele>20.20</ele>
<time>2015-04-27T06:13:07Z</time>
</trkpt>
<trkpt lat="35.1067993" lon="32.5049504">
<ele>20.56</ele>
<time>2015-04-27T06:13:08Z</time>
</trkpt>
<trkpt lat="35.1067452" lon="32.5049126">
<ele>20.24</ele>
<time>2015-04-27T06:13:09Z</time>
</trkpt>
<trkpt lat="35.1066959" lon="32.5048773">
<ele>20.08</ele>
<time>2015-04-27T06:13:10Z</time>
</trkpt>
<trkpt lat="35.1066404" lon="32.5048327">
<ele>20.00</ele>
<time>2015-04-27T06:13:11Z</time>
</trkpt>
<trkpt lat="35.1065889" lon="32.5047966">
<ele>19.96</ele>
<time>2015-04-27T06:13:12Z</time>
</trkpt>
<trkpt lat="35.1065329" lon="32.5047555">
<ele>19.44</ele>
<time>2015-04-27T06:13:13Z</time>
</trkpt>
<trkpt lat="35.1064835" lon="32.5047331">
<ele>18.68</ele>
<time>2015-04-27T06:13:14Z</time>
</trkpt>
<trkpt lat="35.1064317" lon="32.5046985">
<ele>18.80</ele>
<time>2015-04-27T06:13:15Z</time>
</trkpt>
<trkpt lat="35.1063752" lon="32.5046664">
<ele>18.86</ele>
<time>2015-04-27T06:13:16Z</time>
</trkpt>
<trkpt lat="35.1063258" lon="32.5046372">
<ele>18.89</ele>
<time>2015-04-27T06:13:17Z</time>
</trkpt>
<trkpt lat="35.1062750" lon="32.5046009">
<ele>18.91</ele>
<time>2015-04-27T06:13:18Z</time>
</trkpt>
<trkpt lat="35.1062250" lon="32.5045667">
<ele>18.92</ele>
<time>2015-04-27T06:13:19Z</time>
</trkpt>
<trkpt lat="35.1061749" lon="32.5045383">
<ele>18.42</ele>
<time>2015-04-27T06:13:20Z</time>
</trkpt>
<trkpt lat="35.1061224" lon="32.5045067">
<ele>18.67</ele>
<time>2015-04-27T06:13:21Z</time>
</trkpt>
<trkpt lat="35.1060793" lon="32.5044713">
<ele>18.80</ele>
<time>2015-04-27T06:13:22Z</time>
</trkpt>
<trkpt lat="35.1060290" lon="32.5044511">
<ele>19.36</ele>
<time>2015-04-27T06:13:23Z</time>
</trkpt>
<trkpt lat="35.1059800" lon="32.5044170">
<ele>19.64</ele>
<time>2015-04-27T06:13:24Z</time>
</trkpt>
<trkpt lat="35.1059373" lon="32.5043832">
<ele>19.28</ele>
<time>2015-04-27T06:13:25Z</time>
</trkpt>
<trkpt lat="35.1058959" lon="32.5043489">
<ele>18.10</ele>
<time>2015-04-27T06:13:26Z</time>
</trkpt>
<trkpt lat="35.1058517" lon="32.5043181">
<ele>18.01</ele>
<time>2015-04-27T06:13:27Z</time>
</trkpt>
<trkpt lat="35.1058015" lon="32.5042921">
<ele>17.97</ele>
<time>2015-04-27T06:13:28Z</time>
</trkpt>
<trkpt lat="35.1057592" lon="32.5042598">
<ele>18.45</ele>
<time>2015-04-27T06:13:29Z</time>
</trkpt>
<trkpt lat="35.1056789" lon="32.5042242">
<ele>18.81</ele>
<time>2015-04-27T06:13:31Z</time>
</trkpt>
<trkpt lat="35.1055890" lon="32.5042055">
<ele>18.40</ele>
<time>2015-04-27T06:13:33Z</time>
</trkpt>
<trkpt lat="35.1055164" lon="32.5041757">
<ele>18.54</ele>
<time>2015-04-27T06:13:35Z</time>
</trkpt>
<trkpt lat="35.1054468" lon="32.5041492">
<ele>18.83</ele>
<time>2015-04-27T06:13:37Z</time>
</trkpt>
<trkpt lat="35.1053887" lon="32.5041248">
<ele>17.40</ele>
<time>2015-04-27T06:13:39Z</time>
</trkpt>
<trkpt lat="35.1053437" lon="32.5041208">
<ele>17.54</ele>
<time>2015-04-27T06:13:41Z</time>
</trkpt>
<trkpt lat="35.1052932" lon="32.5041292">
<ele>17.13</ele>
<time>2015-04-27T06:13:44Z</time>
</trkpt>
<trkpt lat="35.1052478" lon="32.5041275">
<ele>17.70</ele>
<time>2015-04-27T06:13:47Z</time>
</trkpt>
<trkpt lat="35.1052150" lon="32.5040798">
<ele>18.85</ele>
<time>2015-04-27T06:13:51Z</time>
</trkpt>
<trkpt lat="35.1051742" lon="32.5040511">
<ele>20.29</ele>
<time>2015-04-27T06:13:54Z</time>
</trkpt>
<trkpt lat="35.1051227" lon="32.5040370">
<ele>20.27</ele>
<time>2015-04-27T06:13:56Z</time>
</trkpt>
<trkpt lat="35.1050616" lon="32.5040252">
<ele>20.01</ele>
<time>2015-04-27T06:13:58Z</time>
</trkpt>
<trkpt lat="35.1050033" lon="32.5040219">
<ele>19.95</ele>
<time>2015-04-27T06:14:00Z</time>
</trkpt>
<trkpt lat="35.1049483" lon="32.5040129">
<ele>19.43</ele>
<time>2015-04-27T06:14:02Z</time>
</trkpt>
<trkpt lat="35.1048928" lon="32.5039989">
<ele>20.30</ele>
<time>2015-04-27T06:14:04Z</time>
</trkpt>
<trkpt lat="35.1048325" lon="32.5039796">
<ele>20.77</ele>
<time>2015-04-27T06:14:06Z</time>
</trkpt>
<trkpt lat="35.1047686" lon="32.5039577">
<ele>21.39</ele>
<time>2015-04-27T06:14:08Z</time>
</trkpt>
<trkpt lat="35.1047049" lon="32.5039355">
<ele>21.79</ele>
<time>2015-04-27T06:14:10Z</time>
</trkpt>
<trkpt lat="35.1046440" lon="32.5039204">
<ele>21.39</ele>
<time>2015-04-27T06:14:12Z</time>
</trkpt>
<trkpt lat="35.1045872" lon="32.5039060">
<ele>21.04</ele>
<time>2015-04-27T06:14:14Z</time>
</trkpt>
<trkpt lat="35.1045354" lon="32.5038928">
<ele>21.45</ele>
<time>2015-04-27T06:14:16Z</time>
</trkpt>
<trkpt lat="35.1044838" lon="32.5038855">
<ele>21.81</ele>
<time>2015-04-27T06:14:18Z</time>
</trkpt>
<trkpt lat="35.1044307" lon="32.5038782">
<ele>21.90</ele>
<time>2015-04-27T06:14:20Z</time>
</trkpt>
<trkpt lat="35.1043728" lon="32.5038666">
<ele>21.92</ele>
<time>2015-04-27T06:14:22Z</time>
</trkpt>
<trkpt lat="35.1043110" lon="32.5038528">
<ele>21.92</ele>
<time>2015-04-27T06:14:24Z</time>
</trkpt>
<trkpt lat="35.1042488" lon="32.5038322">
<ele>22.17</ele>
<time>2015-04-27T06:14:26Z</time>
</trkpt>
<trkpt lat="35.1041848" lon="32.5038050">
<ele>21.24</ele>
<time>2015-04-27T06:14:28Z</time>
</trkpt>
<trkpt lat="35.1041176" lon="32.5037753">
<ele>21.00</ele>
<time>2015-04-27T06:14:30Z</time>
</trkpt>
<trkpt lat="35.1040396" lon="32.5037359">
<ele>20.19</ele>
<time>2015-04-27T06:14:32Z</time>
</trkpt>
<trkpt lat="35.1039577" lon="32.5036892">
<ele>20.49</ele>
<time>2015-04-27T06:14:34Z</time>
</trkpt>
<trkpt lat="35.1038791" lon="32.5036385">
<ele>20.82</ele>
<time>2015-04-27T06:14:36Z</time>
</trkpt>
<trkpt lat="35.1038001" lon="32.5035915">
<ele>20.90</ele>
<time>2015-04-27T06:14:38Z</time>
</trkpt>
<trkpt lat="35.1037266" lon="32.5035494">
<ele>20.17</ele>
<time>2015-04-27T06:14:40Z</time>
</trkpt>
<trkpt lat="35.1036598" lon="32.5035042">
<ele>19.99</ele>
<time>2015-04-27T06:14:42Z</time>
</trkpt>
<trkpt lat="35.1036002" lon="32.5034572">
<ele>19.19</ele>
<time>2015-04-27T06:14:44Z</time>
</trkpt>
<trkpt lat="35.1035466" lon="32.5034198">
<ele>18.74</ele>
<time>2015-04-27T06:14:46Z</time>
</trkpt>
<trkpt lat="35.1035033" lon="32.5033856">
<ele>18.88</ele>
<time>2015-04-27T06:14:48Z</time>
</trkpt>
<trkpt lat="35.1034628" lon="32.5033455">
<ele>18.66</ele>
<time>2015-04-27T06:14:50Z</time>
</trkpt>
<trkpt lat="35.1034170" lon="32.5033100">
<ele>18.36</ele>
<time>2015-04-27T06:14:52Z</time>
</trkpt>
<trkpt lat="35.1033714" lon="32.5032732">
<ele>18.03</ele>
<time>2015-04-27T06:14:54Z</time>
</trkpt>
<trkpt lat="35.1033265" lon="32.5032409">
<ele>17.95</ele>
<time>2015-04-27T06:14:56Z</time>
</trkpt>
<trkpt lat="35.1032776" lon="32.5032464">
<ele>17.18</ele>
<time>2015-04-27T06:14:58Z</time>
</trkpt>
<trkpt lat="35.1032496" lon="32.5033028">
<ele>16.99</ele>
<time>2015-04-27T06:15:00Z</time>
</trkpt>
<trkpt lat="35.1032686" lon="32.5033789">
<ele>16.19</ele>
<time>2015-04-27T06:15:02Z</time>
</trkpt>
<trkpt lat="35.1033141" lon="32.5034486">
<ele>16.49</ele>
<time>2015-04-27T06:15:04Z</time>
</trkpt>
<trkpt lat="35.1033604" lon="32.5035191">
<ele>16.57</ele>
<time>2015-04-27T06:15:06Z</time>
</trkpt>
<trkpt lat="35.1034050" lon="32.5035983">
<ele>17.34</ele>
<time>2015-04-27T06:15:08Z</time>
</trkpt>
<trkpt lat="35.1034428" lon="32.5036827">
<ele>18.28</ele>
<time>2015-04-27T06:15:10Z</time>
</trkpt>
<trkpt lat="35.1034736" lon="32.5037694">
<ele>18.76</ele>
<time>2015-04-27T06:15:12Z</time>
</trkpt>
<trkpt lat="35.1035007" lon="32.5038540">
<ele>18.88</ele>
<time>2015-04-27T06:15:14Z</time>
</trkpt>
<trkpt lat="35.1035238" lon="32.5039392">
<ele>19.16</ele>
<time>2015-04-27T06:15:16Z</time>
</trkpt>
<trkpt lat="35.1035405" lon="32.5040226">
<ele>18.98</ele>
<time>2015-04-27T06:15:18Z</time>
</trkpt>
<trkpt lat="35.1035487" lon="32.5041025">
<ele>20.44</ele>
<time>2015-04-27T06:15:20Z</time>
</trkpt>
<trkpt lat="35.1035459" lon="32.5041796">
<ele>20.80</ele>
<time>2015-04-27T06:15:22Z</time>
</trkpt>
<trkpt lat="35.1035295" lon="32.5042569">
<ele>22.14</ele>
<time>2015-04-27T06:15:24Z</time>
</trkpt>
<trkpt lat="35.1035033" lon="32.5043302">
<ele>22.73</ele>
<time>2015-04-27T06:15:26Z</time>
</trkpt>
<trkpt lat="35.1034701" lon="32.5043975">
<ele>23.38</ele>
<time>2015-04-27T06:15:28Z</time>
</trkpt>
<trkpt lat="35.1034352" lon="32.5044573">
<ele>24.29</ele>
<time>2015-04-27T06:15:30Z</time>
</trkpt>
<trkpt lat="35.1033953" lon="32.5045089">
<ele>24.77</ele>
<time>2015-04-27T06:15:32Z</time>
</trkpt>
<trkpt lat="35.1033500" lon="32.5045508">
<ele>24.64</ele>
<time>2015-04-27T06:15:34Z</time>
</trkpt>
<trkpt lat="35.1033038" lon="32.5045836">
<ele>24.85</ele>
<time>2015-04-27T06:15:36Z</time>
</trkpt>
<trkpt lat="35.1032590" lon="32.5046143">
<ele>24.16</ele>
<time>2015-04-27T06:15:38Z</time>
</trkpt>
<trkpt lat="35.1032130" lon="32.5046443">
<ele>23.98</ele>
<time>2015-04-27T06:15:40Z</time>
</trkpt>
<trkpt lat="35.1031686" lon="32.5046753">
<ele>24.69</ele>
<time>2015-04-27T06:15:42Z</time>
</trkpt>
<trkpt lat="35.1031196" lon="32.5046970">
<ele>25.37</ele>
<time>2015-04-27T06:15:44Z</time>
</trkpt>
<trkpt lat="35.1030700" lon="32.5047121">
<ele>25.79</ele>
<time>2015-04-27T06:15:46Z</time>
</trkpt>
<trkpt lat="35.1030220" lon="32.5047291">
<ele>26.14</ele>
<time>2015-04-27T06:15:48Z</time>
</trkpt>
<trkpt lat="35.1029744" lon="32.5047505">
<ele>25.98</ele>
<time>2015-04-27T06:15:50Z</time>
</trkpt>
<trkpt lat="35.1029261" lon="32.5047750">
<ele>25.94</ele>
<time>2015-04-27T06:15:52Z</time>
</trkpt>
<trkpt lat="35.1028791" lon="32.5047964">
<ele>26.43</ele>
<time>2015-04-27T06:15:54Z</time>
</trkpt>
<trkpt lat="35.1028347" lon="32.5048092">
<ele>27.55</ele>
<time>2015-04-27T06:15:56Z</time>
</trkpt>
<trkpt lat="35.1027812" lon="32.5048427">
<ele>27.00</ele>
<time>2015-04-27T06:15:59Z</time>
</trkpt>
<trkpt lat="35.1027274" lon="32.5048769">
<ele>28.56</ele>
<time>2015-04-27T06:16:02Z</time>
</trkpt>
<trkpt lat="35.1026818" lon="32.5049227">
<ele>28.38</ele>
<time>2015-04-27T06:16:05Z</time>
</trkpt>
<trkpt lat="35.1026400" lon="32.5049746">
<ele>28.73</ele>
<time>2015-04-27T06:16:08Z</time>
</trkpt>
<trkpt lat="35.1025937" lon="32.5050273">
<ele>28.90</ele>
<time>2015-04-27T06:16:11Z</time>
</trkpt>
<trkpt lat="35.1025498" lon="32.5050752">
<ele>28.92</ele>
<time>2015-04-27T06:16:14Z</time>
</trkpt>
<trkpt lat="35.1025093" lon="32.5051283">
<ele>27.67</ele>
<time>2015-04-27T06:16:17Z</time>
</trkpt>
<trkpt lat="35.1024656" lon="32.5051802">
<ele>27.89</ele>
<time>2015-04-27T06:16:20Z</time>
</trkpt>
<trkpt lat="35.1024240" lon="32.5052329">
<ele>27.92</ele>
<time>2015-04-27T06:16:23Z</time>
</trkpt>
<trkpt lat="35.1023843" lon="32.5052874">
<ele>27.80</ele>
<time>2015-04-27T06:16:26Z</time>
</trkpt>
<trkpt lat="35.1023456" lon="32.5053364">
<ele>27.03</ele>
<time>2015-04-27T06:16:29Z</time>
</trkpt>
<trkpt lat="35.1023120" lon="32.5053953">
<ele>26.94</ele>
<time>2015-04-27T06:16:32Z</time>
</trkpt>
<trkpt lat="35.1022750" lon="32.5054454">
<ele>26.93</ele>
<time>2015-04-27T06:16:35Z</time>
</trkpt>
<trkpt lat="35.1022309" lon="32.5054947">
<ele>28.55</ele>
<time>2015-04-27T06:16:38Z</time>
</trkpt>
<trkpt lat="35.1021909" lon="32.5055450">
<ele>29.63</ele>
<time>2015-04-27T06:16:41Z</time>
</trkpt>
<trkpt lat="35.1021574" lon="32.5056030">
<ele>29.89</ele>
<time>2015-04-27T06:16:44Z</time>
</trkpt>
<trkpt lat="35.1021272" lon="32.5056689">
<ele>29.92</ele>
<time>2015-04-27T06:16:47Z</time>
</trkpt>
<trkpt lat="35.1020990" lon="32.5057399">
<ele>30.30</ele>
<time>2015-04-27T06:16:50Z</time>
</trkpt>
<trkpt lat="35.1020751" lon="32.5058034">
<ele>29.97</ele>
<time>2015-04-27T06:16:53Z</time>
</trkpt>
<trkpt lat="35.1020583" lon="32.5058751">
<ele>31.18</ele>
<time>2015-04-27T06:16:56Z</time>
</trkpt>
<trkpt lat="35.1020364" lon="32.5059499">
<ele>32.46</ele>
<time>2015-04-27T06:16:59Z</time>
</trkpt>
<trkpt lat="35.1020141" lon="32.5060216">
<ele>34.12</ele>
<time>2015-04-27T06:17:02Z</time>
</trkpt>
<trkpt lat="35.1019895" lon="32.5060944">
<ele>33.95</ele>
<time>2015-04-27T06:17:05Z</time>
</trkpt>
<trkpt lat="35.1019616" lon="32.5061657">
<ele>33.93</ele>
<time>2015-04-27T06:17:08Z</time>
</trkpt>
<trkpt lat="35.1019349" lon="32.5062375">
<ele>33.68</ele>
<time>2015-04-27T06:17:11Z</time>
</trkpt>
<trkpt lat="35.1019083" lon="32.5063079">
<ele>33.02</ele>
<time>2015-04-27T06:17:14Z</time>
</trkpt>
<trkpt lat="35.1018814" lon="32.5063832">
<ele>34.06</ele>
<time>2015-04-27T06:17:17Z</time>
</trkpt>
<trkpt lat="35.1018642" lon="32.5064375">
<ele>35.21</ele>
<time>2015-04-27T06:17:19Z</time>
</trkpt>
<trkpt lat="35.1018444" lon="32.5064925">
<ele>36.00</ele>
<time>2015-04-27T06:17:21Z</time>
</trkpt>
<trkpt lat="35.1018241" lon="32.5065488">
<ele>36.44</ele>
<time>2015-04-27T06:17:23Z</time>
</trkpt>
<trkpt lat="35.1018098" lon="32.5066040">
<ele>36.80</ele>
<time>2015-04-27T06:17:25Z</time>
</trkpt>
<trkpt lat="35.1017963" lon="32.5066602">
<ele>36.89</ele>
<time>2015-04-27T06:17:27Z</time>
</trkpt>
<trkpt lat="35.1017800" lon="32.5067155">
<ele>37.17</ele>
<time>2015-04-27T06:17:29Z</time>
</trkpt>
<trkpt lat="35.1017639" lon="32.5067733">
<ele>36.49</ele>
<time>2015-04-27T06:17:31Z</time>
</trkpt>
<trkpt lat="35.1017488" lon="32.5068295">
<ele>36.82</ele>
<time>2015-04-27T06:17:33Z</time>
</trkpt>
<trkpt lat="35.1017321" lon="32.5068818">
<ele>37.15</ele>
<time>2015-04-27T06:17:35Z</time>
</trkpt>
<trkpt lat="35.1017095" lon="32.5069566">
<ele>34.45</ele>
<time>2015-04-27T06:17:38Z</time>
</trkpt>
<trkpt lat="35.1016884" lon="32.5070062">
<ele>34.81</ele>
<time>2015-04-27T06:17:40Z</time>
</trkpt>
<trkpt lat="35.1016668" lon="32.5070600">
<ele>34.90</ele>
<time>2015-04-27T06:17:42Z</time>
</trkpt>
<trkpt lat="35.1016485" lon="32.5071167">
<ele>35.67</ele>
<time>2015-04-27T06:17:44Z</time>
</trkpt>
<trkpt lat="35.1016302" lon="32.5071706">
<ele>36.61</ele>
<time>2015-04-27T06:17:46Z</time>
</trkpt>
<trkpt lat="35.1016103" lon="32.5072218">
<ele>36.85</ele>
<time>2015-04-27T06:17:48Z</time>
</trkpt>
<trkpt lat="35.1015780" lon="32.5072947">
<ele>37.42</ele>
<time>2015-04-27T06:17:51Z</time>
</trkpt>
<trkpt lat="35.1015484" lon="32.5073676">
<ele>37.86</ele>
<time>2015-04-27T06:17:54Z</time>
</trkpt>
<trkpt lat="35.1015190" lon="32.5074369">
<ele>39.54</ele>
<time>2015-04-27T06:17:57Z</time>
</trkpt>
<trkpt lat="35.1014936" lon="32.5074929">
<ele>39.88</ele>
<time>2015-04-27T06:18:00Z</time>
</trkpt>
<trkpt lat="35.1014604" lon="32.5075377">
<ele>40.67</ele>
<time>2015-04-27T06:18:03Z</time>
</trkpt>
<trkpt lat="35.1014272" lon="32.5075829">
<ele>40.52</ele>
<time>2015-04-27T06:18:06Z</time>
</trkpt>
<trkpt lat="35.1013929" lon="32.5076365">
<ele>40.90</ele>
<time>2015-04-27T06:18:10Z</time>
</trkpt>
<trkpt lat="35.1013563" lon="32.5076887">
<ele>39.99</ele>
<time>2015-04-27T06:18:14Z</time>
</trkpt>
<trkpt lat="35.1013161" lon="32.5077403">
<ele>40.80</ele>
<time>2015-04-27T06:18:18Z</time>
</trkpt>
<trkpt lat="35.1012787" lon="32.5077776">
<ele>43.03</ele>
<time>2015-04-27T06:18:21Z</time>
</trkpt>
<trkpt lat="35.1012454" lon="32.5078173">
<ele>43.81</ele>
<time>2015-04-27T06:18:24Z</time>
</trkpt>
<trkpt lat="35.1012108" lon="32.5078526">
<ele>43.91</ele>
<time>2015-04-27T06:18:27Z</time>
</trkpt>
<trkpt lat="35.1011594" lon="32.5078844">
<ele>43.36</ele>
<time>2015-04-27T06:18:31Z</time>
</trkpt>
<trkpt lat="35.1011197" lon="32.5079197">
<ele>43.35</ele>
<time>2015-04-27T06:18:34Z</time>
</trkpt>
<trkpt lat="35.1010896" lon="32.5079653">
<ele>43.85</ele>
<time>2015-04-27T06:18:37Z</time>
</trkpt>
<trkpt lat="35.1010530" lon="32.5080193">
<ele>44.05</ele>
<time>2015-04-27T06:18:41Z</time>
</trkpt>
<trkpt lat="35.1010271" lon="32.5080816">
<ele>44.87</ele>
<time>2015-04-27T06:18:45Z</time>
</trkpt>
<trkpt lat="35.1009955" lon="32.5081325">
<ele>45.17</ele>
<time>2015-04-27T06:18:49Z</time>
</trkpt>
<trkpt lat="35.1009624" lon="32.5081925">
<ele>45.75</ele>
<time>2015-04-27T06:18:53Z</time>
</trkpt>
<trkpt lat="35.1009302" lon="32.5082512">
<ele>47.66</ele>
<time>2015-04-27T06:18:57Z</time>
</trkpt>
<trkpt lat="35.1009055" lon="32.5083130">
<ele>50.16</ele>
<time>2015-04-27T06:19:01Z</time>
</trkpt>
<trkpt lat="35.1008813" lon="32.5083770">
<ele>50.31</ele>
<time>2015-04-27T06:19:05Z</time>
</trkpt>
<trkpt lat="35.1008787" lon="32.5084331">
<ele>49.97</ele>
<time>2015-04-27T06:19:08Z</time>
</trkpt>
<trkpt lat="35.1008850" lon="32.5084886">
<ele>51.31</ele>
<time>2015-04-27T06:19:11Z</time>
</trkpt>
<trkpt lat="35.1008850" lon="32.5085454">
<ele>52.35</ele>
<time>2015-04-27T06:19:14Z</time>
</trkpt>
<trkpt lat="35.1008884" lon="32.5086017">
<ele>53.73</ele>
<time>2015-04-27T06:19:17Z</time>
</trkpt>
<trkpt lat="35.1008861" lon="32.5086573">
<ele>53.65</ele>
<time>2015-04-27T06:19:20Z</time>
</trkpt>
<trkpt lat="35.1008994" lon="32.5087278">
<ele>53.16</ele>
<time>2015-04-27T06:19:24Z</time>
</trkpt>
<trkpt lat="35.1009106" lon="32.5087981">
<ele>53.38</ele>
<time>2015-04-27T06:19:28Z</time>
</trkpt>
<trkpt lat="35.1009185" lon="32.5088671">
<ele>55.08</ele>
<time>2015-04-27T06:19:32Z</time>
</trkpt>
<trkpt lat="35.1009304" lon="32.5089360">
<ele>56.62</ele>
<time>2015-04-27T06:19:36Z</time>
</trkpt>
<trkpt lat="35.1009355" lon="32.5089910">
<ele>56.89</ele>
<time>2015-04-27T06:19:39Z</time>
</trkpt>
<trkpt lat="35.1009498" lon="32.5090446">
<ele>56.42</ele>
<time>2015-04-27T06:19:42Z</time>
</trkpt>
<trkpt lat="35.1009634" lon="32.5090990">
<ele>56.74</ele>
<time>2015-04-27T06:19:45Z</time>
</trkpt>
<trkpt lat="35.1009763" lon="32.5091696">
<ele>55.48</ele>
<time>2015-04-27T06:19:49Z</time>
</trkpt>
<trkpt lat="35.1009899" lon="32.5092404">
<ele>56.40</ele>
<time>2015-04-27T06:19:53Z</time>
</trkpt>
<trkpt lat="35.1009944" lon="32.5093028">
<ele>56.11</ele>
<time>2015-04-27T06:19:56Z</time>
</trkpt>
<trkpt lat="35.1009945" lon="32.5093649">
<ele>56.82</ele>
<time>2015-04-27T06:19:59Z</time>
</trkpt>
<trkpt lat="35.1009992" lon="32.5094274">
<ele>56.16</ele>
<time>2015-04-27T06:20:02Z</time>
</trkpt>
<trkpt lat="35.1010033" lon="32.5094907">
<ele>57.08</ele>
<time>2015-04-27T06:20:05Z</time>
</trkpt>
<trkpt lat="35.1010055" lon="32.5095560">
<ele>57.44</ele>
<time>2015-04-27T06:20:08Z</time>
</trkpt>
<trkpt lat="35.1010034" lon="32.5096264">
<ele>57.11</ele>
<time>2015-04-27T06:20:11Z</time>
</trkpt>
<trkpt lat="35.1009973" lon="32.5097016">
<ele>57.45</ele>
<time>2015-04-27T06:20:14Z</time>
</trkpt>
<trkpt lat="35.1009964" lon="32.5097753">
<ele>57.74</ele>
<time>2015-04-27T06:20:17Z</time>
</trkpt>
<trkpt lat="35.1010020" lon="32.5098454">
<ele>57.53</ele>
<time>2015-04-27T06:20:20Z</time>
</trkpt>
<trkpt lat="35.1010075" lon="32.5099128">
<ele>57.88</ele>
<time>2015-04-27T06:20:23Z</time>
</trkpt>
<trkpt lat="35.1010162" lon="32.5099847">
<ele>57.04</ele>
<time>2015-04-27T06:20:26Z</time>
</trkpt>
<trkpt lat="35.1010263" lon="32.5100626">
<ele>57.69</ele>
<time>2015-04-27T06:20:29Z</time>
</trkpt>
<trkpt lat="35.1010346" lon="32.5101425">
<ele>57.40</ele>
<time>2015-04-27T06:20:32Z</time>
</trkpt>
<trkpt lat="35.1010458" lon="32.5102194">
<ele>56.98</ele>
<time>2015-04-27T06:20:35Z</time>
</trkpt>
<trkpt lat="35.1010480" lon="32.5102781">
<ele>58.19</ele>
<time>2015-04-27T06:20:37Z</time>
</trkpt>
<trkpt lat="35.1010481" lon="32.5103383">
<ele>57.99</ele>
<time>2015-04-27T06:20:39Z</time>
</trkpt>
<trkpt lat="35.1010446" lon="32.5103988">
<ele>58.69</ele>
<time>2015-04-27T06:20:41Z</time>
</trkpt>
<trkpt lat="35.1010439" lon="32.5104546">
<ele>58.37</ele>
<time>2015-04-27T06:20:43Z</time>
</trkpt>
<trkpt lat="35.1010460" lon="32.5105307">
<ele>57.86</ele>
<time>2015-04-27T06:20:46Z</time>
</trkpt>
<trkpt lat="35.1010494" lon="32.5106082">
<ele>57.04</ele>
<time>2015-04-27T06:20:49Z</time>
</trkpt>
<trkpt lat="35.1010604" lon="32.5106884">
<ele>56.94</ele>
<time>2015-04-27T06:20:52Z</time>
</trkpt>
<trkpt lat="35.1010711" lon="32.5107481">
<ele>56.43</ele>
<time>2015-04-27T06:20:54Z</time>
</trkpt>
<trkpt lat="35.1010775" lon="32.5108122">
<ele>56.80</ele>
<time>2015-04-27T06:20:56Z</time>
</trkpt>
<trkpt lat="35.1010817" lon="32.5108753">
<ele>56.89</ele>
<time>2015-04-27T06:20:58Z</time>
</trkpt>
<trkpt lat="35.1010862" lon="32.5109361">
<ele>56.92</ele>
<time>2015-04-27T06:21:00Z</time>
</trkpt>
<trkpt lat="35.1010901" lon="32.5109966">
<ele>56.92</ele>
<time>2015-04-27T06:21:02Z</time>
</trkpt>
<trkpt lat="35.1010908" lon="32.5110623">
<ele>56.17</ele>
<time>2015-04-27T06:21:04Z</time>
</trkpt>
<trkpt lat="35.1010948" lon="32.5111589">
<ele>56.49</ele>
<time>2015-04-27T06:21:06Z</time>
</trkpt>
<trkpt lat="35.1010982" lon="32.5112618">
<ele>56.71</ele>
<time>2015-04-27T06:21:07Z</time>
</trkpt>
<trkpt lat="35.1010991" lon="32.5113293">
<ele>56.32</ele>
<time>2015-04-27T06:21:08Z</time>
</trkpt>
<trkpt lat="35.1011082" lon="32.5114026">
<ele>56.12</ele>
<time>2015-04-27T06:21:09Z</time>
</trkpt>
<trkpt lat="35.1011273" lon="32.5114872">
<ele>55.02</ele>
<time>2015-04-27T06:21:10Z</time>
</trkpt>
<trkpt lat="35.1011501" lon="32.5115785">
<ele>54.47</ele>
<time>2015-04-27T06:21:11Z</time>
</trkpt>
<trkpt lat="35.1011740" lon="32.5116705">
<ele>53.70</ele>
<time>2015-04-27T06:21:12Z</time>
</trkpt>
<trkpt lat="35.1011894" lon="32.5117488">
<ele>53.31</ele>
<time>2015-04-27T06:21:13Z</time>
</trkpt>
<trkpt lat="35.1012085" lon="32.5118347">
<ele>52.62</ele>
<time>2015-04-27T06:21:14Z</time>
</trkpt>
<trkpt lat="35.1012242" lon="32.5119288">
<ele>51.77</ele>
<time>2015-04-27T06:21:15Z</time>
</trkpt>
<trkpt lat="35.1012318" lon="32.5120170">
<ele>51.35</ele>
<time>2015-04-27T06:21:16Z</time>
</trkpt>
<trkpt lat="35.1012540" lon="32.5121032">
<ele>50.64</ele>
<time>2015-04-27T06:21:17Z</time>
</trkpt>
<trkpt lat="35.1012784" lon="32.5121934">
<ele>50.28</ele>
<time>2015-04-27T06:21:18Z</time>
</trkpt>
<trkpt lat="35.1012967" lon="32.5122731">
<ele>50.10</ele>
<time>2015-04-27T06:21:19Z</time>
</trkpt>
<trkpt lat="35.1013074" lon="32.5123614">
<ele>50.01</ele>
<time>2015-04-27T06:21:20Z</time>
</trkpt>
<trkpt lat="35.1013115" lon="32.5124480">
<ele>49.97</ele>
<time>2015-04-27T06:21:21Z</time>
</trkpt>
<trkpt lat="35.1013057" lon="32.5125217">
<ele>49.95</ele>
<time>2015-04-27T06:21:22Z</time>
</trkpt>
<trkpt lat="35.1012928" lon="32.5126034">
<ele>49.94</ele>
<time>2015-04-27T06:21:23Z</time>
</trkpt>
<trkpt lat="35.1012743" lon="32.5126814">
<ele>49.93</ele>
<time>2015-04-27T06:21:24Z</time>
</trkpt>
<trkpt lat="35.1012583" lon="32.5127500">
<ele>49.93</ele>
<time>2015-04-27T06:21:25Z</time>
</trkpt>
<trkpt lat="35.1012513" lon="32.5128149">
<ele>49.43</ele>
<time>2015-04-27T06:21:26Z</time>
</trkpt>
<trkpt lat="35.1012374" lon="32.5128798">
<ele>49.18</ele>
<time>2015-04-27T06:21:27Z</time>
</trkpt>
<trkpt lat="35.1012136" lon="32.5129494">
<ele>48.55</ele>
<time>2015-04-27T06:21:28Z</time>
</trkpt>
<trkpt lat="35.1011994" lon="32.5130138">
<ele>48.24</ele>
<time>2015-04-27T06:21:29Z</time>
</trkpt>
<trkpt lat="35.1011844" lon="32.5130857">
<ele>48.58</ele>
<time>2015-04-27T06:21:30Z</time>
</trkpt>
<trkpt lat="35.1011640" lon="32.5131526">
<ele>48.75</ele>
<time>2015-04-27T06:21:31Z</time>
</trkpt>
<trkpt lat="35.1011404" lon="32.5132137">
<ele>48.84</ele>
<time>2015-04-27T06:21:32Z</time>
</trkpt>
<trkpt lat="35.1011141" lon="32.5132690">
<ele>48.88</ele>
<time>2015-04-27T06:21:33Z</time>
</trkpt>
<trkpt lat="35.1010804" lon="32.5133240">
<ele>49.40</ele>
<time>2015-04-27T06:21:34Z</time>
</trkpt>
<trkpt lat="35.1010458" lon="32.5133702">
<ele>49.16</ele>
<time>2015-04-27T06:21:35Z</time>
</trkpt>
<trkpt lat="35.1010051" lon="32.5134160">
<ele>49.54</ele>
<time>2015-04-27T06:21:36Z</time>
</trkpt>
<trkpt lat="35.1009334" lon="32.5134956">
<ele>50.33</ele>
<time>2015-04-27T06:21:38Z</time>
</trkpt>
<trkpt lat="35.1008960" lon="32.5135432">
<ele>50.63</ele>
<time>2015-04-27T06:21:39Z</time>
</trkpt>
<trkpt lat="35.1008555" lon="32.5135850">
<ele>50.78</ele>
<time>2015-04-27T06:21:40Z</time>
</trkpt>
<trkpt lat="35.1008117" lon="32.5136290">
<ele>50.85</ele>
<time>2015-04-27T06:21:41Z</time>
</trkpt>
<trkpt lat="35.1007500" lon="32.5137092">
<ele>53.16</ele>
<time>2015-04-27T06:21:43Z</time>
</trkpt>
<trkpt lat="35.1006852" lon="32.5137758">
<ele>52.98</ele>
<time>2015-04-27T06:21:45Z</time>
</trkpt>
<trkpt lat="35.1006417" lon="32.5138436">
<ele>53.44</ele>
<time>2015-04-27T06:21:47Z</time>
</trkpt>
<trkpt lat="35.1006168" lon="32.5139026">
<ele>54.30</ele>
<time>2015-04-27T06:21:49Z</time>
</trkpt>
<trkpt lat="35.1005986" lon="32.5139674">
<ele>54.02</ele>
<time>2015-04-27T06:21:51Z</time>
</trkpt>
<trkpt lat="35.1005839" lon="32.5140417">
<ele>53.45</ele>
<time>2015-04-27T06:21:53Z</time>
</trkpt>
<trkpt lat="35.1005687" lon="32.5141149">
<ele>53.81</ele>
<time>2015-04-27T06:21:55Z</time>
</trkpt>
<trkpt lat="35.1005481" lon="32.5141895">
<ele>53.65</ele>
<time>2015-04-27T06:21:57Z</time>
</trkpt>
<trkpt lat="35.1005274" lon="32.5142668">
<ele>54.36</ele>
<time>2015-04-27T06:21:59Z</time>
</trkpt>
<trkpt lat="35.1005058" lon="32.5143445">
<ele>54.78</ele>
<time>2015-04-27T06:22:01Z</time>
</trkpt>
<trkpt lat="35.1004792" lon="32.5144191">
<ele>54.39</ele>
<time>2015-04-27T06:22:03Z</time>
</trkpt>
<trkpt lat="35.1004547" lon="32.5144857">
<ele>54.79</ele>
<time>2015-04-27T06:22:05Z</time>
</trkpt>
<trkpt lat="35.1004305" lon="32.5145551">
<ele>56.53</ele>
<time>2015-04-27T06:22:08Z</time>
</trkpt>
<trkpt lat="35.1004110" lon="32.5146085">
<ele>57.13</ele>
<time>2015-04-27T06:22:11Z</time>
</trkpt>
<trkpt lat="35.1004152" lon="32.5146767">
<ele>59.56</ele>
<time>2015-04-27T06:22:15Z</time>
</trkpt>
<trkpt lat="35.1004288" lon="32.5147320">
<ele>61.51</ele>
<time>2015-04-27T06:22:20Z</time>
</trkpt>
<trkpt lat="35.1004759" lon="32.5147513">
<ele>60.51</ele>
<time>2015-04-27T06:22:25Z</time>
</trkpt>
<trkpt lat="35.1005124" lon="32.5147931">
<ele>61.65</ele>
<time>2015-04-27T06:22:29Z</time>
</trkpt>
<trkpt lat="35.1005492" lon="32.5148423">
<ele>61.53</ele>
<time>2015-04-27T06:22:33Z</time>
</trkpt>
<trkpt lat="35.1005895" lon="32.5148903">
<ele>61.15</ele>
<time>2015-04-27T06:22:37Z</time>
</trkpt>
<trkpt lat="35.1006244" lon="32.5149378">
<ele>61.25</ele>
<time>2015-04-27T06:22:41Z</time>
</trkpt>
<trkpt lat="35.1006355" lon="32.5149957">
<ele>60.07</ele>
<time>2015-04-27T06:22:45Z</time>
</trkpt>
<trkpt lat="35.1006576" lon="32.5150586">
<ele>59.75</ele>
<time>2015-04-27T06:22:49Z</time>
</trkpt>
<trkpt lat="35.1006968" lon="32.5151142">
<ele>60.85</ele>
<time>2015-04-27T06:22:53Z</time>
</trkpt>
<trkpt lat="35.1007186" lon="32.5151640">
<ele>61.42</ele>
<time>2015-04-27T06:22:56Z</time>
</trkpt>
<trkpt lat="35.1007373" lon="32.5152162">
<ele>61.49</ele>
<time>2015-04-27T06:22:59Z</time>
</trkpt>
<trkpt lat="35.1007564" lon="32.5152811">
<ele>62.65</ele>
<time>2015-04-27T06:23:03Z</time>
</trkpt>
<trkpt lat="35.1007739" lon="32.5153418">
<ele>62.03</ele>
<time>2015-04-27T06:23:07Z</time>
</trkpt>
<trkpt lat="35.1007816" lon="32.5154104">
<ele>61.93</ele>
<time>2015-04-27T06:23:11Z</time>
</trkpt>
<trkpt lat="35.1007960" lon="32.5154774">
<ele>62.30</ele>
<time>2015-04-27T06:23:15Z</time>
</trkpt>
<trkpt lat="35.1008178" lon="32.5155383">
<ele>61.07</ele>
<time>2015-04-27T06:23:19Z</time>
</trkpt>
<trkpt lat="35.1008351" lon="32.5155996">
<ele>60.93</ele>
<time>2015-04-27T06:23:23Z</time>
</trkpt>
<trkpt lat="35.1008461" lon="32.5156628">
<ele>60.05</ele>
<time>2015-04-27T06:23:27Z</time>
</trkpt>
<trkpt lat="35.1008441" lon="32.5157327">
<ele>59.75</ele>
<time>2015-04-27T06:23:31Z</time>
</trkpt>
<trkpt lat="35.1008837" lon="32.5157750">
<ele>59.23</ele>
<time>2015-04-27T06:23:35Z</time>
</trkpt>
<trkpt lat="35.1009265" lon="32.5158132">
<ele>60.07</ele>
<time>2015-04-27T06:23:39Z</time>
</trkpt>
<trkpt lat="35.1009397" lon="32.5158732">
<ele>63.06</ele>
<time>2015-04-27T06:23:43Z</time>
</trkpt>
<trkpt lat="35.1009513" lon="32.5159358">
<ele>62.62</ele>
<time>2015-04-27T06:23:47Z</time>
</trkpt>
<trkpt lat="35.1009928" lon="32.5159643">
<ele>62.14</ele>
<time>2015-04-27T06:23:50Z</time>
</trkpt>
<trkpt lat="35.1010346" lon="32.5160118">
<ele>61.44</ele>
<time>2015-04-27T06:23:54Z</time>
</trkpt>
<trkpt lat="35.1010578" lon="32.5160702">
<ele>61.64</ele>
<time>2015-04-27T06:23:58Z</time>
</trkpt>
<trkpt lat="35.1010825" lon="32.5161238">
<ele>63.16</ele>
<time>2015-04-27T06:24:02Z</time>
</trkpt>
<trkpt lat="35.1011032" lon="32.5161831">
<ele>66.19</ele>
<time>2015-04-27T06:24:06Z</time>
</trkpt>
<trkpt lat="35.1011161" lon="32.5162475">
<ele>68.57</ele>
<time>2015-04-27T06:24:10Z</time>
</trkpt>
<trkpt lat="35.1011308" lon="32.5163083">
<ele>69.65</ele>
<time>2015-04-27T06:24:14Z</time>
</trkpt>
<trkpt lat="35.1011534" lon="32.5163701">
<ele>70.85</ele>
<time>2015-04-27T06:24:18Z</time>
</trkpt>
<trkpt lat="35.1011745" lon="32.5164295">
<ele>71.42</ele>
<time>2015-04-27T06:24:22Z</time>
</trkpt>
<trkpt lat="35.1011885" lon="32.5164954">
<ele>73.27</ele>
<time>2015-04-27T06:24:26Z</time>
</trkpt>
<trkpt lat="35.1011908" lon="32.5165642">
<ele>72.45</ele>
<time>2015-04-27T06:24:30Z</time>
</trkpt>
<trkpt lat="35.1011799" lon="32.5166350">
<ele>72.83</ele>
<time>2015-04-27T06:24:34Z</time>
</trkpt>
<trkpt lat="35.1011673" lon="32.5166965">
<ele>73.04</ele>
<time>2015-04-27T06:24:38Z</time>
</trkpt>
<trkpt lat="35.1011693" lon="32.5167531">
<ele>71.12</ele>
<time>2015-04-27T06:24:42Z</time>
</trkpt>
<trkpt lat="35.1011590" lon="32.5168157">
<ele>70.19</ele>
<time>2015-04-27T06:24:46Z</time>
</trkpt>
<trkpt lat="35.1011310" lon="32.5168735">
<ele>70.82</ele>
<time>2015-04-27T06:24:50Z</time>
</trkpt>
<trkpt lat="35.1011141" lon="32.5169431">
<ele>73.48</ele>
<time>2015-04-27T06:24:54Z</time>
</trkpt>
<trkpt lat="35.1011108" lon="32.5169991">
<ele>76.24</ele>
<time>2015-04-27T06:24:57Z</time>
</trkpt>
<trkpt lat="35.1011012" lon="32.5170721">
<ele>77.44</ele>
<time>2015-04-27T06:25:01Z</time>
</trkpt>
<trkpt lat="35.1010903" lon="32.5171314">
<ele>76.49</ele>
<time>2015-04-27T06:25:04Z</time>
</trkpt>
<trkpt lat="35.1010622" lon="32.5171903">
<ele>77.96</ele>
<time>2015-04-27T06:25:08Z</time>
</trkpt>
<trkpt lat="35.1010388" lon="32.5172389">
<ele>78.68</ele>
<time>2015-04-27T06:25:11Z</time>
</trkpt>
<trkpt lat="35.1010058" lon="32.5172840">
<ele>78.97</ele>
<time>2015-04-27T06:25:15Z</time>
</trkpt>
<trkpt lat="35.1009922" lon="32.5173548">
<ele>79.68</ele>
<time>2015-04-27T06:25:19Z</time>
</trkpt>
<trkpt lat="35.1009721" lon="32.5174100">
<ele>79.39</ele>
<time>2015-04-27T06:25:22Z</time>
</trkpt>
<trkpt lat="35.1009410" lon="32.5174689">
<ele>78.48</ele>
<time>2015-04-27T06:25:25Z</time>
</trkpt>
<trkpt lat="35.1009158" lon="32.5175229">
<ele>77.99</ele>
<time>2015-04-27T06:25:28Z</time>
</trkpt>
<trkpt lat="35.1008989" lon="32.5175927">
<ele>77.18</ele>
<time>2015-04-27T06:25:31Z</time>
</trkpt>
<trkpt lat="35.1008820" lon="32.5176607">
<ele>76.96</ele>
<time>2015-04-27T06:25:34Z</time>
</trkpt>
<trkpt lat="35.1008691" lon="32.5177277">
<ele>76.93</ele>
<time>2015-04-27T06:25:37Z</time>
</trkpt>
<trkpt lat="35.1008681" lon="32.5177995">
<ele>76.43</ele>
<time>2015-04-27T06:25:40Z</time>
</trkpt>
<trkpt lat="35.1008665" lon="32.5178731">
<ele>75.11</ele>
<time>2015-04-27T06:25:43Z</time>
</trkpt>
<trkpt lat="35.1008657" lon="32.5179417">
<ele>75.45</ele>
<time>2015-04-27T06:25:46Z</time>
</trkpt>
<trkpt lat="35.1008671" lon="32.5180104">
<ele>75.24</ele>
<time>2015-04-27T06:25:49Z</time>
</trkpt>
<trkpt lat="35.1008647" lon="32.5180759">
<ele>76.21</ele>
<time>2015-04-27T06:25:52Z</time>
</trkpt>
<trkpt lat="35.1008650" lon="32.5181357">
<ele>75.59</ele>
<time>2015-04-27T06:25:55Z</time>
</trkpt>
<trkpt lat="35.1008616" lon="32.5181999">
<ele>75.01</ele>
<time>2015-04-27T06:25:58Z</time>
</trkpt>
<trkpt lat="35.1008356" lon="32.5182675">
<ele>78.81</ele>
<time>2015-04-27T06:26:01Z</time>
</trkpt>
<trkpt lat="35.1007993" lon="32.5183281">
<ele>79.54</ele>
<time>2015-04-27T06:26:04Z</time>
</trkpt>
<trkpt lat="35.1007805" lon="32.5183950">
<ele>80.38</ele>
<time>2015-04-27T06:26:07Z</time>
</trkpt>
<trkpt lat="35.1007654" lon="32.5184617">
<ele>80.98</ele>
<time>2015-04-27T06:26:10Z</time>
</trkpt>
<trkpt lat="35.1007452" lon="32.5185262">
<ele>80.93</ele>
<time>2015-04-27T06:26:13Z</time>
</trkpt>
<trkpt lat="35.1007326" lon="32.5186000">
<ele>82.68</ele>
<time>2015-04-27T06:26:16Z</time>
</trkpt>
<trkpt lat="35.1007273" lon="32.5186556">
<ele>83.61</ele>
<time>2015-04-27T06:26:18Z</time>
</trkpt>
<trkpt lat="35.1007297" lon="32.5187240">
<ele>82.60</ele>
<time>2015-04-27T06:26:20Z</time>
</trkpt>
<trkpt lat="35.1007464" lon="32.5187987">
<ele>81.59</ele>
<time>2015-04-27T06:26:22Z</time>
</trkpt>
<trkpt lat="35.1007684" lon="32.5188704">
<ele>81.09</ele>
<time>2015-04-27T06:26:24Z</time>
</trkpt>
<trkpt lat="35.1007854" lon="32.5189310">
<ele>80.97</ele>
<time>2015-04-27T06:26:26Z</time>
</trkpt>
<trkpt lat="35.1007972" lon="32.5189909">
<ele>80.06</ele>
<time>2015-04-27T06:26:29Z</time>
</trkpt>
<trkpt lat="35.1008180" lon="32.5190643">
<ele>77.02</ele>
<time>2015-04-27T06:29:00Z</time>
</trkpt>
<trkpt lat="35.1008502" lon="32.5191219">
<ele>76.20</ele>
<time>2015-04-27T06:29:02Z</time>
</trkpt>
<trkpt lat="35.1008888" lon="32.5191846">
<ele>75.49</ele>
<time>2015-04-27T06:29:04Z</time>
</trkpt>
<trkpt lat="35.1009327" lon="32.5192456">
<ele>74.07</ele>
<time>2015-04-27T06:29:06Z</time>
</trkpt>
<trkpt lat="35.1009735" lon="32.5193205">
<ele>72.21</ele>
<time>2015-04-27T06:29:08Z</time>
</trkpt>
<trkpt lat="35.1009927" lon="32.5194148">
<ele>72.75</ele>
<time>2015-04-27T06:29:10Z</time>
</trkpt>
<trkpt lat="35.1009656" lon="32.5195078">
<ele>72.38</ele>
<time>2015-04-27T06:29:12Z</time>
</trkpt>
<trkpt lat="35.1009010" lon="32.5195601">
<ele>71.54</ele>
<time>2015-04-27T06:29:14Z</time>
</trkpt>
<trkpt lat="35.1008251" lon="32.5195775">
<ele>71.83</ele>
<time>2015-04-27T06:29:16Z</time>
</trkpt>
<trkpt lat="35.1007563" lon="32.5195795">
<ele>70.15</ele>
<time>2015-04-27T06:29:18Z</time>
</trkpt>
<trkpt lat="35.1006916" lon="32.5195953">
<ele>65.48</ele>
<time>2015-04-27T06:29:20Z</time>
</trkpt>
<trkpt lat="35.1006277" lon="32.5196311">
<ele>64.56</ele>
<time>2015-04-27T06:29:22Z</time>
</trkpt>
<trkpt lat="35.1005628" lon="32.5196392">
<ele>66.58</ele>
<time>2015-04-27T06:29:24Z</time>
</trkpt>
<trkpt lat="35.1005071" lon="32.5196322">
<ele>71.34</ele>
<time>2015-04-27T06:29:26Z</time>
</trkpt>
<trkpt lat="35.1004650" lon="32.5196545">
<ele>74.03</ele>
<time>2015-04-27T06:29:28Z</time>
</trkpt>
<trkpt lat="35.1004386" lon="32.5197026">
<ele>75.45</ele>
<time>2015-04-27T06:29:30Z</time>
</trkpt>
<trkpt lat="35.1004293" lon="32.5197596">
<ele>77.06</ele>
<time>2015-04-27T06:29:32Z</time>
</trkpt>
<trkpt lat="35.1004286" lon="32.5198193">
<ele>77.71</ele>
<time>2015-04-27T06:29:34Z</time>
</trkpt>
<trkpt lat="35.1004187" lon="32.5198735">
<ele>77.87</ele>
<time>2015-04-27T06:29:36Z</time>
</trkpt>
<trkpt lat="35.1003972" lon="32.5199483">
<ele>77.79</ele>
<time>2015-04-27T06:29:39Z</time>
</trkpt>
<trkpt lat="35.1003805" lon="32.5200048">
<ele>78.41</ele>
<time>2015-04-27T06:29:42Z</time>
</trkpt>
<trkpt lat="35.1003666" lon="32.5200763">
<ele>78.96</ele>
<time>2015-04-27T06:29:46Z</time>
</trkpt>
<trkpt lat="35.1003395" lon="32.5201406">
<ele>78.93</ele>
<time>2015-04-27T06:29:49Z</time>
</trkpt>
<trkpt lat="35.1003015" lon="32.5202029">
<ele>79.80</ele>
<time>2015-04-27T06:29:52Z</time>
</trkpt>
<trkpt lat="35.1002708" lon="32.5202446">
<ele>79.64</ele>
<time>2015-04-27T06:29:54Z</time>
</trkpt>
<trkpt lat="35.1002353" lon="32.5202832">
<ele>80.85</ele>
<time>2015-04-27T06:29:56Z</time>
</trkpt>
<trkpt lat="35.1001942" lon="32.5203149">
<ele>82.41</ele>
<time>2015-04-27T06:29:58Z</time>
</trkpt>
<trkpt lat="35.1001562" lon="32.5203450">
<ele>82.55</ele>
<time>2015-04-27T06:30:00Z</time>
</trkpt>
<trkpt lat="35.1000989" lon="32.5203857">
<ele>84.50</ele>
<time>2015-04-27T06:30:03Z</time>
</trkpt>
<trkpt lat="35.1000460" lon="32.5204295">
<ele>85.12</ele>
<time>2015-04-27T06:30:06Z</time>
</trkpt>
<trkpt lat="35.0999944" lon="32.5204752">
<ele>84.95</ele>
<time>2015-04-27T06:30:09Z</time>
</trkpt>
<trkpt lat="35.0999410" lon="32.5205156">
<ele>86.43</ele>
<time>2015-04-27T06:30:12Z</time>
</trkpt>
<trkpt lat="35.0998880" lon="32.5205568">
<ele>87.11</ele>
<time>2015-04-27T06:30:15Z</time>
</trkpt>
<trkpt lat="35.0998374" lon="32.5206072">
<ele>87.82</ele>
<time>2015-04-27T06:30:18Z</time>
</trkpt>
<trkpt lat="35.0997937" lon="32.5206508">
<ele>89.16</ele>
<time>2015-04-27T06:30:21Z</time>
</trkpt>
<trkpt lat="35.0997600" lon="32.5206892">
<ele>93.47</ele>
<time>2015-04-27T06:30:32Z</time>
</trkpt>
<trkpt lat="35.0997476" lon="32.5207606">
<ele>95.27</ele>
<time>2015-04-27T06:30:36Z</time>
</trkpt>
<trkpt lat="35.0997396" lon="32.5208255">
<ele>94.22</ele>
<time>2015-04-27T06:30:39Z</time>
</trkpt>
<trkpt lat="35.0997382" lon="32.5208852">
<ele>94.71</ele>
<time>2015-04-27T06:30:42Z</time>
</trkpt>
<trkpt lat="35.0997400" lon="32.5209422">
<ele>96.02</ele>
<time>2015-04-27T06:30:45Z</time>
</trkpt>
<trkpt lat="35.0997344" lon="32.5210143">
<ele>94.68</ele>
<time>2015-04-27T06:30:49Z</time>
</trkpt>
<trkpt lat="35.0997304" lon="32.5210886">
<ele>93.22</ele>
<time>2015-04-27T06:30:53Z</time>
</trkpt>
<trkpt lat="35.0997244" lon="32.5211443">
<ele>93.84</ele>
<time>2015-04-27T06:30:56Z</time>
</trkpt>
<trkpt lat="35.0997144" lon="32.5212022">
<ele>94.66</ele>
<time>2015-04-27T06:30:59Z</time>
</trkpt>
<trkpt lat="35.0996993" lon="32.5212591">
<ele>94.27</ele>
<time>2015-04-27T06:31:02Z</time>
</trkpt>
<trkpt lat="35.0996794" lon="32.5213196">
<ele>93.95</ele>
<time>2015-04-27T06:31:06Z</time>
</trkpt>
<trkpt lat="35.0996660" lon="32.5213807">
<ele>92.68</ele>
<time>2015-04-27T06:31:10Z</time>
</trkpt>
<trkpt lat="35.0996453" lon="32.5214475">
<ele>92.16</ele>
<time>2015-04-27T06:31:14Z</time>
</trkpt>
<trkpt lat="35.0996318" lon="32.5215066">
<ele>93.58</ele>
<time>2015-04-27T06:31:17Z</time>
</trkpt>
<trkpt lat="35.0996309" lon="32.5215629">
<ele>93.38</ele>
<time>2015-04-27T06:31:20Z</time>
</trkpt>
<trkpt lat="35.0996156" lon="32.5216168">
<ele>92.11</ele>
<time>2015-04-27T06:31:23Z</time>
</trkpt>
<trkpt lat="35.0996019" lon="32.5216778">
<ele>94.20</ele>
<time>2015-04-27T06:31:26Z</time>
</trkpt>
<trkpt lat="35.0995960" lon="32.5217375">
<ele>94.58</ele>
<time>2015-04-27T06:31:29Z</time>
</trkpt>
<trkpt lat="35.0995869" lon="32.5217956">
<ele>95.88</ele>
<time>2015-04-27T06:31:32Z</time>
</trkpt>
<trkpt lat="35.0995797" lon="32.5218527">
<ele>95.17</ele>
<time>2015-04-27T06:31:35Z</time>
</trkpt>
<trkpt lat="35.0995763" lon="32.5219116">
<ele>93.71</ele>
<time>2015-04-27T06:31:38Z</time>
</trkpt>
<trkpt lat="35.0995681" lon="32.5219699">
<ele>93.77</ele>
<time>2015-04-27T06:31:41Z</time>
</trkpt>
<trkpt lat="35.0995678" lon="32.5220303">
<ele>93.03</ele>
<time>2015-04-27T06:31:44Z</time>
</trkpt>
<trkpt lat="35.0995645" lon="32.5220948">
<ele>92.31</ele>
<time>2015-04-27T06:31:47Z</time>
</trkpt>
<trkpt lat="35.0995692" lon="32.5221588">
<ele>92.97</ele>
<time>2015-04-27T06:31:50Z</time>
</trkpt>
<trkpt lat="35.0995734" lon="32.5222212">
<ele>93.31</ele>
<time>2015-04-27T06:31:53Z</time>
</trkpt>
<trkpt lat="35.0995867" lon="32.5222788">
<ele>94.10</ele>
<time>2015-04-27T06:31:56Z</time>
</trkpt>
<trkpt lat="35.0996065" lon="32.5223345">
<ele>94.95</ele>
<time>2015-04-27T06:31:59Z</time>
</trkpt>
<trkpt lat="35.0996301" lon="32.5223902">
<ele>96.30</ele>
<time>2015-04-27T06:32:02Z</time>
</trkpt>
<trkpt lat="35.0996564" lon="32.5224359">
<ele>97.72</ele>
<time>2015-04-27T06:32:05Z</time>
</trkpt>
<trkpt lat="35.0996892" lon="32.5224964">
<ele>98.35</ele>
<time>2015-04-27T06:32:09Z</time>
</trkpt>
<trkpt lat="35.0997077" lon="32.5225536">
<ele>97.73</ele>
<time>2015-04-27T06:32:12Z</time>
</trkpt>
<trkpt lat="35.0997091" lon="32.5226285">
<ele>99.40</ele>
<time>2015-04-27T06:32:15Z</time>
</trkpt>
<trkpt lat="35.0996854" lon="32.5227045">
<ele>99.86</ele>
<time>2015-04-27T06:32:18Z</time>
</trkpt>
<trkpt lat="35.0996596" lon="32.5227496">
<ele>100.16</ele>
<time>2015-04-27T06:32:20Z</time>
</trkpt>
<trkpt lat="35.0996177" lon="32.5228099">
<ele>100.83</ele>
<time>2015-04-27T06:32:23Z</time>
</trkpt>
<trkpt lat="35.0995694" lon="32.5228602">
<ele>103.04</ele>
<time>2015-04-27T06:32:26Z</time>
</trkpt>
<trkpt lat="35.0995214" lon="32.5229001">
<ele>102.56</ele>
<time>2015-04-27T06:32:29Z</time>
</trkpt>
<trkpt lat="35.0994665" lon="32.5229327">
<ele>103.00</ele>
<time>2015-04-27T06:32:32Z</time>
</trkpt>
<trkpt lat="35.0994106" lon="32.5229734">
<ele>103.31</ele>
<time>2015-04-27T06:32:35Z</time>
</trkpt>
<trkpt lat="35.0993529" lon="32.5230001">
<ele>104.60</ele>
<time>2015-04-27T06:32:38Z</time>
</trkpt>
<trkpt lat="35.0992946" lon="32.5230112">
<ele>106.13</ele>
<time>2015-04-27T06:32:41Z</time>
</trkpt>
<trkpt lat="35.0992322" lon="32.5230152">
<ele>107.08</ele>
<time>2015-04-27T06:32:44Z</time>
</trkpt>
<trkpt lat="35.0991705" lon="32.5230181">
<ele>107.32</ele>
<time>2015-04-27T06:32:47Z</time>
</trkpt>
<trkpt lat="35.0991115" lon="32.5230260">
<ele>107.60</ele>
<time>2015-04-27T06:32:50Z</time>
</trkpt>
<trkpt lat="35.0990551" lon="32.5230472">
<ele>107.63</ele>
<time>2015-04-27T06:32:53Z</time>
</trkpt>
<trkpt lat="35.0990010" lon="32.5230730">
<ele>107.89</ele>
<time>2015-04-27T06:32:56Z</time>
</trkpt>
<trkpt lat="35.0989487" lon="32.5230966">
<ele>107.92</ele>
<time>2015-04-27T06:32:59Z</time>
</trkpt>
<trkpt lat="35.0988979" lon="32.5231169">
<ele>106.80</ele>
<time>2015-04-27T06:33:02Z</time>
</trkpt>
<trkpt lat="35.0988522" lon="32.5231538">
<ele>107.41</ele>
<time>2015-04-27T06:33:05Z</time>
</trkpt>
<trkpt lat="35.0988036" lon="32.5231969">
<ele>107.86</ele>
<time>2015-04-27T06:33:08Z</time>
</trkpt>
<trkpt lat="35.0987483" lon="32.5232292">
<ele>109.54</ele>
<time>2015-04-27T06:33:11Z</time>
</trkpt>
<trkpt lat="35.0986865" lon="32.5232626">
<ele>109.38</ele>
<time>2015-04-27T06:33:14Z</time>
</trkpt>
<trkpt lat="35.0986425" lon="32.5232877">
<ele>108.54</ele>
<time>2015-04-27T06:33:16Z</time>
</trkpt>
<trkpt lat="35.0986004" lon="32.5233201">
<ele>108.58</ele>
<time>2015-04-27T06:33:18Z</time>
</trkpt>
<trkpt lat="35.0985563" lon="32.5233589">
<ele>108.09</ele>
<time>2015-04-27T06:33:20Z</time>
</trkpt>
<trkpt lat="35.0985072" lon="32.5234020">
<ele>108.72</ele>
<time>2015-04-27T06:33:22Z</time>
</trkpt>
<trkpt lat="35.0984598" lon="32.5234577">
<ele>109.62</ele>
<time>2015-04-27T06:33:24Z</time>
</trkpt>
<trkpt lat="35.0984237" lon="32.5235233">
<ele>110.60</ele>
<time>2015-04-27T06:33:26Z</time>
</trkpt>
<trkpt lat="35.0984010" lon="32.5236012">
<ele>110.09</ele>
<time>2015-04-27T06:33:28Z</time>
</trkpt>
<trkpt lat="35.0983876" lon="32.5236862">
<ele>109.97</ele>
<time>2015-04-27T06:33:30Z</time>
</trkpt>
<trkpt lat="35.0983820" lon="32.5237842">
<ele>108.69</ele>
<time>2015-04-27T06:33:32Z</time>
</trkpt>
<trkpt lat="35.0983826" lon="32.5238401">
<ele>107.81</ele>
<time>2015-04-27T06:33:33Z</time>
</trkpt>
<trkpt lat="35.0983870" lon="32.5238988">
<ele>106.37</ele>
<time>2015-04-27T06:33:34Z</time>
</trkpt>
<trkpt lat="35.0983994" lon="32.5240070">
<ele>105.15</ele>
<time>2015-04-27T06:33:35Z</time>
</trkpt>
<trkpt lat="35.0984025" lon="32.5240691">
<ele>104.54</ele>
<time>2015-04-27T06:33:36Z</time>
</trkpt>
<trkpt lat="35.0984126" lon="32.5241327">
<ele>104.23</ele>
<time>2015-04-27T06:33:37Z</time>
</trkpt>
<trkpt lat="35.0984115" lon="32.5242056">
<ele>103.58</ele>
<time>2015-04-27T06:33:38Z</time>
</trkpt>
<trkpt lat="35.0983935" lon="32.5242753">
<ele>103.25</ele>
<time>2015-04-27T06:33:39Z</time>
</trkpt>
<trkpt lat="35.0983729" lon="32.5243295">
<ele>103.09</ele>
<time>2015-04-27T06:33:40Z</time>
</trkpt>
<trkpt lat="35.0983294" lon="32.5244020">
<ele>102.97</ele>
<time>2015-04-27T06:33:42Z</time>
</trkpt>
<trkpt lat="35.0982847" lon="32.5244221">
<ele>102.95</ele>
<time>2015-04-27T06:33:43Z</time>
</trkpt>
<trkpt lat="35.0982250" lon="32.5244415">
<ele>104.43</ele>
<time>2015-04-27T06:33:45Z</time>
</trkpt>
<trkpt lat="35.0981701" lon="32.5244490">
<ele>105.05</ele>
<time>2015-04-27T06:33:47Z</time>
</trkpt>
<trkpt lat="35.0981201" lon="32.5244516">
<ele>105.21</ele>
<time>2015-04-27T06:33:49Z</time>
</trkpt>
<trkpt lat="35.0980528" lon="32.5244513">
<ele>107.46</ele>
<time>2015-04-27T06:33:52Z</time>
</trkpt>
<trkpt lat="35.0980078" lon="32.5244594">
<ele>108.56</ele>
<time>2015-04-27T06:33:54Z</time>
</trkpt>
<trkpt lat="35.0979531" lon="32.5244934">
<ele>109.63</ele>
<time>2015-04-27T06:33:57Z</time>
</trkpt>
<trkpt lat="35.0979140" lon="32.5245445">
<ele>111.76</ele>
<time>2015-04-27T06:34:00Z</time>
</trkpt>
<trkpt lat="35.0978764" lon="32.5245909">
<ele>113.15</ele>
<time>2015-04-27T06:34:03Z</time>
</trkpt>
<trkpt lat="35.0978487" lon="32.5246446">
<ele>112.95</ele>
<time>2015-04-27T06:34:06Z</time>
</trkpt>
<trkpt lat="35.0978206" lon="32.5246973">
<ele>113.30</ele>
<time>2015-04-27T06:34:09Z</time>
</trkpt>
<trkpt lat="35.0977938" lon="32.5247511">
<ele>112.22</ele>
<time>2015-04-27T06:34:12Z</time>
</trkpt>
<trkpt lat="35.0977659" lon="32.5248017">
<ele>111.96</ele>
<time>2015-04-27T06:34:15Z</time>
</trkpt>
<trkpt lat="35.0977308" lon="32.5248498">
<ele>114.93</ele>
<time>2015-04-27T06:34:18Z</time>
</trkpt>
<trkpt lat="35.0976990" lon="32.5248967">
<ele>115.68</ele>
<time>2015-04-27T06:34:21Z</time>
</trkpt>
<trkpt lat="35.0976666" lon="32.5249400">
<ele>116.39</ele>
<time>2015-04-27T06:34:24Z</time>
</trkpt>
<trkpt lat="35.0976296" lon="32.5249776">
<ele>116.86</ele>
<time>2015-04-27T06:34:27Z</time>
</trkpt>
<trkpt lat="35.0975916" lon="32.5250144">
<ele>116.17</ele>
<time>2015-04-27T06:34:30Z</time>
</trkpt>
<trkpt lat="35.0975505" lon="32.5250528">
<ele>116.71</ele>
<time>2015-04-27T06:34:33Z</time>
</trkpt>
<trkpt lat="35.0975032" lon="32.5250863">
<ele>117.15</ele>
<time>2015-04-27T06:34:36Z</time>
</trkpt>
<trkpt lat="35.0974558" lon="32.5251206">
<ele>116.95</ele>
<time>2015-04-27T06:34:39Z</time>
</trkpt>
<trkpt lat="35.0974043" lon="32.5251429">
<ele>119.36</ele>
<time>2015-04-27T06:34:52Z</time>
</trkpt>
<trkpt lat="35.0973618" lon="32.5251762">
<ele>120.44</ele>
<time>2015-04-27T06:35:07Z</time>
</trkpt>
<trkpt lat="35.0973252" lon="32.5252174">
<ele>120.89</ele>
<time>2015-04-27T06:35:11Z</time>
</trkpt>
<trkpt lat="35.0972781" lon="32.5252582">
<ele>121.92</ele>
<time>2015-04-27T06:35:14Z</time>
</trkpt>
<trkpt lat="35.0972280" lon="32.5253031">
<ele>121.17</ele>
<time>2015-04-27T06:35:17Z</time>
</trkpt>
<trkpt lat="35.0971886" lon="32.5253372">
<ele>120.49</ele>
<time>2015-04-27T06:35:19Z</time>
</trkpt>
<trkpt lat="35.0971471" lon="32.5253814">
<ele>120.07</ele>
<time>2015-04-27T06:35:21Z</time>
</trkpt>
<trkpt lat="35.0970926" lon="32.5254316">
<ele>119.21</ele>
<time>2015-04-27T06:35:23Z</time>
</trkpt>
<trkpt lat="35.0970482" lon="32.5254775">
<ele>119.00</ele>
<time>2015-04-27T06:35:25Z</time>
</trkpt>
<trkpt lat="35.0970077" lon="32.5255346">
<ele>118.94</ele>
<time>2015-04-27T06:35:27Z</time>
</trkpt>
<trkpt lat="35.0969740" lon="32.5255894">
<ele>118.93</ele>
<time>2015-04-27T06:35:29Z</time>
</trkpt>
<trkpt lat="35.0969479" lon="32.5256515">
<ele>118.93</ele>
<time>2015-04-27T06:35:31Z</time>
</trkpt>
<trkpt lat="35.0969285" lon="32.5257137">
<ele>119.68</ele>
<time>2015-04-27T06:35:33Z</time>
</trkpt>
<trkpt lat="35.0969158" lon="32.5257739">
<ele>120.61</ele>
<time>2015-04-27T06:35:35Z</time>
</trkpt>
<trkpt lat="35.0969066" lon="32.5258371">
<ele>120.85</ele>
<time>2015-04-27T06:35:37Z</time>
</trkpt>
<trkpt lat="35.0969008" lon="32.5259005">
<ele>120.91</ele>
<time>2015-04-27T06:35:39Z</time>
</trkpt>
<trkpt lat="35.0968953" lon="32.5259662">
<ele>121.67</ele>
<time>2015-04-27T06:35:41Z</time>
</trkpt>
<trkpt lat="35.0968800" lon="32.5260271">
<ele>121.61</ele>
<time>2015-04-27T06:35:43Z</time>
</trkpt>
<trkpt lat="35.0968560" lon="32.5260846">
<ele>121.10</ele>
<time>2015-04-27T06:35:45Z</time>
</trkpt>
<trkpt lat="35.0968293" lon="32.5261366">
<ele>120.47</ele>
<time>2015-04-27T06:35:47Z</time>
</trkpt>
<trkpt lat="35.0968060" lon="32.5261850">
<ele>120.81</ele>
<time>2015-04-27T06:35:49Z</time>
</trkpt>
<trkpt lat="35.0967600" lon="32.5262319">
<ele>120.16</ele>
<time>2015-04-27T06:35:52Z</time>
</trkpt>
<trkpt lat="35.0966963" lon="32.5262376">
<ele>119.33</ele>
<time>2015-04-27T06:35:55Z</time>
</trkpt>
<trkpt lat="35.0966439" lon="32.5262316">
<ele>119.78</ele>
<time>2015-04-27T06:35:57Z</time>
</trkpt>
<trkpt lat="35.0965887" lon="32.5262380">
<ele>120.64</ele>
<time>2015-04-27T06:35:59Z</time>
</trkpt>
<trkpt lat="35.0965350" lon="32.5262580">
<ele>120.85</ele>
<time>2015-04-27T06:36:01Z</time>
</trkpt>
<trkpt lat="35.0964858" lon="32.5262872">
<ele>121.16</ele>
<time>2015-04-27T06:36:03Z</time>
</trkpt>
<trkpt lat="35.0964456" lon="32.5263282">
<ele>121.98</ele>
<time>2015-04-27T06:36:05Z</time>
</trkpt>
<trkpt lat="35.0964093" lon="32.5263651">
<ele>123.44</ele>
<time>2015-04-27T06:36:07Z</time>
</trkpt>
<trkpt lat="35.0963764" lon="32.5264289">
<ele>124.49</ele>
<time>2015-04-27T06:36:10Z</time>
</trkpt>
<trkpt lat="35.0963810" lon="32.5263662">
<ele>124.11</ele>
<time>2015-04-27T06:36:16Z</time>
</trkpt>
<trkpt lat="35.0964190" lon="32.5263361">
<ele>121.44</ele>
<time>2015-04-27T06:36:27Z</time>
</trkpt>
<trkpt lat="35.0964310" lon="32.5263967">
<ele>118.51</ele>
<time>2015-04-27T06:36:45Z</time>
</trkpt>
<trkpt lat="35.0963923" lon="32.5264501">
<ele>120.50</ele>
<time>2015-04-27T06:36:48Z</time>
</trkpt>
<trkpt lat="35.0963703" lon="32.5264981">
<ele>120.82</ele>
<time>2015-04-27T06:36:50Z</time>
</trkpt>
<trkpt lat="35.0963364" lon="32.5265702">
<ele>120.91</ele>
<time>2015-04-27T06:36:53Z</time>
</trkpt>
<trkpt lat="35.0963055" lon="32.5266400">
<ele>122.30</ele>
<time>2015-04-27T06:36:56Z</time>
</trkpt>
<trkpt lat="35.0962698" lon="32.5266971">
<ele>122.85</ele>
<time>2015-04-27T06:36:59Z</time>
</trkpt>
<trkpt lat="35.0962402" lon="32.5267420">
<ele>122.17</ele>
<time>2015-04-27T06:37:02Z</time>
</trkpt>
<trkpt lat="35.0962099" lon="32.5267911">
<ele>123.25</ele>
<time>2015-04-27T06:37:06Z</time>
</trkpt>
<trkpt lat="35.0961584" lon="32.5268118">
<ele>126.38</ele>
<time>2015-04-27T06:37:10Z</time>
</trkpt>
<trkpt lat="35.0961075" lon="32.5268236">
<ele>127.64</ele>
<time>2015-04-27T06:37:14Z</time>
</trkpt>
<trkpt lat="35.0960634" lon="32.5268450">
<ele>128.41</ele>
<time>2015-04-27T06:37:18Z</time>
</trkpt>
<trkpt lat="35.0960266" lon="32.5268938">
<ele>129.77</ele>
<time>2015-04-27T06:37:22Z</time>
</trkpt>
<trkpt lat="35.0959882" lon="32.5269421">
<ele>131.17</ele>
<time>2015-04-27T06:37:26Z</time>
</trkpt>
<trkpt lat="35.0959566" lon="32.5269823">
<ele>131.00</ele>
<time>2015-04-27T06:37:30Z</time>
</trkpt>
<trkpt lat="35.0959230" lon="32.5270259">
<ele>130.55</ele>
<time>2015-04-27T06:37:34Z</time>
</trkpt>
<trkpt lat="35.0958744" lon="32.5270558">
<ele>129.46</ele>
<time>2015-04-27T06:37:38Z</time>
</trkpt>
<trkpt lat="35.0958214" lon="32.5270820">
<ele>129.46</ele>
<time>2015-04-27T06:37:42Z</time>
</trkpt>
<trkpt lat="35.0957726" lon="32.5270879">
<ele>129.87</ele>
<time>2015-04-27T06:37:45Z</time>
</trkpt>
<trkpt lat="35.0957202" lon="32.5270834">
<ele>129.04</ele>
<time>2015-04-27T06:37:48Z</time>
</trkpt>
<trkpt lat="35.0956748" lon="32.5270873">
<ele>129.81</ele>
<time>2015-04-27T06:37:52Z</time>
</trkpt>
<trkpt lat="35.0956156" lon="32.5270759">
<ele>129.92</ele>
<time>2015-04-27T06:37:56Z</time>
</trkpt>
<trkpt lat="35.0955540" lon="32.5270657">
<ele>129.42</ele>
<time>2015-04-27T06:37:59Z</time>
</trkpt>
<trkpt lat="35.0954839" lon="32.5270570">
<ele>128.99</ele>
<time>2015-04-27T06:38:02Z</time>
</trkpt>
<trkpt lat="35.0954216" lon="32.5270533">
<ele>128.94</ele>
<time>2015-04-27T06:38:04Z</time>
</trkpt>
<trkpt lat="35.0953550" lon="32.5270474">
<ele>128.18</ele>
<time>2015-04-27T06:38:06Z</time>
</trkpt>
<trkpt lat="35.0952931" lon="32.5270384">
<ele>127.99</ele>
<time>2015-04-27T06:38:08Z</time>
</trkpt>
<trkpt lat="35.0952295" lon="32.5270306">
<ele>127.94</ele>
<time>2015-04-27T06:38:10Z</time>
</trkpt>
<trkpt lat="35.0951546" lon="32.5270241">
<ele>127.18</ele>
<time>2015-04-27T06:38:12Z</time>
</trkpt>
<trkpt lat="35.0950689" lon="32.5270189">
<ele>126.99</ele>
<time>2015-04-27T06:38:14Z</time>
</trkpt>
<trkpt lat="35.0950236" lon="32.5270217">
<ele>126.46</ele>
<time>2015-04-27T06:38:15Z</time>
</trkpt>
<trkpt lat="35.0949788" lon="32.5270313">
<ele>126.19</ele>
<time>2015-04-27T06:38:16Z</time>
</trkpt>
<trkpt lat="35.0949355" lon="32.5270471">
<ele>126.06</ele>
<time>2015-04-27T06:38:17Z</time>
</trkpt>
<trkpt lat="35.0948584" lon="32.5270976">
<ele>125.96</ele>
<time>2015-04-27T06:38:19Z</time>
</trkpt>
<trkpt lat="35.0948044" lon="32.5271646">
<ele>125.93</ele>
<time>2015-04-27T06:38:21Z</time>
</trkpt>
<trkpt lat="35.0947747" lon="32.5272246">
<ele>125.93</ele>
<time>2015-04-27T06:38:23Z</time>
</trkpt>
<trkpt lat="35.0947484" lon="32.5272988">
<ele>125.93</ele>
<time>2015-04-27T06:38:26Z</time>
</trkpt>
<trkpt lat="35.0947301" lon="32.5273725">
<ele>126.80</ele>
<time>2015-04-27T06:38:29Z</time>
</trkpt>
<trkpt lat="35.0947236" lon="32.5274459">
<ele>126.91</ele>
<time>2015-04-27T06:38:32Z</time>
</trkpt>
<trkpt lat="35.0947217" lon="32.5275199">
<ele>127.80</ele>
<time>2015-04-27T06:38:35Z</time>
</trkpt>
<trkpt lat="35.0947225" lon="32.5275948">
<ele>127.91</ele>
<time>2015-04-27T06:38:38Z</time>
</trkpt>
<trkpt lat="35.0947242" lon="32.5276750">
<ele>127.92</ele>
<time>2015-04-27T06:38:41Z</time>
</trkpt>
<trkpt lat="35.0947414" lon="32.5277533">
<ele>127.55</ele>
<time>2015-04-27T06:38:44Z</time>
</trkpt>
<trkpt lat="35.0947519" lon="32.5278105">
<ele>128.33</ele>
<time>2015-04-27T06:38:46Z</time>
</trkpt>
<trkpt lat="35.0947612" lon="32.5278681">
<ele>128.78</ele>
<time>2015-04-27T06:38:48Z</time>
</trkpt>
<trkpt lat="35.0947759" lon="32.5279248">
<ele>128.39</ele>
<time>2015-04-27T06:38:50Z</time>
</trkpt>
<trkpt lat="35.0947938" lon="32.5279803">
<ele>128.79</ele>
<time>2015-04-27T06:38:52Z</time>
</trkpt>
<trkpt lat="35.0948119" lon="32.5280355">
<ele>129.64</ele>
<time>2015-04-27T06:38:54Z</time>
</trkpt>
<trkpt lat="35.0948295" lon="32.5280914">
<ele>129.85</ele>
<time>2015-04-27T06:38:56Z</time>
</trkpt>
<trkpt lat="35.0948429" lon="32.5281499">
<ele>129.91</ele>
<time>2015-04-27T06:38:58Z</time>
</trkpt>
<trkpt lat="35.0948514" lon="32.5282094">
<ele>130.42</ele>
<time>2015-04-27T06:39:00Z</time>
</trkpt>
<trkpt lat="35.0948544" lon="32.5282694">
<ele>130.80</ele>
<time>2015-04-27T06:39:02Z</time>
</trkpt>
<trkpt lat="35.0948632" lon="32.5283489">
<ele>131.53</ele>
<time>2015-04-27T06:39:05Z</time>
</trkpt>
<trkpt lat="35.0948739" lon="32.5284240">
<ele>131.88</ele>
<time>2015-04-27T06:39:08Z</time>
</trkpt>
<trkpt lat="35.0948875" lon="32.5284999">
<ele>132.17</ele>
<time>2015-04-27T06:39:11Z</time>
</trkpt>
<trkpt lat="35.0949097" lon="32.5285645">
<ele>131.08</ele>
<time>2015-04-27T06:39:14Z</time>
</trkpt>
<trkpt lat="35.0949283" lon="32.5286308">
<ele>129.94</ele>
<time>2015-04-27T06:39:17Z</time>
</trkpt>
<trkpt lat="35.0949411" lon="32.5286988">
<ele>130.18</ele>
<time>2015-04-27T06:39:20Z</time>
</trkpt>
<trkpt lat="35.0949572" lon="32.5287643">
<ele>128.83</ele>
<time>2015-04-27T06:39:23Z</time>
</trkpt>
<trkpt lat="35.0949742" lon="32.5288302">
<ele>127.54</ele>
<time>2015-04-27T06:39:26Z</time>
</trkpt>
<trkpt lat="35.0949946" lon="32.5288922">
<ele>126.75</ele>
<time>2015-04-27T06:39:29Z</time>
</trkpt>
<trkpt lat="35.0950170" lon="32.5289588">
<ele>126.28</ele>
<time>2015-04-27T06:39:32Z</time>
</trkpt>
<trkpt lat="35.0950468" lon="32.5290281">
<ele>124.47</ele>
<time>2015-04-27T06:39:35Z</time>
</trkpt>
<trkpt lat="35.0950688" lon="32.5290790">
<ele>123.31</ele>
<time>2015-04-27T06:39:37Z</time>
</trkpt>
<trkpt lat="35.0950894" lon="32.5291356">
<ele>123.27</ele>
<time>2015-04-27T06:39:39Z</time>
</trkpt>
<trkpt lat="35.0951056" lon="32.5291957">
<ele>123.01</ele>
<time>2015-04-27T06:39:41Z</time>
</trkpt>
<trkpt lat="35.0951186" lon="32.5292572">
<ele>125.45</ele>
<time>2015-04-27T06:39:43Z</time>
</trkpt>
<trkpt lat="35.0951278" lon="32.5293196">
<ele>126.56</ele>
<time>2015-04-27T06:39:45Z</time>
</trkpt>
<trkpt lat="35.0951344" lon="32.5293842">
<ele>127.33</ele>
<time>2015-04-27T06:39:47Z</time>
</trkpt>
<trkpt lat="35.0951483" lon="32.5294450">
<ele>128.28</ele>
<time>2015-04-27T06:39:49Z</time>
</trkpt>
<trkpt lat="35.0951636" lon="32.5295058">
<ele>128.26</ele>
<time>2015-04-27T06:39:51Z</time>
</trkpt>
<trkpt lat="35.0951740" lon="32.5295685">
<ele>128.76</ele>
<time>2015-04-27T06:39:53Z</time>
</trkpt>
<trkpt lat="35.0951864" lon="32.5296285">
<ele>129.38</ele>
<time>2015-04-27T06:39:55Z</time>
</trkpt>
<trkpt lat="35.0952037" lon="32.5296877">
<ele>131.04</ele>
<time>2015-04-27T06:39:57Z</time>
</trkpt>
<trkpt lat="35.0952171" lon="32.5297474">
<ele>131.20</ele>
<time>2015-04-27T06:39:59Z</time>
</trkpt>
<trkpt lat="35.0952254" lon="32.5298073">
<ele>129.74</ele>
<time>2015-04-27T06:40:01Z</time>
</trkpt>
<trkpt lat="35.0952332" lon="32.5298644">
<ele>129.63</ele>
<time>2015-04-27T06:40:03Z</time>
</trkpt>
<trkpt lat="35.0952497" lon="32.5299156">
<ele>129.35</ele>
<time>2015-04-27T06:40:05Z</time>
</trkpt>
<trkpt lat="35.0952677" lon="32.5299912">
<ele>128.35</ele>
<time>2015-04-27T06:40:08Z</time>
</trkpt>
<trkpt lat="35.0952749" lon="32.5300464">
<ele>128.78</ele>
<time>2015-04-27T06:40:10Z</time>
</trkpt>
<trkpt lat="35.0952815" lon="32.5301033">
<ele>129.64</ele>
<time>2015-04-27T06:40:12Z</time>
</trkpt>
<trkpt lat="35.0952919" lon="32.5301808">
<ele>131.39</ele>
<time>2015-04-27T06:40:15Z</time>
</trkpt>
<trkpt lat="35.0953122" lon="32.5302444">
<ele>131.61</ele>
<time>2015-04-27T06:40:18Z</time>
</trkpt>
<trkpt lat="35.0953208" lon="32.5303198">
<ele>131.01</ele>
<time>2015-04-27T06:40:21Z</time>
</trkpt>
<trkpt lat="35.0953317" lon="32.5303839">
<ele>130.70</ele>
<time>2015-04-27T06:40:23Z</time>
</trkpt>
<trkpt lat="35.0953430" lon="32.5304618">
<ele>131.87</ele>
<time>2015-04-27T06:40:25Z</time>
</trkpt>
<trkpt lat="35.0953615" lon="32.5305361">
<ele>131.91</ele>
<time>2015-04-27T06:40:27Z</time>
</trkpt>
<trkpt lat="35.0953931" lon="32.5305943">
<ele>132.67</ele>
<time>2015-04-27T06:40:29Z</time>
</trkpt>
<trkpt lat="35.0954290" lon="32.5306450">
<ele>132.86</ele>
<time>2015-04-27T06:40:31Z</time>
</trkpt>
<trkpt lat="35.0954713" lon="32.5306840">
<ele>133.41</ele>
<time>2015-04-27T06:40:33Z</time>
</trkpt>
<trkpt lat="35.0955198" lon="32.5307107">
<ele>135.05</ele>
<time>2015-04-27T06:40:35Z</time>
</trkpt>
<trkpt lat="35.0955639" lon="32.5307387">
<ele>135.71</ele>
<time>2015-04-27T06:40:37Z</time>
</trkpt>
<trkpt lat="35.0955999" lon="32.5307795">
<ele>136.62</ele>
<time>2015-04-27T06:40:39Z</time>
</trkpt>
<trkpt lat="35.0956236" lon="32.5308423">
<ele>136.10</ele>
<time>2015-04-27T06:40:41Z</time>
</trkpt>
<trkpt lat="35.0956224" lon="32.5309138">
<ele>137.97</ele>
<time>2015-04-27T06:40:43Z</time>
</trkpt>
<trkpt lat="35.0956080" lon="32.5309820">
<ele>137.44</ele>
<time>2015-04-27T06:40:45Z</time>
</trkpt>
<trkpt lat="35.0955806" lon="32.5310452">
<ele>137.55</ele>
<time>2015-04-27T06:40:47Z</time>
</trkpt>
<trkpt lat="35.0955533" lon="32.5311071">
<ele>138.58</ele>
<time>2015-04-27T06:40:49Z</time>
</trkpt>
<trkpt lat="35.0955309" lon="32.5311688">
<ele>140.09</ele>
<time>2015-04-27T06:40:51Z</time>
</trkpt>
<trkpt lat="35.0955125" lon="32.5312338">
<ele>139.47</ele>
<time>2015-04-27T06:40:53Z</time>
</trkpt>
<trkpt lat="35.0955073" lon="32.5313023">
<ele>139.31</ele>
<time>2015-04-27T06:40:55Z</time>
</trkpt>
<trkpt lat="35.0955155" lon="32.5313657">
<ele>137.52</ele>
<time>2015-04-27T06:40:57Z</time>
</trkpt>
<trkpt lat="35.0955246" lon="32.5314296">
<ele>137.07</ele>
<time>2015-04-27T06:40:59Z</time>
</trkpt>
<trkpt lat="35.0955440" lon="32.5314879">
<ele>136.21</ele>
<time>2015-04-27T06:41:01Z</time>
</trkpt>
<trkpt lat="35.0955718" lon="32.5315428">
<ele>135.50</ele>
<time>2015-04-27T06:41:03Z</time>
</trkpt>
<trkpt lat="35.0955981" lon="32.5316029">
<ele>134.57</ele>
<time>2015-04-27T06:41:05Z</time>
</trkpt>
<trkpt lat="35.0956208" lon="32.5316676">
<ele>134.09</ele>
<time>2015-04-27T06:41:07Z</time>
</trkpt>
<trkpt lat="35.0956468" lon="32.5317319">
<ele>133.97</ele>
<time>2015-04-27T06:41:09Z</time>
</trkpt>
<trkpt lat="35.0956766" lon="32.5317953">
<ele>133.94</ele>
<time>2015-04-27T06:41:11Z</time>
</trkpt>
<trkpt lat="35.0957008" lon="32.5318615">
<ele>133.93</ele>
<time>2015-04-27T06:41:13Z</time>
</trkpt>
<trkpt lat="35.0957068" lon="32.5319321">
<ele>133.93</ele>
<time>2015-04-27T06:41:15Z</time>
</trkpt>
<trkpt lat="35.0956931" lon="32.5319972">
<ele>134.18</ele>
<time>2015-04-27T06:41:17Z</time>
</trkpt>
<trkpt lat="35.0956737" lon="32.5320494">
<ele>134.49</ele>
<time>2015-04-27T06:41:19Z</time>
</trkpt>
<trkpt lat="35.0956373" lon="32.5320971">
<ele>135.62</ele>
<time>2015-04-27T06:41:22Z</time>
</trkpt>
<trkpt lat="35.0956180" lon="32.5321599">
<ele>135.78</ele>
<time>2015-04-27T06:41:26Z</time>
</trkpt>
<trkpt lat="35.0956390" lon="32.5322229">
<ele>136.67</ele>
<time>2015-04-27T06:41:30Z</time>
</trkpt>
<trkpt lat="35.0956506" lon="32.5322939">
<ele>139.60</ele>
<time>2015-04-27T06:41:34Z</time>
</trkpt>
<trkpt lat="35.0956710" lon="32.5323448">
<ele>139.63</ele>
<time>2015-04-27T06:41:37Z</time>
</trkpt>
<trkpt lat="35.0956998" lon="32.5324063">
<ele>140.84</ele>
<time>2015-04-27T06:41:41Z</time>
</trkpt>
<trkpt lat="35.0957347" lon="32.5324603">
<ele>142.61</ele>
<time>2015-04-27T06:41:45Z</time>
</trkpt>
<trkpt lat="35.0957814" lon="32.5324965">
<ele>144.03</ele>
<time>2015-04-27T06:41:49Z</time>
</trkpt>
<trkpt lat="35.0958228" lon="32.5325208">
<ele>143.31</ele>
<time>2015-04-27T06:41:52Z</time>
</trkpt>
<trkpt lat="35.0958642" lon="32.5325502">
<ele>142.97</ele>
<time>2015-04-27T06:41:55Z</time>
</trkpt>
<trkpt lat="35.0959031" lon="32.5325816">
<ele>144.81</ele>
<time>2015-04-27T06:41:58Z</time>
</trkpt>
<trkpt lat="35.0959354" lon="32.5326223">
<ele>146.29</ele>
<time>2015-04-27T06:42:01Z</time>
</trkpt>
<trkpt lat="35.0959692" lon="32.5326744">
<ele>145.95</ele>
<time>2015-04-27T06:42:05Z</time>
</trkpt>
<trkpt lat="35.0959942" lon="32.5327326">
<ele>147.30</ele>
<time>2015-04-27T06:42:09Z</time>
</trkpt>
<trkpt lat="35.0959852" lon="32.5327901">
<ele>149.60</ele>
<time>2015-04-27T06:42:12Z</time>
</trkpt>
<trkpt lat="35.0959765" lon="32.5328599">
<ele>150.40</ele>
<time>2015-04-27T06:42:16Z</time>
</trkpt>
<trkpt lat="35.0959574" lon="32.5329111">
<ele>151.23</ele>
<time>2015-04-27T06:42:19Z</time>
</trkpt>
<trkpt lat="35.0959329" lon="32.5329755">
<ele>152.69</ele>
<time>2015-04-27T06:42:23Z</time>
</trkpt>
<trkpt lat="35.0959017" lon="32.5330372">
<ele>152.91</ele>
<time>2015-04-27T06:42:27Z</time>
</trkpt>
<trkpt lat="35.0958655" lon="32.5330913">
<ele>153.42</ele>
<time>2015-04-27T06:42:31Z</time>
</trkpt>
<trkpt lat="35.0958429" lon="32.5331536">
<ele>153.33</ele>
<time>2015-04-27T06:42:35Z</time>
</trkpt>
<trkpt lat="35.0958189" lon="32.5332124">
<ele>155.58</ele>
<time>2015-04-27T06:42:39Z</time>
</trkpt>
<trkpt lat="35.0957995" lon="32.5332632">
<ele>157.63</ele>
<time>2015-04-27T06:42:42Z</time>
</trkpt>
<trkpt lat="35.0957600" lon="32.5333134">
<ele>160.66</ele>
<time>2015-04-27T06:42:46Z</time>
</trkpt>
<trkpt lat="35.0957151" lon="32.5333554">
<ele>159.53</ele>
<time>2015-04-27T06:42:50Z</time>
</trkpt>
<trkpt lat="35.0956871" lon="32.5333994">
<ele>159.00</ele>
<time>2015-04-27T06:42:53Z</time>
</trkpt>
<trkpt lat="35.0956594" lon="32.5334461">
<ele>157.93</ele>
<time>2015-04-27T06:42:56Z</time>
</trkpt>
<trkpt lat="35.0956330" lon="32.5334925">
<ele>158.80</ele>
<time>2015-04-27T06:42:59Z</time>
</trkpt>
<trkpt lat="35.0956074" lon="32.5335413">
<ele>163.85</ele>
<time>2015-04-27T06:43:03Z</time>
</trkpt>
<trkpt lat="35.0955781" lon="32.5336010">
<ele>164.86</ele>
<time>2015-04-27T06:43:07Z</time>
</trkpt>
<trkpt lat="35.0955448" lon="32.5336484">
<ele>164.67</ele>
<time>2015-04-27T06:43:10Z</time>
</trkpt>
<trkpt lat="35.0955076" lon="32.5336926">
<ele>163.89</ele>
<time>2015-04-27T06:43:13Z</time>
</trkpt>
<trkpt lat="35.0954731" lon="32.5337342">
<ele>163.92</ele>
<time>2015-04-27T06:43:16Z</time>
</trkpt>
<trkpt lat="35.0954302" lon="32.5337833">
<ele>164.55</ele>
<time>2015-04-27T06:43:19Z</time>
</trkpt>
<trkpt lat="35.0953799" lon="32.5338276">
<ele>165.50</ele>
<time>2015-04-27T06:43:22Z</time>
</trkpt>
<trkpt lat="35.0953294" lon="32.5338672">
<ele>165.37</ele>
<time>2015-04-27T06:43:25Z</time>
</trkpt>
<trkpt lat="35.0952931" lon="32.5339004">
<ele>165.04</ele>
<time>2015-04-27T06:43:27Z</time>
</trkpt>
<trkpt lat="35.0952529" lon="32.5339392">
<ele>164.20</ele>
<time>2015-04-27T06:43:29Z</time>
</trkpt>
<trkpt lat="35.0951935" lon="32.5340016">
<ele>163.99</ele>
<time>2015-04-27T06:43:31Z</time>
</trkpt>
<trkpt lat="35.0951577" lon="32.5340446">
<ele>163.46</ele>
<time>2015-04-27T06:43:32Z</time>
</trkpt>
<trkpt lat="35.0950941" lon="32.5341185">
<ele>163.19</ele>
<time>2015-04-27T06:43:33Z</time>
</trkpt>
<trkpt lat="35.0950655" lon="32.5341762">
<ele>163.56</ele>
<time>2015-04-27T06:43:34Z</time>
</trkpt>
<trkpt lat="35.0950515" lon="32.5342447">
<ele>163.24</ele>
<time>2015-04-27T06:43:35Z</time>
</trkpt>
<trkpt lat="35.0950359" lon="32.5343043">
<ele>163.08</ele>
<time>2015-04-27T06:43:36Z</time>
</trkpt>
<trkpt lat="35.0950201" lon="32.5343663">
<ele>163.50</ele>
<time>2015-04-27T06:43:37Z</time>
</trkpt>
<trkpt lat="35.0950114" lon="32.5344677">
<ele>163.57</ele>
<time>2015-04-27T06:43:39Z</time>
</trkpt>
<trkpt lat="35.0949987" lon="32.5345629">
<ele>163.59</ele>
<time>2015-04-27T06:43:41Z</time>
</trkpt>
<trkpt lat="35.0949898" lon="32.5346388">
<ele>163.59</ele>
<time>2015-04-27T06:43:43Z</time>
</trkpt>
<trkpt lat="35.0949662" lon="32.5347111">
<ele>163.09</ele>
<time>2015-04-27T06:43:45Z</time>
</trkpt>
<trkpt lat="35.0949533" lon="32.5347682">
<ele>162.97</ele>
<time>2015-04-27T06:43:47Z</time>
</trkpt>
<trkpt lat="35.0949470" lon="32.5348435">
<ele>162.19</ele>
<time>2015-04-27T06:43:49Z</time>
</trkpt>
<trkpt lat="35.0949534" lon="32.5349286">
<ele>160.24</ele>
<time>2015-04-27T06:43:51Z</time>
</trkpt>
<trkpt lat="35.0949836" lon="32.5350466">
<ele>158.00</ele>
<time>2015-04-27T06:43:53Z</time>
</trkpt>
<trkpt lat="35.0949807" lon="32.5351330">
<ele>157.46</ele>
<time>2015-04-27T06:43:54Z</time>
</trkpt>
<trkpt lat="35.0949751" lon="32.5352204">
<ele>156.69</ele>
<time>2015-04-27T06:43:55Z</time>
</trkpt>
<trkpt lat="35.0949604" lon="32.5353053">
<ele>156.81</ele>
<time>2015-04-27T06:43:56Z</time>
</trkpt>
<trkpt lat="35.0949427" lon="32.5353848">
<ele>157.37</ele>
<time>2015-04-27T06:43:57Z</time>
</trkpt>
<trkpt lat="35.0949386" lon="32.5354478">
<ele>158.15</ele>
<time>2015-04-27T06:43:58Z</time>
</trkpt>
<trkpt lat="35.0949345" lon="32.5355043">
<ele>159.04</ele>
<time>2015-04-27T06:43:59Z</time>
</trkpt>
<trkpt lat="35.0949331" lon="32.5355865">
<ele>159.45</ele>
<time>2015-04-27T06:44:01Z</time>
</trkpt>
<trkpt lat="35.0949398" lon="32.5356468">
<ele>161.06</ele>
<time>2015-04-27T06:44:03Z</time>
</trkpt>
<trkpt lat="35.0949343" lon="32.5357308">
<ele>161.82</ele>
<time>2015-04-27T06:44:06Z</time>
</trkpt>
<trkpt lat="35.0949415" lon="32.5358004">
<ele>162.15</ele>
<time>2015-04-27T06:44:08Z</time>
</trkpt>
<trkpt lat="35.0949440" lon="32.5358732">
<ele>162.98</ele>
<time>2015-04-27T06:44:10Z</time>
</trkpt>
<trkpt lat="35.0949510" lon="32.5359507">
<ele>163.69</ele>
<time>2015-04-27T06:44:12Z</time>
</trkpt>
<trkpt lat="35.0949648" lon="32.5360282">
<ele>163.12</ele>
<time>2015-04-27T06:44:14Z</time>
</trkpt>
<trkpt lat="35.0949901" lon="32.5361001">
<ele>163.97</ele>
<time>2015-04-27T06:44:16Z</time>
</trkpt>
<trkpt lat="35.0950292" lon="32.5361650">
<ele>164.19</ele>
<time>2015-04-27T06:44:18Z</time>
</trkpt>
<trkpt lat="35.0950879" lon="32.5362122">
<ele>163.99</ele>
<time>2015-04-27T06:44:20Z</time>
</trkpt>
<trkpt lat="35.0951482" lon="32.5362450">
<ele>163.94</ele>
<time>2015-04-27T06:44:22Z</time>
</trkpt>
<trkpt lat="35.0951812" lon="32.5362960">
<ele>164.43</ele>
<time>2015-04-27T06:44:24Z</time>
</trkpt>
<trkpt lat="35.0951876" lon="32.5363594">
<ele>164.80</ele>
<time>2015-04-27T06:44:26Z</time>
</trkpt>
<trkpt lat="35.0951760" lon="32.5364223">
<ele>165.39</ele>
<time>2015-04-27T06:44:28Z</time>
</trkpt>
<trkpt lat="35.0951329" lon="32.5364733">
<ele>165.29</ele>
<time>2015-04-27T06:44:30Z</time>
</trkpt>
<trkpt lat="35.0950811" lon="32.5365168">
<ele>165.02</ele>
<time>2015-04-27T06:44:32Z</time>
</trkpt>
<trkpt lat="35.0950343" lon="32.5365661">
<ele>164.45</ele>
<time>2015-04-27T06:44:34Z</time>
</trkpt>
<trkpt lat="35.0949971" lon="32.5366270">
<ele>164.06</ele>
<time>2015-04-27T06:44:36Z</time>
</trkpt>
<trkpt lat="35.0949761" lon="32.5366993">
<ele>161.96</ele>
<time>2015-04-27T06:44:38Z</time>
</trkpt>
<trkpt lat="35.0949611" lon="32.5367828">
<ele>161.93</ele>
<time>2015-04-27T06:44:40Z</time>
</trkpt>
<trkpt lat="35.0949529" lon="32.5368672">
<ele>161.93</ele>
<time>2015-04-27T06:44:42Z</time>
</trkpt>
<trkpt lat="35.0949472" lon="32.5369393">
<ele>162.43</ele>
<time>2015-04-27T06:44:44Z</time>
</trkpt>
<trkpt lat="35.0949359" lon="32.5370113">
<ele>163.74</ele>
<time>2015-04-27T06:44:47Z</time>
</trkpt>
<trkpt lat="35.0949300" lon="32.5370802">
<ele>163.29</ele>
<time>2015-04-27T06:44:51Z</time>
</trkpt>
<trkpt lat="35.0949314" lon="32.5371407">
<ele>163.20</ele>
<time>2015-04-27T06:44:55Z</time>
</trkpt>
<trkpt lat="35.0949089" lon="32.5372024">
<ele>162.13</ele>
<time>2015-04-27T06:44:59Z</time>
</trkpt>
<trkpt lat="35.0949031" lon="32.5372660">
<ele>161.06</ele>
<time>2015-04-27T06:45:03Z</time>
</trkpt>
<trkpt lat="35.0948885" lon="32.5373180">
<ele>163.07</ele>
<time>2015-04-27T06:45:06Z</time>
</trkpt>
<trkpt lat="35.0948842" lon="32.5373883">
<ele>165.18</ele>
<time>2015-04-27T06:45:10Z</time>
</trkpt>
<trkpt lat="35.0948852" lon="32.5374474">
<ele>165.33</ele>
<time>2015-04-27T06:45:13Z</time>
</trkpt>
<trkpt lat="35.0948850" lon="32.5375068">
<ele>165.73</ele>
<time>2015-04-27T06:45:16Z</time>
</trkpt>
<trkpt lat="35.0948834" lon="32.5375702">
<ele>165.90</ele>
<time>2015-04-27T06:45:19Z</time>
</trkpt>
<trkpt lat="35.0948748" lon="32.5376366">
<ele>165.92</ele>
<time>2015-04-27T06:45:22Z</time>
</trkpt>
<trkpt lat="35.0948564" lon="32.5377069">
<ele>165.92</ele>
<time>2015-04-27T06:45:25Z</time>
</trkpt>
<trkpt lat="35.0948339" lon="32.5377842">
<ele>166.80</ele>
<time>2015-04-27T06:45:28Z</time>
</trkpt>
<trkpt lat="35.0948070" lon="32.5378493">
<ele>168.16</ele>
<time>2015-04-27T06:45:31Z</time>
</trkpt>
<trkpt lat="35.0947808" lon="32.5379035">
<ele>168.83</ele>
<time>2015-04-27T06:45:34Z</time>
</trkpt>
<trkpt lat="35.0947539" lon="32.5379573">
<ele>169.79</ele>
<time>2015-04-27T06:45:37Z</time>
</trkpt>
<trkpt lat="35.0947376" lon="32.5380215">
<ele>169.28</ele>
<time>2015-04-27T06:45:40Z</time>
</trkpt>
<trkpt lat="35.0947307" lon="32.5380878">
<ele>170.72</ele>
<time>2015-04-27T06:45:43Z</time>
</trkpt>
<trkpt lat="35.0947370" lon="32.5381609">
<ele>170.15</ele>
<time>2015-04-27T06:45:46Z</time>
</trkpt>
<trkpt lat="35.0947412" lon="32.5382290">
<ele>170.70</ele>
<time>2015-04-27T06:45:49Z</time>
</trkpt>
<trkpt lat="35.0947579" lon="32.5383028">
<ele>171.90</ele>
<time>2015-04-27T06:45:52Z</time>
</trkpt>
<trkpt lat="35.0947771" lon="32.5383699">
<ele>172.80</ele>
<time>2015-04-27T06:45:55Z</time>
</trkpt>
<trkpt lat="35.0947986" lon="32.5384440">
<ele>172.28</ele>
<time>2015-04-27T06:45:58Z</time>
</trkpt>
<trkpt lat="35.0948033" lon="32.5385170">
<ele>171.47</ele>
<time>2015-04-27T06:46:01Z</time>
</trkpt>
<trkpt lat="35.0947631" lon="32.5385689">
<ele>170.62</ele>
<time>2015-04-27T06:46:04Z</time>
</trkpt>
<trkpt lat="35.0947087" lon="32.5385953">
<ele>170.76</ele>
<time>2015-04-27T06:46:07Z</time>
</trkpt>
<trkpt lat="35.0946471" lon="32.5386212">
<ele>170.15</ele>
<time>2015-04-27T06:46:10Z</time>
</trkpt>
<trkpt lat="35.0945849" lon="32.5386444">
<ele>170.20</ele>
<time>2015-04-27T06:46:13Z</time>
</trkpt>
<trkpt lat="35.0945228" lon="32.5386702">
<ele>173.33</ele>
<time>2015-04-27T06:46:16Z</time>
</trkpt>
<trkpt lat="35.0944720" lon="32.5387099">
<ele>174.73</ele>
<time>2015-04-27T06:46:19Z</time>
</trkpt>
<trkpt lat="35.0944360" lon="32.5387518">
<ele>175.40</ele>
<time>2015-04-27T06:46:22Z</time>
</trkpt>
<trkpt lat="35.0944050" lon="32.5388022">
<ele>174.98</ele>
<time>2015-04-27T06:46:25Z</time>
</trkpt>
<trkpt lat="35.0943750" lon="32.5388654">
<ele>173.24</ele>
<time>2015-04-27T06:46:29Z</time>
</trkpt>
<trkpt lat="35.0943523" lon="32.5389181">
<ele>173.46</ele>
<time>2015-04-27T06:46:32Z</time>
</trkpt>
<trkpt lat="35.0943271" lon="32.5389741">
<ele>175.24</ele>
<time>2015-04-27T06:46:35Z</time>
</trkpt>
<trkpt lat="35.0943043" lon="32.5390250">
<ele>176.71</ele>
<time>2015-04-27T06:46:38Z</time>
</trkpt>
<trkpt lat="35.0942995" lon="32.5390879">
<ele>177.15</ele>
<time>2015-04-27T06:46:41Z</time>
</trkpt>
<trkpt lat="35.0942920" lon="32.5391520">
<ele>177.83</ele>
<time>2015-04-27T06:46:44Z</time>
</trkpt>
<trkpt lat="35.0942773" lon="32.5392111">
<ele>177.79</ele>
<time>2015-04-27T06:46:47Z</time>
</trkpt>
<trkpt lat="35.0942620" lon="32.5392657">
<ele>177.91</ele>
<time>2015-04-27T06:46:50Z</time>
</trkpt>
<trkpt lat="35.0942614" lon="32.5393350">
<ele>178.24</ele>
<time>2015-04-27T06:46:54Z</time>
</trkpt>
<trkpt lat="35.0942476" lon="32.5394008">
<ele>182.44</ele>
<time>2015-04-27T06:46:58Z</time>
</trkpt>
<trkpt lat="35.0942289" lon="32.5394683">
<ele>185.89</ele>
<time>2015-04-27T06:47:02Z</time>
</trkpt>
<trkpt lat="35.0942263" lon="32.5395348">
<ele>185.92</ele>
<time>2015-04-27T06:47:06Z</time>
</trkpt>
<trkpt lat="35.0942302" lon="32.5395936">
<ele>185.67</ele>
<time>2015-04-27T06:47:10Z</time>
</trkpt>
<trkpt lat="35.0942397" lon="32.5396540">
<ele>184.22</ele>
<time>2015-04-27T06:47:14Z</time>
</trkpt>
<trkpt lat="35.0942443" lon="32.5397158">
<ele>184.68</ele>
<time>2015-04-27T06:47:19Z</time>
</trkpt>
<trkpt lat="35.0942366" lon="32.5397815">
<ele>184.04</ele>
<time>2015-04-27T06:47:24Z</time>
</trkpt>
<trkpt lat="35.0942130" lon="32.5398409">
<ele>185.05</ele>
<time>2015-04-27T06:47:29Z</time>
</trkpt>
<trkpt lat="35.0941709" lon="32.5398775">
<ele>186.55</ele>
<time>2015-04-27T06:47:34Z</time>
</trkpt>
<trkpt lat="35.0941323" lon="32.5399236">
<ele>188.51</ele>
<time>2015-04-27T06:47:39Z</time>
</trkpt>
<trkpt lat="35.0940861" lon="32.5399496">
<ele>190.85</ele>
<time>2015-04-27T06:53:11Z</time>
</trkpt>
<trkpt lat="35.0940610" lon="32.5400008">
<ele>189.99</ele>
<time>2015-04-27T06:53:18Z</time>
</trkpt>
<trkpt lat="35.0940438" lon="32.5400762">
<ele>190.18</ele>
<time>2015-04-27T06:53:22Z</time>
</trkpt>
<trkpt lat="35.0940556" lon="32.5401422">
<ele>189.49</ele>
<time>2015-04-27T06:53:24Z</time>
</trkpt>
<trkpt lat="35.0940883" lon="32.5402137">
<ele>190.07</ele>
<time>2015-04-27T06:53:26Z</time>
</trkpt>
<trkpt lat="35.0941254" lon="32.5402883">
<ele>189.96</ele>
<time>2015-04-27T06:53:28Z</time>
</trkpt>
<trkpt lat="35.0941601" lon="32.5403636">
<ele>189.43</ele>
<time>2015-04-27T06:53:30Z</time>
</trkpt>
<trkpt lat="35.0941868" lon="32.5404492">
<ele>189.05</ele>
<time>2015-04-27T06:53:32Z</time>
</trkpt>
<trkpt lat="35.0942066" lon="32.5405307">
<ele>189.46</ele>
<time>2015-04-27T06:53:34Z</time>
</trkpt>
<trkpt lat="35.0942241" lon="32.5406080">
<ele>190.56</ele>
<time>2015-04-27T06:53:36Z</time>
</trkpt>
<trkpt lat="35.0942297" lon="32.5406785">
<ele>190.08</ele>
<time>2015-04-27T06:53:38Z</time>
</trkpt>
<trkpt lat="35.0942302" lon="32.5407429">
<ele>189.21</ele>
<time>2015-04-27T06:53:40Z</time>
</trkpt>
<trkpt lat="35.0942092" lon="32.5408058">
<ele>186.46</ele>
<time>2015-04-27T06:53:43Z</time>
</trkpt>
<trkpt lat="35.0941521" lon="32.5408047">
<ele>184.27</ele>
<time>2015-04-27T06:53:47Z</time>
</trkpt>
<trkpt lat="35.0941075" lon="32.5407592">
<ele>185.22</ele>
<time>2015-04-27T06:53:50Z</time>
</trkpt>
<trkpt lat="35.0940649" lon="32.5407127">
<ele>184.34</ele>
<time>2015-04-27T06:53:53Z</time>
</trkpt>
<trkpt lat="35.0940129" lon="32.5406737">
<ele>182.73</ele>
<time>2015-04-27T06:53:56Z</time>
</trkpt>
<trkpt lat="35.0939634" lon="32.5406636">
<ele>181.38</ele>
<time>2015-04-27T06:53:58Z</time>
</trkpt>
<trkpt lat="35.0939076" lon="32.5406658">
<ele>181.54</ele>
<time>2015-04-27T06:54:00Z</time>
</trkpt>
<trkpt lat="35.0938480" lon="32.5406788">
<ele>181.58</ele>
<time>2015-04-27T06:54:02Z</time>
</trkpt>
<trkpt lat="35.0937926" lon="32.5407006">
<ele>180.84</ele>
<time>2015-04-27T06:54:04Z</time>
</trkpt>
<trkpt lat="35.0937445" lon="32.5407272">
<ele>178.90</ele>
<time>2015-04-27T06:54:06Z</time>
</trkpt>
<trkpt lat="35.0936962" lon="32.5407599">
<ele>180.42</ele>
<time>2015-04-27T06:54:08Z</time>
</trkpt>
<trkpt lat="35.0936544" lon="32.5407972">
<ele>180.80</ele>
<time>2015-04-27T06:54:10Z</time>
</trkpt>
<trkpt lat="35.0936302" lon="32.5408476">
<ele>181.39</ele>
<time>2015-04-27T06:54:12Z</time>
</trkpt>
<trkpt lat="35.0936068" lon="32.5408954">
<ele>181.29</ele>
<time>2015-04-27T06:54:14Z</time>
</trkpt>
<trkpt lat="35.0935838" lon="32.5409448">
<ele>181.02</ele>
<time>2015-04-27T06:54:16Z</time>
</trkpt>
<trkpt lat="35.0935626" lon="32.5410054">
<ele>181.20</ele>
<time>2015-04-27T06:54:18Z</time>
</trkpt>
<trkpt lat="35.0935425" lon="32.5410837">
<ele>180.49</ele>
<time>2015-04-27T06:54:20Z</time>
</trkpt>
<trkpt lat="35.0935379" lon="32.5411663">
<ele>180.07</ele>
<time>2015-04-27T06:54:22Z</time>
</trkpt>
<trkpt lat="35.0935434" lon="32.5412464">
<ele>180.21</ele>
<time>2015-04-27T06:54:24Z</time>
</trkpt>
<trkpt lat="35.0935434" lon="32.5413223">
<ele>180.00</ele>
<time>2015-04-27T06:54:26Z</time>
</trkpt>
<trkpt lat="35.0935266" lon="32.5413935">
<ele>180.19</ele>
<time>2015-04-27T06:54:28Z</time>
</trkpt>
<trkpt lat="35.0934993" lon="32.5414508">
<ele>180.49</ele>
<time>2015-04-27T06:54:30Z</time>
</trkpt>
<trkpt lat="35.0934596" lon="32.5414945">
<ele>180.82</ele>
<time>2015-04-27T06:54:32Z</time>
</trkpt>
<trkpt lat="35.0934110" lon="32.5415368">
<ele>181.65</ele>
<time>2015-04-27T06:54:34Z</time>
</trkpt>
<trkpt lat="35.0933566" lon="32.5415746">
<ele>181.86</ele>
<time>2015-04-27T06:54:36Z</time>
</trkpt>
<trkpt lat="35.0933031" lon="32.5416130">
<ele>182.41</ele>
<time>2015-04-27T06:54:38Z</time>
</trkpt>
<trkpt lat="35.0932486" lon="32.5416542">
<ele>183.80</ele>
<time>2015-04-27T06:54:40Z</time>
</trkpt>
<trkpt lat="35.0931956" lon="32.5417016">
<ele>185.89</ele>
<time>2015-04-27T06:54:42Z</time>
</trkpt>
<trkpt lat="35.0931443" lon="32.5417471">
<ele>186.17</ele>
<time>2015-04-27T06:54:44Z</time>
</trkpt>
<trkpt lat="35.0930992" lon="32.5417924">
<ele>186.24</ele>
<time>2015-04-27T06:54:46Z</time>
</trkpt>
<trkpt lat="35.0930591" lon="32.5418368">
<ele>186.50</ele>
<time>2015-04-27T06:54:48Z</time>
</trkpt>
<trkpt lat="35.0930152" lon="32.5418736">
<ele>186.82</ele>
<time>2015-04-27T06:54:50Z</time>
</trkpt>
<trkpt lat="35.0929966" lon="32.5419313">
<ele>186.54</ele>
<time>2015-04-27T06:54:53Z</time>
</trkpt>
<trkpt lat="35.0929714" lon="32.5419775">
<ele>186.88</ele>
<time>2015-04-27T06:54:56Z</time>
</trkpt>
<trkpt lat="35.0929362" lon="32.5420410">
<ele>185.23</ele>
<time>2015-04-27T06:55:00Z</time>
</trkpt>
<trkpt lat="35.0928934" lon="32.5421006">
<ele>184.09</ele>
<time>2015-04-27T06:55:03Z</time>
</trkpt>
<trkpt lat="35.0928495" lon="32.5421590">
<ele>183.47</ele>
<time>2015-04-27T06:55:05Z</time>
</trkpt>
<trkpt lat="35.0928110" lon="32.5422270">
<ele>181.81</ele>
<time>2015-04-27T06:55:07Z</time>
</trkpt>
<trkpt lat="35.0927933" lon="32.5422960">
<ele>181.40</ele>
<time>2015-04-27T06:55:09Z</time>
</trkpt>
<trkpt lat="35.0927957" lon="32.5423596">
<ele>181.29</ele>
<time>2015-04-27T06:55:11Z</time>
</trkpt>
<trkpt lat="35.0928228" lon="32.5424269">
<ele>181.35</ele>
<time>2015-04-27T06:55:14Z</time>
</trkpt>
<trkpt lat="35.0928659" lon="32.5424572">
<ele>181.48</ele>
<time>2015-04-27T06:55:17Z</time>
</trkpt>
<trkpt lat="35.0929020" lon="32.5425089">
<ele>179.74</ele>
<time>2015-04-27T06:55:20Z</time>
</trkpt>
<trkpt lat="35.0929262" lon="32.5425747">
<ele>177.90</ele>
<time>2015-04-27T06:55:23Z</time>
</trkpt>
<trkpt lat="35.0929120" lon="32.5426304">
<ele>177.17</ele>
<time>2015-04-27T06:55:26Z</time>
</trkpt>
<trkpt lat="35.0928657" lon="32.5426281">
<ele>174.71</ele>
<time>2015-04-27T06:55:29Z</time>
</trkpt>
<trkpt lat="35.0928130" lon="32.5426066">
<ele>173.55</ele>
<time>2015-04-27T06:56:13Z</time>
</trkpt>
<trkpt lat="35.0927596" lon="32.5425894">
<ele>173.75</ele>
<time>2015-04-27T06:56:16Z</time>
</trkpt>
<trkpt lat="35.0927065" lon="32.5425576">
<ele>171.40</ele>
<time>2015-04-27T06:56:19Z</time>
</trkpt>
<trkpt lat="35.0926611" lon="32.5425390">
<ele>170.86</ele>
<time>2015-04-27T06:56:22Z</time>
</trkpt>
<trkpt lat="35.0926111" lon="32.5425613">
<ele>174.08</ele>
<time>2015-04-27T06:56:56Z</time>
</trkpt>
<trkpt lat="35.0925765" lon="32.5426195">
<ele>172.94</ele>
<time>2015-04-27T06:56:59Z</time>
</trkpt>
<trkpt lat="35.0925478" lon="32.5426807">
<ele>171.43</ele>
<time>2015-04-27T06:57:02Z</time>
</trkpt>
<trkpt lat="35.0925148" lon="32.5427196">
<ele>170.80</ele>
<time>2015-04-27T06:57:04Z</time>
</trkpt>
<trkpt lat="35.0924727" lon="32.5427502">
<ele>170.03</ele>
<time>2015-04-27T06:57:07Z</time>
</trkpt>
<trkpt lat="35.0924345" lon="32.5427942">
<ele>168.77</ele>
<time>2015-04-27T06:57:12Z</time>
</trkpt>
<trkpt lat="35.0923781" lon="32.5428102">
<ele>171.63</ele>
<time>2015-04-27T06:57:19Z</time>
</trkpt>
<trkpt lat="35.0923365" lon="32.5427821">
<ele>173.59</ele>
<time>2015-04-27T06:57:23Z</time>
</trkpt>
<trkpt lat="35.0923052" lon="32.5427398">
<ele>174.63</ele>
<time>2015-04-27T06:57:26Z</time>
</trkpt>
<trkpt lat="35.0922940" lon="32.5426728">
<ele>173.80</ele>
<time>2015-04-27T06:58:20Z</time>
</trkpt>
<trkpt lat="35.0923176" lon="32.5426151">
<ele>176.23</ele>
<time>2015-04-27T06:58:24Z</time>
</trkpt>
<trkpt lat="35.0923370" lon="32.5425562">
<ele>177.78</ele>
<time>2015-04-27T06:58:29Z</time>
</trkpt>
<trkpt lat="35.0923589" lon="32.5424959">
<ele>178.42</ele>
<time>2015-04-27T06:58:34Z</time>
</trkpt>
<trkpt lat="35.0923713" lon="32.5424368">
<ele>177.96</ele>
<time>2015-04-27T06:58:38Z</time>
</trkpt>
<trkpt lat="35.0923902" lon="32.5423783">
<ele>177.43</ele>
<time>2015-04-27T06:58:42Z</time>
</trkpt>
<trkpt lat="35.0923958" lon="32.5423183">
<ele>176.00</ele>
<time>2015-04-27T06:58:47Z</time>
</trkpt>
<trkpt lat="35.0923825" lon="32.5422609">
<ele>174.96</ele>
<time>2015-04-27T06:58:52Z</time>
</trkpt>
<trkpt lat="35.0923662" lon="32.5422039">
<ele>175.99</ele>
<time>2015-04-27T06:59:02Z</time>
</trkpt>
<trkpt lat="35.0923259" lon="32.5421631">
<ele>176.83</ele>
<time>2015-04-27T06:59:07Z</time>
</trkpt>
<trkpt lat="35.0922701" lon="32.5421454">
<ele>176.67</ele>
<time>2015-04-27T06:59:11Z</time>
</trkpt>
<trkpt lat="35.0922096" lon="32.5421542">
<ele>176.14</ele>
<time>2015-04-27T06:59:14Z</time>
</trkpt>
<trkpt lat="35.0921663" lon="32.5421788">
<ele>176.48</ele>
<time>2015-04-27T06:59:16Z</time>
</trkpt>
<trkpt lat="35.0921232" lon="32.5422144">
<ele>176.37</ele>
<time>2015-04-27T06:59:19Z</time>
</trkpt>
<trkpt lat="35.0920706" lon="32.5422431">
<ele>177.64</ele>
<time>2015-04-27T06:59:23Z</time>
</trkpt>
<trkpt lat="35.0920166" lon="32.5422304">
<ele>181.59</ele>
<time>2015-04-27T06:59:27Z</time>
</trkpt>
<trkpt lat="35.0919943" lon="32.5421775">
<ele>180.38</ele>
<time>2015-04-27T06:59:30Z</time>
</trkpt>
<trkpt lat="35.0920108" lon="32.5421143">
<ele>181.73</ele>
<time>2015-04-27T06:59:33Z</time>
</trkpt>
<trkpt lat="35.0920273" lon="32.5420531">
<ele>182.78</ele>
<time>2015-04-27T06:59:36Z</time>
</trkpt>
<trkpt lat="35.0920438" lon="32.5420012">
<ele>182.41</ele>
<time>2015-04-27T06:59:39Z</time>
</trkpt>
<trkpt lat="35.0920643" lon="32.5419488">
<ele>181.99</ele>
<time>2015-04-27T06:59:42Z</time>
</trkpt>
<trkpt lat="35.0920920" lon="32.5418964">
<ele>180.31</ele>
<time>2015-04-27T06:59:45Z</time>
</trkpt>
<trkpt lat="35.0921228" lon="32.5418367">
<ele>180.47</ele>
<time>2015-04-27T06:59:48Z</time>
</trkpt>
<trkpt lat="35.0921422" lon="32.5417838">
<ele>180.81</ele>
<time>2015-04-27T06:59:50Z</time>
</trkpt>
<trkpt lat="35.0921472" lon="32.5417245">
<ele>180.90</ele>
<time>2015-04-27T06:59:52Z</time>
</trkpt>
<trkpt lat="35.0921470" lon="32.5416661">
<ele>180.17</ele>
<time>2015-04-27T06:59:54Z</time>
</trkpt>
<trkpt lat="35.0921410" lon="32.5416050">
<ele>180.74</ele>
<time>2015-04-27T06:59:56Z</time>
</trkpt>
<trkpt lat="35.0921332" lon="32.5415421">
<ele>180.88</ele>
<time>2015-04-27T06:59:58Z</time>
</trkpt>
<trkpt lat="35.0921271" lon="32.5414689">
<ele>180.91</ele>
<time>2015-04-27T07:00:00Z</time>
</trkpt>
<trkpt lat="35.0921284" lon="32.5413968">
<ele>181.42</ele>
<time>2015-04-27T07:00:02Z</time>
</trkpt>
<trkpt lat="35.0921337" lon="32.5413350">
<ele>181.80</ele>
<time>2015-04-27T07:00:04Z</time>
</trkpt>
<trkpt lat="35.0921400" lon="32.5412729">
<ele>182.39</ele>
<time>2015-04-27T07:00:06Z</time>
</trkpt>
<trkpt lat="35.0921439" lon="32.5412118">
<ele>182.79</ele>
<time>2015-04-27T07:00:08Z</time>
</trkpt>
<trkpt lat="35.0921477" lon="32.5411529">
<ele>182.89</ele>
<time>2015-04-27T07:00:10Z</time>
</trkpt>
<trkpt lat="35.0921610" lon="32.5410965">
<ele>183.67</ele>
<time>2015-04-27T07:00:12Z</time>
</trkpt>
<trkpt lat="35.0921636" lon="32.5410333">
<ele>184.78</ele>
<time>2015-04-27T07:00:16Z</time>
</trkpt>
<trkpt lat="35.0921224" lon="32.5410007">
<ele>184.42</ele>
<time>2015-04-27T07:00:20Z</time>
</trkpt>
<trkpt lat="35.0920840" lon="32.5409431">
<ele>183.99</ele>
<time>2015-04-27T07:00:23Z</time>
</trkpt>
<trkpt lat="35.0920404" lon="32.5408882">
<ele>183.94</ele>
<time>2015-04-27T07:00:25Z</time>
</trkpt>
<trkpt lat="35.0919883" lon="32.5408481">
<ele>184.43</ele>
<time>2015-04-27T07:00:27Z</time>
</trkpt>
<trkpt lat="35.0919351" lon="32.5408165">
<ele>184.30</ele>
<time>2015-04-27T07:00:29Z</time>
</trkpt>
<trkpt lat="35.0918740" lon="32.5408016">
<ele>183.97</ele>
<time>2015-04-27T07:00:32Z</time>
</trkpt>
<trkpt lat="35.0918218" lon="32.5408051">
<ele>185.56</ele>
<time>2015-04-27T07:00:35Z</time>
</trkpt>
<trkpt lat="35.0917821" lon="32.5408401">
<ele>185.88</ele>
<time>2015-04-27T07:00:38Z</time>
</trkpt>
<trkpt lat="35.0917889" lon="32.5409091">
<ele>185.42</ele>
<time>2015-04-27T07:00:42Z</time>
</trkpt>
<trkpt lat="35.0918206" lon="32.5409491">
<ele>185.86</ele>
<time>2015-04-27T07:00:45Z</time>
</trkpt>
<trkpt lat="35.0918556" lon="32.5410042">
<ele>187.30</ele>
<time>2015-04-27T07:00:49Z</time>
</trkpt>
<trkpt lat="35.0918785" lon="32.5410706">
<ele>188.39</ele>
<time>2015-04-27T07:00:53Z</time>
</trkpt>
<trkpt lat="35.0919015" lon="32.5411179">
<ele>190.48</ele>
<time>2015-04-27T07:00:56Z</time>
</trkpt>
<trkpt lat="35.0919209" lon="32.5411688">
<ele>190.74</ele>
<time>2015-04-27T07:00:59Z</time>
</trkpt>
<trkpt lat="35.0919382" lon="32.5412252">
<ele>190.90</ele>
<time>2015-04-27T07:01:02Z</time>
</trkpt>
<trkpt lat="35.0919506" lon="32.5412817">
<ele>191.67</ele>
<time>2015-04-27T07:01:05Z</time>
</trkpt>
<trkpt lat="35.0919603" lon="32.5413418">
<ele>191.14</ele>
<time>2015-04-27T07:01:08Z</time>
</trkpt>
<trkpt lat="35.0919662" lon="32.5414005">
<ele>190.45</ele>
<time>2015-04-27T07:01:11Z</time>
</trkpt>
<trkpt lat="35.0919717" lon="32.5414584">
<ele>190.87</ele>
<time>2015-04-27T07:01:14Z</time>
</trkpt>
<trkpt lat="35.0919658" lon="32.5415150">
<ele>190.92</ele>
<time>2015-04-27T07:01:17Z</time>
</trkpt>
<trkpt lat="35.0919528" lon="32.5415697">
<ele>190.05</ele>
<time>2015-04-27T07:01:20Z</time>
</trkpt>
<trkpt lat="35.0919407" lon="32.5416243">
<ele>190.82</ele>
<time>2015-04-27T07:01:23Z</time>
</trkpt>
<trkpt lat="35.0919311" lon="32.5416791">
<ele>190.79</ele>
<time>2015-04-27T07:01:26Z</time>
</trkpt>
<trkpt lat="35.0919130" lon="32.5417362">
<ele>190.91</ele>
<time>2015-04-27T07:01:29Z</time>
</trkpt>
<trkpt lat="35.0918895" lon="32.5417896">
<ele>190.92</ele>
<time>2015-04-27T07:01:32Z</time>
</trkpt>
<trkpt lat="35.0918670" lon="32.5418409">
<ele>191.80</ele>
<time>2015-04-27T07:01:35Z</time>
</trkpt>
<trkpt lat="35.0918530" lon="32.5418936">
<ele>192.41</ele>
<time>2015-04-27T07:01:38Z</time>
</trkpt>
<trkpt lat="35.0918269" lon="32.5419564">
<ele>192.14</ele>
<time>2015-04-27T07:01:42Z</time>
</trkpt>
<trkpt lat="35.0918030" lon="32.5420172">
<ele>192.69</ele>
<time>2015-04-27T07:01:46Z</time>
</trkpt>
<trkpt lat="35.0917711" lon="32.5420747">
<ele>193.35</ele>
<time>2015-04-27T07:01:50Z</time>
</trkpt>
<trkpt lat="35.0917347" lon="32.5421385">
<ele>193.89</ele>
<time>2015-04-27T07:01:54Z</time>
</trkpt>
<trkpt lat="35.0917067" lon="32.5422012">
<ele>193.92</ele>
<time>2015-04-27T07:01:57Z</time>
</trkpt>
<trkpt lat="35.0916884" lon="32.5422575">
<ele>194.05</ele>
<time>2015-04-27T07:02:00Z</time>
</trkpt>
<trkpt lat="35.0916721" lon="32.5423135">
<ele>194.82</ele>
<time>2015-04-27T07:02:03Z</time>
</trkpt>
<trkpt lat="35.0916834" lon="32.5423765">
<ele>194.91</ele>
<time>2015-04-27T07:02:06Z</time>
</trkpt>
<trkpt lat="35.0917144" lon="32.5424317">
<ele>195.80</ele>
<time>2015-04-27T07:02:09Z</time>
</trkpt>
<trkpt lat="35.0917420" lon="32.5424773">
<ele>195.03</ele>
<time>2015-04-27T07:02:12Z</time>
</trkpt>
<trkpt lat="35.0917710" lon="32.5425239">
<ele>194.43</ele>
<time>2015-04-27T07:02:16Z</time>
</trkpt>
<trkpt lat="35.0917992" lon="32.5425748">
<ele>194.36</ele>
<time>2015-04-27T07:02:19Z</time>
</trkpt>
<trkpt lat="35.0918321" lon="32.5426479">
<ele>194.48</ele>
<time>2015-04-27T07:02:22Z</time>
</trkpt>
<trkpt lat="35.0918530" lon="32.5426970">
<ele>194.81</ele>
<time>2015-04-27T07:02:24Z</time>
</trkpt>
<trkpt lat="35.0918769" lon="32.5427439">
<ele>195.65</ele>
<time>2015-04-27T07:02:26Z</time>
</trkpt>
<trkpt lat="35.0919051" lon="32.5427910">
<ele>195.86</ele>
<time>2015-04-27T07:02:28Z</time>
</trkpt>
<trkpt lat="35.0919226" lon="32.5428445">
<ele>195.91</ele>
<time>2015-04-27T07:02:30Z</time>
</trkpt>
<trkpt lat="35.0919370" lon="32.5428999">
<ele>195.92</ele>
<time>2015-04-27T07:02:32Z</time>
</trkpt>
<trkpt lat="35.0919582" lon="32.5429548">
<ele>197.17</ele>
<time>2015-04-27T07:02:34Z</time>
</trkpt>
<trkpt lat="35.0919727" lon="32.5430180">
<ele>197.74</ele>
<time>2015-04-27T07:02:36Z</time>
</trkpt>
<trkpt lat="35.0919814" lon="32.5430879">
<ele>197.88</ele>
<time>2015-04-27T07:02:38Z</time>
</trkpt>
<trkpt lat="35.0919897" lon="32.5431430">
<ele>198.41</ele>
<time>2015-04-27T07:02:40Z</time>
</trkpt>
<trkpt lat="35.0920042" lon="32.5432116">
<ele>197.99</ele>
<time>2015-04-27T07:02:43Z</time>
</trkpt>
<trkpt lat="35.0920079" lon="32.5432695">
<ele>197.94</ele>
<time>2015-04-27T07:02:45Z</time>
</trkpt>
<trkpt lat="35.0920102" lon="32.5433340">
<ele>197.93</ele>
<time>2015-04-27T07:02:47Z</time>
</trkpt>
<trkpt lat="35.0920065" lon="32.5433978">
<ele>197.93</ele>
<time>2015-04-27T07:02:49Z</time>
</trkpt>
<trkpt lat="35.0920012" lon="32.5434648">
<ele>198.68</ele>
<time>2015-04-27T07:02:51Z</time>
</trkpt>
<trkpt lat="35.0920066" lon="32.5435300">
<ele>199.61</ele>
<time>2015-04-27T07:02:53Z</time>
</trkpt>
<trkpt lat="35.0920242" lon="32.5435927">
<ele>199.10</ele>
<time>2015-04-27T07:02:55Z</time>
</trkpt>
<trkpt lat="35.0920416" lon="32.5436520">
<ele>199.72</ele>
<time>2015-04-27T07:02:57Z</time>
</trkpt>
<trkpt lat="35.0920650" lon="32.5437274">
<ele>200.77</ele>
<time>2015-04-27T07:03:00Z</time>
</trkpt>
<trkpt lat="35.0920775" lon="32.5437811">
<ele>201.64</ele>
<time>2015-04-27T07:03:02Z</time>
</trkpt>
<trkpt lat="35.0920836" lon="32.5438386">
<ele>201.10</ele>
<time>2015-04-27T07:03:04Z</time>
</trkpt>
<trkpt lat="35.0920852" lon="32.5439015">
<ele>200.72</ele>
<time>2015-04-27T07:03:06Z</time>
</trkpt>
<trkpt lat="35.0920834" lon="32.5439675">
<ele>200.87</ele>
<time>2015-04-27T07:03:08Z</time>
</trkpt>
<trkpt lat="35.0920758" lon="32.5440265">
<ele>200.91</ele>
<time>2015-04-27T07:03:10Z</time>
</trkpt>
<trkpt lat="35.0920699" lon="32.5440832">
<ele>200.05</ele>
<time>2015-04-27T07:03:13Z</time>
</trkpt>
<trkpt lat="35.0920759" lon="32.5441567">
<ele>200.32</ele>
<time>2015-04-27T07:03:16Z</time>
</trkpt>
<trkpt lat="35.0920874" lon="32.5442129">
<ele>200.02</ele>
<time>2015-04-27T07:03:18Z</time>
</trkpt>
<trkpt lat="35.0921020" lon="32.5442709">
<ele>199.95</ele>
<time>2015-04-27T07:03:20Z</time>
</trkpt>
<trkpt lat="35.0921226" lon="32.5443266">
<ele>201.18</ele>
<time>2015-04-27T07:03:22Z</time>
</trkpt>
<trkpt lat="35.0921296" lon="32.5443895">
<ele>201.24</ele>
<time>2015-04-27T07:03:24Z</time>
</trkpt>
<trkpt lat="35.0921271" lon="32.5444524">
<ele>201.00</ele>
<time>2015-04-27T07:03:26Z</time>
</trkpt>
<trkpt lat="35.0921263" lon="32.5445159">
<ele>200.44</ele>
<time>2015-04-27T07:03:28Z</time>
</trkpt>
<trkpt lat="35.0921233" lon="32.5445761">
<ele>200.05</ele>
<time>2015-04-27T07:03:30Z</time>
</trkpt>
<trkpt lat="35.0921176" lon="32.5446406">
<ele>199.96</ele>
<time>2015-04-27T07:03:32Z</time>
</trkpt>
<trkpt lat="35.0921096" lon="32.5447029">
<ele>200.18</ele>
<time>2015-04-27T07:03:34Z</time>
</trkpt>
<trkpt lat="35.0921022" lon="32.5447718">
<ele>199.99</ele>
<time>2015-04-27T07:03:36Z</time>
</trkpt>
<trkpt lat="35.0920895" lon="32.5448473">
<ele>199.94</ele>
<time>2015-04-27T07:03:38Z</time>
</trkpt>
<trkpt lat="35.0920751" lon="32.5449139">
<ele>199.93</ele>
<time>2015-04-27T07:03:40Z</time>
</trkpt>
<trkpt lat="35.0920612" lon="32.5449935">
<ele>199.93</ele>
<time>2015-04-27T07:03:43Z</time>
</trkpt>
<trkpt lat="35.0920548" lon="32.5450742">
<ele>199.68</ele>
<time>2015-04-27T07:03:46Z</time>
</trkpt>
<trkpt lat="35.0920481" lon="32.5451322">
<ele>199.61</ele>
<time>2015-04-27T07:03:48Z</time>
</trkpt>
<trkpt lat="35.0920411" lon="32.5451992">
<ele>199.85</ele>
<time>2015-04-27T07:03:50Z</time>
</trkpt>
<trkpt lat="35.0920355" lon="32.5452625">
<ele>199.91</ele>
<time>2015-04-27T07:03:52Z</time>
</trkpt>
<trkpt lat="35.0920252" lon="32.5453229">
<ele>200.67</ele>
<time>2015-04-27T07:03:54Z</time>
</trkpt>
<trkpt lat="35.0920092" lon="32.5453824">
<ele>201.61</ele>
<time>2015-04-27T07:03:56Z</time>
</trkpt>
<trkpt lat="35.0919907" lon="32.5454392">
<ele>201.85</ele>
<time>2015-04-27T07:03:58Z</time>
</trkpt>
<trkpt lat="35.0919675" lon="32.5454922">
<ele>201.91</ele>
<time>2015-04-27T07:04:00Z</time>
</trkpt>
<trkpt lat="35.0919390" lon="32.5455413">
<ele>202.67</ele>
<time>2015-04-27T07:04:02Z</time>
</trkpt>
<trkpt lat="35.0919039" lon="32.5455866">
<ele>203.61</ele>
<time>2015-04-27T07:04:04Z</time>
</trkpt>
<trkpt lat="35.0918633" lon="32.5456284">
<ele>204.35</ele>
<time>2015-04-27T07:04:06Z</time>
</trkpt>
<trkpt lat="35.0918213" lon="32.5456676">
<ele>204.78</ele>
<time>2015-04-27T07:04:08Z</time>
</trkpt>
<trkpt lat="35.0917819" lon="32.5457067">
<ele>204.89</ele>
<time>2015-04-27T07:04:10Z</time>
</trkpt>
<trkpt lat="35.0917408" lon="32.5457433">
<ele>205.42</ele>
<time>2015-04-27T07:04:12Z</time>
</trkpt>
<trkpt lat="35.0916987" lon="32.5457825">
<ele>205.30</ele>
<time>2015-04-27T07:04:14Z</time>
</trkpt>
<trkpt lat="35.0916628" lon="32.5458312">
<ele>205.77</ele>
<time>2015-04-27T07:04:16Z</time>
</trkpt>
<trkpt lat="35.0916288" lon="32.5458817">
<ele>205.89</ele>
<time>2015-04-27T07:04:18Z</time>
</trkpt>
<trkpt lat="35.0915887" lon="32.5459271">
<ele>205.92</ele>
<time>2015-04-27T07:04:20Z</time>
</trkpt>
<trkpt lat="35.0915477" lon="32.5459688">
<ele>205.92</ele>
<time>2015-04-27T07:04:22Z</time>
</trkpt>
<trkpt lat="35.0914984" lon="32.5460109">
<ele>206.67</ele>
<time>2015-04-27T07:04:25Z</time>
</trkpt>
<trkpt lat="35.0914418" lon="32.5460418">
<ele>206.89</ele>
<time>2015-04-27T07:04:28Z</time>
</trkpt>
<trkpt lat="35.0913899" lon="32.5460680">
<ele>206.92</ele>
<time>2015-04-27T07:04:30Z</time>
</trkpt>
<trkpt lat="35.0913382" lon="32.5460886">
<ele>206.92</ele>
<time>2015-04-27T07:04:32Z</time>
</trkpt>
<trkpt lat="35.0912842" lon="32.5461056">
<ele>206.92</ele>
<time>2015-04-27T07:04:34Z</time>
</trkpt>
<trkpt lat="35.0912280" lon="32.5461154">
<ele>206.92</ele>
<time>2015-04-27T07:04:36Z</time>
</trkpt>
<trkpt lat="35.0911763" lon="32.5461173">
<ele>206.92</ele>
<time>2015-04-27T07:04:38Z</time>
</trkpt>
<trkpt lat="35.0911273" lon="32.5461215">
<ele>207.42</ele>
<time>2015-04-27T07:04:40Z</time>
</trkpt>
<trkpt lat="35.0910776" lon="32.5461353">
<ele>207.80</ele>
<time>2015-04-27T07:04:42Z</time>
</trkpt>
<trkpt lat="35.0910258" lon="32.5461504">
<ele>207.89</ele>
<time>2015-04-27T07:04:44Z</time>
</trkpt>
<trkpt lat="35.0909793" lon="32.5461759">
<ele>207.92</ele>
<time>2015-04-27T07:04:46Z</time>
</trkpt>
<trkpt lat="35.0909425" lon="32.5462225">
<ele>207.42</ele>
<time>2015-04-27T07:04:49Z</time>
</trkpt>
<trkpt lat="35.0909085" lon="32.5462996">
<ele>207.49</ele>
<time>2015-04-27T07:04:52Z</time>
</trkpt>
<trkpt lat="35.0908847" lon="32.5463550">
<ele>207.82</ele>
<time>2015-04-27T07:04:54Z</time>
</trkpt>
<trkpt lat="35.0908657" lon="32.5464110">
<ele>207.90</ele>
<time>2015-04-27T07:04:56Z</time>
</trkpt>
<trkpt lat="35.0908430" lon="32.5464651">
<ele>207.92</ele>
<time>2015-04-27T07:04:58Z</time>
</trkpt>
<trkpt lat="35.0908158" lon="32.5465157">
<ele>207.92</ele>
<time>2015-04-27T07:05:00Z</time>
</trkpt>
<trkpt lat="35.0907864" lon="32.5465598">
<ele>208.67</ele>
<time>2015-04-27T07:05:02Z</time>
</trkpt>
<trkpt lat="35.0907423" lon="32.5466093">
<ele>208.89</ele>
<time>2015-04-27T07:05:05Z</time>
</trkpt>
<trkpt lat="35.0907085" lon="32.5466466">
<ele>208.92</ele>
<time>2015-04-27T07:05:07Z</time>
</trkpt>
<trkpt lat="35.0906704" lon="32.5466812">
<ele>209.42</ele>
<time>2015-04-27T07:05:09Z</time>
</trkpt>
<trkpt lat="35.0906300" lon="32.5467146">
<ele>209.80</ele>
<time>2015-04-27T07:05:11Z</time>
</trkpt>
<trkpt lat="35.0905879" lon="32.5467473">
<ele>209.89</ele>
<time>2015-04-27T07:05:13Z</time>
</trkpt>
<trkpt lat="35.0905450" lon="32.5467772">
<ele>209.92</ele>
<time>2015-04-27T07:05:15Z</time>
</trkpt>
<trkpt lat="35.0905015" lon="32.5468056">
<ele>209.92</ele>
<time>2015-04-27T07:05:17Z</time>
</trkpt>
<trkpt lat="35.0904556" lon="32.5468274">
<ele>209.92</ele>
<time>2015-04-27T07:05:19Z</time>
</trkpt>
<trkpt lat="35.0904110" lon="32.5468482">
<ele>209.92</ele>
<time>2015-04-27T07:05:21Z</time>
</trkpt>
<trkpt lat="35.0903654" lon="32.5468685">
<ele>210.67</ele>
<time>2015-04-27T07:05:23Z</time>
</trkpt>
<trkpt lat="35.0903197" lon="32.5468826">
<ele>210.86</ele>
<time>2015-04-27T07:05:25Z</time>
</trkpt>
<trkpt lat="35.0902744" lon="32.5468960">
<ele>211.41</ele>
<time>2015-04-27T07:05:27Z</time>
</trkpt>
<trkpt lat="35.0902286" lon="32.5469074">
<ele>211.80</ele>
<time>2015-04-27T07:05:29Z</time>
</trkpt>
<trkpt lat="35.0901815" lon="32.5469139">
<ele>211.89</ele>
<time>2015-04-27T07:05:31Z</time>
</trkpt>
<trkpt lat="35.0901364" lon="32.5469209">
<ele>212.42</ele>
<time>2015-04-27T07:05:33Z</time>
</trkpt>
<trkpt lat="35.0900920" lon="32.5469318">
<ele>212.80</ele>
<time>2015-04-27T07:05:35Z</time>
</trkpt>
<trkpt lat="35.0900489" lon="32.5469504">
<ele>213.14</ele>
<time>2015-04-27T07:05:37Z</time>
</trkpt>
<trkpt lat="35.0900087" lon="32.5469806">
<ele>212.98</ele>
<time>2015-04-27T07:05:39Z</time>
</trkpt>
<trkpt lat="35.0899708" lon="32.5470122">
<ele>212.94</ele>
<time>2015-04-27T07:05:41Z</time>
</trkpt>
<trkpt lat="35.0899225" lon="32.5470652">
<ele>213.80</ele>
<time>2015-04-27T07:05:44Z</time>
</trkpt>
<trkpt lat="35.0898898" lon="32.5471035">
<ele>214.67</ele>
<time>2015-04-27T07:05:48Z</time>
</trkpt>
<trkpt lat="35.0898573" lon="32.5471491">
<ele>214.91</ele>
<time>2015-04-27T07:05:52Z</time>
</trkpt>
<trkpt lat="35.0898290" lon="32.5472107">
<ele>215.80</ele>
<time>2015-04-27T07:05:56Z</time>
</trkpt>
<trkpt lat="35.0898017" lon="32.5472736">
<ele>216.42</ele>
<time>2015-04-27T07:06:00Z</time>
</trkpt>
<trkpt lat="35.0897870" lon="32.5473274">
<ele>216.86</ele>
<time>2015-04-27T07:06:03Z</time>
</trkpt>
<trkpt lat="35.0897676" lon="32.5473957">
<ele>217.80</ele>
<time>2015-04-27T07:06:07Z</time>
</trkpt>
<trkpt lat="35.0897496" lon="32.5474646">
<ele>217.92</ele>
<time>2015-04-27T07:06:11Z</time>
</trkpt>
<trkpt lat="35.0897351" lon="32.5475182">
<ele>218.42</ele>
<time>2015-04-27T07:06:14Z</time>
</trkpt>
<trkpt lat="35.0897193" lon="32.5475869">
<ele>218.64</ele>
<time>2015-04-27T07:06:18Z</time>
</trkpt>
<trkpt lat="35.0897011" lon="32.5476545">
<ele>218.91</ele>
<time>2015-04-27T07:06:22Z</time>
</trkpt>
<trkpt lat="35.0896886" lon="32.5477088">
<ele>218.92</ele>
<time>2015-04-27T07:06:25Z</time>
</trkpt>
<trkpt lat="35.0896755" lon="32.5477771">
<ele>218.67</ele>
<time>2015-04-27T07:06:28Z</time>
</trkpt>
<trkpt lat="35.0896661" lon="32.5478450">
<ele>218.89</ele>
<time>2015-04-27T07:06:31Z</time>
</trkpt>
<trkpt lat="35.0896608" lon="32.5479115">
<ele>218.92</ele>
<time>2015-04-27T07:06:34Z</time>
</trkpt>
<trkpt lat="35.0896644" lon="32.5479743">
<ele>220.55</ele>
<time>2015-04-27T07:06:37Z</time>
</trkpt>
<trkpt lat="35.0896723" lon="32.5480358">
<ele>220.38</ele>
<time>2015-04-27T07:06:40Z</time>
</trkpt>
<trkpt lat="35.0896865" lon="32.5480964">
<ele>220.86</ele>
<time>2015-04-27T07:06:43Z</time>
</trkpt>
<trkpt lat="35.0896948" lon="32.5481569">
<ele>220.92</ele>
<time>2015-04-27T07:06:46Z</time>
</trkpt>
<trkpt lat="35.0897031" lon="32.5482170">
<ele>221.80</ele>
<time>2015-04-27T07:06:49Z</time>
</trkpt>
<trkpt lat="35.0897207" lon="32.5482758">
<ele>221.91</ele>
<time>2015-04-27T07:06:52Z</time>
</trkpt>
<trkpt lat="35.0897366" lon="32.5483374">
<ele>222.42</ele>
<time>2015-04-27T07:06:55Z</time>
</trkpt>
<trkpt lat="35.0897550" lon="32.5483986">
<ele>222.74</ele>
<time>2015-04-27T07:06:58Z</time>
</trkpt>
<trkpt lat="35.0897733" lon="32.5484588">
<ele>222.90</ele>
<time>2015-04-27T07:07:01Z</time>
</trkpt>
<trkpt lat="35.0897974" lon="32.5485204">
<ele>223.80</ele>
<time>2015-04-27T07:07:04Z</time>
</trkpt>
<trkpt lat="35.0898175" lon="32.5485834">
<ele>223.91</ele>
<time>2015-04-27T07:07:07Z</time>
</trkpt>
<trkpt lat="35.0898363" lon="32.5486435">
<ele>223.92</ele>
<time>2015-04-27T07:07:10Z</time>
</trkpt>
<trkpt lat="35.0898640" lon="32.5486971">
<ele>224.67</ele>
<time>2015-04-27T07:07:14Z</time>
</trkpt>
<trkpt lat="35.0898856" lon="32.5487544">
<ele>224.91</ele>
<time>2015-04-27T07:07:18Z</time>
</trkpt>
<trkpt lat="35.0898877" lon="32.5488207">
<ele>225.42</ele>
<time>2015-04-27T07:07:22Z</time>
</trkpt>
<trkpt lat="35.0898896" lon="32.5488885">
<ele>225.89</ele>
<time>2015-04-27T07:07:26Z</time>
</trkpt>
<trkpt lat="35.0898767" lon="32.5489558">
<ele>225.92</ele>
<time>2015-04-27T07:07:30Z</time>
</trkpt>
<trkpt lat="35.0898507" lon="32.5490203">
<ele>226.80</ele>
<time>2015-04-27T07:07:34Z</time>
</trkpt>
<trkpt lat="35.0898152" lon="32.5490781">
<ele>227.85</ele>
<time>2015-04-27T07:07:38Z</time>
</trkpt>
<trkpt lat="35.0897745" lon="32.5491122">
<ele>227.92</ele>
<time>2015-04-27T07:07:41Z</time>
</trkpt>
<trkpt lat="35.0897333" lon="32.5491422">
<ele>227.92</ele>
<time>2015-04-27T07:07:44Z</time>
</trkpt>
<trkpt lat="35.0896917" lon="32.5491692">
<ele>228.80</ele>
<time>2015-04-27T07:07:47Z</time>
</trkpt>
<trkpt lat="35.0896490" lon="32.5491982">
<ele>228.91</ele>
<time>2015-04-27T07:07:50Z</time>
</trkpt>
<trkpt lat="35.0896078" lon="32.5492221">
<ele>229.17</ele>
<time>2015-04-27T07:07:53Z</time>
</trkpt>
<trkpt lat="35.0895570" lon="32.5492285">
<ele>229.87</ele>
<time>2015-04-27T07:07:59Z</time>
</trkpt>
<trkpt lat="35.0895064" lon="32.5492162">
<ele>230.05</ele>
<time>2015-04-27T07:08:04Z</time>
</trkpt>
<trkpt lat="35.0894605" lon="32.5492034">
<ele>229.93</ele>
<time>2015-04-27T07:08:08Z</time>
</trkpt>
<trkpt lat="35.0894108" lon="32.5491859">
<ele>230.68</ele>
<time>2015-04-27T07:08:12Z</time>
</trkpt>
<trkpt lat="35.0893564" lon="32.5491828">
<ele>232.22</ele>
<time>2015-04-27T07:08:16Z</time>
</trkpt>
<trkpt lat="35.0893101" lon="32.5491789">
<ele>233.63</ele>
<time>2015-04-27T07:08:20Z</time>
</trkpt>
<trkpt lat="35.0892592" lon="32.5491785">
<ele>234.07</ele>
<time>2015-04-27T07:08:25Z</time>
</trkpt>
<trkpt lat="35.0892095" lon="32.5491784">
<ele>234.85</ele>
<time>2015-04-27T07:08:31Z</time>
</trkpt>
<trkpt lat="35.0891612" lon="32.5491904">
<ele>236.30</ele>
<time>2015-04-27T07:08:36Z</time>
</trkpt>
<trkpt lat="35.0891117" lon="32.5492034">
<ele>236.89</ele>
<time>2015-04-27T07:08:40Z</time>
</trkpt>
<trkpt lat="35.0890611" lon="32.5492222">
<ele>236.92</ele>
<time>2015-04-27T07:08:44Z</time>
</trkpt>
<trkpt lat="35.0890155" lon="32.5492538">
<ele>239.05</ele>
<time>2015-04-27T07:08:48Z</time>
</trkpt>
<trkpt lat="35.0889668" lon="32.5492832">
<ele>239.87</ele>
<time>2015-04-27T07:08:52Z</time>
</trkpt>
<trkpt lat="35.0889071" lon="32.5492782">
<ele>238.98</ele>
<time>2015-04-27T07:08:56Z</time>
</trkpt>
<trkpt lat="35.0888543" lon="32.5492829">
<ele>239.43</ele>
<time>2015-04-27T07:09:00Z</time>
</trkpt>
<trkpt lat="35.0887965" lon="32.5492910">
<ele>239.64</ele>
<time>2015-04-27T07:09:04Z</time>
</trkpt>
<trkpt lat="35.0887363" lon="32.5492874">
<ele>239.66</ele>
<time>2015-04-27T07:09:08Z</time>
</trkpt>
<trkpt lat="35.0886861" lon="32.5492860">
<ele>239.39</ele>
<time>2015-04-27T07:09:11Z</time>
</trkpt>
<trkpt lat="35.0886311" lon="32.5492760">
<ele>239.02</ele>
<time>2015-04-27T07:09:15Z</time>
</trkpt>
<trkpt lat="35.0885988" lon="32.5493324">
<ele>239.12</ele>
<time>2015-04-27T07:09:19Z</time>
</trkpt>
<trkpt lat="35.0885777" lon="32.5493841">
<ele>239.20</ele>
<time>2015-04-27T07:09:22Z</time>
</trkpt>
<trkpt lat="35.0885636" lon="32.5494434">
<ele>239.46</ele>
<time>2015-04-27T07:09:25Z</time>
</trkpt>
<trkpt lat="35.0885698" lon="32.5494981">
<ele>240.62</ele>
<time>2015-04-27T07:09:28Z</time>
</trkpt>
<trkpt lat="35.0885914" lon="32.5495652">
<ele>241.03</ele>
<time>2015-04-27T07:09:32Z</time>
</trkpt>
<trkpt lat="35.0886295" lon="32.5496188">
<ele>241.99</ele>
<time>2015-04-27T07:09:36Z</time>
</trkpt>
<trkpt lat="35.0886590" lon="32.5496666">
<ele>244.06</ele>
<time>2015-04-27T07:09:39Z</time>
</trkpt>
<trkpt lat="35.0886842" lon="32.5497259">
<ele>244.37</ele>
<time>2015-04-27T07:09:43Z</time>
</trkpt>
<trkpt lat="35.0887070" lon="32.5497796">
<ele>243.83</ele>
<time>2015-04-27T07:09:47Z</time>
</trkpt>
<trkpt lat="35.0887401" lon="32.5498339">
<ele>243.42</ele>
<time>2015-04-27T07:09:51Z</time>
</trkpt>
<trkpt lat="35.0887812" lon="32.5498859">
<ele>242.33</ele>
<time>2015-04-27T07:09:55Z</time>
</trkpt>
<trkpt lat="35.0888249" lon="32.5499214">
<ele>242.70</ele>
<time>2015-04-27T07:09:59Z</time>
</trkpt>
<trkpt lat="35.0888576" lon="32.5499738">
<ele>243.41</ele>
<time>2015-04-27T07:10:03Z</time>
</trkpt>
<trkpt lat="35.0888747" lon="32.5500406">
<ele>244.52</ele>
<time>2015-04-27T07:10:07Z</time>
</trkpt>
<trkpt lat="35.0888663" lon="32.5501016">
<ele>244.87</ele>
<time>2015-04-27T07:10:10Z</time>
</trkpt>
<trkpt lat="35.0888728" lon="32.5501586">
<ele>245.67</ele>
<time>2015-04-27T07:10:13Z</time>
</trkpt>
<trkpt lat="35.0888733" lon="32.5502300">
<ele>246.03</ele>
<time>2015-04-27T07:10:17Z</time>
</trkpt>
<trkpt lat="35.0888665" lon="32.5502861">
<ele>247.31</ele>
<time>2015-04-27T07:10:20Z</time>
</trkpt>
<trkpt lat="35.0888582" lon="32.5503439">
<ele>247.35</ele>
<time>2015-04-27T07:10:23Z</time>
</trkpt>
<trkpt lat="35.0888404" lon="32.5503958">
<ele>247.23</ele>
<time>2015-04-27T07:10:26Z</time>
</trkpt>
<trkpt lat="35.0888082" lon="32.5504522">
<ele>247.01</ele>
<time>2015-04-27T07:10:30Z</time>
</trkpt>
<trkpt lat="35.0887784" lon="32.5504965">
<ele>247.06</ele>
<time>2015-04-27T07:10:33Z</time>
</trkpt>
<trkpt lat="35.0887444" lon="32.5505466">
<ele>247.82</ele>
<time>2015-04-27T07:10:36Z</time>
</trkpt>
<trkpt lat="35.0887066" lon="32.5505923">
<ele>248.29</ele>
<time>2015-04-27T07:10:39Z</time>
</trkpt>
<trkpt lat="35.0886748" lon="32.5506377">
<ele>247.95</ele>
<time>2015-04-27T07:10:43Z</time>
</trkpt>
<trkpt lat="35.0886430" lon="32.5506779">
<ele>248.08</ele>
<time>2015-04-27T07:10:48Z</time>
</trkpt>
<trkpt lat="35.0886070" lon="32.5507110">
<ele>248.07</ele>
<time>2015-04-27T07:10:51Z</time>
</trkpt>
<trkpt lat="35.0885588" lon="32.5507498">
<ele>247.43</ele>
<time>2015-04-27T07:10:55Z</time>
</trkpt>
<trkpt lat="35.0885063" lon="32.5507742">
<ele>247.02</ele>
<time>2015-04-27T07:10:59Z</time>
</trkpt>
<trkpt lat="35.0884524" lon="32.5507912">
<ele>247.81</ele>
<time>2015-04-27T07:11:03Z</time>
</trkpt>
<trkpt lat="35.0883992" lon="32.5508025">
<ele>248.67</ele>
<time>2015-04-27T07:11:07Z</time>
</trkpt>
<trkpt lat="35.0883434" lon="32.5508063">
<ele>249.66</ele>
<time>2015-04-27T07:11:11Z</time>
</trkpt>
<trkpt lat="35.0882842" lon="32.5508062">
<ele>250.41</ele>
<time>2015-04-27T07:11:15Z</time>
</trkpt>
<trkpt lat="35.0882341" lon="32.5507889">
<ele>249.96</ele>
<time>2015-04-27T07:11:19Z</time>
</trkpt>
<trkpt lat="35.0881849" lon="32.5507858">
<ele>252.30</ele>
<time>2015-04-27T07:11:23Z</time>
</trkpt>
<trkpt lat="35.0881343" lon="32.5507847">
<ele>252.89</ele>
<time>2015-04-27T07:11:27Z</time>
</trkpt>
<trkpt lat="35.0880757" lon="32.5507858">
<ele>255.05</ele>
<time>2015-04-27T07:11:31Z</time>
</trkpt>
<trkpt lat="35.0880277" lon="32.5507808">
<ele>254.94</ele>
<time>2015-04-27T07:11:34Z</time>
</trkpt>
<trkpt lat="35.0879782" lon="32.5507865">
<ele>254.93</ele>
<time>2015-04-27T07:11:37Z</time>
</trkpt>
<trkpt lat="35.0879316" lon="32.5508124">
<ele>254.05</ele>
<time>2015-04-27T07:11:40Z</time>
</trkpt>
<trkpt lat="35.0878939" lon="32.5508591">
<ele>253.19</ele>
<time>2015-04-27T07:11:43Z</time>
</trkpt>
<trkpt lat="35.0878588" lon="32.5509083">
<ele>253.58</ele>
<time>2015-04-27T07:11:46Z</time>
</trkpt>
<trkpt lat="35.0878392" lon="32.5509670">
<ele>255.51</ele>
<time>2015-04-27T07:11:49Z</time>
</trkpt>
<trkpt lat="35.0878276" lon="32.5510247">
<ele>255.25</ele>
<time>2015-04-27T07:11:52Z</time>
</trkpt>
<trkpt lat="35.0878356" lon="32.5510906">
<ele>255.45</ele>
<time>2015-04-27T07:11:56Z</time>
</trkpt>
<trkpt lat="35.0878484" lon="32.5511435">
<ele>255.74</ele>
<time>2015-04-27T07:11:59Z</time>
</trkpt>
<trkpt lat="35.0878654" lon="32.5511947">
<ele>255.78</ele>
<time>2015-04-27T07:12:02Z</time>
</trkpt>
<trkpt lat="35.0878652" lon="32.5512653">
<ele>255.92</ele>
<time>2015-04-27T07:12:06Z</time>
</trkpt>
<trkpt lat="35.0878536" lon="32.5513341">
<ele>255.92</ele>
<time>2015-04-27T07:12:10Z</time>
</trkpt>
<trkpt lat="35.0878265" lon="32.5513789">
<ele>256.55</ele>
<time>2015-04-27T07:12:13Z</time>
</trkpt>
<trkpt lat="35.0877960" lon="32.5514242">
<ele>255.25</ele>
<time>2015-04-27T07:12:16Z</time>
</trkpt>
<trkpt lat="35.0877561" lon="32.5514645">
<ele>254.47</ele>
<time>2015-04-27T07:12:19Z</time>
</trkpt>
<trkpt lat="35.0877166" lon="32.5515032">
<ele>254.49</ele>
<time>2015-04-27T07:12:22Z</time>
</trkpt>
<trkpt lat="35.0876823" lon="32.5515474">
<ele>255.62</ele>
<time>2015-04-27T07:12:25Z</time>
</trkpt>
<trkpt lat="35.0876586" lon="32.5516000">
<ele>255.89</ele>
<time>2015-04-27T07:12:28Z</time>
</trkpt>
<trkpt lat="35.0876229" lon="32.5516562">
<ele>257.24</ele>
<time>2015-04-27T07:12:32Z</time>
</trkpt>
<trkpt lat="35.0876174" lon="32.5517127">
<ele>258.34</ele>
<time>2015-04-27T07:12:35Z</time>
</trkpt>
<trkpt lat="35.0876124" lon="32.5517808">
<ele>258.85</ele>
<time>2015-04-27T07:12:38Z</time>
</trkpt>
<trkpt lat="35.0876361" lon="32.5518390">
<ele>260.42</ele>
<time>2015-04-27T07:12:41Z</time>
</trkpt>
<trkpt lat="35.0876562" lon="32.5518940">
<ele>260.86</ele>
<time>2015-04-27T07:12:44Z</time>
</trkpt>
<trkpt lat="35.0876740" lon="32.5519594">
<ele>262.29</ele>
<time>2015-04-27T07:12:47Z</time>
</trkpt>
<trkpt lat="35.0876852" lon="32.5520203">
<ele>261.60</ele>
<time>2015-04-27T07:12:50Z</time>
</trkpt>
<trkpt lat="35.0876741" lon="32.5520895">
<ele>260.97</ele>
<time>2015-04-27T07:12:54Z</time>
</trkpt>
<trkpt lat="35.0876753" lon="32.5521496">
<ele>261.43</ele>
<time>2015-04-27T07:12:58Z</time>
</trkpt>
<trkpt lat="35.0876808" lon="32.5522171">
<ele>261.89</ele>
<time>2015-04-27T07:13:02Z</time>
</trkpt>
<trkpt lat="35.0876581" lon="32.5522668">
<ele>260.43</ele>
<time>2015-04-27T07:13:18Z</time>
</trkpt>
<trkpt lat="35.0876195" lon="32.5522961">
<ele>255.21</ele>
<time>2015-04-27T07:18:33Z</time>
</trkpt>
<trkpt lat="35.0875993" lon="32.5523466">
<ele>256.68</ele>
<time>2015-04-27T07:21:49Z</time>
</trkpt>
<trkpt lat="35.0876087" lon="32.5524010">
<ele>255.97</ele>
<time>2015-04-27T07:21:53Z</time>
</trkpt>
<trkpt lat="35.0876161" lon="32.5524566">
<ele>257.43</ele>
<time>2015-04-27T07:21:56Z</time>
</trkpt>
<trkpt lat="35.0876338" lon="32.5525143">
<ele>257.86</ele>
<time>2015-04-27T07:21:59Z</time>
</trkpt>
<trkpt lat="35.0876384" lon="32.5525768">
<ele>256.67</ele>
<time>2015-04-27T07:22:02Z</time>
</trkpt>
<trkpt lat="35.0876199" lon="32.5526270">
<ele>255.61</ele>
<time>2015-04-27T07:22:04Z</time>
</trkpt>
<trkpt lat="35.0875753" lon="32.5526936">
<ele>254.60</ele>
<time>2015-04-27T07:22:06Z</time>
</trkpt>
<trkpt lat="35.0875369" lon="32.5527705">
<ele>253.34</ele>
<time>2015-04-27T07:22:08Z</time>
</trkpt>
<trkpt lat="35.0875213" lon="32.5528489">
<ele>254.28</ele>
<time>2015-04-27T07:22:10Z</time>
</trkpt>
<trkpt lat="35.0875188" lon="32.5529157">
<ele>254.76</ele>
<time>2015-04-27T07:22:12Z</time>
</trkpt>
<trkpt lat="35.0875259" lon="32.5529790">
<ele>254.88</ele>
<time>2015-04-27T07:22:14Z</time>
</trkpt>
<trkpt lat="35.0875618" lon="32.5530324">
<ele>255.16</ele>
<time>2015-04-27T07:22:16Z</time>
</trkpt>
<trkpt lat="35.0876198" lon="32.5530633">
<ele>254.48</ele>
<time>2015-04-27T07:22:18Z</time>
</trkpt>
<trkpt lat="35.0876864" lon="32.5530793">
<ele>253.31</ele>
<time>2015-04-27T07:22:20Z</time>
</trkpt>
<trkpt lat="35.0877607" lon="32.5530879">
<ele>252.27</ele>
<time>2015-04-27T07:22:22Z</time>
</trkpt>
<trkpt lat="35.0878298" lon="32.5531054">
<ele>252.76</ele>
<time>2015-04-27T07:22:24Z</time>
</trkpt>
<trkpt lat="35.0878838" lon="32.5531440">
<ele>251.38</ele>
<time>2015-04-27T07:22:26Z</time>
</trkpt>
<trkpt lat="35.0879121" lon="32.5532018">
<ele>251.04</ele>
<time>2015-04-27T07:22:28Z</time>
</trkpt>
<trkpt lat="35.0879260" lon="32.5532604">
<ele>251.70</ele>
<time>2015-04-27T07:22:30Z</time>
</trkpt>
<trkpt lat="35.0879331" lon="32.5533173">
<ele>251.37</ele>
<time>2015-04-27T07:22:32Z</time>
</trkpt>
<trkpt lat="35.0879358" lon="32.5533782">
<ele>250.79</ele>
<time>2015-04-27T07:22:34Z</time>
</trkpt>
<trkpt lat="35.0879415" lon="32.5534415">
<ele>250.14</ele>
<time>2015-04-27T07:22:36Z</time>
</trkpt>
<trkpt lat="35.0879617" lon="32.5534978">
<ele>250.73</ele>
<time>2015-04-27T07:22:38Z</time>
</trkpt>
<trkpt lat="35.0879897" lon="32.5535494">
<ele>249.88</ele>
<time>2015-04-27T07:22:40Z</time>
</trkpt>
<trkpt lat="35.0880120" lon="32.5536278">
<ele>249.79</ele>
<time>2015-04-27T07:22:43Z</time>
</trkpt>
<trkpt lat="35.0880376" lon="32.5536824">
<ele>248.64</ele>
<time>2015-04-27T07:22:45Z</time>
</trkpt>
<trkpt lat="35.0880651" lon="32.5537326">
<ele>248.10</ele>
<time>2015-04-27T07:22:47Z</time>
</trkpt>
<trkpt lat="35.0880662" lon="32.5537916">
<ele>248.47</ele>
<time>2015-04-27T07:22:49Z</time>
</trkpt>
<trkpt lat="35.0880430" lon="32.5538520">
<ele>247.31</ele>
<time>2015-04-27T07:22:51Z</time>
</trkpt>
<trkpt lat="35.0880200" lon="32.5539148">
<ele>246.52</ele>
<time>2015-04-27T07:22:53Z</time>
</trkpt>
<trkpt lat="35.0880015" lon="32.5539754">
<ele>245.57</ele>
<time>2015-04-27T07:22:55Z</time>
</trkpt>
<trkpt lat="35.0879784" lon="32.5540345">
<ele>244.59</ele>
<time>2015-04-27T07:22:57Z</time>
</trkpt>
<trkpt lat="35.0879444" lon="32.5540912">
<ele>243.34</ele>
<time>2015-04-27T07:22:59Z</time>
</trkpt>
<trkpt lat="35.0878985" lon="32.5541425">
<ele>242.53</ele>
<time>2015-04-27T07:23:01Z</time>
</trkpt>
<trkpt lat="35.0878472" lon="32.5541868">
<ele>241.33</ele>
<time>2015-04-27T07:23:03Z</time>
</trkpt>
<trkpt lat="35.0878023" lon="32.5542258">
<ele>241.03</ele>
<time>2015-04-27T07:23:05Z</time>
</trkpt>
<trkpt lat="35.0877592" lon="32.5542832">
<ele>238.95</ele>
<time>2015-04-27T07:23:07Z</time>
</trkpt>
<trkpt lat="35.0877316" lon="32.5543676">
<ele>238.43</ele>
<time>2015-04-27T07:23:09Z</time>
</trkpt>
<trkpt lat="35.0877243" lon="32.5544478">
<ele>238.05</ele>
<time>2015-04-27T07:23:11Z</time>
</trkpt>
<trkpt lat="35.0877515" lon="32.5545045">
<ele>238.21</ele>
<time>2015-04-27T07:23:13Z</time>
</trkpt>
<trkpt lat="35.0877994" lon="32.5545139">
<ele>239.50</ele>
<time>2015-04-27T07:23:15Z</time>
</trkpt>
<trkpt lat="35.0878679" lon="32.5545061">
<ele>238.87</ele>
<time>2015-04-27T07:23:18Z</time>
</trkpt>
<trkpt lat="35.0879209" lon="32.5544955">
<ele>237.16</ele>
<time>2015-04-27T07:23:20Z</time>
</trkpt>
<trkpt lat="35.0879675" lon="32.5544832">
<ele>236.98</ele>
<time>2015-04-27T07:23:22Z</time>
</trkpt>
<trkpt lat="35.0880284" lon="32.5544692">
<ele>237.06</ele>
<time>2015-04-27T07:23:25Z</time>
</trkpt>
<trkpt lat="35.0880782" lon="32.5544618">
<ele>237.07</ele>
<time>2015-04-27T07:23:28Z</time>
</trkpt>
<trkpt lat="35.0881226" lon="32.5544461">
<ele>237.19</ele>
<time>2015-04-27T07:23:31Z</time>
</trkpt>
<trkpt lat="35.0881689" lon="32.5544428">
<ele>238.07</ele>
<time>2015-04-27T07:23:35Z</time>
</trkpt>
<trkpt lat="35.0882144" lon="32.5544672">
<ele>244.46</ele>
<time>2015-04-27T07:23:40Z</time>
</trkpt>
<trkpt lat="35.0882684" lon="32.5544909">
<ele>248.70</ele>
<time>2015-04-27T07:23:46Z</time>
</trkpt>
<trkpt lat="35.0883171" lon="32.5544876">
<ele>249.22</ele>
<time>2015-04-27T07:23:50Z</time>
</trkpt>
<trkpt lat="35.0883736" lon="32.5544802">
<ele>246.37</ele>
<time>2015-04-27T07:23:55Z</time>
</trkpt>
<trkpt lat="35.0884174" lon="32.5544654">
<ele>246.36</ele>
<time>2015-04-27T07:23:58Z</time>
</trkpt>
<trkpt lat="35.0884693" lon="32.5544675">
<ele>249.33</ele>
<time>2015-04-27T07:24:02Z</time>
</trkpt>
<trkpt lat="35.0884976" lon="32.5545185">
<ele>253.10</ele>
<time>2015-04-27T07:24:12Z</time>
</trkpt>
<trkpt lat="35.0885436" lon="32.5545269">
<ele>254.20</ele>
<time>2015-04-27T07:24:15Z</time>
</trkpt>
<trkpt lat="35.0885932" lon="32.5545456">
<ele>256.46</ele>
<time>2015-04-27T07:24:18Z</time>
</trkpt>
<trkpt lat="35.0886556" lon="32.5545638">
<ele>256.74</ele>
<time>2015-04-27T07:24:21Z</time>
</trkpt>
<trkpt lat="35.0887107" lon="32.5545753">
<ele>253.28</ele>
<time>2015-04-27T07:24:24Z</time>
</trkpt>
<trkpt lat="35.0887576" lon="32.5546064">
<ele>251.82</ele>
<time>2015-04-27T07:24:28Z</time>
</trkpt>
<trkpt lat="35.0888023" lon="32.5546174">
<ele>251.90</ele>
<time>2015-04-27T07:24:30Z</time>
</trkpt>
<trkpt lat="35.0888481" lon="32.5546285">
<ele>250.67</ele>
<time>2015-04-27T07:24:32Z</time>
</trkpt>
<trkpt lat="35.0888953" lon="32.5546463">
<ele>249.86</ele>
<time>2015-04-27T07:24:34Z</time>
</trkpt>
<trkpt lat="35.0889368" lon="32.5546832">
<ele>250.79</ele>
<time>2015-04-27T07:24:37Z</time>
</trkpt>
<trkpt lat="35.0889865" lon="32.5547239">
<ele>251.04</ele>
<time>2015-04-27T07:24:41Z</time>
</trkpt>
<trkpt lat="35.0890191" lon="32.5547625">
<ele>250.94</ele>
<time>2015-04-27T07:24:44Z</time>
</trkpt>
<trkpt lat="35.0890472" lon="32.5548118">
<ele>251.86</ele>
<time>2015-04-27T07:24:48Z</time>
</trkpt>
<trkpt lat="35.0890942" lon="32.5548093">
<ele>253.17</ele>
<time>2015-04-27T07:24:52Z</time>
</trkpt>
<trkpt lat="35.0891410" lon="32.5547804">
<ele>252.18</ele>
<time>2015-04-27T07:24:57Z</time>
</trkpt>
<trkpt lat="35.0891797" lon="32.5547327">
<ele>255.00</ele>
<time>2015-04-27T07:25:02Z</time>
</trkpt>
<trkpt lat="35.0892004" lon="32.5546738">
<ele>255.30</ele>
<time>2015-04-27T07:25:06Z</time>
</trkpt>
<trkpt lat="35.0892270" lon="32.5546150">
<ele>256.76</ele>
<time>2015-04-27T07:25:10Z</time>
</trkpt>
<trkpt lat="35.0892641" lon="32.5545777">
<ele>258.15</ele>
<time>2015-04-27T07:25:13Z</time>
</trkpt>
<trkpt lat="35.0893052" lon="32.5545391">
<ele>258.95</ele>
<time>2015-04-27T07:25:16Z</time>
</trkpt>
<trkpt lat="35.0893576" lon="32.5545091">
<ele>259.86</ele>
<time>2015-04-27T07:25:20Z</time>
</trkpt>
<trkpt lat="35.0894039" lon="32.5545102">
<ele>259.98</ele>
<time>2015-04-27T07:25:24Z</time>
</trkpt>
<trkpt lat="35.0894583" lon="32.5545201">
<ele>261.52</ele>
<time>2015-04-27T07:25:29Z</time>
</trkpt>
<trkpt lat="35.0895033" lon="32.5545277">
<ele>262.77</ele>
<time>2015-04-27T07:25:33Z</time>
</trkpt>
<trkpt lat="35.0895360" lon="32.5545853">
<ele>261.74</ele>
<time>2015-04-27T07:25:40Z</time>
</trkpt>
<trkpt lat="35.0895527" lon="32.5546369">
<ele>261.40</ele>
<time>2015-04-27T07:25:43Z</time>
</trkpt>
<trkpt lat="35.0895667" lon="32.5546917">
<ele>260.23</ele>
<time>2015-04-27T07:25:46Z</time>
</trkpt>
<trkpt lat="35.0895879" lon="32.5547523">
<ele>257.82</ele>
<time>2015-04-27T07:25:50Z</time>
</trkpt>
<trkpt lat="35.0896146" lon="32.5548060">
<ele>259.36</ele>
<time>2015-04-27T07:25:59Z</time>
</trkpt>
<trkpt lat="35.0896618" lon="32.5548339">
<ele>265.92</ele>
<time>2015-04-27T07:35:09Z</time>
</trkpt>
<trkpt lat="35.0897076" lon="32.5548491">
<ele>266.25</ele>
<time>2015-04-27T07:35:15Z</time>
</trkpt>
<trkpt lat="35.0896944" lon="32.5549153">
<ele>267.12</ele>
<time>2015-04-27T07:35:35Z</time>
</trkpt>
<trkpt lat="35.0896901" lon="32.5549737">
<ele>266.81</ele>
<time>2015-04-27T07:35:39Z</time>
</trkpt>
<trkpt lat="35.0896724" lon="32.5550324">
<ele>266.36</ele>
<time>2015-04-27T07:35:43Z</time>
</trkpt>
<trkpt lat="35.0896600" lon="32.5550946">
<ele>264.26</ele>
<time>2015-04-27T07:35:47Z</time>
</trkpt>
<trkpt lat="35.0896415" lon="32.5551503">
<ele>264.88</ele>
<time>2015-04-27T07:35:51Z</time>
</trkpt>
<trkpt lat="35.0896203" lon="32.5552081">
<ele>265.31</ele>
<time>2015-04-27T07:35:57Z</time>
</trkpt>
<trkpt lat="35.0896000" lon="32.5552625">
<ele>268.75</ele>
<time>2015-04-27T07:36:02Z</time>
</trkpt>
<trkpt lat="35.0895838" lon="32.5553140">
<ele>271.83</ele>
<time>2015-04-27T07:36:07Z</time>
</trkpt>
<trkpt lat="35.0895522" lon="32.5553622">
<ele>272.80</ele>
<time>2015-04-27T07:36:12Z</time>
</trkpt>
<trkpt lat="35.0895119" lon="32.5554103">
<ele>275.55</ele>
<time>2015-04-27T07:36:17Z</time>
</trkpt>
<trkpt lat="35.0894811" lon="32.5554602">
<ele>273.59</ele>
<time>2015-04-27T07:36:21Z</time>
</trkpt>
<trkpt lat="35.0894426" lon="32.5555025">
<ele>274.84</ele>
<time>2015-04-27T07:36:25Z</time>
</trkpt>
<trkpt lat="35.0894244" lon="32.5555532">
<ele>276.92</ele>
<time>2015-04-27T07:36:29Z</time>
</trkpt>
<trkpt lat="35.0893768" lon="32.5555930">
<ele>277.42</ele>
<time>2015-04-27T07:36:32Z</time>
</trkpt>
<trkpt lat="35.0893404" lon="32.5556289">
<ele>277.49</ele>
<time>2015-04-27T07:36:35Z</time>
</trkpt>
<trkpt lat="35.0893048" lon="32.5556664">
<ele>276.25</ele>
<time>2015-04-27T07:36:38Z</time>
</trkpt>
<trkpt lat="35.0892922" lon="32.5557236">
<ele>277.82</ele>
<time>2015-04-27T07:36:42Z</time>
</trkpt>
<trkpt lat="35.0892680" lon="32.5557853">
<ele>276.70</ele>
<time>2015-04-27T07:36:47Z</time>
</trkpt>
<trkpt lat="35.0892313" lon="32.5558367">
<ele>275.54</ele>
<time>2015-04-27T07:36:51Z</time>
</trkpt>
<trkpt lat="35.0892036" lon="32.5558990">
<ele>276.71</ele>
<time>2015-04-27T07:36:55Z</time>
</trkpt>
<trkpt lat="35.0891668" lon="32.5559512">
<ele>274.72</ele>
<time>2015-04-27T07:36:59Z</time>
</trkpt>
<trkpt lat="35.0891330" lon="32.5560026">
<ele>274.69</ele>
<time>2015-04-27T07:37:05Z</time>
</trkpt>
<trkpt lat="35.0890818" lon="32.5560198">
<ele>275.79</ele>
<time>2015-04-27T07:37:09Z</time>
</trkpt>
<trkpt lat="35.0890366" lon="32.5560291">
<ele>275.53</ele>
<time>2015-04-27T07:37:12Z</time>
</trkpt>
<trkpt lat="35.0889807" lon="32.5560171">
<ele>275.90</ele>
<time>2015-04-27T07:37:16Z</time>
</trkpt>
<trkpt lat="35.0889392" lon="32.5559885">
<ele>277.17</ele>
<time>2015-04-27T07:37:19Z</time>
</trkpt>
<trkpt lat="35.0888923" lon="32.5559628">
<ele>279.33</ele>
<time>2015-04-27T07:37:22Z</time>
</trkpt>
<trkpt lat="35.0888540" lon="32.5559171">
<ele>279.83</ele>
<time>2015-04-27T07:37:26Z</time>
</trkpt>
<trkpt lat="35.0888081" lon="32.5559083">
<ele>281.60</ele>
<time>2015-04-27T07:37:33Z</time>
</trkpt>
<trkpt lat="35.0887886" lon="32.5559615">
<ele>283.54</ele>
<time>2015-04-27T07:37:39Z</time>
</trkpt>
<trkpt lat="35.0887682" lon="32.5560238">
<ele>285.35</ele>
<time>2015-04-27T07:37:44Z</time>
</trkpt>
<trkpt lat="35.0887727" lon="32.5560810">
<ele>286.50</ele>
<time>2015-04-27T07:37:49Z</time>
</trkpt>
<trkpt lat="35.0887504" lon="32.5561333">
<ele>283.11</ele>
<time>2015-04-27T07:37:57Z</time>
</trkpt>
<trkpt lat="35.0887698" lon="32.5560688">
<ele>280.03</ele>
<time>2015-04-27T07:38:17Z</time>
</trkpt>
<trkpt lat="35.0887952" lon="32.5560158">
<ele>278.06</ele>
<time>2015-04-27T07:38:20Z</time>
</trkpt>
<trkpt lat="35.0888382" lon="32.5559503">
<ele>276.19</ele>
<time>2015-04-27T07:38:23Z</time>
</trkpt>
<trkpt lat="35.0888771" lon="32.5558904">
<ele>274.74</ele>
<time>2015-04-27T07:38:25Z</time>
</trkpt>
<trkpt lat="35.0889018" lon="32.5558231">
<ele>272.88</ele>
<time>2015-04-27T07:38:27Z</time>
</trkpt>
<trkpt lat="35.0889023" lon="32.5557569">
<ele>272.41</ele>
<time>2015-04-27T07:38:29Z</time>
</trkpt>
<trkpt lat="35.0888975" lon="32.5556919">
<ele>272.30</ele>
<time>2015-04-27T07:38:31Z</time>
</trkpt>
<trkpt lat="35.0888961" lon="32.5556317">
<ele>273.27</ele>
<time>2015-04-27T07:38:33Z</time>
</trkpt>
<trkpt lat="35.0888802" lon="32.5555559">
<ele>273.47</ele>
<time>2015-04-27T07:38:36Z</time>
</trkpt>
<trkpt lat="35.0888473" lon="32.5554967">
<ele>273.99</ele>
<time>2015-04-27T07:38:39Z</time>
</trkpt>
<trkpt lat="35.0887914" lon="32.5554423">
<ele>273.06</ele>
<time>2015-04-27T07:38:42Z</time>
</trkpt>
<trkpt lat="35.0887682" lon="32.5553884">
<ele>271.96</ele>
<time>2015-04-27T07:38:44Z</time>
</trkpt>
<trkpt lat="35.0887418" lon="32.5553353">
<ele>272.43</ele>
<time>2015-04-27T07:38:46Z</time>
</trkpt>
<trkpt lat="35.0887051" lon="32.5552935">
<ele>274.05</ele>
<time>2015-04-27T07:38:48Z</time>
</trkpt>
<trkpt lat="35.0886685" lon="32.5552548">
<ele>274.71</ele>
<time>2015-04-27T07:38:50Z</time>
</trkpt>
<trkpt lat="35.0886282" lon="32.5552234">
<ele>274.87</ele>
<time>2015-04-27T07:38:52Z</time>
</trkpt>
<trkpt lat="35.0885828" lon="32.5552074">
<ele>275.66</ele>
<time>2015-04-27T07:38:54Z</time>
</trkpt>
<trkpt lat="35.0885283" lon="32.5552071">
<ele>275.86</ele>
<time>2015-04-27T07:38:56Z</time>
</trkpt>
<trkpt lat="35.0884833" lon="32.5552174">
<ele>275.66</ele>
<time>2015-04-27T07:38:58Z</time>
</trkpt>
<trkpt lat="35.0884216" lon="32.5552218">
<ele>275.14</ele>
<time>2015-04-27T07:39:01Z</time>
</trkpt>
<trkpt lat="35.0883622" lon="32.5552197">
<ele>274.08</ele>
<time>2015-04-27T07:39:04Z</time>
</trkpt>
<trkpt lat="35.0883058" lon="32.5552186">
<ele>273.19</ele>
<time>2015-04-27T07:39:07Z</time>
</trkpt>
<trkpt lat="35.0882519" lon="32.5552081">
<ele>273.71</ele>
<time>2015-04-27T07:39:10Z</time>
</trkpt>
<trkpt lat="35.0882026" lon="32.5551894">
<ele>273.90</ele>
<time>2015-04-27T07:39:13Z</time>
</trkpt>
<trkpt lat="35.0881508" lon="32.5551886">
<ele>273.92</ele>
<time>2015-04-27T07:39:16Z</time>
</trkpt>
<trkpt lat="35.0881062" lon="32.5552161">
<ele>273.92</ele>
<time>2015-04-27T07:39:18Z</time>
</trkpt>
<trkpt lat="35.0880609" lon="32.5552569">
<ele>274.67</ele>
<time>2015-04-27T07:39:20Z</time>
</trkpt>
<trkpt lat="35.0880194" lon="32.5552926">
<ele>274.36</ele>
<time>2015-04-27T07:39:22Z</time>
</trkpt>
<trkpt lat="35.0879774" lon="32.5553262">
<ele>274.03</ele>
<time>2015-04-27T07:39:24Z</time>
</trkpt>
<trkpt lat="35.0879371" lon="32.5553606">
<ele>273.95</ele>
<time>2015-04-27T07:39:26Z</time>
</trkpt>
<trkpt lat="35.0878980" lon="32.5553922">
<ele>273.93</ele>
<time>2015-04-27T07:39:28Z</time>
</trkpt>
<trkpt lat="35.0878388" lon="32.5554284">
<ele>274.80</ele>
<time>2015-04-27T07:39:31Z</time>
</trkpt>
<trkpt lat="35.0877788" lon="32.5554700">
<ele>274.03</ele>
<time>2015-04-27T07:39:34Z</time>
</trkpt>
<trkpt lat="35.0877374" lon="32.5555008">
<ele>274.20</ele>
<time>2015-04-27T07:39:36Z</time>
</trkpt>
<trkpt lat="35.0877021" lon="32.5555362">
<ele>274.49</ele>
<time>2015-04-27T07:39:38Z</time>
</trkpt>
<trkpt lat="35.0876473" lon="32.5555834">
<ele>274.87</ele>
<time>2015-04-27T07:39:41Z</time>
</trkpt>
<trkpt lat="35.0876058" lon="32.5556135">
<ele>274.91</ele>
<time>2015-04-27T07:39:43Z</time>
</trkpt>
<trkpt lat="35.0875612" lon="32.5556403">
<ele>274.42</ele>
<time>2015-04-27T07:39:45Z</time>
</trkpt>
<trkpt lat="35.0875119" lon="32.5556544">
<ele>274.05</ele>
<time>2015-04-27T07:39:47Z</time>
</trkpt>
<trkpt lat="35.0874599" lon="32.5556599">
<ele>273.96</ele>
<time>2015-04-27T07:39:49Z</time>
</trkpt>
<trkpt lat="35.0874075" lon="32.5556620">
<ele>273.93</ele>
<time>2015-04-27T07:39:51Z</time>
</trkpt>
<trkpt lat="35.0873562" lon="32.5556729">
<ele>273.93</ele>
<time>2015-04-27T07:39:53Z</time>
</trkpt>
<trkpt lat="35.0873074" lon="32.5556918">
<ele>274.43</ele>
<time>2015-04-27T07:39:55Z</time>
</trkpt>
<trkpt lat="35.0872605" lon="32.5557142">
<ele>274.80</ele>
<time>2015-04-27T07:39:57Z</time>
</trkpt>
<trkpt lat="35.0872127" lon="32.5557370">
<ele>274.89</ele>
<time>2015-04-27T07:39:59Z</time>
</trkpt>
<trkpt lat="35.0871644" lon="32.5557452">
<ele>274.92</ele>
<time>2015-04-27T07:40:01Z</time>
</trkpt>
<trkpt lat="35.0871180" lon="32.5557301">
<ele>274.17</ele>
<time>2015-04-27T07:40:03Z</time>
</trkpt>
<trkpt lat="35.0870768" lon="32.5556955">
<ele>273.99</ele>
<time>2015-04-27T07:40:05Z</time>
</trkpt>
<trkpt lat="35.0870381" lon="32.5556547">
<ele>273.94</ele>
<time>2015-04-27T07:40:07Z</time>
</trkpt>
<trkpt lat="35.0869985" lon="32.5556151">
<ele>273.93</ele>
<time>2015-04-27T07:40:09Z</time>
</trkpt>
<trkpt lat="35.0869583" lon="32.5555888">
<ele>274.43</ele>
<time>2015-04-27T07:40:11Z</time>
</trkpt>
<trkpt lat="35.0869079" lon="32.5555741">
<ele>275.36</ele>
<time>2015-04-27T07:40:14Z</time>
</trkpt>
<trkpt lat="35.0868514" lon="32.5555835">
<ele>275.85</ele>
<time>2015-04-27T07:40:17Z</time>
</trkpt>
<trkpt lat="35.0867965" lon="32.5556325">
<ele>275.17</ele>
<time>2015-04-27T07:40:20Z</time>
</trkpt>
<trkpt lat="35.0867648" lon="32.5556788">
<ele>275.49</ele>
<time>2015-04-27T07:40:22Z</time>
</trkpt>
<trkpt lat="35.0867359" lon="32.5557301">
<ele>275.82</ele>
<time>2015-04-27T07:40:24Z</time>
</trkpt>
<trkpt lat="35.0867027" lon="32.5557816">
<ele>275.90</ele>
<time>2015-04-27T07:40:26Z</time>
</trkpt>
<trkpt lat="35.0866612" lon="32.5558269">
<ele>275.92</ele>
<time>2015-04-27T07:40:28Z</time>
</trkpt>
<trkpt lat="35.0866151" lon="32.5558616">
<ele>275.92</ele>
<time>2015-04-27T07:40:30Z</time>
</trkpt>
<trkpt lat="35.0865722" lon="32.5558961">
<ele>275.42</ele>
<time>2015-04-27T07:40:32Z</time>
</trkpt>
<trkpt lat="35.0865344" lon="32.5559401">
<ele>275.80</ele>
<time>2015-04-27T07:40:34Z</time>
</trkpt>
<trkpt lat="35.0864979" lon="32.5559804">
<ele>275.89</ele>
<time>2015-04-27T07:40:36Z</time>
</trkpt>
<trkpt lat="35.0864443" lon="32.5560298">
<ele>276.80</ele>
<time>2015-04-27T07:40:39Z</time>
</trkpt>
<trkpt lat="35.0864098" lon="32.5560707">
<ele>276.89</ele>
<time>2015-04-27T07:40:41Z</time>
</trkpt>
<trkpt lat="35.0863782" lon="32.5561117">
<ele>277.67</ele>
<time>2015-04-27T07:40:43Z</time>
</trkpt>
<trkpt lat="35.0863455" lon="32.5561528">
<ele>277.86</ele>
<time>2015-04-27T07:40:45Z</time>
</trkpt>
<trkpt lat="35.0863118" lon="32.5561943">
<ele>277.91</ele>
<time>2015-04-27T07:40:47Z</time>
</trkpt>
<trkpt lat="35.0862837" lon="32.5562396">
<ele>277.92</ele>
<time>2015-04-27T07:40:49Z</time>
</trkpt>
<trkpt lat="35.0862532" lon="32.5562824">
<ele>278.42</ele>
<time>2015-04-27T07:40:51Z</time>
</trkpt>
<trkpt lat="35.0861987" lon="32.5563283">
<ele>279.61</ele>
<time>2015-04-27T07:40:54Z</time>
</trkpt>
<trkpt lat="35.0861535" lon="32.5563412">
<ele>279.10</ele>
<time>2015-04-27T07:40:56Z</time>
</trkpt>
<trkpt lat="35.0860934" lon="32.5563240">
<ele>278.95</ele>
<time>2015-04-27T07:40:59Z</time>
</trkpt>
<trkpt lat="35.0860311" lon="32.5563226">
<ele>278.93</ele>
<time>2015-04-27T07:41:02Z</time>
</trkpt>
<trkpt lat="35.0859651" lon="32.5563475">
<ele>278.43</ele>
<time>2015-04-27T07:41:05Z</time>
</trkpt>
<trkpt lat="35.0859140" lon="32.5563645">
<ele>277.80</ele>
<time>2015-04-27T07:41:07Z</time>
</trkpt>
<trkpt lat="35.0858647" lon="32.5563790">
<ele>278.39</ele>
<time>2015-04-27T07:41:09Z</time>
</trkpt>
<trkpt lat="35.0858162" lon="32.5563837">
<ele>278.79</ele>
<time>2015-04-27T07:41:11Z</time>
</trkpt>
<trkpt lat="35.0857678" lon="32.5563784">
<ele>279.39</ele>
<time>2015-04-27T07:41:13Z</time>
</trkpt>
<trkpt lat="35.0857214" lon="32.5563689">
<ele>279.79</ele>
<time>2015-04-27T07:41:15Z</time>
</trkpt>
<trkpt lat="35.0856737" lon="32.5563618">
<ele>279.89</ele>
<time>2015-04-27T07:41:17Z</time>
</trkpt>
<trkpt lat="35.0856262" lon="32.5563640">
<ele>279.92</ele>
<time>2015-04-27T07:41:19Z</time>
</trkpt>
<trkpt lat="35.0855758" lon="32.5563703">
<ele>279.67</ele>
<time>2015-04-27T07:41:21Z</time>
</trkpt>
<trkpt lat="35.0855268" lon="32.5563821">
<ele>279.86</ele>
<time>2015-04-27T07:41:23Z</time>
</trkpt>
<trkpt lat="35.0854799" lon="32.5563924">
<ele>279.91</ele>
<time>2015-04-27T07:41:25Z</time>
</trkpt>
<trkpt lat="35.0854342" lon="32.5564054">
<ele>278.67</ele>
<time>2015-04-27T07:41:27Z</time>
</trkpt>
<trkpt lat="35.0853888" lon="32.5564188">
<ele>278.11</ele>
<time>2015-04-27T07:41:29Z</time>
</trkpt>
<trkpt lat="35.0853249" lon="32.5564421">
<ele>277.95</ele>
<time>2015-04-27T07:41:32Z</time>
</trkpt>
<trkpt lat="35.0852661" lon="32.5564722">
<ele>278.43</ele>
<time>2015-04-27T07:41:35Z</time>
</trkpt>
<trkpt lat="35.0852104" lon="32.5565170">
<ele>278.86</ele>
<time>2015-04-27T07:41:38Z</time>
</trkpt>
<trkpt lat="35.0851638" lon="32.5565710">
<ele>278.42</ele>
<time>2015-04-27T07:41:41Z</time>
</trkpt>
<trkpt lat="35.0851283" lon="32.5566289">
<ele>277.24</ele>
<time>2015-04-27T07:41:44Z</time>
</trkpt>
<trkpt lat="35.0851061" lon="32.5566965">
<ele>276.96</ele>
<time>2015-04-27T07:41:47Z</time>
</trkpt>
<trkpt lat="35.0850908" lon="32.5567677">
<ele>277.80</ele>
<time>2015-04-27T07:41:50Z</time>
</trkpt>
<trkpt lat="35.0850973" lon="32.5568486">
<ele>276.66</ele>
<time>2015-04-27T07:41:53Z</time>
</trkpt>
<trkpt lat="35.0851059" lon="32.5569219">
<ele>276.02</ele>
<time>2015-04-27T07:41:56Z</time>
</trkpt>
<trkpt lat="35.0850992" lon="32.5569960">
<ele>276.06</ele>
<time>2015-04-27T07:41:59Z</time>
</trkpt>
<trkpt lat="35.0850799" lon="32.5570527">
<ele>281.71</ele>
<time>2015-04-27T07:42:01Z</time>
</trkpt>
<trkpt lat="35.0850563" lon="32.5571256">
<ele>283.65</ele>
<time>2015-04-27T07:42:04Z</time>
</trkpt>
<trkpt lat="35.0850261" lon="32.5571873">
<ele>284.39</ele>
<time>2015-04-27T07:42:07Z</time>
</trkpt>
<trkpt lat="35.0849858" lon="32.5572472">
<ele>286.86</ele>
<time>2015-04-27T07:42:10Z</time>
</trkpt>
<trkpt lat="35.0849580" lon="32.5572963">
<ele>291.79</ele>
<time>2015-04-27T07:42:13Z</time>
</trkpt>
<trkpt lat="35.0849103" lon="32.5572718">
<ele>291.16</ele>
<time>2015-04-27T07:42:16Z</time>
</trkpt>
<trkpt lat="35.0848599" lon="32.5572235">
<ele>290.33</ele>
<time>2015-04-27T07:42:19Z</time>
</trkpt>
<trkpt lat="35.0848162" lon="32.5571695">
<ele>290.85</ele>
<time>2015-04-27T07:42:22Z</time>
</trkpt>
<trkpt lat="35.0847714" lon="32.5571282">
<ele>291.17</ele>
<time>2015-04-27T07:42:25Z</time>
</trkpt>
<trkpt lat="35.0847147" lon="32.5571131">
<ele>292.58</ele>
<time>2015-04-27T07:42:28Z</time>
</trkpt>
<trkpt lat="35.0846594" lon="32.5571115">
<ele>292.38</ele>
<time>2015-04-27T07:42:31Z</time>
</trkpt>
<trkpt lat="35.0846096" lon="32.5571272">
<ele>293.73</ele>
<time>2015-04-27T07:42:34Z</time>
</trkpt>
<trkpt lat="35.0845626" lon="32.5571386">
<ele>294.03</ele>
<time>2015-04-27T07:42:37Z</time>
</trkpt>
<trkpt lat="35.0845131" lon="32.5571672">
<ele>295.62</ele>
<time>2015-04-27T07:42:41Z</time>
</trkpt>
<trkpt lat="35.0844609" lon="32.5572018">
<ele>295.59</ele>
<time>2015-04-27T07:42:45Z</time>
</trkpt>
<trkpt lat="35.0844162" lon="32.5572410">
<ele>294.76</ele>
<time>2015-04-27T07:42:48Z</time>
</trkpt>
<trkpt lat="35.0843620" lon="32.5572719">
<ele>292.90</ele>
<time>2015-04-27T07:42:51Z</time>
</trkpt>
<trkpt lat="35.0843175" lon="32.5573116">
<ele>291.67</ele>
<time>2015-04-27T07:42:54Z</time>
</trkpt>
<trkpt lat="35.0842674" lon="32.5573487">
<ele>291.14</ele>
<time>2015-04-27T07:42:57Z</time>
</trkpt>
<trkpt lat="35.0842236" lon="32.5573736">
<ele>293.08</ele>
<time>2015-04-27T07:43:00Z</time>
</trkpt>
<trkpt lat="35.0841766" lon="32.5574015">
<ele>295.32</ele>
<time>2015-04-27T07:43:03Z</time>
</trkpt>
<trkpt lat="35.0841279" lon="32.5574234">
<ele>296.35</ele>
<time>2015-04-27T07:43:06Z</time>
</trkpt>
<trkpt lat="35.0840742" lon="32.5574330">
<ele>298.89</ele>
<time>2015-04-27T07:43:10Z</time>
</trkpt>
<trkpt lat="35.0840248" lon="32.5574438">
<ele>302.55</ele>
<time>2015-04-27T07:43:14Z</time>
</trkpt>
<trkpt lat="35.0839766" lon="32.5574558">
<ele>299.88</ele>
<time>2015-04-27T07:43:17Z</time>
</trkpt>
<trkpt lat="35.0839270" lon="32.5574830">
<ele>298.29</ele>
<time>2015-04-27T07:43:20Z</time>
</trkpt>
<trkpt lat="35.0838652" lon="32.5575145">
<ele>296.35</ele>
<time>2015-04-27T07:43:23Z</time>
</trkpt>
<trkpt lat="35.0838140" lon="32.5575347">
<ele>295.28</ele>
<time>2015-04-27T07:43:25Z</time>
</trkpt>
<trkpt lat="35.0837662" lon="32.5575520">
<ele>294.26</ele>
<time>2015-04-27T07:43:27Z</time>
</trkpt>
<trkpt lat="35.0837027" lon="32.5575628">
<ele>293.97</ele>
<time>2015-04-27T07:43:30Z</time>
</trkpt>
<trkpt lat="35.0836474" lon="32.5575630">
<ele>294.43</ele>
<time>2015-04-27T07:43:33Z</time>
</trkpt>
<trkpt lat="35.0835883" lon="32.5575686">
<ele>293.24</ele>
<time>2015-04-27T07:43:36Z</time>
</trkpt>
<trkpt lat="35.0835338" lon="32.5575905">
<ele>291.46</ele>
<time>2015-04-27T07:43:39Z</time>
</trkpt>
<trkpt lat="35.0834846" lon="32.5576130">
<ele>291.37</ele>
<time>2015-04-27T07:43:42Z</time>
</trkpt>
<trkpt lat="35.0834383" lon="32.5576548">
<ele>290.86</ele>
<time>2015-04-27T07:43:45Z</time>
</trkpt>
<trkpt lat="35.0834013" lon="32.5576960">
<ele>290.04</ele>
<time>2015-04-27T07:43:48Z</time>
</trkpt>
<trkpt lat="35.0833609" lon="32.5577417">
<ele>290.31</ele>
<time>2015-04-27T07:43:51Z</time>
</trkpt>
<trkpt lat="35.0833224" lon="32.5577953">
<ele>289.47</ele>
<time>2015-04-27T07:43:54Z</time>
</trkpt>
<trkpt lat="35.0833121" lon="32.5578574">
<ele>287.49</ele>
<time>2015-04-27T07:43:57Z</time>
</trkpt>
<trkpt lat="35.0832689" lon="32.5579059">
<ele>286.87</ele>
<time>2015-04-27T07:44:00Z</time>
</trkpt>
<trkpt lat="35.0832086" lon="32.5579437">
<ele>283.66</ele>
<time>2015-04-27T07:44:02Z</time>
</trkpt>
<trkpt lat="35.0831705" lon="32.5579793">
<ele>284.61</ele>
<time>2015-04-27T07:44:04Z</time>
</trkpt>
<trkpt lat="35.0831277" lon="32.5580157">
<ele>284.35</ele>
<time>2015-04-27T07:44:06Z</time>
</trkpt>
<trkpt lat="35.0830905" lon="32.5580571">
<ele>284.53</ele>
<time>2015-04-27T07:44:08Z</time>
</trkpt>
<trkpt lat="35.0830557" lon="32.5580965">
<ele>284.08</ele>
<time>2015-04-27T07:44:10Z</time>
</trkpt>
<trkpt lat="35.0830188" lon="32.5581373">
<ele>285.96</ele>
<time>2015-04-27T07:44:12Z</time>
</trkpt>
<trkpt lat="35.0829857" lon="32.5581777">
<ele>287.93</ele>
<time>2015-04-27T07:44:14Z</time>
</trkpt>
<trkpt lat="35.0829514" lon="32.5582145">
<ele>288.93</ele>
<time>2015-04-27T07:44:16Z</time>
</trkpt>
<trkpt lat="35.0829104" lon="32.5582508">
<ele>288.43</ele>
<time>2015-04-27T07:44:18Z</time>
</trkpt>
<trkpt lat="35.0828593" lon="32.5582843">
<ele>288.55</ele>
<time>2015-04-27T07:44:20Z</time>
</trkpt>
<trkpt lat="35.0828089" lon="32.5583078">
<ele>288.33</ele>
<time>2015-04-27T07:44:22Z</time>
</trkpt>
<trkpt lat="35.0827602" lon="32.5583210">
<ele>288.78</ele>
<time>2015-04-27T07:44:24Z</time>
</trkpt>
<trkpt lat="35.0827139" lon="32.5583352">
<ele>290.89</ele>
<time>2015-04-27T07:44:26Z</time>
</trkpt>
<trkpt lat="35.0826672" lon="32.5583536">
<ele>291.80</ele>
<time>2015-04-27T07:44:29Z</time>
</trkpt>
<trkpt lat="35.0826110" lon="32.5583835">
<ele>293.77</ele>
<time>2015-04-27T07:44:35Z</time>
</trkpt>
<trkpt lat="35.0825613" lon="32.5584208">
<ele>295.66</ele>
<time>2015-04-27T07:44:38Z</time>
</trkpt>
<trkpt lat="35.0825160" lon="32.5584766">
<ele>298.77</ele>
<time>2015-04-27T07:44:41Z</time>
</trkpt>
<trkpt lat="35.0824862" lon="32.5585194">
<ele>299.89</ele>
<time>2015-04-27T07:44:43Z</time>
</trkpt>
<trkpt lat="35.0824590" lon="32.5585670">
<ele>300.67</ele>
<time>2015-04-27T07:44:45Z</time>
</trkpt>
<trkpt lat="35.0824361" lon="32.5586146">
<ele>298.36</ele>
<time>2015-04-27T07:44:47Z</time>
</trkpt>
<trkpt lat="35.0824029" lon="32.5586869">
<ele>297.85</ele>
<time>2015-04-27T07:44:50Z</time>
</trkpt>
<trkpt lat="35.0823708" lon="32.5587501">
<ele>296.04</ele>
<time>2015-04-27T07:44:53Z</time>
</trkpt>
<trkpt lat="35.0823522" lon="32.5588109">
<ele>296.44</ele>
<time>2015-04-27T07:44:56Z</time>
</trkpt>
<trkpt lat="35.0823215" lon="32.5588663">
<ele>296.24</ele>
<time>2015-04-27T07:44:59Z</time>
</trkpt>
<trkpt lat="35.0822902" lon="32.5589220">
<ele>298.09</ele>
<time>2015-04-27T07:45:02Z</time>
</trkpt>
<trkpt lat="35.0822474" lon="32.5589803">
<ele>300.20</ele>
<time>2015-04-27T07:45:05Z</time>
</trkpt>
<trkpt lat="35.0822286" lon="32.5590441">
<ele>301.58</ele>
<time>2015-04-27T07:45:08Z</time>
</trkpt>
<trkpt lat="35.0822516" lon="32.5591109">
<ele>303.51</ele>
<time>2015-04-27T07:45:11Z</time>
</trkpt>
<trkpt lat="35.0822595" lon="32.5591652">
<ele>305.57</ele>
<time>2015-04-27T07:45:13Z</time>
</trkpt>
<trkpt lat="35.0822637" lon="32.5592387">
<ele>306.88</ele>
<time>2015-04-27T07:45:16Z</time>
</trkpt>
<trkpt lat="35.0822259" lon="32.5593121">
<ele>304.54</ele>
<time>2015-04-27T07:45:19Z</time>
</trkpt>
<trkpt lat="35.0822068" lon="32.5593845">
<ele>300.88</ele>
<time>2015-04-27T07:45:22Z</time>
</trkpt>
<trkpt lat="35.0821883" lon="32.5594369">
<ele>300.91</ele>
<time>2015-04-27T07:45:24Z</time>
</trkpt>
<trkpt lat="35.0821850" lon="32.5595166">
<ele>299.17</ele>
<time>2015-04-27T07:45:27Z</time>
</trkpt>
<trkpt lat="35.0821775" lon="32.5595890">
<ele>297.21</ele>
<time>2015-04-27T07:45:30Z</time>
</trkpt>
<trkpt lat="35.0821725" lon="32.5596656">
<ele>299.71</ele>
<time>2015-04-27T07:45:33Z</time>
</trkpt>
<trkpt lat="35.0821370" lon="32.5597318">
<ele>303.02</ele>
<time>2015-04-27T07:45:36Z</time>
</trkpt>
<trkpt lat="35.0821063" lon="32.5597786">
<ele>303.45</ele>
<time>2015-04-27T07:45:38Z</time>
</trkpt>
<trkpt lat="35.0820856" lon="32.5598293">
<ele>302.31</ele>
<time>2015-04-27T07:45:40Z</time>
</trkpt>
<trkpt lat="35.0820443" lon="32.5598989">
<ele>301.60</ele>
<time>2015-04-27T07:45:43Z</time>
</trkpt>
<trkpt lat="35.0819898" lon="32.5599650">
<ele>301.13</ele>
<time>2015-04-27T07:45:46Z</time>
</trkpt>
<trkpt lat="35.0819553" lon="32.5600138">
<ele>302.98</ele>
<time>2015-04-27T07:45:48Z</time>
</trkpt>
<trkpt lat="35.0819389" lon="32.5600845">
<ele>301.56</ele>
<time>2015-04-27T07:45:51Z</time>
</trkpt>
<trkpt lat="35.0819389" lon="32.5601540">
<ele>301.88</ele>
<time>2015-04-27T07:45:54Z</time>
</trkpt>
<trkpt lat="35.0819498" lon="32.5602234">
<ele>304.04</ele>
<time>2015-04-27T07:45:57Z</time>
</trkpt>
<trkpt lat="35.0819838" lon="32.5602836">
<ele>305.56</ele>
<time>2015-04-27T07:46:00Z</time>
</trkpt>
<trkpt lat="35.0819946" lon="32.5603434">
<ele>306.38</ele>
<time>2015-04-27T07:46:03Z</time>
</trkpt>
<trkpt lat="35.0820047" lon="32.5603972">
<ele>308.98</ele>
<time>2015-04-27T07:46:06Z</time>
</trkpt>
<trkpt lat="35.0820240" lon="32.5604654">
<ele>310.68</ele>
<time>2015-04-27T07:46:10Z</time>
</trkpt>
<trkpt lat="35.0820520" lon="32.5605099">
<ele>310.89</ele>
<time>2015-04-27T07:46:13Z</time>
</trkpt>
<trkpt lat="35.0820702" lon="32.5605647">
<ele>313.17</ele>
<time>2015-04-27T07:46:16Z</time>
</trkpt>
<trkpt lat="35.0820907" lon="32.5606174">
<ele>315.33</ele>
<time>2015-04-27T07:46:19Z</time>
</trkpt>
<trkpt lat="35.0821128" lon="32.5606678">
<ele>316.35</ele>
<time>2015-04-27T07:46:22Z</time>
</trkpt>
<trkpt lat="35.0821317" lon="32.5607182">
<ele>317.85</ele>
<time>2015-04-27T07:46:25Z</time>
</trkpt>
<trkpt lat="35.0821382" lon="32.5607794">
<ele>321.54</ele>
<time>2015-04-27T07:46:28Z</time>
</trkpt>
<trkpt lat="35.0821439" lon="32.5608467">
<ele>324.25</ele>
<time>2015-04-27T07:46:31Z</time>
</trkpt>
<trkpt lat="35.0821488" lon="32.5609076">
<ele>326.01</ele>
<time>2015-04-27T07:46:33Z</time>
</trkpt>
<trkpt lat="35.0821839" lon="32.5609774">
<ele>325.44</ele>
<time>2015-04-27T07:46:36Z</time>
</trkpt>
<trkpt lat="35.0822266" lon="32.5610162">
<ele>325.05</ele>
<time>2015-04-27T07:46:38Z</time>
</trkpt>
<trkpt lat="35.0822620" lon="32.5610595">
<ele>324.96</ele>
<time>2015-04-27T07:46:40Z</time>
</trkpt>
<trkpt lat="35.0823153" lon="32.5610938">
<ele>324.55</ele>
<time>2015-04-27T07:46:43Z</time>
</trkpt>
<trkpt lat="35.0823611" lon="32.5611462">
<ele>325.00</ele>
<time>2015-04-27T07:46:46Z</time>
</trkpt>
<trkpt lat="35.0824075" lon="32.5612027">
<ele>325.18</ele>
<time>2015-04-27T07:46:49Z</time>
</trkpt>
<trkpt lat="35.0824179" lon="32.5612682">
<ele>327.83</ele>
<time>2015-04-27T07:46:52Z</time>
</trkpt>
<trkpt lat="35.0824356" lon="32.5613251">
<ele>328.66</ele>
<time>2015-04-27T07:46:55Z</time>
</trkpt>
<trkpt lat="35.0824588" lon="32.5613881">
<ele>330.27</ele>
<time>2015-04-27T07:46:58Z</time>
</trkpt>
<trkpt lat="35.0824267" lon="32.5614511">
<ele>330.09</ele>
<time>2015-04-27T07:47:01Z</time>
</trkpt>
<trkpt lat="35.0823802" lon="32.5614644">
<ele>329.97</ele>
<time>2015-04-27T07:47:03Z</time>
</trkpt>
<trkpt lat="35.0823333" lon="32.5614608">
<ele>330.44</ele>
<time>2015-04-27T07:47:05Z</time>
</trkpt>
<trkpt lat="35.0822890" lon="32.5614456">
<ele>330.30</ele>
<time>2015-04-27T07:47:07Z</time>
</trkpt>
<trkpt lat="35.0822248" lon="32.5614234">
<ele>330.72</ele>
<time>2015-04-27T07:47:10Z</time>
</trkpt>
<trkpt lat="35.0821778" lon="32.5614025">
<ele>330.12</ele>
<time>2015-04-27T07:47:12Z</time>
</trkpt>
<trkpt lat="35.0821190" lon="32.5613766">
<ele>331.70</ele>
<time>2015-04-27T07:47:15Z</time>
</trkpt>
<trkpt lat="35.0820719" lon="32.5613675">
<ele>332.40</ele>
<time>2015-04-27T07:47:18Z</time>
</trkpt>
<trkpt lat="35.0820229" lon="32.5613637">
<ele>334.06</ele>
<time>2015-04-27T07:47:23Z</time>
</trkpt>
<trkpt lat="35.0819724" lon="32.5613706">
<ele>333.44</ele>
<time>2015-04-27T07:47:26Z</time>
</trkpt>
<trkpt lat="35.0819261" lon="32.5613879">
<ele>328.11</ele>
<time>2015-04-27T07:47:29Z</time>
</trkpt>
<trkpt lat="35.0818778" lon="32.5614209">
<ele>325.32</ele>
<time>2015-04-27T07:47:32Z</time>
</trkpt>
<trkpt lat="35.0818354" lon="32.5614613">
<ele>323.32</ele>
<time>2015-04-27T07:47:38Z</time>
</trkpt>
<trkpt lat="35.0817930" lon="32.5614952">
<ele>319.60</ele>
<time>2015-04-27T07:47:41Z</time>
</trkpt>
<trkpt lat="35.0817478" lon="32.5615347">
<ele>318.88</ele>
<time>2015-04-27T07:47:44Z</time>
</trkpt>
<trkpt lat="35.0817108" lon="32.5615722">
<ele>319.04</ele>
<time>2015-04-27T07:47:47Z</time>
</trkpt>
<trkpt lat="35.0816686" lon="32.5615945">
<ele>318.44</ele>
<time>2015-04-27T07:47:50Z</time>
</trkpt>
<trkpt lat="35.0816159" lon="32.5616189">
<ele>318.86</ele>
<time>2015-04-27T07:47:53Z</time>
</trkpt>
<trkpt lat="35.0815596" lon="32.5616460">
<ele>318.17</ele>
<time>2015-04-27T07:47:56Z</time>
</trkpt>
<trkpt lat="35.0815081" lon="32.5616657">
<ele>318.58</ele>
<time>2015-04-27T07:47:59Z</time>
</trkpt>
<trkpt lat="35.0814601" lon="32.5616877">
<ele>318.38</ele>
<time>2015-04-27T07:48:02Z</time>
</trkpt>
<trkpt lat="35.0814153" lon="32.5617084">
<ele>317.98</ele>
<time>2015-04-27T07:48:05Z</time>
</trkpt>
<trkpt lat="35.0813610" lon="32.5617297">
<ele>317.93</ele>
<time>2015-04-27T07:48:08Z</time>
</trkpt>
<trkpt lat="35.0813124" lon="32.5617448">
<ele>317.18</ele>
<time>2015-04-27T07:48:10Z</time>
</trkpt>
<trkpt lat="35.0812498" lon="32.5617634">
<ele>316.96</ele>
<time>2015-04-27T07:48:13Z</time>
</trkpt>
<trkpt lat="35.0811905" lon="32.5617892">
<ele>316.93</ele>
<time>2015-04-27T07:48:16Z</time>
</trkpt>
<trkpt lat="35.0811268" lon="32.5618097">
<ele>317.68</ele>
<time>2015-04-27T07:48:19Z</time>
</trkpt>
<trkpt lat="35.0810801" lon="32.5618343">
<ele>317.64</ele>
<time>2015-04-27T07:48:22Z</time>
</trkpt>
<trkpt lat="35.0810523" lon="32.5618961">
<ele>317.23</ele>
<time>2015-04-27T07:48:27Z</time>
</trkpt>
<trkpt lat="35.0810367" lon="32.5619489">
<ele>317.71</ele>
<time>2015-04-27T07:48:30Z</time>
</trkpt>
<trkpt lat="35.0810195" lon="32.5620119">
<ele>317.15</ele>
<time>2015-04-27T07:48:33Z</time>
</trkpt>
<trkpt lat="35.0810318" lon="32.5620866">
<ele>317.33</ele>
<time>2015-04-27T07:48:36Z</time>
</trkpt>
<trkpt lat="35.0810598" lon="32.5621486">
<ele>318.73</ele>
<time>2015-04-27T07:48:39Z</time>
</trkpt>
<trkpt lat="35.0810976" lon="32.5622005">
<ele>319.38</ele>
<time>2015-04-27T07:48:41Z</time>
</trkpt>
<trkpt lat="35.0811332" lon="32.5622438">
<ele>319.79</ele>
<time>2015-04-27T07:48:43Z</time>
</trkpt>
<trkpt lat="35.0811708" lon="32.5622872">
<ele>321.14</ele>
<time>2015-04-27T07:48:45Z</time>
</trkpt>
<trkpt lat="35.0812000" lon="32.5623345">
<ele>321.73</ele>
<time>2015-04-27T07:48:47Z</time>
</trkpt>
<trkpt lat="35.0812179" lon="32.5623873">
<ele>322.13</ele>
<time>2015-04-27T07:48:49Z</time>
</trkpt>
<trkpt lat="35.0812471" lon="32.5624324">
<ele>322.48</ele>
<time>2015-04-27T07:48:51Z</time>
</trkpt>
<trkpt lat="35.0812880" lon="32.5624678">
<ele>322.81</ele>
<time>2015-04-27T07:48:53Z</time>
</trkpt>
<trkpt lat="35.0813248" lon="32.5625042">
<ele>324.65</ele>
<time>2015-04-27T07:48:55Z</time>
</trkpt>
<trkpt lat="35.0813737" lon="32.5625561">
<ele>324.02</ele>
<time>2015-04-27T07:48:58Z</time>
</trkpt>
<trkpt lat="35.0814013" lon="32.5626193">
<ele>324.31</ele>
<time>2015-04-27T07:49:01Z</time>
</trkpt>
<trkpt lat="35.0813802" lon="32.5626908">
<ele>323.97</ele>
<time>2015-04-27T07:49:04Z</time>
</trkpt>
<trkpt lat="35.0813497" lon="32.5627411">
<ele>325.56</ele>
<time>2015-04-27T07:49:07Z</time>
</trkpt>
<trkpt lat="35.0813297" lon="32.5628033">
<ele>326.75</ele>
<time>2015-04-27T07:49:10Z</time>
</trkpt>
<trkpt lat="35.0813129" lon="32.5628682">
<ele>328.65</ele>
<time>2015-04-27T07:49:13Z</time>
</trkpt>
<trkpt lat="35.0812930" lon="32.5629384">
<ele>329.02</ele>
<time>2015-04-27T07:49:16Z</time>
</trkpt>
<trkpt lat="35.0812722" lon="32.5630150">
<ele>331.06</ele>
<time>2015-04-27T07:49:19Z</time>
</trkpt>
<trkpt lat="35.0812418" lon="32.5630798">
<ele>332.57</ele>
<time>2015-04-27T07:49:22Z</time>
</trkpt>
<trkpt lat="35.0812016" lon="32.5631419">
<ele>332.76</ele>
<time>2015-04-27T07:49:25Z</time>
</trkpt>
<trkpt lat="35.0811662" lon="32.5632058">
<ele>333.40</ele>
<time>2015-04-27T07:49:28Z</time>
</trkpt>
<trkpt lat="35.0811326" lon="32.5632564">
<ele>332.98</ele>
<time>2015-04-27T07:49:31Z</time>
</trkpt>
<trkpt lat="35.0810951" lon="32.5632906">
<ele>331.93</ele>
<time>2015-04-27T07:49:34Z</time>
</trkpt>
<trkpt lat="35.0810614" lon="32.5633358">
<ele>331.80</ele>
<time>2015-04-27T07:49:37Z</time>
</trkpt>
<trkpt lat="35.0810422" lon="32.5633979">
<ele>331.03</ele>
<time>2015-04-27T07:49:40Z</time>
</trkpt>
<trkpt lat="35.0810332" lon="32.5634646">
<ele>330.94</ele>
<time>2015-04-27T07:49:43Z</time>
</trkpt>
<trkpt lat="35.0810241" lon="32.5635321">
<ele>331.68</ele>
<time>2015-04-27T07:49:47Z</time>
</trkpt>
<trkpt lat="35.0809952" lon="32.5635838">
<ele>332.77</ele>
<time>2015-04-27T07:49:50Z</time>
</trkpt>
<trkpt lat="35.0809732" lon="32.5636350">
<ele>331.78</ele>
<time>2015-04-27T07:49:53Z</time>
</trkpt>
<trkpt lat="35.0809343" lon="32.5636716">
<ele>328.03</ele>
<time>2015-04-27T07:49:56Z</time>
</trkpt>
<trkpt lat="35.0808987" lon="32.5637300">
<ele>325.06</ele>
<time>2015-04-27T07:49:59Z</time>
</trkpt>
<trkpt lat="35.0808662" lon="32.5637895">
<ele>325.32</ele>
<time>2015-04-27T07:50:02Z</time>
</trkpt>
<trkpt lat="35.0808513" lon="32.5638554">
<ele>324.10</ele>
<time>2015-04-27T07:50:05Z</time>
</trkpt>
<trkpt lat="35.0808645" lon="32.5639194">
<ele>322.95</ele>
<time>2015-04-27T07:50:08Z</time>
</trkpt>
<trkpt lat="35.0808885" lon="32.5639826">
<ele>323.30</ele>
<time>2015-04-27T07:50:11Z</time>
</trkpt>
<trkpt lat="35.0808908" lon="32.5640460">
<ele>321.22</ele>
<time>2015-04-27T07:50:14Z</time>
</trkpt>
<trkpt lat="35.0808594" lon="32.5641178">
<ele>322.34</ele>
<time>2015-04-27T07:50:17Z</time>
</trkpt>
<trkpt lat="35.0808233" lon="32.5641869">
<ele>322.60</ele>
<time>2015-04-27T07:50:20Z</time>
</trkpt>
<trkpt lat="35.0807960" lon="32.5642586">
<ele>323.38</ele>
<time>2015-04-27T07:50:23Z</time>
</trkpt>
<trkpt lat="35.0807831" lon="32.5643261">
<ele>324.11</ele>
<time>2015-04-27T07:50:26Z</time>
</trkpt>
<trkpt lat="35.0807840" lon="32.5643906">
<ele>321.82</ele>
<time>2015-04-27T07:50:29Z</time>
</trkpt>
<trkpt lat="35.0807923" lon="32.5644595">
<ele>320.66</ele>
<time>2015-04-27T07:50:32Z</time>
</trkpt>
<trkpt lat="35.0807768" lon="32.5645179">
<ele>320.64</ele>
<time>2015-04-27T07:50:35Z</time>
</trkpt>
<trkpt lat="35.0807265" lon="32.5645535">
<ele>321.47</ele>
<time>2015-04-27T07:50:39Z</time>
</trkpt>
<trkpt lat="35.0806878" lon="32.5645112">
<ele>324.04</ele>
<time>2015-04-27T07:50:47Z</time>
</trkpt>
<trkpt lat="35.0806726" lon="32.5644582">
<ele>328.99</ele>
<time>2015-04-27T07:50:51Z</time>
</trkpt>
<trkpt lat="35.0806511" lon="32.5643958">
<ele>328.93</ele>
<time>2015-04-27T07:50:55Z</time>
</trkpt>
<trkpt lat="35.0806476" lon="32.5643372">
<ele>329.43</ele>
<time>2015-04-27T07:50:59Z</time>
</trkpt>
<trkpt lat="35.0806275" lon="32.5642859">
<ele>330.83</ele>
<time>2015-04-27T07:51:03Z</time>
</trkpt>
<trkpt lat="35.0806181" lon="32.5642313">
<ele>330.11</ele>
<time>2015-04-27T07:51:07Z</time>
</trkpt>
<trkpt lat="35.0806114" lon="32.5641752">
<ele>329.44</ele>
<time>2015-04-27T07:51:11Z</time>
</trkpt>
<trkpt lat="35.0806112" lon="32.5641134">
<ele>328.08</ele>
<time>2015-04-27T07:51:15Z</time>
</trkpt>
<trkpt lat="35.0806313" lon="32.5640627">
<ele>327.93</ele>
<time>2015-04-27T07:51:19Z</time>
</trkpt>
<trkpt lat="35.0806208" lon="32.5640047">
<ele>328.33</ele>
<time>2015-04-27T07:51:24Z</time>
</trkpt>
<trkpt lat="35.0806290" lon="32.5639492">
<ele>330.76</ele>
<time>2015-04-27T07:51:28Z</time>
</trkpt>
<trkpt lat="35.0806549" lon="32.5638986">
<ele>331.85</ele>
<time>2015-04-27T07:51:32Z</time>
</trkpt>
<trkpt lat="35.0806667" lon="32.5638360">
<ele>331.92</ele>
<time>2015-04-27T07:51:36Z</time>
</trkpt>
<trkpt lat="35.0806754" lon="32.5637774">
<ele>332.42</ele>
<time>2015-04-27T07:51:40Z</time>
</trkpt>
<trkpt lat="35.0806800" lon="32.5637222">
<ele>333.02</ele>
<time>2015-04-27T07:51:44Z</time>
</trkpt>
<trkpt lat="35.0806854" lon="32.5636603">
<ele>335.06</ele>
<time>2015-04-27T07:51:48Z</time>
</trkpt>
<trkpt lat="35.0806859" lon="32.5635934">
<ele>336.43</ele>
<time>2015-04-27T07:51:52Z</time>
</trkpt>
<trkpt lat="35.0806658" lon="32.5635277">
<ele>335.96</ele>
<time>2015-04-27T07:51:56Z</time>
</trkpt>
<trkpt lat="35.0806584" lon="32.5634658">
<ele>337.61</ele>
<time>2015-04-27T07:52:00Z</time>
</trkpt>
<trkpt lat="35.0806681" lon="32.5634109">
<ele>337.91</ele>
<time>2015-04-27T07:52:04Z</time>
</trkpt>
<trkpt lat="35.0806811" lon="32.5633471">
<ele>339.11</ele>
<time>2015-04-27T07:52:08Z</time>
</trkpt>
<trkpt lat="35.0806773" lon="32.5632785">
<ele>339.75</ele>
<time>2015-04-27T07:52:12Z</time>
</trkpt>
<trkpt lat="35.0806676" lon="32.5632098">
<ele>338.16</ele>
<time>2015-04-27T07:52:16Z</time>
</trkpt>
<trkpt lat="35.0806637" lon="32.5631522">
<ele>336.56</ele>
<time>2015-04-27T07:52:20Z</time>
</trkpt>
<trkpt lat="35.0806769" lon="32.5630985">
<ele>338.84</ele>
<time>2015-04-27T07:52:24Z</time>
</trkpt>
<trkpt lat="35.0806792" lon="32.5630434">
<ele>338.48</ele>
<time>2015-04-27T07:52:28Z</time>
</trkpt>
<trkpt lat="35.0806911" lon="32.5629782">
<ele>340.94</ele>
<time>2015-04-27T07:52:33Z</time>
</trkpt>
<trkpt lat="35.0807127" lon="32.5629232">
<ele>341.18</ele>
<time>2015-04-27T07:52:37Z</time>
</trkpt>
<trkpt lat="35.0806969" lon="32.5628573">
<ele>340.94</ele>
<time>2015-04-27T07:52:41Z</time>
</trkpt>
<trkpt lat="35.0806857" lon="32.5627980">
<ele>341.80</ele>
<time>2015-04-27T07:52:45Z</time>
</trkpt>
<trkpt lat="35.0806488" lon="32.5627478">
<ele>341.17</ele>
<time>2015-04-27T07:52:50Z</time>
</trkpt>
<trkpt lat="35.0806189" lon="32.5627029">
<ele>341.37</ele>
<time>2015-04-27T07:52:55Z</time>
</trkpt>
<trkpt lat="35.0805833" lon="32.5626554">
<ele>344.32</ele>
<time>2015-04-27T07:53:01Z</time>
</trkpt>
<trkpt lat="35.0805432" lon="32.5626293">
<ele>344.76</ele>
<time>2015-04-27T07:53:05Z</time>
</trkpt>
<trkpt lat="35.0804939" lon="32.5625994">
<ele>344.51</ele>
<time>2015-04-27T07:53:10Z</time>
</trkpt>
<trkpt lat="35.0804585" lon="32.5625653">
<ele>344.90</ele>
<time>2015-04-27T07:53:14Z</time>
</trkpt>
<trkpt lat="35.0804373" lon="32.5625147">
<ele>349.05</ele>
<time>2015-04-27T07:53:18Z</time>
</trkpt>
<trkpt lat="35.0804161" lon="32.5624585">
<ele>352.49</ele>
<time>2015-04-27T07:53:23Z</time>
</trkpt>
<trkpt lat="35.0803922" lon="32.5624029">
<ele>353.34</ele>
<time>2015-04-27T07:53:27Z</time>
</trkpt>
<trkpt lat="35.0803663" lon="32.5623414">
<ele>352.45</ele>
<time>2015-04-27T07:53:31Z</time>
</trkpt>
<trkpt lat="35.0803422" lon="32.5622796">
<ele>352.47</ele>
<time>2015-04-27T07:53:36Z</time>
</trkpt>
<trkpt lat="35.0803218" lon="32.5622172">
<ele>353.13</ele>
<time>2015-04-27T07:53:41Z</time>
</trkpt>
<trkpt lat="35.0802789" lon="32.5621861">
<ele>352.94</ele>
<time>2015-04-27T07:53:45Z</time>
</trkpt>
<trkpt lat="35.0802258" lon="32.5621655">
<ele>354.36</ele>
<time>2015-04-27T07:53:50Z</time>
</trkpt>
<trkpt lat="35.0801760" lon="32.5621614">
<ele>355.39</ele>
<time>2015-04-27T07:53:54Z</time>
</trkpt>
<trkpt lat="35.0801184" lon="32.5621586">
<ele>355.27</ele>
<time>2015-04-27T07:53:58Z</time>
</trkpt>
<trkpt lat="35.0800693" lon="32.5621566">
<ele>355.88</ele>
<time>2015-04-27T07:54:02Z</time>
</trkpt>
<trkpt lat="35.0800179" lon="32.5621628">
<ele>355.05</ele>
<time>2015-04-27T07:54:06Z</time>
</trkpt>
<trkpt lat="35.0799672" lon="32.5621834">
<ele>354.93</ele>
<time>2015-04-27T07:54:10Z</time>
</trkpt>
<trkpt lat="35.0799199" lon="32.5622048">
<ele>355.80</ele>
<time>2015-04-27T07:54:14Z</time>
</trkpt>
<trkpt lat="35.0798672" lon="32.5622267">
<ele>353.17</ele>
<time>2015-04-27T07:54:18Z</time>
</trkpt>
<trkpt lat="35.0798206" lon="32.5622605">
<ele>354.25</ele>
<time>2015-04-27T07:54:22Z</time>
</trkpt>
<trkpt lat="35.0797737" lon="32.5623004">
<ele>352.26</ele>
<time>2015-04-27T07:54:26Z</time>
</trkpt>
<trkpt lat="35.0797218" lon="32.5623220">
<ele>351.95</ele>
<time>2015-04-27T07:54:30Z</time>
</trkpt>
<trkpt lat="35.0796691" lon="32.5623312">
<ele>350.99</ele>
<time>2015-04-27T07:54:34Z</time>
</trkpt>
<trkpt lat="35.0796202" lon="32.5623255">
<ele>351.05</ele>
<time>2015-04-27T07:54:38Z</time>
</trkpt>
<trkpt lat="35.0795688" lon="32.5623090">
<ele>351.68</ele>
<time>2015-04-27T07:54:43Z</time>
</trkpt>
<trkpt lat="35.0795241" lon="32.5622962">
<ele>352.41</ele>
<time>2015-04-27T07:54:47Z</time>
</trkpt>
<trkpt lat="35.0794832" lon="32.5622705">
<ele>352.83</ele>
<time>2015-04-27T07:54:51Z</time>
</trkpt>
<trkpt lat="35.0794323" lon="32.5622465">
<ele>353.52</ele>
<time>2015-04-27T07:54:56Z</time>
</trkpt>
<trkpt lat="35.0793859" lon="32.5622233">
<ele>353.90</ele>
<time>2015-04-27T07:55:00Z</time>
</trkpt>
<trkpt lat="35.0793400" lon="32.5622072">
<ele>353.92</ele>
<time>2015-04-27T07:55:04Z</time>
</trkpt>
<trkpt lat="35.0792915" lon="32.5621932">
<ele>353.42</ele>
<time>2015-04-27T07:55:08Z</time>
</trkpt>
<trkpt lat="35.0792470" lon="32.5621695">
<ele>353.89</ele>
<time>2015-04-27T07:55:12Z</time>
</trkpt>
<trkpt lat="35.0792051" lon="32.5621446">
<ele>354.86</ele>
<time>2015-04-27T07:55:16Z</time>
</trkpt>
<trkpt lat="35.0791624" lon="32.5621274">
<ele>355.86</ele>
<time>2015-04-27T07:55:20Z</time>
</trkpt>
<trkpt lat="35.0791144" lon="32.5621240">
<ele>355.92</ele>
<time>2015-04-27T07:55:24Z</time>
</trkpt>
<trkpt lat="35.0790618" lon="32.5621397">
<ele>358.27</ele>
<time>2015-04-27T07:55:29Z</time>
</trkpt>
<trkpt lat="35.0790181" lon="32.5621570">
<ele>359.38</ele>
<time>2015-04-27T07:55:33Z</time>
</trkpt>
<trkpt lat="35.0789711" lon="32.5621790">
<ele>359.77</ele>
<time>2015-04-27T07:55:37Z</time>
</trkpt>
<trkpt lat="35.0789361" lon="32.5622193">
<ele>359.79</ele>
<time>2015-04-27T07:55:41Z</time>
</trkpt>
<trkpt lat="35.0789016" lon="32.5622629">
<ele>359.94</ele>
<time>2015-04-27T07:55:48Z</time>
</trkpt>
<trkpt lat="35.0788598" lon="32.5622875">
<ele>360.86</ele>
<time>2015-04-27T07:55:53Z</time>
</trkpt>
<trkpt lat="35.0788153" lon="32.5623099">
<ele>361.17</ele>
<time>2015-04-27T07:55:57Z</time>
</trkpt>
<trkpt lat="35.0787694" lon="32.5623424">
<ele>361.00</ele>
<time>2015-04-27T07:56:01Z</time>
</trkpt>
<trkpt lat="35.0787300" lon="32.5623820">
<ele>360.68</ele>
<time>2015-04-27T07:56:05Z</time>
</trkpt>
<trkpt lat="35.0786934" lon="32.5624269">
<ele>362.22</ele>
<time>2015-04-27T07:56:09Z</time>
</trkpt>
<trkpt lat="35.0786659" lon="32.5624767">
<ele>364.13</ele>
<time>2015-04-27T07:56:13Z</time>
</trkpt>
<trkpt lat="35.0786472" lon="32.5625304">
<ele>367.94</ele>
<time>2015-04-27T07:56:17Z</time>
</trkpt>
<trkpt lat="35.0786270" lon="32.5625885">
<ele>367.99</ele>
<time>2015-04-27T07:56:21Z</time>
</trkpt>
<trkpt lat="35.0786072" lon="32.5626497">
<ele>366.49</ele>
<time>2015-04-27T07:56:25Z</time>
</trkpt>
<trkpt lat="35.0785944" lon="32.5627105">
<ele>366.27</ele>
<time>2015-04-27T07:56:29Z</time>
</trkpt>
<trkpt lat="35.0785871" lon="32.5627780">
<ele>365.87</ele>
<time>2015-04-27T07:56:34Z</time>
</trkpt>
<trkpt lat="35.0785804" lon="32.5628340">
<ele>367.30</ele>
<time>2015-04-27T07:56:38Z</time>
</trkpt>
<trkpt lat="35.0785494" lon="32.5628794">
<ele>366.01</ele>
<time>2015-04-27T07:56:42Z</time>
</trkpt>
<trkpt lat="35.0784977" lon="32.5629109">
<ele>367.18</ele>
<time>2015-04-27T07:56:46Z</time>
</trkpt>
<trkpt lat="35.0784539" lon="32.5629343">
<ele>369.21</ele>
<time>2015-04-27T07:56:49Z</time>
</trkpt>
<trkpt lat="35.0784035" lon="32.5629633">
<ele>371.51</ele>
<time>2015-04-27T07:56:53Z</time>
</trkpt>
<trkpt lat="35.0783664" lon="32.5630113">
<ele>370.96</ele>
<time>2015-04-27T07:56:57Z</time>
</trkpt>
<trkpt lat="35.0783417" lon="32.5630687">
<ele>370.93</ele>
<time>2015-04-27T07:57:01Z</time>
</trkpt>
<trkpt lat="35.0783281" lon="32.5631294">
<ele>372.55</ele>
<time>2015-04-27T07:57:05Z</time>
</trkpt>
<trkpt lat="35.0783151" lon="32.5631919">
<ele>375.21</ele>
<time>2015-04-27T07:57:09Z</time>
</trkpt>
<trkpt lat="35.0783144" lon="32.5632574">
<ele>376.82</ele>
<time>2015-04-27T07:57:13Z</time>
</trkpt>
<trkpt lat="35.0783052" lon="32.5633183">
<ele>376.04</ele>
<time>2015-04-27T07:57:17Z</time>
</trkpt>
<trkpt lat="35.0783034" lon="32.5633804">
<ele>377.31</ele>
<time>2015-04-27T07:57:21Z</time>
</trkpt>
<trkpt lat="35.0783073" lon="32.5634449">
<ele>378.82</ele>
<time>2015-04-27T07:57:25Z</time>
</trkpt>
<trkpt lat="35.0783074" lon="32.5635126">
<ele>379.67</ele>
<time>2015-04-27T07:57:29Z</time>
</trkpt>
<trkpt lat="35.0782882" lon="32.5635725">
<ele>379.41</ele>
<time>2015-04-27T07:57:33Z</time>
</trkpt>
<trkpt lat="35.0782618" lon="32.5636289">
<ele>381.27</ele>
<time>2015-04-27T07:57:37Z</time>
</trkpt>
<trkpt lat="35.0782376" lon="32.5636889">
<ele>380.06</ele>
<time>2015-04-27T07:57:42Z</time>
</trkpt>
<trkpt lat="35.0782099" lon="32.5637394">
<ele>383.00</ele>
<time>2015-04-27T07:57:46Z</time>
</trkpt>
<trkpt lat="35.0781772" lon="32.5637896">
<ele>384.74</ele>
<time>2015-04-27T07:57:50Z</time>
</trkpt>
<trkpt lat="35.0781508" lon="32.5638411">
<ele>385.79</ele>
<time>2015-04-27T07:57:54Z</time>
</trkpt>
<trkpt lat="35.0781234" lon="32.5638969">
<ele>385.05</ele>
<time>2015-04-27T07:57:59Z</time>
</trkpt>
<trkpt lat="35.0780978" lon="32.5639444">
<ele>384.93</ele>
<time>2015-04-27T07:58:03Z</time>
</trkpt>
<trkpt lat="35.0780720" lon="32.5639996">
<ele>384.68</ele>
<time>2015-04-27T07:58:07Z</time>
</trkpt>
<trkpt lat="35.0780446" lon="32.5640568">
<ele>385.41</ele>
<time>2015-04-27T07:58:11Z</time>
</trkpt>
<trkpt lat="35.0780040" lon="32.5641042">
<ele>386.21</ele>
<time>2015-04-27T07:58:15Z</time>
</trkpt>
<trkpt lat="35.0779704" lon="32.5641533">
<ele>386.82</ele>
<time>2015-04-27T07:58:19Z</time>
</trkpt>
<trkpt lat="35.0779349" lon="32.5641967">
<ele>387.23</ele>
<time>2015-04-27T07:58:23Z</time>
</trkpt>
<trkpt lat="35.0779206" lon="32.5642505">
<ele>385.86</ele>
<time>2015-04-27T07:58:35Z</time>
</trkpt>
<trkpt lat="35.0779518" lon="32.5642103">
<ele>386.44</ele>
<time>2015-04-27T08:14:48Z</time>
</trkpt>
<trkpt lat="35.0779068" lon="32.5641953">
<ele>385.18</ele>
<time>2015-04-27T08:15:07Z</time>
</trkpt>
<trkpt lat="35.0778667" lon="32.5642251">
<ele>386.40</ele>
<time>2015-04-27T08:15:12Z</time>
</trkpt>
<trkpt lat="35.0778310" lon="32.5642699">
<ele>387.27</ele>
<time>2015-04-27T08:15:16Z</time>
</trkpt>
<trkpt lat="35.0778046" lon="32.5643273">
<ele>386.70</ele>
<time>2015-04-27T08:15:20Z</time>
</trkpt>
<trkpt lat="35.0777756" lon="32.5643794">
<ele>387.65</ele>
<time>2015-04-27T08:15:23Z</time>
</trkpt>
<trkpt lat="35.0777450" lon="32.5644283">
<ele>390.77</ele>
<time>2015-04-27T08:15:26Z</time>
</trkpt>
<trkpt lat="35.0777082" lon="32.5644787">
<ele>388.54</ele>
<time>2015-04-27T08:15:30Z</time>
</trkpt>
<trkpt lat="35.0776786" lon="32.5645278">
<ele>386.13</ele>
<time>2015-04-27T08:15:33Z</time>
</trkpt>
<trkpt lat="35.0776593" lon="32.5645960">
<ele>384.33</ele>
<time>2015-04-27T08:15:36Z</time>
</trkpt>
<trkpt lat="35.0776693" lon="32.5646682">
<ele>382.73</ele>
<time>2015-04-27T08:15:39Z</time>
</trkpt>
<trkpt lat="35.0777006" lon="32.5647080">
<ele>381.38</ele>
<time>2015-04-27T08:15:41Z</time>
</trkpt>
<trkpt lat="35.0777558" lon="32.5647361">
<ele>380.04</ele>
<time>2015-04-27T08:15:43Z</time>
</trkpt>
<trkpt lat="35.0778122" lon="32.5647422">
<ele>379.20</ele>
<time>2015-04-27T08:15:45Z</time>
</trkpt>
<trkpt lat="35.0778693" lon="32.5647466">
<ele>379.74</ele>
<time>2015-04-27T08:15:47Z</time>
</trkpt>
<trkpt lat="35.0779232" lon="32.5647580">
<ele>381.13</ele>
<time>2015-04-27T08:15:49Z</time>
</trkpt>
<trkpt lat="35.0779703" lon="32.5647728">
<ele>381.23</ele>
<time>2015-04-27T08:15:51Z</time>
</trkpt>
<trkpt lat="35.0780250" lon="32.5648061">
<ele>383.59</ele>
<time>2015-04-27T08:15:54Z</time>
</trkpt>
<trkpt lat="35.0780795" lon="32.5648273">
<ele>383.01</ele>
<time>2015-04-27T08:15:57Z</time>
</trkpt>
<trkpt lat="35.0781344" lon="32.5648552">
<ele>382.69</ele>
<time>2015-04-27T08:16:00Z</time>
</trkpt>
<trkpt lat="35.0781868" lon="32.5648867">
<ele>382.52</ele>
<time>2015-04-27T08:16:03Z</time>
</trkpt>
<trkpt lat="35.0782362" lon="32.5649249">
<ele>382.15</ele>
<time>2015-04-27T08:16:07Z</time>
</trkpt>
<trkpt lat="35.0782787" lon="32.5649588">
<ele>379.83</ele>
<time>2015-04-27T08:16:10Z</time>
</trkpt>
<trkpt lat="35.0783354" lon="32.5650020">
<ele>379.04</ele>
<time>2015-04-27T08:16:13Z</time>
</trkpt>
<trkpt lat="35.0783732" lon="32.5650388">
<ele>379.45</ele>
<time>2015-04-27T08:16:15Z</time>
</trkpt>
<trkpt lat="35.0784048" lon="32.5650995">
<ele>379.81</ele>
<time>2015-04-27T08:16:17Z</time>
</trkpt>
<trkpt lat="35.0784339" lon="32.5651752">
<ele>381.65</ele>
<time>2015-04-27T08:16:19Z</time>
</trkpt>
<trkpt lat="35.0784663" lon="32.5652464">
<ele>382.36</ele>
<time>2015-04-27T08:16:21Z</time>
</trkpt>
<trkpt lat="35.0785046" lon="32.5653132">
<ele>385.28</ele>
<time>2015-04-27T08:16:23Z</time>
</trkpt>
<trkpt lat="35.0785419" lon="32.5653793">
<ele>387.76</ele>
<time>2015-04-27T08:16:25Z</time>
</trkpt>
<trkpt lat="35.0785879" lon="32.5654423">
<ele>387.13</ele>
<time>2015-04-27T08:16:27Z</time>
</trkpt>
<trkpt lat="35.0786302" lon="32.5655099">
<ele>386.98</ele>
<time>2015-04-27T08:16:29Z</time>
</trkpt>
<trkpt lat="35.0786494" lon="32.5655811">
<ele>386.94</ele>
<time>2015-04-27T08:16:31Z</time>
</trkpt>
<trkpt lat="35.0786408" lon="32.5656551">
<ele>386.93</ele>
<time>2015-04-27T08:16:33Z</time>
</trkpt>
<trkpt lat="35.0786336" lon="32.5657278">
<ele>385.68</ele>
<time>2015-04-27T08:16:35Z</time>
</trkpt>
<trkpt lat="35.0786167" lon="32.5658013">
<ele>385.86</ele>
<time>2015-04-27T08:16:37Z</time>
</trkpt>
<trkpt lat="35.0785697" lon="32.5658765">
<ele>388.16</ele>
<time>2015-04-27T08:16:39Z</time>
</trkpt>
<trkpt lat="35.0785378" lon="32.5659227">
<ele>389.04</ele>
<time>2015-04-27T08:16:40Z</time>
</trkpt>
<trkpt lat="35.0785090" lon="32.5659691">
<ele>388.48</ele>
<time>2015-04-27T08:16:41Z</time>
</trkpt>
<trkpt lat="35.0784785" lon="32.5660174">
<ele>387.20</ele>
<time>2015-04-27T08:16:42Z</time>
</trkpt>
<trkpt lat="35.0784480" lon="32.5660771">
<ele>385.56</ele>
<time>2015-04-27T08:16:43Z</time>
</trkpt>
<trkpt lat="35.0784100" lon="32.5661765">
<ele>383.08</ele>
<time>2015-04-27T08:16:45Z</time>
</trkpt>
<trkpt lat="35.0783810" lon="32.5662285">
<ele>382.50</ele>
<time>2015-04-27T08:16:46Z</time>
</trkpt>
<trkpt lat="35.0783295" lon="32.5662773">
<ele>382.21</ele>
<time>2015-04-27T08:16:47Z</time>
</trkpt>
<trkpt lat="35.0782544" lon="32.5663238">
<ele>382.50</ele>
<time>2015-04-27T08:16:49Z</time>
</trkpt>
<trkpt lat="35.0782069" lon="32.5663800">
<ele>382.82</ele>
<time>2015-04-27T08:16:51Z</time>
</trkpt>
<trkpt lat="35.0781867" lon="32.5664337">
<ele>384.40</ele>
<time>2015-04-27T08:16:53Z</time>
</trkpt>
<trkpt lat="35.0781490" lon="32.5664865">
<ele>384.79</ele>
<time>2015-04-27T08:16:55Z</time>
</trkpt>
<trkpt lat="35.0781119" lon="32.5665421">
<ele>383.89</ele>
<time>2015-04-27T08:16:57Z</time>
</trkpt>
<trkpt lat="35.0780716" lon="32.5666000">
<ele>381.92</ele>
<time>2015-04-27T08:16:59Z</time>
</trkpt>
<trkpt lat="35.0780386" lon="32.5666478">
<ele>381.17</ele>
<time>2015-04-27T08:17:01Z</time>
</trkpt>
<trkpt lat="35.0780075" lon="32.5666939">
<ele>382.74</ele>
<time>2015-04-27T08:17:03Z</time>
</trkpt>
<trkpt lat="35.0779668" lon="32.5667256">
<ele>383.38</ele>
<time>2015-04-27T08:17:05Z</time>
</trkpt>
<trkpt lat="35.0779223" lon="32.5667499">
<ele>385.29</ele>
<time>2015-04-27T08:17:07Z</time>
</trkpt>
<trkpt lat="35.0778745" lon="32.5667746">
<ele>385.52</ele>
<time>2015-04-27T08:17:09Z</time>
</trkpt>
<trkpt lat="35.0778264" lon="32.5667999">
<ele>386.82</ele>
<time>2015-04-27T08:17:11Z</time>
</trkpt>
<trkpt lat="35.0777859" lon="32.5668304">
<ele>386.65</ele>
<time>2015-04-27T08:17:13Z</time>
</trkpt>
<trkpt lat="35.0777427" lon="32.5668611">
<ele>386.14</ele>
<time>2015-04-27T08:17:16Z</time>
</trkpt>
<trkpt lat="35.0776942" lon="32.5668746">
<ele>387.50</ele>
<time>2015-04-27T08:17:20Z</time>
</trkpt>
<trkpt lat="35.0776527" lon="32.5668958">
<ele>391.15</ele>
<time>2015-04-27T08:17:24Z</time>
</trkpt>
<trkpt lat="35.0776119" lon="32.5669315">
<ele>393.62</ele>
<time>2015-04-27T08:17:29Z</time>
</trkpt>
<trkpt lat="35.0775709" lon="32.5669594">
<ele>394.16</ele>
<time>2015-04-27T08:17:33Z</time>
</trkpt>
<trkpt lat="35.0775376" lon="32.5670140">
<ele>395.81</ele>
<time>2015-04-27T08:17:37Z</time>
</trkpt>
<trkpt lat="35.0775173" lon="32.5670730">
<ele>399.36</ele>
<time>2015-04-27T08:17:41Z</time>
</trkpt>
<trkpt lat="35.0775222" lon="32.5671393">
<ele>395.95</ele>
<time>2015-04-27T08:17:45Z</time>
</trkpt>
<trkpt lat="35.0775197" lon="32.5671952">
<ele>396.93</ele>
<time>2015-04-27T08:17:48Z</time>
</trkpt>
<trkpt lat="35.0775086" lon="32.5672505">
<ele>398.18</ele>
<time>2015-04-27T08:17:51Z</time>
</trkpt>
<trkpt lat="35.0775145" lon="32.5673184">
<ele>398.75</ele>
<time>2015-04-27T08:17:55Z</time>
</trkpt>
<trkpt lat="35.0775435" lon="32.5673719">
<ele>396.73</ele>
<time>2015-04-27T08:17:59Z</time>
</trkpt>
<trkpt lat="35.0775800" lon="32.5674305">
<ele>396.35</ele>
<time>2015-04-27T08:18:03Z</time>
</trkpt>
<trkpt lat="35.0776085" lon="32.5674868">
<ele>395.33</ele>
<time>2015-04-27T08:18:07Z</time>
</trkpt>
<trkpt lat="35.0776366" lon="32.5675378">
<ele>393.64</ele>
<time>2015-04-27T08:18:11Z</time>
</trkpt>
<trkpt lat="35.0776714" lon="32.5675874">
<ele>391.03</ele>
<time>2015-04-27T08:18:15Z</time>
</trkpt>
<trkpt lat="35.0776994" lon="32.5676559">
<ele>392.31</ele>
<time>2015-04-27T08:18:18Z</time>
</trkpt>
<trkpt lat="35.0777248" lon="32.5677057">
<ele>392.27</ele>
<time>2015-04-27T08:18:20Z</time>
</trkpt>
<trkpt lat="35.0777470" lon="32.5677552">
<ele>391.51</ele>
<time>2015-04-27T08:18:22Z</time>
</trkpt>
<trkpt lat="35.0777660" lon="32.5678065">
<ele>391.82</ele>
<time>2015-04-27T08:18:24Z</time>
</trkpt>
<trkpt lat="35.0777869" lon="32.5678622">
<ele>391.40</ele>
<time>2015-04-27T08:18:26Z</time>
</trkpt>
<trkpt lat="35.0778075" lon="32.5679222">
<ele>389.54</ele>
<time>2015-04-27T08:18:28Z</time>
</trkpt>
<trkpt lat="35.0778223" lon="32.5679800">
<ele>389.33</ele>
<time>2015-04-27T08:18:30Z</time>
</trkpt>
<trkpt lat="35.0778193" lon="32.5680599">
<ele>388.23</ele>
<time>2015-04-27T08:18:33Z</time>
</trkpt>
<trkpt lat="35.0778289" lon="32.5681382">
<ele>387.84</ele>
<time>2015-04-27T08:18:36Z</time>
</trkpt>
<trkpt lat="35.0778395" lon="32.5682024">
<ele>389.65</ele>
<time>2015-04-27T08:18:38Z</time>
</trkpt>
<trkpt lat="35.0778585" lon="32.5682678">
<ele>389.86</ele>
<time>2015-04-27T08:18:40Z</time>
</trkpt>
<trkpt lat="35.0778728" lon="32.5683318">
<ele>387.16</ele>
<time>2015-04-27T08:18:42Z</time>
</trkpt>
<trkpt lat="35.0778778" lon="32.5683952">
<ele>386.73</ele>
<time>2015-04-27T08:18:44Z</time>
</trkpt>
<trkpt lat="35.0778823" lon="32.5684660">
<ele>385.63</ele>
<time>2015-04-27T08:18:46Z</time>
</trkpt>
<trkpt lat="35.0778896" lon="32.5685434">
<ele>385.10</ele>
<time>2015-04-27T08:18:48Z</time>
</trkpt>
<trkpt lat="35.0778934" lon="32.5686183">
<ele>385.47</ele>
<time>2015-04-27T08:18:50Z</time>
</trkpt>
<trkpt lat="35.0778824" lon="32.5686980">
<ele>387.31</ele>
<time>2015-04-27T08:18:52Z</time>
</trkpt>
<trkpt lat="35.0778616" lon="32.5687801">
<ele>387.77</ele>
<time>2015-04-27T08:18:54Z</time>
</trkpt>
<trkpt lat="35.0778337" lon="32.5688614">
<ele>389.14</ele>
<time>2015-04-27T08:18:56Z</time>
</trkpt>
<trkpt lat="35.0777961" lon="32.5689357">
<ele>390.98</ele>
<time>2015-04-27T08:18:58Z</time>
</trkpt>
<trkpt lat="35.0777604" lon="32.5689987">
<ele>391.94</ele>
<time>2015-04-27T08:19:00Z</time>
</trkpt>
<trkpt lat="35.0777299" lon="32.5690418">
<ele>392.43</ele>
<time>2015-04-27T08:19:01Z</time>
</trkpt>
<trkpt lat="35.0776767" lon="32.5691052">
<ele>392.30</ele>
<time>2015-04-27T08:19:03Z</time>
</trkpt>
<trkpt lat="35.0776274" lon="32.5691582">
<ele>389.27</ele>
<time>2015-04-27T08:19:05Z</time>
</trkpt>
<trkpt lat="35.0775841" lon="32.5692054">
<ele>391.01</ele>
<time>2015-04-27T08:19:07Z</time>
</trkpt>
<trkpt lat="35.0775266" lon="32.5692510">
<ele>392.94</ele>
<time>2015-04-27T08:19:10Z</time>
</trkpt>
<trkpt lat="35.0774892" lon="32.5692924">
<ele>393.43</ele>
<time>2015-04-27T08:19:12Z</time>
</trkpt>
<trkpt lat="35.0774422" lon="32.5693484">
<ele>392.86</ele>
<time>2015-04-27T08:19:15Z</time>
</trkpt>
<trkpt lat="35.0774036" lon="32.5693776">
<ele>392.91</ele>
<time>2015-04-27T08:19:17Z</time>
</trkpt>
<trkpt lat="35.0773507" lon="32.5694200">
<ele>393.17</ele>
<time>2015-04-27T08:19:20Z</time>
</trkpt>
<trkpt lat="35.0772988" lon="32.5694559">
<ele>392.21</ele>
<time>2015-04-27T08:19:23Z</time>
</trkpt>
<trkpt lat="35.0772696" lon="32.5694053">
<ele>392.68</ele>
<time>2015-04-27T08:19:30Z</time>
</trkpt>
<trkpt lat="35.0772630" lon="32.5693346">
<ele>393.60</ele>
<time>2015-04-27T08:19:34Z</time>
</trkpt>
<trkpt lat="35.0772759" lon="32.5692742">
<ele>392.97</ele>
<time>2015-04-27T08:19:38Z</time>
</trkpt>
<trkpt lat="35.0772877" lon="32.5692138">
<ele>391.68</ele>
<time>2015-04-27T08:19:42Z</time>
</trkpt>
<trkpt lat="35.0773074" lon="32.5691562">
<ele>391.85</ele>
<time>2015-04-27T08:19:46Z</time>
</trkpt>
<trkpt lat="35.0773286" lon="32.5690908">
<ele>393.61</ele>
<time>2015-04-27T08:19:50Z</time>
</trkpt>
<trkpt lat="35.0773485" lon="32.5690389">
<ele>392.28</ele>
<time>2015-04-27T08:19:54Z</time>
</trkpt>
<trkpt lat="35.0773644" lon="32.5689816">
<ele>392.07</ele>
<time>2015-04-27T08:19:58Z</time>
</trkpt>
<trkpt lat="35.0773751" lon="32.5689275">
<ele>392.56</ele>
<time>2015-04-27T08:20:02Z</time>
</trkpt>
<trkpt lat="35.0773732" lon="32.5688656">
<ele>391.40</ele>
<time>2015-04-27T08:20:06Z</time>
</trkpt>
<trkpt lat="35.0773802" lon="32.5688035">
<ele>390.70</ele>
<time>2015-04-27T08:20:10Z</time>
</trkpt>
<trkpt lat="35.0773694" lon="32.5687431">
<ele>392.47</ele>
<time>2015-04-27T08:20:14Z</time>
</trkpt>
<trkpt lat="35.0773582" lon="32.5686882">
<ele>395.65</ele>
<time>2015-04-27T08:20:18Z</time>
</trkpt>
<trkpt lat="35.0773441" lon="32.5686353">
<ele>393.76</ele>
<time>2015-04-27T08:20:23Z</time>
</trkpt>
<trkpt lat="35.0773310" lon="32.5685707">
<ele>393.61</ele>
<time>2015-04-27T08:20:29Z</time>
</trkpt>
<trkpt lat="35.0773376" lon="32.5685080">
<ele>397.01</ele>
<time>2015-04-27T08:20:34Z</time>
</trkpt>
<trkpt lat="35.0773247" lon="32.5684493">
<ele>398.13</ele>
<time>2015-04-27T08:20:40Z</time>
</trkpt>
<trkpt lat="35.0772880" lon="32.5684055">
<ele>394.79</ele>
<time>2015-04-27T08:20:46Z</time>
</trkpt>
<trkpt lat="35.0772619" lon="32.5683430">
<ele>395.60</ele>
<time>2015-04-27T08:20:50Z</time>
</trkpt>
<trkpt lat="35.0772387" lon="32.5682894">
<ele>395.15</ele>
<time>2015-04-27T08:20:54Z</time>
</trkpt>
<trkpt lat="35.0772054" lon="32.5682432">
<ele>397.53</ele>
<time>2015-04-27T08:20:59Z</time>
</trkpt>
<trkpt lat="35.0771799" lon="32.5681896">
<ele>400.03</ele>
<time>2015-04-27T08:21:03Z</time>
</trkpt>
<trkpt lat="35.0771526" lon="32.5681397">
<ele>401.18</ele>
<time>2015-04-27T08:21:07Z</time>
</trkpt>
<trkpt lat="35.0771085" lon="32.5680969">
<ele>401.08</ele>
<time>2015-04-27T08:21:10Z</time>
</trkpt>
<trkpt lat="35.0770892" lon="32.5680395">
<ele>399.44</ele>
<time>2015-04-27T08:21:13Z</time>
</trkpt>
<trkpt lat="35.0770771" lon="32.5679855">
<ele>400.49</ele>
<time>2015-04-27T08:21:16Z</time>
</trkpt>
<trkpt lat="35.0770537" lon="32.5679236">
<ele>401.21</ele>
<time>2015-04-27T08:21:20Z</time>
</trkpt>
<trkpt lat="35.0770268" lon="32.5678768">
<ele>399.59</ele>
<time>2015-04-27T08:21:23Z</time>
</trkpt>
<trkpt lat="35.0769833" lon="32.5678451">
<ele>400.65</ele>
<time>2015-04-27T08:21:27Z</time>
</trkpt>
<trkpt lat="35.0769363" lon="32.5678104">
<ele>402.32</ele>
<time>2015-04-27T08:21:32Z</time>
</trkpt>
<trkpt lat="35.0768897" lon="32.5677986">
<ele>403.82</ele>
<time>2015-04-27T08:21:36Z</time>
</trkpt>
<trkpt lat="35.0768390" lon="32.5677846">
<ele>406.29</ele>
<time>2015-04-27T08:21:40Z</time>
</trkpt>
<trkpt lat="35.0767922" lon="32.5677795">
<ele>407.07</ele>
<time>2015-04-27T08:21:44Z</time>
</trkpt>
<trkpt lat="35.0767486" lon="32.5677531">
<ele>407.81</ele>
<time>2015-04-27T08:21:48Z</time>
</trkpt>
<trkpt lat="35.0767152" lon="32.5677079">
<ele>406.48</ele>
<time>2015-04-27T08:21:52Z</time>
</trkpt>
<trkpt lat="35.0766903" lon="32.5676519">
<ele>407.77</ele>
<time>2015-04-27T08:21:56Z</time>
</trkpt>
<trkpt lat="35.0766887" lon="32.5675889">
<ele>408.92</ele>
<time>2015-04-27T08:22:00Z</time>
</trkpt>
<trkpt lat="35.0767098" lon="32.5675208">
<ele>410.36</ele>
<time>2015-04-27T08:22:04Z</time>
</trkpt>
<trkpt lat="35.0767306" lon="32.5674676">
<ele>410.85</ele>
<time>2015-04-27T08:22:07Z</time>
</trkpt>
<trkpt lat="35.0767451" lon="32.5674112">
<ele>410.92</ele>
<time>2015-04-27T08:22:10Z</time>
</trkpt>
<trkpt lat="35.0767607" lon="32.5673595">
<ele>410.42</ele>
<time>2015-04-27T08:22:13Z</time>
</trkpt>
<trkpt lat="35.0767680" lon="32.5672900">
<ele>409.96</ele>
<time>2015-04-27T08:22:17Z</time>
</trkpt>
<trkpt lat="35.0767602" lon="32.5672242">
<ele>409.86</ele>
<time>2015-04-27T08:22:21Z</time>
</trkpt>
<trkpt lat="35.0767338" lon="32.5671667">
<ele>411.55</ele>
<time>2015-04-27T08:22:25Z</time>
</trkpt>
<trkpt lat="35.0767102" lon="32.5671100">
<ele>412.46</ele>
<time>2015-04-27T08:22:29Z</time>
</trkpt>
<trkpt lat="35.0766945" lon="32.5670581">
<ele>411.65</ele>
<time>2015-04-27T08:22:33Z</time>
</trkpt>
<trkpt lat="35.0766788" lon="32.5670006">
<ele>411.85</ele>
<time>2015-04-27T08:22:37Z</time>
</trkpt>
<trkpt lat="35.0766914" lon="32.5669335">
<ele>413.55</ele>
<time>2015-04-27T08:22:41Z</time>
</trkpt>
<trkpt lat="35.0767182" lon="32.5668698">
<ele>413.90</ele>
<time>2015-04-27T08:22:45Z</time>
</trkpt>
<trkpt lat="35.0767439" lon="32.5668244">
<ele>413.80</ele>
<time>2015-04-27T08:22:48Z</time>
</trkpt>
<trkpt lat="35.0767684" lon="32.5667584">
<ele>413.92</ele>
<time>2015-04-27T08:22:52Z</time>
</trkpt>
<trkpt lat="35.0767788" lon="32.5666912">
<ele>415.05</ele>
<time>2015-04-27T08:22:56Z</time>
</trkpt>
<trkpt lat="35.0767796" lon="32.5666243">
<ele>414.93</ele>
<time>2015-04-27T08:23:00Z</time>
</trkpt>
<trkpt lat="35.0767807" lon="32.5665632">
<ele>416.36</ele>
<time>2015-04-27T08:23:04Z</time>
</trkpt>
<trkpt lat="35.0767377" lon="32.5665351">
<ele>418.51</ele>
<time>2015-04-27T08:23:08Z</time>
</trkpt>
<trkpt lat="35.0766877" lon="32.5665276">
<ele>420.77</ele>
<time>2015-04-27T08:23:12Z</time>
</trkpt>
<trkpt lat="35.0766380" lon="32.5665154">
<ele>421.48</ele>
<time>2015-04-27T08:23:16Z</time>
</trkpt>
<trkpt lat="35.0765900" lon="32.5664913">
<ele>421.90</ele>
<time>2015-04-27T08:23:20Z</time>
</trkpt>
<trkpt lat="35.0765428" lon="32.5664680">
<ele>421.92</ele>
<time>2015-04-27T08:23:24Z</time>
</trkpt>
<trkpt lat="35.0764979" lon="32.5664400">
<ele>422.86</ele>
<time>2015-04-27T08:23:28Z</time>
</trkpt>
<trkpt lat="35.0764584" lon="32.5664090">
<ele>423.67</ele>
<time>2015-04-27T08:23:32Z</time>
</trkpt>
<trkpt lat="35.0764342" lon="32.5663514">
<ele>425.32</ele>
<time>2015-04-27T08:23:37Z</time>
</trkpt>
<trkpt lat="35.0763999" lon="32.5663074">
<ele>424.94</ele>
<time>2015-04-27T08:23:42Z</time>
</trkpt>
<trkpt lat="35.0763712" lon="32.5662598">
<ele>425.68</ele>
<time>2015-04-27T08:23:47Z</time>
</trkpt>
<trkpt lat="35.0763330" lon="32.5662289">
<ele>426.12</ele>
<time>2015-04-27T08:23:56Z</time>
</trkpt>
<trkpt lat="35.0762998" lon="32.5661849">
<ele>428.60</ele>
<time>2015-04-27T08:24:06Z</time>
</trkpt>
<trkpt lat="35.0762600" lon="32.5661469">
<ele>427.96</ele>
<time>2015-04-27T08:24:17Z</time>
</trkpt>
<trkpt lat="35.0762157" lon="32.5661351">
<ele>427.93</ele>
<time>2015-04-27T08:24:24Z</time>
</trkpt>
<trkpt lat="35.0761711" lon="32.5661423">
<ele>426.93</ele>
<time>2015-04-27T08:24:32Z</time>
</trkpt>
<trkpt lat="35.0761488" lon="32.5661942">
<ele>427.89</ele>
<time>2015-04-27T08:24:41Z</time>
</trkpt>
<trkpt lat="35.0761800" lon="32.5662362">
<ele>427.18</ele>
<time>2015-04-27T08:25:35Z</time>
</trkpt>
<trkpt lat="35.0762312" lon="32.5662519">
<ele>427.92</ele>
<time>2015-04-27T08:25:47Z</time>
</trkpt>
<trkpt lat="35.0762548" lon="32.5663064">
<ele>427.93</ele>
<time>2015-04-27T08:26:05Z</time>
</trkpt>
<trkpt lat="35.0762863" lon="32.5663581">
<ele>428.43</ele>
<time>2015-04-27T08:26:08Z</time>
</trkpt>
<trkpt lat="35.0763092" lon="32.5664124">
<ele>428.49</ele>
<time>2015-04-27T08:26:11Z</time>
</trkpt>
<trkpt lat="35.0763284" lon="32.5664730">
<ele>428.59</ele>
<time>2015-04-27T08:26:15Z</time>
</trkpt>
<trkpt lat="35.0763508" lon="32.5665218">
<ele>427.97</ele>
<time>2015-04-27T08:26:19Z</time>
</trkpt>
<trkpt lat="35.0763863" lon="32.5665599">
<ele>428.80</ele>
<time>2015-04-27T08:26:23Z</time>
</trkpt>
<trkpt lat="35.0764159" lon="32.5666146">
<ele>429.79</ele>
<time>2015-04-27T08:26:27Z</time>
</trkpt>
<trkpt lat="35.0764307" lon="32.5666788">
<ele>429.79</ele>
<time>2015-04-27T08:26:31Z</time>
</trkpt>
<trkpt lat="35.0764417" lon="32.5667408">
<ele>429.39</ele>
<time>2015-04-27T08:26:36Z</time>
</trkpt>
<trkpt lat="35.0764356" lon="32.5667963">
<ele>428.95</ele>
<time>2015-04-27T08:26:40Z</time>
</trkpt>
<trkpt lat="35.0764181" lon="32.5668664">
<ele>430.74</ele>
<time>2015-04-27T08:26:44Z</time>
</trkpt>
<trkpt lat="35.0764173" lon="32.5669302">
<ele>430.73</ele>
<time>2015-04-27T08:26:48Z</time>
</trkpt>
<trkpt lat="35.0764062" lon="32.5669855">
<ele>430.85</ele>
<time>2015-04-27T08:26:52Z</time>
</trkpt>
<trkpt lat="35.0763900" lon="32.5670522">
<ele>432.36</ele>
<time>2015-04-27T08:26:56Z</time>
</trkpt>
<trkpt lat="35.0763732" lon="32.5671084">
<ele>432.26</ele>
<time>2015-04-27T08:27:00Z</time>
</trkpt>
<trkpt lat="35.0763668" lon="32.5671648">
<ele>436.13</ele>
<time>2015-04-27T08:27:04Z</time>
</trkpt>
<trkpt lat="35.0763601" lon="32.5672224">
<ele>439.56</ele>
<time>2015-04-27T08:27:08Z</time>
</trkpt>
<trkpt lat="35.0763367" lon="32.5672779">
<ele>439.71</ele>
<time>2015-04-27T08:27:12Z</time>
</trkpt>
<trkpt lat="35.0763211" lon="32.5673340">
<ele>440.10</ele>
<time>2015-04-27T08:27:16Z</time>
</trkpt>
<trkpt lat="35.0763087" lon="32.5673895">
<ele>440.87</ele>
<time>2015-04-27T08:27:20Z</time>
</trkpt>
<trkpt lat="35.0762852" lon="32.5674479">
<ele>442.11</ele>
<time>2015-04-27T08:27:25Z</time>
</trkpt>
<trkpt lat="35.0762849" lon="32.5675105">
<ele>444.56</ele>
<time>2015-04-27T08:27:29Z</time>
</trkpt>
<trkpt lat="35.0762666" lon="32.5675643">
<ele>443.15</ele>
<time>2015-04-27T08:27:33Z</time>
</trkpt>
<trkpt lat="35.0762708" lon="32.5676251">
<ele>444.31</ele>
<time>2015-04-27T08:27:37Z</time>
</trkpt>
<trkpt lat="35.0762739" lon="32.5676846">
<ele>446.26</ele>
<time>2015-04-27T08:27:41Z</time>
</trkpt>
<trkpt lat="35.0762662" lon="32.5677468">
<ele>444.95</ele>
<time>2015-04-27T08:27:45Z</time>
</trkpt>
<trkpt lat="35.0762418" lon="32.5677962">
<ele>441.93</ele>
<time>2015-04-27T08:27:49Z</time>
</trkpt>
<trkpt lat="35.0762072" lon="32.5678320">
<ele>441.55</ele>
<time>2015-04-27T08:27:52Z</time>
</trkpt>
<trkpt lat="35.0761702" lon="32.5678849">
<ele>437.59</ele>
<time>2015-04-27T08:27:56Z</time>
</trkpt>
<trkpt lat="35.0761342" lon="32.5679385">
<ele>434.59</ele>
<time>2015-04-27T08:28:00Z</time>
</trkpt>
<trkpt lat="35.0761312" lon="32.5680019">
<ele>435.65</ele>
<time>2015-04-27T08:28:04Z</time>
</trkpt>
<trkpt lat="35.0761431" lon="32.5680646">
<ele>436.91</ele>
<time>2015-04-27T08:28:08Z</time>
</trkpt>
<trkpt lat="35.0761796" lon="32.5681137">
<ele>444.36</ele>
<time>2015-04-27T08:28:12Z</time>
</trkpt>
<trkpt lat="35.0762321" lon="32.5681520">
<ele>446.58</ele>
<time>2015-04-27T08:28:16Z</time>
</trkpt>
<trkpt lat="35.0762742" lon="32.5681805">
<ele>447.63</ele>
<time>2015-04-27T08:28:19Z</time>
</trkpt>
<trkpt lat="35.0763122" lon="32.5682127">
<ele>445.89</ele>
<time>2015-04-27T08:28:22Z</time>
</trkpt>
<trkpt lat="35.0763461" lon="32.5682501">
<ele>446.67</ele>
<time>2015-04-27T08:28:25Z</time>
</trkpt>
<trkpt lat="35.0763888" lon="32.5682682">
<ele>447.27</ele>
<time>2015-04-27T08:28:28Z</time>
</trkpt>
<trkpt lat="35.0764340" lon="32.5682925">
<ele>446.09</ele>
<time>2015-04-27T08:28:31Z</time>
</trkpt>
<trkpt lat="35.0764809" lon="32.5683188">
<ele>443.82</ele>
<time>2015-04-27T08:28:34Z</time>
</trkpt>
<trkpt lat="35.0765175" lon="32.5683511">
<ele>443.04</ele>
<time>2015-04-27T08:28:37Z</time>
</trkpt>
<trkpt lat="35.0765677" lon="32.5683859">
<ele>445.43</ele>
<time>2015-04-27T08:28:41Z</time>
</trkpt>
<trkpt lat="35.0766006" lon="32.5684241">
<ele>445.99</ele>
<time>2015-04-27T08:28:44Z</time>
</trkpt>
<trkpt lat="35.0766294" lon="32.5684730">
<ele>445.81</ele>
<time>2015-04-27T08:28:47Z</time>
</trkpt>
<trkpt lat="35.0766536" lon="32.5685244">
<ele>446.41</ele>
<time>2015-04-27T08:28:50Z</time>
</trkpt>
<trkpt lat="35.0766691" lon="32.5685806">
<ele>445.24</ele>
<time>2015-04-27T08:28:53Z</time>
</trkpt>
<trkpt lat="35.0766814" lon="32.5686352">
<ele>444.21</ele>
<time>2015-04-27T08:28:56Z</time>
</trkpt>
<trkpt lat="35.0766854" lon="32.5686920">
<ele>444.71</ele>
<time>2015-04-27T08:28:59Z</time>
</trkpt>
<trkpt lat="35.0766769" lon="32.5687611">
<ele>444.91</ele>
<time>2015-04-27T08:29:03Z</time>
</trkpt>
<trkpt lat="35.0766752" lon="32.5688252">
<ele>443.55</ele>
<time>2015-04-27T08:29:07Z</time>
</trkpt>
<trkpt lat="35.0766610" lon="32.5688882">
<ele>443.90</ele>
<time>2015-04-27T08:29:11Z</time>
</trkpt>
<trkpt lat="35.0766516" lon="32.5689459">
<ele>445.55</ele>
<time>2015-04-27T08:29:14Z</time>
</trkpt>
<trkpt lat="35.0766365" lon="32.5690008">
<ele>444.88</ele>
<time>2015-04-27T08:29:17Z</time>
</trkpt>
<trkpt lat="35.0766114" lon="32.5690696">
<ele>444.73</ele>
<time>2015-04-27T08:29:21Z</time>
</trkpt>
<trkpt lat="35.0766012" lon="32.5691299">
<ele>446.28</ele>
<time>2015-04-27T08:29:24Z</time>
</trkpt>
<trkpt lat="35.0765702" lon="32.5691917">
<ele>448.59</ele>
<time>2015-04-27T08:29:27Z</time>
</trkpt>
<trkpt lat="35.0765450" lon="32.5692482">
<ele>449.01</ele>
<time>2015-04-27T08:29:30Z</time>
</trkpt>
<trkpt lat="35.0765266" lon="32.5693039">
<ele>450.06</ele>
<time>2015-04-27T08:29:33Z</time>
</trkpt>
<trkpt lat="35.0765035" lon="32.5693529">
<ele>450.69</ele>
<time>2015-04-27T08:29:36Z</time>
</trkpt>
<trkpt lat="35.0764740" lon="32.5694153">
<ele>450.04</ele>
<time>2015-04-27T08:29:40Z</time>
</trkpt>
<trkpt lat="35.0764507" lon="32.5694658">
<ele>449.94</ele>
<time>2015-04-27T08:29:43Z</time>
</trkpt>
<trkpt lat="35.0764352" lon="32.5695233">
<ele>449.93</ele>
<time>2015-04-27T08:29:46Z</time>
</trkpt>
<trkpt lat="35.0764184" lon="32.5695784">
<ele>450.05</ele>
<time>2015-04-27T08:29:49Z</time>
</trkpt>
<trkpt lat="35.0764078" lon="32.5696334">
<ele>450.07</ele>
<time>2015-04-27T08:29:52Z</time>
</trkpt>
<trkpt lat="35.0763971" lon="32.5697032">
<ele>449.87</ele>
<time>2015-04-27T08:29:56Z</time>
</trkpt>
<trkpt lat="35.0763822" lon="32.5697633">
<ele>451.17</ele>
<time>2015-04-27T08:30:00Z</time>
</trkpt>
<trkpt lat="35.0763844" lon="32.5698284">
<ele>452.13</ele>
<time>2015-04-27T08:30:04Z</time>
</trkpt>
<trkpt lat="35.0763696" lon="32.5698886">
<ele>452.44</ele>
<time>2015-04-27T08:30:08Z</time>
</trkpt>
<trkpt lat="35.0763451" lon="32.5699449">
<ele>452.89</ele>
<time>2015-04-27T08:30:12Z</time>
</trkpt>
<trkpt lat="35.0763125" lon="32.5699887">
<ele>452.92</ele>
<time>2015-04-27T08:30:16Z</time>
</trkpt>
<trkpt lat="35.0762656" lon="32.5700229">
<ele>452.42</ele>
<time>2015-04-27T08:30:21Z</time>
</trkpt>
<trkpt lat="35.0762143" lon="32.5700470">
<ele>452.88</ele>
<time>2015-04-27T08:30:26Z</time>
</trkpt>
<trkpt lat="35.0761689" lon="32.5700563">
<ele>452.92</ele>
<time>2015-04-27T08:30:30Z</time>
</trkpt>
<trkpt lat="35.0761238" lon="32.5700610">
<ele>454.36</ele>
<time>2015-04-27T08:30:34Z</time>
</trkpt>
<trkpt lat="35.0760756" lon="32.5700774">
<ele>454.70</ele>
<time>2015-04-27T08:30:38Z</time>
</trkpt>
<trkpt lat="35.0760250" lon="32.5700994">
<ele>456.04</ele>
<time>2015-04-27T08:30:42Z</time>
</trkpt>
<trkpt lat="35.0759782" lon="32.5701145">
<ele>457.37</ele>
<time>2015-04-27T08:30:46Z</time>
</trkpt>
<trkpt lat="35.0759286" lon="32.5701337">
<ele>459.52</ele>
<time>2015-04-27T08:30:50Z</time>
</trkpt>
<trkpt lat="35.0758752" lon="32.5701585">
<ele>459.90</ele>
<time>2015-04-27T08:30:54Z</time>
</trkpt>
<trkpt lat="35.0758280" lon="32.5701767">
<ele>459.30</ele>
<time>2015-04-27T08:30:57Z</time>
</trkpt>
<trkpt lat="35.0757765" lon="32.5702149">
<ele>457.14</ele>
<time>2015-04-27T08:31:01Z</time>
</trkpt>
<trkpt lat="35.0757432" lon="32.5702529">
<ele>457.45</ele>
<time>2015-04-27T08:31:04Z</time>
</trkpt>
<trkpt lat="35.0757103" lon="32.5702929">
<ele>458.99</ele>
<time>2015-04-27T08:31:07Z</time>
</trkpt>
<trkpt lat="35.0756876" lon="32.5703592">
<ele>457.62</ele>
<time>2015-04-27T08:31:11Z</time>
</trkpt>
<trkpt lat="35.0756782" lon="32.5704260">
<ele>457.72</ele>
<time>2015-04-27T08:31:15Z</time>
</trkpt>
<trkpt lat="35.0756916" lon="32.5704886">
<ele>459.60</ele>
<time>2015-04-27T08:31:19Z</time>
</trkpt>
<trkpt lat="35.0756912" lon="32.5705469">
<ele>460.47</ele>
<time>2015-04-27T08:31:23Z</time>
</trkpt>
<trkpt lat="35.0757057" lon="32.5706100">
<ele>459.96</ele>
<time>2015-04-27T08:31:27Z</time>
</trkpt>
<trkpt lat="35.0757342" lon="32.5706668">
<ele>463.43</ele>
<time>2015-04-27T08:31:31Z</time>
</trkpt>
<trkpt lat="35.0757573" lon="32.5707261">
<ele>463.14</ele>
<time>2015-04-27T08:31:35Z</time>
</trkpt>
<trkpt lat="35.0757822" lon="32.5707767">
<ele>461.33</ele>
<time>2015-04-27T08:31:38Z</time>
</trkpt>
<trkpt lat="35.0758106" lon="32.5708234">
<ele>461.08</ele>
<time>2015-04-27T08:31:42Z</time>
</trkpt>
<trkpt lat="35.0758352" lon="32.5708727">
<ele>461.62</ele>
<time>2015-04-27T08:31:46Z</time>
</trkpt>
<trkpt lat="35.0758688" lon="32.5709215">
<ele>462.84</ele>
<time>2015-04-27T08:31:50Z</time>
</trkpt>
<trkpt lat="35.0758904" lon="32.5709802">
<ele>464.17</ele>
<time>2015-04-27T08:31:54Z</time>
</trkpt>
<trkpt lat="35.0759027" lon="32.5710430">
<ele>463.94</ele>
<time>2015-04-27T08:31:58Z</time>
</trkpt>
<trkpt lat="35.0759164" lon="32.5711090">
<ele>463.68</ele>
<time>2015-04-27T08:32:02Z</time>
</trkpt>
<trkpt lat="35.0759236" lon="32.5711646">
<ele>464.64</ele>
<time>2015-04-27T08:32:05Z</time>
</trkpt>
<trkpt lat="35.0759124" lon="32.5712288">
<ele>464.53</ele>
<time>2015-04-27T08:32:09Z</time>
</trkpt>
<trkpt lat="35.0758932" lon="32.5712898">
<ele>463.65</ele>
<time>2015-04-27T08:32:13Z</time>
</trkpt>
<trkpt lat="35.0758750" lon="32.5713514">
<ele>464.72</ele>
<time>2015-04-27T08:32:17Z</time>
</trkpt>
<trkpt lat="35.0758523" lon="32.5714078">
<ele>464.91</ele>
<time>2015-04-27T08:32:21Z</time>
</trkpt>
<trkpt lat="35.0758109" lon="32.5714343">
<ele>463.17</ele>
<time>2015-04-27T08:32:24Z</time>
</trkpt>
<trkpt lat="35.0757628" lon="32.5714482">
<ele>464.25</ele>
<time>2015-04-27T08:32:28Z</time>
</trkpt>
<trkpt lat="35.0757144" lon="32.5714509">
<ele>463.20</ele>
<time>2015-04-27T08:32:32Z</time>
</trkpt>
<trkpt lat="35.0756659" lon="32.5714560">
<ele>465.50</ele>
<time>2015-04-27T08:32:36Z</time>
</trkpt>
<trkpt lat="35.0756127" lon="32.5714640">
<ele>467.65</ele>
<time>2015-04-27T08:32:40Z</time>
</trkpt>
<trkpt lat="35.0755587" lon="32.5714696">
<ele>469.53</ele>
<time>2015-04-27T08:32:44Z</time>
</trkpt>
<trkpt lat="35.0755098" lon="32.5714955">
<ele>471.53</ele>
<time>2015-04-27T08:32:48Z</time>
</trkpt>
<trkpt lat="35.0754699" lon="32.5715300">
<ele>472.28</ele>
<time>2015-04-27T08:32:52Z</time>
</trkpt>
<trkpt lat="35.0754181" lon="32.5715418">
<ele>476.07</ele>
<time>2015-04-27T08:32:56Z</time>
</trkpt>
<trkpt lat="35.0753760" lon="32.5715860">
<ele>478.00</ele>
<time>2015-04-27T08:33:00Z</time>
</trkpt>
<trkpt lat="35.0753290" lon="32.5716235">
<ele>477.18</ele>
<time>2015-04-27T08:33:04Z</time>
</trkpt>
<trkpt lat="35.0752829" lon="32.5716399">
<ele>478.46</ele>
<time>2015-04-27T08:33:07Z</time>
</trkpt>
<trkpt lat="35.0752426" lon="32.5716658">
<ele>480.62</ele>
<time>2015-04-27T08:33:10Z</time>
</trkpt>
<trkpt lat="35.0751824" lon="32.5716887">
<ele>478.34</ele>
<time>2015-04-27T08:33:14Z</time>
</trkpt>
<trkpt lat="35.0751339" lon="32.5716941">
<ele>478.35</ele>
<time>2015-04-27T08:33:17Z</time>
</trkpt>
<trkpt lat="35.0750777" lon="32.5716900">
<ele>479.76</ele>
<time>2015-04-27T08:33:21Z</time>
</trkpt>
<trkpt lat="35.0750299" lon="32.5716989">
<ele>480.40</ele>
<time>2015-04-27T08:33:24Z</time>
</trkpt>
<trkpt lat="35.0749818" lon="32.5717038">
<ele>480.61</ele>
<time>2015-04-27T08:33:27Z</time>
</trkpt>
<trkpt lat="35.0749264" lon="32.5716910">
<ele>478.59</ele>
<time>2015-04-27T08:33:31Z</time>
</trkpt>
<trkpt lat="35.0748689" lon="32.5716704">
<ele>482.28</ele>
<time>2015-04-27T08:33:35Z</time>
</trkpt>
<trkpt lat="35.0748238" lon="32.5716571">
<ele>483.72</ele>
<time>2015-04-27T08:33:38Z</time>
</trkpt>
<trkpt lat="35.0747785" lon="32.5716520">
<ele>487.52</ele>
<time>2015-04-27T08:33:41Z</time>
</trkpt>
<trkpt lat="35.0747350" lon="32.5716354">
<ele>487.87</ele>
<time>2015-04-27T08:33:44Z</time>
</trkpt>
<trkpt lat="35.0746894" lon="32.5716211">
<ele>486.79</ele>
<time>2015-04-27T08:33:47Z</time>
</trkpt>
<trkpt lat="35.0746407" lon="32.5716187">
<ele>484.53</ele>
<time>2015-04-27T08:33:50Z</time>
</trkpt>
<trkpt lat="35.0745935" lon="32.5716042">
<ele>484.63</ele>
<time>2015-04-27T08:33:53Z</time>
</trkpt>
<trkpt lat="35.0745430" lon="32.5716019">
<ele>486.26</ele>
<time>2015-04-27T08:33:56Z</time>
</trkpt>
<trkpt lat="35.0744966" lon="32.5716308">
<ele>487.38</ele>
<time>2015-04-27T08:34:00Z</time>
</trkpt>
<trkpt lat="35.0744717" lon="32.5716861">
<ele>485.52</ele>
<time>2015-04-27T08:34:04Z</time>
</trkpt>
<trkpt lat="35.0744635" lon="32.5717414">
<ele>486.09</ele>
<time>2015-04-27T08:34:08Z</time>
</trkpt>
<trkpt lat="35.0744674" lon="32.5718094">
<ele>488.19</ele>
<time>2015-04-27T08:34:12Z</time>
</trkpt>
<trkpt lat="35.0744776" lon="32.5718645">
<ele>487.58</ele>
<time>2015-04-27T08:34:15Z</time>
</trkpt>
<trkpt lat="35.0745002" lon="32.5719328">
<ele>481.78</ele>
<time>2015-04-27T08:34:19Z</time>
</trkpt>
<trkpt lat="35.0745064" lon="32.5719944">
<ele>477.35</ele>
<time>2015-04-27T08:34:23Z</time>
</trkpt>
<trkpt lat="35.0745096" lon="32.5720615">
<ele>475.64</ele>
<time>2015-04-27T08:34:27Z</time>
</trkpt>
<trkpt lat="35.0745067" lon="32.5721339">
<ele>476.28</ele>
<time>2015-04-27T08:34:31Z</time>
</trkpt>
<trkpt lat="35.0744908" lon="32.5721930">
<ele>477.97</ele>
<time>2015-04-27T08:34:34Z</time>
</trkpt>
<trkpt lat="35.0744688" lon="32.5722587">
<ele>484.05</ele>
<time>2015-04-27T08:34:38Z</time>
</trkpt>
<trkpt lat="35.0744459" lon="32.5723068">
<ele>487.32</ele>
<time>2015-04-27T08:34:41Z</time>
</trkpt>
<trkpt lat="35.0744211" lon="32.5723548">
<ele>486.97</ele>
<time>2015-04-27T08:34:44Z</time>
</trkpt>
<trkpt lat="35.0743940" lon="32.5723993">
<ele>486.18</ele>
<time>2015-04-27T08:34:47Z</time>
</trkpt>
<trkpt lat="35.0743610" lon="32.5724557">
<ele>483.63</ele>
<time>2015-04-27T08:34:51Z</time>
</trkpt>
<trkpt lat="35.0743132" lon="32.5724971">
<ele>483.91</ele>
<time>2015-04-27T08:34:55Z</time>
</trkpt>
<trkpt lat="35.0742665" lon="32.5725373">
<ele>486.30</ele>
<time>2015-04-27T08:34:59Z</time>
</trkpt>
<trkpt lat="35.0742218" lon="32.5725780">
<ele>490.89</ele>
<time>2015-04-27T08:35:03Z</time>
</trkpt>
<trkpt lat="35.0741758" lon="32.5725991">
<ele>490.42</ele>
<time>2015-04-27T08:35:06Z</time>
</trkpt>
<trkpt lat="35.0741237" lon="32.5726268">
<ele>488.46</ele>
<time>2015-04-27T08:35:10Z</time>
</trkpt>
<trkpt lat="35.0740814" lon="32.5726617">
<ele>489.58</ele>
<time>2015-04-27T08:35:14Z</time>
</trkpt>
<trkpt lat="35.0740351" lon="32.5726872">
<ele>491.34</ele>
<time>2015-04-27T08:35:18Z</time>
</trkpt>
<trkpt lat="35.0739837" lon="32.5727086">
<ele>494.26</ele>
<time>2015-04-27T08:35:22Z</time>
</trkpt>
<trkpt lat="35.0739422" lon="32.5727474">
<ele>495.20</ele>
<time>2015-04-27T08:35:26Z</time>
</trkpt>
<trkpt lat="35.0738989" lon="32.5727732">
<ele>491.88</ele>
<time>2015-04-27T08:35:30Z</time>
</trkpt>
<trkpt lat="35.0738540" lon="32.5728070">
<ele>489.45</ele>
<time>2015-04-27T08:35:35Z</time>
</trkpt>
<trkpt lat="35.0738200" lon="32.5728452">
<ele>489.15</ele>
<time>2015-04-27T08:35:39Z</time>
</trkpt>
<trkpt lat="35.0737830" lon="32.5728988">
<ele>489.50</ele>
<time>2015-04-27T08:35:43Z</time>
</trkpt>
<trkpt lat="35.0737531" lon="32.5729568">
<ele>494.12</ele>
<time>2015-04-27T08:35:46Z</time>
</trkpt>
<trkpt lat="35.0737170" lon="32.5730008">
<ele>493.95</ele>
<time>2015-04-27T08:35:49Z</time>
</trkpt>
<trkpt lat="35.0736728" lon="32.5730459">
<ele>493.11</ele>
<time>2015-04-27T08:35:53Z</time>
</trkpt>
<trkpt lat="35.0736470" lon="32.5731033">
<ele>492.62</ele>
<time>2015-04-27T08:35:57Z</time>
</trkpt>
<trkpt lat="35.0736196" lon="32.5731561">
<ele>491.41</ele>
<time>2015-04-27T08:36:01Z</time>
</trkpt>
<trkpt lat="35.0735838" lon="32.5732018">
<ele>490.08</ele>
<time>2015-04-27T08:36:05Z</time>
</trkpt>
<trkpt lat="35.0735472" lon="32.5732345">
<ele>490.37</ele>
<time>2015-04-27T08:36:09Z</time>
</trkpt>
<trkpt lat="35.0735071" lon="32.5732819">
<ele>490.08</ele>
<time>2015-04-27T08:36:13Z</time>
</trkpt>
<trkpt lat="35.0734674" lon="32.5733212">
<ele>490.82</ele>
<time>2015-04-27T08:36:16Z</time>
</trkpt>
<trkpt lat="35.0734263" lon="32.5733632">
<ele>492.16</ele>
<time>2015-04-27T08:36:19Z</time>
</trkpt>
<trkpt lat="35.0733847" lon="32.5733963">
<ele>493.70</ele>
<time>2015-04-27T08:36:22Z</time>
</trkpt>
<trkpt lat="35.0733430" lon="32.5734411">
<ele>492.85</ele>
<time>2015-04-27T08:36:26Z</time>
</trkpt>
<trkpt lat="35.0733053" lon="32.5734897">
<ele>495.98</ele>
<time>2015-04-27T08:36:30Z</time>
</trkpt>
<trkpt lat="35.0732802" lon="32.5735477">
<ele>496.24</ele>
<time>2015-04-27T08:36:34Z</time>
</trkpt>
<trkpt lat="35.0732648" lon="32.5736105">
<ele>490.26</ele>
<time>2015-04-27T08:36:38Z</time>
</trkpt>
<trkpt lat="35.0732851" lon="32.5736622">
<ele>492.45</ele>
<time>2015-04-27T08:36:42Z</time>
</trkpt>
<trkpt lat="35.0733235" lon="32.5736933">
<ele>496.52</ele>
<time>2015-04-27T08:36:46Z</time>
</trkpt>
<trkpt lat="35.0733664" lon="32.5737219">
<ele>500.02</ele>
<time>2015-04-27T08:36:50Z</time>
</trkpt>
<trkpt lat="35.0734190" lon="32.5737409">
<ele>503.40</ele>
<time>2015-04-27T08:36:55Z</time>
</trkpt>
<trkpt lat="35.0734647" lon="32.5737378">
<ele>503.89</ele>
<time>2015-04-27T08:36:59Z</time>
</trkpt>
<trkpt lat="35.0735105" lon="32.5737194">
<ele>502.61</ele>
<time>2015-04-27T08:37:03Z</time>
</trkpt>
<trkpt lat="35.0735607" lon="32.5737002">
<ele>501.66</ele>
<time>2015-04-27T08:37:07Z</time>
</trkpt>
<trkpt lat="35.0736146" lon="32.5736738">
<ele>503.53</ele>
<time>2015-04-27T08:37:11Z</time>
</trkpt>
<trkpt lat="35.0736576" lon="32.5736525">
<ele>505.63</ele>
<time>2015-04-27T08:37:14Z</time>
</trkpt>
<trkpt lat="35.0737123" lon="32.5736301">
<ele>503.34</ele>
<time>2015-04-27T08:37:18Z</time>
</trkpt>
<trkpt lat="35.0737557" lon="32.5736153">
<ele>504.85</ele>
<time>2015-04-27T08:37:21Z</time>
</trkpt>
<trkpt lat="35.0738124" lon="32.5735991">
<ele>501.80</ele>
<time>2015-04-27T08:37:25Z</time>
</trkpt>
<trkpt lat="35.0738618" lon="32.5735773">
<ele>503.29</ele>
<time>2015-04-27T08:37:29Z</time>
</trkpt>
<trkpt lat="35.0739039" lon="32.5735495">
<ele>501.82</ele>
<time>2015-04-27T08:37:33Z</time>
</trkpt>
<trkpt lat="35.0739531" lon="32.5735588">
<ele>499.42</ele>
<time>2015-04-27T08:37:37Z</time>
</trkpt>
<trkpt lat="35.0740027" lon="32.5735690">
<ele>497.77</ele>
<time>2015-04-27T08:37:41Z</time>
</trkpt>
<trkpt lat="35.0740596" lon="32.5735700">
<ele>500.48</ele>
<time>2015-04-27T08:37:45Z</time>
</trkpt>
<trkpt lat="35.0741072" lon="32.5735665">
<ele>503.33</ele>
<time>2015-04-27T08:37:49Z</time>
</trkpt>
<trkpt lat="35.0741548" lon="32.5735614">
<ele>504.39</ele>
<time>2015-04-27T08:37:53Z</time>
</trkpt>
<trkpt lat="35.0742049" lon="32.5735676">
<ele>505.33</ele>
<time>2015-04-27T08:37:57Z</time>
</trkpt>
<trkpt lat="35.0742525" lon="32.5735407">
<ele>508.08</ele>
<time>2015-04-27T08:38:01Z</time>
</trkpt>
<trkpt lat="35.0743013" lon="32.5735208">
<ele>505.93</ele>
<time>2015-04-27T08:38:05Z</time>
</trkpt>
<trkpt lat="35.0743586" lon="32.5735073">
<ele>505.43</ele>
<time>2015-04-27T08:38:09Z</time>
</trkpt>
<trkpt lat="35.0744135" lon="32.5734892">
<ele>504.58</ele>
<time>2015-04-27T08:38:13Z</time>
</trkpt>
<trkpt lat="35.0744596" lon="32.5734764">
<ele>502.84</ele>
<time>2015-04-27T08:38:17Z</time>
</trkpt>
<trkpt lat="35.0745112" lon="32.5734559">
<ele>501.92</ele>
<time>2015-04-27T08:38:21Z</time>
</trkpt>
<trkpt lat="35.0745617" lon="32.5734279">
<ele>503.30</ele>
<time>2015-04-27T08:38:25Z</time>
</trkpt>
<trkpt lat="35.0746117" lon="32.5734066">
<ele>505.51</ele>
<time>2015-04-27T08:38:29Z</time>
</trkpt>
<trkpt lat="35.0746605" lon="32.5733897">
<ele>504.21</ele>
<time>2015-04-27T08:38:33Z</time>
</trkpt>
<trkpt lat="35.0747182" lon="32.5733891">
<ele>503.38</ele>
<time>2015-04-27T08:38:37Z</time>
</trkpt>
<trkpt lat="35.0747687" lon="32.5733688">
<ele>502.58</ele>
<time>2015-04-27T08:38:41Z</time>
</trkpt>
<trkpt lat="35.0748222" lon="32.5733425">
<ele>504.22</ele>
<time>2015-04-27T08:38:45Z</time>
</trkpt>
<trkpt lat="35.0748774" lon="32.5733329">
<ele>505.38</ele>
<time>2015-04-27T08:38:49Z</time>
</trkpt>
<trkpt lat="35.0749271" lon="32.5733108">
<ele>506.27</ele>
<time>2015-04-27T08:38:53Z</time>
</trkpt>
<trkpt lat="35.0749837" lon="32.5732995">
<ele>507.51</ele>
<time>2015-04-27T08:38:57Z</time>
</trkpt>
<trkpt lat="35.0750381" lon="32.5733165">
<ele>506.90</ele>
<time>2015-04-27T08:39:01Z</time>
</trkpt>
<trkpt lat="35.0750936" lon="32.5733314">
<ele>507.55</ele>
<time>2015-04-27T08:39:05Z</time>
</trkpt>
<trkpt lat="35.0751449" lon="32.5733426">
<ele>509.09</ele>
<time>2015-04-27T08:39:09Z</time>
</trkpt>
<trkpt lat="35.0751955" lon="32.5733416">
<ele>509.44</ele>
<time>2015-04-27T08:39:13Z</time>
</trkpt>
<trkpt lat="35.0752480" lon="32.5733513">
<ele>512.83</ele>
<time>2015-04-27T08:39:17Z</time>
</trkpt>
<trkpt lat="35.0753008" lon="32.5733707">
<ele>510.20</ele>
<time>2015-04-27T08:39:22Z</time>
</trkpt>
<trkpt lat="35.0753468" lon="32.5734085">
<ele>510.94</ele>
<time>2015-04-27T08:39:26Z</time>
</trkpt>
<trkpt lat="35.0753941" lon="32.5734419">
<ele>513.58</ele>
<time>2015-04-27T08:39:31Z</time>
</trkpt>
<trkpt lat="35.0754388" lon="32.5734630">
<ele>511.22</ele>
<time>2015-04-27T08:39:35Z</time>
</trkpt>
<trkpt lat="35.0754892" lon="32.5734919">
<ele>509.51</ele>
<time>2015-04-27T08:39:39Z</time>
</trkpt>
<trkpt lat="35.0755284" lon="32.5735223">
<ele>509.75</ele>
<time>2015-04-27T08:39:42Z</time>
</trkpt>
<trkpt lat="35.0755807" lon="32.5735517">
<ele>508.35</ele>
<time>2015-04-27T08:39:46Z</time>
</trkpt>
<trkpt lat="35.0756218" lon="32.5735947">
<ele>507.95</ele>
<time>2015-04-27T08:39:50Z</time>
</trkpt>
<trkpt lat="35.0756601" lon="32.5736388">
<ele>509.18</ele>
<time>2015-04-27T08:39:54Z</time>
</trkpt>
<trkpt lat="35.0756976" lon="32.5736755">
<ele>510.00</ele>
<time>2015-04-27T08:39:58Z</time>
</trkpt>
<trkpt lat="35.0757212" lon="32.5737279">
<ele>511.05</ele>
<time>2015-04-27T08:40:02Z</time>
</trkpt>
<trkpt lat="35.0757364" lon="32.5737891">
<ele>510.93</ele>
<time>2015-04-27T08:40:06Z</time>
</trkpt>
<trkpt lat="35.0757478" lon="32.5738499">
<ele>511.93</ele>
<time>2015-04-27T08:40:10Z</time>
</trkpt>
<trkpt lat="35.0757417" lon="32.5739096">
<ele>511.85</ele>
<time>2015-04-27T08:40:16Z</time>
</trkpt>
<trkpt lat="35.0757348" lon="32.5739674">
<ele>513.86</ele>
<time>2015-04-27T08:40:20Z</time>
</trkpt>
<trkpt lat="35.0757164" lon="32.5740281">
<ele>515.29</ele>
<time>2015-04-27T08:40:23Z</time>
</trkpt>
<trkpt lat="35.0757106" lon="32.5741028">
<ele>517.97</ele>
<time>2015-04-27T08:40:26Z</time>
</trkpt>
<trkpt lat="35.0757098" lon="32.5741700">
<ele>517.18</ele>
<time>2015-04-27T08:40:29Z</time>
</trkpt>
<trkpt lat="35.0757006" lon="32.5742256">
<ele>514.83</ele>
<time>2015-04-27T08:40:32Z</time>
</trkpt>
<trkpt lat="35.0756736" lon="32.5742882">
<ele>514.67</ele>
<time>2015-04-27T08:40:36Z</time>
</trkpt>
<trkpt lat="35.0756704" lon="32.5743494">
<ele>511.97</ele>
<time>2015-04-27T08:40:40Z</time>
</trkpt>
<trkpt lat="35.0756596" lon="32.5744088">
<ele>511.93</ele>
<time>2015-04-27T08:40:44Z</time>
</trkpt>
<trkpt lat="35.0756622" lon="32.5744715">
<ele>511.49</ele>
<time>2015-04-27T08:40:48Z</time>
</trkpt>
<trkpt lat="35.0756650" lon="32.5745339">
<ele>514.59</ele>
<time>2015-04-27T08:40:52Z</time>
</trkpt>
<trkpt lat="35.0756775" lon="32.5745944">
<ele>519.76</ele>
<time>2015-04-27T08:40:55Z</time>
</trkpt>
<trkpt lat="35.0756763" lon="32.5746526">
<ele>520.15</ele>
<time>2015-04-27T08:40:58Z</time>
</trkpt>
<trkpt lat="35.0756842" lon="32.5747099">
<ele>519.45</ele>
<time>2015-04-27T08:41:01Z</time>
</trkpt>
<trkpt lat="35.0756859" lon="32.5747748">
<ele>519.83</ele>
<time>2015-04-27T08:41:05Z</time>
</trkpt>
<trkpt lat="35.0756868" lon="32.5748330">
<ele>518.98</ele>
<time>2015-04-27T08:41:09Z</time>
</trkpt>
<trkpt lat="35.0756874" lon="32.5749013">
<ele>519.05</ele>
<time>2015-04-27T08:41:13Z</time>
</trkpt>
<trkpt lat="35.0756975" lon="32.5749671">
<ele>522.43</ele>
<time>2015-04-27T08:41:17Z</time>
</trkpt>
<trkpt lat="35.0756896" lon="32.5750333">
<ele>521.71</ele>
<time>2015-04-27T08:41:21Z</time>
</trkpt>
<trkpt lat="35.0756876" lon="32.5750998">
<ele>524.22</ele>
<time>2015-04-27T08:41:25Z</time>
</trkpt>
<trkpt lat="35.0756844" lon="32.5751708">
<ele>523.82</ele>
<time>2015-04-27T08:41:29Z</time>
</trkpt>
<trkpt lat="35.0756811" lon="32.5752448">
<ele>521.86</ele>
<time>2015-04-27T08:41:33Z</time>
</trkpt>
<trkpt lat="35.0756718" lon="32.5753124">
<ele>521.55</ele>
<time>2015-04-27T08:41:37Z</time>
</trkpt>
<trkpt lat="35.0756654" lon="32.5753825">
<ele>522.09</ele>
<time>2015-04-27T08:41:41Z</time>
</trkpt>
<trkpt lat="35.0756482" lon="32.5754525">
<ele>522.56</ele>
<time>2015-04-27T08:41:45Z</time>
</trkpt>
<trkpt lat="35.0756315" lon="32.5755222">
<ele>521.28</ele>
<time>2015-04-27T08:41:49Z</time>
</trkpt>
<trkpt lat="35.0756118" lon="32.5755733">
<ele>521.59</ele>
<time>2015-04-27T08:41:52Z</time>
</trkpt>
<trkpt lat="35.0756023" lon="32.5756374">
<ele>521.78</ele>
<time>2015-04-27T08:41:56Z</time>
</trkpt>
<trkpt lat="35.0756007" lon="32.5756966">
<ele>520.73</ele>
<time>2015-04-27T08:42:00Z</time>
</trkpt>
<trkpt lat="35.0756132" lon="32.5757528">
<ele>521.41</ele>
<time>2015-04-27T08:42:04Z</time>
</trkpt>
<trkpt lat="35.0756433" lon="32.5758036">
<ele>524.94</ele>
<time>2015-04-27T08:42:09Z</time>
</trkpt>
<trkpt lat="35.0756674" lon="32.5758581">
<ele>524.74</ele>
<time>2015-04-27T08:42:13Z</time>
</trkpt>
<trkpt lat="35.0756969" lon="32.5759151">
<ele>523.10</ele>
<time>2015-04-27T08:42:17Z</time>
</trkpt>
<trkpt lat="35.0757292" lon="32.5759712">
<ele>524.40</ele>
<time>2015-04-27T08:42:22Z</time>
</trkpt>
<trkpt lat="35.0757424" lon="32.5760318">
<ele>523.20</ele>
<time>2015-04-27T08:42:26Z</time>
</trkpt>
<trkpt lat="35.0757380" lon="32.5760915">
<ele>523.01</ele>
<time>2015-04-27T08:42:30Z</time>
</trkpt>
<trkpt lat="35.0757149" lon="32.5761489">
<ele>522.43</ele>
<time>2015-04-27T08:42:34Z</time>
</trkpt>
<trkpt lat="35.0756789" lon="32.5762000">
<ele>522.58</ele>
<time>2015-04-27T08:42:38Z</time>
</trkpt>
<trkpt lat="35.0756273" lon="32.5762360">
<ele>523.59</ele>
<time>2015-04-27T08:42:42Z</time>
</trkpt>
<trkpt lat="35.0756092" lon="32.5762872">
<ele>524.13</ele>
<time>2015-04-27T08:42:45Z</time>
</trkpt>
<trkpt lat="35.0755909" lon="32.5763394">
<ele>523.95</ele>
<time>2015-04-27T08:42:48Z</time>
</trkpt>
<trkpt lat="35.0755792" lon="32.5764074">
<ele>525.80</ele>
<time>2015-04-27T08:42:52Z</time>
</trkpt>
<trkpt lat="35.0755480" lon="32.5764594">
<ele>528.73</ele>
<time>2015-04-27T08:42:56Z</time>
</trkpt>
<trkpt lat="35.0755159" lon="32.5765119">
<ele>528.10</ele>
<time>2015-04-27T08:43:00Z</time>
</trkpt>
<trkpt lat="35.0754951" lon="32.5765762">
<ele>526.69</ele>
<time>2015-04-27T08:43:04Z</time>
</trkpt>
<trkpt lat="35.0754786" lon="32.5766367">
<ele>529.10</ele>
<time>2015-04-27T08:43:08Z</time>
</trkpt>
<trkpt lat="35.0754529" lon="32.5766880">
<ele>531.44</ele>
<time>2015-04-27T08:43:12Z</time>
</trkpt>
<trkpt lat="35.0754655" lon="32.5767532">
<ele>529.58</ele>
<time>2015-04-27T08:43:16Z</time>
</trkpt>
<trkpt lat="35.0754798" lon="32.5768057">
<ele>528.76</ele>
<time>2015-04-27T08:43:19Z</time>
</trkpt>
<trkpt lat="35.0755090" lon="32.5768529">
<ele>530.28</ele>
<time>2015-04-27T08:43:22Z</time>
</trkpt>
<trkpt lat="35.0755525" lon="32.5768828">
<ele>531.72</ele>
<time>2015-04-27T08:43:25Z</time>
</trkpt>
<trkpt lat="35.0755906" lon="32.5769159">
<ele>532.77</ele>
<time>2015-04-27T08:43:28Z</time>
</trkpt>
<trkpt lat="35.0756280" lon="32.5769531">
<ele>532.03</ele>
<time>2015-04-27T08:43:31Z</time>
</trkpt>
<trkpt lat="35.0756843" lon="32.5769663">
<ele>536.31</ele>
<time>2015-04-27T08:43:35Z</time>
</trkpt>
<trkpt lat="35.0757300" lon="32.5769842">
<ele>536.82</ele>
<time>2015-04-27T08:43:39Z</time>
</trkpt>
<trkpt lat="35.0757678" lon="32.5770324">
<ele>539.98</ele>
<time>2015-04-27T08:43:43Z</time>
</trkpt>
<trkpt lat="35.0758003" lon="32.5770714">
<ele>538.31</ele>
<time>2015-04-27T08:43:46Z</time>
</trkpt>
<trkpt lat="35.0758220" lon="32.5771257">
<ele>534.45</ele>
<time>2015-04-27T08:43:50Z</time>
</trkpt>
<trkpt lat="35.0758372" lon="32.5771781">
<ele>532.33</ele>
<time>2015-04-27T08:43:54Z</time>
</trkpt>
<trkpt lat="35.0758648" lon="32.5772456">
<ele>531.64</ele>
<time>2015-04-27T08:43:58Z</time>
</trkpt>
<trkpt lat="35.0758746" lon="32.5773034">
<ele>532.01</ele>
<time>2015-04-27T08:44:01Z</time>
</trkpt>
<trkpt lat="35.0758698" lon="32.5773742">
<ele>531.49</ele>
<time>2015-04-27T08:44:05Z</time>
</trkpt>
<trkpt lat="35.0758742" lon="32.5774358">
<ele>532.37</ele>
<time>2015-04-27T08:44:08Z</time>
</trkpt>
<trkpt lat="35.0758678" lon="32.5774906">
<ele>534.73</ele>
<time>2015-04-27T08:44:11Z</time>
</trkpt>
<trkpt lat="35.0758472" lon="32.5775397">
<ele>534.28</ele>
<time>2015-04-27T08:44:14Z</time>
</trkpt>
<trkpt lat="35.0758186" lon="32.5775921">
<ele>535.45</ele>
<time>2015-04-27T08:44:18Z</time>
</trkpt>
<trkpt lat="35.0757819" lon="32.5776348">
<ele>536.96</ele>
<time>2015-04-27T08:44:22Z</time>
</trkpt>
<trkpt lat="35.0757418" lon="32.5776759">
<ele>535.99</ele>
<time>2015-04-27T08:44:26Z</time>
</trkpt>
<trkpt lat="35.0756975" lon="32.5776894">
<ele>538.43</ele>
<time>2015-04-27T08:44:29Z</time>
</trkpt>
<trkpt lat="35.0756392" lon="32.5776840">
<ele>538.89</ele>
<time>2015-04-27T08:44:33Z</time>
</trkpt>
<trkpt lat="35.0755838" lon="32.5776862">
<ele>538.05</ele>
<time>2015-04-27T08:44:37Z</time>
</trkpt>
<trkpt lat="35.0755325" lon="32.5776913">
<ele>540.81</ele>
<time>2015-04-27T08:44:41Z</time>
</trkpt>
<trkpt lat="35.0754770" lon="32.5776923">
<ele>542.67</ele>
<time>2015-04-27T08:44:45Z</time>
</trkpt>
<trkpt lat="35.0754310" lon="32.5776886">
<ele>542.14</ele>
<time>2015-04-27T08:44:48Z</time>
</trkpt>
<trkpt lat="35.0753751" lon="32.5776820">
<ele>542.75</ele>
<time>2015-04-27T08:44:52Z</time>
</trkpt>
<trkpt lat="35.0753218" lon="32.5776970">
<ele>545.85</ele>
<time>2015-04-27T08:44:56Z</time>
</trkpt>
<trkpt lat="35.0752648" lon="32.5777084">
<ele>548.61</ele>
<time>2015-04-27T08:45:00Z</time>
</trkpt>
<trkpt lat="35.0752153" lon="32.5777162">
<ele>550.53</ele>
<time>2015-04-27T08:45:04Z</time>
</trkpt>
<trkpt lat="35.0751630" lon="32.5777227">
<ele>552.84</ele>
<time>2015-04-27T08:45:08Z</time>
</trkpt>
<trkpt lat="35.0751147" lon="32.5777264">
<ele>555.79</ele>
<time>2015-04-27T08:45:11Z</time>
</trkpt>
<trkpt lat="35.0750656" lon="32.5777372">
<ele>555.78</ele>
<time>2015-04-27T08:45:14Z</time>
</trkpt>
<trkpt lat="35.0750162" lon="32.5777679">
<ele>554.28</ele>
<time>2015-04-27T08:45:17Z</time>
</trkpt>
<trkpt lat="35.0749715" lon="32.5778091">
<ele>555.45</ele>
<time>2015-04-27T08:45:21Z</time>
</trkpt>
<trkpt lat="35.0749533" lon="32.5778774">
<ele>553.71</ele>
<time>2015-04-27T08:45:25Z</time>
</trkpt>
<trkpt lat="35.0749765" lon="32.5779332">
<ele>552.27</ele>
<time>2015-04-27T08:45:28Z</time>
</trkpt>
<trkpt lat="35.0750042" lon="32.5779825">
<ele>552.97</ele>
<time>2015-04-27T08:45:31Z</time>
</trkpt>
<trkpt lat="35.0750428" lon="32.5780251">
<ele>551.93</ele>
<time>2015-04-27T08:45:34Z</time>
</trkpt>
<trkpt lat="35.0750823" lon="32.5780655">
<ele>552.05</ele>
<time>2015-04-27T08:45:37Z</time>
</trkpt>
<trkpt lat="35.0751155" lon="32.5781100">
<ele>552.07</ele>
<time>2015-04-27T08:45:40Z</time>
</trkpt>
<trkpt lat="35.0751526" lon="32.5781484">
<ele>551.69</ele>
<time>2015-04-27T08:45:43Z</time>
</trkpt>
<trkpt lat="35.0751917" lon="32.5781776">
<ele>552.77</ele>
<time>2015-04-27T08:45:46Z</time>
</trkpt>
<trkpt lat="35.0752393" lon="32.5782150">
<ele>555.42</ele>
<time>2015-04-27T08:45:50Z</time>
</trkpt>
<trkpt lat="35.0752737" lon="32.5782519">
<ele>553.61</ele>
<time>2015-04-27T08:45:53Z</time>
</trkpt>
<trkpt lat="35.0753132" lon="32.5782796">
<ele>552.76</ele>
<time>2015-04-27T08:45:56Z</time>
</trkpt>
<trkpt lat="35.0753609" lon="32.5783229">
<ele>550.29</ele>
<time>2015-04-27T08:46:00Z</time>
</trkpt>
<trkpt lat="35.0753932" lon="32.5783732">
<ele>551.01</ele>
<time>2015-04-27T08:46:04Z</time>
</trkpt>
<trkpt lat="35.0754252" lon="32.5784249">
<ele>550.06</ele>
<time>2015-04-27T08:46:08Z</time>
</trkpt>
<trkpt lat="35.0754639" lon="32.5784737">
<ele>550.68</ele>
<time>2015-04-27T08:46:12Z</time>
</trkpt>
<trkpt lat="35.0755005" lon="32.5785252">
<ele>550.78</ele>
<time>2015-04-27T08:46:16Z</time>
</trkpt>
<trkpt lat="35.0755165" lon="32.5785793">
<ele>549.03</ele>
<time>2015-04-27T08:46:19Z</time>
</trkpt>
<trkpt lat="35.0755382" lon="32.5786290">
<ele>549.69</ele>
<time>2015-04-27T08:46:22Z</time>
</trkpt>
<trkpt lat="35.0755558" lon="32.5786902">
<ele>550.02</ele>
<time>2015-04-27T08:46:25Z</time>
</trkpt>
<trkpt lat="35.0755616" lon="32.5787470">
<ele>549.94</ele>
<time>2015-04-27T08:46:28Z</time>
</trkpt>
<trkpt lat="35.0755711" lon="32.5788015">
<ele>548.55</ele>
<time>2015-04-27T08:46:31Z</time>
</trkpt>
<trkpt lat="35.0755961" lon="32.5788639">
<ele>548.71</ele>
<time>2015-04-27T08:46:35Z</time>
</trkpt>
<trkpt lat="35.0756336" lon="32.5789192">
<ele>549.10</ele>
<time>2015-04-27T08:46:39Z</time>
</trkpt>
<trkpt lat="35.0756710" lon="32.5789709">
<ele>548.25</ele>
<time>2015-04-27T08:46:43Z</time>
</trkpt>
<trkpt lat="35.0756995" lon="32.5790143">
<ele>548.59</ele>
<time>2015-04-27T08:46:46Z</time>
</trkpt>
<trkpt lat="35.0757254" lon="32.5790600">
<ele>550.13</ele>
<time>2015-04-27T08:46:49Z</time>
</trkpt>
<trkpt lat="35.0757540" lon="32.5791162">
<ele>551.31</ele>
<time>2015-04-27T08:46:53Z</time>
</trkpt>
<trkpt lat="35.0757912" lon="32.5791682">
<ele>551.20</ele>
<time>2015-04-27T08:46:57Z</time>
</trkpt>
<trkpt lat="35.0758097" lon="32.5792304">
<ele>548.57</ele>
<time>2015-04-27T08:47:01Z</time>
</trkpt>
<trkpt lat="35.0758205" lon="32.5792894">
<ele>550.97</ele>
<time>2015-04-27T08:47:05Z</time>
</trkpt>
<trkpt lat="35.0758358" lon="32.5793484">
<ele>549.30</ele>
<time>2015-04-27T08:47:09Z</time>
</trkpt>
<trkpt lat="35.0758391" lon="32.5794104">
<ele>550.64</ele>
<time>2015-04-27T08:47:13Z</time>
</trkpt>
<trkpt lat="35.0758348" lon="32.5794698">
<ele>551.41</ele>
<time>2015-04-27T08:47:17Z</time>
</trkpt>
<trkpt lat="35.0757982" lon="32.5795182">
<ele>552.77</ele>
<time>2015-04-27T08:47:21Z</time>
</trkpt>
<trkpt lat="35.0757744" lon="32.5795756">
<ele>553.85</ele>
<time>2015-04-27T08:47:25Z</time>
</trkpt>
<trkpt lat="35.0757355" lon="32.5796180">
<ele>554.36</ele>
<time>2015-04-27T08:47:29Z</time>
</trkpt>
<trkpt lat="35.0756849" lon="32.5796425">
<ele>554.45</ele>
<time>2015-04-27T08:47:33Z</time>
</trkpt>
<trkpt lat="35.0756399" lon="32.5796393">
<ele>554.37</ele>
<time>2015-04-27T08:47:36Z</time>
</trkpt>
<trkpt lat="35.0755961" lon="32.5796237">
<ele>555.61</ele>
<time>2015-04-27T08:47:39Z</time>
</trkpt>
<trkpt lat="35.0755414" lon="32.5796047">
<ele>555.78</ele>
<time>2015-04-27T08:47:43Z</time>
</trkpt>
<trkpt lat="35.0754889" lon="32.5795992">
<ele>555.17</ele>
<time>2015-04-27T08:47:47Z</time>
</trkpt>
<trkpt lat="35.0754303" lon="32.5796007">
<ele>559.25</ele>
<time>2015-04-27T08:47:51Z</time>
</trkpt>
<trkpt lat="35.0753843" lon="32.5795908">
<ele>562.47</ele>
<time>2015-04-27T08:47:54Z</time>
</trkpt>
<trkpt lat="35.0753389" lon="32.5795854">
<ele>563.24</ele>
<time>2015-04-27T08:47:57Z</time>
</trkpt>
<trkpt lat="35.0752814" lon="32.5795808">
<ele>565.94</ele>
<time>2015-04-27T08:48:01Z</time>
</trkpt>
<trkpt lat="35.0752306" lon="32.5795994">
<ele>564.74</ele>
<time>2015-04-27T08:48:05Z</time>
</trkpt>
<trkpt lat="35.0751882" lon="32.5796365">
<ele>562.16</ele>
<time>2015-04-27T08:48:09Z</time>
</trkpt>
<trkpt lat="35.0751487" lon="32.5796798">
<ele>560.25</ele>
<time>2015-04-27T08:48:13Z</time>
</trkpt>
<trkpt lat="35.0751166" lon="32.5797379">
<ele>558.26</ele>
<time>2015-04-27T08:48:17Z</time>
</trkpt>
<trkpt lat="35.0751179" lon="32.5798075">
<ele>554.82</ele>
<time>2015-04-27T08:48:21Z</time>
</trkpt>
<trkpt lat="35.0751061" lon="32.5798699">
<ele>553.42</ele>
<time>2015-04-27T08:48:25Z</time>
</trkpt>
<trkpt lat="35.0750904" lon="32.5799294">
<ele>555.39</ele>
<time>2015-04-27T08:48:29Z</time>
</trkpt>
<trkpt lat="35.0750824" lon="32.5799919">
<ele>557.52</ele>
<time>2015-04-27T08:48:33Z</time>
</trkpt>
<trkpt lat="35.0750420" lon="32.5800411">
<ele>559.40</ele>
<time>2015-04-27T08:48:37Z</time>
</trkpt>
<trkpt lat="35.0750114" lon="32.5800835">
<ele>558.11</ele>
<time>2015-04-27T08:48:40Z</time>
</trkpt>
<trkpt lat="35.0749780" lon="32.5801281">
<ele>558.32</ele>
<time>2015-04-27T08:48:43Z</time>
</trkpt>
<trkpt lat="35.0749481" lon="32.5801728">
<ele>556.72</ele>
<time>2015-04-27T08:48:46Z</time>
</trkpt>
<trkpt lat="35.0749073" lon="32.5802253">
<ele>558.29</ele>
<time>2015-04-27T08:48:50Z</time>
</trkpt>
<trkpt lat="35.0748860" lon="32.5802744">
<ele>560.35</ele>
<time>2015-04-27T08:48:53Z</time>
</trkpt>
<trkpt lat="35.0748715" lon="32.5803393">
<ele>561.20</ele>
<time>2015-04-27T08:48:57Z</time>
</trkpt>
<trkpt lat="35.0748492" lon="32.5803990">
<ele>560.94</ele>
<time>2015-04-27T08:49:01Z</time>
</trkpt>
<trkpt lat="35.0748428" lon="32.5804582">
<ele>561.80</ele>
<time>2015-04-27T08:49:05Z</time>
</trkpt>
<trkpt lat="35.0748473" lon="32.5805243">
<ele>562.92</ele>
<time>2015-04-27T08:49:09Z</time>
</trkpt>
<trkpt lat="35.0748499" lon="32.5805942">
<ele>563.67</ele>
<time>2015-04-27T08:49:13Z</time>
</trkpt>
<trkpt lat="35.0748469" lon="32.5806624">
<ele>562.03</ele>
<time>2015-04-27T08:49:17Z</time>
</trkpt>
<trkpt lat="35.0748225" lon="32.5807214">
<ele>564.49</ele>
<time>2015-04-27T08:49:21Z</time>
</trkpt>
<trkpt lat="35.0747761" lon="32.5807267">
<ele>569.93</ele>
<time>2015-04-27T09:05:04Z</time>
</trkpt>
<trkpt lat="35.0747218" lon="32.5807574">
<ele>570.05</ele>
<time>2015-04-27T09:05:08Z</time>
</trkpt>
<trkpt lat="35.0746755" lon="32.5807788">
<ele>569.94</ele>
<time>2015-04-27T09:05:11Z</time>
</trkpt>
<trkpt lat="35.0746284" lon="32.5808009">
<ele>569.68</ele>
<time>2015-04-27T09:05:14Z</time>
</trkpt>
<trkpt lat="35.0745826" lon="32.5808259">
<ele>569.14</ele>
<time>2015-04-27T09:05:17Z</time>
</trkpt>
<trkpt lat="35.0745401" lon="32.5808567">
<ele>568.70</ele>
<time>2015-04-27T09:05:20Z</time>
</trkpt>
<trkpt lat="35.0744918" lon="32.5808962">
<ele>567.10</ele>
<time>2015-04-27T09:05:24Z</time>
</trkpt>
<trkpt lat="35.0744560" lon="32.5809535">
<ele>566.94</ele>
<time>2015-04-27T09:05:28Z</time>
</trkpt>
<trkpt lat="35.0744278" lon="32.5809993">
<ele>569.43</ele>
<time>2015-04-27T09:05:31Z</time>
</trkpt>
<trkpt lat="35.0744015" lon="32.5810484">
<ele>568.74</ele>
<time>2015-04-27T09:05:34Z</time>
</trkpt>
<trkpt lat="35.0743750" lon="32.5811050">
<ele>568.54</ele>
<time>2015-04-27T09:05:38Z</time>
</trkpt>
<trkpt lat="35.0743555" lon="32.5811579">
<ele>569.65</ele>
<time>2015-04-27T09:05:42Z</time>
</trkpt>
<trkpt lat="35.0743142" lon="32.5812017">
<ele>570.04</ele>
<time>2015-04-27T09:05:47Z</time>
</trkpt>
<trkpt lat="35.0742598" lon="32.5812132">
<ele>569.93</ele>
<time>2015-04-27T09:05:51Z</time>
</trkpt>
<trkpt lat="35.0742084" lon="32.5812080">
<ele>569.80</ele>
<time>2015-04-27T09:05:54Z</time>
</trkpt>
<trkpt lat="35.0741639" lon="32.5812001">
<ele>569.03</ele>
<time>2015-04-27T09:05:57Z</time>
</trkpt>
<trkpt lat="35.0741194" lon="32.5811821">
<ele>569.06</ele>
<time>2015-04-27T09:06:00Z</time>
</trkpt>
<trkpt lat="35.0740749" lon="32.5811625">
<ele>568.44</ele>
<time>2015-04-27T09:06:03Z</time>
</trkpt>
<trkpt lat="35.0740245" lon="32.5811472">
<ele>568.61</ele>
<time>2015-04-27T09:06:06Z</time>
</trkpt>
<trkpt lat="35.0739740" lon="32.5811343">
<ele>569.64</ele>
<time>2015-04-27T09:06:09Z</time>
</trkpt>
<trkpt lat="35.0739281" lon="32.5811105">
<ele>571.51</ele>
<time>2015-04-27T09:06:12Z</time>
</trkpt>
<trkpt lat="35.0738871" lon="32.5810795">
<ele>573.12</ele>
<time>2015-04-27T09:06:15Z</time>
</trkpt>
<trkpt lat="35.0738350" lon="32.5810504">
<ele>574.44</ele>
<time>2015-04-27T09:06:19Z</time>
</trkpt>
<trkpt lat="35.0737895" lon="32.5810229">
<ele>573.11</ele>
<time>2015-04-27T09:06:22Z</time>
</trkpt>
<trkpt lat="35.0737492" lon="32.5809915">
<ele>572.07</ele>
<time>2015-04-27T09:06:25Z</time>
</trkpt>
<trkpt lat="35.0736946" lon="32.5809763">
<ele>571.44</ele>
<time>2015-04-27T09:06:28Z</time>
</trkpt>
<trkpt lat="35.0736512" lon="32.5809452">
<ele>571.36</ele>
<time>2015-04-27T09:06:31Z</time>
</trkpt>
<trkpt lat="35.0736103" lon="32.5809126">
<ele>571.85</ele>
<time>2015-04-27T09:06:34Z</time>
</trkpt>
<trkpt lat="35.0735679" lon="32.5808922">
<ele>571.04</ele>
<time>2015-04-27T09:06:37Z</time>
</trkpt>
<trkpt lat="35.0735183" lon="32.5808730">
<ele>569.81</ele>
<time>2015-04-27T09:06:41Z</time>
</trkpt>
<trkpt lat="35.0734691" lon="32.5808460">
<ele>569.42</ele>
<time>2015-04-27T09:06:45Z</time>
</trkpt>
<trkpt lat="35.0734118" lon="32.5808408">
<ele>570.64</ele>
<time>2015-04-27T09:06:49Z</time>
</trkpt>
<trkpt lat="35.0733572" lon="32.5808436">
<ele>570.22</ele>
<time>2015-04-27T09:06:53Z</time>
</trkpt>
<trkpt lat="35.0733063" lon="32.5808803">
<ele>574.26</ele>
<time>2015-04-27T09:06:57Z</time>
</trkpt>
<trkpt lat="35.0732830" lon="32.5809289">
<ele>576.84</ele>
<time>2015-04-27T09:07:00Z</time>
</trkpt>
<trkpt lat="35.0732803" lon="32.5809864">
<ele>578.04</ele>
<time>2015-04-27T09:07:04Z</time>
</trkpt>
<trkpt lat="35.0732742" lon="32.5810509">
<ele>580.24</ele>
<time>2015-04-27T09:07:08Z</time>
</trkpt>
<trkpt lat="35.0732930" lon="32.5811144">
<ele>582.87</ele>
<time>2015-04-27T09:07:13Z</time>
</trkpt>
<trkpt lat="35.0732973" lon="32.5811717">
<ele>584.11</ele>
<time>2015-04-27T09:07:18Z</time>
</trkpt>
<trkpt lat="35.0733089" lon="32.5812250">
<ele>583.93</ele>
<time>2015-04-27T09:07:23Z</time>
</trkpt>
<trkpt lat="35.0733137" lon="32.5812852">
<ele>579.89</ele>
<time>2015-04-27T09:07:28Z</time>
</trkpt>
<trkpt lat="35.0733233" lon="32.5813463">
<ele>577.61</ele>
<time>2015-04-27T09:07:33Z</time>
</trkpt>
<trkpt lat="35.0733289" lon="32.5814021">
<ele>578.78</ele>
<time>2015-04-27T09:07:37Z</time>
</trkpt>
<trkpt lat="35.0733462" lon="32.5814582">
<ele>581.67</ele>
<time>2015-04-27T09:07:41Z</time>
</trkpt>
<trkpt lat="35.0733517" lon="32.5815140">
<ele>582.35</ele>
<time>2015-04-27T09:07:45Z</time>
</trkpt>
<trkpt lat="35.0733660" lon="32.5815662">
<ele>583.83</ele>
<time>2015-04-27T09:07:49Z</time>
</trkpt>
<trkpt lat="35.0733716" lon="32.5816342">
<ele>585.52</ele>
<time>2015-04-27T09:07:54Z</time>
</trkpt>
<trkpt lat="35.0733769" lon="32.5816932">
<ele>584.40</ele>
<time>2015-04-27T09:07:58Z</time>
</trkpt>
<trkpt lat="35.0733776" lon="32.5817578">
<ele>584.88</ele>
<time>2015-04-27T09:08:03Z</time>
</trkpt>
<trkpt lat="35.0733865" lon="32.5818149">
<ele>585.80</ele>
<time>2015-04-27T09:08:07Z</time>
</trkpt>
<trkpt lat="35.0734132" lon="32.5818662">
<ele>585.48</ele>
<time>2015-04-27T09:08:11Z</time>
</trkpt>
<trkpt lat="35.0734087" lon="32.5819320">
<ele>585.71</ele>
<time>2015-04-27T09:08:15Z</time>
</trkpt>
<trkpt lat="35.0733979" lon="32.5819998">
<ele>585.16</ele>
<time>2015-04-27T09:08:19Z</time>
</trkpt>
<trkpt lat="35.0733705" lon="32.5820558">
<ele>584.31</ele>
<time>2015-04-27T09:08:23Z</time>
</trkpt>
<trkpt lat="35.0733408" lon="32.5821090">
<ele>584.89</ele>
<time>2015-04-27T09:08:27Z</time>
</trkpt>
<trkpt lat="35.0733023" lon="32.5821496">
<ele>586.36</ele>
<time>2015-04-27T09:08:31Z</time>
</trkpt>
<trkpt lat="35.0732595" lon="32.5821818">
<ele>586.89</ele>
<time>2015-04-27T09:08:35Z</time>
</trkpt>
<trkpt lat="35.0732124" lon="32.5822151">
<ele>586.92</ele>
<time>2015-04-27T09:08:39Z</time>
</trkpt>
<trkpt lat="35.0731556" lon="32.5822332">
<ele>586.92</ele>
<time>2015-04-27T09:08:43Z</time>
</trkpt>
<trkpt lat="35.0731126" lon="32.5822513">
<ele>586.17</ele>
<time>2015-04-27T09:08:46Z</time>
</trkpt>
<trkpt lat="35.0730584" lon="32.5822774">
<ele>586.19</ele>
<time>2015-04-27T09:08:50Z</time>
</trkpt>
<trkpt lat="35.0730189" lon="32.5823054">
<ele>585.71</ele>
<time>2015-04-27T09:08:53Z</time>
</trkpt>
<trkpt lat="35.0729671" lon="32.5823273">
<ele>584.41</ele>
<time>2015-04-27T09:08:57Z</time>
</trkpt>
<trkpt lat="35.0729168" lon="32.5823447">
<ele>581.83</ele>
<time>2015-04-27T09:09:01Z</time>
</trkpt>
<trkpt lat="35.0728713" lon="32.5823723">
<ele>580.79</ele>
<time>2015-04-27T09:09:05Z</time>
</trkpt>
<trkpt lat="35.0728203" lon="32.5823889">
<ele>581.35</ele>
<time>2015-04-27T09:09:09Z</time>
</trkpt>
<trkpt lat="35.0727723" lon="32.5824068">
<ele>580.20</ele>
<time>2015-04-27T09:09:13Z</time>
</trkpt>
<trkpt lat="35.0727256" lon="32.5824167">
<ele>579.25</ele>
<time>2015-04-27T09:09:17Z</time>
</trkpt>
<trkpt lat="35.0726839" lon="32.5824394">
<ele>579.13</ele>
<time>2015-04-27T09:09:21Z</time>
</trkpt>
<trkpt lat="35.0726336" lon="32.5824699">
<ele>578.21</ele>
<time>2015-04-27T09:09:26Z</time>
</trkpt>
<trkpt lat="35.0726011" lon="32.5825108">
<ele>577.57</ele>
<time>2015-04-27T09:09:30Z</time>
</trkpt>
<trkpt lat="35.0725604" lon="32.5825411">
<ele>575.28</ele>
<time>2015-04-27T09:09:34Z</time>
</trkpt>
<trkpt lat="35.0725190" lon="32.5825882">
<ele>574.20</ele>
<time>2015-04-27T09:09:38Z</time>
</trkpt>
<trkpt lat="35.0724791" lon="32.5826312">
<ele>573.50</ele>
<time>2015-04-27T09:09:42Z</time>
</trkpt>
<trkpt lat="35.0724494" lon="32.5826811">
<ele>572.65</ele>
<time>2015-04-27T09:09:46Z</time>
</trkpt>
<trkpt lat="35.0724023" lon="32.5827112">
<ele>571.28</ele>
<time>2015-04-27T09:09:50Z</time>
</trkpt>
<trkpt lat="35.0723600" lon="32.5827388">
<ele>569.63</ele>
<time>2015-04-27T09:09:54Z</time>
</trkpt>
<trkpt lat="35.0723182" lon="32.5827710">
<ele>571.34</ele>
<time>2015-04-27T09:09:58Z</time>
</trkpt>
<trkpt lat="35.0722700" lon="32.5828093">
<ele>572.14</ele>
<time>2015-04-27T09:10:02Z</time>
</trkpt>
<trkpt lat="35.0722146" lon="32.5828292">
<ele>570.50</ele>
<time>2015-04-27T09:10:06Z</time>
</trkpt>
<trkpt lat="35.0721591" lon="32.5828325">
<ele>569.15</ele>
<time>2015-04-27T09:10:10Z</time>
</trkpt>
<trkpt lat="35.0720974" lon="32.5828336">
<ele>569.69</ele>
<time>2015-04-27T09:10:14Z</time>
</trkpt>
<trkpt lat="35.0720377" lon="32.5828255">
<ele>567.77</ele>
<time>2015-04-27T09:10:17Z</time>
</trkpt>
<trkpt lat="35.0719864" lon="32.5828223">
<ele>568.28</ele>
<time>2015-04-27T09:10:20Z</time>
</trkpt>
<trkpt lat="35.0719352" lon="32.5828278">
<ele>570.09</ele>
<time>2015-04-27T09:10:23Z</time>
</trkpt>
<trkpt lat="35.0718843" lon="32.5828369">
<ele>571.57</ele>
<time>2015-04-27T09:10:26Z</time>
</trkpt>
<trkpt lat="35.0718361" lon="32.5828370">
<ele>571.38</ele>
<time>2015-04-27T09:10:29Z</time>
</trkpt>
<trkpt lat="35.0717882" lon="32.5828512">
<ele>573.11</ele>
<time>2015-04-27T09:10:32Z</time>
</trkpt>
<trkpt lat="35.0717379" lon="32.5828651">
<ele>573.82</ele>
<time>2015-04-27T09:10:35Z</time>
</trkpt>
<trkpt lat="35.0716854" lon="32.5828618">
<ele>573.91</ele>
<time>2015-04-27T09:10:38Z</time>
</trkpt>
<trkpt lat="35.0716342" lon="32.5828658">
<ele>574.67</ele>
<time>2015-04-27T09:10:41Z</time>
</trkpt>
<trkpt lat="35.0715849" lon="32.5828750">
<ele>573.14</ele>
<time>2015-04-27T09:10:44Z</time>
</trkpt>
<trkpt lat="35.0715377" lon="32.5828983">
<ele>574.83</ele>
<time>2015-04-27T09:10:47Z</time>
</trkpt>
<trkpt lat="35.0714936" lon="32.5829192">
<ele>575.54</ele>
<time>2015-04-27T09:10:50Z</time>
</trkpt>
<trkpt lat="35.0714499" lon="32.5829368">
<ele>577.13</ele>
<time>2015-04-27T09:10:53Z</time>
</trkpt>
<trkpt lat="35.0714056" lon="32.5829553">
<ele>579.20</ele>
<time>2015-04-27T09:10:56Z</time>
</trkpt>
<trkpt lat="35.0713608" lon="32.5829696">
<ele>581.71</ele>
<time>2015-04-27T09:10:59Z</time>
</trkpt>
<trkpt lat="35.0713054" lon="32.5829684">
<ele>582.97</ele>
<time>2015-04-27T09:11:03Z</time>
</trkpt>
<trkpt lat="35.0712560" lon="32.5829788">
<ele>584.18</ele>
<time>2015-04-27T09:11:07Z</time>
</trkpt>
<trkpt lat="35.0712040" lon="32.5829880">
<ele>585.75</ele>
<time>2015-04-27T09:11:11Z</time>
</trkpt>
<trkpt lat="35.0711574" lon="32.5829989">
<ele>586.54</ele>
<time>2015-04-27T09:11:15Z</time>
</trkpt>
<trkpt lat="35.0711100" lon="32.5830114">
<ele>587.40</ele>
<time>2015-04-27T09:11:19Z</time>
</trkpt>
<trkpt lat="35.0710620" lon="32.5830426">
<ele>589.33</ele>
<time>2015-04-27T09:11:23Z</time>
</trkpt>
<trkpt lat="35.0710198" lon="32.5830958">
<ele>590.83</ele>
<time>2015-04-27T09:11:27Z</time>
</trkpt>
<trkpt lat="35.0709888" lon="32.5831366">
<ele>590.91</ele>
<time>2015-04-27T09:11:30Z</time>
</trkpt>
<trkpt lat="35.0709453" lon="32.5831829">
<ele>590.55</ele>
<time>2015-04-27T09:11:34Z</time>
</trkpt>
<trkpt lat="35.0708976" lon="32.5832236">
<ele>591.34</ele>
<time>2015-04-27T09:11:38Z</time>
</trkpt>
<trkpt lat="35.0708499" lon="32.5832488">
<ele>591.39</ele>
<time>2015-04-27T09:11:42Z</time>
</trkpt>
<trkpt lat="35.0708004" lon="32.5832841">
<ele>592.85</ele>
<time>2015-04-27T09:11:47Z</time>
</trkpt>
<trkpt lat="35.0707476" lon="32.5833008">
<ele>593.92</ele>
<time>2015-04-27T09:11:51Z</time>
</trkpt>
<trkpt lat="35.0707007" lon="32.5833078">
<ele>595.36</ele>
<time>2015-04-27T09:11:55Z</time>
</trkpt>
<trkpt lat="35.0706456" lon="32.5833111">
<ele>596.39</ele>
<time>2015-04-27T09:11:59Z</time>
</trkpt>
<trkpt lat="35.0705875" lon="32.5833070">
<ele>596.02</ele>
<time>2015-04-27T09:12:03Z</time>
</trkpt>
<trkpt lat="35.0705302" lon="32.5833080">
<ele>596.87</ele>
<time>2015-04-27T09:12:07Z</time>
</trkpt>
<trkpt lat="35.0704779" lon="32.5832950">
<ele>596.92</ele>
<time>2015-04-27T09:12:11Z</time>
</trkpt>
<trkpt lat="35.0704235" lon="32.5832996">
<ele>597.67</ele>
<time>2015-04-27T09:12:15Z</time>
</trkpt>
<trkpt lat="35.0703681" lon="32.5833037">
<ele>600.22</ele>
<time>2015-04-27T09:12:19Z</time>
</trkpt>
<trkpt lat="35.0703145" lon="32.5833024">
<ele>600.38</ele>
<time>2015-04-27T09:12:23Z</time>
</trkpt>
<trkpt lat="35.0702617" lon="32.5832970">
<ele>599.45</ele>
<time>2015-04-27T09:12:27Z</time>
</trkpt>
<trkpt lat="35.0702096" lon="32.5832917">
<ele>600.15</ele>
<time>2015-04-27T09:12:31Z</time>
</trkpt>
<trkpt lat="35.0701586" lon="32.5833025">
<ele>601.25</ele>
<time>2015-04-27T09:12:35Z</time>
</trkpt>
<trkpt lat="35.0701248" lon="32.5833476">
<ele>601.44</ele>
<time>2015-04-27T09:12:40Z</time>
</trkpt>
<trkpt lat="35.0701119" lon="32.5834141">
<ele>604.32</ele>
<time>2015-04-27T09:12:45Z</time>
</trkpt>
<trkpt lat="35.0701096" lon="32.5834821">
<ele>610.07</ele>
<time>2015-04-27T09:12:49Z</time>
</trkpt>
<trkpt lat="35.0701331" lon="32.5835386">
<ele>612.25</ele>
<time>2015-04-27T09:12:53Z</time>
</trkpt>
<trkpt lat="35.0701539" lon="32.5835907">
<ele>613.51</ele>
<time>2015-04-27T09:12:57Z</time>
</trkpt>
<trkpt lat="35.0701764" lon="32.5836459">
<ele>614.51</ele>
<time>2015-04-27T09:13:02Z</time>
</trkpt>
<trkpt lat="35.0702007" lon="32.5837055">
<ele>613.32</ele>
<time>2015-04-27T09:13:07Z</time>
</trkpt>
<trkpt lat="35.0702240" lon="32.5837580">
<ele>612.45</ele>
<time>2015-04-27T09:13:11Z</time>
</trkpt>
<trkpt lat="35.0702467" lon="32.5838112">
<ele>611.83</ele>
<time>2015-04-27T09:13:15Z</time>
</trkpt>
<trkpt lat="35.0702778" lon="32.5838693">
<ele>612.36</ele>
<time>2015-04-27T09:13:19Z</time>
</trkpt>
<trkpt lat="35.0702821" lon="32.5839242">
<ele>612.01</ele>
<time>2015-04-27T09:13:23Z</time>
</trkpt>
<trkpt lat="35.0702692" lon="32.5839875">
<ele>609.21</ele>
<time>2015-04-27T09:13:28Z</time>
</trkpt>
<trkpt lat="35.0702578" lon="32.5840414">
<ele>608.88</ele>
<time>2015-04-27T09:13:32Z</time>
</trkpt>
<trkpt lat="35.0702493" lon="32.5841020">
<ele>609.67</ele>
<time>2015-04-27T09:13:36Z</time>
</trkpt>
<trkpt lat="35.0702292" lon="32.5841611">
<ele>612.85</ele>
<time>2015-04-27T09:13:40Z</time>
</trkpt>
<trkpt lat="35.0702139" lon="32.5842192">
<ele>615.23</ele>
<time>2015-04-27T09:13:44Z</time>
</trkpt>
<trkpt lat="35.0701883" lon="32.5842703">
<ele>617.01</ele>
<time>2015-04-27T09:13:48Z</time>
</trkpt>
<trkpt lat="35.0701717" lon="32.5843257">
<ele>619.24</ele>
<time>2015-04-27T09:13:52Z</time>
</trkpt>
<trkpt lat="35.0701649" lon="32.5843826">
<ele>620.63</ele>
<time>2015-04-27T09:13:56Z</time>
</trkpt>
<trkpt lat="35.0701677" lon="32.5844419">
<ele>622.34</ele>
<time>2015-04-27T09:14:00Z</time>
</trkpt>
<trkpt lat="35.0701832" lon="32.5845055">
<ele>623.14</ele>
<time>2015-04-27T09:14:04Z</time>
</trkpt>
<trkpt lat="35.0702034" lon="32.5845647">
<ele>624.31</ele>
<time>2015-04-27T09:14:08Z</time>
</trkpt>
<trkpt lat="35.0702478" lon="32.5846035">
<ele>629.22</ele>
<time>2015-04-27T09:14:13Z</time>
</trkpt>
<trkpt lat="35.0702964" lon="32.5845997">
<ele>629.50</ele>
<time>2015-04-27T09:14:18Z</time>
</trkpt>
<trkpt lat="35.0703434" lon="32.5845781">
<ele>626.82</ele>
<time>2015-04-27T09:14:23Z</time>
</trkpt>
<trkpt lat="35.0703833" lon="32.5845418">
<ele>624.48</ele>
<time>2015-04-27T09:14:28Z</time>
</trkpt>
<trkpt lat="35.0704262" lon="32.5844979">
<ele>623.94</ele>
<time>2015-04-27T09:14:33Z</time>
</trkpt>
<trkpt lat="35.0704698" lon="32.5844673">
<ele>623.18</ele>
<time>2015-04-27T09:14:37Z</time>
</trkpt>
<trkpt lat="35.0705124" lon="32.5844352">
<ele>621.32</ele>
<time>2015-04-27T09:14:41Z</time>
</trkpt>
<trkpt lat="35.0705558" lon="32.5844004">
<ele>620.20</ele>
<time>2015-04-27T09:14:45Z</time>
</trkpt>
<trkpt lat="35.0706009" lon="32.5843620">
<ele>620.81</ele>
<time>2015-04-27T09:14:50Z</time>
</trkpt>
<trkpt lat="35.0706514" lon="32.5843335">
<ele>619.67</ele>
<time>2015-04-27T09:14:55Z</time>
</trkpt>
<trkpt lat="35.0707012" lon="32.5843113">
<ele>621.16</ele>
<time>2015-04-27T09:14:59Z</time>
</trkpt>
<trkpt lat="35.0707523" lon="32.5842971">
<ele>621.88</ele>
<time>2015-04-27T09:15:03Z</time>
</trkpt>
<trkpt lat="35.0707978" lon="32.5843072">
<ele>623.98</ele>
<time>2015-04-27T09:15:07Z</time>
</trkpt>
<trkpt lat="35.0708543" lon="32.5843070">
<ele>626.33</ele>
<time>2015-04-27T09:15:12Z</time>
</trkpt>
<trkpt lat="35.0709038" lon="32.5843102">
<ele>625.45</ele>
<time>2015-04-27T09:15:16Z</time>
</trkpt>
<trkpt lat="35.0709560" lon="32.5843143">
<ele>625.33</ele>
<time>2015-04-27T09:15:20Z</time>
</trkpt>
<trkpt lat="35.0710105" lon="32.5843167">
<ele>627.78</ele>
<time>2015-04-27T09:15:26Z</time>
</trkpt>
<trkpt lat="35.0710694" lon="32.5843202">
<ele>629.54</ele>
<time>2015-04-27T09:15:30Z</time>
</trkpt>
<trkpt lat="35.0711238" lon="32.5843392">
<ele>633.34</ele>
<time>2015-04-27T09:15:34Z</time>
</trkpt>
<trkpt lat="35.0711758" lon="32.5843632">
<ele>635.39</ele>
<time>2015-04-27T09:15:38Z</time>
</trkpt>
<trkpt lat="35.0712226" lon="32.5844005">
<ele>636.02</ele>
<time>2015-04-27T09:15:42Z</time>
</trkpt>
<trkpt lat="35.0712745" lon="32.5844232">
<ele>635.74</ele>
<time>2015-04-27T09:15:46Z</time>
</trkpt>
<trkpt lat="35.0713264" lon="32.5844412">
<ele>635.48</ele>
<time>2015-04-27T09:15:50Z</time>
</trkpt>
<trkpt lat="35.0713680" lon="32.5844788">
<ele>634.83</ele>
<time>2015-04-27T09:15:54Z</time>
</trkpt>
<trkpt lat="35.0714124" lon="32.5845195">
<ele>635.86</ele>
<time>2015-04-27T09:15:58Z</time>
</trkpt>
<trkpt lat="35.0714524" lon="32.5845667">
<ele>635.30</ele>
<time>2015-04-27T09:16:02Z</time>
</trkpt>
<trkpt lat="35.0714987" lon="32.5846029">
<ele>635.70</ele>
<time>2015-04-27T09:16:06Z</time>
</trkpt>
<trkpt lat="35.0715374" lon="32.5846496">
<ele>635.22</ele>
<time>2015-04-27T09:16:10Z</time>
</trkpt>
<trkpt lat="35.0715792" lon="32.5846984">
<ele>636.44</ele>
<time>2015-04-27T09:16:14Z</time>
</trkpt>
<trkpt lat="35.0716144" lon="32.5847493">
<ele>636.39</ele>
<time>2015-04-27T09:16:18Z</time>
</trkpt>
<trkpt lat="35.0716524" lon="32.5847863">
<ele>635.83</ele>
<time>2015-04-27T09:16:22Z</time>
</trkpt>
<trkpt lat="35.0716926" lon="32.5848199">
<ele>635.54</ele>
<time>2015-04-27T09:16:26Z</time>
</trkpt>
<trkpt lat="35.0717132" lon="32.5848719">
<ele>634.15</ele>
<time>2015-04-27T09:16:30Z</time>
</trkpt>
<trkpt lat="35.0717351" lon="32.5849249">
<ele>634.56</ele>
<time>2015-04-27T09:16:34Z</time>
</trkpt>
<trkpt lat="35.0717506" lon="32.5849793">
<ele>637.00</ele>
<time>2015-04-27T09:16:37Z</time>
</trkpt>
<trkpt lat="35.0717574" lon="32.5850339">
<ele>638.18</ele>
<time>2015-04-27T09:16:40Z</time>
</trkpt>
<trkpt lat="35.0717380" lon="32.5850965">
<ele>640.19</ele>
<time>2015-04-27T09:16:44Z</time>
</trkpt>
<trkpt lat="35.0717309" lon="32.5851578">
<ele>641.88</ele>
<time>2015-04-27T09:16:48Z</time>
</trkpt>
<trkpt lat="35.0717185" lon="32.5852188">
<ele>642.98</ele>
<time>2015-04-27T09:16:52Z</time>
</trkpt>
<trkpt lat="35.0717185" lon="32.5852771">
<ele>643.06</ele>
<time>2015-04-27T09:16:55Z</time>
</trkpt>
<trkpt lat="35.0717216" lon="32.5853393">
<ele>640.82</ele>
<time>2015-04-27T09:16:58Z</time>
</trkpt>
<trkpt lat="35.0717258" lon="32.5853949">
<ele>639.16</ele>
<time>2015-04-27T09:17:01Z</time>
</trkpt>
<trkpt lat="35.0717558" lon="32.5854534">
<ele>641.06</ele>
<time>2015-04-27T09:17:05Z</time>
</trkpt>
<trkpt lat="35.0717893" lon="32.5854920">
<ele>641.00</ele>
<time>2015-04-27T09:17:09Z</time>
</trkpt>
<trkpt lat="35.0718311" lon="32.5855168">
<ele>640.80</ele>
<time>2015-04-27T09:17:13Z</time>
</trkpt>
<trkpt lat="35.0718860" lon="32.5855042">
<ele>643.73</ele>
<time>2015-04-27T09:17:17Z</time>
</trkpt>
<trkpt lat="35.0719392" lon="32.5855282">
<ele>640.79</ele>
<time>2015-04-27T09:17:21Z</time>
</trkpt>
<trkpt lat="35.0719810" lon="32.5855497">
<ele>642.28</ele>
<time>2015-04-27T09:17:24Z</time>
</trkpt>
<trkpt lat="35.0720299" lon="32.5855849">
<ele>642.88</ele>
<time>2015-04-27T09:17:28Z</time>
</trkpt>
<trkpt lat="35.0720672" lon="32.5856270">
<ele>640.36</ele>
<time>2015-04-27T09:17:32Z</time>
</trkpt>
<trkpt lat="35.0721079" lon="32.5856641">
<ele>641.33</ele>
<time>2015-04-27T09:17:36Z</time>
</trkpt>
<trkpt lat="35.0721445" lon="32.5857065">
<ele>641.83</ele>
<time>2015-04-27T09:17:40Z</time>
</trkpt>
<trkpt lat="35.0721836" lon="32.5857367">
<ele>642.11</ele>
<time>2015-04-27T09:17:44Z</time>
</trkpt>
<trkpt lat="35.0722313" lon="32.5857466">
<ele>641.94</ele>
<time>2015-04-27T09:17:48Z</time>
</trkpt>
<trkpt lat="35.0722763" lon="32.5857543">
<ele>642.43</ele>
<time>2015-04-27T09:17:51Z</time>
</trkpt>
<trkpt lat="35.0723196" lon="32.5857707">
<ele>641.24</ele>
<time>2015-04-27T09:17:54Z</time>
</trkpt>
<trkpt lat="35.0723666" lon="32.5858007">
<ele>640.38</ele>
<time>2015-04-27T09:17:58Z</time>
</trkpt>
<trkpt lat="35.0724142" lon="32.5858339">
<ele>640.95</ele>
<time>2015-04-27T09:18:02Z</time>
</trkpt>
<trkpt lat="35.0724562" lon="32.5858609">
<ele>642.30</ele>
<time>2015-04-27T09:18:05Z</time>
</trkpt>
<trkpt lat="35.0724970" lon="32.5859011">
<ele>645.82</ele>
<time>2015-04-27T09:18:09Z</time>
</trkpt>
<trkpt lat="35.0725260" lon="32.5859637">
<ele>645.54</ele>
<time>2015-04-27T09:18:13Z</time>
</trkpt>
<trkpt lat="35.0725338" lon="32.5860215">
<ele>646.63</ele>
<time>2015-04-27T09:18:16Z</time>
</trkpt>
<trkpt lat="35.0725241" lon="32.5860914">
<ele>647.66</ele>
<time>2015-04-27T09:18:20Z</time>
</trkpt>
<trkpt lat="35.0725026" lon="32.5861529">
<ele>648.41</ele>
<time>2015-04-27T09:18:24Z</time>
</trkpt>
<trkpt lat="35.0724948" lon="32.5862112">
<ele>649.49</ele>
<time>2015-04-27T09:18:27Z</time>
</trkpt>
<trkpt lat="35.0724763" lon="32.5862645">
<ele>650.37</ele>
<time>2015-04-27T09:18:30Z</time>
</trkpt>
<trkpt lat="35.0724494" lon="32.5863280">
<ele>651.45</ele>
<time>2015-04-27T09:18:34Z</time>
</trkpt>
<trkpt lat="35.0724181" lon="32.5863844">
<ele>651.15</ele>
<time>2015-04-27T09:18:38Z</time>
</trkpt>
<trkpt lat="35.0724040" lon="32.5864505">
<ele>650.81</ele>
<time>2015-04-27T09:18:42Z</time>
</trkpt>
<trkpt lat="35.0723805" lon="32.5865106">
<ele>651.42</ele>
<time>2015-04-27T09:18:46Z</time>
</trkpt>
<trkpt lat="35.0723597" lon="32.5865678">
<ele>652.02</ele>
<time>2015-04-27T09:18:50Z</time>
</trkpt>
<trkpt lat="35.0723348" lon="32.5866312">
<ele>651.24</ele>
<time>2015-04-27T09:18:54Z</time>
</trkpt>
<trkpt lat="35.0723006" lon="32.5866858">
<ele>651.76</ele>
<time>2015-04-27T09:18:58Z</time>
</trkpt>
<trkpt lat="35.0722888" lon="32.5867518">
<ele>653.41</ele>
<time>2015-04-27T09:19:02Z</time>
</trkpt>
<trkpt lat="35.0722748" lon="32.5868134">
<ele>655.08</ele>
<time>2015-04-27T09:19:06Z</time>
</trkpt>
<trkpt lat="35.0722587" lon="32.5868762">
<ele>656.00</ele>
<time>2015-04-27T09:19:10Z</time>
</trkpt>
<trkpt lat="35.0722378" lon="32.5869402">
<ele>656.87</ele>
<time>2015-04-27T09:19:14Z</time>
</trkpt>
<trkpt lat="35.0722170" lon="32.5870015">
<ele>657.92</ele>
<time>2015-04-27T09:19:18Z</time>
</trkpt>
<trkpt lat="35.0722020" lon="32.5870579">
<ele>657.92</ele>
<time>2015-04-27T09:19:22Z</time>
</trkpt>
<trkpt lat="35.0721807" lon="32.5871068">
<ele>660.92</ele>
<time>2015-04-27T09:19:27Z</time>
</trkpt>
<trkpt lat="35.0721622" lon="32.5871604">
<ele>661.11</ele>
<time>2015-04-27T09:19:32Z</time>
</trkpt>
<trkpt lat="35.0721482" lon="32.5872257">
<ele>660.87</ele>
<time>2015-04-27T09:19:37Z</time>
</trkpt>
<trkpt lat="35.0721264" lon="32.5872784">
<ele>661.42</ele>
<time>2015-04-27T09:19:41Z</time>
</trkpt>
<trkpt lat="35.0721101" lon="32.5873306">
<ele>661.64</ele>
<time>2015-04-27T09:19:45Z</time>
</trkpt>
<trkpt lat="35.0720989" lon="32.5873904">
<ele>662.90</ele>
<time>2015-04-27T09:19:51Z</time>
</trkpt>
<trkpt lat="35.0720976" lon="32.5874525">
<ele>663.36</ele>
<time>2015-04-27T09:19:56Z</time>
</trkpt>
<trkpt lat="35.0721154" lon="32.5875059">
<ele>662.08</ele>
<time>2015-04-27T09:20:00Z</time>
</trkpt>
<trkpt lat="35.0721535" lon="32.5875536">
<ele>660.31</ele>
<time>2015-04-27T09:20:04Z</time>
</trkpt>
<trkpt lat="35.0721883" lon="32.5875993">
<ele>659.32</ele>
<time>2015-04-27T09:20:08Z</time>
</trkpt>
<trkpt lat="35.0722380" lon="32.5876104">
<ele>658.95</ele>
<time>2015-04-27T09:20:12Z</time>
</trkpt>
<trkpt lat="35.0722826" lon="32.5876202">
<ele>660.74</ele>
<time>2015-04-27T09:20:16Z</time>
</trkpt>
<trkpt lat="35.0723361" lon="32.5876308">
<ele>662.76</ele>
<time>2015-04-27T09:20:21Z</time>
</trkpt>
<trkpt lat="35.0723833" lon="32.5876361">
<ele>662.91</ele>
<time>2015-04-27T09:20:25Z</time>
</trkpt>
<trkpt lat="35.0724409" lon="32.5876345">
<ele>662.92</ele>
<time>2015-04-27T09:20:30Z</time>
</trkpt>
<trkpt lat="35.0724941" lon="32.5876324">
<ele>661.55</ele>
<time>2015-04-27T09:20:34Z</time>
</trkpt>
<trkpt lat="35.0725480" lon="32.5876218">
<ele>659.71</ele>
<time>2015-04-27T09:20:38Z</time>
</trkpt>
<trkpt lat="35.0725991" lon="32.5875996">
<ele>659.10</ele>
<time>2015-04-27T09:20:42Z</time>
</trkpt>
<trkpt lat="35.0726450" lon="32.5875755">
<ele>658.44</ele>
<time>2015-04-27T09:20:46Z</time>
</trkpt>
<trkpt lat="35.0726901" lon="32.5875463">
<ele>658.83</ele>
<time>2015-04-27T09:20:50Z</time>
</trkpt>
<trkpt lat="35.0727396" lon="32.5875259">
<ele>658.42</ele>
<time>2015-04-27T09:20:54Z</time>
</trkpt>
<trkpt lat="35.0727933" lon="32.5875144">
<ele>658.71</ele>
<time>2015-04-27T09:20:58Z</time>
</trkpt>
<trkpt lat="35.0728437" lon="32.5874957">
<ele>658.35</ele>
<time>2015-04-27T09:21:02Z</time>
</trkpt>
<trkpt lat="35.0728934" lon="32.5874828">
<ele>658.83</ele>
<time>2015-04-27T09:21:06Z</time>
</trkpt>
<trkpt lat="35.0729416" lon="32.5874547">
<ele>660.29</ele>
<time>2015-04-27T09:21:10Z</time>
</trkpt>
<trkpt lat="35.0729908" lon="32.5874591">
<ele>664.01</ele>
<time>2015-04-27T09:21:14Z</time>
</trkpt>
<trkpt lat="35.0730385" lon="32.5874675">
<ele>667.06</ele>
<time>2015-04-27T09:21:18Z</time>
</trkpt>
<trkpt lat="35.0730892" lon="32.5874954">
<ele>666.93</ele>
<time>2015-04-27T09:21:22Z</time>
</trkpt>
<trkpt lat="35.0731354" lon="32.5875258">
<ele>666.80</ele>
<time>2015-04-27T09:21:26Z</time>
</trkpt>
<trkpt lat="35.0731808" lon="32.5875509">
<ele>666.23</ele>
<time>2015-04-27T09:21:30Z</time>
</trkpt>
<trkpt lat="35.0732263" lon="32.5875902">
<ele>666.13</ele>
<time>2015-04-27T09:21:34Z</time>
</trkpt>
<trkpt lat="35.0732620" lon="32.5876368">
<ele>668.31</ele>
<time>2015-04-27T09:21:38Z</time>
</trkpt>
<trkpt lat="35.0732744" lon="32.5877006">
<ele>671.62</ele>
<time>2015-04-27T09:21:43Z</time>
</trkpt>
<trkpt lat="35.0732926" lon="32.5877560">
<ele>675.53</ele>
<time>2015-04-27T09:30:56Z</time>
</trkpt>
<trkpt lat="35.0733113" lon="32.5878113">
<ele>679.80</ele>
<time>2015-04-27T09:31:09Z</time>
</trkpt>
<trkpt lat="35.0732851" lon="32.5878608">
<ele>677.60</ele>
<time>2015-04-27T09:31:13Z</time>
</trkpt>
<trkpt lat="35.0732528" lon="32.5879080">
<ele>676.90</ele>
<time>2015-04-27T09:31:17Z</time>
</trkpt>
<trkpt lat="35.0732297" lon="32.5879597">
<ele>676.05</ele>
<time>2015-04-27T09:31:22Z</time>
</trkpt>
<trkpt lat="35.0732131" lon="32.5880169">
<ele>673.34</ele>
<time>2015-04-27T09:31:27Z</time>
</trkpt>
<trkpt lat="35.0731897" lon="32.5880806">
<ele>674.88</ele>
<time>2015-04-27T09:31:32Z</time>
</trkpt>
<trkpt lat="35.0731852" lon="32.5881440">
<ele>676.80</ele>
<time>2015-04-27T09:31:36Z</time>
</trkpt>
<trkpt lat="35.0731676" lon="32.5881966">
<ele>676.92</ele>
<time>2015-04-27T09:31:40Z</time>
</trkpt>
<trkpt lat="35.0731450" lon="32.5882562">
<ele>676.92</ele>
<time>2015-04-27T09:31:44Z</time>
</trkpt>
<trkpt lat="35.0731156" lon="32.5883169">
<ele>677.67</ele>
<time>2015-04-27T09:31:48Z</time>
</trkpt>
<trkpt lat="35.0730857" lon="32.5883684">
<ele>678.53</ele>
<time>2015-04-27T09:31:52Z</time>
</trkpt>
<trkpt lat="35.0730490" lon="32.5884118">
<ele>678.53</ele>
<time>2015-04-27T09:31:56Z</time>
</trkpt>
<trkpt lat="35.0730140" lon="32.5884582">
<ele>680.21</ele>
<time>2015-04-27T09:32:00Z</time>
</trkpt>
<trkpt lat="35.0729695" lon="32.5884859">
<ele>679.63</ele>
<time>2015-04-27T09:32:04Z</time>
</trkpt>
<trkpt lat="35.0729327" lon="32.5885192">
<ele>678.03</ele>
<time>2015-04-27T09:32:08Z</time>
</trkpt>
<trkpt lat="35.0728941" lon="32.5885495">
<ele>677.93</ele>
<time>2015-04-27T09:32:12Z</time>
</trkpt>
<trkpt lat="35.0728540" lon="32.5885785">
<ele>678.18</ele>
<time>2015-04-27T09:32:16Z</time>
</trkpt>
<trkpt lat="35.0728035" lon="32.5885990">
<ele>677.93</ele>
<time>2015-04-27T09:32:21Z</time>
</trkpt>
<trkpt lat="35.0727568" lon="32.5886330">
<ele>677.93</ele>
<time>2015-04-27T09:32:26Z</time>
</trkpt>
<trkpt lat="35.0727098" lon="32.5886676">
<ele>677.92</ele>
<time>2015-04-27T09:32:31Z</time>
</trkpt>
<trkpt lat="35.0726707" lon="32.5887093">
<ele>677.92</ele>
<time>2015-04-27T09:32:36Z</time>
</trkpt>
<trkpt lat="35.0726313" lon="32.5887567">
<ele>676.96</ele>
<time>2015-04-27T09:32:41Z</time>
</trkpt>
<trkpt lat="35.0725968" lon="32.5887971">
<ele>676.93</ele>
<time>2015-04-27T09:32:45Z</time>
</trkpt>
<trkpt lat="35.0725629" lon="32.5888414">
<ele>676.43</ele>
<time>2015-04-27T09:32:49Z</time>
</trkpt>
<trkpt lat="35.0725373" lon="32.5888939">
<ele>676.83</ele>
<time>2015-04-27T09:32:53Z</time>
</trkpt>
<trkpt lat="35.0725078" lon="32.5889386">
<ele>679.11</ele>
<time>2015-04-27T09:32:57Z</time>
</trkpt>
<trkpt lat="35.0724772" lon="32.5889812">
<ele>680.62</ele>
<time>2015-04-27T09:33:01Z</time>
</trkpt>
<trkpt lat="35.0724410" lon="32.5890219">
<ele>681.34</ele>
<time>2015-04-27T09:33:05Z</time>
</trkpt>
<trkpt lat="35.0723989" lon="32.5890509">
<ele>680.83</ele>
<time>2015-04-27T09:33:09Z</time>
</trkpt>
<trkpt lat="35.0723456" lon="32.5890589">
<ele>681.11</ele>
<time>2015-04-27T09:33:13Z</time>
</trkpt>
<trkpt lat="35.0722943" lon="32.5890706">
<ele>679.25</ele>
<time>2015-04-27T09:33:17Z</time>
</trkpt>
<trkpt lat="35.0722415" lon="32.5890783">
<ele>680.20</ele>
<time>2015-04-27T09:33:21Z</time>
</trkpt>
<trkpt lat="35.0721937" lon="32.5890905">
<ele>680.38</ele>
<time>2015-04-27T09:33:25Z</time>
</trkpt>
<trkpt lat="35.0721426" lon="32.5891100">
<ele>681.33</ele>
<time>2015-04-27T09:33:29Z</time>
</trkpt>
<trkpt lat="35.0720867" lon="32.5891248">
<ele>681.95</ele>
<time>2015-04-27T09:33:33Z</time>
</trkpt>
<trkpt lat="35.0720351" lon="32.5891288">
<ele>681.61</ele>
<time>2015-04-27T09:33:37Z</time>
</trkpt>
<trkpt lat="35.0719899" lon="32.5891295">
<ele>679.66</ele>
<time>2015-04-27T09:33:41Z</time>
</trkpt>
<trkpt lat="35.0719440" lon="32.5891496">
<ele>679.39</ele>
<time>2015-04-27T09:33:44Z</time>
</trkpt>
<trkpt lat="35.0718981" lon="32.5891715">
<ele>680.23</ele>
<time>2015-04-27T09:33:47Z</time>
</trkpt>
<trkpt lat="35.0718484" lon="32.5892024">
<ele>683.26</ele>
<time>2015-04-27T09:33:51Z</time>
</trkpt>
<trkpt lat="35.0718159" lon="32.5892609">
<ele>685.44</ele>
<time>2015-04-27T09:33:56Z</time>
</trkpt>
<trkpt lat="35.0717922" lon="32.5893139">
<ele>687.33</ele>
<time>2015-04-27T09:34:00Z</time>
</trkpt>
<trkpt lat="35.0717722" lon="32.5893639">
<ele>688.83</ele>
<time>2015-04-27T09:34:04Z</time>
</trkpt>
<trkpt lat="35.0717518" lon="32.5894158">
<ele>688.91</ele>
<time>2015-04-27T09:34:07Z</time>
</trkpt>
<trkpt lat="35.0717487" lon="32.5894799">
<ele>687.49</ele>
<time>2015-04-27T09:34:11Z</time>
</trkpt>
<trkpt lat="35.0717661" lon="32.5895309">
<ele>688.65</ele>
<time>2015-04-27T09:34:15Z</time>
</trkpt>
<trkpt lat="35.0718109" lon="32.5895681">
<ele>690.28</ele>
<time>2015-04-27T09:34:19Z</time>
</trkpt>
<trkpt lat="35.0718294" lon="32.5896230">
<ele>688.57</ele>
<time>2015-04-27T09:34:23Z</time>
</trkpt>
<trkpt lat="35.0718471" lon="32.5896819">
<ele>687.97</ele>
<time>2015-04-27T09:34:27Z</time>
</trkpt>
<trkpt lat="35.0718533" lon="32.5897473">
<ele>687.74</ele>
<time>2015-04-27T09:34:31Z</time>
</trkpt>
<trkpt lat="35.0718601" lon="32.5898162">
<ele>688.79</ele>
<time>2015-04-27T09:34:35Z</time>
</trkpt>
<trkpt lat="35.0718592" lon="32.5898805">
<ele>691.29</ele>
<time>2015-04-27T09:34:39Z</time>
</trkpt>
<trkpt lat="35.0718501" lon="32.5899405">
<ele>694.95</ele>
<time>2015-04-27T09:34:43Z</time>
</trkpt>
<trkpt lat="35.0718331" lon="32.5899999">
<ele>696.68</ele>
<time>2015-04-27T09:34:47Z</time>
</trkpt>
<trkpt lat="35.0718077" lon="32.5900624">
<ele>697.78</ele>
<time>2015-04-27T09:34:51Z</time>
</trkpt>
<trkpt lat="35.0717803" lon="32.5901209">
<ele>698.66</ele>
<time>2015-04-27T09:34:54Z</time>
</trkpt>
<trkpt lat="35.0717588" lon="32.5901766">
<ele>697.52</ele>
<time>2015-04-27T09:34:57Z</time>
</trkpt>
<trkpt lat="35.0717380" lon="32.5902376">
<ele>697.50</ele>
<time>2015-04-27T09:35:00Z</time>
</trkpt>
<trkpt lat="35.0717302" lon="32.5903086">
<ele>698.25</ele>
<time>2015-04-27T09:35:03Z</time>
</trkpt>
<trkpt lat="35.0717246" lon="32.5903756">
<ele>698.72</ele>
<time>2015-04-27T09:35:06Z</time>
</trkpt>
<trkpt lat="35.0717219" lon="32.5904400">
<ele>699.02</ele>
<time>2015-04-27T09:35:09Z</time>
</trkpt>
<trkpt lat="35.0717197" lon="32.5905083">
<ele>698.94</ele>
<time>2015-04-27T09:35:12Z</time>
</trkpt>
<trkpt lat="35.0717196" lon="32.5905736">
<ele>698.93</ele>
<time>2015-04-27T09:35:15Z</time>
</trkpt>
<trkpt lat="35.0717202" lon="32.5906379">
<ele>699.30</ele>
<time>2015-04-27T09:35:18Z</time>
</trkpt>
<trkpt lat="35.0717350" lon="32.5906999">
<ele>698.97</ele>
<time>2015-04-27T09:35:21Z</time>
</trkpt>
<trkpt lat="35.0717662" lon="32.5907516">
<ele>700.18</ele>
<time>2015-04-27T09:35:24Z</time>
</trkpt>
<trkpt lat="35.0718021" lon="32.5908009">
<ele>700.83</ele>
<time>2015-04-27T09:35:27Z</time>
</trkpt>
<trkpt lat="35.0718291" lon="32.5908547">
<ele>700.16</ele>
<time>2015-04-27T09:35:30Z</time>
</trkpt>
<trkpt lat="35.0718433" lon="32.5909114">
<ele>699.70</ele>
<time>2015-04-27T09:35:33Z</time>
</trkpt>
<trkpt lat="35.0718585" lon="32.5909686">
<ele>699.15</ele>
<time>2015-04-27T09:35:36Z</time>
</trkpt>
<trkpt lat="35.0718647" lon="32.5910260">
<ele>699.70</ele>
<time>2015-04-27T09:35:39Z</time>
</trkpt>
<trkpt lat="35.0718700" lon="32.5910811">
<ele>699.40</ele>
<time>2015-04-27T09:35:42Z</time>
</trkpt>
<trkpt lat="35.0718778" lon="32.5911516">
<ele>700.64</ele>
<time>2015-04-27T09:35:46Z</time>
</trkpt>
<trkpt lat="35.0718608" lon="32.5912183">
<ele>700.17</ele>
<time>2015-04-27T09:35:51Z</time>
</trkpt>
<trkpt lat="35.0718350" lon="32.5912815">
<ele>701.75</ele>
<time>2015-04-27T09:35:55Z</time>
</trkpt>
<trkpt lat="35.0718081" lon="32.5913364">
<ele>701.91</ele>
<time>2015-04-27T09:35:59Z</time>
</trkpt>
<trkpt lat="35.0717732" lon="32.5913940">
<ele>701.92</ele>
<time>2015-04-27T09:36:03Z</time>
</trkpt>
<trkpt lat="35.0717419" lon="32.5914388">
<ele>701.92</ele>
<time>2015-04-27T09:36:06Z</time>
</trkpt>
<trkpt lat="35.0717113" lon="32.5914835">
<ele>701.92</ele>
<time>2015-04-27T09:36:09Z</time>
</trkpt>
<trkpt lat="35.0716720" lon="32.5915354">
<ele>703.30</ele>
<time>2015-04-27T09:36:13Z</time>
</trkpt>
<trkpt lat="35.0716440" lon="32.5915816">
<ele>703.85</ele>
<time>2015-04-27T09:36:16Z</time>
</trkpt>
<trkpt lat="35.0716061" lon="32.5916195">
<ele>704.04</ele>
<time>2015-04-27T09:36:19Z</time>
</trkpt>
<trkpt lat="35.0715614" lon="32.5916669">
<ele>704.24</ele>
<time>2015-04-27T09:36:23Z</time>
</trkpt>
<trkpt lat="35.0715196" lon="32.5916889">
<ele>704.59</ele>
<time>2015-04-27T09:36:26Z</time>
</trkpt>
<trkpt lat="35.0714725" lon="32.5917082">
<ele>704.01</ele>
<time>2015-04-27T09:36:29Z</time>
</trkpt>
<trkpt lat="35.0714242" lon="32.5917058">
<ele>704.69</ele>
<time>2015-04-27T09:36:32Z</time>
</trkpt>
<trkpt lat="35.0713734" lon="32.5916835">
<ele>704.77</ele>
<time>2015-04-27T09:36:35Z</time>
</trkpt>
<trkpt lat="35.0713202" lon="32.5916395">
<ele>704.91</ele>
<time>2015-04-27T09:36:38Z</time>
</trkpt>
<trkpt lat="35.0712824" lon="32.5915809">
<ele>704.05</ele>
<time>2015-04-27T09:36:41Z</time>
</trkpt>
<trkpt lat="35.0712566" lon="32.5915348">
<ele>703.94</ele>
<time>2015-04-27T09:36:44Z</time>
</trkpt>
<trkpt lat="35.0712382" lon="32.5914762">
<ele>704.55</ele>
<time>2015-04-27T09:36:48Z</time>
</trkpt>
<trkpt lat="35.0712240" lon="32.5914238">
<ele>704.88</ele>
<time>2015-04-27T09:36:51Z</time>
</trkpt>
<trkpt lat="35.0712005" lon="32.5913741">
<ele>706.29</ele>
<time>2015-04-27T09:36:54Z</time>
</trkpt>
<trkpt lat="35.0711617" lon="32.5913189">
<ele>708.20</ele>
<time>2015-04-27T09:36:58Z</time>
</trkpt>
<trkpt lat="35.0711221" lon="32.5912664">
<ele>707.19</ele>
<time>2015-04-27T09:37:02Z</time>
</trkpt>
<trkpt lat="35.0710864" lon="32.5912319">
<ele>706.96</ele>
<time>2015-04-27T09:37:05Z</time>
</trkpt>
<trkpt lat="35.0710423" lon="32.5911858">
<ele>709.68</ele>
<time>2015-04-27T09:37:09Z</time>
</trkpt>
<trkpt lat="35.0710006" lon="32.5911376">
<ele>711.22</ele>
<time>2015-04-27T09:37:13Z</time>
</trkpt>
<trkpt lat="35.0709465" lon="32.5911116">
<ele>712.69</ele>
<time>2015-04-27T09:37:17Z</time>
</trkpt>
<trkpt lat="35.0708959" lon="32.5910851">
<ele>712.91</ele>
<time>2015-04-27T09:37:21Z</time>
</trkpt>
<trkpt lat="35.0708409" lon="32.5910823">
<ele>712.86</ele>
<time>2015-04-27T09:37:25Z</time>
</trkpt>
<trkpt lat="35.0707959" lon="32.5910719">
<ele>713.36</ele>
<time>2015-04-27T09:37:29Z</time>
</trkpt>
<trkpt lat="35.0707442" lon="32.5910670">
<ele>714.33</ele>
<time>2015-04-27T09:37:33Z</time>
</trkpt>
<trkpt lat="35.0706934" lon="32.5910537">
<ele>714.26</ele>
<time>2015-04-27T09:37:37Z</time>
</trkpt>
<trkpt lat="35.0706388" lon="32.5910444">
<ele>714.82</ele>
<time>2015-04-27T09:37:41Z</time>
</trkpt>
<trkpt lat="35.0705952" lon="32.5910277">
<ele>714.91</ele>
<time>2015-04-27T09:37:44Z</time>
</trkpt>
<trkpt lat="35.0705410" lon="32.5910110">
<ele>713.92</ele>
<time>2015-04-27T09:37:48Z</time>
</trkpt>
<trkpt lat="35.0704924" lon="32.5910058">
<ele>713.74</ele>
<time>2015-04-27T09:37:52Z</time>
</trkpt>
<trkpt lat="35.0704442" lon="32.5909764">
<ele>714.45</ele>
<time>2015-04-27T09:37:57Z</time>
</trkpt>
<trkpt lat="35.0703976" lon="32.5909600">
<ele>715.65</ele>
<time>2015-04-27T09:38:01Z</time>
</trkpt>
<trkpt lat="35.0703507" lon="32.5909392">
<ele>717.03</ele>
<time>2015-04-27T09:38:05Z</time>
</trkpt>
<trkpt lat="35.0702996" lon="32.5909266">
<ele>717.18</ele>
<time>2015-04-27T09:38:10Z</time>
</trkpt>
<trkpt lat="35.0702545" lon="32.5908996">
<ele>718.63</ele>
<time>2015-04-27T09:38:14Z</time>
</trkpt>
<trkpt lat="35.0702182" lon="32.5908544">
<ele>720.66</ele>
<time>2015-04-27T09:38:18Z</time>
</trkpt>
<trkpt lat="35.0701671" lon="32.5908176">
<ele>720.91</ele>
<time>2015-04-27T09:38:22Z</time>
</trkpt>
<trkpt lat="35.0701144" lon="32.5907916">
<ele>721.92</ele>
<time>2015-04-27T09:38:26Z</time>
</trkpt>
<trkpt lat="35.0700584" lon="32.5907833">
<ele>722.86</ele>
<time>2015-04-27T09:38:30Z</time>
</trkpt>
<trkpt lat="35.0700090" lon="32.5907628">
<ele>724.30</ele>
<time>2015-04-27T09:38:34Z</time>
</trkpt>
<trkpt lat="35.0699594" lon="32.5907825">
<ele>725.64</ele>
<time>2015-04-27T09:38:38Z</time>
</trkpt>
<trkpt lat="35.0699093" lon="32.5907924">
<ele>726.45</ele>
<time>2015-04-27T09:38:43Z</time>
</trkpt>
<trkpt lat="35.0698632" lon="32.5908103">
<ele>727.37</ele>
<time>2015-04-27T09:38:49Z</time>
</trkpt>
<trkpt lat="35.0698219" lon="32.5908343">
<ele>729.81</ele>
<time>2015-04-27T09:38:54Z</time>
</trkpt>
<trkpt lat="35.0697940" lon="32.5908925">
<ele>732.11</ele>
<time>2015-04-27T09:38:59Z</time>
</trkpt>
<trkpt lat="35.0697833" lon="32.5909571">
<ele>731.52</ele>
<time>2015-04-27T09:39:04Z</time>
</trkpt>
<trkpt lat="35.0697958" lon="32.5910242">
<ele>731.15</ele>
<time>2015-04-27T09:39:08Z</time>
</trkpt>
<trkpt lat="35.0698126" lon="32.5910893">
<ele>730.19</ele>
<time>2015-04-27T09:39:12Z</time>
</trkpt>
<trkpt lat="35.0698610" lon="32.5911198">
<ele>729.94</ele>
<time>2015-04-27T09:39:16Z</time>
</trkpt>
<trkpt lat="35.0699099" lon="32.5911612">
<ele>727.80</ele>
<time>2015-04-27T09:39:20Z</time>
</trkpt>
<trkpt lat="35.0699463" lon="32.5911990">
<ele>728.66</ele>
<time>2015-04-27T09:39:23Z</time>
</trkpt>
<trkpt lat="35.0699768" lon="32.5912508">
<ele>727.10</ele>
<time>2015-04-27T09:39:27Z</time>
</trkpt>
<trkpt lat="35.0700080" lon="32.5913011">
<ele>729.06</ele>
<time>2015-04-27T09:39:31Z</time>
</trkpt>
<trkpt lat="35.0700509" lon="32.5913421">
<ele>728.56</ele>
<time>2015-04-27T09:39:35Z</time>
</trkpt>
<trkpt lat="35.0700756" lon="32.5914002">
<ele>729.28</ele>
<time>2015-04-27T09:39:39Z</time>
</trkpt>
<trkpt lat="35.0701057" lon="32.5914501">
<ele>730.20</ele>
<time>2015-04-27T09:39:43Z</time>
</trkpt>
<trkpt lat="35.0701422" lon="32.5914987">
<ele>730.88</ele>
<time>2015-04-27T09:39:47Z</time>
</trkpt>
<trkpt lat="35.0701650" lon="32.5915620">
<ele>728.86</ele>
<time>2015-04-27T09:39:51Z</time>
</trkpt>
<trkpt lat="35.0701764" lon="32.5916152">
<ele>730.42</ele>
<time>2015-04-27T09:39:54Z</time>
</trkpt>
<trkpt lat="35.0701628" lon="32.5916775">
<ele>730.39</ele>
<time>2015-04-27T09:39:58Z</time>
</trkpt>
<trkpt lat="35.0701271" lon="32.5917288">
<ele>732.52</ele>
<time>2015-04-27T09:40:02Z</time>
</trkpt>
<trkpt lat="35.0700878" lon="32.5917788">
<ele>733.52</ele>
<time>2015-04-27T09:40:06Z</time>
</trkpt>
<trkpt lat="35.0700448" lon="32.5918084">
<ele>733.27</ele>
<time>2015-04-27T09:40:10Z</time>
</trkpt>
<trkpt lat="35.0700050" lon="32.5918395">
<ele>734.44</ele>
<time>2015-04-27T09:40:15Z</time>
</trkpt>
<trkpt lat="35.0699616" lon="32.5918686">
<ele>734.97</ele>
<time>2015-04-27T09:40:20Z</time>
</trkpt>
<trkpt lat="35.0699156" lon="32.5919054">
<ele>735.68</ele>
<time>2015-04-27T09:40:24Z</time>
</trkpt>
<trkpt lat="35.0698677" lon="32.5919395">
<ele>734.97</ele>
<time>2015-04-27T09:40:28Z</time>
</trkpt>
<trkpt lat="35.0698215" lon="32.5919658">
<ele>734.43</ele>
<time>2015-04-27T09:40:32Z</time>
</trkpt>
<trkpt lat="35.0697789" lon="32.5919919">
<ele>734.14</ele>
<time>2015-04-27T09:40:36Z</time>
</trkpt>
<trkpt lat="35.0697294" lon="32.5920109">
<ele>732.00</ele>
<time>2015-04-27T09:40:40Z</time>
</trkpt>
<trkpt lat="35.0696846" lon="32.5920164">
<ele>731.43</ele>
<time>2015-04-27T09:40:44Z</time>
</trkpt>
<trkpt lat="35.0696344" lon="32.5920252">
<ele>731.83</ele>
<time>2015-04-27T09:40:48Z</time>
</trkpt>
<trkpt lat="35.0695816" lon="32.5920292">
<ele>733.39</ele>
<time>2015-04-27T09:40:53Z</time>
</trkpt>
<trkpt lat="35.0695304" lon="32.5920448">
<ele>734.39</ele>
<time>2015-04-27T09:40:57Z</time>
</trkpt>
<trkpt lat="35.0694862" lon="32.5920637">
<ele>734.73</ele>
<time>2015-04-27T09:41:00Z</time>
</trkpt>
<trkpt lat="35.0694392" lon="32.5920765">
<ele>733.40</ele>
<time>2015-04-27T09:41:03Z</time>
</trkpt>
<trkpt lat="35.0693912" lon="32.5920970">
<ele>732.89</ele>
<time>2015-04-27T09:41:07Z</time>
</trkpt>
<trkpt lat="35.0693442" lon="32.5921327">
<ele>734.30</ele>
<time>2015-04-27T09:41:12Z</time>
</trkpt>
<trkpt lat="35.0693184" lon="32.5921944">
<ele>733.57</ele>
<time>2015-04-27T09:41:16Z</time>
</trkpt>
<trkpt lat="35.0693109" lon="32.5922545">
<ele>735.26</ele>
<time>2015-04-27T09:41:19Z</time>
</trkpt>
<trkpt lat="35.0693045" lon="32.5923198">
<ele>736.34</ele>
<time>2015-04-27T09:41:22Z</time>
</trkpt>
<trkpt lat="35.0692984" lon="32.5923809">
<ele>738.48</ele>
<time>2015-04-27T09:41:25Z</time>
</trkpt>
<trkpt lat="35.0693089" lon="32.5924373">
<ele>739.12</ele>
<time>2015-04-27T09:41:28Z</time>
</trkpt>
<trkpt lat="35.0693090" lon="32.5925106">
<ele>738.44</ele>
<time>2015-04-27T09:41:32Z</time>
</trkpt>
<trkpt lat="35.0692895" lon="32.5925698">
<ele>738.49</ele>
<time>2015-04-27T09:41:35Z</time>
</trkpt>
<trkpt lat="35.0692614" lon="32.5926229">
<ele>740.25</ele>
<time>2015-04-27T09:41:38Z</time>
</trkpt>
<trkpt lat="35.0692383" lon="32.5926725">
<ele>741.59</ele>
<time>2015-04-27T09:41:41Z</time>
</trkpt>
<trkpt lat="35.0692060" lon="32.5927241">
<ele>741.01</ele>
<time>2015-04-27T09:41:44Z</time>
</trkpt>
<trkpt lat="35.0691746" lon="32.5927712">
<ele>739.69</ele>
<time>2015-04-27T09:41:47Z</time>
</trkpt>
<trkpt lat="35.0691500" lon="32.5928262">
<ele>740.22</ele>
<time>2015-04-27T09:41:51Z</time>
</trkpt>
<trkpt lat="35.0691279" lon="32.5928774">
<ele>740.07</ele>
<time>2015-04-27T09:41:55Z</time>
</trkpt>
<trkpt lat="35.0690990" lon="32.5929260">
<ele>740.00</ele>
<time>2015-04-27T09:41:59Z</time>
</trkpt>
<trkpt lat="35.0690710" lon="32.5929750">
<ele>742.55</ele>
<time>2015-04-27T09:42:03Z</time>
</trkpt>
<trkpt lat="35.0690475" lon="32.5930313">
<ele>743.15</ele>
<time>2015-04-27T09:42:07Z</time>
</trkpt>
<trkpt lat="35.0690652" lon="32.5930856">
<ele>745.13</ele>
<time>2015-04-27T09:42:11Z</time>
</trkpt>
<trkpt lat="35.0690922" lon="32.5931402">
<ele>745.88</ele>
<time>2015-04-27T09:42:15Z</time>
</trkpt>
<trkpt lat="35.0691311" lon="32.5931720">
<ele>745.92</ele>
<time>2015-04-27T09:42:18Z</time>
</trkpt>
<trkpt lat="35.0691819" lon="32.5932024">
<ele>745.17</ele>
<time>2015-04-27T09:42:22Z</time>
</trkpt>
<trkpt lat="35.0692392" lon="32.5932158">
<ele>746.13</ele>
<time>2015-04-27T09:42:26Z</time>
</trkpt>
<trkpt lat="35.0692948" lon="32.5932183">
<ele>745.95</ele>
<time>2015-04-27T09:42:29Z</time>
</trkpt>
<trkpt lat="35.0693433" lon="32.5932192">
<ele>745.80</ele>
<time>2015-04-27T09:42:32Z</time>
</trkpt>
<trkpt lat="35.0693909" lon="32.5932257">
<ele>747.61</ele>
<time>2015-04-27T09:42:37Z</time>
</trkpt>
<trkpt lat="35.0694443" lon="32.5932395">
<ele>750.03</ele>
<time>2015-04-27T09:42:41Z</time>
</trkpt>
<trkpt lat="35.0695001" lon="32.5932579">
<ele>750.81</ele>
<time>2015-04-27T09:42:44Z</time>
</trkpt>
<trkpt lat="35.0695466" lon="32.5932927">
<ele>748.29</ele>
<time>2015-04-27T09:42:48Z</time>
</trkpt>
<trkpt lat="35.0695786" lon="32.5933327">
<ele>747.07</ele>
<time>2015-04-27T09:42:52Z</time>
</trkpt>
<trkpt lat="35.0696177" lon="32.5933706">
<ele>747.81</ele>
<time>2015-04-27T09:42:56Z</time>
</trkpt>
<trkpt lat="35.0696561" lon="32.5934146">
<ele>746.98</ele>
<time>2015-04-27T09:43:00Z</time>
</trkpt>
<trkpt lat="35.0696899" lon="32.5934611">
<ele>746.43</ele>
<time>2015-04-27T09:43:04Z</time>
</trkpt>
<trkpt lat="35.0697169" lon="32.5935130">
<ele>745.71</ele>
<time>2015-04-27T09:43:08Z</time>
</trkpt>
<trkpt lat="35.0697338" lon="32.5935749">
<ele>746.66</ele>
<time>2015-04-27T09:43:12Z</time>
</trkpt>
<trkpt lat="35.0697386" lon="32.5936303">
<ele>746.39</ele>
<time>2015-04-27T09:43:15Z</time>
</trkpt>
<trkpt lat="35.0697340" lon="32.5936988">
<ele>745.23</ele>
<time>2015-04-27T09:43:18Z</time>
</trkpt>
<trkpt lat="35.0697221" lon="32.5937764">
<ele>745.71</ele>
<time>2015-04-27T09:43:21Z</time>
</trkpt>
<trkpt lat="35.0696912" lon="32.5938350">
<ele>746.90</ele>
<time>2015-04-27T09:43:24Z</time>
</trkpt>
<trkpt lat="35.0696434" lon="32.5938556">
<ele>747.80</ele>
<time>2015-04-27T09:43:27Z</time>
</trkpt>
<trkpt lat="35.0695968" lon="32.5938664">
<ele>748.66</ele>
<time>2015-04-27T09:43:30Z</time>
</trkpt>
<trkpt lat="35.0695475" lon="32.5938859">
<ele>750.60</ele>
<time>2015-04-27T09:43:35Z</time>
</trkpt>
<trkpt lat="35.0695002" lon="32.5938976">
<ele>750.40</ele>
<time>2015-04-27T09:43:39Z</time>
</trkpt>
<trkpt lat="35.0694497" lon="32.5938976">
<ele>752.52</ele>
<time>2015-04-27T09:43:43Z</time>
</trkpt>
<trkpt lat="35.0693908" lon="32.5939030">
<ele>752.52</ele>
<time>2015-04-27T09:43:47Z</time>
</trkpt>
<trkpt lat="35.0693426" lon="32.5939156">
<ele>751.25</ele>
<time>2015-04-27T09:43:50Z</time>
</trkpt>
<trkpt lat="35.0692875" lon="32.5939381">
<ele>751.13</ele>
<time>2015-04-27T09:43:54Z</time>
</trkpt>
<trkpt lat="35.0692456" lon="32.5939624">
<ele>750.95</ele>
<time>2015-04-27T09:43:57Z</time>
</trkpt>
<trkpt lat="35.0692084" lon="32.5939947">
<ele>751.68</ele>
<time>2015-04-27T09:44:00Z</time>
</trkpt>
<trkpt lat="35.0691673" lon="32.5940405">
<ele>753.47</ele>
<time>2015-04-27T09:44:04Z</time>
</trkpt>
<trkpt lat="35.0691342" lon="32.5940840">
<ele>755.58</ele>
<time>2015-04-27T09:44:08Z</time>
</trkpt>
<trkpt lat="35.0691123" lon="32.5941422">
<ele>755.09</ele>
<time>2015-04-27T09:44:12Z</time>
</trkpt>
<trkpt lat="35.0690938" lon="32.5942052">
<ele>754.94</ele>
<time>2015-04-27T09:44:16Z</time>
</trkpt>
<trkpt lat="35.0690997" lon="32.5942689">
<ele>755.43</ele>
<time>2015-04-27T09:44:20Z</time>
</trkpt>
<trkpt lat="35.0691344" lon="32.5943102">
<ele>756.45</ele>
<time>2015-04-27T09:44:26Z</time>
</trkpt>
<trkpt lat="35.0691722" lon="32.5943451">
<ele>758.60</ele>
<time>2015-04-27T09:44:31Z</time>
</trkpt>
<trkpt lat="35.0692198" lon="32.5943735">
<ele>758.91</ele>
<time>2015-04-27T09:44:36Z</time>
</trkpt>
<trkpt lat="35.0692683" lon="32.5943962">
<ele>759.36</ele>
<time>2015-04-27T09:44:41Z</time>
</trkpt>
<trkpt lat="35.0693047" lon="32.5944335">
<ele>758.94</ele>
<time>2015-04-27T09:44:46Z</time>
</trkpt>
<trkpt lat="35.0693422" lon="32.5944746">
<ele>758.93</ele>
<time>2015-04-27T09:44:49Z</time>
</trkpt>
<trkpt lat="35.0693694" lon="32.5945309">
<ele>758.18</ele>
<time>2015-04-27T09:44:52Z</time>
</trkpt>
<trkpt lat="35.0693789" lon="32.5945864">
<ele>757.96</ele>
<time>2015-04-27T09:44:55Z</time>
</trkpt>
<trkpt lat="35.0693682" lon="32.5946439">
<ele>757.93</ele>
<time>2015-04-27T09:44:59Z</time>
</trkpt>
<trkpt lat="35.0693742" lon="32.5947041">
<ele>757.49</ele>
<time>2015-04-27T09:45:03Z</time>
</trkpt>
<trkpt lat="35.0693785" lon="32.5947703">
<ele>757.90</ele>
<time>2015-04-27T09:45:07Z</time>
</trkpt>
<trkpt lat="35.0693742" lon="32.5948275">
<ele>757.92</ele>
<time>2015-04-27T09:45:10Z</time>
</trkpt>
<trkpt lat="35.0693714" lon="32.5948869">
<ele>758.80</ele>
<time>2015-04-27T09:45:13Z</time>
</trkpt>
<trkpt lat="35.0693645" lon="32.5949432">
<ele>759.53</ele>
<time>2015-04-27T09:45:16Z</time>
</trkpt>
<trkpt lat="35.0693623" lon="32.5950038">
<ele>761.60</ele>
<time>2015-04-27T09:45:21Z</time>
</trkpt>
<trkpt lat="35.0693606" lon="32.5950628">
<ele>763.59</ele>
<time>2015-04-27T09:45:25Z</time>
</trkpt>
<trkpt lat="35.0693572" lon="32.5951324">
<ele>763.15</ele>
<time>2015-04-27T09:45:29Z</time>
</trkpt>
<trkpt lat="35.0693678" lon="32.5952034">
<ele>765.44</ele>
<time>2015-04-27T09:45:33Z</time>
</trkpt>
<trkpt lat="35.0693751" lon="32.5952708">
<ele>765.89</ele>
<time>2015-04-27T09:45:37Z</time>
</trkpt>
<trkpt lat="35.0693801" lon="32.5953347">
<ele>765.92</ele>
<time>2015-04-27T09:45:41Z</time>
</trkpt>
<trkpt lat="35.0693858" lon="32.5953984">
<ele>766.67</ele>
<time>2015-04-27T09:45:45Z</time>
</trkpt>
<trkpt lat="35.0694009" lon="32.5954517">
<ele>766.89</ele>
<time>2015-04-27T09:45:48Z</time>
</trkpt>
<trkpt lat="35.0694170" lon="32.5955202">
<ele>766.92</ele>
<time>2015-04-27T09:45:52Z</time>
</trkpt>
<trkpt lat="35.0694098" lon="32.5955763">
<ele>769.05</ele>
<time>2015-04-27T09:45:56Z</time>
</trkpt>
<trkpt lat="35.0694054" lon="32.5956354">
<ele>769.29</ele>
<time>2015-04-27T09:46:02Z</time>
</trkpt>
<trkpt lat="35.0693732" lon="32.5956835">
<ele>768.70</ele>
<time>2015-04-27T09:46:06Z</time>
</trkpt>
<trkpt lat="35.0693327" lon="32.5957347">
<ele>768.41</ele>
<time>2015-04-27T09:46:10Z</time>
</trkpt>
<trkpt lat="35.0692891" lon="32.5957725">
<ele>768.71</ele>
<time>2015-04-27T09:46:14Z</time>
</trkpt>
<trkpt lat="35.0692433" lon="32.5957996">
<ele>772.47</ele>
<time>2015-04-27T09:46:18Z</time>
</trkpt>
<trkpt lat="35.0691970" lon="32.5958281">
<ele>772.81</ele>
<time>2015-04-27T09:46:20Z</time>
</trkpt>
<trkpt lat="35.0691566" lon="32.5958576">
<ele>772.16</ele>
<time>2015-04-27T09:46:23Z</time>
</trkpt>
<trkpt lat="35.0691238" lon="32.5959011">
<ele>773.63</ele>
<time>2015-04-27T09:46:27Z</time>
</trkpt>
<trkpt lat="35.0690998" lon="32.5959621">
<ele>773.09</ele>
<time>2015-04-27T09:46:31Z</time>
</trkpt>
<trkpt lat="35.0690927" lon="32.5960172">
<ele>773.00</ele>
<time>2015-04-27T09:46:35Z</time>
</trkpt>
<trkpt lat="35.0690992" lon="32.5960727">
<ele>774.30</ele>
<time>2015-04-27T09:46:40Z</time>
</trkpt>
<trkpt lat="35.0691004" lon="32.5961289">
<ele>772.14</ele>
<time>2015-04-27T09:46:44Z</time>
</trkpt>
<trkpt lat="35.0691069" lon="32.5961924">
<ele>769.38</ele>
<time>2015-04-27T09:46:48Z</time>
</trkpt>
<trkpt lat="35.0691114" lon="32.5962587">
<ele>768.52</ele>
<time>2015-04-27T09:46:52Z</time>
</trkpt>
<trkpt lat="35.0691062" lon="32.5963239">
<ele>769.84</ele>
<time>2015-04-27T09:46:56Z</time>
</trkpt>
<trkpt lat="35.0690978" lon="32.5963910">
<ele>769.92</ele>
<time>2015-04-27T09:47:00Z</time>
</trkpt>
<trkpt lat="35.0690874" lon="32.5964539">
<ele>769.92</ele>
<time>2015-04-27T09:47:04Z</time>
</trkpt>
<trkpt lat="35.0690888" lon="32.5965173">
<ele>771.61</ele>
<time>2015-04-27T09:47:08Z</time>
</trkpt>
<trkpt lat="35.0690925" lon="32.5965838">
<ele>772.66</ele>
<time>2015-04-27T09:47:12Z</time>
</trkpt>
<trkpt lat="35.0690995" lon="32.5966516">
<ele>773.02</ele>
<time>2015-04-27T09:47:15Z</time>
</trkpt>
<trkpt lat="35.0690977" lon="32.5967136">
<ele>773.06</ele>
<time>2015-04-27T09:47:18Z</time>
</trkpt>
<trkpt lat="35.0690916" lon="32.5967751">
<ele>772.93</ele>
<time>2015-04-27T09:47:23Z</time>
</trkpt>
<trkpt lat="35.0690699" lon="32.5968329">
<ele>772.93</ele>
<time>2015-04-27T09:47:26Z</time>
</trkpt>
<trkpt lat="35.0690390" lon="32.5968920">
<ele>774.30</ele>
<time>2015-04-27T09:47:30Z</time>
</trkpt>
<trkpt lat="35.0690082" lon="32.5969344">
<ele>775.57</ele>
<time>2015-04-27T09:47:34Z</time>
</trkpt>
<trkpt lat="35.0689596" lon="32.5969644">
<ele>776.79</ele>
<time>2015-04-27T09:47:39Z</time>
</trkpt>
<trkpt lat="35.0689094" lon="32.5969720">
<ele>777.54</ele>
<time>2015-04-27T09:47:43Z</time>
</trkpt>
<trkpt lat="35.0688479" lon="32.5969843">
<ele>777.03</ele>
<time>2015-04-27T09:47:47Z</time>
</trkpt>
<trkpt lat="35.0688019" lon="32.5970085">
<ele>777.81</ele>
<time>2015-04-27T09:47:50Z</time>
</trkpt>
<trkpt lat="35.0687587" lon="32.5970387">
<ele>777.91</ele>
<time>2015-04-27T09:47:53Z</time>
</trkpt>
<trkpt lat="35.0687209" lon="32.5970727">
<ele>777.92</ele>
<time>2015-04-27T09:47:56Z</time>
</trkpt>
<trkpt lat="35.0686754" lon="32.5971180">
<ele>780.05</ele>
<time>2015-04-27T09:48:00Z</time>
</trkpt>
<trkpt lat="35.0686362" lon="32.5971644">
<ele>780.25</ele>
<time>2015-04-27T09:48:04Z</time>
</trkpt>
<trkpt lat="35.0686084" lon="32.5972177">
<ele>781.38</ele>
<time>2015-04-27T09:48:08Z</time>
</trkpt>
<trkpt lat="35.0685938" lon="32.5972743">
<ele>782.64</ele>
<time>2015-04-27T09:48:12Z</time>
</trkpt>
<trkpt lat="35.0685835" lon="32.5973340">
<ele>782.47</ele>
<time>2015-04-27T09:48:16Z</time>
</trkpt>
<trkpt lat="35.0686097" lon="32.5973946">
<ele>779.46</ele>
<time>2015-04-27T09:48:20Z</time>
</trkpt>
<trkpt lat="35.0686500" lon="32.5974408">
<ele>778.50</ele>
<time>2015-04-27T09:48:25Z</time>
</trkpt>
<trkpt lat="35.0686982" lon="32.5974469">
<ele>778.90</ele>
<time>2015-04-27T09:48:29Z</time>
</trkpt>
<trkpt lat="35.0687531" lon="32.5974328">
<ele>778.92</ele>
<time>2015-04-27T09:48:33Z</time>
</trkpt>
<trkpt lat="35.0688092" lon="32.5974122">
<ele>779.86</ele>
<time>2015-04-27T09:48:37Z</time>
</trkpt>
<trkpt lat="35.0688652" lon="32.5973933">
<ele>779.92</ele>
<time>2015-04-27T09:48:41Z</time>
</trkpt>
<trkpt lat="35.0689220" lon="32.5973816">
<ele>780.42</ele>
<time>2015-04-27T09:48:45Z</time>
</trkpt>
<trkpt lat="35.0689680" lon="32.5973822">
<ele>780.49</ele>
<time>2015-04-27T09:48:48Z</time>
</trkpt>
<trkpt lat="35.0690156" lon="32.5973816">
<ele>780.87</ele>
<time>2015-04-27T09:48:51Z</time>
</trkpt>
<trkpt lat="35.0690634" lon="32.5973941">
<ele>782.29</ele>
<time>2015-04-27T09:48:54Z</time>
</trkpt>
<trkpt lat="35.0691107" lon="32.5973971">
<ele>782.10</ele>
<time>2015-04-27T09:48:57Z</time>
</trkpt>
<trkpt lat="35.0691539" lon="32.5974147">
<ele>781.94</ele>
<time>2015-04-27T09:49:01Z</time>
</trkpt>
<trkpt lat="35.0691572" lon="32.5974716">
<ele>778.80</ele>
<time>2015-04-27T09:49:52Z</time>
</trkpt>
<trkpt lat="35.0691349" lon="32.5975286">
<ele>778.91</ele>
<time>2015-04-27T09:49:55Z</time>
</trkpt>
<trkpt lat="35.0691076" lon="32.5976007">
<ele>779.80</ele>
<time>2015-04-27T09:49:58Z</time>
</trkpt>
<trkpt lat="35.0690825" lon="32.5976529">
<ele>779.89</ele>
<time>2015-04-27T09:50:00Z</time>
</trkpt>
<trkpt lat="35.0690558" lon="32.5977038">
<ele>779.67</ele>
<time>2015-04-27T09:50:02Z</time>
</trkpt>
<trkpt lat="35.0690338" lon="32.5977546">
<ele>780.36</ele>
<time>2015-04-27T09:50:04Z</time>
</trkpt>
<trkpt lat="35.0690073" lon="32.5978031">
<ele>781.28</ele>
<time>2015-04-27T09:50:06Z</time>
</trkpt>
<trkpt lat="35.0689788" lon="32.5978459">
<ele>781.76</ele>
<time>2015-04-27T09:50:08Z</time>
</trkpt>
<trkpt lat="35.0689440" lon="32.5979016">
<ele>782.99</ele>
<time>2015-04-27T09:52:38Z</time>
</trkpt>
<trkpt lat="35.0689210" lon="32.5979578">
<ele>782.93</ele>
<time>2015-04-27T09:52:41Z</time>
</trkpt>
<trkpt lat="35.0689166" lon="32.5980144">
<ele>781.68</ele>
<time>2015-04-27T09:52:43Z</time>
</trkpt>
<trkpt lat="35.0689033" lon="32.5980976">
<ele>781.86</ele>
<time>2015-04-27T09:52:45Z</time>
</trkpt>
<trkpt lat="35.0688890" lon="32.5981736">
<ele>781.91</ele>
<time>2015-04-27T09:52:47Z</time>
</trkpt>
<trkpt lat="35.0688782" lon="32.5982552">
<ele>781.17</ele>
<time>2015-04-27T09:52:49Z</time>
</trkpt>
<trkpt lat="35.0688680" lon="32.5983328">
<ele>780.99</ele>
<time>2015-04-27T09:52:51Z</time>
</trkpt>
<trkpt lat="35.0688440" lon="32.5984056">
<ele>780.94</ele>
<time>2015-04-27T09:52:53Z</time>
</trkpt>
<trkpt lat="35.0687981" lon="32.5984586">
<ele>780.68</ele>
<time>2015-04-27T09:52:55Z</time>
</trkpt>
<trkpt lat="35.0687403" lon="32.5984786">
<ele>780.86</ele>
<time>2015-04-27T09:52:57Z</time>
</trkpt>
<trkpt lat="35.0686782" lon="32.5984900">
<ele>780.91</ele>
<time>2015-04-27T09:52:59Z</time>
</trkpt>
<trkpt lat="35.0686036" lon="32.5985152">
<ele>780.92</ele>
<time>2015-04-27T09:53:01Z</time>
</trkpt>
<trkpt lat="35.0685337" lon="32.5985674">
<ele>782.17</ele>
<time>2015-04-27T09:53:03Z</time>
</trkpt>
<trkpt lat="35.0684840" lon="32.5986450">
<ele>781.99</ele>
<time>2015-04-27T09:53:05Z</time>
</trkpt>
<trkpt lat="35.0684481" lon="32.5987378">
<ele>781.94</ele>
<time>2015-04-27T09:53:07Z</time>
</trkpt>
<trkpt lat="35.0684283" lon="32.5988407">
<ele>781.93</ele>
<time>2015-04-27T09:53:09Z</time>
</trkpt>
<trkpt lat="35.0684156" lon="32.5989461">
<ele>781.93</ele>
<time>2015-04-27T09:53:11Z</time>
</trkpt>
<trkpt lat="35.0684042" lon="32.5990496">
<ele>781.93</ele>
<time>2015-04-27T09:53:13Z</time>
</trkpt>
<trkpt lat="35.0683963" lon="32.5991528">
<ele>781.18</ele>
<time>2015-04-27T09:53:15Z</time>
</trkpt>
<trkpt lat="35.0683901" lon="32.5992564">
<ele>780.99</ele>
<time>2015-04-27T09:53:17Z</time>
</trkpt>
<trkpt lat="35.0683970" lon="32.5993765">
<ele>780.94</ele>
<time>2015-04-27T09:53:19Z</time>
</trkpt>
<trkpt lat="35.0683969" lon="32.5994336">
<ele>780.93</ele>
<time>2015-04-27T09:53:20Z</time>
</trkpt>
<trkpt lat="35.0683973" lon="32.5995389">
<ele>780.43</ele>
<time>2015-04-27T09:53:22Z</time>
</trkpt>
<trkpt lat="35.0683918" lon="32.5996443">
<ele>780.05</ele>
<time>2015-04-27T09:53:24Z</time>
</trkpt>
<trkpt lat="35.0684197" lon="32.5997504">
<ele>779.96</ele>
<time>2015-04-27T09:53:26Z</time>
</trkpt>
<trkpt lat="35.0684427" lon="32.5997988">
<ele>780.44</ele>
<time>2015-04-27T09:53:27Z</time>
</trkpt>
<trkpt lat="35.0684686" lon="32.5998468">
<ele>780.68</ele>
<time>2015-04-27T09:53:28Z</time>
</trkpt>
<trkpt lat="35.0684985" lon="32.5998929">
<ele>781.30</ele>
<time>2015-04-27T09:53:29Z</time>
</trkpt>
<trkpt lat="35.0685503" lon="32.5999836">
<ele>781.52</ele>
<time>2015-04-27T09:53:31Z</time>
</trkpt>
<trkpt lat="35.0685788" lon="32.6000317">
<ele>781.72</ele>
<time>2015-04-27T09:53:32Z</time>
</trkpt>
<trkpt lat="35.0686034" lon="32.6000783">
<ele>781.82</ele>
<time>2015-04-27T09:53:33Z</time>
</trkpt>
<trkpt lat="35.0686277" lon="32.6001273">
<ele>781.87</ele>
<time>2015-04-27T09:53:34Z</time>
</trkpt>
<trkpt lat="35.0686507" lon="32.6001778">
<ele>781.90</ele>
<time>2015-04-27T09:53:35Z</time>
</trkpt>
<trkpt lat="35.0686578" lon="32.6002344">
<ele>781.91</ele>
<time>2015-04-27T09:53:36Z</time>
</trkpt>
<trkpt lat="35.0686723" lon="32.6003154">
<ele>781.92</ele>
<time>2015-04-27T09:53:38Z</time>
</trkpt>
<trkpt lat="35.0686910" lon="32.6003820">
<ele>781.92</ele>
<time>2015-04-27T09:53:40Z</time>
</trkpt>
<trkpt lat="35.0687102" lon="32.6004495">
<ele>782.67</ele>
<time>2015-04-27T09:53:43Z</time>
</trkpt>
<trkpt lat="35.0687324" lon="32.6005162">
<ele>783.77</ele>
<time>2015-04-27T09:53:46Z</time>
</trkpt>
<trkpt lat="35.0687465" lon="32.6005712">
<ele>783.89</ele>
<time>2015-04-27T09:53:48Z</time>
</trkpt>
<trkpt lat="35.0687629" lon="32.6006342">
<ele>783.67</ele>
<time>2015-04-27T09:53:50Z</time>
</trkpt>
<trkpt lat="35.0687900" lon="32.6007079">
<ele>783.86</ele>
<time>2015-04-27T09:53:52Z</time>
</trkpt>
<trkpt lat="35.0688210" lon="32.6007869">
<ele>784.66</ele>
<time>2015-04-27T09:53:54Z</time>
</trkpt>
<trkpt lat="35.0688422" lon="32.6008673">
<ele>784.86</ele>
<time>2015-04-27T09:53:56Z</time>
</trkpt>
<trkpt lat="35.0688481" lon="32.6009445">
<ele>784.91</ele>
<time>2015-04-27T09:53:58Z</time>
</trkpt>
<trkpt lat="35.0688317" lon="32.6010057">
<ele>784.92</ele>
<time>2015-04-27T09:54:00Z</time>
</trkpt>
<trkpt lat="35.0687870" lon="32.6010504">
<ele>784.92</ele>
<time>2015-04-27T09:54:02Z</time>
</trkpt>
<trkpt lat="35.0687217" lon="32.6010576">
<ele>784.92</ele>
<time>2015-04-27T09:54:04Z</time>
</trkpt>
<trkpt lat="35.0686469" lon="32.6010267">
<ele>784.92</ele>
<time>2015-04-27T09:54:06Z</time>
</trkpt>
<trkpt lat="35.0685748" lon="32.6009830">
<ele>785.42</ele>
<time>2015-04-27T09:54:08Z</time>
</trkpt>
<trkpt lat="35.0685044" lon="32.6009391">
<ele>785.80</ele>
<time>2015-04-27T09:54:10Z</time>
</trkpt>
<trkpt lat="35.0684411" lon="32.6008943">
<ele>785.14</ele>
<time>2015-04-27T09:54:12Z</time>
</trkpt>
<trkpt lat="35.0683854" lon="32.6008490">
<ele>784.23</ele>
<time>2015-04-27T09:54:14Z</time>
</trkpt>
<trkpt lat="35.0683325" lon="32.6008030">
<ele>783.25</ele>
<time>2015-04-27T09:54:16Z</time>
</trkpt>
<trkpt lat="35.0682641" lon="32.6007765">
<ele>783.51</ele>
<time>2015-04-27T09:54:18Z</time>
</trkpt>
<trkpt lat="35.0681931" lon="32.6007470">
<ele>783.07</ele>
<time>2015-04-27T09:54:20Z</time>
</trkpt>
<trkpt lat="35.0681302" lon="32.6007046">
<ele>782.96</ele>
<time>2015-04-27T09:54:22Z</time>
</trkpt>
<trkpt lat="35.0680734" lon="32.6006605">
<ele>783.43</ele>
<time>2015-04-27T09:54:24Z</time>
</trkpt>
<trkpt lat="35.0680173" lon="32.6006192">
<ele>784.30</ele>
<time>2015-04-27T09:54:26Z</time>
</trkpt>
<trkpt lat="35.0679884" lon="32.6005594">
<ele>783.52</ele>
<time>2015-04-27T09:54:28Z</time>
</trkpt>
<trkpt lat="35.0679676" lon="32.6004906">
<ele>783.07</ele>
<time>2015-04-27T09:54:30Z</time>
</trkpt>
<trkpt lat="35.0679440" lon="32.6004189">
<ele>782.96</ele>
<time>2015-04-27T09:54:32Z</time>
</trkpt>
<trkpt lat="35.0679214" lon="32.6003409">
<ele>782.43</ele>
<time>2015-04-27T09:54:34Z</time>
</trkpt>
<trkpt lat="35.0678890" lon="32.6002670">
<ele>782.05</ele>
<time>2015-04-27T09:54:36Z</time>
</trkpt>
<trkpt lat="35.0678436" lon="32.6002003">
<ele>781.96</ele>
<time>2015-04-27T09:54:38Z</time>
</trkpt>
<trkpt lat="35.0677836" lon="32.6001474">
<ele>782.68</ele>
<time>2015-04-27T09:54:40Z</time>
</trkpt>
<trkpt lat="35.0677215" lon="32.6000958">
<ele>783.11</ele>
<time>2015-04-27T09:54:42Z</time>
</trkpt>
<trkpt lat="35.0676626" lon="32.6000360">
<ele>783.72</ele>
<time>2015-04-27T09:54:44Z</time>
</trkpt>
<trkpt lat="35.0676034" lon="32.5999736">
<ele>783.87</ele>
<time>2015-04-27T09:54:46Z</time>
</trkpt>
<trkpt lat="35.0675372" lon="32.5999248">
<ele>784.41</ele>
<time>2015-04-27T09:54:48Z</time>
</trkpt>
<trkpt lat="35.0674635" lon="32.5999253">
<ele>784.05</ele>
<time>2015-04-27T09:54:50Z</time>
</trkpt>
<trkpt lat="35.0674051" lon="32.5999892">
<ele>784.71</ele>
<time>2015-04-27T09:54:52Z</time>
</trkpt>
<trkpt lat="35.0673807" lon="32.6000804">
<ele>784.62</ele>
<time>2015-04-27T09:54:54Z</time>
</trkpt>
<trkpt lat="35.0673680" lon="32.6001762">
<ele>784.85</ele>
<time>2015-04-27T09:54:56Z</time>
</trkpt>
<trkpt lat="35.0673654" lon="32.6002691">
<ele>784.91</ele>
<time>2015-04-27T09:54:58Z</time>
</trkpt>
<trkpt lat="35.0673685" lon="32.6003611">
<ele>784.17</ele>
<time>2015-04-27T09:55:00Z</time>
</trkpt>
<trkpt lat="35.0673652" lon="32.6004576">
<ele>783.74</ele>
<time>2015-04-27T09:55:02Z</time>
</trkpt>
<trkpt lat="35.0673566" lon="32.6005548">
<ele>784.13</ele>
<time>2015-04-27T09:55:04Z</time>
</trkpt>
<trkpt lat="35.0673417" lon="32.6006306">
<ele>784.03</ele>
<time>2015-04-27T09:55:05Z</time>
</trkpt>
<trkpt lat="35.0673359" lon="32.6007221">
<ele>783.95</ele>
<time>2015-04-27T09:55:07Z</time>
</trkpt>
<trkpt lat="35.0673378" lon="32.6008181">
<ele>784.68</ele>
<time>2015-04-27T09:55:09Z</time>
</trkpt>
<trkpt lat="35.0673349" lon="32.6009048">
<ele>785.61</ele>
<time>2015-04-27T09:55:11Z</time>
</trkpt>
<trkpt lat="35.0673191" lon="32.6009628">
<ele>786.27</ele>
<time>2015-04-27T09:55:12Z</time>
</trkpt>
<trkpt lat="35.0673097" lon="32.6010582">
<ele>786.01</ele>
<time>2015-04-27T09:55:14Z</time>
</trkpt>
<trkpt lat="35.0672879" lon="32.6011418">
<ele>785.20</ele>
<time>2015-04-27T09:55:16Z</time>
</trkpt>
<trkpt lat="35.0672625" lon="32.6012347">
<ele>785.24</ele>
<time>2015-04-27T09:55:18Z</time>
</trkpt>
<trkpt lat="35.0672385" lon="32.6013256">
<ele>786.25</ele>
<time>2015-04-27T09:55:20Z</time>
</trkpt>
<trkpt lat="35.0672215" lon="32.6014187">
<ele>788.01</ele>
<time>2015-04-27T09:55:22Z</time>
</trkpt>
<trkpt lat="35.0672007" lon="32.6015089">
<ele>789.20</ele>
<time>2015-04-27T09:55:24Z</time>
</trkpt>
<trkpt lat="35.0671851" lon="32.6016060">
<ele>789.74</ele>
<time>2015-04-27T09:55:26Z</time>
</trkpt>
<trkpt lat="35.0671764" lon="32.6017067">
<ele>789.38</ele>
<time>2015-04-27T09:55:28Z</time>
</trkpt>
<trkpt lat="35.0671709" lon="32.6018085">
<ele>788.04</ele>
<time>2015-04-27T09:55:30Z</time>
</trkpt>
<trkpt lat="35.0671783" lon="32.6019445">
<ele>787.95</ele>
<time>2015-04-27T09:55:32Z</time>
</trkpt>
<trkpt lat="35.0671750" lon="32.6019994">
<ele>788.44</ele>
<time>2015-04-27T09:55:33Z</time>
</trkpt>
<trkpt lat="35.0671766" lon="32.6020560">
<ele>789.18</ele>
<time>2015-04-27T09:55:34Z</time>
</trkpt>
<trkpt lat="35.0671753" lon="32.6021189">
<ele>789.05</ele>
<time>2015-04-27T09:55:35Z</time>
</trkpt>
<trkpt lat="35.0671754" lon="32.6021937">
<ele>789.49</ele>
<time>2015-04-27T09:55:36Z</time>
</trkpt>
<trkpt lat="35.0671835" lon="32.6022564">
<ele>790.21</ele>
<time>2015-04-27T09:55:37Z</time>
</trkpt>
<trkpt lat="35.0671999" lon="32.6023221">
<ele>790.57</ele>
<time>2015-04-27T09:55:38Z</time>
</trkpt>
<trkpt lat="35.0672196" lon="32.6023718">
<ele>789.75</ele>
<time>2015-04-27T09:55:39Z</time>
</trkpt>
<trkpt lat="35.0672356" lon="32.6024274">
<ele>788.84</ele>
<time>2015-04-27T09:55:40Z</time>
</trkpt>
<trkpt lat="35.0672544" lon="32.6024808">
<ele>789.38</ele>
<time>2015-04-27T09:55:41Z</time>
</trkpt>
<trkpt lat="35.0672743" lon="32.6025395">
<ele>789.65</ele>
<time>2015-04-27T09:55:42Z</time>
</trkpt>
<trkpt lat="35.0673153" lon="32.6026349">
<ele>790.11</ele>
<time>2015-04-27T09:55:44Z</time>
</trkpt>
<trkpt lat="35.0673538" lon="32.6027085">
<ele>791.47</ele>
<time>2015-04-27T09:55:46Z</time>
</trkpt>
<trkpt lat="35.0673858" lon="32.6027485">
<ele>791.20</ele>
<time>2015-04-27T09:55:47Z</time>
</trkpt>
<trkpt lat="35.0674062" lon="32.6028485">
<ele>790.99</ele>
<time>2015-04-27T09:55:49Z</time>
</trkpt>
<trkpt lat="35.0674362" lon="32.6029470">
<ele>790.94</ele>
<time>2015-04-27T09:55:51Z</time>
</trkpt>
<trkpt lat="35.0674554" lon="32.6030484">
<ele>790.93</ele>
<time>2015-04-27T09:55:53Z</time>
</trkpt>
<trkpt lat="35.0674629" lon="32.6031031">
<ele>790.93</ele>
<time>2015-04-27T09:55:54Z</time>
</trkpt>
<trkpt lat="35.0674601" lon="32.6031923">
<ele>790.43</ele>
<time>2015-04-27T09:55:56Z</time>
</trkpt>
<trkpt lat="35.0674517" lon="32.6032869">
<ele>789.80</ele>
<time>2015-04-27T09:55:58Z</time>
</trkpt>
<trkpt lat="35.0674452" lon="32.6033859">
<ele>789.14</ele>
<time>2015-04-27T09:56:00Z</time>
</trkpt>
<trkpt lat="35.0674336" lon="32.6034802">
<ele>789.48</ele>
<time>2015-04-27T09:56:02Z</time>
</trkpt>
<trkpt lat="35.0674081" lon="32.6035481">
<ele>790.31</ele>
<time>2015-04-27T09:56:04Z</time>
</trkpt>
<trkpt lat="35.0673831" lon="32.6036076">
<ele>790.77</ele>
<time>2015-04-27T09:56:06Z</time>
</trkpt>
<trkpt lat="35.0673546" lon="32.6036589">
<ele>790.89</ele>
<time>2015-04-27T09:56:08Z</time>
</trkpt>
<trkpt lat="35.0673205" lon="32.6037017">
<ele>790.67</ele>
<time>2015-04-27T09:56:10Z</time>
</trkpt>
<trkpt lat="35.0672836" lon="32.6037400">
<ele>791.36</ele>
<time>2015-04-27T09:56:12Z</time>
</trkpt>
<trkpt lat="35.0672574" lon="32.6037855">
<ele>792.03</ele>
<time>2015-04-27T09:56:14Z</time>
</trkpt>
<trkpt lat="35.0672294" lon="32.6038316">
<ele>790.70</ele>
<time>2015-04-27T09:56:16Z</time>
</trkpt>
<trkpt lat="35.0671911" lon="32.6038672">
<ele>789.37</ele>
<time>2015-04-27T09:56:18Z</time>
</trkpt>
<trkpt lat="35.0671552" lon="32.6039045">
<ele>788.54</ele>
<time>2015-04-27T09:56:20Z</time>
</trkpt>
<trkpt lat="35.0671074" lon="32.6039600">
<ele>788.75</ele>
<time>2015-04-27T09:56:23Z</time>
</trkpt>
<trkpt lat="35.0670563" lon="32.6039987">
<ele>790.15</ele>
<time>2015-04-27T09:56:26Z</time>
</trkpt>
<trkpt lat="35.0670226" lon="32.6040492">
<ele>796.42</ele>
<time>2015-04-27T09:57:06Z</time>
</trkpt>
<trkpt lat="35.0669750" lon="32.6040813">
<ele>796.24</ele>
<time>2015-04-27T09:57:09Z</time>
</trkpt>
<trkpt lat="35.0669292" lon="32.6041047">
<ele>795.50</ele>
<time>2015-04-27T09:57:11Z</time>
</trkpt>
<trkpt lat="35.0668733" lon="32.6041289">
<ele>795.50</ele>
<time>2015-04-27T09:57:14Z</time>
</trkpt>
<trkpt lat="35.0668303" lon="32.6041747">
<ele>795.12</ele>
<time>2015-04-27T09:57:17Z</time>
</trkpt>
<trkpt lat="35.0667947" lon="32.6042114">
<ele>794.97</ele>
<time>2015-04-27T09:57:19Z</time>
</trkpt>
<trkpt lat="35.0667563" lon="32.6042589">
<ele>795.69</ele>
<time>2015-04-27T09:57:21Z</time>
</trkpt>
<trkpt lat="35.0667080" lon="32.6043468">
<ele>795.62</ele>
<time>2015-04-27T09:57:23Z</time>
</trkpt>
<trkpt lat="35.0666882" lon="32.6043976">
<ele>795.77</ele>
<time>2015-04-27T09:57:24Z</time>
</trkpt>
<trkpt lat="35.0666642" lon="32.6044963">
<ele>795.39</ele>
<time>2015-04-27T09:57:26Z</time>
</trkpt>
<trkpt lat="35.0666515" lon="32.6045858">
<ele>795.04</ele>
<time>2015-04-27T09:57:28Z</time>
</trkpt>
<trkpt lat="35.0666412" lon="32.6046489">
<ele>798.92</ele>
<time>2015-04-27T09:58:16Z</time>
</trkpt>
<trkpt lat="35.0666253" lon="32.6047020">
<ele>798.92</ele>
<time>2015-04-27T09:58:19Z</time>
</trkpt>
<trkpt lat="35.0666173" lon="32.6047586">
<ele>799.67</ele>
<time>2015-04-27T09:58:21Z</time>
</trkpt>
<trkpt lat="35.0666074" lon="32.6048213">
<ele>799.11</ele>
<time>2015-04-27T09:58:23Z</time>
</trkpt>
<trkpt lat="35.0665997" lon="32.6048837">
<ele>798.97</ele>
<time>2015-04-27T09:58:25Z</time>
</trkpt>
<trkpt lat="35.0665997" lon="32.6049450">
<ele>798.44</ele>
<time>2015-04-27T09:58:27Z</time>
</trkpt>
<trkpt lat="35.0666064" lon="32.6050052">
<ele>798.05</ele>
<time>2015-04-27T09:58:29Z</time>
</trkpt>
<trkpt lat="35.0666180" lon="32.6050600">
<ele>797.96</ele>
<time>2015-04-27T09:58:31Z</time>
</trkpt>
<trkpt lat="35.0666331" lon="32.6051118">
<ele>797.93</ele>
<time>2015-04-27T09:58:34Z</time>
</trkpt>
<trkpt lat="35.0666341" lon="32.6051670">
<ele>797.93</ele>
<time>2015-04-27T09:58:38Z</time>
</trkpt>
<trkpt lat="35.0666176" lon="32.6052269">
<ele>797.92</ele>
<time>2015-04-27T09:58:42Z</time>
</trkpt>
<trkpt lat="35.0665684" lon="32.6052851">
<ele>797.92</ele>
<time>2015-04-27T09:58:46Z</time>
</trkpt>
<trkpt lat="35.0665132" lon="32.6053102">
<ele>798.42</ele>
<time>2015-04-27T09:58:48Z</time>
</trkpt>
<trkpt lat="35.0664541" lon="32.6053207">
<ele>798.05</ele>
<time>2015-04-27T09:58:50Z</time>
</trkpt>
<trkpt lat="35.0663984" lon="32.6053203">
<ele>797.96</ele>
<time>2015-04-27T09:58:52Z</time>
</trkpt>
<trkpt lat="35.0663482" lon="32.6053306">
<ele>797.93</ele>
<time>2015-04-27T09:58:54Z</time>
</trkpt>
<trkpt lat="35.0663012" lon="32.6053552">
<ele>798.43</ele>
<time>2015-04-27T09:58:56Z</time>
</trkpt>
<trkpt lat="35.0662476" lon="32.6053831">
<ele>798.30</ele>
<time>2015-04-27T09:58:58Z</time>
</trkpt>
<trkpt lat="35.0661904" lon="32.6054122">
<ele>798.52</ele>
<time>2015-04-27T09:59:00Z</time>
</trkpt>
<trkpt lat="35.0661428" lon="32.6054388">
<ele>798.82</ele>
<time>2015-04-27T09:59:02Z</time>
</trkpt>
<trkpt lat="35.0661008" lon="32.6054604">
<ele>797.65</ele>
<time>2015-04-27T09:59:04Z</time>
</trkpt>
<trkpt lat="35.0660376" lon="32.6054964">
<ele>797.77</ele>
<time>2015-04-27T09:59:07Z</time>
</trkpt>
<trkpt lat="35.0659932" lon="32.6055235">
<ele>797.89</ele>
<time>2015-04-27T09:59:09Z</time>
</trkpt>
<trkpt lat="35.0659482" lon="32.6055522">
<ele>797.92</ele>
<time>2015-04-27T09:59:11Z</time>
</trkpt>
<trkpt lat="35.0659041" lon="32.6055950">
<ele>797.92</ele>
<time>2015-04-27T09:59:13Z</time>
</trkpt>
<trkpt lat="35.0658659" lon="32.6056722">
<ele>797.92</ele>
<time>2015-04-27T09:59:15Z</time>
</trkpt>
<trkpt lat="35.0658631" lon="32.6057559">
<ele>797.92</ele>
<time>2015-04-27T09:59:17Z</time>
</trkpt>
<trkpt lat="35.0658854" lon="32.6058190">
<ele>797.42</ele>
<time>2015-04-27T09:59:19Z</time>
</trkpt>
<trkpt lat="35.0659178" lon="32.6058620">
<ele>797.05</ele>
<time>2015-04-27T09:59:21Z</time>
</trkpt>
<trkpt lat="35.0659622" lon="32.6059057">
<ele>797.71</ele>
<time>2015-04-27T09:59:23Z</time>
</trkpt>
<trkpt lat="35.0660175" lon="32.6059556">
<ele>797.87</ele>
<time>2015-04-27T09:59:25Z</time>
</trkpt>
<trkpt lat="35.0660736" lon="32.6060035">
<ele>798.41</ele>
<time>2015-04-27T09:59:27Z</time>
</trkpt>
<trkpt lat="35.0661336" lon="32.6060398">
<ele>799.30</ele>
<time>2015-04-27T09:59:29Z</time>
</trkpt>
<trkpt lat="35.0661943" lon="32.6060788">
<ele>800.27</ele>
<time>2015-04-27T09:59:31Z</time>
</trkpt>
<trkpt lat="35.0662628" lon="32.6061200">
<ele>800.76</ele>
<time>2015-04-27T09:59:33Z</time>
</trkpt>
<trkpt lat="35.0663331" lon="32.6061558">
<ele>800.88</ele>
<time>2015-04-27T09:59:35Z</time>
</trkpt>
<trkpt lat="35.0663954" lon="32.6061938">
<ele>800.91</ele>
<time>2015-04-27T09:59:37Z</time>
</trkpt>
<trkpt lat="35.0664521" lon="32.6062378">
<ele>800.92</ele>
<time>2015-04-27T09:59:39Z</time>
</trkpt>
<trkpt lat="35.0665061" lon="32.6062851">
<ele>800.92</ele>
<time>2015-04-27T09:59:41Z</time>
</trkpt>
<trkpt lat="35.0665513" lon="32.6063385">
<ele>800.92</ele>
<time>2015-04-27T09:59:43Z</time>
</trkpt>
<trkpt lat="35.0665916" lon="32.6063777">
<ele>800.92</ele>
<time>2015-04-27T09:59:45Z</time>
</trkpt>
<trkpt lat="35.0666433" lon="32.6064004">
<ele>799.92</ele>
<time>2015-04-27T09:59:47Z</time>
</trkpt>
<trkpt lat="35.0666959" lon="32.6064139">
<ele>801.17</ele>
<time>2015-04-27T09:59:49Z</time>
</trkpt>
<trkpt lat="35.0667456" lon="32.6064279">
<ele>802.24</ele>
<time>2015-04-27T09:59:51Z</time>
</trkpt>
<trkpt lat="35.0667961" lon="32.6064455">
<ele>802.75</ele>
<time>2015-04-27T09:59:53Z</time>
</trkpt>
<trkpt lat="35.0668489" lon="32.6064672">
<ele>802.38</ele>
<time>2015-04-27T09:59:55Z</time>
</trkpt>
<trkpt lat="35.0669065" lon="32.6064960">
<ele>802.79</ele>
<time>2015-04-27T09:59:57Z</time>
</trkpt>
<trkpt lat="35.0669622" lon="32.6065225">
<ele>803.39</ele>
<time>2015-04-27T09:59:59Z</time>
</trkpt>
<trkpt lat="35.0670042" lon="32.6065438">
<ele>803.79</ele>
<time>2015-04-27T10:00:01Z</time>
</trkpt>
<trkpt lat="35.0670540" lon="32.6065635">
<ele>804.78</ele>
<time>2015-04-27T10:00:04Z</time>
</trkpt>
<trkpt lat="35.0671106" lon="32.6065743">
<ele>804.91</ele>
<time>2015-04-27T10:00:07Z</time>
</trkpt>
<trkpt lat="35.0671739" lon="32.6065823">
<ele>804.92</ele>
<time>2015-04-27T10:00:10Z</time>
</trkpt>
<trkpt lat="35.0672370" lon="32.6066039">
<ele>803.30</ele>
<time>2015-04-27T10:00:13Z</time>
</trkpt>
<trkpt lat="35.0672772" lon="32.6066459">
<ele>802.47</ele>
<time>2015-04-27T10:00:16Z</time>
</trkpt>
<trkpt lat="35.0672958" lon="32.6067098">
<ele>802.90</ele>
<time>2015-04-27T10:00:20Z</time>
</trkpt>
<trkpt lat="35.0672993" lon="32.6067728">
<ele>802.17</ele>
<time>2015-04-27T10:00:24Z</time>
</trkpt>
<trkpt lat="35.0673053" lon="32.6068427">
<ele>801.94</ele>
<time>2015-04-27T10:00:28Z</time>
</trkpt>
<trkpt lat="35.0673052" lon="32.6069192">
<ele>801.93</ele>
<time>2015-04-27T10:00:31Z</time>
</trkpt>
<trkpt lat="35.0673093" lon="32.6069768">
<ele>801.93</ele>
<time>2015-04-27T10:00:33Z</time>
</trkpt>
<trkpt lat="35.0673194" lon="32.6070355">
<ele>801.93</ele>
<time>2015-04-27T10:00:35Z</time>
</trkpt>
<trkpt lat="35.0673242" lon="32.6070941">
<ele>801.93</ele>
<time>2015-04-27T10:00:37Z</time>
</trkpt>
<trkpt lat="35.0673276" lon="32.6071500">
<ele>801.42</ele>
<time>2015-04-27T10:00:39Z</time>
</trkpt>
<trkpt lat="35.0673100" lon="32.6072224">
<ele>800.99</ele>
<time>2015-04-27T10:00:42Z</time>
</trkpt>
<trkpt lat="35.0672737" lon="32.6072550">
<ele>800.94</ele>
<time>2015-04-27T10:00:44Z</time>
</trkpt>
<trkpt lat="35.0672244" lon="32.6072830">
<ele>800.93</ele>
<time>2015-04-27T10:00:46Z</time>
</trkpt>
<trkpt lat="35.0671693" lon="32.6073085">
<ele>801.43</ele>
<time>2015-04-27T10:00:48Z</time>
</trkpt>
<trkpt lat="35.0671168" lon="32.6073196">
<ele>801.80</ele>
<time>2015-04-27T10:00:50Z</time>
</trkpt>
<trkpt lat="35.0670649" lon="32.6073160">
<ele>801.14</ele>
<time>2015-04-27T10:00:52Z</time>
</trkpt>
<trkpt lat="35.0670141" lon="32.6073238">
<ele>800.98</ele>
<time>2015-04-27T10:00:54Z</time>
</trkpt>
<trkpt lat="35.0669680" lon="32.6073452">
<ele>801.69</ele>
<time>2015-04-27T10:00:56Z</time>
</trkpt>
<trkpt lat="35.0669237" lon="32.6073682">
<ele>802.62</ele>
<time>2015-04-27T10:00:58Z</time>
</trkpt>
<trkpt lat="35.0668736" lon="32.6073912">
<ele>802.60</ele>
<time>2015-04-27T10:01:00Z</time>
</trkpt>
<trkpt lat="35.0668240" lon="32.6074107">
<ele>802.84</ele>
<time>2015-04-27T10:01:02Z</time>
</trkpt>
<trkpt lat="35.0667744" lon="32.6074365">
<ele>802.65</ele>
<time>2015-04-27T10:01:04Z</time>
</trkpt>
<trkpt lat="35.0667262" lon="32.6074707">
<ele>802.86</ele>
<time>2015-04-27T10:01:06Z</time>
</trkpt>
<trkpt lat="35.0666767" lon="32.6075089">
<ele>802.91</ele>
<time>2015-04-27T10:01:08Z</time>
</trkpt>
<trkpt lat="35.0666286" lon="32.6075623">
<ele>803.67</ele>
<time>2015-04-27T10:01:10Z</time>
</trkpt>
<trkpt lat="35.0665884" lon="32.6076166">
<ele>803.86</ele>
<time>2015-04-27T10:01:12Z</time>
</trkpt>
<trkpt lat="35.0665535" lon="32.6076726">
<ele>803.16</ele>
<time>2015-04-27T10:01:14Z</time>
</trkpt>
<trkpt lat="35.0665222" lon="32.6077278">
<ele>802.98</ele>
<time>2015-04-27T10:01:16Z</time>
</trkpt>
<trkpt lat="35.0664943" lon="32.6077852">
<ele>802.44</ele>
<time>2015-04-27T10:01:18Z</time>
</trkpt>
<trkpt lat="35.0664749" lon="32.6078469">
<ele>802.05</ele>
<time>2015-04-27T10:01:20Z</time>
</trkpt>
<trkpt lat="35.0664528" lon="32.6079108">
<ele>801.96</ele>
<time>2015-04-27T10:01:22Z</time>
</trkpt>
<trkpt lat="35.0664161" lon="32.6079784">
<ele>801.93</ele>
<time>2015-04-27T10:01:24Z</time>
</trkpt>
<trkpt lat="35.0663687" lon="32.6080380">
<ele>801.93</ele>
<time>2015-04-27T10:01:26Z</time>
</trkpt>
<trkpt lat="35.0663168" lon="32.6080820">
<ele>802.43</ele>
<time>2015-04-27T10:01:28Z</time>
</trkpt>
<trkpt lat="35.0662639" lon="32.6081193">
<ele>803.30</ele>
<time>2015-04-27T10:01:30Z</time>
</trkpt>
<trkpt lat="35.0662119" lon="32.6081557">
<ele>803.77</ele>
<time>2015-04-27T10:01:32Z</time>
</trkpt>
<trkpt lat="35.0661609" lon="32.6081888">
<ele>803.89</ele>
<time>2015-04-27T10:01:34Z</time>
</trkpt>
<trkpt lat="35.0661083" lon="32.6082219">
<ele>803.92</ele>
<time>2015-04-27T10:01:36Z</time>
</trkpt>
<trkpt lat="35.0660559" lon="32.6082530">
<ele>804.67</ele>
<time>2015-04-27T10:01:38Z</time>
</trkpt>
<trkpt lat="35.0660065" lon="32.6082826">
<ele>804.86</ele>
<time>2015-04-27T10:01:40Z</time>
</trkpt>
<trkpt lat="35.0659590" lon="32.6083136">
<ele>805.41</ele>
<time>2015-04-27T10:01:42Z</time>
</trkpt>
<trkpt lat="35.0659129" lon="32.6083432">
<ele>805.80</ele>
<time>2015-04-27T10:01:44Z</time>
</trkpt>
<trkpt lat="35.0658680" lon="32.6083715">
<ele>805.89</ele>
<time>2015-04-27T10:01:46Z</time>
</trkpt>
<trkpt lat="35.0658214" lon="32.6083890">
<ele>806.42</ele>
<time>2015-04-27T10:01:48Z</time>
</trkpt>
<trkpt lat="35.0657700" lon="32.6083869">
<ele>806.05</ele>
<time>2015-04-27T10:01:50Z</time>
</trkpt>
<trkpt lat="35.0657182" lon="32.6083858">
<ele>805.71</ele>
<time>2015-04-27T10:01:52Z</time>
</trkpt>
<trkpt lat="35.0656668" lon="32.6083906">
<ele>805.87</ele>
<time>2015-04-27T10:01:54Z</time>
</trkpt>
<trkpt lat="35.0656179" lon="32.6083900">
<ele>805.41</ele>
<time>2015-04-27T10:01:56Z</time>
</trkpt>
<trkpt lat="35.0655672" lon="32.6083981">
<ele>805.05</ele>
<time>2015-04-27T10:01:58Z</time>
</trkpt>
<trkpt lat="35.0655153" lon="32.6084235">
<ele>804.96</ele>
<time>2015-04-27T10:02:00Z</time>
</trkpt>
<trkpt lat="35.0654634" lon="32.6084523">
<ele>805.43</ele>
<time>2015-04-27T10:02:02Z</time>
</trkpt>
<trkpt lat="35.0654166" lon="32.6084857">
<ele>806.30</ele>
<time>2015-04-27T10:02:04Z</time>
</trkpt>
<trkpt lat="35.0653667" lon="32.6085224">
<ele>806.77</ele>
<time>2015-04-27T10:02:06Z</time>
</trkpt>
<trkpt lat="35.0652997" lon="32.6085607">
<ele>806.89</ele>
<time>2015-04-27T10:02:08Z</time>
</trkpt>
<trkpt lat="35.0652379" lon="32.6085963">
<ele>806.92</ele>
<time>2015-04-27T10:02:10Z</time>
</trkpt>
<trkpt lat="35.0651823" lon="32.6086386">
<ele>806.92</ele>
<time>2015-04-27T10:02:12Z</time>
</trkpt>
<trkpt lat="35.0651355" lon="32.6086762">
<ele>806.42</ele>
<time>2015-04-27T10:02:14Z</time>
</trkpt>
<trkpt lat="35.0650958" lon="32.6087427">
<ele>805.99</ele>
<time>2015-04-27T10:02:17Z</time>
</trkpt>
<trkpt lat="35.0650897" lon="32.6088102">
<ele>805.94</ele>
<time>2015-04-27T10:02:19Z</time>
</trkpt>
<trkpt lat="35.0651193" lon="32.6088951">
<ele>805.18</ele>
<time>2015-04-27T10:02:21Z</time>
</trkpt>
<trkpt lat="35.0651647" lon="32.6089748">
<ele>804.99</ele>
<time>2015-04-27T10:02:23Z</time>
</trkpt>
<trkpt lat="35.0651974" lon="32.6090544">
<ele>804.94</ele>
<time>2015-04-27T10:02:25Z</time>
</trkpt>
<trkpt lat="35.0652148" lon="32.6091284">
<ele>804.93</ele>
<time>2015-04-27T10:02:27Z</time>
</trkpt>
<trkpt lat="35.0652321" lon="32.6091932">
<ele>804.93</ele>
<time>2015-04-27T10:02:29Z</time>
</trkpt>
<trkpt lat="35.0652570" lon="32.6092522">
<ele>804.43</ele>
<time>2015-04-27T10:02:31Z</time>
</trkpt>
<trkpt lat="35.0653068" lon="32.6092989">
<ele>805.05</ele>
<time>2015-04-27T10:02:33Z</time>
</trkpt>
<trkpt lat="35.0653674" lon="32.6093245">
<ele>804.46</ele>
<time>2015-04-27T10:02:35Z</time>
</trkpt>
<trkpt lat="35.0654258" lon="32.6093358">
<ele>803.31</ele>
<time>2015-04-27T10:02:37Z</time>
</trkpt>
<trkpt lat="35.0654827" lon="32.6093376">
<ele>802.52</ele>
<time>2015-04-27T10:02:39Z</time>
</trkpt>
<trkpt lat="35.0655392" lon="32.6093366">
<ele>803.32</ele>
<time>2015-04-27T10:02:41Z</time>
</trkpt>
<trkpt lat="35.0655954" lon="32.6093448">
<ele>803.77</ele>
<time>2015-04-27T10:02:43Z</time>
</trkpt>
<trkpt lat="35.0656495" lon="32.6093637">
<ele>804.39</ele>
<time>2015-04-27T10:02:45Z</time>
</trkpt>
<trkpt lat="35.0656996" lon="32.6093990">
<ele>804.54</ele>
<time>2015-04-27T10:02:47Z</time>
</trkpt>
<trkpt lat="35.0657476" lon="32.6094416">
<ele>805.08</ele>
<time>2015-04-27T10:02:49Z</time>
</trkpt>
<trkpt lat="35.0657975" lon="32.6094852">
<ele>805.71</ele>
<time>2015-04-27T10:02:51Z</time>
</trkpt>
<trkpt lat="35.0658488" lon="32.6095301">
<ele>805.87</ele>
<time>2015-04-27T10:02:53Z</time>
</trkpt>
<trkpt lat="35.0659030" lon="32.6095699">
<ele>806.41</ele>
<time>2015-04-27T10:02:55Z</time>
</trkpt>
<trkpt lat="35.0659604" lon="32.6096034">
<ele>806.05</ele>
<time>2015-04-27T10:02:57Z</time>
</trkpt>
<trkpt lat="35.0660198" lon="32.6096311">
<ele>806.21</ele>
<time>2015-04-27T10:02:59Z</time>
</trkpt>
<trkpt lat="35.0660772" lon="32.6096617">
<ele>806.00</ele>
<time>2015-04-27T10:03:01Z</time>
</trkpt>
<trkpt lat="35.0661322" lon="32.6096994">
<ele>805.94</ele>
<time>2015-04-27T10:03:03Z</time>
</trkpt>
<trkpt lat="35.0661800" lon="32.6097505">
<ele>805.93</ele>
<time>2015-04-27T10:03:05Z</time>
</trkpt>
<trkpt lat="35.0662229" lon="32.6098087">
<ele>806.18</ele>
<time>2015-04-27T10:03:07Z</time>
</trkpt>
<trkpt lat="35.0662608" lon="32.6098705">
<ele>806.74</ele>
<time>2015-04-27T10:03:09Z</time>
</trkpt>
<trkpt lat="35.0662958" lon="32.6099302">
<ele>807.63</ele>
<time>2015-04-27T10:03:11Z</time>
</trkpt>
<trkpt lat="35.0663200" lon="32.6099778">
<ele>807.85</ele>
<time>2015-04-27T10:03:13Z</time>
</trkpt>
<trkpt lat="35.0663510" lon="32.6100429">
<ele>807.17</ele>
<time>2015-04-27T10:03:16Z</time>
</trkpt>
<trkpt lat="35.0663792" lon="32.6101050">
<ele>807.21</ele>
<time>2015-04-27T10:03:19Z</time>
</trkpt>
<trkpt lat="35.0664065" lon="32.6101612">
<ele>806.94</ele>
<time>2015-04-27T10:03:23Z</time>
</trkpt>
<trkpt lat="35.0664165" lon="32.6102358">
<ele>806.93</ele>
<time>2015-04-27T10:03:25Z</time>
</trkpt>
<trkpt lat="35.0664091" lon="32.6103153">
<ele>806.68</ele>
<time>2015-04-27T10:03:27Z</time>
</trkpt>
<trkpt lat="35.0663954" lon="32.6103881">
<ele>805.36</ele>
<time>2015-04-27T10:03:29Z</time>
</trkpt>
<trkpt lat="35.0663731" lon="32.6104567">
<ele>805.53</ele>
<time>2015-04-27T10:03:31Z</time>
</trkpt>
<trkpt lat="35.0663460" lon="32.6105234">
<ele>806.33</ele>
<time>2015-04-27T10:03:33Z</time>
</trkpt>
<trkpt lat="35.0663176" lon="32.6105884">
<ele>806.03</ele>
<time>2015-04-27T10:03:35Z</time>
</trkpt>
<trkpt lat="35.0662898" lon="32.6106501">
<ele>806.70</ele>
<time>2015-04-27T10:03:37Z</time>
</trkpt>
<trkpt lat="35.0662651" lon="32.6107122">
<ele>806.87</ele>
<time>2015-04-27T10:03:39Z</time>
</trkpt>
<trkpt lat="35.0662460" lon="32.6107761">
<ele>807.41</ele>
<time>2015-04-27T10:03:41Z</time>
</trkpt>
<trkpt lat="35.0662178" lon="32.6108351">
<ele>807.05</ele>
<time>2015-04-27T10:03:43Z</time>
</trkpt>
<trkpt lat="35.0661893" lon="32.6108991">
<ele>806.96</ele>
<time>2015-04-27T10:03:45Z</time>
</trkpt>
<trkpt lat="35.0661655" lon="32.6109846">
<ele>806.93</ele>
<time>2015-04-27T10:03:47Z</time>
</trkpt>
<trkpt lat="35.0661722" lon="32.6110693">
<ele>806.43</ele>
<time>2015-04-27T10:03:49Z</time>
</trkpt>
<trkpt lat="35.0662105" lon="32.6111394">
<ele>806.05</ele>
<time>2015-04-27T10:03:51Z</time>
</trkpt>
<trkpt lat="35.0662567" lon="32.6111763">
<ele>806.71</ele>
<time>2015-04-27T10:03:53Z</time>
</trkpt>
<trkpt lat="35.0663032" lon="32.6111858">
<ele>806.87</ele>
<time>2015-04-27T10:03:55Z</time>
</trkpt>
<trkpt lat="35.0663668" lon="32.6111926">
<ele>806.79</ele>
<time>2015-04-27T10:03:58Z</time>
</trkpt>
<trkpt lat="35.0664124" lon="32.6111990">
<ele>806.89</ele>
<time>2015-04-27T10:04:00Z</time>
</trkpt>
<trkpt lat="35.0664582" lon="32.6112386">
<ele>806.92</ele>
<time>2015-04-27T10:04:02Z</time>
</trkpt>
<trkpt lat="35.0664972" lon="32.6112964">
<ele>806.92</ele>
<time>2015-04-27T10:04:04Z</time>
</trkpt>
<trkpt lat="35.0665397" lon="32.6113552">
<ele>806.92</ele>
<time>2015-04-27T10:04:06Z</time>
</trkpt>
<trkpt lat="35.0665760" lon="32.6114238">
<ele>806.92</ele>
<time>2015-04-27T10:04:08Z</time>
</trkpt>
<trkpt lat="35.0665900" lon="32.6115071">
<ele>806.17</ele>
<time>2015-04-27T10:04:10Z</time>
</trkpt>
<trkpt lat="35.0666000" lon="32.6115841">
<ele>806.49</ele>
<time>2015-04-27T10:04:12Z</time>
</trkpt>
<trkpt lat="35.0666213" lon="32.6116469">
<ele>806.82</ele>
<time>2015-04-27T10:04:14Z</time>
</trkpt>
<trkpt lat="35.0666468" lon="32.6117114">
<ele>807.40</ele>
<time>2015-04-27T10:04:16Z</time>
</trkpt>
<trkpt lat="35.0666853" lon="32.6117659">
<ele>807.79</ele>
<time>2015-04-27T10:04:18Z</time>
</trkpt>
<trkpt lat="35.0667252" lon="32.6117987">
<ele>808.64</ele>
<time>2015-04-27T10:04:20Z</time>
</trkpt>
<trkpt lat="35.0667850" lon="32.6118204">
<ele>808.89</ele>
<time>2015-04-27T10:04:23Z</time>
</trkpt>
<trkpt lat="35.0668399" lon="32.6118177">
<ele>810.30</ele>
<time>2015-04-27T10:04:26Z</time>
</trkpt>
<trkpt lat="35.0668889" lon="32.6118046">
<ele>811.35</ele>
<time>2015-04-27T10:04:29Z</time>
</trkpt>
<trkpt lat="35.0669366" lon="32.6117896">
<ele>812.60</ele>
<time>2015-04-27T10:04:32Z</time>
</trkpt>
<trkpt lat="35.0669832" lon="32.6117731">
<ele>813.76</ele>
<time>2015-04-27T10:04:35Z</time>
</trkpt>
<trkpt lat="35.0670277" lon="32.6117600">
<ele>814.78</ele>
<time>2015-04-27T10:04:38Z</time>
</trkpt>
<trkpt lat="35.0670727" lon="32.6117582">
<ele>814.91</ele>
<time>2015-04-27T10:04:41Z</time>
</trkpt>
<trkpt lat="35.0671323" lon="32.6117675">
<ele>815.80</ele>
<time>2015-04-27T10:04:45Z</time>
</trkpt>
<trkpt lat="35.0671842" lon="32.6117906">
<ele>815.92</ele>
<time>2015-04-27T10:04:49Z</time>
</trkpt>
<trkpt lat="35.0672361" lon="32.6118255">
<ele>815.92</ele>
<time>2015-04-27T10:04:53Z</time>
</trkpt>
<trkpt lat="35.0672733" lon="32.6118652">
<ele>815.92</ele>
<time>2015-04-27T10:04:56Z</time>
</trkpt>
<trkpt lat="35.0672996" lon="32.6119277">
<ele>815.17</ele>
<time>2015-04-27T10:04:59Z</time>
</trkpt>
<trkpt lat="35.0673071" lon="32.6119983">
<ele>814.96</ele>
<time>2015-04-27T10:05:02Z</time>
</trkpt>
<trkpt lat="35.0672886" lon="32.6120693">
<ele>814.05</ele>
<time>2015-04-27T10:05:05Z</time>
</trkpt>
<trkpt lat="35.0672521" lon="32.6121466">
<ele>813.21</ele>
<time>2015-04-27T10:05:07Z</time>
</trkpt>
<trkpt lat="35.0672333" lon="32.6121990">
<ele>813.07</ele>
<time>2015-04-27T10:05:08Z</time>
</trkpt>
<trkpt lat="35.0672158" lon="32.6122562">
<ele>812.50</ele>
<time>2015-04-27T10:05:09Z</time>
</trkpt>
<trkpt lat="35.0671950" lon="32.6123354">
<ele>811.71</ele>
<time>2015-04-27T10:05:10Z</time>
</trkpt>
<trkpt lat="35.0671653" lon="32.6124044">
<ele>810.82</ele>
<time>2015-04-27T10:05:11Z</time>
</trkpt>
<trkpt lat="35.0671374" lon="32.6124609">
<ele>810.87</ele>
<time>2015-04-27T10:05:12Z</time>
</trkpt>
<trkpt lat="35.0671064" lon="32.6125116">
<ele>810.90</ele>
<time>2015-04-27T10:05:13Z</time>
</trkpt>
<trkpt lat="35.0670620" lon="32.6125677">
<ele>810.41</ele>
<time>2015-04-27T10:05:14Z</time>
</trkpt>
<trkpt lat="35.0670265" lon="32.6126285">
<ele>809.67</ele>
<time>2015-04-27T10:05:15Z</time>
</trkpt>
<trkpt lat="35.0670117" lon="32.6126950">
<ele>809.30</ele>
<time>2015-04-27T10:05:16Z</time>
</trkpt>
<trkpt lat="35.0669877" lon="32.6127585">
<ele>808.61</ele>
<time>2015-04-27T10:05:17Z</time>
</trkpt>
<trkpt lat="35.0669816" lon="32.6128231">
<ele>808.27</ele>
<time>2015-04-27T10:05:18Z</time>
</trkpt>
<trkpt lat="35.0669681" lon="32.6128851">
<ele>808.10</ele>
<time>2015-04-27T10:05:19Z</time>
</trkpt>
<trkpt lat="35.0669544" lon="32.6129400">
<ele>808.51</ele>
<time>2015-04-27T10:05:20Z</time>
</trkpt>
<trkpt lat="35.0669433" lon="32.6130438">
<ele>810.57</ele>
<time>2015-04-27T10:05:22Z</time>
</trkpt>
<trkpt lat="35.0669256" lon="32.6131426">
<ele>811.59</ele>
<time>2015-04-27T10:05:24Z</time>
</trkpt>
<trkpt lat="35.0669264" lon="32.6132461">
<ele>811.84</ele>
<time>2015-04-27T10:05:26Z</time>
</trkpt>
<trkpt lat="35.0669468" lon="32.6133328">
<ele>811.90</ele>
<time>2015-04-27T10:05:28Z</time>
</trkpt>
<trkpt lat="35.0669897" lon="32.6134177">
<ele>812.67</ele>
<time>2015-04-27T10:05:30Z</time>
</trkpt>
<trkpt lat="35.0670403" lon="32.6135020">
<ele>813.36</ele>
<time>2015-04-27T10:05:32Z</time>
</trkpt>
<trkpt lat="35.0670952" lon="32.6135807">
<ele>813.78</ele>
<time>2015-04-27T10:05:34Z</time>
</trkpt>
<trkpt lat="35.0671692" lon="32.6136412">
<ele>813.14</ele>
<time>2015-04-27T10:05:36Z</time>
</trkpt>
<trkpt lat="35.0672380" lon="32.6136293">
<ele>813.03</ele>
<time>2015-04-27T10:05:37Z</time>
</trkpt>
<trkpt lat="35.0672881" lon="32.6136254">
<ele>813.48</ele>
<time>2015-04-27T10:05:38Z</time>
</trkpt>
<trkpt lat="35.0673403" lon="32.6136168">
<ele>813.70</ele>
<time>2015-04-27T10:05:39Z</time>
</trkpt>
<trkpt lat="35.0673873" lon="32.6136244">
<ele>813.81</ele>
<time>2015-04-27T10:05:40Z</time>
</trkpt>
<trkpt lat="35.0674666" lon="32.6136513">
<ele>813.65</ele>
<time>2015-04-27T10:05:42Z</time>
</trkpt>
<trkpt lat="35.0675258" lon="32.6137159">
<ele>813.61</ele>
<time>2015-04-27T10:05:44Z</time>
</trkpt>
<trkpt lat="35.0675613" lon="32.6137930">
<ele>814.60</ele>
<time>2015-04-27T10:05:46Z</time>
</trkpt>
<trkpt lat="35.0676040" lon="32.6138784">
<ele>814.84</ele>
<time>2015-04-27T10:05:48Z</time>
</trkpt>
<trkpt lat="35.0676802" lon="32.6139384">
<ele>814.65</ele>
<time>2015-04-27T10:05:50Z</time>
</trkpt>
<trkpt lat="35.0677266" lon="32.6139644">
<ele>814.79</ele>
<time>2015-04-27T10:05:51Z</time>
</trkpt>
<trkpt lat="35.0677890" lon="32.6139493">
<ele>814.89</ele>
<time>2015-04-27T10:05:53Z</time>
</trkpt>
<trkpt lat="35.0678557" lon="32.6139263">
<ele>814.92</ele>
<time>2015-04-27T10:05:55Z</time>
</trkpt>
<trkpt lat="35.0679211" lon="32.6138944">
<ele>814.92</ele>
<time>2015-04-27T10:05:57Z</time>
</trkpt>
<trkpt lat="35.0679650" lon="32.6138789">
<ele>815.42</ele>
<time>2015-04-27T10:05:58Z</time>
</trkpt>
<trkpt lat="35.0680388" lon="32.6138658">
<ele>815.05</ele>
<time>2015-04-27T10:06:00Z</time>
</trkpt>
<trkpt lat="35.0681156" lon="32.6138948">
<ele>814.96</ele>
<time>2015-04-27T10:06:02Z</time>
</trkpt>
<trkpt lat="35.0681747" lon="32.6139562">
<ele>814.93</ele>
<time>2015-04-27T10:06:04Z</time>
</trkpt>
<trkpt lat="35.0682028" lon="32.6140296">
<ele>814.93</ele>
<time>2015-04-27T10:06:06Z</time>
</trkpt>
<trkpt lat="35.0681892" lon="32.6141030">
<ele>814.93</ele>
<time>2015-04-27T10:06:08Z</time>
</trkpt>
<trkpt lat="35.0681580" lon="32.6141704">
<ele>816.43</ele>
<time>2015-04-27T10:06:10Z</time>
</trkpt>
<trkpt lat="35.0681218" lon="32.6142344">
<ele>816.80</ele>
<time>2015-04-27T10:06:12Z</time>
</trkpt>
<trkpt lat="35.0680798" lon="32.6142978">
<ele>816.89</ele>
<time>2015-04-27T10:06:14Z</time>
</trkpt>
<trkpt lat="35.0680376" lon="32.6143647">
<ele>816.67</ele>
<time>2015-04-27T10:06:16Z</time>
</trkpt>
<trkpt lat="35.0679971" lon="32.6144302">
<ele>816.11</ele>
<time>2015-04-27T10:06:18Z</time>
</trkpt>
<trkpt lat="35.0679560" lon="32.6144950">
<ele>815.97</ele>
<time>2015-04-27T10:06:20Z</time>
</trkpt>
<trkpt lat="35.0679126" lon="32.6145598">
<ele>816.19</ele>
<time>2015-04-27T10:06:22Z</time>
</trkpt>
<trkpt lat="35.0678710" lon="32.6146234">
<ele>815.99</ele>
<time>2015-04-27T10:06:24Z</time>
</trkpt>
<trkpt lat="35.0678380" lon="32.6146828">
<ele>815.69</ele>
<time>2015-04-27T10:06:26Z</time>
</trkpt>
<trkpt lat="35.0678210" lon="32.6147452">
<ele>815.90</ele>
<time>2015-04-27T10:06:29Z</time>
</trkpt>
<trkpt lat="35.0678168" lon="32.6148380">
<ele>815.55</ele>
<time>2015-04-27T10:06:32Z</time>
</trkpt>
<trkpt lat="35.0678232" lon="32.6149170">
<ele>815.58</ele>
<time>2015-04-27T10:06:34Z</time>
</trkpt>
<trkpt lat="35.0678351" lon="32.6149878">
<ele>816.34</ele>
<time>2015-04-27T10:06:36Z</time>
</trkpt>
<trkpt lat="35.0678462" lon="32.6150531">
<ele>816.78</ele>
<time>2015-04-27T10:06:38Z</time>
</trkpt>
<trkpt lat="35.0678491" lon="32.6151151">
<ele>816.28</ele>
<time>2015-04-27T10:06:41Z</time>
</trkpt>
<trkpt lat="35.0678547" lon="32.6151717">
<ele>816.72</ele>
<time>2015-04-27T10:06:44Z</time>
</trkpt>
<trkpt lat="35.0678628" lon="32.6152287">
<ele>816.90</ele>
<time>2015-04-27T10:06:47Z</time>
</trkpt>
<trkpt lat="35.0678360" lon="32.6152860">
<ele>815.55</ele>
<time>2015-04-27T10:06:51Z</time>
</trkpt>
<trkpt lat="35.0677857" lon="32.6152857">
<ele>815.63</ele>
<time>2015-04-27T10:06:54Z</time>
</trkpt>
<trkpt lat="35.0677334" lon="32.6152555">
<ele>815.26</ele>
<time>2015-04-27T10:06:57Z</time>
</trkpt>
<trkpt lat="35.0676924" lon="32.6152315">
<ele>818.41</ele>
<time>2015-04-27T10:07:15Z</time>
</trkpt>
<trkpt lat="35.0676505" lon="32.6152055">
<ele>819.80</ele>
<time>2015-04-27T10:19:16Z</time>
</trkpt>
<trkpt lat="35.0676018" lon="32.6152016">
<ele>819.43</ele>
<time>2015-04-27T10:22:11Z</time>
</trkpt>
<trkpt lat="35.0675568" lon="32.6152115">
<ele>819.33</ele>
<time>2015-04-27T10:22:15Z</time>
</trkpt>
<trkpt lat="35.0675014" lon="32.6152051">
<ele>819.01</ele>
<time>2015-04-27T10:22:19Z</time>
</trkpt>
<trkpt lat="35.0674470" lon="32.6152110">
<ele>818.49</ele>
<time>2015-04-27T10:22:23Z</time>
</trkpt>
<trkpt lat="35.0673960" lon="32.6152144">
<ele>820.15</ele>
<time>2015-04-27T10:22:27Z</time>
</trkpt>
<trkpt lat="35.0673517" lon="32.6152470">
<ele>821.03</ele>
<time>2015-04-27T10:22:32Z</time>
</trkpt>
<trkpt lat="35.0673112" lon="32.6152759">
<ele>820.71</ele>
<time>2015-04-27T10:22:37Z</time>
</trkpt>
<trkpt lat="35.0672566" lon="32.6152765">
<ele>821.39</ele>
<time>2015-04-27T10:22:42Z</time>
</trkpt>
<trkpt lat="35.0672065" lon="32.6152630">
<ele>822.77</ele>
<time>2015-04-27T10:22:46Z</time>
</trkpt>
<trkpt lat="35.0671543" lon="32.6152679">
<ele>822.98</ele>
<time>2015-04-27T10:22:50Z</time>
</trkpt>
<trkpt lat="35.0671026" lon="32.6152519">
<ele>823.68</ele>
<time>2015-04-27T10:22:54Z</time>
</trkpt>
<trkpt lat="35.0670591" lon="32.6152133">
<ele>824.85</ele>
<time>2015-04-27T10:22:58Z</time>
</trkpt>
<trkpt lat="35.0670285" lon="32.6151712">
<ele>824.92</ele>
<time>2015-04-27T10:23:02Z</time>
</trkpt>
<trkpt lat="35.0670114" lon="32.6151081">
<ele>824.49</ele>
<time>2015-04-27T10:23:07Z</time>
</trkpt>
<trkpt lat="35.0669942" lon="32.6150453">
<ele>824.04</ele>
<time>2015-04-27T10:23:12Z</time>
</trkpt>
<trkpt lat="35.0669936" lon="32.6149757">
<ele>824.18</ele>
<time>2015-04-27T10:23:17Z</time>
</trkpt>
<trkpt lat="35.0669917" lon="32.6149064">
<ele>824.38</ele>
<time>2015-04-27T10:23:21Z</time>
</trkpt>
<trkpt lat="35.0669916" lon="32.6148468">
<ele>824.23</ele>
<time>2015-04-27T10:23:24Z</time>
</trkpt>
<trkpt lat="35.0669745" lon="32.6147910">
<ele>823.84</ele>
<time>2015-04-27T10:23:27Z</time>
</trkpt>
<trkpt lat="35.0669619" lon="32.6147309">
<ele>823.91</ele>
<time>2015-04-27T10:23:30Z</time>
</trkpt>
<trkpt lat="35.0669512" lon="32.6146706">
<ele>823.80</ele>
<time>2015-04-27T10:23:33Z</time>
</trkpt>
<trkpt lat="35.0669382" lon="32.6146114">
<ele>823.28</ele>
<time>2015-04-27T10:23:36Z</time>
</trkpt>
<trkpt lat="35.0669058" lon="32.6145503">
<ele>823.47</ele>
<time>2015-04-27T10:23:39Z</time>
</trkpt>
<trkpt lat="35.0668728" lon="32.6145097">
<ele>824.56</ele>
<time>2015-04-27T10:23:41Z</time>
</trkpt>
<trkpt lat="35.0668336" lon="32.6144656">
<ele>824.83</ele>
<time>2015-04-27T10:23:43Z</time>
</trkpt>
<trkpt lat="35.0667918" lon="32.6144263">
<ele>825.15</ele>
<time>2015-04-27T10:23:45Z</time>
</trkpt>
<trkpt lat="35.0667527" lon="32.6143864">
<ele>825.48</ele>
<time>2015-04-27T10:23:47Z</time>
</trkpt>
<trkpt lat="35.0667172" lon="32.6143487">
<ele>825.06</ele>
<time>2015-04-27T10:23:49Z</time>
</trkpt>
<trkpt lat="35.0666818" lon="32.6143106">
<ele>825.46</ele>
<time>2015-04-27T10:23:51Z</time>
</trkpt>
<trkpt lat="35.0666393" lon="32.6142794">
<ele>825.06</ele>
<time>2015-04-27T10:23:53Z</time>
</trkpt>
<trkpt lat="35.0665968" lon="32.6142470">
<ele>825.71</ele>
<time>2015-04-27T10:23:55Z</time>
</trkpt>
<trkpt lat="35.0665559" lon="32.6142120">
<ele>825.87</ele>
<time>2015-04-27T10:23:57Z</time>
</trkpt>
<trkpt lat="35.0665168" lon="32.6141794">
<ele>825.91</ele>
<time>2015-04-27T10:23:59Z</time>
</trkpt>
<trkpt lat="35.0664736" lon="32.6141536">
<ele>827.17</ele>
<time>2015-04-27T10:24:01Z</time>
</trkpt>
<trkpt lat="35.0664305" lon="32.6141315">
<ele>828.24</ele>
<time>2015-04-27T10:24:03Z</time>
</trkpt>
<trkpt lat="35.0663860" lon="32.6141078">
<ele>828.50</ele>
<time>2015-04-27T10:24:05Z</time>
</trkpt>
<trkpt lat="35.0663461" lon="32.6140802">
<ele>828.57</ele>
<time>2015-04-27T10:24:07Z</time>
</trkpt>
<trkpt lat="35.0663000" lon="32.6140325">
<ele>829.38</ele>
<time>2015-04-27T10:24:10Z</time>
</trkpt>
<trkpt lat="35.0662567" lon="32.6139983">
<ele>828.61</ele>
<time>2015-04-27T10:24:13Z</time>
</trkpt>
<trkpt lat="35.0662237" lon="32.6139383">
<ele>826.34</ele>
<time>2015-04-27T10:24:17Z</time>
</trkpt>
<trkpt lat="35.0662049" lon="32.6138703">
<ele>830.10</ele>
<time>2015-04-27T10:24:20Z</time>
</trkpt>
<trkpt lat="35.0661849" lon="32.6138100">
<ele>832.45</ele>
<time>2015-04-27T10:24:23Z</time>
</trkpt>
<trkpt lat="35.0661826" lon="32.6137425">
<ele>831.62</ele>
<time>2015-04-27T10:24:26Z</time>
</trkpt>
<trkpt lat="35.0661906" lon="32.6136696">
<ele>830.64</ele>
<time>2015-04-27T10:24:29Z</time>
</trkpt>
<trkpt lat="35.0661869" lon="32.6135901">
<ele>830.14</ele>
<time>2015-04-27T10:24:32Z</time>
</trkpt>
<trkpt lat="35.0661789" lon="32.6135105">
<ele>830.45</ele>
<time>2015-04-27T10:24:35Z</time>
</trkpt>
<trkpt lat="35.0661642" lon="32.6134353">
<ele>830.87</ele>
<time>2015-04-27T10:24:38Z</time>
</trkpt>
<trkpt lat="35.0661592" lon="32.6133644">
<ele>830.42</ele>
<time>2015-04-27T10:24:41Z</time>
</trkpt>
<trkpt lat="35.0661351" lon="32.6133072">
<ele>832.24</ele>
<time>2015-04-27T10:24:44Z</time>
</trkpt>
<trkpt lat="35.0660883" lon="32.6132798">
<ele>832.46</ele>
<time>2015-04-27T10:24:47Z</time>
</trkpt>
<trkpt lat="35.0660317" lon="32.6133076">
<ele>833.87</ele>
<time>2015-04-27T10:24:50Z</time>
</trkpt>
<trkpt lat="35.0659819" lon="32.6133547">
<ele>834.54</ele>
<time>2015-04-27T10:24:53Z</time>
</trkpt>
<trkpt lat="35.0659346" lon="32.6133957">
<ele>837.00</ele>
<time>2015-04-27T10:24:56Z</time>
</trkpt>
<trkpt lat="35.0658966" lon="32.6134422">
<ele>838.68</ele>
<time>2015-04-27T10:24:59Z</time>
</trkpt>
<trkpt lat="35.0658570" lon="32.6134863">
<ele>839.02</ele>
<time>2015-04-27T10:25:02Z</time>
</trkpt>
<trkpt lat="35.0658115" lon="32.6135148">
<ele>839.69</ele>
<time>2015-04-27T10:25:05Z</time>
</trkpt>
<trkpt lat="35.0657664" lon="32.6135261">
<ele>839.40</ele>
<time>2015-04-27T10:25:08Z</time>
</trkpt>
<trkpt lat="35.0657164" lon="32.6135443">
<ele>838.72</ele>
<time>2015-04-27T10:25:13Z</time>
</trkpt>
<trkpt lat="35.0656692" lon="32.6135586">
<ele>839.10</ele>
<time>2015-04-27T10:25:17Z</time>
</trkpt>
<trkpt lat="35.0656228" lon="32.6135684">
<ele>839.20</ele>
<time>2015-04-27T10:25:20Z</time>
</trkpt>
<trkpt lat="35.0655742" lon="32.6135873">
<ele>839.71</ele>
<time>2015-04-27T10:25:23Z</time>
</trkpt>
<trkpt lat="35.0655258" lon="32.6136022">
<ele>838.65</ele>
<time>2015-04-27T10:25:26Z</time>
</trkpt>
<trkpt lat="35.0654733" lon="32.6136119">
<ele>839.27</ele>
<time>2015-04-27T10:25:29Z</time>
</trkpt>
<trkpt lat="35.0654213" lon="32.6136184">
<ele>839.34</ele>
<time>2015-04-27T10:25:32Z</time>
</trkpt>
<trkpt lat="35.0653706" lon="32.6136221">
<ele>838.98</ele>
<time>2015-04-27T10:25:35Z</time>
</trkpt>
<trkpt lat="35.0653208" lon="32.6136202">
<ele>837.68</ele>
<time>2015-04-27T10:25:38Z</time>
</trkpt>
<trkpt lat="35.0652778" lon="32.6136412">
<ele>837.02</ele>
<time>2015-04-27T10:25:41Z</time>
</trkpt>
<trkpt lat="35.0652374" lon="32.6136704">
<ele>838.19</ele>
<time>2015-04-27T10:25:44Z</time>
</trkpt>
<trkpt lat="35.0651967" lon="32.6137238">
<ele>839.88</ele>
<time>2015-04-27T10:25:48Z</time>
</trkpt>
<trkpt lat="35.0651813" lon="32.6137884">
<ele>841.54</ele>
<time>2015-04-27T10:25:51Z</time>
</trkpt>
<trkpt lat="35.0651521" lon="32.6138388">
<ele>842.75</ele>
<time>2015-04-27T10:25:54Z</time>
</trkpt>
<trkpt lat="35.0651123" lon="32.6138645">
<ele>844.78</ele>
<time>2015-04-27T10:25:57Z</time>
</trkpt>
<trkpt lat="35.0650686" lon="32.6138895">
<ele>846.66</ele>
<time>2015-04-27T10:26:00Z</time>
</trkpt>
<trkpt lat="35.0650250" lon="32.6139119">
<ele>847.64</ele>
<time>2015-04-27T10:26:03Z</time>
</trkpt>
<trkpt lat="35.0649820" lon="32.6139317">
<ele>848.76</ele>
<time>2015-04-27T10:26:06Z</time>
</trkpt>
<trkpt lat="35.0649377" lon="32.6139576">
<ele>847.53</ele>
<time>2015-04-27T10:26:09Z</time>
</trkpt>
<trkpt lat="35.0648922" lon="32.6139937">
<ele>847.50</ele>
<time>2015-04-27T10:26:12Z</time>
</trkpt>
<trkpt lat="35.0648646" lon="32.6140428">
<ele>849.62</ele>
<time>2015-04-27T10:26:15Z</time>
</trkpt>
<trkpt lat="35.0648607" lon="32.6141182">
<ele>849.14</ele>
<time>2015-04-27T10:26:18Z</time>
</trkpt>
<trkpt lat="35.0648447" lon="32.6141883">
<ele>848.45</ele>
<time>2015-04-27T10:26:21Z</time>
</trkpt>
<trkpt lat="35.0648099" lon="32.6142308">
<ele>846.81</ele>
<time>2015-04-27T10:26:23Z</time>
</trkpt>
<trkpt lat="35.0647805" lon="32.6142758">
<ele>845.40</ele>
<time>2015-04-27T10:26:25Z</time>
</trkpt>
<trkpt lat="35.0647522" lon="32.6143212">
<ele>845.04</ele>
<time>2015-04-27T10:26:27Z</time>
</trkpt>
<trkpt lat="35.0647182" lon="32.6143689">
<ele>844.20</ele>
<time>2015-04-27T10:26:29Z</time>
</trkpt>
<trkpt lat="35.0646829" lon="32.6144115">
<ele>844.74</ele>
<time>2015-04-27T10:26:31Z</time>
</trkpt>
<trkpt lat="35.0646431" lon="32.6144729">
<ele>846.53</ele>
<time>2015-04-27T10:26:34Z</time>
</trkpt>
<trkpt lat="35.0646064" lon="32.6145362">
<ele>847.13</ele>
<time>2015-04-27T10:26:37Z</time>
</trkpt>
<trkpt lat="35.0645738" lon="32.6145994">
<ele>848.33</ele>
<time>2015-04-27T10:26:40Z</time>
</trkpt>
<trkpt lat="35.0645498" lon="32.6146574">
<ele>848.72</ele>
<time>2015-04-27T10:26:43Z</time>
</trkpt>
<trkpt lat="35.0645322" lon="32.6147137">
<ele>848.90</ele>
<time>2015-04-27T10:26:46Z</time>
</trkpt>
<trkpt lat="35.0645066" lon="32.6147736">
<ele>851.24</ele>
<time>2015-04-27T10:26:50Z</time>
</trkpt>
<trkpt lat="35.0644612" lon="32.6148211">
<ele>851.76</ele>
<time>2015-04-27T10:26:54Z</time>
</trkpt>
<trkpt lat="35.0644174" lon="32.6148546">
<ele>852.90</ele>
<time>2015-04-27T10:26:57Z</time>
</trkpt>
<trkpt lat="35.0643791" lon="32.6148850">
<ele>852.05</ele>
<time>2015-04-27T10:27:00Z</time>
</trkpt>
<trkpt lat="35.0643332" lon="32.6149088">
<ele>851.82</ele>
<time>2015-04-27T10:27:03Z</time>
</trkpt>
<trkpt lat="35.0642776" lon="32.6149129">
<ele>850.29</ele>
<time>2015-04-27T10:27:06Z</time>
</trkpt>
<trkpt lat="35.0642248" lon="32.6149160">
<ele>849.60</ele>
<time>2015-04-27T10:27:09Z</time>
</trkpt>
<trkpt lat="35.0641778" lon="32.6149280">
<ele>849.01</ele>
<time>2015-04-27T10:27:12Z</time>
</trkpt>
<trkpt lat="35.0641306" lon="32.6149378">
<ele>849.69</ele>
<time>2015-04-27T10:27:15Z</time>
</trkpt>
<trkpt lat="35.0640803" lon="32.6149298">
<ele>849.65</ele>
<time>2015-04-27T10:27:18Z</time>
</trkpt>
<trkpt lat="35.0640329" lon="32.6149127">
<ele>850.14</ele>
<time>2015-04-27T10:27:21Z</time>
</trkpt>
<trkpt lat="35.0639806" lon="32.6149101">
<ele>850.70</ele>
<time>2015-04-27T10:27:24Z</time>
</trkpt>
<trkpt lat="35.0639251" lon="32.6149024">
<ele>850.40</ele>
<time>2015-04-27T10:27:27Z</time>
</trkpt>
<trkpt lat="35.0638722" lon="32.6148874">
<ele>850.61</ele>
<time>2015-04-27T10:27:30Z</time>
</trkpt>
<trkpt lat="35.0638193" lon="32.6148777">
<ele>850.89</ele>
<time>2015-04-27T10:27:33Z</time>
</trkpt>
<trkpt lat="35.0637638" lon="32.6148910">
<ele>851.67</ele>
<time>2015-04-27T10:27:36Z</time>
</trkpt>
<trkpt lat="35.0637087" lon="32.6149117">
<ele>851.52</ele>
<time>2015-04-27T10:27:39Z</time>
</trkpt>
<trkpt lat="35.0636582" lon="32.6149345">
<ele>852.87</ele>
<time>2015-04-27T10:27:42Z</time>
</trkpt>
<trkpt lat="35.0636100" lon="32.6149450">
<ele>850.54</ele>
<time>2015-04-27T10:27:45Z</time>
</trkpt>
<trkpt lat="35.0635585" lon="32.6149543">
<ele>850.38</ele>
<time>2015-04-27T10:27:48Z</time>
</trkpt>
<trkpt lat="35.0635022" lon="32.6149605">
<ele>852.98</ele>
<time>2015-04-27T10:27:51Z</time>
</trkpt>
<trkpt lat="35.0634454" lon="32.6149513">
<ele>855.56</ele>
<time>2015-04-27T10:27:54Z</time>
</trkpt>
<trkpt lat="35.0633888" lon="32.6149289">
<ele>856.63</ele>
<time>2015-04-27T10:27:57Z</time>
</trkpt>
<trkpt lat="35.0633346" lon="32.6148902">
<ele>856.64</ele>
<time>2015-04-27T10:28:00Z</time>
</trkpt>
<trkpt lat="35.0632871" lon="32.6148350">
<ele>856.14</ele>
<time>2015-04-27T10:28:03Z</time>
</trkpt>
<trkpt lat="35.0632475" lon="32.6147808">
<ele>855.08</ele>
<time>2015-04-27T10:28:06Z</time>
</trkpt>
<trkpt lat="35.0632006" lon="32.6147321">
<ele>855.82</ele>
<time>2015-04-27T10:28:09Z</time>
</trkpt>
<trkpt lat="35.0631552" lon="32.6146874">
<ele>855.04</ele>
<time>2015-04-27T10:28:12Z</time>
</trkpt>
<trkpt lat="35.0631004" lon="32.6146550">
<ele>856.44</ele>
<time>2015-04-27T10:28:15Z</time>
</trkpt>
<trkpt lat="35.0630498" lon="32.6146496">
<ele>857.30</ele>
<time>2015-04-27T10:28:17Z</time>
</trkpt>
<trkpt lat="35.0630057" lon="32.6146341">
<ele>858.02</ele>
<time>2015-04-27T10:28:19Z</time>
</trkpt>
<trkpt lat="35.0629433" lon="32.6146140">
<ele>859.44</ele>
<time>2015-04-27T10:28:22Z</time>
</trkpt>
<trkpt lat="35.0628850" lon="32.6145940">
<ele>859.86</ele>
<time>2015-04-27T10:28:25Z</time>
</trkpt>
<trkpt lat="35.0628285" lon="32.6146034">
<ele>861.92</ele>
<time>2015-04-27T10:28:28Z</time>
</trkpt>
<trkpt lat="35.0627811" lon="32.6146540">
<ele>864.42</ele>
<time>2015-04-27T10:28:31Z</time>
</trkpt>
<trkpt lat="35.0627574" lon="32.6147160">
<ele>865.61</ele>
<time>2015-04-27T10:28:34Z</time>
</trkpt>
<trkpt lat="35.0627553" lon="32.6147787">
<ele>866.76</ele>
<time>2015-04-27T10:28:37Z</time>
</trkpt>
<trkpt lat="35.0627930" lon="32.6148226">
<ele>868.03</ele>
<time>2015-04-27T10:28:40Z</time>
</trkpt>
<trkpt lat="35.0628200" lon="32.6148677">
<ele>868.69</ele>
<time>2015-04-27T10:28:43Z</time>
</trkpt>
<trkpt lat="35.0628549" lon="32.6149156">
<ele>868.52</ele>
<time>2015-04-27T10:28:46Z</time>
</trkpt>
<trkpt lat="35.0628725" lon="32.6149700">
<ele>868.00</ele>
<time>2015-04-27T10:28:49Z</time>
</trkpt>
<trkpt lat="35.0628987" lon="32.6150208">
<ele>867.93</ele>
<time>2015-04-27T10:28:52Z</time>
</trkpt>
<trkpt lat="35.0629345" lon="32.6150690">
<ele>867.93</ele>
<time>2015-04-27T10:28:55Z</time>
</trkpt>
<trkpt lat="35.0629512" lon="32.6151244">
<ele>867.18</ele>
<time>2015-04-27T10:28:58Z</time>
</trkpt>
<trkpt lat="35.0629572" lon="32.6151846">
<ele>866.96</ele>
<time>2015-04-27T10:29:01Z</time>
</trkpt>
<trkpt lat="35.0629501" lon="32.6152495">
<ele>867.30</ele>
<time>2015-04-27T10:29:04Z</time>
</trkpt>
<trkpt lat="35.0629344" lon="32.6153095">
<ele>867.72</ele>
<time>2015-04-27T10:29:07Z</time>
</trkpt>
<trkpt lat="35.0629070" lon="32.6153717">
<ele>867.41</ele>
<time>2015-04-27T10:29:11Z</time>
</trkpt>
<trkpt lat="35.0629043" lon="32.6154278">
<ele>866.99</ele>
<time>2015-04-27T10:29:14Z</time>
</trkpt>
<trkpt lat="35.0629070" lon="32.6154908">
<ele>865.68</ele>
<time>2015-04-27T10:29:17Z</time>
</trkpt>
<trkpt lat="35.0629016" lon="32.6155525">
<ele>865.14</ele>
<time>2015-04-27T10:29:20Z</time>
</trkpt>
<trkpt lat="35.0629099" lon="32.6156109">
<ele>864.45</ele>
<time>2015-04-27T10:29:23Z</time>
</trkpt>
<trkpt lat="35.0629214" lon="32.6156686">
<ele>863.74</ele>
<time>2015-04-27T10:29:26Z</time>
</trkpt>
<trkpt lat="35.0629589" lon="32.6157016">
<ele>864.90</ele>
<time>2015-04-27T10:29:29Z</time>
</trkpt>
<trkpt lat="35.0630141" lon="32.6157078">
<ele>864.92</ele>
<time>2015-04-27T10:29:32Z</time>
</trkpt>
<trkpt lat="35.0630619" lon="32.6157028">
<ele>864.80</ele>
<time>2015-04-27T10:29:35Z</time>
</trkpt>
<trkpt lat="35.0631214" lon="32.6157034">
<ele>865.04</ele>
<time>2015-04-27T10:29:39Z</time>
</trkpt>
<trkpt lat="35.0631668" lon="32.6157164">
<ele>864.81</ele>
<time>2015-04-27T10:29:42Z</time>
</trkpt>
<trkpt lat="35.0632205" lon="32.6157284">
<ele>864.92</ele>
<time>2015-04-27T10:29:46Z</time>
</trkpt>
<trkpt lat="35.0632761" lon="32.6157408">
<ele>863.80</ele>
<time>2015-04-27T10:29:49Z</time>
</trkpt>
<trkpt lat="35.0633279" lon="32.6157656">
<ele>863.41</ele>
<time>2015-04-27T10:29:52Z</time>
</trkpt>
<trkpt lat="35.0633805" lon="32.6157823">
<ele>865.24</ele>
<time>2015-04-27T10:29:55Z</time>
</trkpt>
<trkpt lat="35.0634320" lon="32.6158109">
<ele>863.71</ele>
<time>2015-04-27T10:29:58Z</time>
</trkpt>
<trkpt lat="35.0634888" lon="32.6158539">
<ele>862.77</ele>
<time>2015-04-27T10:30:01Z</time>
</trkpt>
<trkpt lat="35.0635357" lon="32.6159019">
<ele>865.03</ele>
<time>2015-04-27T10:30:04Z</time>
</trkpt>
<trkpt lat="35.0635834" lon="32.6159570">
<ele>866.44</ele>
<time>2015-04-27T10:30:07Z</time>
</trkpt>
<trkpt lat="35.0636138" lon="32.6159983">
<ele>867.55</ele>
<time>2015-04-27T10:30:09Z</time>
</trkpt>
<trkpt lat="35.0636421" lon="32.6160663">
<ele>867.88</ele>
<time>2015-04-27T10:30:12Z</time>
</trkpt>
<trkpt lat="35.0636548" lon="32.6161454">
<ele>867.79</ele>
<time>2015-04-27T10:30:15Z</time>
</trkpt>
<trkpt lat="35.0636462" lon="32.6162194">
<ele>867.53</ele>
<time>2015-04-27T10:30:18Z</time>
</trkpt>
<trkpt lat="35.0636307" lon="32.6162917">
<ele>869.25</ele>
<time>2015-04-27T10:30:21Z</time>
</trkpt>
<trkpt lat="35.0636348" lon="32.6163702">
<ele>870.72</ele>
<time>2015-04-27T10:30:24Z</time>
</trkpt>
<trkpt lat="35.0636470" lon="32.6164470">
<ele>870.90</ele>
<time>2015-04-27T10:30:27Z</time>
</trkpt>
<trkpt lat="35.0636888" lon="32.6165016">
<ele>871.80</ele>
<time>2015-04-27T10:30:30Z</time>
</trkpt>
<trkpt lat="35.0637454" lon="32.6165405">
<ele>872.41</ele>
<time>2015-04-27T10:30:33Z</time>
</trkpt>
<trkpt lat="35.0637952" lon="32.6165758">
<ele>871.36</ele>
<time>2015-04-27T10:30:36Z</time>
</trkpt>
<trkpt lat="35.0638368" lon="32.6165982">
<ele>871.73</ele>
<time>2015-04-27T10:30:39Z</time>
</trkpt>
<trkpt lat="35.0638837" lon="32.6166126">
<ele>871.90</ele>
<time>2015-04-27T10:30:42Z</time>
</trkpt>
<trkpt lat="35.0639362" lon="32.6166093">
<ele>871.92</ele>
<time>2015-04-27T10:30:45Z</time>
</trkpt>
<trkpt lat="35.0639886" lon="32.6165949">
<ele>872.80</ele>
<time>2015-04-27T10:30:48Z</time>
</trkpt>
<trkpt lat="35.0640400" lon="32.6165722">
<ele>875.03</ele>
<time>2015-04-27T10:30:51Z</time>
</trkpt>
<trkpt lat="35.0640892" lon="32.6165494">
<ele>874.94</ele>
<time>2015-04-27T10:30:54Z</time>
</trkpt>
<trkpt lat="35.0641352" lon="32.6165331">
<ele>873.18</ele>
<time>2015-04-27T10:30:57Z</time>
</trkpt>
<trkpt lat="35.0641821" lon="32.6164952">
<ele>873.63</ele>
<time>2015-04-27T10:31:01Z</time>
</trkpt>
<trkpt lat="35.0642281" lon="32.6164776">
<ele>873.78</ele>
<time>2015-04-27T10:31:05Z</time>
</trkpt>
<trkpt lat="35.0642829" lon="32.6164803">
<ele>875.35</ele>
<time>2015-04-27T10:31:09Z</time>
</trkpt>
<trkpt lat="35.0643414" lon="32.6164787">
<ele>878.58</ele>
<time>2015-04-27T10:31:13Z</time>
</trkpt>
<trkpt lat="35.0643882" lon="32.6164943">
<ele>880.26</ele>
<time>2015-04-27T10:31:16Z</time>
</trkpt>
<trkpt lat="35.0644327" lon="32.6165240">
<ele>882.22</ele>
<time>2015-04-27T10:31:19Z</time>
</trkpt>
<trkpt lat="35.0644624" lon="32.6165706">
<ele>882.96</ele>
<time>2015-04-27T10:31:22Z</time>
</trkpt>
<trkpt lat="35.0644735" lon="32.6166383">
<ele>882.49</ele>
<time>2015-04-27T10:31:26Z</time>
</trkpt>
<trkpt lat="35.0644740" lon="32.6167087">
<ele>881.96</ele>
<time>2015-04-27T10:31:30Z</time>
</trkpt>
<trkpt lat="35.0644647" lon="32.6167724">
<ele>881.99</ele>
<time>2015-04-27T10:31:34Z</time>
</trkpt>
<trkpt lat="35.0644329" lon="32.6168249">
<ele>881.37</ele>
<time>2015-04-27T10:31:38Z</time>
</trkpt>
<trkpt lat="35.0643970" lon="32.6168757">
<ele>883.52</ele>
<time>2015-04-27T10:31:42Z</time>
</trkpt>
<trkpt lat="35.0643621" lon="32.6169260">
<ele>883.77</ele>
<time>2015-04-27T10:31:46Z</time>
</trkpt>
<trkpt lat="35.0643180" lon="32.6169738">
<ele>884.79</ele>
<time>2015-04-27T10:31:50Z</time>
</trkpt>
<trkpt lat="35.0642713" lon="32.6170218">
<ele>884.67</ele>
<time>2015-04-27T10:31:54Z</time>
</trkpt>
<trkpt lat="35.0642296" lon="32.6170635">
<ele>882.60</ele>
<time>2015-04-27T10:31:58Z</time>
</trkpt>
<trkpt lat="35.0641828" lon="32.6171052">
<ele>884.90</ele>
<time>2015-04-27T10:32:02Z</time>
</trkpt>
<trkpt lat="35.0641393" lon="32.6171531">
<ele>884.49</ele>
<time>2015-04-27T10:32:06Z</time>
</trkpt>
<trkpt lat="35.0640905" lon="32.6171916">
<ele>884.40</ele>
<time>2015-04-27T10:32:10Z</time>
</trkpt>
<trkpt lat="35.0640359" lon="32.6172134">
<ele>882.77</ele>
<time>2015-04-27T10:32:14Z</time>
</trkpt>
<trkpt lat="35.0639854" lon="32.6172207">
<ele>883.78</ele>
<time>2015-04-27T10:32:17Z</time>
</trkpt>
<trkpt lat="35.0639408" lon="32.6172379">
<ele>885.91</ele>
<time>2015-04-27T10:32:20Z</time>
</trkpt>
<trkpt lat="35.0638985" lon="32.6172575">
<ele>888.92</ele>
<time>2015-04-27T10:32:23Z</time>
</trkpt>
<trkpt lat="35.0638428" lon="32.6172787">
<ele>888.92</ele>
<time>2015-04-27T10:32:27Z</time>
</trkpt>
<trkpt lat="35.0637995" lon="32.6172944">
<ele>890.55</ele>
<time>2015-04-27T10:32:30Z</time>
</trkpt>
<trkpt lat="35.0637585" lon="32.6173201">
<ele>890.25</ele>
<time>2015-04-27T10:32:33Z</time>
</trkpt>
<trkpt lat="35.0637141" lon="32.6173332">
<ele>890.09</ele>
<time>2015-04-27T10:32:36Z</time>
</trkpt>
<trkpt lat="35.0636607" lon="32.6173490">
<ele>888.62</ele>
<time>2015-04-27T10:32:40Z</time>
</trkpt>
<trkpt lat="35.0636019" lon="32.6173598">
<ele>888.28</ele>
<time>2015-04-27T10:32:44Z</time>
</trkpt>
<trkpt lat="35.0635461" lon="32.6173627">
<ele>890.01</ele>
<time>2015-04-27T10:32:48Z</time>
</trkpt>
<trkpt lat="35.0634937" lon="32.6173886">
<ele>890.43</ele>
<time>2015-04-27T10:32:52Z</time>
</trkpt>
<trkpt lat="35.0634506" lon="32.6174107">
<ele>891.61</ele>
<time>2015-04-27T10:32:55Z</time>
</trkpt>
<trkpt lat="35.0634004" lon="32.6174269">
<ele>889.22</ele>
<time>2015-04-27T10:32:59Z</time>
</trkpt>
<trkpt lat="35.0633513" lon="32.6174530">
<ele>888.19</ele>
<time>2015-04-27T10:33:03Z</time>
</trkpt>
<trkpt lat="35.0633088" lon="32.6174838">
<ele>887.96</ele>
<time>2015-04-27T10:33:06Z</time>
</trkpt>
<trkpt lat="35.0632679" lon="32.6175174">
<ele>889.30</ele>
<time>2015-04-27T10:33:09Z</time>
</trkpt>
<trkpt lat="35.0632309" lon="32.6175562">
<ele>889.22</ele>
<time>2015-04-27T10:33:12Z</time>
</trkpt>
<trkpt lat="35.0631848" lon="32.6175994">
<ele>889.84</ele>
<time>2015-04-27T10:33:15Z</time>
</trkpt>
<trkpt lat="35.0631409" lon="32.6176479">
<ele>888.66</ele>
<time>2015-04-27T10:33:18Z</time>
</trkpt>
<trkpt lat="35.0630970" lon="32.6176967">
<ele>888.02</ele>
<time>2015-04-27T10:33:21Z</time>
</trkpt>
<trkpt lat="35.0630495" lon="32.6177363">
<ele>888.81</ele>
<time>2015-04-27T10:33:24Z</time>
</trkpt>
<trkpt lat="35.0629996" lon="32.6177873">
<ele>889.66</ele>
<time>2015-04-27T10:33:27Z</time>
</trkpt>
<trkpt lat="35.0629533" lon="32.6178304">
<ele>889.39</ele>
<time>2015-04-27T10:33:30Z</time>
</trkpt>
<trkpt lat="35.0629093" lon="32.6178735">
<ele>889.48</ele>
<time>2015-04-27T10:33:33Z</time>
</trkpt>
<trkpt lat="35.0628752" lon="32.6179243">
<ele>889.87</ele>
<time>2015-04-27T10:33:36Z</time>
</trkpt>
<trkpt lat="35.0628762" lon="32.6179974">
<ele>890.17</ele>
<time>2015-04-27T10:33:39Z</time>
</trkpt>
<trkpt lat="35.0628941" lon="32.6180676">
<ele>889.96</ele>
<time>2015-04-27T10:33:42Z</time>
</trkpt>
<trkpt lat="35.0629336" lon="32.6181409">
<ele>889.93</ele>
<time>2015-04-27T10:33:45Z</time>
</trkpt>
<trkpt lat="35.0629774" lon="32.6181868">
<ele>889.68</ele>
<time>2015-04-27T10:33:48Z</time>
</trkpt>
<trkpt lat="35.0630282" lon="32.6182148">
<ele>891.27</ele>
<time>2015-04-27T10:33:51Z</time>
</trkpt>
<trkpt lat="35.0630842" lon="32.6182364">
<ele>894.32</ele>
<time>2015-04-27T10:33:55Z</time>
</trkpt>
<trkpt lat="35.0631362" lon="32.6182705">
<ele>894.01</ele>
<time>2015-04-27T10:33:59Z</time>
</trkpt>
<trkpt lat="35.0631841" lon="32.6182907">
<ele>893.94</ele>
<time>2015-04-27T10:34:02Z</time>
</trkpt>
<trkpt lat="35.0632360" lon="32.6182966">
<ele>893.93</ele>
<time>2015-04-27T10:34:05Z</time>
</trkpt>
<trkpt lat="35.0632776" lon="32.6183209">
<ele>892.01</ele>
<time>2015-04-27T10:34:16Z</time>
</trkpt>
<trkpt lat="35.0633210" lon="32.6183637">
<ele>892.67</ele>
<time>2015-04-27T10:34:38Z</time>
</trkpt>
<trkpt lat="35.0633706" lon="32.6184029">
<ele>892.16</ele>
<time>2015-04-27T10:34:42Z</time>
</trkpt>
<trkpt lat="35.0634072" lon="32.6184402">
<ele>893.58</ele>
<time>2015-04-27T10:34:45Z</time>
</trkpt>
<trkpt lat="35.0634338" lon="32.6185059">
<ele>894.63</ele>
<time>2015-04-27T10:34:48Z</time>
</trkpt>
<trkpt lat="35.0634412" lon="32.6185633">
<ele>894.85</ele>
<time>2015-04-27T10:34:50Z</time>
</trkpt>
<trkpt lat="35.0634288" lon="32.6186208">
<ele>895.66</ele>
<time>2015-04-27T10:34:52Z</time>
</trkpt>
<trkpt lat="35.0634003" lon="32.6186638">
<ele>895.86</ele>
<time>2015-04-27T10:34:54Z</time>
</trkpt>
<trkpt lat="35.0633633" lon="32.6186966">
<ele>894.16</ele>
<time>2015-04-27T10:34:56Z</time>
</trkpt>
<trkpt lat="35.0633045" lon="32.6187318">
<ele>894.20</ele>
<time>2015-04-27T10:34:59Z</time>
</trkpt>
<trkpt lat="35.0632611" lon="32.6187522">
<ele>893.24</ele>
<time>2015-04-27T10:35:01Z</time>
</trkpt>
<trkpt lat="35.0632182" lon="32.6187744">
<ele>893.75</ele>
<time>2015-04-27T10:35:03Z</time>
</trkpt>
<trkpt lat="35.0631761" lon="32.6188004">
<ele>893.88</ele>
<time>2015-04-27T10:35:05Z</time>
</trkpt>
<trkpt lat="35.0631185" lon="32.6188400">
<ele>893.17</ele>
<time>2015-04-27T10:35:08Z</time>
</trkpt>
<trkpt lat="35.0630658" lon="32.6188832">
<ele>891.71</ele>
<time>2015-04-27T10:35:11Z</time>
</trkpt>
<trkpt lat="35.0630290" lon="32.6189153">
<ele>892.37</ele>
<time>2015-04-27T10:35:13Z</time>
</trkpt>
<trkpt lat="35.0629842" lon="32.6189545">
<ele>892.86</ele>
<time>2015-04-27T10:35:16Z</time>
</trkpt>
<trkpt lat="35.0629457" lon="32.6190042">
<ele>899.17</ele>
<time>2015-04-27T10:35:21Z</time>
</trkpt>
<trkpt lat="35.0629456" lon="32.6190631">
<ele>899.08</ele>
<time>2015-04-27T10:35:24Z</time>
</trkpt>
<trkpt lat="35.0629560" lon="32.6191218">
<ele>897.57</ele>
<time>2015-04-27T10:35:27Z</time>
</trkpt>
<trkpt lat="35.0629148" lon="32.6191554">
<ele>897.51</ele>
<time>2015-04-27T10:35:30Z</time>
</trkpt>
<trkpt lat="35.0628781" lon="32.6191882">
<ele>897.87</ele>
<time>2015-04-27T10:35:33Z</time>
</trkpt>
<trkpt lat="35.0628446" lon="32.6192467">
<ele>899.80</ele>
<time>2015-04-27T10:35:37Z</time>
</trkpt>
<trkpt lat="35.0628094" lon="32.6192949">
<ele>901.28</ele>
<time>2015-04-27T10:35:40Z</time>
</trkpt>
<trkpt lat="35.0627813" lon="32.6193397">
<ele>903.47</ele>
<time>2015-04-27T10:35:43Z</time>
</trkpt>
<trkpt lat="35.0627670" lon="32.6194072">
<ele>903.87</ele>
<time>2015-04-27T10:35:46Z</time>
</trkpt>
<trkpt lat="35.0627457" lon="32.6194632">
<ele>903.92</ele>
<time>2015-04-27T10:35:49Z</time>
</trkpt>
<trkpt lat="35.0627490" lon="32.6195193">
<ele>902.92</ele>
<time>2015-04-27T10:35:53Z</time>
</trkpt>
<trkpt lat="35.0627436" lon="32.6195786">
<ele>902.92</ele>
<time>2015-04-27T10:35:57Z</time>
</trkpt>
<trkpt lat="35.0627096" lon="32.6196372">
<ele>902.11</ele>
<time>2015-04-27T10:36:01Z</time>
</trkpt>
<trkpt lat="35.0626942" lon="32.6196928">
<ele>901.72</ele>
<time>2015-04-27T10:36:03Z</time>
</trkpt>
<trkpt lat="35.0626711" lon="32.6197589">
<ele>900.52</ele>
<time>2015-04-27T10:36:06Z</time>
</trkpt>
<trkpt lat="35.0626267" lon="32.6198109">
<ele>899.75</ele>
<time>2015-04-27T10:36:09Z</time>
</trkpt>
<trkpt lat="35.0625893" lon="32.6198608">
<ele>899.40</ele>
<time>2015-04-27T10:36:12Z</time>
</trkpt>
<trkpt lat="35.0625489" lon="32.6199099">
<ele>898.98</ele>
<time>2015-04-27T10:36:15Z</time>
</trkpt>
<trkpt lat="35.0625092" lon="32.6199606">
<ele>898.93</ele>
<time>2015-04-27T10:36:18Z</time>
</trkpt>
<trkpt lat="35.0624748" lon="32.6200213">
<ele>899.86</ele>
<time>2015-04-27T10:36:22Z</time>
</trkpt>
<trkpt lat="35.0624511" lon="32.6200777">
<ele>899.54</ele>
<time>2015-04-27T10:36:25Z</time>
</trkpt>
<trkpt lat="35.0624199" lon="32.6201324">
<ele>899.63</ele>
<time>2015-04-27T10:36:28Z</time>
</trkpt>
<trkpt lat="35.0623924" lon="32.6201943">
<ele>900.89</ele>
<time>2015-04-27T10:36:31Z</time>
</trkpt>
<trkpt lat="35.0623730" lon="32.6202524">
<ele>900.67</ele>
<time>2015-04-27T10:36:34Z</time>
</trkpt>
<trkpt lat="35.0623609" lon="32.6203127">
<ele>902.27</ele>
<time>2015-04-27T10:36:37Z</time>
</trkpt>
<trkpt lat="35.0623747" lon="32.6203775">
<ele>901.97</ele>
<time>2015-04-27T10:36:40Z</time>
</trkpt>
<trkpt lat="35.0623975" lon="32.6204287">
<ele>901.18</ele>
<time>2015-04-27T10:36:44Z</time>
</trkpt>
<trkpt lat="35.0624521" lon="32.6204430">
<ele>902.77</ele>
<time>2015-04-27T10:36:51Z</time>
</trkpt>
<trkpt lat="35.0625077" lon="32.6204401">
<ele>904.16</ele>
<time>2015-04-27T10:36:54Z</time>
</trkpt>
<trkpt lat="35.0625738" lon="32.6204360">
<ele>906.20</ele>
<time>2015-04-27T10:36:57Z</time>
</trkpt>
<trkpt lat="35.0626354" lon="32.6204152">
<ele>907.71</ele>
<time>2015-04-27T10:37:00Z</time>
</trkpt>
<trkpt lat="35.0626827" lon="32.6203982">
<ele>908.40</ele>
<time>2015-04-27T10:37:03Z</time>
</trkpt>
<trkpt lat="35.0627380" lon="32.6203867">
<ele>908.83</ele>
<time>2015-04-27T10:37:07Z</time>
</trkpt>
<trkpt lat="35.0627932" lon="32.6203732">
<ele>909.67</ele>
<time>2015-04-27T10:37:11Z</time>
</trkpt>
<trkpt lat="35.0628468" lon="32.6203606">
<ele>910.78</ele>
<time>2015-04-27T10:37:15Z</time>
</trkpt>
<trkpt lat="35.0629022" lon="32.6203501">
<ele>911.42</ele>
<time>2015-04-27T10:37:19Z</time>
</trkpt>
<trkpt lat="35.0629573" lon="32.6203402">
<ele>912.77</ele>
<time>2015-04-27T10:37:23Z</time>
</trkpt>
<trkpt lat="35.0630146" lon="32.6203298">
<ele>913.85</ele>
<time>2015-04-27T10:37:27Z</time>
</trkpt>
<trkpt lat="35.0630724" lon="32.6203440">
<ele>914.67</ele>
<time>2015-04-27T10:37:31Z</time>
</trkpt>
<trkpt lat="35.0631193" lon="32.6203522">
<ele>914.02</ele>
<time>2015-04-27T10:37:34Z</time>
</trkpt>
<trkpt lat="35.0631631" lon="32.6203658">
<ele>914.81</ele>
<time>2015-04-27T10:37:38Z</time>
</trkpt>
<trkpt lat="35.0632042" lon="32.6203944">
<ele>914.91</ele>
<time>2015-04-27T10:37:41Z</time>
</trkpt>
<trkpt lat="35.0632479" lon="32.6204299">
<ele>915.24</ele>
<time>2015-04-27T10:37:45Z</time>
</trkpt>
<trkpt lat="35.0633055" lon="32.6204745">
<ele>915.88</ele>
<time>2015-04-27T10:37:49Z</time>
</trkpt>
<trkpt lat="35.0633508" lon="32.6205069">
<ele>916.41</ele>
<time>2015-04-27T10:37:51Z</time>
</trkpt>
<trkpt lat="35.0633948" lon="32.6205330">
<ele>917.30</ele>
<time>2015-04-27T10:37:53Z</time>
</trkpt>
<trkpt lat="35.0634479" lon="32.6205702">
<ele>917.10</ele>
<time>2015-04-27T10:37:56Z</time>
</trkpt>
<trkpt lat="35.0634860" lon="32.6206067">
<ele>915.70</ele>
<time>2015-04-27T10:37:59Z</time>
</trkpt>
<trkpt lat="35.0635275" lon="32.6206458">
<ele>914.27</ele>
<time>2015-04-27T10:38:02Z</time>
</trkpt>
<trkpt lat="35.0635863" lon="32.6206819">
<ele>913.97</ele>
<time>2015-04-27T10:38:05Z</time>
</trkpt>
<trkpt lat="35.0636465" lon="32.6207097">
<ele>913.44</ele>
<time>2015-04-27T10:38:07Z</time>
</trkpt>
<trkpt lat="35.0637143" lon="32.6207320">
<ele>914.55</ele>
<time>2015-04-27T10:38:09Z</time>
</trkpt>
<trkpt lat="35.0637791" lon="32.6207545">
<ele>915.33</ele>
<time>2015-04-27T10:38:11Z</time>
</trkpt>
<trkpt lat="35.0638420" lon="32.6207758">
<ele>916.53</ele>
<time>2015-04-27T10:38:13Z</time>
</trkpt>
<trkpt lat="35.0639107" lon="32.6207919">
<ele>916.83</ele>
<time>2015-04-27T10:38:15Z</time>
</trkpt>
<trkpt lat="35.0639805" lon="32.6208149">
<ele>916.40</ele>
<time>2015-04-27T10:38:17Z</time>
</trkpt>
<trkpt lat="35.0640465" lon="32.6208381">
<ele>917.29</ele>
<time>2015-04-27T10:38:19Z</time>
</trkpt>
<trkpt lat="35.0641112" lon="32.6208557">
<ele>917.77</ele>
<time>2015-04-27T10:38:21Z</time>
</trkpt>
<trkpt lat="35.0641820" lon="32.6208732">
<ele>918.64</ele>
<time>2015-04-27T10:38:23Z</time>
</trkpt>
<trkpt lat="35.0642552" lon="32.6208859">
<ele>918.10</ele>
<time>2015-04-27T10:38:25Z</time>
</trkpt>
<trkpt lat="35.0643238" lon="32.6208838">
<ele>919.97</ele>
<time>2015-04-27T10:38:27Z</time>
</trkpt>
<trkpt lat="35.0643925" lon="32.6208672">
<ele>919.19</ele>
<time>2015-04-27T10:38:29Z</time>
</trkpt>
<trkpt lat="35.0644539" lon="32.6208471">
<ele>919.74</ele>
<time>2015-04-27T10:38:31Z</time>
</trkpt>
<trkpt lat="35.0645138" lon="32.6208293">
<ele>919.63</ele>
<time>2015-04-27T10:38:33Z</time>
</trkpt>
<trkpt lat="35.0645734" lon="32.6208291">
<ele>921.85</ele>
<time>2015-04-27T10:38:35Z</time>
</trkpt>
<trkpt lat="35.0646284" lon="32.6208474">
<ele>922.66</ele>
<time>2015-04-27T10:38:37Z</time>
</trkpt>
<trkpt lat="35.0646723" lon="32.6208845">
<ele>924.36</ele>
<time>2015-04-27T10:38:39Z</time>
</trkpt>
<trkpt lat="35.0647036" lon="32.6209389">
<ele>926.53</ele>
<time>2015-04-27T10:38:41Z</time>
</trkpt>
<trkpt lat="35.0647336" lon="32.6209953">
<ele>927.58</ele>
<time>2015-04-27T10:38:43Z</time>
</trkpt>
<trkpt lat="35.0647733" lon="32.6210402">
<ele>927.84</ele>
<time>2015-04-27T10:38:45Z</time>
</trkpt>
<trkpt lat="35.0648221" lon="32.6210689">
<ele>927.65</ele>
<time>2015-04-27T10:38:47Z</time>
</trkpt>
<trkpt lat="35.0648738" lon="32.6210873">
<ele>927.11</ele>
<time>2015-04-27T10:38:49Z</time>
</trkpt>
<trkpt lat="35.0649217" lon="32.6210992">
<ele>927.22</ele>
<time>2015-04-27T10:38:51Z</time>
</trkpt>
<trkpt lat="35.0649679" lon="32.6210945">
<ele>926.46</ele>
<time>2015-04-27T10:38:54Z</time>
</trkpt>
<trkpt lat="35.0650120" lon="32.6210776">
<ele>926.87</ele>
<time>2015-04-27T10:38:57Z</time>
</trkpt>
<trkpt lat="35.0650683" lon="32.6210575">
<ele>927.67</ele>
<time>2015-04-27T10:39:00Z</time>
</trkpt>
<trkpt lat="35.0651226" lon="32.6210338">
<ele>927.89</ele>
<time>2015-04-27T10:39:03Z</time>
</trkpt>
<trkpt lat="35.0651819" lon="32.6210149">
<ele>927.42</ele>
<time>2015-04-27T10:39:06Z</time>
</trkpt>
<trkpt lat="35.0652465" lon="32.6210120">
<ele>927.86</ele>
<time>2015-04-27T10:39:09Z</time>
</trkpt>
<trkpt lat="35.0652933" lon="32.6210251">
<ele>927.41</ele>
<time>2015-04-27T10:39:11Z</time>
</trkpt>
<trkpt lat="35.0653400" lon="32.6210559">
<ele>927.80</ele>
<time>2015-04-27T10:39:13Z</time>
</trkpt>
<trkpt lat="35.0653818" lon="32.6210978">
<ele>927.89</ele>
<time>2015-04-27T10:39:15Z</time>
</trkpt>
<trkpt lat="35.0654205" lon="32.6211456">
<ele>928.42</ele>
<time>2015-04-27T10:39:17Z</time>
</trkpt>
<trkpt lat="35.0654639" lon="32.6211888">
<ele>927.80</ele>
<time>2015-04-27T10:39:19Z</time>
</trkpt>
<trkpt lat="35.0654981" lon="32.6212308">
<ele>928.39</ele>
<time>2015-04-27T10:39:21Z</time>
</trkpt>
<trkpt lat="35.0655301" lon="32.6212724">
<ele>928.29</ele>
<time>2015-04-27T10:39:23Z</time>
</trkpt>
<trkpt lat="35.0655808" lon="32.6213233">
<ele>927.97</ele>
<time>2015-04-27T10:39:26Z</time>
</trkpt>
<trkpt lat="35.0656239" lon="32.6213816">
<ele>929.43</ele>
<time>2015-04-27T10:39:29Z</time>
</trkpt>
<trkpt lat="35.0656673" lon="32.6214315">
<ele>930.61</ele>
<time>2015-04-27T10:39:32Z</time>
</trkpt>
<trkpt lat="35.0656994" lon="32.6214736">
<ele>931.84</ele>
<time>2015-04-27T10:39:36Z</time>
</trkpt>
<trkpt lat="35.0657377" lon="32.6215245">
<ele>932.66</ele>
<time>2015-04-27T10:39:39Z</time>
</trkpt>
<trkpt lat="35.0657743" lon="32.6215893">
<ele>933.39</ele>
<time>2015-04-27T10:39:42Z</time>
</trkpt>
<trkpt lat="35.0657923" lon="32.6216405">
<ele>933.79</ele>
<time>2015-04-27T10:39:44Z</time>
</trkpt>
<trkpt lat="35.0657942" lon="32.6216974">
<ele>933.89</ele>
<time>2015-04-27T10:39:46Z</time>
</trkpt>
<trkpt lat="35.0657725" lon="32.6217532">
<ele>934.17</ele>
<time>2015-04-27T10:39:48Z</time>
</trkpt>
<trkpt lat="35.0657295" lon="32.6218087">
<ele>933.99</ele>
<time>2015-04-27T10:39:50Z</time>
</trkpt>
<trkpt lat="35.0656835" lon="32.6218515">
<ele>933.94</ele>
<time>2015-04-27T10:39:52Z</time>
</trkpt>
<trkpt lat="35.0656301" lon="32.6218788">
<ele>934.43</ele>
<time>2015-04-27T10:39:54Z</time>
</trkpt>
<trkpt lat="35.0655823" lon="32.6219103">
<ele>934.80</ele>
<time>2015-04-27T10:39:56Z</time>
</trkpt>
<trkpt lat="35.0655503" lon="32.6219558">
<ele>934.89</ele>
<time>2015-04-27T10:39:58Z</time>
</trkpt>
<trkpt lat="35.0655270" lon="32.6220112">
<ele>934.92</ele>
<time>2015-04-27T10:40:00Z</time>
</trkpt>
<trkpt lat="35.0655077" lon="32.6220688">
<ele>933.42</ele>
<time>2015-04-27T10:40:02Z</time>
</trkpt>
<trkpt lat="35.0654990" lon="32.6221324">
<ele>933.05</ele>
<time>2015-04-27T10:40:04Z</time>
</trkpt>
<trkpt lat="35.0655020" lon="32.6221983">
<ele>932.96</ele>
<time>2015-04-27T10:40:06Z</time>
</trkpt>
<trkpt lat="35.0655068" lon="32.6222646">
<ele>933.68</ele>
<time>2015-04-27T10:40:08Z</time>
</trkpt>
<trkpt lat="35.0655045" lon="32.6223299">
<ele>933.86</ele>
<time>2015-04-27T10:40:10Z</time>
</trkpt>
<trkpt lat="35.0654991" lon="32.6223951">
<ele>933.91</ele>
<time>2015-04-27T10:40:12Z</time>
</trkpt>
<trkpt lat="35.0654877" lon="32.6224624">
<ele>933.92</ele>
<time>2015-04-27T10:40:14Z</time>
</trkpt>
<trkpt lat="35.0654474" lon="32.6225154">
<ele>934.42</ele>
<time>2015-04-27T10:40:16Z</time>
</trkpt>
<trkpt lat="35.0653873" lon="32.6225426">
<ele>934.80</ele>
<time>2015-04-27T10:40:18Z</time>
</trkpt>
<trkpt lat="35.0653300" lon="32.6225509">
<ele>934.89</ele>
<time>2015-04-27T10:40:20Z</time>
</trkpt>
<trkpt lat="35.0652707" lon="32.6225460">
<ele>935.67</ele>
<time>2015-04-27T10:40:22Z</time>
</trkpt>
<trkpt lat="35.0652045" lon="32.6225328">
<ele>936.61</ele>
<time>2015-04-27T10:40:24Z</time>
</trkpt>
<trkpt lat="35.0651298" lon="32.6225177">
<ele>936.85</ele>
<time>2015-04-27T10:40:26Z</time>
</trkpt>
<trkpt lat="35.0650542" lon="32.6225009">
<ele>937.66</ele>
<time>2015-04-27T10:40:28Z</time>
</trkpt>
<trkpt lat="35.0649758" lon="32.6224963">
<ele>937.86</ele>
<time>2015-04-27T10:40:30Z</time>
</trkpt>
<trkpt lat="35.0648960" lon="32.6225104">
<ele>938.41</ele>
<time>2015-04-27T10:40:32Z</time>
</trkpt>
<trkpt lat="35.0648193" lon="32.6225307">
<ele>938.80</ele>
<time>2015-04-27T10:40:34Z</time>
</trkpt>
<trkpt lat="35.0647559" lon="32.6225379">
<ele>939.14</ele>
<time>2015-04-27T10:40:36Z</time>
</trkpt>
<trkpt lat="35.0646988" lon="32.6225306">
<ele>939.73</ele>
<time>2015-04-27T10:40:38Z</time>
</trkpt>
<trkpt lat="35.0646410" lon="32.6225282">
<ele>939.88</ele>
<time>2015-04-27T10:40:40Z</time>
</trkpt>
<trkpt lat="35.0645806" lon="32.6225313">
<ele>940.41</ele>
<time>2015-04-27T10:40:42Z</time>
</trkpt>
<trkpt lat="35.0645189" lon="32.6225395">
<ele>940.80</ele>
<time>2015-04-27T10:40:44Z</time>
</trkpt>
<trkpt lat="35.0644606" lon="32.6225552">
<ele>940.39</ele>
<time>2015-04-27T10:40:46Z</time>
</trkpt>
<trkpt lat="35.0644039" lon="32.6225724">
<ele>940.79</ele>
<time>2015-04-27T10:40:48Z</time>
</trkpt>
<trkpt lat="35.0643479" lon="32.6225808">
<ele>942.16</ele>
<time>2015-04-27T10:40:51Z</time>
</trkpt>
<trkpt lat="35.0643068" lon="32.6226104">
<ele>943.33</ele>
<time>2015-04-27T10:40:54Z</time>
</trkpt>
<trkpt lat="35.0642678" lon="32.6226611">
<ele>944.60</ele>
<time>2015-04-27T10:40:57Z</time>
</trkpt>
<trkpt lat="35.0642476" lon="32.6227261">
<ele>944.38</ele>
<time>2015-04-27T10:41:00Z</time>
</trkpt>
<trkpt lat="35.0642406" lon="32.6227948">
<ele>944.48</ele>
<time>2015-04-27T10:41:03Z</time>
</trkpt>
<trkpt lat="35.0642280" lon="32.6228660">
<ele>944.87</ele>
<time>2015-04-27T10:41:06Z</time>
</trkpt>
<trkpt lat="35.0642207" lon="32.6229383">
<ele>944.92</ele>
<time>2015-04-27T10:41:09Z</time>
</trkpt>
<trkpt lat="35.0642267" lon="32.6230101">
<ele>945.42</ele>
<time>2015-04-27T10:41:12Z</time>
</trkpt>
<trkpt lat="35.0642300" lon="32.6230770">
<ele>945.86</ele>
<time>2015-04-27T10:41:15Z</time>
</trkpt>
<trkpt lat="35.0642222" lon="32.6231482">
<ele>945.92</ele>
<time>2015-04-27T10:41:19Z</time>
</trkpt>
<trkpt lat="35.0642204" lon="32.6232250">
<ele>946.80</ele>
<time>2015-04-27T10:41:22Z</time>
</trkpt>
<trkpt lat="35.0641965" lon="32.6232918">
<ele>946.91</ele>
<time>2015-04-27T10:41:25Z</time>
</trkpt>
<trkpt lat="35.0641469" lon="32.6233386">
<ele>948.55</ele>
<time>2015-04-27T10:41:28Z</time>
</trkpt>
<trkpt lat="35.0640899" lon="32.6233643">
<ele>948.88</ele>
<time>2015-04-27T10:41:31Z</time>
</trkpt>
<trkpt lat="35.0640268" lon="32.6233589">
<ele>949.79</ele>
<time>2015-04-27T10:41:34Z</time>
</trkpt>
<trkpt lat="35.0639704" lon="32.6233512">
<ele>949.91</ele>
<time>2015-04-27T10:41:37Z</time>
</trkpt>
<trkpt lat="35.0639181" lon="32.6233299">
<ele>949.92</ele>
<time>2015-04-27T10:41:40Z</time>
</trkpt>
<trkpt lat="35.0638652" lon="32.6233085">
<ele>949.92</ele>
<time>2015-04-27T10:41:43Z</time>
</trkpt>
<trkpt lat="35.0638121" lon="32.6232921">
<ele>950.42</ele>
<time>2015-04-27T10:41:46Z</time>
</trkpt>
<trkpt lat="35.0637610" lon="32.6232728">
<ele>950.86</ele>
<time>2015-04-27T10:41:49Z</time>
</trkpt>
<trkpt lat="35.0637102" lon="32.6232538">
<ele>950.92</ele>
<time>2015-04-27T10:41:52Z</time>
</trkpt>
<trkpt lat="35.0636532" lon="32.6232601">
<ele>951.67</ele>
<time>2015-04-27T10:41:55Z</time>
</trkpt>
<trkpt lat="35.0635942" lon="32.6232606">
<ele>953.14</ele>
<time>2015-04-27T10:41:58Z</time>
</trkpt>
<trkpt lat="35.0635325" lon="32.6232640">
<ele>952.20</ele>
<time>2015-04-27T10:42:01Z</time>
</trkpt>
<trkpt lat="35.0634726" lon="32.6232892">
<ele>952.71</ele>
<time>2015-04-27T10:42:04Z</time>
</trkpt>
<trkpt lat="35.0634155" lon="32.6233281">
<ele>953.77</ele>
<time>2015-04-27T10:42:07Z</time>
</trkpt>
<trkpt lat="35.0633788" lon="32.6233621">
<ele>954.64</ele>
<time>2015-04-27T10:42:09Z</time>
</trkpt>
<trkpt lat="35.0633438" lon="32.6234000">
<ele>955.60</ele>
<time>2015-04-27T10:42:11Z</time>
</trkpt>
<trkpt lat="35.0633095" lon="32.6234387">
<ele>956.59</ele>
<time>2015-04-27T10:42:13Z</time>
</trkpt>
<trkpt lat="35.0632851" lon="32.6234872">
<ele>956.84</ele>
<time>2015-04-27T10:42:15Z</time>
</trkpt>
<trkpt lat="35.0632598" lon="32.6235349">
<ele>956.65</ele>
<time>2015-04-27T10:42:17Z</time>
</trkpt>
<trkpt lat="35.0632413" lon="32.6235887">
<ele>956.86</ele>
<time>2015-04-27T10:42:19Z</time>
</trkpt>
<trkpt lat="35.0632209" lon="32.6236497">
<ele>956.16</ele>
<time>2015-04-27T10:42:21Z</time>
</trkpt>
<trkpt lat="35.0632042" lon="32.6237102">
<ele>955.48</ele>
<time>2015-04-27T10:42:23Z</time>
</trkpt>
<trkpt lat="35.0631900" lon="32.6237708">
<ele>955.06</ele>
<time>2015-04-27T10:42:25Z</time>
</trkpt>
<trkpt lat="35.0631697" lon="32.6238278">
<ele>954.96</ele>
<time>2015-04-27T10:42:27Z</time>
</trkpt>
<trkpt lat="35.0631446" lon="32.6238802">
<ele>954.93</ele>
<time>2015-04-27T10:42:29Z</time>
</trkpt>
<trkpt lat="35.0631120" lon="32.6239260">
<ele>954.93</ele>
<time>2015-04-27T10:42:31Z</time>
</trkpt>
<trkpt lat="35.0630741" lon="32.6239608">
<ele>954.93</ele>
<time>2015-04-27T10:42:33Z</time>
</trkpt>
<trkpt lat="35.0630166" lon="32.6239857">
<ele>955.68</ele>
<time>2015-04-27T10:42:36Z</time>
</trkpt>
<trkpt lat="35.0629701" lon="32.6239843">
<ele>955.86</ele>
<time>2015-04-27T10:42:38Z</time>
</trkpt>
<trkpt lat="35.0629233" lon="32.6239674">
<ele>955.91</ele>
<time>2015-04-27T10:42:40Z</time>
</trkpt>
<trkpt lat="35.0628763" lon="32.6239556">
<ele>955.92</ele>
<time>2015-04-27T10:42:42Z</time>
</trkpt>
<trkpt lat="35.0628259" lon="32.6239521">
<ele>955.92</ele>
<time>2015-04-27T10:42:44Z</time>
</trkpt>
<trkpt lat="35.0627750" lon="32.6239579">
<ele>956.67</ele>
<time>2015-04-27T10:42:46Z</time>
</trkpt>
<trkpt lat="35.0627252" lon="32.6239607">
<ele>956.86</ele>
<time>2015-04-27T10:42:48Z</time>
</trkpt>
<trkpt lat="35.0626785" lon="32.6239580">
<ele>956.91</ele>
<time>2015-04-27T10:42:50Z</time>
</trkpt>
<trkpt lat="35.0626150" lon="32.6239600">
<ele>957.42</ele>
<time>2015-04-27T10:42:53Z</time>
</trkpt>
<trkpt lat="35.0625546" lon="32.6239565">
<ele>957.74</ele>
<time>2015-04-27T10:42:56Z</time>
</trkpt>
<trkpt lat="35.0625046" lon="32.6239541">
<ele>957.90</ele>
<time>2015-04-27T10:42:59Z</time>
</trkpt>
<trkpt lat="35.0624560" lon="32.6239376">
<ele>957.92</ele>
<time>2015-04-27T10:43:02Z</time>
</trkpt>
<trkpt lat="35.0624050" lon="32.6239174">
<ele>958.05</ele>
<time>2015-04-27T10:43:05Z</time>
</trkpt>
<trkpt lat="35.0623535" lon="32.6238904">
<ele>958.44</ele>
<time>2015-04-27T10:43:08Z</time>
</trkpt>
<trkpt lat="35.0623018" lon="32.6238638">
<ele>958.24</ele>
<time>2015-04-27T10:43:11Z</time>
</trkpt>
<trkpt lat="35.0622474" lon="32.6238444">
<ele>958.84</ele>
<time>2015-04-27T10:43:14Z</time>
</trkpt>
<trkpt lat="35.0621962" lon="32.6238176">
<ele>959.41</ele>
<time>2015-04-27T10:43:17Z</time>
</trkpt>
<trkpt lat="35.0621466" lon="32.6237886">
<ele>959.86</ele>
<time>2015-04-27T10:43:20Z</time>
</trkpt>
<trkpt lat="35.0620974" lon="32.6237598">
<ele>959.92</ele>
<time>2015-04-27T10:43:23Z</time>
</trkpt>
<trkpt lat="35.0620497" lon="32.6237352">
<ele>959.92</ele>
<time>2015-04-27T10:43:26Z</time>
</trkpt>
<trkpt lat="35.0620012" lon="32.6237096">
<ele>959.92</ele>
<time>2015-04-27T10:43:30Z</time>
</trkpt>
<trkpt lat="35.0619543" lon="32.6236762">
<ele>960.42</ele>
<time>2015-04-27T10:43:36Z</time>
</trkpt>
<trkpt lat="35.0619021" lon="32.6236751">
<ele>961.64</ele>
<time>2015-04-27T10:43:40Z</time>
</trkpt>
<trkpt lat="35.0618498" lon="32.6236549">
<ele>961.91</ele>
<time>2015-04-27T10:43:44Z</time>
</trkpt>
<trkpt lat="35.0617893" lon="32.6236482">
<ele>961.92</ele>
<time>2015-04-27T10:43:48Z</time>
</trkpt>
<trkpt lat="35.0617420" lon="32.6236337">
<ele>961.92</ele>
<time>2015-04-27T10:43:51Z</time>
</trkpt>
<trkpt lat="35.0616940" lon="32.6236266">
<ele>962.80</ele>
<time>2015-04-27T10:43:54Z</time>
</trkpt>
<trkpt lat="35.0616501" lon="32.6236133">
<ele>963.66</ele>
<time>2015-04-27T10:43:57Z</time>
</trkpt>
<trkpt lat="35.0615922" lon="32.6235964">
<ele>963.91</ele>
<time>2015-04-27T10:44:01Z</time>
</trkpt>
<trkpt lat="35.0615402" lon="32.6235667">
<ele>963.42</ele>
<time>2015-04-27T10:44:05Z</time>
</trkpt>
<trkpt lat="35.0614942" lon="32.6235309">
<ele>963.83</ele>
<time>2015-04-27T10:44:09Z</time>
</trkpt>
<trkpt lat="35.0614556" lon="32.6235025">
<ele>963.79</ele>
<time>2015-04-27T10:44:12Z</time>
</trkpt>
<trkpt lat="35.0614117" lon="32.6234813">
<ele>964.41</ele>
<time>2015-04-27T10:44:15Z</time>
</trkpt>
<trkpt lat="35.0613663" lon="32.6234580">
<ele>964.86</ele>
<time>2015-04-27T10:44:18Z</time>
</trkpt>
<trkpt lat="35.0613288" lon="32.6234216">
<ele>964.92</ele>
<time>2015-04-27T10:44:21Z</time>
</trkpt>
<trkpt lat="35.0612913" lon="32.6233838">
<ele>964.92</ele>
<time>2015-04-27T10:44:24Z</time>
</trkpt>
<trkpt lat="35.0612575" lon="32.6233385">
<ele>964.80</ele>
<time>2015-04-27T10:44:27Z</time>
</trkpt>
<trkpt lat="35.0612282" lon="32.6232892">
<ele>964.03</ele>
<time>2015-04-27T10:44:30Z</time>
</trkpt>
<trkpt lat="35.0612060" lon="32.6232397">
<ele>962.44</ele>
<time>2015-04-27T10:44:33Z</time>
</trkpt>
<trkpt lat="35.0611765" lon="32.6231838">
<ele>961.96</ele>
<time>2015-04-27T10:44:37Z</time>
</trkpt>
<trkpt lat="35.0611388" lon="32.6231338">
<ele>962.68</ele>
<time>2015-04-27T10:44:41Z</time>
</trkpt>
<trkpt lat="35.0611017" lon="32.6230982">
<ele>963.77</ele>
<time>2015-04-27T10:44:44Z</time>
</trkpt>
<trkpt lat="35.0610644" lon="32.6230566">
<ele>964.66</ele>
<time>2015-04-27T10:44:47Z</time>
</trkpt>
<trkpt lat="35.0610265" lon="32.6230155">
<ele>965.39</ele>
<time>2015-04-27T10:44:50Z</time>
</trkpt>
<trkpt lat="35.0609875" lon="32.6229774">
<ele>966.36</ele>
<time>2015-04-27T10:44:53Z</time>
</trkpt>
<trkpt lat="35.0609438" lon="32.6229385">
<ele>967.60</ele>
<time>2015-04-27T10:44:56Z</time>
</trkpt>
<trkpt lat="35.0609030" lon="32.6229028">
<ele>967.88</ele>
<time>2015-04-27T10:44:59Z</time>
</trkpt>
<trkpt lat="35.0608648" lon="32.6228648">
<ele>967.30</ele>
<time>2015-04-27T10:45:03Z</time>
</trkpt>
<trkpt lat="35.0608116" lon="32.6228344">
<ele>966.95</ele>
<time>2015-04-27T10:45:07Z</time>
</trkpt>
<trkpt lat="35.0607602" lon="32.6228208">
<ele>967.86</ele>
<time>2015-04-27T10:45:11Z</time>
</trkpt>
<trkpt lat="35.0607063" lon="32.6228208">
<ele>968.80</ele>
<time>2015-04-27T10:45:15Z</time>
</trkpt>
<trkpt lat="35.0606561" lon="32.6228371">
<ele>968.92</ele>
<time>2015-04-27T10:45:19Z</time>
</trkpt>
<trkpt lat="35.0605992" lon="32.6228682">
<ele>970.17</ele>
<time>2015-04-27T10:45:22Z</time>
</trkpt>
<trkpt lat="35.0605431" lon="32.6229117">
<ele>971.33</ele>
<time>2015-04-27T10:45:25Z</time>
</trkpt>
<trkpt lat="35.0605033" lon="32.6229389">
<ele>971.78</ele>
<time>2015-04-27T10:45:27Z</time>
</trkpt>
<trkpt lat="35.0604604" lon="32.6229630">
<ele>971.89</ele>
<time>2015-04-27T10:45:29Z</time>
</trkpt>
<trkpt lat="35.0604227" lon="32.6229938">
<ele>971.17</ele>
<time>2015-04-27T10:45:31Z</time>
</trkpt>
<trkpt lat="35.0603778" lon="32.6230503">
<ele>971.58</ele>
<time>2015-04-27T10:45:34Z</time>
</trkpt>
<trkpt lat="35.0603360" lon="32.6230869">
<ele>971.13</ele>
<time>2015-04-27T10:45:37Z</time>
</trkpt>
<trkpt lat="35.0602938" lon="32.6231099">
<ele>970.95</ele>
<time>2015-04-27T10:45:40Z</time>
</trkpt>
<trkpt lat="35.0602478" lon="32.6231177">
<ele>970.93</ele>
<time>2015-04-27T10:45:43Z</time>
</trkpt>
<trkpt lat="35.0602010" lon="32.6231193">
<ele>971.68</ele>
<time>2015-04-27T10:45:45Z</time>
</trkpt>
<trkpt lat="35.0601502" lon="32.6231061">
<ele>972.36</ele>
<time>2015-04-27T10:45:47Z</time>
</trkpt>
<trkpt lat="35.0601016" lon="32.6230894">
<ele>972.78</ele>
<time>2015-04-27T10:45:49Z</time>
</trkpt>
<trkpt lat="35.0600583" lon="32.6230707">
<ele>972.91</ele>
<time>2015-04-27T10:45:52Z</time>
</trkpt>
<trkpt lat="35.0600083" lon="32.6230470">
<ele>974.42</ele>
<time>2015-04-27T10:46:19Z</time>
</trkpt>
<trkpt lat="35.0599803" lon="32.6230021">
<ele>974.38</ele>
<time>2015-04-27T10:46:24Z</time>
</trkpt>
<trkpt lat="35.0599678" lon="32.6229480">
<ele>973.93</ele>
<time>2015-04-27T10:46:31Z</time>
</trkpt>
<trkpt lat="35.0599222" lon="32.6229522">
<ele>977.86</ele>
<time>2015-04-27T10:48:06Z</time>
</trkpt>
<trkpt lat="35.0598816" lon="32.6230145">
<ele>977.55</ele>
<time>2015-04-27T10:48:10Z</time>
</trkpt>
<trkpt lat="35.0598289" lon="32.6230643">
<ele>977.88</ele>
<time>2015-04-27T10:48:13Z</time>
</trkpt>
<trkpt lat="35.0597865" lon="32.6230936">
<ele>978.66</ele>
<time>2015-04-27T10:48:15Z</time>
</trkpt>
<trkpt lat="35.0597443" lon="32.6231242">
<ele>979.61</ele>
<time>2015-04-27T10:48:17Z</time>
</trkpt>
<trkpt lat="35.0597017" lon="32.6231555">
<ele>979.85</ele>
<time>2015-04-27T10:48:19Z</time>
</trkpt>
<trkpt lat="35.0596583" lon="32.6231892">
<ele>979.91</ele>
<time>2015-04-27T10:48:21Z</time>
</trkpt>
<trkpt lat="35.0596148" lon="32.6232224">
<ele>978.42</ele>
<time>2015-04-27T10:48:23Z</time>
</trkpt>
<trkpt lat="35.0595719" lon="32.6232543">
<ele>978.80</ele>
<time>2015-04-27T10:48:25Z</time>
</trkpt>
<trkpt lat="35.0595286" lon="32.6232787">
<ele>979.64</ele>
<time>2015-04-27T10:48:27Z</time>
</trkpt>
<trkpt lat="35.0594865" lon="32.6233059">
<ele>979.35</ele>
<time>2015-04-27T10:48:29Z</time>
</trkpt>
<trkpt lat="35.0594250" lon="32.6233358">
<ele>978.73</ele>
<time>2015-04-27T10:48:32Z</time>
</trkpt>
<trkpt lat="35.0593795" lon="32.6233554">
<ele>978.88</ele>
<time>2015-04-27T10:48:34Z</time>
</trkpt>
<trkpt lat="35.0593201" lon="32.6233805">
<ele>979.67</ele>
<time>2015-04-27T10:48:37Z</time>
</trkpt>
<trkpt lat="35.0592721" lon="32.6233936">
<ele>980.42</ele>
<time>2015-04-27T10:48:42Z</time>
</trkpt>
<trkpt lat="35.0592196" lon="32.6234137">
<ele>980.86</ele>
<time>2015-04-27T10:48:45Z</time>
</trkpt>
<trkpt lat="35.0591697" lon="32.6234322">
<ele>981.41</ele>
<time>2015-04-27T10:48:47Z</time>
</trkpt>
<trkpt lat="35.0591175" lon="32.6234490">
<ele>981.80</ele>
<time>2015-04-27T10:48:49Z</time>
</trkpt>
<trkpt lat="35.0590639" lon="32.6234671">
<ele>982.64</ele>
<time>2015-04-27T10:48:51Z</time>
</trkpt>
<trkpt lat="35.0590132" lon="32.6234741">
<ele>982.85</ele>
<time>2015-04-27T10:48:53Z</time>
</trkpt>
<trkpt lat="35.0589639" lon="32.6234602">
<ele>982.91</ele>
<time>2015-04-27T10:48:55Z</time>
</trkpt>
<trkpt lat="35.0589179" lon="32.6234275">
<ele>982.42</ele>
<time>2015-04-27T10:48:57Z</time>
</trkpt>
<trkpt lat="35.0588792" lon="32.6233609">
<ele>981.55</ele>
<time>2015-04-27T10:48:59Z</time>
</trkpt>
<trkpt lat="35.0588565" lon="32.6232632">
<ele>981.08</ele>
<time>2015-04-27T10:49:01Z</time>
</trkpt>
<trkpt lat="35.0588576" lon="32.6231674">
<ele>981.21</ele>
<time>2015-04-27T10:49:03Z</time>
</trkpt>
<trkpt lat="35.0588681" lon="32.6230814">
<ele>981.50</ele>
<time>2015-04-27T10:49:05Z</time>
</trkpt>
<trkpt lat="35.0588772" lon="32.6230203">
<ele>982.32</ele>
<time>2015-04-27T10:49:07Z</time>
</trkpt>
<trkpt lat="35.0588865" lon="32.6229513">
<ele>982.02</ele>
<time>2015-04-27T10:49:09Z</time>
</trkpt>
<trkpt lat="35.0588947" lon="32.6228647">
<ele>981.95</ele>
<time>2015-04-27T10:49:11Z</time>
</trkpt>
<trkpt lat="35.0588953" lon="32.6227707">
<ele>981.93</ele>
<time>2015-04-27T10:49:13Z</time>
</trkpt>
<trkpt lat="35.0588704" lon="32.6226859">
<ele>980.93</ele>
<time>2015-04-27T10:49:15Z</time>
</trkpt>
<trkpt lat="35.0588160" lon="32.6226168">
<ele>980.93</ele>
<time>2015-04-27T10:49:17Z</time>
</trkpt>
<trkpt lat="35.0587547" lon="32.6225524">
<ele>980.93</ele>
<time>2015-04-27T10:49:19Z</time>
</trkpt>
<trkpt lat="35.0586970" lon="32.6224868">
<ele>980.93</ele>
<time>2015-04-27T10:49:21Z</time>
</trkpt>
<trkpt lat="35.0586453" lon="32.6224140">
<ele>981.67</ele>
<time>2015-04-27T10:49:23Z</time>
</trkpt>
<trkpt lat="35.0585964" lon="32.6223395">
<ele>981.36</ele>
<time>2015-04-27T10:49:25Z</time>
</trkpt>
<trkpt lat="35.0585442" lon="32.6222681">
<ele>981.03</ele>
<time>2015-04-27T10:49:27Z</time>
</trkpt>
<trkpt lat="35.0584942" lon="32.6221931">
<ele>980.95</ele>
<time>2015-04-27T10:49:29Z</time>
</trkpt>
<trkpt lat="35.0584480" lon="32.6221288">
<ele>981.93</ele>
<time>2015-04-27T10:49:31Z</time>
</trkpt>
<trkpt lat="35.0584130" lon="32.6220742">
<ele>983.55</ele>
<time>2015-04-27T10:49:57Z</time>
</trkpt>
<trkpt lat="35.0583751" lon="32.6220045">
<ele>983.88</ele>
<time>2015-04-27T10:50:00Z</time>
</trkpt>
<trkpt lat="35.0583337" lon="32.6219364">
<ele>984.41</ele>
<time>2015-04-27T10:50:02Z</time>
</trkpt>
<trkpt lat="35.0583028" lon="32.6218624">
<ele>983.55</ele>
<time>2015-04-27T10:50:04Z</time>
</trkpt>
<trkpt lat="35.0582862" lon="32.6217875">
<ele>982.08</ele>
<time>2015-04-27T10:50:06Z</time>
</trkpt>
<trkpt lat="35.0582764" lon="32.6217076">
<ele>981.21</ele>
<time>2015-04-27T10:50:08Z</time>
</trkpt>
<trkpt lat="35.0582686" lon="32.6216267">
<ele>980.75</ele>
<time>2015-04-27T10:50:10Z</time>
</trkpt>
<trkpt lat="35.0582660" lon="32.6215420">
<ele>980.38</ele>
<time>2015-04-27T10:50:12Z</time>
</trkpt>
<trkpt lat="35.0582640" lon="32.6214590">
<ele>980.79</ele>
<time>2015-04-27T10:50:14Z</time>
</trkpt>
<trkpt lat="35.0582476" lon="32.6213797">
<ele>981.39</ele>
<time>2015-04-27T10:50:16Z</time>
</trkpt>
<trkpt lat="35.0582236" lon="32.6213085">
<ele>981.79</ele>
<time>2015-04-27T10:50:18Z</time>
</trkpt>
<trkpt lat="35.0581802" lon="32.6212472">
<ele>981.89</ele>
<time>2015-04-27T10:50:20Z</time>
</trkpt>
<trkpt lat="35.0581173" lon="32.6211831">
<ele>982.92</ele>
<time>2015-04-27T10:50:22Z</time>
</trkpt>
<trkpt lat="35.0580476" lon="32.6211393">
<ele>983.92</ele>
<time>2015-04-27T10:50:23Z</time>
</trkpt>
<trkpt lat="35.0580099" lon="32.6211087">
<ele>984.42</ele>
<time>2015-04-27T10:50:24Z</time>
</trkpt>
<trkpt lat="35.0579616" lon="32.6210898">
<ele>984.17</ele>
<time>2015-04-27T10:50:25Z</time>
</trkpt>
<trkpt lat="35.0579170" lon="32.6210726">
<ele>984.05</ele>
<time>2015-04-27T10:50:26Z</time>
</trkpt>
<trkpt lat="35.0578725" lon="32.6210619">
<ele>984.49</ele>
<time>2015-04-27T10:50:27Z</time>
</trkpt>
<trkpt lat="35.0578111" lon="32.6210503">
<ele>985.21</ele>
<time>2015-04-27T10:50:28Z</time>
</trkpt>
<trkpt lat="35.0577637" lon="32.6210405">
<ele>985.57</ele>
<time>2015-04-27T10:50:29Z</time>
</trkpt>
<trkpt lat="35.0577011" lon="32.6210336">
<ele>985.75</ele>
<time>2015-04-27T10:50:30Z</time>
</trkpt>
<trkpt lat="35.0576466" lon="32.6210223">
<ele>984.84</ele>
<time>2015-04-27T10:50:31Z</time>
</trkpt>
<trkpt lat="35.0575763" lon="32.6210252">
<ele>984.88</ele>
<time>2015-04-27T10:50:32Z</time>
</trkpt>
<trkpt lat="35.0575180" lon="32.6210327">
<ele>985.40</ele>
<time>2015-04-27T10:50:33Z</time>
</trkpt>
<trkpt lat="35.0574702" lon="32.6210300">
<ele>985.66</ele>
<time>2015-04-27T10:50:34Z</time>
</trkpt>
<trkpt lat="35.0574191" lon="32.6210101">
<ele>986.29</ele>
<time>2015-04-27T10:50:35Z</time>
</trkpt>
<trkpt lat="35.0573727" lon="32.6209758">
<ele>986.61</ele>
<time>2015-04-27T10:50:36Z</time>
</trkpt>
<trkpt lat="35.0573392" lon="32.6209347">
<ele>986.27</ele>
<time>2015-04-27T10:50:37Z</time>
</trkpt>
<trkpt lat="35.0573107" lon="32.6208844">
<ele>986.10</ele>
<time>2015-04-27T10:50:38Z</time>
</trkpt>
<trkpt lat="35.0572782" lon="32.6208294">
<ele>986.51</ele>
<time>2015-04-27T10:50:39Z</time>
</trkpt>
<trkpt lat="35.0572556" lon="32.6207802">
<ele>986.22</ele>
<time>2015-04-27T10:50:40Z</time>
</trkpt>
<trkpt lat="35.0572294" lon="32.6207259">
<ele>985.57</ele>
<time>2015-04-27T10:50:41Z</time>
</trkpt>
<trkpt lat="35.0571935" lon="32.6206746">
<ele>985.75</ele>
<time>2015-04-27T10:50:42Z</time>
</trkpt>
<trkpt lat="35.0571639" lon="32.6206180">
<ele>985.34</ele>
<time>2015-04-27T10:50:43Z</time>
</trkpt>
<trkpt lat="35.0571396" lon="32.6205656">
<ele>985.13</ele>
<time>2015-04-27T10:50:44Z</time>
</trkpt>
<trkpt lat="35.0570844" lon="32.6204805">
<ele>986.48</ele>
<time>2015-04-27T10:50:46Z</time>
</trkpt>
<trkpt lat="35.0570460" lon="32.6204373">
<ele>986.20</ele>
<time>2015-04-27T10:50:47Z</time>
</trkpt>
<trkpt lat="35.0569789" lon="32.6203651">
<ele>985.49</ele>
<time>2015-04-27T10:50:49Z</time>
</trkpt>
<trkpt lat="35.0569336" lon="32.6203137">
<ele>986.71</ele>
<time>2015-04-27T10:50:50Z</time>
</trkpt>
<trkpt lat="35.0568899" lon="32.6202820">
<ele>987.82</ele>
<time>2015-04-27T10:50:51Z</time>
</trkpt>
<trkpt lat="35.0568315" lon="32.6202559">
<ele>989.37</ele>
<time>2015-04-27T10:50:52Z</time>
</trkpt>
<trkpt lat="35.0567788" lon="32.6202389">
<ele>990.15</ele>
<time>2015-04-27T10:50:53Z</time>
</trkpt>
<trkpt lat="35.0567283" lon="32.6202290">
<ele>990.54</ele>
<time>2015-04-27T10:50:54Z</time>
</trkpt>
<trkpt lat="35.0566784" lon="32.6202029">
<ele>990.73</ele>
<time>2015-04-27T10:50:55Z</time>
</trkpt>
<trkpt lat="35.0566225" lon="32.6202006">
<ele>991.33</ele>
<time>2015-04-27T10:50:56Z</time>
</trkpt>
<trkpt lat="35.0565707" lon="32.6202069">
<ele>991.13</ele>
<time>2015-04-27T10:50:57Z</time>
</trkpt>
<trkpt lat="35.0565183" lon="32.6202328">
<ele>991.53</ele>
<time>2015-04-27T10:50:58Z</time>
</trkpt>
<trkpt lat="35.0564696" lon="32.6202494">
<ele>992.73</ele>
<time>2015-04-27T10:50:59Z</time>
</trkpt>
<trkpt lat="35.0564230" lon="32.6202728">
<ele>993.33</ele>
<time>2015-04-27T10:51:00Z</time>
</trkpt>
<trkpt lat="35.0563710" lon="32.6203027">
<ele>994.13</ele>
<time>2015-04-27T10:51:01Z</time>
</trkpt>
<trkpt lat="35.0563348" lon="32.6203708">
<ele>994.53</ele>
<time>2015-04-27T10:51:02Z</time>
</trkpt>
<trkpt lat="35.0562827" lon="32.6203964">
<ele>994.23</ele>
<time>2015-04-27T10:51:03Z</time>
</trkpt>
<trkpt lat="35.0562450" lon="32.6204278">
<ele>993.08</ele>
<time>2015-04-27T10:51:04Z</time>
</trkpt>
<trkpt lat="35.0561988" lon="32.6204538">
<ele>992.50</ele>
<time>2015-04-27T10:51:05Z</time>
</trkpt>
<trkpt lat="35.0561619" lon="32.6204855">
<ele>991.21</ele>
<time>2015-04-27T10:51:06Z</time>
</trkpt>
<trkpt lat="35.0560923" lon="32.6205292">
<ele>988.00</ele>
<time>2015-04-27T10:51:08Z</time>
</trkpt>
<trkpt lat="35.0560553" lon="32.6205649">
<ele>987.46</ele>
<time>2015-04-27T10:51:09Z</time>
</trkpt>
<trkpt lat="35.0559826" lon="32.6206484">
<ele>987.81</ele>
<time>2015-04-27T10:51:11Z</time>
</trkpt>
<trkpt lat="35.0559476" lon="32.6206987">
<ele>988.37</ele>
<time>2015-04-27T10:51:12Z</time>
</trkpt>
<trkpt lat="35.0559203" lon="32.6207464">
<ele>988.65</ele>
<time>2015-04-27T10:51:13Z</time>
</trkpt>
<trkpt lat="35.0558915" lon="32.6207929">
<ele>988.29</ele>
<time>2015-04-27T10:51:14Z</time>
</trkpt>
<trkpt lat="35.0558569" lon="32.6208470">
<ele>987.77</ele>
<time>2015-04-27T10:51:16Z</time>
</trkpt>
<trkpt lat="35.0558103" lon="32.6209098">
<ele>985.89</ele>
<time>2015-04-27T10:51:18Z</time>
</trkpt>
<trkpt lat="35.0557763" lon="32.6209768">
<ele>985.66</ele>
<time>2015-04-27T10:51:20Z</time>
</trkpt>
<trkpt lat="35.0557310" lon="32.6210640">
<ele>986.61</ele>
<time>2015-04-27T10:51:22Z</time>
</trkpt>
<trkpt lat="35.0556857" lon="32.6211506">
<ele>988.10</ele>
<time>2015-04-27T10:51:24Z</time>
</trkpt>
<trkpt lat="35.0556404" lon="32.6212391">
<ele>990.97</ele>
<time>2015-04-27T10:51:26Z</time>
</trkpt>
<trkpt lat="35.0555942" lon="32.6213242">
<ele>992.44</ele>
<time>2015-04-27T10:51:28Z</time>
</trkpt>
<trkpt lat="35.0555441" lon="32.6213982">
<ele>991.80</ele>
<time>2015-04-27T10:51:30Z</time>
</trkpt>
<trkpt lat="35.0554923" lon="32.6214682">
<ele>991.14</ele>
<time>2015-04-27T10:51:32Z</time>
</trkpt>
<trkpt lat="35.0554368" lon="32.6215320">
<ele>992.73</ele>
<time>2015-04-27T10:51:34Z</time>
</trkpt>
<trkpt lat="35.0553867" lon="32.6215927">
<ele>993.13</ele>
<time>2015-04-27T10:51:36Z</time>
</trkpt>
<trkpt lat="35.0553552" lon="32.6216436">
<ele>992.98</ele>
<time>2015-04-27T10:51:38Z</time>
</trkpt>
<trkpt lat="35.0553308" lon="32.6216909">
<ele>991.69</ele>
<time>2015-04-27T10:51:40Z</time>
</trkpt>
<trkpt lat="35.0553041" lon="32.6217482">
<ele>989.62</ele>
<time>2015-04-27T10:51:42Z</time>
</trkpt>
<trkpt lat="35.0552750" lon="32.6218137">
<ele>989.10</ele>
<time>2015-04-27T10:51:44Z</time>
</trkpt>
<trkpt lat="35.0552445" lon="32.6218894">
<ele>989.47</ele>
<time>2015-04-27T10:51:46Z</time>
</trkpt>
<trkpt lat="35.0552153" lon="32.6219622">
<ele>989.06</ele>
<time>2015-04-27T10:51:48Z</time>
</trkpt>
<trkpt lat="35.0551886" lon="32.6220222">
<ele>988.46</ele>
<time>2015-04-27T10:51:50Z</time>
</trkpt>
<trkpt lat="35.0551580" lon="32.6220874">
<ele>988.87</ele>
<time>2015-04-27T10:51:53Z</time>
</trkpt>
<trkpt lat="35.0551350" lon="32.6221636">
<ele>987.54</ele>
<time>2015-04-27T10:51:56Z</time>
</trkpt>
<trkpt lat="35.0551202" lon="32.6222254">
<ele>986.58</ele>
<time>2015-04-27T10:51:58Z</time>
</trkpt>
<trkpt lat="35.0550979" lon="32.6222895">
<ele>986.09</ele>
<time>2015-04-27T10:52:00Z</time>
</trkpt>
<trkpt lat="35.0550732" lon="32.6223640">
<ele>986.47</ele>
<time>2015-04-27T10:52:02Z</time>
</trkpt>
<trkpt lat="35.0550454" lon="32.6224386">
<ele>986.81</ele>
<time>2015-04-27T10:52:04Z</time>
</trkpt>
<trkpt lat="35.0550134" lon="32.6225084">
<ele>987.65</ele>
<time>2015-04-27T10:52:06Z</time>
</trkpt>
<trkpt lat="35.0549806" lon="32.6225758">
<ele>987.86</ele>
<time>2015-04-27T10:52:08Z</time>
</trkpt>
<trkpt lat="35.0549418" lon="32.6226428">
<ele>988.41</ele>
<time>2015-04-27T10:52:10Z</time>
</trkpt>
<trkpt lat="35.0548934" lon="32.6227047">
<ele>988.55</ele>
<time>2015-04-27T10:52:12Z</time>
</trkpt>
<trkpt lat="35.0548428" lon="32.6227651">
<ele>989.33</ele>
<time>2015-04-27T10:52:14Z</time>
</trkpt>
<trkpt lat="35.0547887" lon="32.6228304">
<ele>990.53</ele>
<time>2015-04-27T10:52:16Z</time>
</trkpt>
<trkpt lat="35.0547361" lon="32.6228962">
<ele>989.58</ele>
<time>2015-04-27T10:52:18Z</time>
</trkpt>
<trkpt lat="35.0546847" lon="32.6229685">
<ele>989.09</ele>
<time>2015-04-27T10:52:20Z</time>
</trkpt>
<trkpt lat="35.0546378" lon="32.6230473">
<ele>988.97</ele>
<time>2015-04-27T10:52:22Z</time>
</trkpt>
<trkpt lat="35.0545966" lon="32.6231346">
<ele>989.69</ele>
<time>2015-04-27T10:52:24Z</time>
</trkpt>
<trkpt lat="35.0545580" lon="32.6232237">
<ele>991.12</ele>
<time>2015-04-27T10:52:26Z</time>
</trkpt>
<trkpt lat="35.0545187" lon="32.6233070">
<ele>990.47</ele>
<time>2015-04-27T10:52:28Z</time>
</trkpt>
<trkpt lat="35.0544797" lon="32.6233905">
<ele>990.06</ele>
<time>2015-04-27T10:52:30Z</time>
</trkpt>
<trkpt lat="35.0544356" lon="32.6234658">
<ele>989.46</ele>
<time>2015-04-27T10:52:32Z</time>
</trkpt>
<trkpt lat="35.0543924" lon="32.6235421">
<ele>989.56</ele>
<time>2015-04-27T10:52:34Z</time>
</trkpt>
<trkpt lat="35.0543583" lon="32.6236232">
<ele>990.08</ele>
<time>2015-04-27T10:52:36Z</time>
</trkpt>
<trkpt lat="35.0543226" lon="32.6236850">
<ele>990.71</ele>
<time>2015-04-27T10:52:38Z</time>
</trkpt>
<trkpt lat="35.0542951" lon="32.6237356">
<ele>990.87</ele>
<time>2015-04-27T10:52:40Z</time>
</trkpt>
<trkpt lat="35.0542748" lon="32.6237942">
<ele>991.16</ele>
<time>2015-04-27T10:52:42Z</time>
</trkpt>
<trkpt lat="35.0542524" lon="32.6238504">
<ele>990.23</ele>
<time>2015-04-27T10:52:44Z</time>
</trkpt>
<trkpt lat="35.0542242" lon="32.6239088">
<ele>989.75</ele>
<time>2015-04-27T10:52:46Z</time>
</trkpt>
<trkpt lat="35.0541785" lon="32.6239562">
<ele>988.38</ele>
<time>2015-04-27T10:52:48Z</time>
</trkpt>
<trkpt lat="35.0541207" lon="32.6239843">
<ele>989.29</ele>
<time>2015-04-27T10:52:50Z</time>
</trkpt>
<trkpt lat="35.0540598" lon="32.6240066">
<ele>991.02</ele>
<time>2015-04-27T10:52:52Z</time>
</trkpt>
<trkpt lat="35.0539924" lon="32.6240224">
<ele>992.45</ele>
<time>2015-04-27T10:52:54Z</time>
</trkpt>
<trkpt lat="35.0539223" lon="32.6240254">
<ele>992.31</ele>
<time>2015-04-27T10:52:56Z</time>
</trkpt>
<trkpt lat="35.0538522" lon="32.6240112">
<ele>992.27</ele>
<time>2015-04-27T10:52:58Z</time>
</trkpt>
<trkpt lat="35.0537819" lon="32.6239960">
<ele>992.01</ele>
<time>2015-04-27T10:53:00Z</time>
</trkpt>
<trkpt lat="35.0537078" lon="32.6239805">
<ele>992.20</ele>
<time>2015-04-27T10:53:02Z</time>
</trkpt>
<trkpt lat="35.0536364" lon="32.6239557">
<ele>990.99</ele>
<time>2015-04-27T10:53:04Z</time>
</trkpt>
<trkpt lat="35.0535649" lon="32.6239336">
<ele>990.44</ele>
<time>2015-04-27T10:53:06Z</time>
</trkpt>
<trkpt lat="35.0534940" lon="32.6239211">
<ele>991.30</ele>
<time>2015-04-27T10:53:08Z</time>
</trkpt>
<trkpt lat="35.0533981" lon="32.6238980">
<ele>992.27</ele>
<time>2015-04-27T10:53:10Z</time>
</trkpt>
<trkpt lat="35.0533268" lon="32.6238625">
<ele>992.51</ele>
<time>2015-04-27T10:53:12Z</time>
</trkpt>
<trkpt lat="35.0532553" lon="32.6238237">
<ele>992.32</ele>
<time>2015-04-27T10:53:14Z</time>
</trkpt>
<trkpt lat="35.0531977" lon="32.6237770">
<ele>991.52</ele>
<time>2015-04-27T10:53:16Z</time>
</trkpt>
<trkpt lat="35.0531408" lon="32.6237226">
<ele>990.57</ele>
<time>2015-04-27T10:53:18Z</time>
</trkpt>
<trkpt lat="35.0530860" lon="32.6236883">
<ele>991.34</ele>
<time>2015-04-27T10:53:20Z</time>
</trkpt>
<trkpt lat="35.0530322" lon="32.6236575">
<ele>990.53</ele>
<time>2015-04-27T10:53:22Z</time>
</trkpt>
<trkpt lat="35.0529762" lon="32.6236244">
<ele>989.83</ele>
<time>2015-04-27T10:53:24Z</time>
</trkpt>
<trkpt lat="35.0529202" lon="32.6235853">
<ele>987.90</ele>
<time>2015-04-27T10:53:26Z</time>
</trkpt>
<trkpt lat="35.0528489" lon="32.6235715">
<ele>987.42</ele>
<time>2015-04-27T10:53:28Z</time>
</trkpt>
<trkpt lat="35.0527726" lon="32.6235845">
<ele>988.80</ele>
<time>2015-04-27T10:53:30Z</time>
</trkpt>
<trkpt lat="35.0526982" lon="32.6236302">
<ele>990.39</ele>
<time>2015-04-27T10:53:32Z</time>
</trkpt>
<trkpt lat="35.0526278" lon="32.6236908">
<ele>991.79</ele>
<time>2015-04-27T10:53:34Z</time>
</trkpt>
<trkpt lat="35.0525601" lon="32.6237448">
<ele>992.39</ele>
<time>2015-04-27T10:53:36Z</time>
</trkpt>
<trkpt lat="35.0524925" lon="32.6237945">
<ele>993.54</ele>
<time>2015-04-27T10:53:38Z</time>
</trkpt>
<trkpt lat="35.0524266" lon="32.6238204">
<ele>990.08</ele>
<time>2015-04-27T10:53:40Z</time>
</trkpt>
<trkpt lat="35.0523564" lon="32.6238183">
<ele>989.71</ele>
<time>2015-04-27T10:53:42Z</time>
</trkpt>
<trkpt lat="35.0522924" lon="32.6237931">
<ele>990.12</ele>
<time>2015-04-27T10:53:44Z</time>
</trkpt>
<trkpt lat="35.0522264" lon="32.6237605">
<ele>989.97</ele>
<time>2015-04-27T10:53:46Z</time>
</trkpt>
<trkpt lat="35.0521594" lon="32.6237288">
<ele>990.44</ele>
<time>2015-04-27T10:53:48Z</time>
</trkpt>
<trkpt lat="35.0520876" lon="32.6237038">
<ele>991.80</ele>
<time>2015-04-27T10:53:50Z</time>
</trkpt>
<trkpt lat="35.0520171" lon="32.6236831">
<ele>993.14</ele>
<time>2015-04-27T10:53:52Z</time>
</trkpt>
<trkpt lat="35.0519446" lon="32.6236705">
<ele>993.73</ele>
<time>2015-04-27T10:53:54Z</time>
</trkpt>
<trkpt lat="35.0518702" lon="32.6236624">
<ele>993.88</ele>
<time>2015-04-27T10:53:56Z</time>
</trkpt>
<trkpt lat="35.0517965" lon="32.6236602">
<ele>993.16</ele>
<time>2015-04-27T10:53:58Z</time>
</trkpt>
<trkpt lat="35.0517254" lon="32.6236473">
<ele>992.23</ele>
<time>2015-04-27T10:54:00Z</time>
</trkpt>
<trkpt lat="35.0516582" lon="32.6236271">
<ele>992.00</ele>
<time>2015-04-27T10:54:02Z</time>
</trkpt>
<trkpt lat="35.0515954" lon="32.6236027">
<ele>992.44</ele>
<time>2015-04-27T10:54:04Z</time>
</trkpt>
<trkpt lat="35.0515402" lon="32.6235739">
<ele>992.05</ele>
<time>2015-04-27T10:54:06Z</time>
</trkpt>
<trkpt lat="35.0514833" lon="32.6235313">
<ele>989.82</ele>
<time>2015-04-27T10:54:09Z</time>
</trkpt>
<trkpt lat="35.0514436" lon="32.6235043">
<ele>988.40</ele>
<time>2015-04-27T10:54:11Z</time>
</trkpt>
<trkpt lat="35.0513967" lon="32.6235006">
<ele>989.04</ele>
<time>2015-04-27T10:54:13Z</time>
</trkpt>
<trkpt lat="35.0513527" lon="32.6235147">
<ele>988.20</ele>
<time>2015-04-27T10:54:15Z</time>
</trkpt>
<trkpt lat="35.0513139" lon="32.6235574">
<ele>987.99</ele>
<time>2015-04-27T10:54:17Z</time>
</trkpt>
<trkpt lat="35.0512790" lon="32.6236105">
<ele>988.69</ele>
<time>2015-04-27T10:54:19Z</time>
</trkpt>
<trkpt lat="35.0512455" lon="32.6236634">
<ele>989.37</ele>
<time>2015-04-27T10:54:21Z</time>
</trkpt>
<trkpt lat="35.0512129" lon="32.6237033">
<ele>989.79</ele>
<time>2015-04-27T10:54:23Z</time>
</trkpt>
<trkpt lat="35.0511664" lon="32.6237323">
<ele>991.29</ele>
<time>2015-04-27T10:54:27Z</time>
</trkpt>
<trkpt lat="35.0511094" lon="32.6237632">
<ele>993.18</ele>
<time>2015-04-27T10:54:54Z</time>
</trkpt>
<trkpt lat="35.0510585" lon="32.6237766">
<ele>992.99</ele>
<time>2015-04-27T10:54:56Z</time>
</trkpt>
<trkpt lat="35.0510068" lon="32.6237816">
<ele>992.94</ele>
<time>2015-04-27T10:54:58Z</time>
</trkpt>
<trkpt lat="35.0509534" lon="32.6237795">
<ele>992.93</ele>
<time>2015-04-27T10:55:00Z</time>
</trkpt>
<trkpt lat="35.0508778" lon="32.6237874">
<ele>992.93</ele>
<time>2015-04-27T10:55:02Z</time>
</trkpt>
<trkpt lat="35.0507890" lon="32.6237870">
<ele>992.93</ele>
<time>2015-04-27T10:55:04Z</time>
</trkpt>
<trkpt lat="35.0507439" lon="32.6237886">
<ele>992.43</ele>
<time>2015-04-27T10:55:05Z</time>
</trkpt>
<trkpt lat="35.0506984" lon="32.6237950">
<ele>992.18</ele>
<time>2015-04-27T10:55:06Z</time>
</trkpt>
<trkpt lat="35.0506363" lon="32.6238204">
<ele>992.05</ele>
<time>2015-04-27T10:55:07Z</time>
</trkpt>
<trkpt lat="35.0505883" lon="32.6238621">
<ele>991.99</ele>
<time>2015-04-27T10:55:08Z</time>
</trkpt>
<trkpt lat="35.0505555" lon="32.6239114">
<ele>991.46</ele>
<time>2015-04-27T10:55:09Z</time>
</trkpt>
<trkpt lat="35.0505230" lon="32.6239647">
<ele>991.19</ele>
<time>2015-04-27T10:55:10Z</time>
</trkpt>
<trkpt lat="35.0505174" lon="32.6240436">
<ele>991.06</ele>
<time>2015-04-27T10:55:11Z</time>
</trkpt>
<trkpt lat="35.0505226" lon="32.6241227">
<ele>990.99</ele>
<time>2015-04-27T10:55:12Z</time>
</trkpt>
<trkpt lat="35.0505408" lon="32.6241901">
<ele>990.46</ele>
<time>2015-04-27T10:55:13Z</time>
</trkpt>
<trkpt lat="35.0505621" lon="32.6242616">
<ele>990.19</ele>
<time>2015-04-27T10:55:14Z</time>
</trkpt>
<trkpt lat="35.0505927" lon="32.6243330">
<ele>990.56</ele>
<time>2015-04-27T10:55:15Z</time>
</trkpt>
<trkpt lat="35.0506166" lon="32.6243998">
<ele>990.74</ele>
<time>2015-04-27T10:55:16Z</time>
</trkpt>
<trkpt lat="35.0506396" lon="32.6244682">
<ele>990.83</ele>
<time>2015-04-27T10:55:17Z</time>
</trkpt>
<trkpt lat="35.0506614" lon="32.6245335">
<ele>990.88</ele>
<time>2015-04-27T10:55:18Z</time>
</trkpt>
<trkpt lat="35.0506797" lon="32.6246038">
<ele>990.90</ele>
<time>2015-04-27T10:55:19Z</time>
</trkpt>
<trkpt lat="35.0506997" lon="32.6246732">
<ele>990.91</ele>
<time>2015-04-27T10:55:20Z</time>
</trkpt>
<trkpt lat="35.0507173" lon="32.6247362">
<ele>991.42</ele>
<time>2015-04-27T10:55:21Z</time>
</trkpt>
<trkpt lat="35.0507374" lon="32.6248039">
<ele>991.67</ele>
<time>2015-04-27T10:55:22Z</time>
</trkpt>
<trkpt lat="35.0507469" lon="32.6248651">
<ele>991.80</ele>
<time>2015-04-27T10:55:23Z</time>
</trkpt>
<trkpt lat="35.0507603" lon="32.6249218">
<ele>991.86</ele>
<time>2015-04-27T10:55:24Z</time>
</trkpt>
<trkpt lat="35.0507653" lon="32.6249769">
<ele>992.39</ele>
<time>2015-04-27T10:55:25Z</time>
</trkpt>
<trkpt lat="35.0507686" lon="32.6250325">
<ele>992.16</ele>
<time>2015-04-27T10:55:26Z</time>
</trkpt>
<trkpt lat="35.0507558" lon="32.6251336">
<ele>991.98</ele>
<time>2015-04-27T10:55:28Z</time>
</trkpt>
<trkpt lat="35.0507304" lon="32.6252320">
<ele>991.44</ele>
<time>2015-04-27T10:55:30Z</time>
</trkpt>
<trkpt lat="35.0507033" lon="32.6252792">
<ele>991.18</ele>
<time>2015-04-27T10:55:31Z</time>
</trkpt>
<trkpt lat="35.0506763" lon="32.6253272">
<ele>990.55</ele>
<time>2015-04-27T10:55:32Z</time>
</trkpt>
<trkpt lat="35.0506409" lon="32.6253776">
<ele>990.24</ele>
<time>2015-04-27T10:55:33Z</time>
</trkpt>
<trkpt lat="35.0506075" lon="32.6254288">
<ele>990.08</ele>
<time>2015-04-27T10:55:34Z</time>
</trkpt>
<trkpt lat="35.0505748" lon="32.6254780">
<ele>990.00</ele>
<time>2015-04-27T10:55:35Z</time>
</trkpt>
<trkpt lat="35.0505390" lon="32.6255261">
<ele>989.96</ele>
<time>2015-04-27T10:55:36Z</time>
</trkpt>
<trkpt lat="35.0505049" lon="32.6255698">
<ele>990.44</ele>
<time>2015-04-27T10:55:37Z</time>
</trkpt>
<trkpt lat="35.0504669" lon="32.6256036">
<ele>989.68</ele>
<time>2015-04-27T10:55:38Z</time>
</trkpt>
<trkpt lat="35.0504009" lon="32.6256724">
<ele>988.36</ele>
<time>2015-04-27T10:55:40Z</time>
</trkpt>
<trkpt lat="35.0503539" lon="32.6257441">
<ele>989.28</ele>
<time>2015-04-27T10:55:42Z</time>
</trkpt>
<trkpt lat="35.0503123" lon="32.6258142">
<ele>989.77</ele>
<time>2015-04-27T10:55:44Z</time>
</trkpt>
<trkpt lat="35.0502670" lon="32.6258836">
<ele>989.39</ele>
<time>2015-04-27T10:55:46Z</time>
</trkpt>
<trkpt lat="35.0502105" lon="32.6259504">
<ele>989.54</ele>
<time>2015-04-27T10:55:48Z</time>
</trkpt>
<trkpt lat="35.0501487" lon="32.6260095">
<ele>989.83</ele>
<time>2015-04-27T10:55:50Z</time>
</trkpt>
<trkpt lat="35.0500811" lon="32.6260653">
<ele>989.90</ele>
<time>2015-04-27T10:55:52Z</time>
</trkpt>
<trkpt lat="35.0500021" lon="32.6261043">
<ele>989.67</ele>
<time>2015-04-27T10:55:54Z</time>
</trkpt>
<trkpt lat="35.0499257" lon="32.6261393">
<ele>990.61</ele>
<time>2015-04-27T10:55:56Z</time>
</trkpt>
<trkpt lat="35.0498594" lon="32.6261871">
<ele>991.60</ele>
<time>2015-04-27T10:55:58Z</time>
</trkpt>
<trkpt lat="35.0498155" lon="32.6262592">
<ele>991.84</ele>
<time>2015-04-27T10:56:00Z</time>
</trkpt>
<trkpt lat="35.0497998" lon="32.6263254">
<ele>992.40</ele>
<time>2015-04-27T10:56:02Z</time>
</trkpt>
<trkpt lat="35.0497930" lon="32.6263810">
<ele>992.79</ele>
<time>2015-04-27T10:56:04Z</time>
</trkpt>
<trkpt lat="35.0497964" lon="32.6264400">
<ele>993.39</ele>
<time>2015-04-27T10:56:06Z</time>
</trkpt>
<trkpt lat="35.0497984" lon="32.6264976">
<ele>994.54</ele>
<time>2015-04-27T10:56:08Z</time>
</trkpt>
<trkpt lat="35.0498021" lon="32.6265744">
<ele>996.25</ele>
<time>2015-04-27T10:56:11Z</time>
</trkpt>
<trkpt lat="35.0498002" lon="32.6266477">
<ele>996.84</ele>
<time>2015-04-27T10:56:14Z</time>
</trkpt>
<trkpt lat="35.0497865" lon="32.6267230">
<ele>997.79</ele>
<time>2015-04-27T10:56:17Z</time>
</trkpt>
<trkpt lat="35.0497696" lon="32.6267755">
<ele>997.89</ele>
<time>2015-04-27T10:56:19Z</time>
</trkpt>
<trkpt lat="35.0497354" lon="32.6268324">
<ele>997.92</ele>
<time>2015-04-27T10:56:22Z</time>
</trkpt>
<trkpt lat="35.0496956" lon="32.6268860">
<ele>999.30</ele>
<time>2015-04-27T10:56:25Z</time>
</trkpt>
<trkpt lat="35.0496521" lon="32.6269406">
<ele>999.85</ele>
<time>2015-04-27T10:56:28Z</time>
</trkpt>
<trkpt lat="35.0496064" lon="32.6269939">
<ele>999.92</ele>
<time>2015-04-27T10:56:31Z</time>
</trkpt>
<trkpt lat="35.0495529" lon="32.6270446">
<ele>1000.80</ele>
<time>2015-04-27T10:56:34Z</time>
</trkpt>
<trkpt lat="35.0495174" lon="32.6270804">
<ele>1001.39</ele>
<time>2015-04-27T10:56:36Z</time>
</trkpt>
<trkpt lat="35.0494838" lon="32.6271176">
<ele>1001.79</ele>
<time>2015-04-27T10:56:38Z</time>
</trkpt>
<trkpt lat="35.0494334" lon="32.6271688">
<ele>1002.41</ele>
<time>2015-04-27T10:56:41Z</time>
</trkpt>
<trkpt lat="35.0493813" lon="32.6272188">
<ele>1002.86</ele>
<time>2015-04-27T10:56:44Z</time>
</trkpt>
<trkpt lat="35.0493310" lon="32.6272733">
<ele>1002.92</ele>
<time>2015-04-27T10:56:47Z</time>
</trkpt>
<trkpt lat="35.0492972" lon="32.6273105">
<ele>1002.92</ele>
<time>2015-04-27T10:56:49Z</time>
</trkpt>
<trkpt lat="35.0492642" lon="32.6273480">
<ele>1003.67</ele>
<time>2015-04-27T10:56:51Z</time>
</trkpt>
<trkpt lat="35.0492298" lon="32.6273844">
<ele>1003.86</ele>
<time>2015-04-27T10:56:53Z</time>
</trkpt>
<trkpt lat="35.0491904" lon="32.6274124">
<ele>1003.91</ele>
<time>2015-04-27T10:56:55Z</time>
</trkpt>
<trkpt lat="35.0491514" lon="32.6274438">
<ele>1003.67</ele>
<time>2015-04-27T10:56:57Z</time>
</trkpt>
<trkpt lat="35.0491041" lon="32.6274874">
<ele>1003.14</ele>
<time>2015-04-27T10:57:00Z</time>
</trkpt>
<trkpt lat="35.0490646" lon="32.6275388">
<ele>1002.33</ele>
<time>2015-04-27T10:57:03Z</time>
</trkpt>
<trkpt lat="35.0490260" lon="32.6276012">
<ele>1004.85</ele>
<time>2015-04-27T10:57:06Z</time>
</trkpt>
<trkpt lat="35.0489810" lon="32.6276598">
<ele>1005.54</ele>
<time>2015-04-27T10:57:09Z</time>
</trkpt>
<trkpt lat="35.0489512" lon="32.6277018">
<ele>1006.33</ele>
<time>2015-04-27T10:57:11Z</time>
</trkpt>
<trkpt lat="35.0489205" lon="32.6277426">
<ele>1007.28</ele>
<time>2015-04-27T10:57:13Z</time>
</trkpt>
<trkpt lat="35.0488861" lon="32.6277820">
<ele>1009.01</ele>
<time>2015-04-27T10:57:15Z</time>
</trkpt>
<trkpt lat="35.0488547" lon="32.6278213">
<ele>1010.45</ele>
<time>2015-04-27T10:57:17Z</time>
</trkpt>
<trkpt lat="35.0488244" lon="32.6278628">
<ele>1009.31</ele>
<time>2015-04-27T10:57:19Z</time>
</trkpt>
<trkpt lat="35.0487857" lon="32.6279296">
<ele>1007.72</ele>
<time>2015-04-27T10:57:22Z</time>
</trkpt>
<trkpt lat="35.0487416" lon="32.6279875">
<ele>1009.02</ele>
<time>2015-04-27T10:57:25Z</time>
</trkpt>
<trkpt lat="35.0487178" lon="32.6280583">
<ele>1009.44</ele>
<time>2015-04-27T10:57:28Z</time>
</trkpt>
<trkpt lat="35.0486966" lon="32.6281242">
<ele>1009.11</ele>
<time>2015-04-27T10:57:31Z</time>
</trkpt>
<trkpt lat="35.0486763" lon="32.6281883">
<ele>1008.82</ele>
<time>2015-04-27T10:57:34Z</time>
</trkpt>
<trkpt lat="35.0486496" lon="32.6282553">
<ele>1009.66</ele>
<time>2015-04-27T10:57:37Z</time>
</trkpt>
<trkpt lat="35.0486169" lon="32.6283170">
<ele>1009.14</ele>
<time>2015-04-27T10:57:40Z</time>
</trkpt>
<trkpt lat="35.0485846" lon="32.6283708">
<ele>1008.33</ele>
<time>2015-04-27T10:57:43Z</time>
</trkpt>
<trkpt lat="35.0485308" lon="32.6284074">
<ele>1008.23</ele>
<time>2015-04-27T10:57:46Z</time>
</trkpt>
<trkpt lat="35.0484879" lon="32.6284385">
<ele>1009.51</ele>
<time>2015-04-27T10:57:50Z</time>
</trkpt>
<trkpt lat="35.0484295" lon="32.6284485">
<ele>1009.51</ele>
<time>2015-04-27T10:57:55Z</time>
</trkpt>
<trkpt lat="35.0483831" lon="32.6284881">
<ele>1009.75</ele>
<time>2015-04-27T10:57:58Z</time>
</trkpt>
<trkpt lat="35.0483304" lon="32.6285190">
<ele>1011.28</ele>
<time>2015-04-27T10:58:01Z</time>
</trkpt>
<trkpt lat="35.0482811" lon="32.6285266">
<ele>1013.47</ele>
<time>2015-04-27T10:58:04Z</time>
</trkpt>
<trkpt lat="35.0482343" lon="32.6285158">
<ele>1013.87</ele>
<time>2015-04-27T10:58:07Z</time>
</trkpt>
<trkpt lat="35.0481898" lon="32.6284893">
<ele>1014.42</ele>
<time>2015-04-27T10:58:10Z</time>
</trkpt>
<trkpt lat="35.0481506" lon="32.6284488">
<ele>1014.86</ele>
<time>2015-04-27T10:58:13Z</time>
</trkpt>
<trkpt lat="35.0481013" lon="32.6284177">
<ele>1015.67</ele>
<time>2015-04-27T10:58:16Z</time>
</trkpt>
<trkpt lat="35.0480579" lon="32.6283723">
<ele>1015.89</ele>
<time>2015-04-27T10:58:19Z</time>
</trkpt>
<trkpt lat="35.0480154" lon="32.6283284">
<ele>1016.67</ele>
<time>2015-04-27T10:58:22Z</time>
</trkpt>
<trkpt lat="35.0479814" lon="32.6282762">
<ele>1017.39</ele>
<time>2015-04-27T10:58:25Z</time>
</trkpt>
<trkpt lat="35.0479481" lon="32.6282224">
<ele>1017.11</ele>
<time>2015-04-27T10:58:28Z</time>
</trkpt>
<trkpt lat="35.0478991" lon="32.6281799">
<ele>1016.95</ele>
<time>2015-04-27T10:58:31Z</time>
</trkpt>
<trkpt lat="35.0478550" lon="32.6281296">
<ele>1016.55</ele>
<time>2015-04-27T10:58:34Z</time>
</trkpt>
<trkpt lat="35.0478129" lon="32.6280810">
<ele>1017.75</ele>
<time>2015-04-27T10:58:37Z</time>
</trkpt>
<trkpt lat="35.0477702" lon="32.6280328">
<ele>1018.65</ele>
<time>2015-04-27T10:58:40Z</time>
</trkpt>
<trkpt lat="35.0477255" lon="32.6279875">
<ele>1020.14</ele>
<time>2015-04-27T10:58:43Z</time>
</trkpt>
<trkpt lat="35.0476836" lon="32.6279389">
<ele>1021.58</ele>
<time>2015-04-27T10:58:46Z</time>
</trkpt>
<trkpt lat="35.0476437" lon="32.6278792">
<ele>1021.13</ele>
<time>2015-04-27T10:58:49Z</time>
</trkpt>
<trkpt lat="35.0475883" lon="32.6278379">
<ele>1021.70</ele>
<time>2015-04-27T10:58:52Z</time>
</trkpt>
<trkpt lat="35.0475362" lon="32.6277935">
<ele>1021.15</ele>
<time>2015-04-27T10:58:55Z</time>
</trkpt>
<trkpt lat="35.0474805" lon="32.6277542">
<ele>1020.70</ele>
<time>2015-04-27T10:58:58Z</time>
</trkpt>
<trkpt lat="35.0474214" lon="32.6277371">
<ele>1022.52</ele>
<time>2015-04-27T10:59:01Z</time>
</trkpt>
<trkpt lat="35.0473705" lon="32.6277100">
<ele>1024.00</ele>
<time>2015-04-27T10:59:04Z</time>
</trkpt>
<trkpt lat="35.0473323" lon="32.6276778">
<ele>1025.06</ele>
<time>2015-04-27T10:59:07Z</time>
</trkpt>
<trkpt lat="35.0472885" lon="32.6276607">
<ele>1025.69</ele>
<time>2015-04-27T10:59:10Z</time>
</trkpt>
<trkpt lat="35.0472409" lon="32.6276402">
<ele>1024.27</ele>
<time>2015-04-27T10:59:13Z</time>
</trkpt>
<trkpt lat="35.0471927" lon="32.6276020">
<ele>1023.47</ele>
<time>2015-04-27T10:59:16Z</time>
</trkpt>
<trkpt lat="35.0471389" lon="32.6275672">
<ele>1022.99</ele>
<time>2015-04-27T10:59:19Z</time>
</trkpt>
<trkpt lat="35.0470833" lon="32.6275321">
<ele>1022.93</ele>
<time>2015-04-27T10:59:22Z</time>
</trkpt>
<trkpt lat="35.0470228" lon="32.6275113">
<ele>1022.93</ele>
<time>2015-04-27T10:59:25Z</time>
</trkpt>
<trkpt lat="35.0469666" lon="32.6274869">
<ele>1022.80</ele>
<time>2015-04-27T10:59:28Z</time>
</trkpt>
<trkpt lat="35.0469100" lon="32.6274823">
<ele>1022.91</ele>
<time>2015-04-27T10:59:31Z</time>
</trkpt>
<trkpt lat="35.0468522" lon="32.6274819">
<ele>1023.67</ele>
<time>2015-04-27T10:59:34Z</time>
</trkpt>
<trkpt lat="35.0467957" lon="32.6275096">
<ele>1023.89</ele>
<time>2015-04-27T10:59:37Z</time>
</trkpt>
<trkpt lat="35.0467356" lon="32.6275396">
<ele>1024.42</ele>
<time>2015-04-27T10:59:40Z</time>
</trkpt>
<trkpt lat="35.0466983" lon="32.6275707">
<ele>1024.80</ele>
<time>2015-04-27T10:59:42Z</time>
</trkpt>
<trkpt lat="35.0466618" lon="32.6276033">
<ele>1024.89</ele>
<time>2015-04-27T10:59:44Z</time>
</trkpt>
<trkpt lat="35.0466121" lon="32.6276548">
<ele>1024.92</ele>
<time>2015-04-27T10:59:47Z</time>
</trkpt>
<trkpt lat="35.0465643" lon="32.6277089">
<ele>1025.55</ele>
<time>2015-04-27T10:59:50Z</time>
</trkpt>
<trkpt lat="35.0465160" lon="32.6277650">
<ele>1025.88</ele>
<time>2015-04-27T10:59:53Z</time>
</trkpt>
<trkpt lat="35.0464859" lon="32.6278059">
<ele>1025.91</ele>
<time>2015-04-27T10:59:55Z</time>
</trkpt>
<trkpt lat="35.0464504" lon="32.6278757">
<ele>1025.17</ele>
<time>2015-04-27T10:59:58Z</time>
</trkpt>
<trkpt lat="35.0464078" lon="32.6279394">
<ele>1025.83</ele>
<time>2015-04-27T11:00:01Z</time>
</trkpt>
<trkpt lat="35.0463806" lon="32.6279838">
<ele>1025.15</ele>
<time>2015-04-27T11:00:03Z</time>
</trkpt>
<trkpt lat="35.0463498" lon="32.6280251">
<ele>1025.48</ele>
<time>2015-04-27T11:00:05Z</time>
</trkpt>
<trkpt lat="35.0463157" lon="32.6280631">
<ele>1026.56</ele>
<time>2015-04-27T11:00:07Z</time>
</trkpt>
<trkpt lat="35.0462859" lon="32.6281044">
<ele>1027.58</ele>
<time>2015-04-27T11:00:09Z</time>
</trkpt>
<trkpt lat="35.0462485" lon="32.6281381">
<ele>1027.59</ele>
<time>2015-04-27T11:00:11Z</time>
</trkpt>
<trkpt lat="35.0462069" lon="32.6281661">
<ele>1027.84</ele>
<time>2015-04-27T11:00:13Z</time>
</trkpt>
<trkpt lat="35.0461607" lon="32.6281930">
<ele>1027.90</ele>
<time>2015-04-27T11:00:15Z</time>
</trkpt>
<trkpt lat="35.0461084" lon="32.6282070">
<ele>1027.42</ele>
<time>2015-04-27T11:00:17Z</time>
</trkpt>
<trkpt lat="35.0460519" lon="32.6282008">
<ele>1027.05</ele>
<time>2015-04-27T11:00:19Z</time>
</trkpt>
<trkpt lat="35.0459962" lon="32.6281814">
<ele>1027.46</ele>
<time>2015-04-27T11:00:21Z</time>
</trkpt>
<trkpt lat="35.0459461" lon="32.6281554">
<ele>1027.06</ele>
<time>2015-04-27T11:00:23Z</time>
</trkpt>
<trkpt lat="35.0458993" lon="32.6281197">
<ele>1026.94</ele>
<time>2015-04-27T11:00:26Z</time>
</trkpt>
<trkpt lat="35.0458569" lon="32.6281009">
<ele>1026.93</ele>
<time>2015-04-27T11:00:29Z</time>
</trkpt>
<trkpt lat="35.0458107" lon="32.6280758">
<ele>1026.18</ele>
<time>2015-04-27T11:00:32Z</time>
</trkpt>
<trkpt lat="35.0457437" lon="32.6280558">
<ele>1025.96</ele>
<time>2015-04-27T11:00:35Z</time>
</trkpt>
<trkpt lat="35.0456916" lon="32.6280384">
<ele>1025.93</ele>
<time>2015-04-27T11:00:37Z</time>
</trkpt>
<trkpt lat="35.0456350" lon="32.6280320">
<ele>1025.93</ele>
<time>2015-04-27T11:00:39Z</time>
</trkpt>
<trkpt lat="35.0455778" lon="32.6280322">
<ele>1026.43</ele>
<time>2015-04-27T11:00:41Z</time>
</trkpt>
<trkpt lat="35.0455117" lon="32.6280349">
<ele>1026.55</ele>
<time>2015-04-27T11:00:43Z</time>
</trkpt>
<trkpt lat="35.0454407" lon="32.6280412">
<ele>1027.58</ele>
<time>2015-04-27T11:00:45Z</time>
</trkpt>
<trkpt lat="35.0453696" lon="32.6280520">
<ele>1027.84</ele>
<time>2015-04-27T11:00:47Z</time>
</trkpt>
<trkpt lat="35.0452995" lon="32.6280704">
<ele>1028.65</ele>
<time>2015-04-27T11:00:49Z</time>
</trkpt>
<trkpt lat="35.0452306" lon="32.6280935">
<ele>1027.36</ele>
<time>2015-04-27T11:00:51Z</time>
</trkpt>
<trkpt lat="35.0451609" lon="32.6281185">
<ele>1026.53</ele>
<time>2015-04-27T11:00:53Z</time>
</trkpt>
<trkpt lat="35.0450942" lon="32.6281624">
<ele>1025.08</ele>
<time>2015-04-27T11:00:55Z</time>
</trkpt>
<trkpt lat="35.0450307" lon="32.6282175">
<ele>1024.96</ele>
<time>2015-04-27T11:00:57Z</time>
</trkpt>
<trkpt lat="35.0449667" lon="32.6282757">
<ele>1024.93</ele>
<time>2015-04-27T11:00:59Z</time>
</trkpt>
<trkpt lat="35.0449010" lon="32.6283382">
<ele>1024.43</ele>
<time>2015-04-27T11:01:01Z</time>
</trkpt>
<trkpt lat="35.0448312" lon="32.6283821">
<ele>1025.55</ele>
<time>2015-04-27T11:01:03Z</time>
</trkpt>
<trkpt lat="35.0447512" lon="32.6284007">
<ele>1026.58</ele>
<time>2015-04-27T11:01:05Z</time>
</trkpt>
<trkpt lat="35.0446830" lon="32.6283947">
<ele>1026.25</ele>
<time>2015-04-27T11:01:06Z</time>
</trkpt>
<trkpt lat="35.0445925" lon="32.6284088">
<ele>1027.26</ele>
<time>2015-04-27T11:01:08Z</time>
</trkpt>
<trkpt lat="35.0445209" lon="32.6284154">
<ele>1027.01</ele>
<time>2015-04-27T11:01:10Z</time>
</trkpt>
<trkpt lat="35.0444579" lon="32.6284114">
<ele>1027.20</ele>
<time>2015-04-27T11:01:12Z</time>
</trkpt>
<trkpt lat="35.0444066" lon="32.6284143">
<ele>1027.74</ele>
<time>2015-04-27T11:01:14Z</time>
</trkpt>
<trkpt lat="35.0443410" lon="32.6284260">
<ele>1030.78</ele>
<time>2015-04-27T11:01:17Z</time>
</trkpt>
<trkpt lat="35.0442909" lon="32.6284297">
<ele>1032.14</ele>
<time>2015-04-27T11:01:19Z</time>
</trkpt>
<trkpt lat="35.0442355" lon="32.6284276">
<ele>1031.48</ele>
<time>2015-04-27T11:01:21Z</time>
</trkpt>
<trkpt lat="35.0441771" lon="32.6284215">
<ele>1029.06</ele>
<time>2015-04-27T11:01:23Z</time>
</trkpt>
<trkpt lat="35.0441119" lon="32.6284139">
<ele>1029.21</ele>
<time>2015-04-27T11:01:25Z</time>
</trkpt>
<trkpt lat="35.0440352" lon="32.6284084">
<ele>1028.25</ele>
<time>2015-04-27T11:01:27Z</time>
</trkpt>
<trkpt lat="35.0439601" lon="32.6284032">
<ele>1028.76</ele>
<time>2015-04-27T11:01:29Z</time>
</trkpt>
<trkpt lat="35.0438925" lon="32.6283742">
<ele>1026.13</ele>
<time>2015-04-27T11:01:31Z</time>
</trkpt>
<trkpt lat="35.0438302" lon="32.6283618">
<ele>1026.48</ele>
<time>2015-04-27T11:01:33Z</time>
</trkpt>
<trkpt lat="35.0437689" lon="32.6283602">
<ele>1026.06</ele>
<time>2015-04-27T11:01:35Z</time>
</trkpt>
<trkpt lat="35.0437031" lon="32.6283627">
<ele>1028.46</ele>
<time>2015-04-27T11:01:37Z</time>
</trkpt>
<trkpt lat="35.0436369" lon="32.6283608">
<ele>1030.31</ele>
<time>2015-04-27T11:01:39Z</time>
</trkpt>
<trkpt lat="35.0435683" lon="32.6283645">
<ele>1030.77</ele>
<time>2015-04-27T11:01:41Z</time>
</trkpt>
<trkpt lat="35.0434938" lon="32.6283872">
<ele>1030.14</ele>
<time>2015-04-27T11:01:43Z</time>
</trkpt>
<trkpt lat="35.0434199" lon="32.6284235">
<ele>1029.98</ele>
<time>2015-04-27T11:01:45Z</time>
</trkpt>
<trkpt lat="35.0433525" lon="32.6284790">
<ele>1029.69</ele>
<time>2015-04-27T11:01:47Z</time>
</trkpt>
<trkpt lat="35.0432908" lon="32.6285448">
<ele>1031.62</ele>
<time>2015-04-27T11:01:49Z</time>
</trkpt>
<trkpt lat="35.0432345" lon="32.6286104">
<ele>1033.10</ele>
<time>2015-04-27T11:01:51Z</time>
</trkpt>
<trkpt lat="35.0431799" lon="32.6286751">
<ele>1034.97</ele>
<time>2015-04-27T11:01:53Z</time>
</trkpt>
<trkpt lat="35.0431209" lon="32.6287294">
<ele>1035.69</ele>
<time>2015-04-27T11:01:55Z</time>
</trkpt>
<trkpt lat="35.0430630" lon="32.6287702">
<ele>1035.37</ele>
<time>2015-04-27T11:01:57Z</time>
</trkpt>
<trkpt lat="35.0430118" lon="32.6288137">
<ele>1035.04</ele>
<time>2015-04-27T11:01:59Z</time>
</trkpt>
<trkpt lat="35.0429607" lon="32.6288523">
<ele>1034.20</ele>
<time>2015-04-27T11:02:01Z</time>
</trkpt>
<trkpt lat="35.0429071" lon="32.6288808">
<ele>1033.49</ele>
<time>2015-04-27T11:02:03Z</time>
</trkpt>
<trkpt lat="35.0428546" lon="32.6289032">
<ele>1033.07</ele>
<time>2015-04-27T11:02:05Z</time>
</trkpt>
<trkpt lat="35.0428008" lon="32.6289321">
<ele>1033.71</ele>
<time>2015-04-27T11:02:07Z</time>
</trkpt>
<trkpt lat="35.0427482" lon="32.6289574">
<ele>1034.37</ele>
<time>2015-04-27T11:02:09Z</time>
</trkpt>
<trkpt lat="35.0426960" lon="32.6289889">
<ele>1035.29</ele>
<time>2015-04-27T11:02:11Z</time>
</trkpt>
<trkpt lat="35.0426440" lon="32.6290221">
<ele>1035.02</ele>
<time>2015-04-27T11:02:13Z</time>
</trkpt>
<trkpt lat="35.0425906" lon="32.6290411">
<ele>1034.20</ele>
<time>2015-04-27T11:02:15Z</time>
</trkpt>
<trkpt lat="35.0425382" lon="32.6290641">
<ele>1035.49</ele>
<time>2015-04-27T11:02:17Z</time>
</trkpt>
<trkpt lat="35.0424914" lon="32.6291015">
<ele>1036.57</ele>
<time>2015-04-27T11:02:19Z</time>
</trkpt>
<trkpt lat="35.0424404" lon="32.6291456">
<ele>1036.84</ele>
<time>2015-04-27T11:02:21Z</time>
</trkpt>
<trkpt lat="35.0423875" lon="32.6291948">
<ele>1035.65</ele>
<time>2015-04-27T11:02:23Z</time>
</trkpt>
<trkpt lat="35.0423347" lon="32.6292540">
<ele>1035.86</ele>
<time>2015-04-27T11:02:25Z</time>
</trkpt>
<trkpt lat="35.0422855" lon="32.6293078">
<ele>1037.41</ele>
<time>2015-04-27T11:02:27Z</time>
</trkpt>
<trkpt lat="35.0422427" lon="32.6293586">
<ele>1037.05</ele>
<time>2015-04-27T11:02:29Z</time>
</trkpt>
<trkpt lat="35.0421943" lon="32.6294029">
<ele>1036.21</ele>
<time>2015-04-27T11:02:31Z</time>
</trkpt>
<trkpt lat="35.0421450" lon="32.6294477">
<ele>1035.99</ele>
<time>2015-04-27T11:02:33Z</time>
</trkpt>
<trkpt lat="35.0420899" lon="32.6294864">
<ele>1036.44</ele>
<time>2015-04-27T11:02:35Z</time>
</trkpt>
<trkpt lat="35.0420252" lon="32.6295022">
<ele>1037.30</ele>
<time>2015-04-27T11:02:37Z</time>
</trkpt>
<trkpt lat="35.0419660" lon="32.6294740">
<ele>1038.27</ele>
<time>2015-04-27T11:02:39Z</time>
</trkpt>
<trkpt lat="35.0419170" lon="32.6294184">
<ele>1038.26</ele>
<time>2015-04-27T11:02:41Z</time>
</trkpt>
<trkpt lat="35.0418782" lon="32.6293550">
<ele>1038.51</ele>
<time>2015-04-27T11:02:43Z</time>
</trkpt>
<trkpt lat="35.0418579" lon="32.6292994">
<ele>1039.57</ele>
<time>2015-04-27T11:02:45Z</time>
</trkpt>
<trkpt lat="35.0418381" lon="32.6292481">
<ele>1039.84</ele>
<time>2015-04-27T11:02:47Z</time>
</trkpt>
<trkpt lat="35.0418111" lon="32.6291771">
<ele>1039.91</ele>
<time>2015-04-27T11:02:50Z</time>
</trkpt>
<trkpt lat="35.0417914" lon="32.6291248">
<ele>1040.67</ele>
<time>2015-04-27T11:02:54Z</time>
</trkpt>
<trkpt lat="35.0417559" lon="32.6290820">
<ele>1041.72</ele>
<time>2015-04-27T11:02:58Z</time>
</trkpt>
<trkpt lat="35.0417227" lon="32.6290188">
<ele>1043.60</ele>
<time>2015-04-27T11:03:02Z</time>
</trkpt>
<trkpt lat="35.0416834" lon="32.6289828">
<ele>1043.84</ele>
<time>2015-04-27T11:03:04Z</time>
</trkpt>
<trkpt lat="35.0416285" lon="32.6289443">
<ele>1043.90</ele>
<time>2015-04-27T11:03:06Z</time>
</trkpt>
<trkpt lat="35.0415553" lon="32.6289098">
<ele>1043.42</ele>
<time>2015-04-27T11:03:08Z</time>
</trkpt>
<trkpt lat="35.0414806" lon="32.6288991">
<ele>1043.80</ele>
<time>2015-04-27T11:03:10Z</time>
</trkpt>
<trkpt lat="35.0414087" lon="32.6289250">
<ele>1045.14</ele>
<time>2015-04-27T11:03:12Z</time>
</trkpt>
<trkpt lat="35.0413461" lon="32.6289722">
<ele>1045.73</ele>
<time>2015-04-27T11:03:14Z</time>
</trkpt>
<trkpt lat="35.0412885" lon="32.6290157">
<ele>1046.63</ele>
<time>2015-04-27T11:03:16Z</time>
</trkpt>
<trkpt lat="35.0412480" lon="32.6290460">
<ele>1044.93</ele>
<time>2015-04-27T11:04:06Z</time>
</trkpt>
<trkpt lat="35.0411952" lon="32.6290764">
<ele>1044.93</ele>
<time>2015-04-27T11:04:08Z</time>
</trkpt>
<trkpt lat="35.0411279" lon="32.6291068">
<ele>1044.93</ele>
<time>2015-04-27T11:04:10Z</time>
</trkpt>
<trkpt lat="35.0410542" lon="32.6291364">
<ele>1044.93</ele>
<time>2015-04-27T11:04:12Z</time>
</trkpt>
<trkpt lat="35.0409685" lon="32.6291702">
<ele>1044.93</ele>
<time>2015-04-27T11:04:14Z</time>
</trkpt>
<trkpt lat="35.0408845" lon="32.6292003">
<ele>1044.43</ele>
<time>2015-04-27T11:04:16Z</time>
</trkpt>
<trkpt lat="35.0407985" lon="32.6292291">
<ele>1044.05</ele>
<time>2015-04-27T11:04:18Z</time>
</trkpt>
<trkpt lat="35.0407374" lon="32.6292357">
<ele>1043.99</ele>
<time>2015-04-27T11:04:19Z</time>
</trkpt>
<trkpt lat="35.0406874" lon="32.6292536">
<ele>1043.96</ele>
<time>2015-04-27T11:04:20Z</time>
</trkpt>
<trkpt lat="35.0406415" lon="32.6292690">
<ele>1043.44</ele>
<time>2015-04-27T11:04:21Z</time>
</trkpt>
<trkpt lat="35.0405963" lon="32.6292835">
<ele>1043.18</ele>
<time>2015-04-27T11:04:22Z</time>
</trkpt>
<trkpt lat="35.0405508" lon="32.6292963">
<ele>1043.05</ele>
<time>2015-04-27T11:04:23Z</time>
</trkpt>
<trkpt lat="35.0404991" lon="32.6293073">
<ele>1042.99</ele>
<time>2015-04-27T11:04:24Z</time>
</trkpt>
<trkpt lat="35.0404497" lon="32.6293171">
<ele>1042.96</ele>
<time>2015-04-27T11:04:25Z</time>
</trkpt>
<trkpt lat="35.0403928" lon="32.6293319">
<ele>1043.44</ele>
<time>2015-04-27T11:04:26Z</time>
</trkpt>
<trkpt lat="35.0403395" lon="32.6293550">
<ele>1043.68</ele>
<time>2015-04-27T11:04:27Z</time>
</trkpt>
<trkpt lat="35.0402883" lon="32.6293768">
<ele>1043.80</ele>
<time>2015-04-27T11:04:28Z</time>
</trkpt>
<trkpt lat="35.0402406" lon="32.6294009">
<ele>1043.86</ele>
<time>2015-04-27T11:04:29Z</time>
</trkpt>
<trkpt lat="35.0401982" lon="32.6294294">
<ele>1043.39</ele>
<time>2015-04-27T11:04:30Z</time>
</trkpt>
<trkpt lat="35.0401525" lon="32.6294536">
<ele>1043.16</ele>
<time>2015-04-27T11:04:31Z</time>
</trkpt>
<trkpt lat="35.0400706" lon="32.6295039">
<ele>1042.98</ele>
<time>2015-04-27T11:04:33Z</time>
</trkpt>
<trkpt lat="35.0400277" lon="32.6295294">
<ele>1042.95</ele>
<time>2015-04-27T11:04:34Z</time>
</trkpt>
<trkpt lat="35.0399812" lon="32.6295476">
<ele>1043.44</ele>
<time>2015-04-27T11:04:35Z</time>
</trkpt>
<trkpt lat="35.0399364" lon="32.6295691">
<ele>1043.68</ele>
<time>2015-04-27T11:04:36Z</time>
</trkpt>
<trkpt lat="35.0398933" lon="32.6295902">
<ele>1043.80</ele>
<time>2015-04-27T11:04:37Z</time>
</trkpt>
<trkpt lat="35.0398126" lon="32.6296277">
<ele>1043.89</ele>
<time>2015-04-27T11:04:39Z</time>
</trkpt>
<trkpt lat="35.0397328" lon="32.6296675">
<ele>1044.67</ele>
<time>2015-04-27T11:04:41Z</time>
</trkpt>
<trkpt lat="35.0396492" lon="32.6296950">
<ele>1044.86</ele>
<time>2015-04-27T11:04:43Z</time>
</trkpt>
<trkpt lat="35.0396020" lon="32.6297054">
<ele>1044.89</ele>
<time>2015-04-27T11:04:44Z</time>
</trkpt>
<trkpt lat="35.0395544" lon="32.6297180">
<ele>1044.41</ele>
<time>2015-04-27T11:04:45Z</time>
</trkpt>
<trkpt lat="35.0395088" lon="32.6297415">
<ele>1044.67</ele>
<time>2015-04-27T11:04:46Z</time>
</trkpt>
<trkpt lat="35.0394175" lon="32.6297745">
<ele>1044.36</ele>
<time>2015-04-27T11:04:48Z</time>
</trkpt>
<trkpt lat="35.0393755" lon="32.6298032">
<ele>1044.64</ele>
<time>2015-04-27T11:04:49Z</time>
</trkpt>
<trkpt lat="35.0393103" lon="32.6298695">
<ele>1044.60</ele>
<time>2015-04-27T11:04:51Z</time>
</trkpt>
<trkpt lat="35.0392604" lon="32.6299412">
<ele>1044.84</ele>
<time>2015-04-27T11:04:53Z</time>
</trkpt>
<trkpt lat="35.0392330" lon="32.6299867">
<ele>1045.38</ele>
<time>2015-04-27T11:04:54Z</time>
</trkpt>
<trkpt lat="35.0391846" lon="32.6300807">
<ele>1045.79</ele>
<time>2015-04-27T11:04:56Z</time>
</trkpt>
<trkpt lat="35.0391576" lon="32.6301268">
<ele>1045.86</ele>
<time>2015-04-27T11:04:57Z</time>
</trkpt>
<trkpt lat="35.0391087" lon="32.6302043">
<ele>1046.66</ele>
<time>2015-04-27T11:04:59Z</time>
</trkpt>
<trkpt lat="35.0390686" lon="32.6302750">
<ele>1046.61</ele>
<time>2015-04-27T11:05:01Z</time>
</trkpt>
<trkpt lat="35.0390414" lon="32.6303519">
<ele>1047.35</ele>
<time>2015-04-27T11:05:03Z</time>
</trkpt>
<trkpt lat="35.0389990" lon="32.6304288">
<ele>1047.78</ele>
<time>2015-04-27T11:05:05Z</time>
</trkpt>
<trkpt lat="35.0389566" lon="32.6305105">
<ele>1047.39</ele>
<time>2015-04-27T11:05:07Z</time>
</trkpt>
<trkpt lat="35.0388969" lon="32.6305824">
<ele>1047.54</ele>
<time>2015-04-27T11:05:09Z</time>
</trkpt>
<trkpt lat="35.0388328" lon="32.6306393">
<ele>1047.83</ele>
<time>2015-04-27T11:05:11Z</time>
</trkpt>
<trkpt lat="35.0387569" lon="32.6306720">
<ele>1047.90</ele>
<time>2015-04-27T11:05:13Z</time>
</trkpt>
<trkpt lat="35.0386711" lon="32.6306981">
<ele>1047.92</ele>
<time>2015-04-27T11:05:15Z</time>
</trkpt>
<trkpt lat="35.0386155" lon="32.6307003">
<ele>1047.42</ele>
<time>2015-04-27T11:05:16Z</time>
</trkpt>
<trkpt lat="35.0385660" lon="32.6307191">
<ele>1047.17</ele>
<time>2015-04-27T11:05:17Z</time>
</trkpt>
<trkpt lat="35.0385199" lon="32.6307352">
<ele>1047.05</ele>
<time>2015-04-27T11:05:18Z</time>
</trkpt>
<trkpt lat="35.0384723" lon="32.6307512">
<ele>1047.49</ele>
<time>2015-04-27T11:05:19Z</time>
</trkpt>
<trkpt lat="35.0384296" lon="32.6307715">
<ele>1047.71</ele>
<time>2015-04-27T11:05:20Z</time>
</trkpt>
<trkpt lat="35.0383838" lon="32.6307864">
<ele>1047.82</ele>
<time>2015-04-27T11:05:21Z</time>
</trkpt>
<trkpt lat="35.0383013" lon="32.6308198">
<ele>1047.40</ele>
<time>2015-04-27T11:05:23Z</time>
</trkpt>
<trkpt lat="35.0382201" lon="32.6308384">
<ele>1047.79</ele>
<time>2015-04-27T11:05:25Z</time>
</trkpt>
<trkpt lat="35.0381393" lon="32.6308362">
<ele>1048.39</ele>
<time>2015-04-27T11:05:27Z</time>
</trkpt>
<trkpt lat="35.0380565" lon="32.6308056">
<ele>1049.29</ele>
<time>2015-04-27T11:05:29Z</time>
</trkpt>
<trkpt lat="35.0379774" lon="32.6307613">
<ele>1050.27</ele>
<time>2015-04-27T11:05:31Z</time>
</trkpt>
<trkpt lat="35.0379004" lon="32.6307094">
<ele>1050.76</ele>
<time>2015-04-27T11:05:33Z</time>
</trkpt>
<trkpt lat="35.0378291" lon="32.6306570">
<ele>1050.88</ele>
<time>2015-04-27T11:05:35Z</time>
</trkpt>
<trkpt lat="35.0377641" lon="32.6306273">
<ele>1050.91</ele>
<time>2015-04-27T11:05:37Z</time>
</trkpt>
<trkpt lat="35.0376943" lon="32.6306216">
<ele>1051.42</ele>
<time>2015-04-27T11:05:39Z</time>
</trkpt>
<trkpt lat="35.0376171" lon="32.6306322">
<ele>1051.80</ele>
<time>2015-04-27T11:05:41Z</time>
</trkpt>
<trkpt lat="35.0375382" lon="32.6306546">
<ele>1052.14</ele>
<time>2015-04-27T11:05:43Z</time>
</trkpt>
<trkpt lat="35.0374413" lon="32.6307178">
<ele>1051.98</ele>
<time>2015-04-27T11:05:45Z</time>
</trkpt>
<trkpt lat="35.0373993" lon="32.6307446">
<ele>1051.45</ele>
<time>2015-04-27T11:05:46Z</time>
</trkpt>
<trkpt lat="35.0373610" lon="32.6307782">
<ele>1051.19</ele>
<time>2015-04-27T11:05:47Z</time>
</trkpt>
<trkpt lat="35.0373290" lon="32.6308206">
<ele>1051.06</ele>
<time>2015-04-27T11:05:48Z</time>
</trkpt>
<trkpt lat="35.0372937" lon="32.6308554">
<ele>1050.49</ele>
<time>2015-04-27T11:05:49Z</time>
</trkpt>
<trkpt lat="35.0372594" lon="32.6309046">
<ele>1050.71</ele>
<time>2015-04-27T11:05:50Z</time>
</trkpt>
<trkpt lat="35.0372298" lon="32.6309495">
<ele>1050.32</ele>
<time>2015-04-27T11:05:51Z</time>
</trkpt>
<trkpt lat="35.0371976" lon="32.6309937">
<ele>1050.12</ele>
<time>2015-04-27T11:05:52Z</time>
</trkpt>
<trkpt lat="35.0371678" lon="32.6310434">
<ele>1050.02</ele>
<time>2015-04-27T11:05:53Z</time>
</trkpt>
<trkpt lat="35.0371404" lon="32.6310919">
<ele>1049.97</ele>
<time>2015-04-27T11:05:54Z</time>
</trkpt>
<trkpt lat="35.0371117" lon="32.6311465">
<ele>1049.95</ele>
<time>2015-04-27T11:05:55Z</time>
</trkpt>
<trkpt lat="35.0370847" lon="32.6312077">
<ele>1049.94</ele>
<time>2015-04-27T11:05:56Z</time>
</trkpt>
<trkpt lat="35.0370530" lon="32.6312677">
<ele>1049.93</ele>
<time>2015-04-27T11:05:57Z</time>
</trkpt>
<trkpt lat="35.0370262" lon="32.6313428">
<ele>1050.43</ele>
<time>2015-04-27T11:05:58Z</time>
</trkpt>
<trkpt lat="35.0369980" lon="32.6314123">
<ele>1050.68</ele>
<time>2015-04-27T11:05:59Z</time>
</trkpt>
<trkpt lat="35.0369675" lon="32.6314829">
<ele>1050.80</ele>
<time>2015-04-27T11:06:00Z</time>
</trkpt>
<trkpt lat="35.0369282" lon="32.6315397">
<ele>1050.86</ele>
<time>2015-04-27T11:06:01Z</time>
</trkpt>
<trkpt lat="35.0368738" lon="32.6315800">
<ele>1050.39</ele>
<time>2015-04-27T11:06:02Z</time>
</trkpt>
<trkpt lat="35.0368108" lon="32.6316086">
<ele>1050.16</ele>
<time>2015-04-27T11:06:03Z</time>
</trkpt>
<trkpt lat="35.0367457" lon="32.6316184">
<ele>1050.04</ele>
<time>2015-04-27T11:06:04Z</time>
</trkpt>
<trkpt lat="35.0366778" lon="32.6316316">
<ele>1049.48</ele>
<time>2015-04-27T11:06:05Z</time>
</trkpt>
<trkpt lat="35.0366067" lon="32.6316518">
<ele>1048.70</ele>
<time>2015-04-27T11:06:06Z</time>
</trkpt>
<trkpt lat="35.0365537" lon="32.6316970">
<ele>1048.81</ele>
<time>2015-04-27T11:06:07Z</time>
</trkpt>
<trkpt lat="35.0365102" lon="32.6317634">
<ele>1048.87</ele>
<time>2015-04-27T11:06:08Z</time>
</trkpt>
<trkpt lat="35.0364821" lon="32.6318420">
<ele>1048.90</ele>
<time>2015-04-27T11:06:09Z</time>
</trkpt>
<trkpt lat="35.0364652" lon="32.6319262">
<ele>1048.91</ele>
<time>2015-04-27T11:06:10Z</time>
</trkpt>
<trkpt lat="35.0364583" lon="32.6320170">
<ele>1048.92</ele>
<time>2015-04-27T11:06:11Z</time>
</trkpt>
<trkpt lat="35.0364557" lon="32.6321112">
<ele>1048.42</ele>
<time>2015-04-27T11:06:12Z</time>
</trkpt>
<trkpt lat="35.0364566" lon="32.6322114">
<ele>1048.17</ele>
<time>2015-04-27T11:06:13Z</time>
</trkpt>
<trkpt lat="35.0364558" lon="32.6323120">
<ele>1048.05</ele>
<time>2015-04-27T11:06:14Z</time>
</trkpt>
<trkpt lat="35.0364488" lon="32.6324072">
<ele>1047.49</ele>
<time>2015-04-27T11:06:15Z</time>
</trkpt>
<trkpt lat="35.0364291" lon="32.6324794">
<ele>1047.21</ele>
<time>2015-04-27T11:06:16Z</time>
</trkpt>
<trkpt lat="35.0363959" lon="32.6325342">
<ele>1047.07</ele>
<time>2015-04-27T11:06:17Z</time>
</trkpt>
<trkpt lat="35.0363493" lon="32.6325617">
<ele>1047.00</ele>
<time>2015-04-27T11:06:18Z</time>
</trkpt>
<trkpt lat="35.0362942" lon="32.6325652">
<ele>1046.96</ele>
<time>2015-04-27T11:06:19Z</time>
</trkpt>
<trkpt lat="35.0362410" lon="32.6325534">
<ele>1046.94</ele>
<time>2015-04-27T11:06:20Z</time>
</trkpt>
<trkpt lat="35.0361859" lon="32.6325420">
<ele>1046.93</ele>
<time>2015-04-27T11:06:21Z</time>
</trkpt>
<trkpt lat="35.0361287" lon="32.6325183">
<ele>1047.43</ele>
<time>2015-04-27T11:06:22Z</time>
</trkpt>
<trkpt lat="35.0360711" lon="32.6324968">
<ele>1047.68</ele>
<time>2015-04-27T11:06:23Z</time>
</trkpt>
<trkpt lat="35.0360054" lon="32.6324728">
<ele>1047.80</ele>
<time>2015-04-27T11:06:24Z</time>
</trkpt>
<trkpt lat="35.0359422" lon="32.6324503">
<ele>1047.36</ele>
<time>2015-04-27T11:06:25Z</time>
</trkpt>
<trkpt lat="35.0358693" lon="32.6324379">
<ele>1047.14</ele>
<time>2015-04-27T11:06:26Z</time>
</trkpt>
<trkpt lat="35.0357952" lon="32.6324401">
<ele>1047.03</ele>
<time>2015-04-27T11:06:27Z</time>
</trkpt>
<trkpt lat="35.0357180" lon="32.6324415">
<ele>1045.98</ele>
<time>2015-04-27T11:06:28Z</time>
</trkpt>
<trkpt lat="35.0356383" lon="32.6324623">
<ele>1044.95</ele>
<time>2015-04-27T11:06:29Z</time>
</trkpt>
<trkpt lat="35.0355556" lon="32.6324731">
<ele>1044.44</ele>
<time>2015-04-27T11:06:30Z</time>
</trkpt>
<trkpt lat="35.0354756" lon="32.6324983">
<ele>1043.68</ele>
<time>2015-04-27T11:06:31Z</time>
</trkpt>
<trkpt lat="35.0354036" lon="32.6325262">
<ele>1043.80</ele>
<time>2015-04-27T11:06:32Z</time>
</trkpt>
<trkpt lat="35.0353310" lon="32.6325666">
<ele>1043.36</ele>
<time>2015-04-27T11:06:33Z</time>
</trkpt>
<trkpt lat="35.0352764" lon="32.6326398">
<ele>1043.14</ele>
<time>2015-04-27T11:06:34Z</time>
</trkpt>
<trkpt lat="35.0352369" lon="32.6327229">
<ele>1042.53</ele>
<time>2015-04-27T11:06:35Z</time>
</trkpt>
<trkpt lat="35.0352264" lon="32.6328219">
<ele>1041.73</ele>
<time>2015-04-27T11:06:36Z</time>
</trkpt>
<trkpt lat="35.0352480" lon="32.6329160">
<ele>1041.33</ele>
<time>2015-04-27T11:06:37Z</time>
</trkpt>
<trkpt lat="35.0352554" lon="32.6330075">
<ele>1040.63</ele>
<time>2015-04-27T11:06:38Z</time>
</trkpt>
<trkpt lat="35.0352429" lon="32.6330978">
<ele>1039.78</ele>
<time>2015-04-27T11:06:39Z</time>
</trkpt>
<trkpt lat="35.0352080" lon="32.6331771">
<ele>1038.85</ele>
<time>2015-04-27T11:06:40Z</time>
</trkpt>
<trkpt lat="35.0351557" lon="32.6332314">
<ele>1038.39</ele>
<time>2015-04-27T11:06:41Z</time>
</trkpt>
<trkpt lat="35.0350959" lon="32.6332770">
<ele>1037.66</ele>
<time>2015-04-27T11:06:42Z</time>
</trkpt>
<trkpt lat="35.0350231" lon="32.6333038">
<ele>1037.29</ele>
<time>2015-04-27T11:06:43Z</time>
</trkpt>
<trkpt lat="35.0349460" lon="32.6333141">
<ele>1037.11</ele>
<time>2015-04-27T11:06:44Z</time>
</trkpt>
<trkpt lat="35.0348687" lon="32.6333212">
<ele>1036.52</ele>
<time>2015-04-27T11:06:45Z</time>
</trkpt>
<trkpt lat="35.0347866" lon="32.6333326">
<ele>1035.72</ele>
<time>2015-04-27T11:06:46Z</time>
</trkpt>
<trkpt lat="35.0346990" lon="32.6333489">
<ele>1035.32</ele>
<time>2015-04-27T11:06:47Z</time>
</trkpt>
<trkpt lat="35.0346063" lon="32.6333753">
<ele>1035.12</ele>
<time>2015-04-27T11:06:48Z</time>
</trkpt>
<trkpt lat="35.0345273" lon="32.6334114">
<ele>1035.02</ele>
<time>2015-04-27T11:06:49Z</time>
</trkpt>
<trkpt lat="35.0344512" lon="32.6334490">
<ele>1034.97</ele>
<time>2015-04-27T11:06:50Z</time>
</trkpt>
<trkpt lat="35.0343790" lon="32.6334867">
<ele>1034.95</ele>
<time>2015-04-27T11:06:51Z</time>
</trkpt>
<trkpt lat="35.0343047" lon="32.6335215">
<ele>1034.94</ele>
<time>2015-04-27T11:06:52Z</time>
</trkpt>
<trkpt lat="35.0342283" lon="32.6335513">
<ele>1034.43</ele>
<time>2015-04-27T11:06:53Z</time>
</trkpt>
<trkpt lat="35.0341582" lon="32.6335921">
<ele>1034.18</ele>
<time>2015-04-27T11:06:54Z</time>
</trkpt>
<trkpt lat="35.0340932" lon="32.6336244">
<ele>1034.05</ele>
<time>2015-04-27T11:06:55Z</time>
</trkpt>
<trkpt lat="35.0340358" lon="32.6336696">
<ele>1033.99</ele>
<time>2015-04-27T11:06:56Z</time>
</trkpt>
<trkpt lat="35.0339917" lon="32.6337216">
<ele>1033.46</ele>
<time>2015-04-27T11:06:57Z</time>
</trkpt>
<trkpt lat="35.0339721" lon="32.6337938">
<ele>1033.19</ele>
<time>2015-04-27T11:06:58Z</time>
</trkpt>
<trkpt lat="35.0339586" lon="32.6338722">
<ele>1033.06</ele>
<time>2015-04-27T11:06:59Z</time>
</trkpt>
<trkpt lat="35.0339512" lon="32.6339555">
<ele>1032.99</ele>
<time>2015-04-27T11:07:00Z</time>
</trkpt>
<trkpt lat="35.0339380" lon="32.6340371">
<ele>1032.46</ele>
<time>2015-04-27T11:07:01Z</time>
</trkpt>
<trkpt lat="35.0339363" lon="32.6341215">
<ele>1032.19</ele>
<time>2015-04-27T11:07:02Z</time>
</trkpt>
<trkpt lat="35.0339332" lon="32.6342022">
<ele>1032.06</ele>
<time>2015-04-27T11:07:03Z</time>
</trkpt>
<trkpt lat="35.0339340" lon="32.6342832">
<ele>1031.99</ele>
<time>2015-04-27T11:07:04Z</time>
</trkpt>
<trkpt lat="35.0339384" lon="32.6343651">
<ele>1031.96</ele>
<time>2015-04-27T11:07:05Z</time>
</trkpt>
<trkpt lat="35.0339417" lon="32.6344431">
<ele>1031.94</ele>
<time>2015-04-27T11:07:06Z</time>
</trkpt>
<trkpt lat="35.0339380" lon="32.6345269">
<ele>1031.93</ele>
<time>2015-04-27T11:07:07Z</time>
</trkpt>
<trkpt lat="35.0339364" lon="32.6346065">
<ele>1032.43</ele>
<time>2015-04-27T11:07:08Z</time>
</trkpt>
<trkpt lat="35.0339391" lon="32.6346801">
<ele>1032.68</ele>
<time>2015-04-27T11:07:09Z</time>
</trkpt>
<trkpt lat="35.0339296" lon="32.6347606">
<ele>1032.80</ele>
<time>2015-04-27T11:07:10Z</time>
</trkpt>
<trkpt lat="35.0339193" lon="32.6348338">
<ele>1032.36</ele>
<time>2015-04-27T11:07:11Z</time>
</trkpt>
<trkpt lat="35.0338982" lon="32.6348979">
<ele>1032.14</ele>
<time>2015-04-27T11:07:12Z</time>
</trkpt>
<trkpt lat="35.0338684" lon="32.6349521">
<ele>1031.53</ele>
<time>2015-04-27T11:07:13Z</time>
</trkpt>
<trkpt lat="35.0338278" lon="32.6349908">
<ele>1030.73</ele>
<time>2015-04-27T11:07:14Z</time>
</trkpt>
<trkpt lat="35.0337872" lon="32.6350150">
<ele>1029.83</ele>
<time>2015-04-27T11:07:15Z</time>
</trkpt>
<trkpt lat="35.0337420" lon="32.6350354">
<ele>1029.38</ele>
<time>2015-04-27T11:07:16Z</time>
</trkpt>
<trkpt lat="35.0336633" lon="32.6350449">
<ele>1029.04</ele>
<time>2015-04-27T11:07:18Z</time>
</trkpt>
<trkpt lat="35.0335910" lon="32.6350315">
<ele>1028.95</ele>
<time>2015-04-27T11:07:20Z</time>
</trkpt>
<trkpt lat="35.0335305" lon="32.6350278">
<ele>1030.18</ele>
<time>2015-04-27T11:07:22Z</time>
</trkpt>
<trkpt lat="35.0334726" lon="32.6350340">
<ele>1030.74</ele>
<time>2015-04-27T11:07:24Z</time>
</trkpt>
<trkpt lat="35.0334251" lon="32.6350462">
<ele>1031.13</ele>
<time>2015-04-27T11:07:26Z</time>
</trkpt>
<trkpt lat="35.0333670" lon="32.6350526">
<ele>1032.23</ele>
<time>2015-04-27T11:07:28Z</time>
</trkpt>
<trkpt lat="35.0333130" lon="32.6350549">
<ele>1035.00</ele>
<time>2015-04-27T11:07:30Z</time>
</trkpt>
<trkpt lat="35.0332578" lon="32.6350604">
<ele>1037.19</ele>
<time>2015-04-27T11:07:32Z</time>
</trkpt>
<trkpt lat="35.0332020" lon="32.6350722">
<ele>1038.24</ele>
<time>2015-04-27T11:07:34Z</time>
</trkpt>
<trkpt lat="35.0331493" lon="32.6350799">
<ele>1039.09</ele>
<time>2015-04-27T11:07:37Z</time>
</trkpt>
<trkpt lat="35.0330940" lon="32.6350682">
<ele>1039.31</ele>
<time>2015-04-27T11:07:42Z</time>
</trkpt>
<trkpt lat="35.0330483" lon="32.6350808">
<ele>1046.30</ele>
<time>2015-04-27T11:09:53Z</time>
</trkpt>
<trkpt lat="35.0330946" lon="32.6350851">
<ele>1038.93</ele>
<time>2015-04-27T11:16:34Z</time>
</trkpt>
<trkpt lat="35.0331016" lon="32.6351399">
<ele>1042.17</ele>
<time>2015-04-27T11:20:17Z</time>
</trkpt>
<trkpt lat="35.0330853" lon="32.6352101">
<ele>1042.82</ele>
<time>2015-04-27T11:20:21Z</time>
</trkpt>
<trkpt lat="35.0330818" lon="32.6352755">
<ele>1042.91</ele>
<time>2015-04-27T11:20:24Z</time>
</trkpt>
<trkpt lat="35.0330937" lon="32.6353379">
<ele>1043.67</ele>
<time>2015-04-27T11:20:27Z</time>
</trkpt>
<trkpt lat="35.0330952" lon="32.6354012">
<ele>1043.77</ele>
<time>2015-04-27T11:20:30Z</time>
</trkpt>
<trkpt lat="35.0330983" lon="32.6354622">
<ele>1043.91</ele>
<time>2015-04-27T11:20:33Z</time>
</trkpt>
<trkpt lat="35.0330966" lon="32.6355217">
<ele>1044.42</ele>
<time>2015-04-27T11:20:36Z</time>
</trkpt>
<trkpt lat="35.0330761" lon="32.6355788">
<ele>1045.36</ele>
<time>2015-04-27T11:20:39Z</time>
</trkpt>
<trkpt lat="35.0330721" lon="32.6356370">
<ele>1045.85</ele>
<time>2015-04-27T11:20:42Z</time>
</trkpt>
<trkpt lat="35.0330731" lon="32.6357071">
<ele>1045.92</ele>
<time>2015-04-27T11:20:46Z</time>
</trkpt>
<trkpt lat="35.0330614" lon="32.6357784">
<ele>1046.42</ele>
<time>2015-04-27T11:20:50Z</time>
</trkpt>
<trkpt lat="35.0330539" lon="32.6358423">
<ele>1045.96</ele>
<time>2015-04-27T11:20:54Z</time>
</trkpt>
<trkpt lat="35.0330451" lon="32.6359030">
<ele>1045.93</ele>
<time>2015-04-27T11:20:58Z</time>
</trkpt>
<trkpt lat="35.0330517" lon="32.6359664">
<ele>1046.68</ele>
<time>2015-04-27T11:21:02Z</time>
</trkpt>
<trkpt lat="35.0330547" lon="32.6360283">
<ele>1045.97</ele>
<time>2015-04-27T11:21:06Z</time>
</trkpt>
<trkpt lat="35.0330708" lon="32.6360902">
<ele>1046.80</ele>
<time>2015-04-27T11:21:10Z</time>
</trkpt>
<trkpt lat="35.0330844" lon="32.6361541">
<ele>1046.92</ele>
<time>2015-04-27T11:21:14Z</time>
</trkpt>
<trkpt lat="35.0331025" lon="32.6362188">
<ele>1046.92</ele>
<time>2015-04-27T11:21:18Z</time>
</trkpt>
<trkpt lat="35.0331234" lon="32.6362787">
<ele>1047.80</ele>
<time>2015-04-27T11:21:22Z</time>
</trkpt>
<trkpt lat="35.0331486" lon="32.6363371">
<ele>1047.92</ele>
<time>2015-04-27T11:21:26Z</time>
</trkpt>
<trkpt lat="35.0331601" lon="32.6363953">
<ele>1047.92</ele>
<time>2015-04-27T11:21:30Z</time>
</trkpt>
<trkpt lat="35.0331638" lon="32.6364544">
<ele>1047.92</ele>
<time>2015-04-27T11:21:34Z</time>
</trkpt>
<trkpt lat="35.0331690" lon="32.6365134">
<ele>1047.93</ele>
<time>2015-04-27T11:21:38Z</time>
</trkpt>
<trkpt lat="35.0331682" lon="32.6365763">
<ele>1047.93</ele>
<time>2015-04-27T11:21:42Z</time>
</trkpt>
<trkpt lat="35.0331710" lon="32.6366375">
<ele>1048.80</ele>
<time>2015-04-27T11:21:46Z</time>
</trkpt>
<trkpt lat="35.0331532" lon="32.6366943">
<ele>1048.92</ele>
<time>2015-04-27T11:21:50Z</time>
</trkpt>
<trkpt lat="35.0331470" lon="32.6367566">
<ele>1049.17</ele>
<time>2015-04-27T11:21:54Z</time>
</trkpt>
<trkpt lat="35.0331282" lon="32.6368161">
<ele>1048.94</ele>
<time>2015-04-27T11:21:58Z</time>
</trkpt>
<trkpt lat="35.0331019" lon="32.6368754">
<ele>1048.93</ele>
<time>2015-04-27T11:22:02Z</time>
</trkpt>
<trkpt lat="35.0330744" lon="32.6369356">
<ele>1049.86</ele>
<time>2015-04-27T11:22:06Z</time>
</trkpt>
<trkpt lat="35.0330477" lon="32.6369959">
<ele>1049.92</ele>
<time>2015-04-27T11:22:10Z</time>
</trkpt>
<trkpt lat="35.0330265" lon="32.6370570">
<ele>1050.86</ele>
<time>2015-04-27T11:22:14Z</time>
</trkpt>
<trkpt lat="35.0329987" lon="32.6371117">
<ele>1051.67</ele>
<time>2015-04-27T11:22:17Z</time>
</trkpt>
<trkpt lat="35.0329655" lon="32.6371637">
<ele>1052.42</ele>
<time>2015-04-27T11:22:22Z</time>
</trkpt>
<trkpt lat="35.0329465" lon="32.6372170">
<ele>1052.89</ele>
<time>2015-04-27T11:22:26Z</time>
</trkpt>
<trkpt lat="35.0329313" lon="32.6372711">
<ele>1053.30</ele>
<time>2015-04-27T11:22:29Z</time>
</trkpt>
<trkpt lat="35.0329122" lon="32.6373289">
<ele>1053.85</ele>
<time>2015-04-27T11:22:32Z</time>
</trkpt>
<trkpt lat="35.0328985" lon="32.6373887">
<ele>1055.17</ele>
<time>2015-04-27T11:22:35Z</time>
</trkpt>
<trkpt lat="35.0328961" lon="32.6374492">
<ele>1055.83</ele>
<time>2015-04-27T11:22:38Z</time>
</trkpt>
<trkpt lat="35.0328958" lon="32.6375100">
<ele>1056.41</ele>
<time>2015-04-27T11:22:41Z</time>
</trkpt>
<trkpt lat="35.0328960" lon="32.6375676">
<ele>1057.36</ele>
<time>2015-04-27T11:22:44Z</time>
</trkpt>
<trkpt lat="35.0328975" lon="32.6376302">
<ele>1057.91</ele>
<time>2015-04-27T11:22:49Z</time>
</trkpt>
<trkpt lat="35.0328971" lon="32.6376933">
<ele>1057.92</ele>
<time>2015-04-27T11:22:55Z</time>
</trkpt>
<trkpt lat="35.0329119" lon="32.6377562">
<ele>1059.36</ele>
<time>2015-04-27T11:23:00Z</time>
</trkpt>
<trkpt lat="35.0329369" lon="32.6378132">
<ele>1060.84</ele>
<time>2015-04-27T11:23:05Z</time>
</trkpt>
<trkpt lat="35.0329626" lon="32.6378590">
<ele>1060.92</ele>
<time>2015-04-27T11:23:09Z</time>
</trkpt>
<trkpt lat="35.0329949" lon="32.6379138">
<ele>1061.74</ele>
<time>2015-04-27T11:23:14Z</time>
</trkpt>
<trkpt lat="35.0330144" lon="32.6379647">
<ele>1062.85</ele>
<time>2015-04-27T11:23:18Z</time>
</trkpt>
<trkpt lat="35.0330392" lon="32.6380131">
<ele>1062.92</ele>
<time>2015-04-27T11:23:22Z</time>
</trkpt>
<trkpt lat="35.0330640" lon="32.6380633">
<ele>1063.80</ele>
<time>2015-04-27T11:23:26Z</time>
</trkpt>
<trkpt lat="35.0330974" lon="32.6381183">
<ele>1063.92</ele>
<time>2015-04-27T11:23:31Z</time>
</trkpt>
<trkpt lat="35.0331316" lon="32.6381685">
<ele>1063.67</ele>
<time>2015-04-27T11:23:35Z</time>
</trkpt>
<trkpt lat="35.0331622" lon="32.6382092">
<ele>1065.03</ele>
<time>2015-04-27T11:23:39Z</time>
</trkpt>
<trkpt lat="35.0332027" lon="32.6382510">
<ele>1064.96</ele>
<time>2015-04-27T11:23:44Z</time>
</trkpt>
<trkpt lat="35.0332452" lon="32.6382741">
<ele>1064.68</ele>
<time>2015-04-27T11:23:48Z</time>
</trkpt>
<trkpt lat="35.0332934" lon="32.6382943">
<ele>1064.85</ele>
<time>2015-04-27T11:23:52Z</time>
</trkpt>
<trkpt lat="35.0333381" lon="32.6383160">
<ele>1065.86</ele>
<time>2015-04-27T11:23:56Z</time>
</trkpt>
<trkpt lat="35.0333869" lon="32.6383114">
<ele>1065.98</ele>
<time>2015-04-27T11:24:00Z</time>
</trkpt>
<trkpt lat="35.0334405" lon="32.6382985">
<ele>1066.90</ele>
<time>2015-04-27T11:24:05Z</time>
</trkpt>
<trkpt lat="35.0334869" lon="32.6382795">
<ele>1067.39</ele>
<time>2015-04-27T11:24:10Z</time>
</trkpt>
<trkpt lat="35.0335377" lon="32.6382967">
<ele>1067.44</ele>
<time>2015-04-27T11:24:15Z</time>
</trkpt>
<trkpt lat="35.0335894" lon="32.6382848">
<ele>1067.89</ele>
<time>2015-04-27T11:24:19Z</time>
</trkpt>
<trkpt lat="35.0336317" lon="32.6382658">
<ele>1068.67</ele>
<time>2015-04-27T11:24:22Z</time>
</trkpt>
<trkpt lat="35.0336884" lon="32.6382554">
<ele>1069.85</ele>
<time>2015-04-27T11:24:26Z</time>
</trkpt>
<trkpt lat="35.0337517" lon="32.6382563">
<ele>1069.92</ele>
<time>2015-04-27T11:24:30Z</time>
</trkpt>
<trkpt lat="35.0338066" lon="32.6382735">
<ele>1070.17</ele>
<time>2015-04-27T11:24:33Z</time>
</trkpt>
<trkpt lat="35.0338569" lon="32.6382955">
<ele>1069.96</ele>
<time>2015-04-27T11:24:36Z</time>
</trkpt>
<trkpt lat="35.0339036" lon="32.6383208">
<ele>1070.55</ele>
<time>2015-04-27T11:24:39Z</time>
</trkpt>
<trkpt lat="35.0339453" lon="32.6383546">
<ele>1070.04</ele>
<time>2015-04-27T11:24:44Z</time>
</trkpt>
<trkpt lat="35.0339860" lon="32.6383905">
<ele>1068.96</ele>
<time>2015-04-27T11:24:49Z</time>
</trkpt>
<trkpt lat="35.0340235" lon="32.6384307">
<ele>1068.05</ele>
<time>2015-04-27T11:24:53Z</time>
</trkpt>
<trkpt lat="35.0340598" lon="32.6384731">
<ele>1068.82</ele>
<time>2015-04-27T11:24:56Z</time>
</trkpt>
<trkpt lat="35.0341056" lon="32.6385103">
<ele>1069.79</ele>
<time>2015-04-27T11:24:59Z</time>
</trkpt>
<trkpt lat="35.0341476" lon="32.6385512">
<ele>1070.03</ele>
<time>2015-04-27T11:25:02Z</time>
</trkpt>
<trkpt lat="35.0341906" lon="32.6385936">
<ele>1070.06</ele>
<time>2015-04-27T11:25:05Z</time>
</trkpt>
<trkpt lat="35.0342268" lon="32.6386351">
<ele>1069.94</ele>
<time>2015-04-27T11:25:08Z</time>
</trkpt>
<trkpt lat="35.0342634" lon="32.6386820">
<ele>1069.30</ele>
<time>2015-04-27T11:25:12Z</time>
</trkpt>
<trkpt lat="35.0342994" lon="32.6387217">
<ele>1069.39</ele>
<time>2015-04-27T11:25:16Z</time>
</trkpt>
<trkpt lat="35.0343363" lon="32.6387648">
<ele>1068.45</ele>
<time>2015-04-27T11:25:20Z</time>
</trkpt>
<trkpt lat="35.0343776" lon="32.6388022">
<ele>1067.96</ele>
<time>2015-04-27T11:25:24Z</time>
</trkpt>
<trkpt lat="35.0344196" lon="32.6388334">
<ele>1067.89</ele>
<time>2015-04-27T11:25:29Z</time>
</trkpt>
<trkpt lat="35.0344646" lon="32.6388540">
<ele>1068.86</ele>
<time>2015-04-27T11:25:33Z</time>
</trkpt>
<trkpt lat="35.0345195" lon="32.6388567">
<ele>1070.61</ele>
<time>2015-04-27T11:25:37Z</time>
</trkpt>
<trkpt lat="35.0345694" lon="32.6388485">
<ele>1072.66</ele>
<time>2015-04-27T11:25:41Z</time>
</trkpt>
<trkpt lat="35.0346200" lon="32.6388534">
<ele>1074.47</ele>
<time>2015-04-27T11:25:47Z</time>
</trkpt>
<trkpt lat="35.0346686" lon="32.6388466">
<ele>1074.44</ele>
<time>2015-04-27T11:25:52Z</time>
</trkpt>
<trkpt lat="35.0347135" lon="32.6388563">
<ele>1075.61</ele>
<time>2015-04-27T11:25:55Z</time>
</trkpt>
<trkpt lat="35.0347583" lon="32.6388654">
<ele>1077.14</ele>
<time>2015-04-27T11:25:58Z</time>
</trkpt>
<trkpt lat="35.0348057" lon="32.6388764">
<ele>1076.83</ele>
<time>2015-04-27T11:26:01Z</time>
</trkpt>
<trkpt lat="35.0348525" lon="32.6388827">
<ele>1077.04</ele>
<time>2015-04-27T11:26:04Z</time>
</trkpt>
<trkpt lat="35.0348975" lon="32.6388903">
<ele>1076.44</ele>
<time>2015-04-27T11:26:07Z</time>
</trkpt>
<trkpt lat="35.0349501" lon="32.6389104">
<ele>1076.39</ele>
<time>2015-04-27T11:26:11Z</time>
</trkpt>
<trkpt lat="35.0349930" lon="32.6389341">
<ele>1078.14</ele>
<time>2015-04-27T11:26:15Z</time>
</trkpt>
<trkpt lat="35.0350332" lon="32.6389602">
<ele>1080.56</ele>
<time>2015-04-27T11:26:19Z</time>
</trkpt>
<trkpt lat="35.0350803" lon="32.6389736">
<ele>1080.84</ele>
<time>2015-04-27T11:26:23Z</time>
</trkpt>
<trkpt lat="35.0351305" lon="32.6389957">
<ele>1082.79</ele>
<time>2015-04-27T11:26:27Z</time>
</trkpt>
<trkpt lat="35.0351756" lon="32.6390408">
<ele>1082.29</ele>
<time>2015-04-27T11:26:31Z</time>
</trkpt>
<trkpt lat="35.0352170" lon="32.6390916">
<ele>1081.01</ele>
<time>2015-04-27T11:26:35Z</time>
</trkpt>
<trkpt lat="35.0352437" lon="32.6391389">
<ele>1081.81</ele>
<time>2015-04-27T11:26:38Z</time>
</trkpt>
<trkpt lat="35.0352682" lon="32.6391895">
<ele>1081.91</ele>
<time>2015-04-27T11:26:41Z</time>
</trkpt>
<trkpt lat="35.0352936" lon="32.6392393">
<ele>1082.67</ele>
<time>2015-04-27T11:26:44Z</time>
</trkpt>
<trkpt lat="35.0353063" lon="32.6392947">
<ele>1083.14</ele>
<time>2015-04-27T11:26:47Z</time>
</trkpt>
<trkpt lat="35.0353234" lon="32.6393608">
<ele>1083.88</ele>
<time>2015-04-27T11:26:51Z</time>
</trkpt>
<trkpt lat="35.0353501" lon="32.6394153">
<ele>1083.86</ele>
<time>2015-04-27T11:26:55Z</time>
</trkpt>
<trkpt lat="35.0353674" lon="32.6394762">
<ele>1084.80</ele>
<time>2015-04-27T11:26:59Z</time>
</trkpt>
<trkpt lat="35.0353917" lon="32.6395351">
<ele>1084.92</ele>
<time>2015-04-27T11:27:03Z</time>
</trkpt>
<trkpt lat="35.0354180" lon="32.6395946">
<ele>1085.80</ele>
<time>2015-04-27T11:27:07Z</time>
</trkpt>
<trkpt lat="35.0354339" lon="32.6396543">
<ele>1086.79</ele>
<time>2015-04-27T11:27:11Z</time>
</trkpt>
<trkpt lat="35.0354471" lon="32.6397196">
<ele>1087.85</ele>
<time>2015-04-27T11:27:15Z</time>
</trkpt>
<trkpt lat="35.0354383" lon="32.6397910">
<ele>1087.92</ele>
<time>2015-04-27T11:27:19Z</time>
</trkpt>
<trkpt lat="35.0354144" lon="32.6398440">
<ele>1088.42</ele>
<time>2015-04-27T11:27:22Z</time>
</trkpt>
<trkpt lat="35.0353683" lon="32.6398926">
<ele>1087.99</ele>
<time>2015-04-27T11:27:25Z</time>
</trkpt>
<trkpt lat="35.0353177" lon="32.6399340">
<ele>1088.06</ele>
<time>2015-04-27T11:27:28Z</time>
</trkpt>
<trkpt lat="35.0352773" lon="32.6399709">
<ele>1088.68</ele>
<time>2015-04-27T11:27:32Z</time>
</trkpt>
<trkpt lat="35.0352308" lon="32.6399993">
<ele>1088.04</ele>
<time>2015-04-27T11:27:37Z</time>
</trkpt>
<trkpt lat="35.0351888" lon="32.6400226">
<ele>1087.18</ele>
<time>2015-04-27T11:27:41Z</time>
</trkpt>
<trkpt lat="35.0351426" lon="32.6400474">
<ele>1086.00</ele>
<time>2015-04-27T11:27:45Z</time>
</trkpt>
<trkpt lat="35.0351017" lon="32.6400846">
<ele>1085.93</ele>
<time>2015-04-27T11:27:49Z</time>
</trkpt>
<trkpt lat="35.0350622" lon="32.6401240">
<ele>1085.49</ele>
<time>2015-04-27T11:27:53Z</time>
</trkpt>
<trkpt lat="35.0350312" lon="32.6401696">
<ele>1085.90</ele>
<time>2015-04-27T11:27:57Z</time>
</trkpt>
<trkpt lat="35.0349965" lon="32.6402135">
<ele>1088.74</ele>
<time>2015-04-27T11:28:01Z</time>
</trkpt>
<trkpt lat="35.0349512" lon="32.6402514">
<ele>1089.73</ele>
<time>2015-04-27T11:28:05Z</time>
</trkpt>
<trkpt lat="35.0348994" lon="32.6402821">
<ele>1090.28</ele>
<time>2015-04-27T11:28:08Z</time>
</trkpt>
<trkpt lat="35.0348608" lon="32.6403168">
<ele>1090.84</ele>
<time>2015-04-27T11:28:11Z</time>
</trkpt>
<trkpt lat="35.0348198" lon="32.6403602">
<ele>1091.61</ele>
<time>2015-04-27T11:28:15Z</time>
</trkpt>
<trkpt lat="35.0347688" lon="32.6403838">
<ele>1091.89</ele>
<time>2015-04-27T11:28:18Z</time>
</trkpt>
<trkpt lat="35.0347231" lon="32.6404055">
<ele>1091.92</ele>
<time>2015-04-27T11:28:21Z</time>
</trkpt>
<trkpt lat="35.0346765" lon="32.6404296">
<ele>1092.05</ele>
<time>2015-04-27T11:28:24Z</time>
</trkpt>
<trkpt lat="35.0346251" lon="32.6404665">
<ele>1092.87</ele>
<time>2015-04-27T11:28:28Z</time>
</trkpt>
<trkpt lat="35.0345908" lon="32.6405079">
<ele>1093.42</ele>
<time>2015-04-27T11:28:31Z</time>
</trkpt>
<trkpt lat="35.0345680" lon="32.6405645">
<ele>1093.86</ele>
<time>2015-04-27T11:28:34Z</time>
</trkpt>
<trkpt lat="35.0345442" lon="32.6406271">
<ele>1095.04</ele>
<time>2015-04-27T11:28:37Z</time>
</trkpt>
<trkpt lat="35.0345328" lon="32.6406962">
<ele>1094.56</ele>
<time>2015-04-27T11:28:40Z</time>
</trkpt>
<trkpt lat="35.0345302" lon="32.6407713">
<ele>1096.26</ele>
<time>2015-04-27T11:28:43Z</time>
</trkpt>
<trkpt lat="35.0345208" lon="32.6408384">
<ele>1096.09</ele>
<time>2015-04-27T11:28:46Z</time>
</trkpt>
<trkpt lat="35.0345140" lon="32.6409008">
<ele>1096.32</ele>
<time>2015-04-27T11:28:49Z</time>
</trkpt>
<trkpt lat="35.0345083" lon="32.6409557">
<ele>1097.10</ele>
<time>2015-04-27T11:28:52Z</time>
</trkpt>
<trkpt lat="35.0344908" lon="32.6410188">
<ele>1096.81</ele>
<time>2015-04-27T11:28:56Z</time>
</trkpt>
<trkpt lat="35.0344812" lon="32.6410854">
<ele>1097.42</ele>
<time>2015-04-27T11:29:00Z</time>
</trkpt>
<trkpt lat="35.0344819" lon="32.6411554">
<ele>1097.64</ele>
<time>2015-04-27T11:29:04Z</time>
</trkpt>
<trkpt lat="35.0344845" lon="32.6412262">
<ele>1097.16</ele>
<time>2015-04-27T11:29:08Z</time>
</trkpt>
<trkpt lat="35.0344707" lon="32.6412893">
<ele>1098.19</ele>
<time>2015-04-27T11:29:12Z</time>
</trkpt>
<trkpt lat="35.0344546" lon="32.6413472">
<ele>1098.82</ele>
<time>2015-04-27T11:29:16Z</time>
</trkpt>
<trkpt lat="35.0344361" lon="32.6414079">
<ele>1099.86</ele>
<time>2015-04-27T11:29:20Z</time>
</trkpt>
<trkpt lat="35.0344133" lon="32.6414752">
<ele>1101.36</ele>
<time>2015-04-27T11:29:24Z</time>
</trkpt>
<trkpt lat="35.0343917" lon="32.6415241">
<ele>1102.35</ele>
<time>2015-04-27T11:29:27Z</time>
</trkpt>
<trkpt lat="35.0343686" lon="32.6415725">
<ele>1101.98</ele>
<time>2015-04-27T11:29:30Z</time>
</trkpt>
<trkpt lat="35.0343372" lon="32.6416179">
<ele>1102.06</ele>
<time>2015-04-27T11:29:33Z</time>
</trkpt>
<trkpt lat="35.0343099" lon="32.6416652">
<ele>1101.94</ele>
<time>2015-04-27T11:29:36Z</time>
</trkpt>
<trkpt lat="35.0342961" lon="32.6417179">
<ele>1102.43</ele>
<time>2015-04-27T11:29:39Z</time>
</trkpt>
<trkpt lat="35.0342758" lon="32.6417678">
<ele>1102.86</ele>
<time>2015-04-27T11:29:42Z</time>
</trkpt>
<trkpt lat="35.0342402" lon="32.6418232">
<ele>1104.30</ele>
<time>2015-04-27T11:29:46Z</time>
</trkpt>
<trkpt lat="35.0342125" lon="32.6418846">
<ele>1105.39</ele>
<time>2015-04-27T11:29:50Z</time>
</trkpt>
<trkpt lat="35.0341878" lon="32.6419310">
<ele>1105.48</ele>
<time>2015-04-27T11:29:53Z</time>
</trkpt>
<trkpt lat="35.0341638" lon="32.6419962">
<ele>1105.83</ele>
<time>2015-04-27T11:29:57Z</time>
</trkpt>
<trkpt lat="35.0341400" lon="32.6420595">
<ele>1105.92</ele>
<time>2015-04-27T11:30:01Z</time>
</trkpt>
<trkpt lat="35.0341127" lon="32.6421192">
<ele>1105.42</ele>
<time>2015-04-27T11:30:05Z</time>
</trkpt>
<trkpt lat="35.0340962" lon="32.6421792">
<ele>1105.89</ele>
<time>2015-04-27T11:30:09Z</time>
</trkpt>
<trkpt lat="35.0340815" lon="32.6422442">
<ele>1106.17</ele>
<time>2015-04-27T11:30:13Z</time>
</trkpt>
<trkpt lat="35.0340676" lon="32.6423111">
<ele>1106.82</ele>
<time>2015-04-27T11:30:17Z</time>
</trkpt>
<trkpt lat="35.0340470" lon="32.6423760">
<ele>1107.67</ele>
<time>2015-04-27T11:30:21Z</time>
</trkpt>
<trkpt lat="35.0340125" lon="32.6424287">
<ele>1108.41</ele>
<time>2015-04-27T11:30:25Z</time>
</trkpt>
<trkpt lat="35.0339691" lon="32.6424697">
<ele>1108.39</ele>
<time>2015-04-27T11:30:29Z</time>
</trkpt>
<trkpt lat="35.0339202" lon="32.6425006">
<ele>1109.27</ele>
<time>2015-04-27T11:30:33Z</time>
</trkpt>
<trkpt lat="35.0338667" lon="32.6425203">
<ele>1109.82</ele>
<time>2015-04-27T11:30:37Z</time>
</trkpt>
<trkpt lat="35.0338142" lon="32.6425311">
<ele>1111.29</ele>
<time>2015-04-27T11:30:41Z</time>
</trkpt>
<trkpt lat="35.0337625" lon="32.6425478">
<ele>1111.57</ele>
<time>2015-04-27T11:30:45Z</time>
</trkpt>
<trkpt lat="35.0337069" lon="32.6425343">
<ele>1111.03</ele>
<time>2015-04-27T11:30:49Z</time>
</trkpt>
<trkpt lat="35.0336484" lon="32.6425249">
<ele>1111.12</ele>
<time>2015-04-27T11:30:53Z</time>
</trkpt>
<trkpt lat="35.0336007" lon="32.6425122">
<ele>1110.57</ele>
<time>2015-04-27T11:30:56Z</time>
</trkpt>
<trkpt lat="35.0335538" lon="32.6425102">
<ele>1110.88</ele>
<time>2015-04-27T11:30:59Z</time>
</trkpt>
<trkpt lat="35.0334984" lon="32.6425044">
<ele>1110.92</ele>
<time>2015-04-27T11:31:03Z</time>
</trkpt>
<trkpt lat="35.0334422" lon="32.6425168">
<ele>1111.55</ele>
<time>2015-04-27T11:31:07Z</time>
</trkpt>
<trkpt lat="35.0333889" lon="32.6425191">
<ele>1111.90</ele>
<time>2015-04-27T11:31:11Z</time>
</trkpt>
<trkpt lat="35.0333356" lon="32.6425339">
<ele>1112.74</ele>
<time>2015-04-27T11:31:15Z</time>
</trkpt>
<trkpt lat="35.0332844" lon="32.6425318">
<ele>1111.54</ele>
<time>2015-04-27T11:31:19Z</time>
</trkpt>
<trkpt lat="35.0332381" lon="32.6425516">
<ele>1111.90</ele>
<time>2015-04-27T11:31:23Z</time>
</trkpt>
<trkpt lat="35.0331910" lon="32.6425791">
<ele>1111.74</ele>
<time>2015-04-27T11:31:27Z</time>
</trkpt>
<trkpt lat="35.0331597" lon="32.6426367">
<ele>1111.41</ele>
<time>2015-04-27T11:31:31Z</time>
</trkpt>
<trkpt lat="35.0331432" lon="32.6427030">
<ele>1111.83</ele>
<time>2015-04-27T11:31:35Z</time>
</trkpt>
<trkpt lat="35.0331469" lon="32.6427665">
<ele>1111.92</ele>
<time>2015-04-27T11:31:39Z</time>
</trkpt>
<trkpt lat="35.0331435" lon="32.6428295">
<ele>1112.80</ele>
<time>2015-04-27T11:31:43Z</time>
</trkpt>
<trkpt lat="35.0331491" lon="32.6428932">
<ele>1113.79</ele>
<time>2015-04-27T11:31:47Z</time>
</trkpt>
<trkpt lat="35.0331595" lon="32.6429554">
<ele>1114.79</ele>
<time>2015-04-27T11:31:51Z</time>
</trkpt>
<trkpt lat="35.0331604" lon="32.6430204">
<ele>1115.67</ele>
<time>2015-04-27T11:31:55Z</time>
</trkpt>
<trkpt lat="35.0331553" lon="32.6430884">
<ele>1115.85</ele>
<time>2015-04-27T11:31:59Z</time>
</trkpt>
<trkpt lat="35.0331595" lon="32.6431476">
<ele>1115.92</ele>
<time>2015-04-27T11:32:03Z</time>
</trkpt>
<trkpt lat="35.0331600" lon="32.6432035">
<ele>1115.92</ele>
<time>2015-04-27T11:32:07Z</time>
</trkpt>
<trkpt lat="35.0331589" lon="32.6432603">
<ele>1116.80</ele>
<time>2015-04-27T11:32:11Z</time>
</trkpt>
<trkpt lat="35.0331545" lon="32.6433215">
<ele>1117.17</ele>
<time>2015-04-27T11:32:15Z</time>
</trkpt>
<trkpt lat="35.0331523" lon="32.6433816">
<ele>1117.44</ele>
<time>2015-04-27T11:32:19Z</time>
</trkpt>
<trkpt lat="35.0331454" lon="32.6434482">
<ele>1119.27</ele>
<time>2015-04-27T11:32:23Z</time>
</trkpt>
<trkpt lat="35.0331253" lon="32.6435148">
<ele>1119.01</ele>
<time>2015-04-27T11:32:27Z</time>
</trkpt>
<trkpt lat="35.0331086" lon="32.6435845">
<ele>1118.93</ele>
<time>2015-04-27T11:32:31Z</time>
</trkpt>
<trkpt lat="35.0330948" lon="32.6436464">
<ele>1119.80</ele>
<time>2015-04-27T11:32:35Z</time>
</trkpt>
<trkpt lat="35.0330687" lon="32.6437076">
<ele>1119.04</ele>
<time>2015-04-27T11:32:39Z</time>
</trkpt>
<trkpt lat="35.0330528" lon="32.6437597">
<ele>1118.94</ele>
<time>2015-04-27T11:32:42Z</time>
</trkpt>
<trkpt lat="35.0330403" lon="32.6438244">
<ele>1120.36</ele>
<time>2015-04-27T11:32:46Z</time>
</trkpt>
<trkpt lat="35.0330265" lon="32.6438828">
<ele>1121.76</ele>
<time>2015-04-27T11:32:50Z</time>
</trkpt>
<trkpt lat="35.0330001" lon="32.6439346">
<ele>1121.48</ele>
<time>2015-04-27T11:32:54Z</time>
</trkpt>
<trkpt lat="35.0329761" lon="32.6439864">
<ele>1122.40</ele>
<time>2015-04-27T11:32:58Z</time>
</trkpt>
<trkpt lat="35.0329443" lon="32.6440385">
<ele>1122.39</ele>
<time>2015-04-27T11:33:02Z</time>
</trkpt>
<trkpt lat="35.0329154" lon="32.6440978">
<ele>1123.39</ele>
<time>2015-04-27T11:33:06Z</time>
</trkpt>
<trkpt lat="35.0328918" lon="32.6441595">
<ele>1123.14</ele>
<time>2015-04-27T11:33:10Z</time>
</trkpt>
<trkpt lat="35.0328585" lon="32.6442133">
<ele>1123.31</ele>
<time>2015-04-27T11:33:14Z</time>
</trkpt>
<trkpt lat="35.0328385" lon="32.6442700">
<ele>1124.64</ele>
<time>2015-04-27T11:33:18Z</time>
</trkpt>
<trkpt lat="35.0328073" lon="32.6443127">
<ele>1124.42</ele>
<time>2015-04-27T11:33:23Z</time>
</trkpt>
<trkpt lat="35.0327766" lon="32.6443654">
<ele>1124.91</ele>
<time>2015-04-27T11:33:28Z</time>
</trkpt>
<trkpt lat="35.0327486" lon="32.6444108">
<ele>1124.42</ele>
<time>2015-04-27T11:33:33Z</time>
</trkpt>
<trkpt lat="35.0327314" lon="32.6444654">
<ele>1124.71</ele>
<time>2015-04-27T11:33:37Z</time>
</trkpt>
<trkpt lat="35.0327169" lon="32.6445293">
<ele>1125.66</ele>
<time>2015-04-27T11:33:41Z</time>
</trkpt>
<trkpt lat="35.0327072" lon="32.6445944">
<ele>1126.78</ele>
<time>2015-04-27T11:33:45Z</time>
</trkpt>
<trkpt lat="35.0327043" lon="32.6446647">
<ele>1127.67</ele>
<time>2015-04-27T11:33:49Z</time>
</trkpt>
<trkpt lat="35.0326996" lon="32.6447312">
<ele>1128.78</ele>
<time>2015-04-27T11:33:53Z</time>
</trkpt>
<trkpt lat="35.0327001" lon="32.6447992">
<ele>1128.98</ele>
<time>2015-04-27T11:33:58Z</time>
</trkpt>
<trkpt lat="35.0327051" lon="32.6448632">
<ele>1129.86</ele>
<time>2015-04-27T11:34:03Z</time>
</trkpt>
<trkpt lat="35.0327191" lon="32.6449167">
<ele>1129.55</ele>
<time>2015-04-27T11:34:07Z</time>
</trkpt>
<trkpt lat="35.0327507" lon="32.6449616">
<ele>1130.65</ele>
<time>2015-04-27T11:34:11Z</time>
</trkpt>
<trkpt lat="35.0327831" lon="32.6450080">
<ele>1131.66</ele>
<time>2015-04-27T11:34:15Z</time>
</trkpt>
<trkpt lat="35.0328235" lon="32.6450505">
<ele>1133.16</ele>
<time>2015-04-27T11:34:19Z</time>
</trkpt>
<trkpt lat="35.0328600" lon="32.6450898">
<ele>1133.90</ele>
<time>2015-04-27T11:34:24Z</time>
</trkpt>
<trkpt lat="35.0329005" lon="32.6451186">
<ele>1135.79</ele>
<time>2015-04-27T11:34:31Z</time>
</trkpt>
<trkpt lat="35.0329387" lon="32.6451478">
<ele>1136.67</ele>
<time>2015-04-27T11:34:36Z</time>
</trkpt>
<trkpt lat="35.0329834" lon="32.6451806">
<ele>1135.98</ele>
<time>2015-04-27T11:34:41Z</time>
</trkpt>
<trkpt lat="35.0330261" lon="32.6452094">
<ele>1135.93</ele>
<time>2015-04-27T11:34:45Z</time>
</trkpt>
<trkpt lat="35.0330631" lon="32.6452468">
<ele>1137.61</ele>
<time>2015-04-27T11:34:49Z</time>
</trkpt>
<trkpt lat="35.0331052" lon="32.6452897">
<ele>1138.42</ele>
<time>2015-04-27T11:34:54Z</time>
</trkpt>
<trkpt lat="35.0331451" lon="32.6453211">
<ele>1138.89</ele>
<time>2015-04-27T11:34:58Z</time>
</trkpt>
<trkpt lat="35.0331827" lon="32.6453613">
<ele>1139.86</ele>
<time>2015-04-27T11:35:02Z</time>
</trkpt>
<trkpt lat="35.0332274" lon="32.6453983">
<ele>1139.92</ele>
<time>2015-04-27T11:35:06Z</time>
</trkpt>
<trkpt lat="35.0332725" lon="32.6454361">
<ele>1139.92</ele>
<time>2015-04-27T11:35:10Z</time>
</trkpt>
<trkpt lat="35.0333185" lon="32.6454728">
<ele>1140.86</ele>
<time>2015-04-27T11:35:14Z</time>
</trkpt>
<trkpt lat="35.0333698" lon="32.6455031">
<ele>1141.86</ele>
<time>2015-04-27T11:35:18Z</time>
</trkpt>
<trkpt lat="35.0334218" lon="32.6455317">
<ele>1141.92</ele>
<time>2015-04-27T11:35:22Z</time>
</trkpt>
<trkpt lat="35.0334610" lon="32.6455597">
<ele>1141.55</ele>
<time>2015-04-27T11:35:25Z</time>
</trkpt>
<trkpt lat="35.0335066" lon="32.6455986">
<ele>1141.90</ele>
<time>2015-04-27T11:35:29Z</time>
</trkpt>
<trkpt lat="35.0335561" lon="32.6456374">
<ele>1142.86</ele>
<time>2015-04-27T11:35:33Z</time>
</trkpt>
<trkpt lat="35.0336005" lon="32.6456782">
<ele>1143.11</ele>
<time>2015-04-27T11:35:37Z</time>
</trkpt>
<trkpt lat="35.0336364" lon="32.6457255">
<ele>1142.94</ele>
<time>2015-04-27T11:35:41Z</time>
</trkpt>
<trkpt lat="35.0336629" lon="32.6457860">
<ele>1142.93</ele>
<time>2015-04-27T11:35:45Z</time>
</trkpt>
<trkpt lat="35.0336844" lon="32.6458484">
<ele>1142.93</ele>
<time>2015-04-27T11:35:49Z</time>
</trkpt>
<trkpt lat="35.0337023" lon="32.6459149">
<ele>1142.93</ele>
<time>2015-04-27T11:35:53Z</time>
</trkpt>
<trkpt lat="35.0337025" lon="32.6459867">
<ele>1142.93</ele>
<time>2015-04-27T11:35:57Z</time>
</trkpt>
<trkpt lat="35.0336848" lon="32.6460546">
<ele>1142.93</ele>
<time>2015-04-27T11:36:01Z</time>
</trkpt>
<trkpt lat="35.0336589" lon="32.6461203">
<ele>1142.93</ele>
<time>2015-04-27T11:36:05Z</time>
</trkpt>
<trkpt lat="35.0336312" lon="32.6461638">
<ele>1143.43</ele>
<time>2015-04-27T11:36:08Z</time>
</trkpt>
<trkpt lat="35.0335906" lon="32.6462168">
<ele>1144.83</ele>
<time>2015-04-27T11:36:12Z</time>
</trkpt>
<trkpt lat="35.0335508" lon="32.6462638">
<ele>1144.86</ele>
<time>2015-04-27T11:36:16Z</time>
</trkpt>
<trkpt lat="35.0335360" lon="32.6463224">
<ele>1144.42</ele>
<time>2015-04-27T11:36:20Z</time>
</trkpt>
<trkpt lat="35.0335080" lon="32.6463700">
<ele>1143.96</ele>
<time>2015-04-27T11:36:24Z</time>
</trkpt>
<trkpt lat="35.0334836" lon="32.6464188">
<ele>1145.11</ele>
<time>2015-04-27T11:36:28Z</time>
</trkpt>
<trkpt lat="35.0334517" lon="32.6464582">
<ele>1145.75</ele>
<time>2015-04-27T11:36:32Z</time>
</trkpt>
<trkpt lat="35.0334128" lon="32.6464943">
<ele>1146.16</ele>
<time>2015-04-27T11:36:36Z</time>
</trkpt>
<trkpt lat="35.0333696" lon="32.6465302">
<ele>1145.94</ele>
<time>2015-04-27T11:36:40Z</time>
</trkpt>
<trkpt lat="35.0333305" lon="32.6465800">
<ele>1146.68</ele>
<time>2015-04-27T11:36:44Z</time>
</trkpt>
<trkpt lat="35.0332873" lon="32.6466042">
<ele>1146.89</ele>
<time>2015-04-27T11:36:47Z</time>
</trkpt>
<trkpt lat="35.0332430" lon="32.6466302">
<ele>1147.42</ele>
<time>2015-04-27T11:36:50Z</time>
</trkpt>
<trkpt lat="35.0332011" lon="32.6466546">
<ele>1144.03</ele>
<time>2015-04-27T11:37:14Z</time>
</trkpt>
<trkpt lat="35.0331698" lon="32.6466967">
<ele>1145.43</ele>
<time>2015-04-27T11:41:51Z</time>
</trkpt>
<trkpt lat="35.0331408" lon="32.6467569">
<ele>1145.92</ele>
<time>2015-04-27T11:41:57Z</time>
</trkpt>
<trkpt lat="35.0331174" lon="32.6468103">
<ele>1146.80</ele>
<time>2015-04-27T11:42:00Z</time>
</trkpt>
<trkpt lat="35.0331016" lon="32.6468634">
<ele>1148.28</ele>
<time>2015-04-27T11:42:03Z</time>
</trkpt>
<trkpt lat="35.0330851" lon="32.6469181">
<ele>1149.34</ele>
<time>2015-04-27T11:42:06Z</time>
</trkpt>
<trkpt lat="35.0330781" lon="32.6469753">
<ele>1151.23</ele>
<time>2015-04-27T11:42:09Z</time>
</trkpt>
<trkpt lat="35.0330772" lon="32.6470381">
<ele>1151.09</ele>
<time>2015-04-27T11:42:12Z</time>
</trkpt>
<trkpt lat="35.0330655" lon="32.6470998">
<ele>1150.95</ele>
<time>2015-04-27T11:42:15Z</time>
</trkpt>
<trkpt lat="35.0330587" lon="32.6471630">
<ele>1151.43</ele>
<time>2015-04-27T11:42:18Z</time>
</trkpt>
<trkpt lat="35.0330521" lon="32.6472250">
<ele>1151.74</ele>
<time>2015-04-27T11:42:21Z</time>
</trkpt>
<trkpt lat="35.0330484" lon="32.6472816">
<ele>1151.65</ele>
<time>2015-04-27T11:42:24Z</time>
</trkpt>
<trkpt lat="35.0330436" lon="32.6473378">
<ele>1151.52</ele>
<time>2015-04-27T11:42:27Z</time>
</trkpt>
<trkpt lat="35.0330391" lon="32.6474024">
<ele>1151.90</ele>
<time>2015-04-27T11:42:31Z</time>
</trkpt>
<trkpt lat="35.0330472" lon="32.6474598">
<ele>1152.42</ele>
<time>2015-04-27T11:42:35Z</time>
</trkpt>
<trkpt lat="35.0330560" lon="32.6475201">
<ele>1152.14</ele>
<time>2015-04-27T11:42:39Z</time>
</trkpt>
<trkpt lat="35.0330521" lon="32.6475755">
<ele>1152.88</ele>
<time>2015-04-27T11:42:43Z</time>
</trkpt>
<trkpt lat="35.0330323" lon="32.6476314">
<ele>1153.30</ele>
<time>2015-04-27T11:42:50Z</time>
</trkpt>
<trkpt lat="35.0330229" lon="32.6477019">
<ele>1153.81</ele>
<time>2015-04-27T11:42:55Z</time>
</trkpt>
<trkpt lat="35.0330025" lon="32.6477658">
<ele>1153.91</ele>
<time>2015-04-27T11:42:58Z</time>
</trkpt>
<trkpt lat="35.0329790" lon="32.6478215">
<ele>1153.67</ele>
<time>2015-04-27T11:43:01Z</time>
</trkpt>
<trkpt lat="35.0329603" lon="32.6478960">
<ele>1153.89</ele>
<time>2015-04-27T11:43:04Z</time>
</trkpt>
<trkpt lat="35.0329494" lon="32.6479684">
<ele>1153.17</ele>
<time>2015-04-27T11:43:07Z</time>
</trkpt>
<trkpt lat="35.0329246" lon="32.6480188">
<ele>1151.93</ele>
<time>2015-04-27T11:43:13Z</time>
</trkpt>
<trkpt lat="35.0329205" lon="32.6480837">
<ele>1154.24</ele>
<time>2015-04-27T11:43:18Z</time>
</trkpt>
<trkpt lat="35.0329183" lon="32.6481442">
<ele>1154.88</ele>
<time>2015-04-27T11:43:22Z</time>
</trkpt>
<trkpt lat="35.0329154" lon="32.6482080">
<ele>1155.80</ele>
<time>2015-04-27T11:43:26Z</time>
</trkpt>
<trkpt lat="35.0329038" lon="32.6482614">
<ele>1156.86</ele>
<time>2015-04-27T11:43:31Z</time>
</trkpt>
<trkpt lat="35.0329180" lon="32.6483180">
<ele>1158.24</ele>
<time>2015-04-27T11:43:36Z</time>
</trkpt>
<trkpt lat="35.0329343" lon="32.6483801">
<ele>1158.90</ele>
<time>2015-04-27T11:43:41Z</time>
</trkpt>
<trkpt lat="35.0329616" lon="32.6484389">
<ele>1159.89</ele>
<time>2015-04-27T11:43:46Z</time>
</trkpt>
<trkpt lat="35.0329932" lon="32.6484806">
<ele>1161.61</ele>
<time>2015-04-27T11:43:50Z</time>
</trkpt>
<trkpt lat="35.0330342" lon="32.6485126">
<ele>1162.84</ele>
<time>2015-04-27T11:43:54Z</time>
</trkpt>
<trkpt lat="35.0330739" lon="32.6485466">
<ele>1162.92</ele>
<time>2015-04-27T11:43:58Z</time>
</trkpt>
<trkpt lat="35.0331084" lon="32.6485929">
<ele>1163.80</ele>
<time>2015-04-27T11:44:04Z</time>
</trkpt>
<trkpt lat="35.0331532" lon="32.6486016">
<ele>1164.85</ele>
<time>2015-04-27T11:44:08Z</time>
</trkpt>
<trkpt lat="35.0331990" lon="32.6486245">
<ele>1165.67</ele>
<time>2015-04-27T11:44:12Z</time>
</trkpt>
<trkpt lat="35.0332448" lon="32.6486584">
<ele>1165.91</ele>
<time>2015-04-27T11:44:16Z</time>
</trkpt>
<trkpt lat="35.0332941" lon="32.6486877">
<ele>1166.17</ele>
<time>2015-04-27T11:44:19Z</time>
</trkpt>
<trkpt lat="35.0333446" lon="32.6487259">
<ele>1167.63</ele>
<time>2015-04-27T11:44:23Z</time>
</trkpt>
<trkpt lat="35.0333845" lon="32.6487534">
<ele>1167.89</ele>
<time>2015-04-27T11:44:26Z</time>
</trkpt>
<trkpt lat="35.0334261" lon="32.6487756">
<ele>1167.92</ele>
<time>2015-04-27T11:44:29Z</time>
</trkpt>
<trkpt lat="35.0334768" lon="32.6488066">
<ele>1168.80</ele>
<time>2015-04-27T11:44:33Z</time>
</trkpt>
<trkpt lat="35.0335268" lon="32.6488335">
<ele>1168.85</ele>
<time>2015-04-27T11:44:37Z</time>
</trkpt>
<trkpt lat="35.0335778" lon="32.6488663">
<ele>1170.36</ele>
<time>2015-04-27T11:44:41Z</time>
</trkpt>
<trkpt lat="35.0336145" lon="32.6488984">
<ele>1170.10</ele>
<time>2015-04-27T11:44:44Z</time>
</trkpt>
<trkpt lat="35.0336474" lon="32.6489502">
<ele>1169.02</ele>
<time>2015-04-27T11:44:49Z</time>
</trkpt>
<trkpt lat="35.0336805" lon="32.6490094">
<ele>1168.44</ele>
<time>2015-04-27T11:44:52Z</time>
</trkpt>
<trkpt lat="35.0336962" lon="32.6490611">
<ele>1168.05</ele>
<time>2015-04-27T11:44:54Z</time>
</trkpt>
<trkpt lat="35.0337035" lon="32.6491210">
<ele>1167.96</ele>
<time>2015-04-27T11:44:56Z</time>
</trkpt>
<trkpt lat="35.0337091" lon="32.6491920">
<ele>1167.43</ele>
<time>2015-04-27T11:44:58Z</time>
</trkpt>
<trkpt lat="35.0337069" lon="32.6492469">
<ele>1167.05</ele>
<time>2015-04-27T11:45:00Z</time>
</trkpt>
<trkpt lat="35.0337002" lon="32.6493047">
<ele>1167.69</ele>
<time>2015-04-27T11:45:03Z</time>
</trkpt>
<trkpt lat="35.0336991" lon="32.6493850">
<ele>1167.90</ele>
<time>2015-04-27T11:45:06Z</time>
</trkpt>
<trkpt lat="35.0336878" lon="32.6494625">
<ele>1167.92</ele>
<time>2015-04-27T11:45:09Z</time>
</trkpt>
<trkpt lat="35.0336736" lon="32.6495315">
<ele>1167.05</ele>
<time>2015-04-27T11:45:12Z</time>
</trkpt>
<trkpt lat="35.0336625" lon="32.6496058">
<ele>1167.82</ele>
<time>2015-04-27T11:45:15Z</time>
</trkpt>
<trkpt lat="35.0336561" lon="32.6496794">
<ele>1167.91</ele>
<time>2015-04-27T11:45:18Z</time>
</trkpt>
<trkpt lat="35.0336516" lon="32.6497537">
<ele>1169.05</ele>
<time>2015-04-27T11:45:21Z</time>
</trkpt>
<trkpt lat="35.0336434" lon="32.6498321">
<ele>1168.94</ele>
<time>2015-04-27T11:45:24Z</time>
</trkpt>
<trkpt lat="35.0336400" lon="32.6498880">
<ele>1169.18</ele>
<time>2015-04-27T11:45:26Z</time>
</trkpt>
<trkpt lat="35.0336276" lon="32.6499418">
<ele>1169.49</ele>
<time>2015-04-27T11:45:28Z</time>
</trkpt>
<trkpt lat="35.0336085" lon="32.6499931">
<ele>1169.82</ele>
<time>2015-04-27T11:45:30Z</time>
</trkpt>
<trkpt lat="35.0335848" lon="32.6500412">
<ele>1169.90</ele>
<time>2015-04-27T11:45:32Z</time>
</trkpt>
<trkpt lat="35.0335489" lon="32.6500891">
<ele>1169.92</ele>
<time>2015-04-27T11:45:34Z</time>
</trkpt>
<trkpt lat="35.0335128" lon="32.6501269">
<ele>1170.67</ele>
<time>2015-04-27T11:45:36Z</time>
</trkpt>
<trkpt lat="35.0334778" lon="32.6501664">
<ele>1172.16</ele>
<time>2015-04-27T11:45:40Z</time>
</trkpt>
<trkpt lat="35.0334439" lon="32.6502133">
<ele>1172.88</ele>
<time>2015-04-27T11:45:44Z</time>
</trkpt>
<trkpt lat="35.0334015" lon="32.6502578">
<ele>1172.92</ele>
<time>2015-04-27T11:45:47Z</time>
</trkpt>
<trkpt lat="35.0333581" lon="32.6503044">
<ele>1172.92</ele>
<time>2015-04-27T11:45:50Z</time>
</trkpt>
<trkpt lat="35.0333232" lon="32.6503568">
<ele>1172.92</ele>
<time>2015-04-27T11:45:53Z</time>
</trkpt>
<trkpt lat="35.0333063" lon="32.6504211">
<ele>1173.80</ele>
<time>2015-04-27T11:45:56Z</time>
</trkpt>
<trkpt lat="35.0333065" lon="32.6504853">
<ele>1174.03</ele>
<time>2015-04-27T11:45:59Z</time>
</trkpt>
<trkpt lat="35.0333211" lon="32.6505522">
<ele>1174.44</ele>
<time>2015-04-27T11:46:02Z</time>
</trkpt>
<trkpt lat="35.0333441" lon="32.6506203">
<ele>1176.24</ele>
<time>2015-04-27T11:46:05Z</time>
</trkpt>
<trkpt lat="35.0333624" lon="32.6506859">
<ele>1177.34</ele>
<time>2015-04-27T11:46:08Z</time>
</trkpt>
<trkpt lat="35.0333845" lon="32.6507460">
<ele>1176.98</ele>
<time>2015-04-27T11:46:11Z</time>
</trkpt>
<trkpt lat="35.0334106" lon="32.6508011">
<ele>1177.81</ele>
<time>2015-04-27T11:46:14Z</time>
</trkpt>
<trkpt lat="35.0334305" lon="32.6508614">
<ele>1177.91</ele>
<time>2015-04-27T11:46:17Z</time>
</trkpt>
<trkpt lat="35.0334374" lon="32.6509298">
<ele>1178.86</ele>
<time>2015-04-27T11:46:21Z</time>
</trkpt>
<trkpt lat="35.0334553" lon="32.6509820">
<ele>1179.86</ele>
<time>2015-04-27T11:46:25Z</time>
</trkpt>
<trkpt lat="35.0334714" lon="32.6510335">
<ele>1179.55</ele>
<time>2015-04-27T11:46:30Z</time>
</trkpt>
<trkpt lat="35.0334942" lon="32.6510825">
<ele>1180.63</ele>
<time>2015-04-27T11:46:33Z</time>
</trkpt>
<trkpt lat="35.0335206" lon="32.6511289">
<ele>1181.64</ele>
<time>2015-04-27T11:46:36Z</time>
</trkpt>
<trkpt lat="35.0335538" lon="32.6511703">
<ele>1182.64</ele>
<time>2015-04-27T11:46:39Z</time>
</trkpt>
<trkpt lat="35.0335942" lon="32.6512199">
<ele>1183.66</ele>
<time>2015-04-27T11:46:43Z</time>
</trkpt>
<trkpt lat="35.0336324" lon="32.6512627">
<ele>1183.91</ele>
<time>2015-04-27T11:46:47Z</time>
</trkpt>
<trkpt lat="35.0336758" lon="32.6512945">
<ele>1184.42</ele>
<time>2015-04-27T11:46:51Z</time>
</trkpt>
<trkpt lat="35.0337150" lon="32.6513310">
<ele>1183.96</ele>
<time>2015-04-27T11:46:55Z</time>
</trkpt>
<trkpt lat="35.0337579" lon="32.6513662">
<ele>1184.86</ele>
<time>2015-04-27T11:46:59Z</time>
</trkpt>
<trkpt lat="35.0338006" lon="32.6513984">
<ele>1185.67</ele>
<time>2015-04-27T11:47:03Z</time>
</trkpt>
<trkpt lat="35.0338471" lon="32.6514334">
<ele>1186.66</ele>
<time>2015-04-27T11:47:07Z</time>
</trkpt>
<trkpt lat="35.0338860" lon="32.6514748">
<ele>1186.85</ele>
<time>2015-04-27T11:47:11Z</time>
</trkpt>
<trkpt lat="35.0339216" lon="32.6515180">
<ele>1186.92</ele>
<time>2015-04-27T11:47:15Z</time>
</trkpt>
<trkpt lat="35.0339594" lon="32.6515641">
<ele>1187.42</ele>
<time>2015-04-27T11:47:19Z</time>
</trkpt>
<trkpt lat="35.0340050" lon="32.6516120">
<ele>1187.89</ele>
<time>2015-04-27T11:47:23Z</time>
</trkpt>
<trkpt lat="35.0340419" lon="32.6516544">
<ele>1188.42</ele>
<time>2015-04-27T11:47:26Z</time>
</trkpt>
<trkpt lat="35.0340802" lon="32.6516863">
<ele>1187.99</ele>
<time>2015-04-27T11:47:29Z</time>
</trkpt>
<trkpt lat="35.0341189" lon="32.6517296">
<ele>1187.93</ele>
<time>2015-04-27T11:47:32Z</time>
</trkpt>
<trkpt lat="35.0341587" lon="32.6517728">
<ele>1187.93</ele>
<time>2015-04-27T11:47:35Z</time>
</trkpt>
<trkpt lat="35.0341966" lon="32.6518058">
<ele>1188.68</ele>
<time>2015-04-27T11:47:38Z</time>
</trkpt>
<trkpt lat="35.0342303" lon="32.6518442">
<ele>1188.89</ele>
<time>2015-04-27T11:47:41Z</time>
</trkpt>
<trkpt lat="35.0342600" lon="32.6518911">
<ele>1188.92</ele>
<time>2015-04-27T11:47:44Z</time>
</trkpt>
<trkpt lat="35.0342891" lon="32.6519405">
<ele>1188.92</ele>
<time>2015-04-27T11:47:47Z</time>
</trkpt>
<trkpt lat="35.0343117" lon="32.6519957">
<ele>1188.30</ele>
<time>2015-04-27T11:47:50Z</time>
</trkpt>
<trkpt lat="35.0343361" lon="32.6520460">
<ele>1187.97</ele>
<time>2015-04-27T11:47:53Z</time>
</trkpt>
<trkpt lat="35.0343514" lon="32.6521133">
<ele>1187.74</ele>
<time>2015-04-27T11:47:57Z</time>
</trkpt>
<trkpt lat="35.0344026" lon="32.6520959">
<ele>1187.91</ele>
<time>2015-04-27T11:48:01Z</time>
</trkpt>
<trkpt lat="35.0343842" lon="32.6520438">
<ele>1187.33</ele>
<time>2015-04-27T11:48:21Z</time>
</trkpt>
<trkpt lat="35.0343565" lon="32.6520873">
<ele>1188.18</ele>
<time>2015-04-27T11:49:47Z</time>
</trkpt>
<trkpt lat="35.0343238" lon="32.6521333">
<ele>1187.18</ele>
<time>2015-04-27T11:49:53Z</time>
</trkpt>
<trkpt lat="35.0343182" lon="32.6521886">
<ele>1186.96</ele>
<time>2015-04-27T11:49:56Z</time>
</trkpt>
<trkpt lat="35.0343043" lon="32.6522462">
<ele>1186.93</ele>
<time>2015-04-27T11:49:58Z</time>
</trkpt>
<trkpt lat="35.0342820" lon="32.6522956">
<ele>1187.68</ele>
<time>2015-04-27T11:50:00Z</time>
</trkpt>
<trkpt lat="35.0342603" lon="32.6523450">
<ele>1187.86</ele>
<time>2015-04-27T11:50:02Z</time>
</trkpt>
<trkpt lat="35.0342051" lon="32.6523664">
<ele>1187.79</ele>
<time>2015-04-27T11:50:05Z</time>
</trkpt>
<trkpt lat="35.0341527" lon="32.6523674">
<ele>1187.16</ele>
<time>2015-04-27T11:50:08Z</time>
</trkpt>
<trkpt lat="35.0340883" lon="32.6523610">
<ele>1187.70</ele>
<time>2015-04-27T11:50:11Z</time>
</trkpt>
<trkpt lat="35.0340425" lon="32.6523475">
<ele>1187.87</ele>
<time>2015-04-27T11:50:13Z</time>
</trkpt>
<trkpt lat="35.0339833" lon="32.6523413">
<ele>1187.92</ele>
<time>2015-04-27T11:50:16Z</time>
</trkpt>
<trkpt lat="35.0339312" lon="32.6523422">
<ele>1188.42</ele>
<time>2015-04-27T11:50:20Z</time>
</trkpt>
<trkpt lat="35.0338850" lon="32.6523446">
<ele>1188.86</ele>
<time>2015-04-27T11:50:23Z</time>
</trkpt>
<trkpt lat="35.0338391" lon="32.6523519">
<ele>1188.92</ele>
<time>2015-04-27T11:50:26Z</time>
</trkpt>
<trkpt lat="35.0337940" lon="32.6523594">
<ele>1188.92</ele>
<time>2015-04-27T11:50:29Z</time>
</trkpt>
<trkpt lat="35.0337489" lon="32.6523784">
<ele>1190.55</ele>
<time>2015-04-27T11:50:32Z</time>
</trkpt>
<trkpt lat="35.0336993" lon="32.6523922">
<ele>1191.13</ele>
<time>2015-04-27T11:50:35Z</time>
</trkpt>
<trkpt lat="35.0336508" lon="32.6524069">
<ele>1191.83</ele>
<time>2015-04-27T11:50:38Z</time>
</trkpt>
<trkpt lat="35.0336000" lon="32.6524127">
<ele>1192.79</ele>
<time>2015-04-27T11:50:42Z</time>
</trkpt>
<trkpt lat="35.0335529" lon="32.6524315">
<ele>1194.30</ele>
<time>2015-04-27T11:50:47Z</time>
</trkpt>
<trkpt lat="35.0335074" lon="32.6524471">
<ele>1194.70</ele>
<time>2015-04-27T11:50:51Z</time>
</trkpt>
<trkpt lat="35.0334590" lon="32.6524554">
<ele>1194.04</ele>
<time>2015-04-27T11:50:55Z</time>
</trkpt>
<trkpt lat="35.0334078" lon="32.6524631">
<ele>1193.93</ele>
<time>2015-04-27T11:50:59Z</time>
</trkpt>
<trkpt lat="35.0333623" lon="32.6524760">
<ele>1194.68</ele>
<time>2015-04-27T11:51:02Z</time>
</trkpt>
<trkpt lat="35.0333155" lon="32.6524817">
<ele>1195.64</ele>
<time>2015-04-27T11:51:05Z</time>
</trkpt>
<trkpt lat="35.0332670" lon="32.6524754">
<ele>1195.89</ele>
<time>2015-04-27T11:51:08Z</time>
</trkpt>
<trkpt lat="35.0332176" lon="32.6524631">
<ele>1195.92</ele>
<time>2015-04-27T11:51:11Z</time>
</trkpt>
<trkpt lat="35.0331723" lon="32.6524312">
<ele>1195.92</ele>
<time>2015-04-27T11:51:15Z</time>
</trkpt>
<trkpt lat="35.0331214" lon="32.6523986">
<ele>1195.92</ele>
<time>2015-04-27T11:51:19Z</time>
</trkpt>
<trkpt lat="35.0330687" lon="32.6523677">
<ele>1195.93</ele>
<time>2015-04-27T11:51:23Z</time>
</trkpt>
<trkpt lat="35.0330206" lon="32.6523410">
<ele>1196.18</ele>
<time>2015-04-27T11:51:26Z</time>
</trkpt>
<trkpt lat="35.0329799" lon="32.6523081">
<ele>1196.83</ele>
<time>2015-04-27T11:51:29Z</time>
</trkpt>
<trkpt lat="35.0329452" lon="32.6522687">
<ele>1197.41</ele>
<time>2015-04-27T11:51:32Z</time>
</trkpt>
<trkpt lat="35.0329092" lon="32.6522336">
<ele>1197.11</ele>
<time>2015-04-27T11:51:35Z</time>
</trkpt>
<trkpt lat="35.0328594" lon="32.6522178">
<ele>1197.82</ele>
<time>2015-04-27T11:51:38Z</time>
</trkpt>
<trkpt lat="35.0328157" lon="32.6521877">
<ele>1198.41</ele>
<time>2015-04-27T11:51:41Z</time>
</trkpt>
<trkpt lat="35.0327772" lon="32.6521545">
<ele>1199.61</ele>
<time>2015-04-27T11:51:44Z</time>
</trkpt>
<trkpt lat="35.0327331" lon="32.6521261">
<ele>1199.91</ele>
<time>2015-04-27T11:51:48Z</time>
</trkpt>
<trkpt lat="35.0326848" lon="32.6520904">
<ele>1200.17</ele>
<time>2015-04-27T11:51:52Z</time>
</trkpt>
<trkpt lat="35.0326409" lon="32.6520775">
<ele>1200.21</ele>
<time>2015-04-27T11:51:55Z</time>
</trkpt>
<trkpt lat="35.0325798" lon="32.6520702">
<ele>1200.46</ele>
<time>2015-04-27T11:51:58Z</time>
</trkpt>
<trkpt lat="35.0325196" lon="32.6520732">
<ele>1200.87</ele>
<time>2015-04-27T11:52:01Z</time>
</trkpt>
<trkpt lat="35.0324593" lon="32.6520842">
<ele>1201.54</ele>
<time>2015-04-27T11:52:04Z</time>
</trkpt>
<trkpt lat="35.0324052" lon="32.6521170">
<ele>1203.50</ele>
<time>2015-04-27T11:52:07Z</time>
</trkpt>
<trkpt lat="35.0323543" lon="32.6521440">
<ele>1203.87</ele>
<time>2015-04-27T11:52:10Z</time>
</trkpt>
<trkpt lat="35.0323144" lon="32.6521735">
<ele>1204.30</ele>
<time>2015-04-27T11:52:14Z</time>
</trkpt>
<trkpt lat="35.0322768" lon="32.6522040">
<ele>1205.42</ele>
<time>2015-04-27T11:52:20Z</time>
</trkpt>
<trkpt lat="35.0322310" lon="32.6522328">
<ele>1206.82</ele>
<time>2015-04-27T11:52:26Z</time>
</trkpt>
<trkpt lat="35.0321824" lon="32.6522152">
<ele>1206.36</ele>
<time>2015-04-27T11:52:32Z</time>
</trkpt>
<trkpt lat="35.0321369" lon="32.6522396">
<ele>1205.94</ele>
<time>2015-04-27T11:52:37Z</time>
</trkpt>
<trkpt lat="35.0320968" lon="32.6522726">
<ele>1205.55</ele>
<time>2015-04-27T11:52:41Z</time>
</trkpt>
<trkpt lat="35.0320444" lon="32.6522744">
<ele>1205.79</ele>
<time>2015-04-27T11:52:46Z</time>
</trkpt>
<trkpt lat="35.0319938" lon="32.6522695">
<ele>1205.92</ele>
<time>2015-04-27T11:52:51Z</time>
</trkpt>
<trkpt lat="35.0319505" lon="32.6522547">
<ele>1206.86</ele>
<time>2015-04-27T11:52:55Z</time>
</trkpt>
<trkpt lat="35.0319056" lon="32.6522308">
<ele>1206.42</ele>
<time>2015-04-27T11:52:59Z</time>
</trkpt>
<trkpt lat="35.0318543" lon="32.6522166">
<ele>1206.52</ele>
<time>2015-04-27T11:53:03Z</time>
</trkpt>
<trkpt lat="35.0318092" lon="32.6521878">
<ele>1206.52</ele>
<time>2015-04-27T11:53:07Z</time>
</trkpt>
<trkpt lat="35.0317601" lon="32.6521793">
<ele>1207.84</ele>
<time>2015-04-27T11:53:11Z</time>
</trkpt>
<trkpt lat="35.0317086" lon="32.6521664">
<ele>1207.92</ele>
<time>2015-04-27T11:53:15Z</time>
</trkpt>
<trkpt lat="35.0316538" lon="32.6521725">
<ele>1208.42</ele>
<time>2015-04-27T11:53:19Z</time>
</trkpt>
<trkpt lat="35.0315982" lon="32.6521635">
<ele>1209.21</ele>
<time>2015-04-27T11:53:23Z</time>
</trkpt>
<trkpt lat="35.0315390" lon="32.6521615">
<ele>1209.32</ele>
<time>2015-04-27T11:53:27Z</time>
</trkpt>
<trkpt lat="35.0314919" lon="32.6521718">
<ele>1210.47</ele>
<time>2015-04-27T11:53:30Z</time>
</trkpt>
<trkpt lat="35.0314408" lon="32.6521732">
<ele>1210.96</ele>
<time>2015-04-27T11:53:34Z</time>
</trkpt>
<trkpt lat="35.0313850" lon="32.6521841">
<ele>1211.18</ele>
<time>2015-04-27T11:53:38Z</time>
</trkpt>
<trkpt lat="35.0313295" lon="32.6521892">
<ele>1212.33</ele>
<time>2015-04-27T11:53:41Z</time>
</trkpt>
<trkpt lat="35.0312710" lon="32.6522086">
<ele>1213.10</ele>
<time>2015-04-27T11:53:44Z</time>
</trkpt>
<trkpt lat="35.0312145" lon="32.6522210">
<ele>1214.32</ele>
<time>2015-04-27T11:53:47Z</time>
</trkpt>
<trkpt lat="35.0311599" lon="32.6522415">
<ele>1214.85</ele>
<time>2015-04-27T11:53:50Z</time>
</trkpt>
<trkpt lat="35.0311075" lon="32.6522613">
<ele>1215.79</ele>
<time>2015-04-27T11:53:53Z</time>
</trkpt>
<trkpt lat="35.0310565" lon="32.6522758">
<ele>1216.66</ele>
<time>2015-04-27T11:53:56Z</time>
</trkpt>
<trkpt lat="35.0310085" lon="32.6522958">
<ele>1216.27</ele>
<time>2015-04-27T11:53:59Z</time>
</trkpt>
<trkpt lat="35.0309620" lon="32.6523166">
<ele>1216.47</ele>
<time>2015-04-27T11:54:02Z</time>
</trkpt>
<trkpt lat="35.0309166" lon="32.6523474">
<ele>1215.99</ele>
<time>2015-04-27T11:54:05Z</time>
</trkpt>
<trkpt lat="35.0308692" lon="32.6523500">
<ele>1215.93</ele>
<time>2015-04-27T11:54:08Z</time>
</trkpt>
<trkpt lat="35.0308222" lon="32.6523528">
<ele>1215.80</ele>
<time>2015-04-27T11:54:11Z</time>
</trkpt>
<trkpt lat="35.0307759" lon="32.6523644">
<ele>1216.41</ele>
<time>2015-04-27T11:54:14Z</time>
</trkpt>
<trkpt lat="35.0307317" lon="32.6523750">
<ele>1216.86</ele>
<time>2015-04-27T11:54:17Z</time>
</trkpt>
<trkpt lat="35.0306869" lon="32.6523821">
<ele>1216.54</ele>
<time>2015-04-27T11:54:20Z</time>
</trkpt>
<trkpt lat="35.0306414" lon="32.6523824">
<ele>1216.88</ele>
<time>2015-04-27T11:54:23Z</time>
</trkpt>
<trkpt lat="35.0305830" lon="32.6523912">
<ele>1216.98</ele>
<time>2015-04-27T11:54:27Z</time>
</trkpt>
<trkpt lat="35.0305380" lon="32.6524048">
<ele>1217.43</ele>
<time>2015-04-27T11:54:30Z</time>
</trkpt>
<trkpt lat="35.0304895" lon="32.6524223">
<ele>1217.86</ele>
<time>2015-04-27T11:54:33Z</time>
</trkpt>
<trkpt lat="35.0304398" lon="32.6524236">
<ele>1218.42</ele>
<time>2015-04-27T11:54:36Z</time>
</trkpt>
<trkpt lat="35.0303952" lon="32.6524448">
<ele>1219.61</ele>
<time>2015-04-27T11:54:39Z</time>
</trkpt>
<trkpt lat="35.0303483" lon="32.6524560">
<ele>1219.89</ele>
<time>2015-04-27T11:54:42Z</time>
</trkpt>
<trkpt lat="35.0303040" lon="32.6524710">
<ele>1220.67</ele>
<time>2015-04-27T11:54:45Z</time>
</trkpt>
<trkpt lat="35.0302459" lon="32.6524821">
<ele>1221.66</ele>
<time>2015-04-27T11:54:49Z</time>
</trkpt>
<trkpt lat="35.0302014" lon="32.6524957">
<ele>1221.89</ele>
<time>2015-04-27T11:54:52Z</time>
</trkpt>
<trkpt lat="35.0301557" lon="32.6525096">
<ele>1222.42</ele>
<time>2015-04-27T11:54:56Z</time>
</trkpt>
<trkpt lat="35.0301072" lon="32.6525209">
<ele>1222.89</ele>
<time>2015-04-27T11:55:02Z</time>
</trkpt>
<trkpt lat="35.0300570" lon="32.6525381">
<ele>1222.17</ele>
<time>2015-04-27T11:55:06Z</time>
</trkpt>
<trkpt lat="35.0299999" lon="32.6525484">
<ele>1222.69</ele>
<time>2015-04-27T11:55:10Z</time>
</trkpt>
<trkpt lat="35.0299448" lon="32.6525677">
<ele>1223.79</ele>
<time>2015-04-27T11:55:14Z</time>
</trkpt>
<trkpt lat="35.0298897" lon="32.6525775">
<ele>1225.60</ele>
<time>2015-04-27T11:55:18Z</time>
</trkpt>
<trkpt lat="35.0298441" lon="32.6526003">
<ele>1225.28</ele>
<time>2015-04-27T11:55:22Z</time>
</trkpt>
<trkpt lat="35.0298005" lon="32.6526381">
<ele>1224.47</ele>
<time>2015-04-27T11:55:27Z</time>
</trkpt>
<trkpt lat="35.0297583" lon="32.6526128">
<ele>1228.17</ele>
<time>2015-04-27T11:57:04Z</time>
</trkpt>
<trkpt lat="35.0297197" lon="32.6526437">
<ele>1226.28</ele>
<time>2015-04-27T11:57:15Z</time>
</trkpt>
<trkpt lat="35.0296731" lon="32.6526553">
<ele>1225.09</ele>
<time>2015-04-27T11:57:18Z</time>
</trkpt>
<trkpt lat="35.0296207" lon="32.6526910">
<ele>1225.70</ele>
<time>2015-04-27T11:57:21Z</time>
</trkpt>
<trkpt lat="35.0295723" lon="32.6527169">
<ele>1226.15</ele>
<time>2015-04-27T11:57:24Z</time>
</trkpt>
<trkpt lat="35.0295251" lon="32.6527294">
<ele>1226.83</ele>
<time>2015-04-27T11:57:27Z</time>
</trkpt>
<trkpt lat="35.0294810" lon="32.6527495">
<ele>1227.41</ele>
<time>2015-04-27T11:57:30Z</time>
</trkpt>
<trkpt lat="35.0294399" lon="32.6527785">
<ele>1228.11</ele>
<time>2015-04-27T11:57:33Z</time>
</trkpt>
<trkpt lat="35.0293969" lon="32.6528091">
<ele>1227.95</ele>
<time>2015-04-27T11:57:36Z</time>
</trkpt>
<trkpt lat="35.0293549" lon="32.6528382">
<ele>1227.93</ele>
<time>2015-04-27T11:57:39Z</time>
</trkpt>
<trkpt lat="35.0293148" lon="32.6528676">
<ele>1228.30</ele>
<time>2015-04-27T11:57:42Z</time>
</trkpt>
<trkpt lat="35.0292756" lon="32.6529022">
<ele>1228.85</ele>
<time>2015-04-27T11:57:45Z</time>
</trkpt>
<trkpt lat="35.0292389" lon="32.6529565">
<ele>1230.67</ele>
<time>2015-04-27T11:57:49Z</time>
</trkpt>
<trkpt lat="35.0292012" lon="32.6530092">
<ele>1232.28</ele>
<time>2015-04-27T11:57:53Z</time>
</trkpt>
<trkpt lat="35.0291677" lon="32.6530576">
<ele>1233.38</ele>
<time>2015-04-27T11:57:57Z</time>
</trkpt>
<trkpt lat="35.0291401" lon="32.6531012">
<ele>1233.86</ele>
<time>2015-04-27T11:58:00Z</time>
</trkpt>
<trkpt lat="35.0291057" lon="32.6531411">
<ele>1234.79</ele>
<time>2015-04-27T11:58:03Z</time>
</trkpt>
<trkpt lat="35.0290674" lon="32.6531735">
<ele>1234.91</ele>
<time>2015-04-27T11:58:06Z</time>
</trkpt>
<trkpt lat="35.0290302" lon="32.6532139">
<ele>1234.05</ele>
<time>2015-04-27T11:58:09Z</time>
</trkpt>
<trkpt lat="35.0289904" lon="32.6532519">
<ele>1233.94</ele>
<time>2015-04-27T11:58:12Z</time>
</trkpt>
<trkpt lat="35.0289511" lon="32.6532880">
<ele>1232.68</ele>
<time>2015-04-27T11:58:15Z</time>
</trkpt>
<trkpt lat="35.0289082" lon="32.6533072">
<ele>1234.16</ele>
<time>2015-04-27T11:58:19Z</time>
</trkpt>
<trkpt lat="35.0288685" lon="32.6533466">
<ele>1235.88</ele>
<time>2015-04-27T11:58:23Z</time>
</trkpt>
<trkpt lat="35.0288265" lon="32.6533689">
<ele>1236.04</ele>
<time>2015-04-27T11:58:26Z</time>
</trkpt>
<trkpt lat="35.0287852" lon="32.6533951">
<ele>1236.69</ele>
<time>2015-04-27T11:58:29Z</time>
</trkpt>
<trkpt lat="35.0287358" lon="32.6534329">
<ele>1237.16</ele>
<time>2015-04-27T11:58:33Z</time>
</trkpt>
<trkpt lat="35.0286881" lon="32.6534678">
<ele>1238.19</ele>
<time>2015-04-27T11:58:37Z</time>
</trkpt>
<trkpt lat="35.0286474" lon="32.6534961">
<ele>1238.46</ele>
<time>2015-04-27T11:58:40Z</time>
</trkpt>
<trkpt lat="35.0286020" lon="32.6535361">
<ele>1238.40</ele>
<time>2015-04-27T11:58:44Z</time>
</trkpt>
<trkpt lat="35.0285489" lon="32.6535712">
<ele>1238.39</ele>
<time>2015-04-27T11:58:48Z</time>
</trkpt>
<trkpt lat="35.0285036" lon="32.6535956">
<ele>1238.23</ele>
<time>2015-04-27T11:58:51Z</time>
</trkpt>
<trkpt lat="35.0284558" lon="32.6536272">
<ele>1238.59</ele>
<time>2015-04-27T11:58:54Z</time>
</trkpt>
<trkpt lat="35.0284055" lon="32.6536661">
<ele>1238.63</ele>
<time>2015-04-27T11:58:57Z</time>
</trkpt>
<trkpt lat="35.0283624" lon="32.6537030">
<ele>1239.39</ele>
<time>2015-04-27T11:59:00Z</time>
</trkpt>
<trkpt lat="35.0283147" lon="32.6537379">
<ele>1239.89</ele>
<time>2015-04-27T11:59:04Z</time>
</trkpt>
<trkpt lat="35.0282780" lon="32.6537743">
<ele>1239.17</ele>
<time>2015-04-27T11:59:07Z</time>
</trkpt>
<trkpt lat="35.0282459" lon="32.6538177">
<ele>1238.96</ele>
<time>2015-04-27T11:59:10Z</time>
</trkpt>
<trkpt lat="35.0282157" lon="32.6538644">
<ele>1238.93</ele>
<time>2015-04-27T11:59:13Z</time>
</trkpt>
<trkpt lat="35.0281809" lon="32.6539110">
<ele>1236.55</ele>
<time>2015-04-27T11:59:16Z</time>
</trkpt>
<trkpt lat="35.0281386" lon="32.6539499">
<ele>1236.88</ele>
<time>2015-04-27T11:59:19Z</time>
</trkpt>
<trkpt lat="35.0280893" lon="32.6539744">
<ele>1237.66</ele>
<time>2015-04-27T11:59:21Z</time>
</trkpt>
<trkpt lat="35.0280464" lon="32.6539952">
<ele>1238.36</ele>
<time>2015-04-27T11:59:23Z</time>
</trkpt>
<trkpt lat="35.0280010" lon="32.6539846">
<ele>1240.42</ele>
<time>2015-04-27T12:00:07Z</time>
</trkpt>
<trkpt lat="35.0280472" lon="32.6539557">
<ele>1243.56</ele>
<time>2015-04-27T12:00:39Z</time>
</trkpt>
<trkpt lat="35.0280044" lon="32.6539378">
<ele>1250.96</ele>
<time>2015-04-27T12:03:00Z</time>
</trkpt>
<trkpt lat="35.0280469" lon="32.6539568">
<ele>1242.02</ele>
<time>2015-04-27T12:04:18Z</time>
</trkpt>
<trkpt lat="35.0280603" lon="32.6540167">
<ele>1240.18</ele>
<time>2015-04-27T12:05:00Z</time>
</trkpt>
<trkpt lat="35.0280835" lon="32.6540642">
<ele>1239.93</ele>
<time>2015-04-27T12:05:05Z</time>
</trkpt>
<trkpt lat="35.0280917" lon="32.6541329">
<ele>1239.18</ele>
<time>2015-04-27T12:05:08Z</time>
</trkpt>
<trkpt lat="35.0280886" lon="32.6542106">
<ele>1238.08</ele>
<time>2015-04-27T12:05:11Z</time>
</trkpt>
<trkpt lat="35.0280685" lon="32.6542815">
<ele>1237.44</ele>
<time>2015-04-27T12:05:14Z</time>
</trkpt>
<trkpt lat="35.0280590" lon="32.6543585">
<ele>1237.36</ele>
<time>2015-04-27T12:05:17Z</time>
</trkpt>
<trkpt lat="35.0280512" lon="32.6544147">
<ele>1236.54</ele>
<time>2015-04-27T12:05:19Z</time>
</trkpt>
<trkpt lat="35.0280474" lon="32.6544866">
<ele>1238.13</ele>
<time>2015-04-27T12:05:22Z</time>
</trkpt>
<trkpt lat="35.0280515" lon="32.6545632">
<ele>1240.45</ele>
<time>2015-04-27T12:05:25Z</time>
</trkpt>
<trkpt lat="35.0280483" lon="32.6546386">
<ele>1240.81</ele>
<time>2015-04-27T12:05:27Z</time>
</trkpt>
<trkpt lat="35.0280322" lon="32.6547030">
<ele>1240.90</ele>
<time>2015-04-27T12:05:29Z</time>
</trkpt>
<trkpt lat="35.0280062" lon="32.6547627">
<ele>1241.67</ele>
<time>2015-04-27T12:05:32Z</time>
</trkpt>
<trkpt lat="35.0279896" lon="32.6548316">
<ele>1242.02</ele>
<time>2015-04-27T12:05:35Z</time>
</trkpt>
<trkpt lat="35.0279565" lon="32.6549051">
<ele>1242.44</ele>
<time>2015-04-27T12:05:38Z</time>
</trkpt>
<trkpt lat="35.0279180" lon="32.6549743">
<ele>1242.80</ele>
<time>2015-04-27T12:05:40Z</time>
</trkpt>
<trkpt lat="35.0278747" lon="32.6550356">
<ele>1243.64</ele>
<time>2015-04-27T12:05:42Z</time>
</trkpt>
<trkpt lat="35.0278206" lon="32.6550821">
<ele>1244.10</ele>
<time>2015-04-27T12:05:44Z</time>
</trkpt>
<trkpt lat="35.0277676" lon="32.6551310">
<ele>1241.72</ele>
<time>2015-04-27T12:05:46Z</time>
</trkpt>
<trkpt lat="35.0277160" lon="32.6551740">
<ele>1241.12</ele>
<time>2015-04-27T12:05:48Z</time>
</trkpt>
<trkpt lat="35.0276647" lon="32.6552055">
<ele>1241.72</ele>
<time>2015-04-27T12:05:50Z</time>
</trkpt>
<trkpt lat="35.0276197" lon="32.6552280">
<ele>1240.62</ele>
<time>2015-04-27T12:05:52Z</time>
</trkpt>
<trkpt lat="35.0275607" lon="32.6552222">
<ele>1238.60</ele>
<time>2015-04-27T12:05:54Z</time>
</trkpt>
<trkpt lat="35.0275127" lon="32.6552316">
<ele>1238.34</ele>
<time>2015-04-27T12:05:56Z</time>
</trkpt>
<trkpt lat="35.0274481" lon="32.6552478">
<ele>1237.85</ele>
<time>2015-04-27T12:05:59Z</time>
</trkpt>
<trkpt lat="35.0273886" lon="32.6552896">
<ele>1238.91</ele>
<time>2015-04-27T12:06:01Z</time>
</trkpt>
<trkpt lat="35.0273256" lon="32.6553450">
<ele>1241.92</ele>
<time>2015-04-27T12:06:03Z</time>
</trkpt>
<trkpt lat="35.0272684" lon="32.6553960">
<ele>1241.92</ele>
<time>2015-04-27T12:06:05Z</time>
</trkpt>
<trkpt lat="35.0272312" lon="32.6554293">
<ele>1242.67</ele>
<time>2015-04-27T12:06:07Z</time>
</trkpt>
<trkpt lat="35.0271852" lon="32.6554717">
<ele>1241.64</ele>
<time>2015-04-27T12:06:10Z</time>
</trkpt>
<trkpt lat="35.0271280" lon="32.6555101">
<ele>1239.76</ele>
<time>2015-04-27T12:06:13Z</time>
</trkpt>
<trkpt lat="35.0270808" lon="32.6555354">
<ele>1235.14</ele>
<time>2015-04-27T12:06:15Z</time>
</trkpt>
<trkpt lat="35.0270363" lon="32.6555609">
<ele>1233.48</ele>
<time>2015-04-27T12:06:17Z</time>
</trkpt>
<trkpt lat="35.0269939" lon="32.6555938">
<ele>1235.12</ele>
<time>2015-04-27T12:06:20Z</time>
</trkpt>
<trkpt lat="35.0269499" lon="32.6556272">
<ele>1234.95</ele>
<time>2015-04-27T12:06:23Z</time>
</trkpt>
<trkpt lat="35.0268945" lon="32.6556692">
<ele>1234.43</ele>
<time>2015-04-27T12:06:26Z</time>
</trkpt>
<trkpt lat="35.0268446" lon="32.6557076">
<ele>1234.05</ele>
<time>2015-04-27T12:06:28Z</time>
</trkpt>
<trkpt lat="35.0267984" lon="32.6557516">
<ele>1232.96</ele>
<time>2015-04-27T12:06:30Z</time>
</trkpt>
<trkpt lat="35.0267581" lon="32.6558039">
<ele>1233.43</ele>
<time>2015-04-27T12:06:32Z</time>
</trkpt>
<trkpt lat="35.0267177" lon="32.6558622">
<ele>1233.80</ele>
<time>2015-04-27T12:06:34Z</time>
</trkpt>
<trkpt lat="35.0266667" lon="32.6559294">
<ele>1233.89</ele>
<time>2015-04-27T12:06:36Z</time>
</trkpt>
<trkpt lat="35.0266170" lon="32.6559960">
<ele>1235.42</ele>
<time>2015-04-27T12:06:38Z</time>
</trkpt>
<trkpt lat="35.0265684" lon="32.6560544">
<ele>1235.30</ele>
<time>2015-04-27T12:06:40Z</time>
</trkpt>
<trkpt lat="35.0265294" lon="32.6560983">
<ele>1235.77</ele>
<time>2015-04-27T12:06:42Z</time>
</trkpt>
<trkpt lat="35.0264935" lon="32.6561537">
<ele>1235.16</ele>
<time>2015-04-27T12:06:45Z</time>
</trkpt>
<trkpt lat="35.0264645" lon="32.6562018">
<ele>1235.73</ele>
<time>2015-04-27T12:06:47Z</time>
</trkpt>
<trkpt lat="35.0264312" lon="32.6562799">
<ele>1237.13</ele>
<time>2015-04-27T12:06:49Z</time>
</trkpt>
<trkpt lat="35.0264056" lon="32.6563647">
<ele>1238.23</ele>
<time>2015-04-27T12:06:51Z</time>
</trkpt>
<trkpt lat="35.0263763" lon="32.6564464">
<ele>1238.00</ele>
<time>2015-04-27T12:06:53Z</time>
</trkpt>
<trkpt lat="35.0263526" lon="32.6565259">
<ele>1238.19</ele>
<time>2015-04-27T12:06:55Z</time>
</trkpt>
<trkpt lat="35.0263308" lon="32.6566061">
<ele>1237.99</ele>
<time>2015-04-27T12:06:57Z</time>
</trkpt>
<trkpt lat="35.0263128" lon="32.6566857">
<ele>1238.69</ele>
<time>2015-04-27T12:06:59Z</time>
</trkpt>
<trkpt lat="35.0262985" lon="32.6567606">
<ele>1239.37</ele>
<time>2015-04-27T12:07:01Z</time>
</trkpt>
<trkpt lat="35.0262725" lon="32.6568280">
<ele>1238.29</ele>
<time>2015-04-27T12:07:03Z</time>
</trkpt>
<trkpt lat="35.0262500" lon="32.6568956">
<ele>1238.77</ele>
<time>2015-04-27T12:07:05Z</time>
</trkpt>
<trkpt lat="35.0262542" lon="32.6569774">
<ele>1240.14</ele>
<time>2015-04-27T12:07:07Z</time>
</trkpt>
<trkpt lat="35.0262558" lon="32.6570336">
<ele>1240.53</ele>
<time>2015-04-27T12:07:08Z</time>
</trkpt>
<trkpt lat="35.0262612" lon="32.6570918">
<ele>1240.73</ele>
<time>2015-04-27T12:07:09Z</time>
</trkpt>
<trkpt lat="35.0262802" lon="32.6571598">
<ele>1240.83</ele>
<time>2015-04-27T12:07:10Z</time>
</trkpt>
<trkpt lat="35.0262910" lon="32.6572197">
<ele>1240.88</ele>
<time>2015-04-27T12:07:11Z</time>
</trkpt>
<trkpt lat="35.0262913" lon="32.6572755">
<ele>1240.90</ele>
<time>2015-04-27T12:07:12Z</time>
</trkpt>
<trkpt lat="35.0262977" lon="32.6573911">
<ele>1241.67</ele>
<time>2015-04-27T12:07:14Z</time>
</trkpt>
<trkpt lat="35.0262982" lon="32.6574502">
<ele>1242.30</ele>
<time>2015-04-27T12:07:15Z</time>
</trkpt>
<trkpt lat="35.0262999" lon="32.6575126">
<ele>1243.11</ele>
<time>2015-04-27T12:07:16Z</time>
</trkpt>
<trkpt lat="35.0262935" lon="32.6575839">
<ele>1244.02</ele>
<time>2015-04-27T12:07:17Z</time>
</trkpt>
<trkpt lat="35.0262829" lon="32.6576489">
<ele>1243.97</ele>
<time>2015-04-27T12:07:18Z</time>
</trkpt>
<trkpt lat="35.0262740" lon="32.6577114">
<ele>1243.95</ele>
<time>2015-04-27T12:07:19Z</time>
</trkpt>
<trkpt lat="35.0262658" lon="32.6577793">
<ele>1243.94</ele>
<time>2015-04-27T12:07:20Z</time>
</trkpt>
<trkpt lat="35.0262430" lon="32.6578518">
<ele>1243.93</ele>
<time>2015-04-27T12:07:21Z</time>
</trkpt>
<trkpt lat="35.0262240" lon="32.6579191">
<ele>1243.43</ele>
<time>2015-04-27T12:07:22Z</time>
</trkpt>
<trkpt lat="35.0261954" lon="32.6579807">
<ele>1243.18</ele>
<time>2015-04-27T12:07:23Z</time>
</trkpt>
<trkpt lat="35.0261552" lon="32.6580439">
<ele>1243.05</ele>
<time>2015-04-27T12:07:24Z</time>
</trkpt>
<trkpt lat="35.0261196" lon="32.6580951">
<ele>1242.49</ele>
<time>2015-04-27T12:07:25Z</time>
</trkpt>
<trkpt lat="35.0260912" lon="32.6581504">
<ele>1242.71</ele>
<time>2015-04-27T12:07:26Z</time>
</trkpt>
<trkpt lat="35.0260524" lon="32.6581970">
<ele>1242.82</ele>
<time>2015-04-27T12:07:27Z</time>
</trkpt>
<trkpt lat="35.0260063" lon="32.6582255">
<ele>1242.37</ele>
<time>2015-04-27T12:07:28Z</time>
</trkpt>
<trkpt lat="35.0259574" lon="32.6582620">
<ele>1242.15</ele>
<time>2015-04-27T12:07:29Z</time>
</trkpt>
<trkpt lat="35.0258993" lon="32.6582697">
<ele>1241.54</ele>
<time>2015-04-27T12:07:30Z</time>
</trkpt>
<trkpt lat="35.0258288" lon="32.6582701">
<ele>1241.23</ele>
<time>2015-04-27T12:07:31Z</time>
</trkpt>
<trkpt lat="35.0257670" lon="32.6582585">
<ele>1241.08</ele>
<time>2015-04-27T12:07:32Z</time>
</trkpt>
<trkpt lat="35.0257154" lon="32.6582215">
<ele>1241.00</ele>
<time>2015-04-27T12:07:33Z</time>
</trkpt>
<trkpt lat="35.0256748" lon="32.6581928">
<ele>1241.96</ele>
<time>2015-04-27T12:07:34Z</time>
</trkpt>
<trkpt lat="35.0256176" lon="32.6581797">
<ele>1241.94</ele>
<time>2015-04-27T12:07:35Z</time>
</trkpt>
<trkpt lat="35.0255671" lon="32.6581460">
<ele>1241.93</ele>
<time>2015-04-27T12:07:36Z</time>
</trkpt>
<trkpt lat="35.0255045" lon="32.6581173">
<ele>1241.93</ele>
<time>2015-04-27T12:07:37Z</time>
</trkpt>
<trkpt lat="35.0254477" lon="32.6581025">
<ele>1241.93</ele>
<time>2015-04-27T12:07:38Z</time>
</trkpt>
<trkpt lat="35.0253894" lon="32.6580837">
<ele>1241.93</ele>
<time>2015-04-27T12:07:39Z</time>
</trkpt>
<trkpt lat="35.0253537" lon="32.6580341">
<ele>1241.93</ele>
<time>2015-04-27T12:07:40Z</time>
</trkpt>
<trkpt lat="35.0253013" lon="32.6580241">
<ele>1242.43</ele>
<time>2015-04-27T12:07:41Z</time>
</trkpt>
<trkpt lat="35.0252566" lon="32.6579917">
<ele>1242.68</ele>
<time>2015-04-27T12:07:42Z</time>
</trkpt>
<trkpt lat="35.0252126" lon="32.6579657">
<ele>1242.80</ele>
<time>2015-04-27T12:07:43Z</time>
</trkpt>
<trkpt lat="35.0251596" lon="32.6579357">
<ele>1245.64</ele>
<time>2015-04-27T12:07:45Z</time>
</trkpt>
<trkpt lat="35.0251142" lon="32.6579286">
<ele>1245.78</ele>
<time>2015-04-27T12:07:46Z</time>
</trkpt>
<trkpt lat="35.0250302" lon="32.6579150">
<ele>1245.89</ele>
<time>2015-04-27T12:07:48Z</time>
</trkpt>
<trkpt lat="35.0249862" lon="32.6578995">
<ele>1245.91</ele>
<time>2015-04-27T12:07:49Z</time>
</trkpt>
<trkpt lat="35.0249352" lon="32.6578956">
<ele>1245.42</ele>
<time>2015-04-27T12:07:50Z</time>
</trkpt>
<trkpt lat="35.0248526" lon="32.6578982">
<ele>1245.55</ele>
<time>2015-04-27T12:07:52Z</time>
</trkpt>
<trkpt lat="35.0247810" lon="32.6579464">
<ele>1246.08</ele>
<time>2015-04-27T12:07:54Z</time>
</trkpt>
<trkpt lat="35.0247403" lon="32.6580022">
<ele>1246.46</ele>
<time>2015-04-27T12:07:56Z</time>
</trkpt>
<trkpt lat="35.0247363" lon="32.6580707">
<ele>1246.69</ele>
<time>2015-04-27T12:07:57Z</time>
</trkpt>
<trkpt lat="35.0247182" lon="32.6581295">
<ele>1246.81</ele>
<time>2015-04-27T12:07:58Z</time>
</trkpt>
<trkpt lat="35.0247045" lon="32.6581891">
<ele>1246.87</ele>
<time>2015-04-27T12:07:59Z</time>
</trkpt>
<trkpt lat="35.0246846" lon="32.6582513">
<ele>1246.90</ele>
<time>2015-04-27T12:08:00Z</time>
</trkpt>
<trkpt lat="35.0246688" lon="32.6583115">
<ele>1246.41</ele>
<time>2015-04-27T12:08:01Z</time>
</trkpt>
<trkpt lat="35.0246465" lon="32.6583717">
<ele>1246.17</ele>
<time>2015-04-27T12:08:02Z</time>
</trkpt>
<trkpt lat="35.0246314" lon="32.6584295">
<ele>1246.05</ele>
<time>2015-04-27T12:08:03Z</time>
</trkpt>
<trkpt lat="35.0245969" lon="32.6584740">
<ele>1245.49</ele>
<time>2015-04-27T12:08:04Z</time>
</trkpt>
<trkpt lat="35.0245431" lon="32.6585479">
<ele>1245.82</ele>
<time>2015-04-27T12:08:06Z</time>
</trkpt>
<trkpt lat="35.0244959" lon="32.6586286">
<ele>1245.40</ele>
<time>2015-04-27T12:08:08Z</time>
</trkpt>
<trkpt lat="35.0244672" lon="32.6586734">
<ele>1245.66</ele>
<time>2015-04-27T12:08:09Z</time>
</trkpt>
<trkpt lat="35.0244277" lon="32.6587600">
<ele>1246.36</ele>
<time>2015-04-27T12:08:11Z</time>
</trkpt>
<trkpt lat="35.0243773" lon="32.6588406">
<ele>1246.03</ele>
<time>2015-04-27T12:08:13Z</time>
</trkpt>
<trkpt lat="35.0243465" lon="32.6588849">
<ele>1245.98</ele>
<time>2015-04-27T12:08:14Z</time>
</trkpt>
<trkpt lat="35.0243028" lon="32.6589533">
<ele>1246.94</ele>
<time>2015-04-27T12:08:16Z</time>
</trkpt>
<trkpt lat="35.0242458" lon="32.6589905">
<ele>1247.68</ele>
<time>2015-04-27T12:08:18Z</time>
</trkpt>
<trkpt lat="35.0241717" lon="32.6590075">
<ele>1247.36</ele>
<time>2015-04-27T12:08:20Z</time>
</trkpt>
<trkpt lat="35.0240966" lon="32.6590108">
<ele>1245.78</ele>
<time>2015-04-27T12:08:22Z</time>
</trkpt>
<trkpt lat="35.0240295" lon="32.6590094">
<ele>1245.14</ele>
<time>2015-04-27T12:08:24Z</time>
</trkpt>
<trkpt lat="35.0239814" lon="32.6590083">
<ele>1246.48</ele>
<time>2015-04-27T12:08:26Z</time>
</trkpt>
<trkpt lat="35.0239291" lon="32.6590072">
<ele>1246.56</ele>
<time>2015-04-27T12:08:28Z</time>
</trkpt>
<trkpt lat="35.0238788" lon="32.6590040">
<ele>1245.08</ele>
<time>2015-04-27T12:08:30Z</time>
</trkpt>
<trkpt lat="35.0238254" lon="32.6590054">
<ele>1244.96</ele>
<time>2015-04-27T12:08:32Z</time>
</trkpt>
<trkpt lat="35.0237713" lon="32.6590106">
<ele>1244.93</ele>
<time>2015-04-27T12:08:34Z</time>
</trkpt>
<trkpt lat="35.0237186" lon="32.6590233">
<ele>1244.18</ele>
<time>2015-04-27T12:08:36Z</time>
</trkpt>
<trkpt lat="35.0236681" lon="32.6590415">
<ele>1244.49</ele>
<time>2015-04-27T12:08:38Z</time>
</trkpt>
<trkpt lat="35.0236128" lon="32.6590590">
<ele>1245.07</ele>
<time>2015-04-27T12:08:40Z</time>
</trkpt>
<trkpt lat="35.0235499" lon="32.6590809">
<ele>1245.32</ele>
<time>2015-04-27T12:08:43Z</time>
</trkpt>
<trkpt lat="35.0234939" lon="32.6591129">
<ele>1246.72</ele>
<time>2015-04-27T12:08:46Z</time>
</trkpt>
<trkpt lat="35.0234426" lon="32.6591378">
<ele>1248.62</ele>
<time>2015-04-27T12:08:48Z</time>
</trkpt>
<trkpt lat="35.0233953" lon="32.6591722">
<ele>1249.85</ele>
<time>2015-04-27T12:08:50Z</time>
</trkpt>
<trkpt lat="35.0233590" lon="32.6592286">
<ele>1250.66</ele>
<time>2015-04-27T12:08:52Z</time>
</trkpt>
<trkpt lat="35.0233217" lon="32.6592913">
<ele>1250.11</ele>
<time>2015-04-27T12:08:54Z</time>
</trkpt>
<trkpt lat="35.0232933" lon="32.6593634">
<ele>1249.22</ele>
<time>2015-04-27T12:08:56Z</time>
</trkpt>
<trkpt lat="35.0232766" lon="32.6594377">
<ele>1249.50</ele>
<time>2015-04-27T12:08:58Z</time>
</trkpt>
<trkpt lat="35.0232612" lon="32.6595284">
<ele>1249.82</ele>
<time>2015-04-27T12:09:00Z</time>
</trkpt>
<trkpt lat="35.0232322" lon="32.6596193">
<ele>1250.15</ele>
<time>2015-04-27T12:09:02Z</time>
</trkpt>
<trkpt lat="35.0231779" lon="32.6596842">
<ele>1250.48</ele>
<time>2015-04-27T12:09:04Z</time>
</trkpt>
<trkpt lat="35.0231148" lon="32.6597029">
<ele>1250.31</ele>
<time>2015-04-27T12:09:06Z</time>
</trkpt>
<trkpt lat="35.0230417" lon="32.6597019">
<ele>1247.02</ele>
<time>2015-04-27T12:09:08Z</time>
</trkpt>
<trkpt lat="35.0229656" lon="32.6596900">
<ele>1246.95</ele>
<time>2015-04-27T12:09:10Z</time>
</trkpt>
<trkpt lat="35.0228925" lon="32.6596829">
<ele>1248.68</ele>
<time>2015-04-27T12:09:12Z</time>
</trkpt>
<trkpt lat="35.0228205" lon="32.6596686">
<ele>1249.11</ele>
<time>2015-04-27T12:09:14Z</time>
</trkpt>
<trkpt lat="35.0227469" lon="32.6596603">
<ele>1248.47</ele>
<time>2015-04-27T12:09:16Z</time>
</trkpt>
<trkpt lat="35.0226775" lon="32.6596525">
<ele>1249.31</ele>
<time>2015-04-27T12:09:18Z</time>
</trkpt>
<trkpt lat="35.0226117" lon="32.6596444">
<ele>1251.27</ele>
<time>2015-04-27T12:09:20Z</time>
</trkpt>
<trkpt lat="35.0225473" lon="32.6596290">
<ele>1251.76</ele>
<time>2015-04-27T12:09:22Z</time>
</trkpt>
<trkpt lat="35.0224860" lon="32.6596113">
<ele>1251.88</ele>
<time>2015-04-27T12:09:24Z</time>
</trkpt>
<trkpt lat="35.0224263" lon="32.6595898">
<ele>1251.41</ele>
<time>2015-04-27T12:09:26Z</time>
</trkpt>
<trkpt lat="35.0223673" lon="32.6595705">
<ele>1253.30</ele>
<time>2015-04-27T12:09:28Z</time>
</trkpt>
<trkpt lat="35.0223039" lon="32.6595572">
<ele>1253.02</ele>
<time>2015-04-27T12:09:30Z</time>
</trkpt>
<trkpt lat="35.0222458" lon="32.6595444">
<ele>1253.45</ele>
<time>2015-04-27T12:09:32Z</time>
</trkpt>
<trkpt lat="35.0221947" lon="32.6595122">
<ele>1253.81</ele>
<time>2015-04-27T12:09:34Z</time>
</trkpt>
<trkpt lat="35.0221406" lon="32.6594812">
<ele>1255.15</ele>
<time>2015-04-27T12:09:36Z</time>
</trkpt>
<trkpt lat="35.0220840" lon="32.6594506">
<ele>1255.73</ele>
<time>2015-04-27T12:09:38Z</time>
</trkpt>
<trkpt lat="35.0220310" lon="32.6594151">
<ele>1257.38</ele>
<time>2015-04-27T12:09:40Z</time>
</trkpt>
<trkpt lat="35.0219727" lon="32.6593846">
<ele>1255.04</ele>
<time>2015-04-27T12:09:42Z</time>
</trkpt>
<trkpt lat="35.0219103" lon="32.6593661">
<ele>1254.20</ele>
<time>2015-04-27T12:09:44Z</time>
</trkpt>
<trkpt lat="35.0218416" lon="32.6593449">
<ele>1249.99</ele>
<time>2015-04-27T12:09:46Z</time>
</trkpt>
<trkpt lat="35.0217586" lon="32.6593257">
<ele>1248.94</ele>
<time>2015-04-27T12:09:48Z</time>
</trkpt>
<trkpt lat="35.0217124" lon="32.6593117">
<ele>1249.43</ele>
<time>2015-04-27T12:09:49Z</time>
</trkpt>
<trkpt lat="35.0216661" lon="32.6592958">
<ele>1250.68</ele>
<time>2015-04-27T12:09:50Z</time>
</trkpt>
<trkpt lat="35.0215978" lon="32.6592709">
<ele>1250.80</ele>
<time>2015-04-27T12:09:51Z</time>
</trkpt>
<trkpt lat="35.0215429" lon="32.6592628">
<ele>1250.36</ele>
<time>2015-04-27T12:09:52Z</time>
</trkpt>
<trkpt lat="35.0214853" lon="32.6592586">
<ele>1250.64</ele>
<time>2015-04-27T12:09:53Z</time>
</trkpt>
<trkpt lat="35.0214349" lon="32.6592705">
<ele>1251.28</ele>
<time>2015-04-27T12:09:54Z</time>
</trkpt>
<trkpt lat="35.0213845" lon="32.6592918">
<ele>1251.60</ele>
<time>2015-04-27T12:09:55Z</time>
</trkpt>
<trkpt lat="35.0213081" lon="32.6593114">
<ele>1249.26</ele>
<time>2015-04-27T12:09:56Z</time>
</trkpt>
<trkpt lat="35.0212652" lon="32.6593403">
<ele>1249.09</ele>
<time>2015-04-27T12:09:57Z</time>
</trkpt>
<trkpt lat="35.0211906" lon="32.6593833">
<ele>1249.72</ele>
<time>2015-04-27T12:09:59Z</time>
</trkpt>
<trkpt lat="35.0211442" lon="32.6594182">
<ele>1249.90</ele>
<time>2015-04-27T12:10:02Z</time>
</trkpt>
<trkpt lat="35.0210937" lon="32.6594480">
<ele>1249.80</ele>
<time>2015-04-27T12:10:22Z</time>
</trkpt>
<trkpt lat="35.0210470" lon="32.6594639">
<ele>1249.41</ele>
<time>2015-04-27T12:10:25Z</time>
</trkpt>
<trkpt lat="35.0210011" lon="32.6594609">
<ele>1246.11</ele>
<time>2015-04-27T12:10:56Z</time>
</trkpt>
<trkpt lat="35.0209311" lon="32.6594750">
<ele>1245.24</ele>
<time>2015-04-27T12:11:02Z</time>
</trkpt>
<trkpt lat="35.0208511" lon="32.6594915">
<ele>1243.50</ele>
<time>2015-04-27T12:11:04Z</time>
</trkpt>
<trkpt lat="35.0208069" lon="32.6595017">
<ele>1243.71</ele>
<time>2015-04-27T12:11:05Z</time>
</trkpt>
<trkpt lat="35.0207550" lon="32.6595146">
<ele>1243.82</ele>
<time>2015-04-27T12:11:06Z</time>
</trkpt>
<trkpt lat="35.0206858" lon="32.6595298">
<ele>1243.37</ele>
<time>2015-04-27T12:11:07Z</time>
</trkpt>
<trkpt lat="35.0206291" lon="32.6595450">
<ele>1243.65</ele>
<time>2015-04-27T12:11:08Z</time>
</trkpt>
<trkpt lat="35.0205634" lon="32.6595561">
<ele>1243.29</ele>
<time>2015-04-27T12:11:09Z</time>
</trkpt>
<trkpt lat="35.0204971" lon="32.6595691">
<ele>1242.61</ele>
<time>2015-04-27T12:11:10Z</time>
</trkpt>
<trkpt lat="35.0204228" lon="32.6595882">
<ele>1242.27</ele>
<time>2015-04-27T12:11:11Z</time>
</trkpt>
<trkpt lat="35.0203474" lon="32.6596157">
<ele>1242.60</ele>
<time>2015-04-27T12:11:12Z</time>
</trkpt>
<trkpt lat="35.0202673" lon="32.6596529">
<ele>1242.76</ele>
<time>2015-04-27T12:11:13Z</time>
</trkpt>
<trkpt lat="35.0201852" lon="32.6596884">
<ele>1242.34</ele>
<time>2015-04-27T12:11:14Z</time>
</trkpt>
<trkpt lat="35.0201150" lon="32.6597497">
<ele>1242.13</ele>
<time>2015-04-27T12:11:15Z</time>
</trkpt>
<trkpt lat="35.0200566" lon="32.6598268">
<ele>1241.53</ele>
<time>2015-04-27T12:11:16Z</time>
</trkpt>
<trkpt lat="35.0199938" lon="32.6599023">
<ele>1240.73</ele>
<time>2015-04-27T12:11:17Z</time>
</trkpt>
<trkpt lat="35.0199232" lon="32.6599878">
<ele>1239.83</ele>
<time>2015-04-27T12:11:18Z</time>
</trkpt>
<trkpt lat="35.0198406" lon="32.6600703">
<ele>1239.38</ele>
<time>2015-04-27T12:11:19Z</time>
</trkpt>
<trkpt lat="35.0197441" lon="32.6601362">
<ele>1238.15</ele>
<time>2015-04-27T12:11:20Z</time>
</trkpt>
<trkpt lat="35.0196595" lon="32.6602136">
<ele>1237.04</ele>
<time>2015-04-27T12:11:21Z</time>
</trkpt>
<trkpt lat="35.0195738" lon="32.6603024">
<ele>1235.98</ele>
<time>2015-04-27T12:11:22Z</time>
</trkpt>
<trkpt lat="35.0194829" lon="32.6603933">
<ele>1235.45</ele>
<time>2015-04-27T12:11:23Z</time>
</trkpt>
<trkpt lat="35.0193904" lon="32.6604890">
<ele>1234.19</ele>
<time>2015-04-27T12:11:24Z</time>
</trkpt>
<trkpt lat="35.0193026" lon="32.6605982">
<ele>1233.56</ele>
<time>2015-04-27T12:11:25Z</time>
</trkpt>
<trkpt lat="35.0192025" lon="32.6607002">
<ele>1232.24</ele>
<time>2015-04-27T12:11:26Z</time>
</trkpt>
<trkpt lat="35.0191052" lon="32.6608046">
<ele>1232.08</ele>
<time>2015-04-27T12:11:27Z</time>
</trkpt>
<trkpt lat="35.0189894" lon="32.6608978">
<ele>1232.00</ele>
<time>2015-04-27T12:11:28Z</time>
</trkpt>
<trkpt lat="35.0188781" lon="32.6609690">
<ele>1231.96</ele>
<time>2015-04-27T12:11:29Z</time>
</trkpt>
<trkpt lat="35.0187720" lon="32.6610397">
<ele>1231.94</ele>
<time>2015-04-27T12:11:30Z</time>
</trkpt>
<trkpt lat="35.0186666" lon="32.6611120">
<ele>1231.93</ele>
<time>2015-04-27T12:11:31Z</time>
</trkpt>
<trkpt lat="35.0185688" lon="32.6611841">
<ele>1231.43</ele>
<time>2015-04-27T12:11:32Z</time>
</trkpt>
<trkpt lat="35.0184726" lon="32.6612605">
<ele>1231.18</ele>
<time>2015-04-27T12:11:33Z</time>
</trkpt>
<trkpt lat="35.0183867" lon="32.6613340">
<ele>1230.55</ele>
<time>2015-04-27T12:11:34Z</time>
</trkpt>
<trkpt lat="35.0183015" lon="32.6614133">
<ele>1230.24</ele>
<time>2015-04-27T12:11:35Z</time>
</trkpt>
<trkpt lat="35.0182169" lon="32.6614985">
<ele>1229.58</ele>
<time>2015-04-27T12:11:36Z</time>
</trkpt>
<trkpt lat="35.0181247" lon="32.6615746">
<ele>1229.25</ele>
<time>2015-04-27T12:11:37Z</time>
</trkpt>
<trkpt lat="35.0180506" lon="32.6616433">
<ele>1228.09</ele>
<time>2015-04-27T12:11:38Z</time>
</trkpt>
<trkpt lat="35.0179605" lon="32.6617326">
<ele>1227.51</ele>
<time>2015-04-27T12:11:39Z</time>
</trkpt>
<trkpt lat="35.0178725" lon="32.6618112">
<ele>1226.72</ele>
<time>2015-04-27T12:11:40Z</time>
</trkpt>
<trkpt lat="35.0177797" lon="32.6619142">
<ele>1226.32</ele>
<time>2015-04-27T12:11:41Z</time>
</trkpt>
<trkpt lat="35.0176810" lon="32.6619957">
<ele>1225.62</ele>
<time>2015-04-27T12:11:42Z</time>
</trkpt>
<trkpt lat="35.0175933" lon="32.6620858">
<ele>1224.77</ele>
<time>2015-04-27T12:11:43Z</time>
</trkpt>
<trkpt lat="35.0174960" lon="32.6621782">
<ele>1223.35</ele>
<time>2015-04-27T12:11:44Z</time>
</trkpt>
<trkpt lat="35.0174062" lon="32.6622643">
<ele>1222.64</ele>
<time>2015-04-27T12:11:45Z</time>
</trkpt>
<trkpt lat="35.0173251" lon="32.6623342">
<ele>1222.28</ele>
<time>2015-04-27T12:11:46Z</time>
</trkpt>
<trkpt lat="35.0172386" lon="32.6623945">
<ele>1222.10</ele>
<time>2015-04-27T12:11:47Z</time>
</trkpt>
<trkpt lat="35.0171596" lon="32.6624301">
<ele>1221.51</ele>
<time>2015-04-27T12:11:48Z</time>
</trkpt>
<trkpt lat="35.0170918" lon="32.6624477">
<ele>1220.72</ele>
<time>2015-04-27T12:11:49Z</time>
</trkpt>
<trkpt lat="35.0170183" lon="32.6624524">
<ele>1220.32</ele>
<time>2015-04-27T12:11:50Z</time>
</trkpt>
<trkpt lat="35.0169425" lon="32.6624437">
<ele>1220.12</ele>
<time>2015-04-27T12:11:51Z</time>
</trkpt>
<trkpt lat="35.0168670" lon="32.6624133">
<ele>1219.52</ele>
<time>2015-04-27T12:11:52Z</time>
</trkpt>
<trkpt lat="35.0168115" lon="32.6623703">
<ele>1219.22</ele>
<time>2015-04-27T12:11:53Z</time>
</trkpt>
<trkpt lat="35.0167555" lon="32.6623218">
<ele>1218.57</ele>
<time>2015-04-27T12:11:54Z</time>
</trkpt>
<trkpt lat="35.0166970" lon="32.6622853">
<ele>1218.75</ele>
<time>2015-04-27T12:11:55Z</time>
</trkpt>
<trkpt lat="35.0166335" lon="32.6622633">
<ele>1218.84</ele>
<time>2015-04-27T12:11:56Z</time>
</trkpt>
<trkpt lat="35.0165740" lon="32.6622203">
<ele>1218.88</ele>
<time>2015-04-27T12:11:57Z</time>
</trkpt>
<trkpt lat="35.0164853" lon="32.6622320">
<ele>1218.90</ele>
<time>2015-04-27T12:11:58Z</time>
</trkpt>
<trkpt lat="35.0164382" lon="32.6622091">
<ele>1218.91</ele>
<time>2015-04-27T12:11:59Z</time>
</trkpt>
<trkpt lat="35.0163908" lon="32.6621715">
<ele>1217.92</ele>
<time>2015-04-27T12:12:00Z</time>
</trkpt>
<trkpt lat="35.0163116" lon="32.6621444">
<ele>1216.42</ele>
<time>2015-04-27T12:12:01Z</time>
</trkpt>
<trkpt lat="35.0162610" lon="32.6620925">
<ele>1216.17</ele>
<time>2015-04-27T12:12:02Z</time>
</trkpt>
<trkpt lat="35.0162090" lon="32.6620253">
<ele>1216.05</ele>
<time>2015-04-27T12:12:03Z</time>
</trkpt>
<trkpt lat="35.0161551" lon="32.6619677">
<ele>1216.49</ele>
<time>2015-04-27T12:12:04Z</time>
</trkpt>
<trkpt lat="35.0160858" lon="32.6619219">
<ele>1216.71</ele>
<time>2015-04-27T12:12:05Z</time>
</trkpt>
<trkpt lat="35.0160144" lon="32.6618969">
<ele>1216.82</ele>
<time>2015-04-27T12:12:06Z</time>
</trkpt>
<trkpt lat="35.0159443" lon="32.6618792">
<ele>1215.87</ele>
<time>2015-04-27T12:12:07Z</time>
</trkpt>
<trkpt lat="35.0158684" lon="32.6618833">
<ele>1214.90</ele>
<time>2015-04-27T12:12:08Z</time>
</trkpt>
<trkpt lat="35.0158043" lon="32.6619209">
<ele>1213.91</ele>
<time>2015-04-27T12:12:09Z</time>
</trkpt>
<trkpt lat="35.0157402" lon="32.6619492">
<ele>1212.92</ele>
<time>2015-04-27T12:12:10Z</time>
</trkpt>
<trkpt lat="35.0156774" lon="32.6619854">
<ele>1212.42</ele>
<time>2015-04-27T12:12:11Z</time>
</trkpt>
<trkpt lat="35.0156018" lon="32.6620207">
<ele>1211.17</ele>
<time>2015-04-27T12:12:12Z</time>
</trkpt>
<trkpt lat="35.0155517" lon="32.6620818">
<ele>1211.05</ele>
<time>2015-04-27T12:12:13Z</time>
</trkpt>
<trkpt lat="35.0154922" lon="32.6621486">
<ele>1210.49</ele>
<time>2015-04-27T12:12:14Z</time>
</trkpt>
<trkpt lat="35.0154734" lon="32.6622416">
<ele>1210.21</ele>
<time>2015-04-27T12:12:15Z</time>
</trkpt>
<trkpt lat="35.0154557" lon="32.6623251">
<ele>1210.07</ele>
<time>2015-04-27T12:12:16Z</time>
</trkpt>
<trkpt lat="35.0154078" lon="32.6624047">
<ele>1209.50</ele>
<time>2015-04-27T12:12:17Z</time>
</trkpt>
<trkpt lat="35.0153332" lon="32.6624703">
<ele>1209.21</ele>
<time>2015-04-27T12:12:18Z</time>
</trkpt>
<trkpt lat="35.0152784" lon="32.6625514">
<ele>1208.57</ele>
<time>2015-04-27T12:12:19Z</time>
</trkpt>
<trkpt lat="35.0152374" lon="32.6626335">
<ele>1208.75</ele>
<time>2015-04-27T12:12:20Z</time>
</trkpt>
<trkpt lat="35.0152057" lon="32.6627204">
<ele>1208.34</ele>
<time>2015-04-27T12:12:21Z</time>
</trkpt>
<trkpt lat="35.0151550" lon="32.6627945">
<ele>1207.13</ele>
<time>2015-04-27T12:12:22Z</time>
</trkpt>
<trkpt lat="35.0151276" lon="32.6628607">
<ele>1207.03</ele>
<time>2015-04-27T12:12:23Z</time>
</trkpt>
<trkpt lat="35.0150811" lon="32.6629172">
<ele>1206.48</ele>
<time>2015-04-27T12:12:24Z</time>
</trkpt>
<trkpt lat="35.0150429" lon="32.6629707">
<ele>1206.70</ele>
<time>2015-04-27T12:12:25Z</time>
</trkpt>
<trkpt lat="35.0150111" lon="32.6630150">
<ele>1206.31</ele>
<time>2015-04-27T12:12:26Z</time>
</trkpt>
<trkpt lat="35.0149149" lon="32.6630280">
<ele>1205.12</ele>
<time>2015-04-27T12:12:27Z</time>
</trkpt>
<trkpt lat="35.0148299" lon="32.6630386">
<ele>1204.02</ele>
<time>2015-04-27T12:12:28Z</time>
</trkpt>
<trkpt lat="35.0147426" lon="32.6630287">
<ele>1202.97</ele>
<time>2015-04-27T12:12:29Z</time>
</trkpt>
<trkpt lat="35.0146639" lon="32.6630524">
<ele>1201.95</ele>
<time>2015-04-27T12:12:30Z</time>
</trkpt>
<trkpt lat="35.0146016" lon="32.6631225">
<ele>1200.94</ele>
<time>2015-04-27T12:12:31Z</time>
</trkpt>
<trkpt lat="35.0144967" lon="32.6631406">
<ele>1200.43</ele>
<time>2015-04-27T12:12:32Z</time>
</trkpt>
<trkpt lat="35.0144248" lon="32.6631940">
<ele>1199.18</ele>
<time>2015-04-27T12:12:33Z</time>
</trkpt>
<trkpt lat="35.0143570" lon="32.6632062">
<ele>1200.05</ele>
<time>2015-04-27T12:12:34Z</time>
</trkpt>
<trkpt lat="35.0142651" lon="32.6632046">
<ele>1199.99</ele>
<time>2015-04-27T12:12:35Z</time>
</trkpt>
<trkpt lat="35.0141923" lon="32.6631589">
<ele>1199.96</ele>
<time>2015-04-27T12:12:36Z</time>
</trkpt>
<trkpt lat="35.0141419" lon="32.6630794">
<ele>1199.94</ele>
<time>2015-04-27T12:12:37Z</time>
</trkpt>
<trkpt lat="35.0140680" lon="32.6630296">
<ele>1200.93</ele>
<time>2015-04-27T12:12:38Z</time>
</trkpt>
<trkpt lat="35.0139990" lon="32.6629816">
<ele>1201.43</ele>
<time>2015-04-27T12:12:39Z</time>
</trkpt>
<trkpt lat="35.0139659" lon="32.6629057">
<ele>1200.68</ele>
<time>2015-04-27T12:12:40Z</time>
</trkpt>
<trkpt lat="35.0139000" lon="32.6628902">
<ele>1200.80</ele>
<time>2015-04-27T12:12:41Z</time>
</trkpt>
<trkpt lat="35.0138005" lon="32.6629089">
<ele>1201.36</ele>
<time>2015-04-27T12:12:42Z</time>
</trkpt>
<trkpt lat="35.0137318" lon="32.6628951">
<ele>1200.64</ele>
<time>2015-04-27T12:12:43Z</time>
</trkpt>
<trkpt lat="35.0136465" lon="32.6629201">
<ele>1200.28</ele>
<time>2015-04-27T12:12:44Z</time>
</trkpt>
<trkpt lat="35.0135864" lon="32.6629617">
<ele>1199.60</ele>
<time>2015-04-27T12:12:45Z</time>
</trkpt>
<trkpt lat="35.0134960" lon="32.6629940">
<ele>1199.26</ele>
<time>2015-04-27T12:12:46Z</time>
</trkpt>
<trkpt lat="35.0134103" lon="32.6630046">
<ele>1198.59</ele>
<time>2015-04-27T12:12:47Z</time>
</trkpt>
<trkpt lat="35.0133510" lon="32.6630943">
<ele>1197.76</ele>
<time>2015-04-27T12:12:48Z</time>
</trkpt>
<trkpt lat="35.0132512" lon="32.6631458">
<ele>1197.34</ele>
<time>2015-04-27T12:12:49Z</time>
</trkpt>
<trkpt lat="35.0131384" lon="32.6631846">
<ele>1197.13</ele>
<time>2015-04-27T12:12:50Z</time>
</trkpt>
<trkpt lat="35.0130606" lon="32.6632077">
<ele>1196.53</ele>
<time>2015-04-27T12:12:51Z</time>
</trkpt>
<trkpt lat="35.0129694" lon="32.6632788">
<ele>1195.23</ele>
<time>2015-04-27T12:12:52Z</time>
</trkpt>
<trkpt lat="35.0128656" lon="32.6633024">
<ele>1194.08</ele>
<time>2015-04-27T12:12:53Z</time>
</trkpt>
<trkpt lat="35.0127656" lon="32.6633328">
<ele>1194.00</ele>
<time>2015-04-27T12:12:54Z</time>
</trkpt>
<trkpt lat="35.0126612" lon="32.6633403">
<ele>1193.46</ele>
<time>2015-04-27T12:12:55Z</time>
</trkpt>
<trkpt lat="35.0125801" lon="32.6634152">
<ele>1193.19</ele>
<time>2015-04-27T12:12:56Z</time>
</trkpt>
<trkpt lat="35.0124852" lon="32.6634543">
<ele>1193.06</ele>
<time>2015-04-27T12:12:57Z</time>
</trkpt>
<trkpt lat="35.0124078" lon="32.6634798">
<ele>1192.99</ele>
<time>2015-04-27T12:12:58Z</time>
</trkpt>
<trkpt lat="35.0123268" lon="32.6635153">
<ele>1191.96</ele>
<time>2015-04-27T12:12:59Z</time>
</trkpt>
<trkpt lat="35.0122043" lon="32.6635210">
<ele>1190.44</ele>
<time>2015-04-27T12:13:00Z</time>
</trkpt>
<trkpt lat="35.0121171" lon="32.6635117">
<ele>1190.68</ele>
<time>2015-04-27T12:13:01Z</time>
</trkpt>
<trkpt lat="35.0120106" lon="32.6635299">
<ele>1190.80</ele>
<time>2015-04-27T12:13:02Z</time>
</trkpt>
<trkpt lat="35.0119172" lon="32.6635171">
<ele>1190.36</ele>
<time>2015-04-27T12:13:03Z</time>
</trkpt>
<trkpt lat="35.0118182" lon="32.6635262">
<ele>1189.64</ele>
<time>2015-04-27T12:13:04Z</time>
</trkpt>
<trkpt lat="35.0117175" lon="32.6635491">
<ele>1189.78</ele>
<time>2015-04-27T12:13:05Z</time>
</trkpt>
<trkpt lat="35.0116327" lon="32.6635903">
<ele>1189.85</ele>
<time>2015-04-27T12:13:06Z</time>
</trkpt>
<trkpt lat="35.0115320" lon="32.6636069">
<ele>1189.89</ele>
<time>2015-04-27T12:13:07Z</time>
</trkpt>
<trkpt lat="35.0114384" lon="32.6636125">
<ele>1189.41</ele>
<time>2015-04-27T12:13:08Z</time>
</trkpt>
<trkpt lat="35.0113468" lon="32.6636230">
<ele>1189.17</ele>
<time>2015-04-27T12:13:09Z</time>
</trkpt>
<trkpt lat="35.0112556" lon="32.6636312">
<ele>1189.05</ele>
<time>2015-04-27T12:13:10Z</time>
</trkpt>
<trkpt lat="35.0111475" lon="32.6636569">
<ele>1187.99</ele>
<time>2015-04-27T12:13:11Z</time>
</trkpt>
<trkpt lat="35.0110493" lon="32.6636707">
<ele>1187.46</ele>
<time>2015-04-27T12:13:12Z</time>
</trkpt>
<trkpt lat="35.0109720" lon="32.6636768">
<ele>1187.19</ele>
<time>2015-04-27T12:13:13Z</time>
</trkpt>
<trkpt lat="35.0109011" lon="32.6636884">
<ele>1187.06</ele>
<time>2015-04-27T12:13:14Z</time>
</trkpt>
<trkpt lat="35.0108297" lon="32.6637282">
<ele>1187.71</ele>
<time>2015-04-27T12:13:16Z</time>
</trkpt>
<trkpt lat="35.0108436" lon="32.6638142">
<ele>1187.12</ele>
<time>2015-04-27T12:13:18Z</time>
</trkpt>
<trkpt lat="35.0108967" lon="32.6638994">
<ele>1186.22</ele>
<time>2015-04-27T12:13:20Z</time>
</trkpt>
<trkpt lat="35.0109544" lon="32.6639347">
<ele>1186.57</ele>
<time>2015-04-27T12:13:21Z</time>
</trkpt>
<trkpt lat="35.0109975" lon="32.6639520">
<ele>1186.75</ele>
<time>2015-04-27T12:13:22Z</time>
</trkpt>
<trkpt lat="35.0110706" lon="32.6639928">
<ele>1186.84</ele>
<time>2015-04-27T12:13:23Z</time>
</trkpt>
<trkpt lat="35.0111365" lon="32.6640348">
<ele>1183.90</ele>
<time>2015-04-27T12:13:25Z</time>
</trkpt>
<trkpt lat="35.0112292" lon="32.6640681">
<ele>1183.91</ele>
<time>2015-04-27T12:13:26Z</time>
</trkpt>
<trkpt lat="35.0112652" lon="32.6641152">
<ele>1183.42</ele>
<time>2015-04-27T12:13:27Z</time>
</trkpt>
<trkpt lat="35.0113148" lon="32.6641422">
<ele>1183.17</ele>
<time>2015-04-27T12:13:28Z</time>
</trkpt>
<trkpt lat="35.0113905" lon="32.6642144">
<ele>1182.55</ele>
<time>2015-04-27T12:13:29Z</time>
</trkpt>
<trkpt lat="35.0114544" lon="32.6642713">
<ele>1182.24</ele>
<time>2015-04-27T12:13:30Z</time>
</trkpt>
<trkpt lat="35.0114957" lon="32.6643500">
<ele>1182.08</ele>
<time>2015-04-27T12:13:31Z</time>
</trkpt>
<trkpt lat="35.0115052" lon="32.6644537">
<ele>1182.00</ele>
<time>2015-04-27T12:13:32Z</time>
</trkpt>
<trkpt lat="35.0114851" lon="32.6645511">
<ele>1182.46</ele>
<time>2015-04-27T12:13:33Z</time>
</trkpt>
<trkpt lat="35.0114766" lon="32.6646307">
<ele>1182.69</ele>
<time>2015-04-27T12:13:34Z</time>
</trkpt>
<trkpt lat="35.0114555" lon="32.6647051">
<ele>1182.81</ele>
<time>2015-04-27T12:13:35Z</time>
</trkpt>
<trkpt lat="35.0114154" lon="32.6647801">
<ele>1182.87</ele>
<time>2015-04-27T12:13:36Z</time>
</trkpt>
<trkpt lat="35.0113664" lon="32.6648725">
<ele>1181.90</ele>
<time>2015-04-27T12:13:37Z</time>
</trkpt>
<trkpt lat="35.0113370" lon="32.6649528">
<ele>1180.91</ele>
<time>2015-04-27T12:13:38Z</time>
</trkpt>
<trkpt lat="35.0112968" lon="32.6650219">
<ele>1180.42</ele>
<time>2015-04-27T12:13:39Z</time>
</trkpt>
<trkpt lat="35.0112477" lon="32.6650810">
<ele>1180.17</ele>
<time>2015-04-27T12:13:40Z</time>
</trkpt>
<trkpt lat="35.0112561" lon="32.6651799">
<ele>1180.05</ele>
<time>2015-04-27T12:13:41Z</time>
</trkpt>
<trkpt lat="35.0112227" lon="32.6652417">
<ele>1178.99</ele>
<time>2015-04-27T12:13:42Z</time>
</trkpt>
<trkpt lat="35.0111939" lon="32.6653334">
<ele>1178.46</ele>
<time>2015-04-27T12:13:43Z</time>
</trkpt>
<trkpt lat="35.0111553" lon="32.6653962">
<ele>1178.19</ele>
<time>2015-04-27T12:13:44Z</time>
</trkpt>
<trkpt lat="35.0111158" lon="32.6654393">
<ele>1178.06</ele>
<time>2015-04-27T12:13:45Z</time>
</trkpt>
<trkpt lat="35.0110675" lon="32.6654926">
<ele>1177.99</ele>
<time>2015-04-27T12:13:46Z</time>
</trkpt>
<trkpt lat="35.0110129" lon="32.6655403">
<ele>1177.96</ele>
<time>2015-04-27T12:13:47Z</time>
</trkpt>
<trkpt lat="35.0109595" lon="32.6656286">
<ele>1177.44</ele>
<time>2015-04-27T12:13:48Z</time>
</trkpt>
<trkpt lat="35.0108810" lon="32.6656610">
<ele>1176.68</ele>
<time>2015-04-27T12:13:49Z</time>
</trkpt>
<trkpt lat="35.0108343" lon="32.6657324">
<ele>1175.80</ele>
<time>2015-04-27T12:13:50Z</time>
</trkpt>
<trkpt lat="35.0108070" lon="32.6658281">
<ele>1174.86</ele>
<time>2015-04-27T12:13:51Z</time>
</trkpt>
<trkpt lat="35.0107893" lon="32.6659108">
<ele>1174.39</ele>
<time>2015-04-27T12:13:52Z</time>
</trkpt>
<trkpt lat="35.0107733" lon="32.6659792">
<ele>1173.66</ele>
<time>2015-04-27T12:13:53Z</time>
</trkpt>
<trkpt lat="35.0107895" lon="32.6660621">
<ele>1173.79</ele>
<time>2015-04-27T12:13:54Z</time>
</trkpt>
<trkpt lat="35.0108172" lon="32.6661361">
<ele>1172.86</ele>
<time>2015-04-27T12:13:55Z</time>
</trkpt>
<trkpt lat="35.0108644" lon="32.6662104">
<ele>1172.89</ele>
<time>2015-04-27T12:13:56Z</time>
</trkpt>
<trkpt lat="35.0108910" lon="32.6662837">
<ele>1172.41</ele>
<time>2015-04-27T12:13:57Z</time>
</trkpt>
<trkpt lat="35.0109266" lon="32.6663675">
<ele>1172.17</ele>
<time>2015-04-27T12:13:58Z</time>
</trkpt>
<trkpt lat="35.0109730" lon="32.6664295">
<ele>1172.05</ele>
<time>2015-04-27T12:13:59Z</time>
</trkpt>
<trkpt lat="35.0110059" lon="32.6664983">
<ele>1171.99</ele>
<time>2015-04-27T12:14:00Z</time>
</trkpt>
<trkpt lat="35.0110381" lon="32.6665787">
<ele>1172.46</ele>
<time>2015-04-27T12:14:01Z</time>
</trkpt>
<trkpt lat="35.0110557" lon="32.6666445">
<ele>1171.69</ele>
<time>2015-04-27T12:14:02Z</time>
</trkpt>
<trkpt lat="35.0110564" lon="32.6667281">
<ele>1171.81</ele>
<time>2015-04-27T12:14:03Z</time>
</trkpt>
<trkpt lat="35.0110716" lon="32.6668191">
<ele>1170.37</ele>
<time>2015-04-27T12:14:04Z</time>
</trkpt>
<trkpt lat="35.0111306" lon="32.6669214">
<ele>1169.65</ele>
<time>2015-04-27T12:14:05Z</time>
</trkpt>
<trkpt lat="35.0111190" lon="32.6670085">
<ele>1168.79</ele>
<time>2015-04-27T12:14:06Z</time>
</trkpt>
<trkpt lat="35.0111410" lon="32.6671088">
<ele>1168.86</ele>
<time>2015-04-27T12:14:07Z</time>
</trkpt>
<trkpt lat="35.0111773" lon="32.6672250">
<ele>1168.89</ele>
<time>2015-04-27T12:14:08Z</time>
</trkpt>
<trkpt lat="35.0112006" lon="32.6673175">
<ele>1168.41</ele>
<time>2015-04-27T12:14:09Z</time>
</trkpt>
<trkpt lat="35.0112303" lon="32.6674071">
<ele>1168.17</ele>
<time>2015-04-27T12:14:10Z</time>
</trkpt>
<trkpt lat="35.0112605" lon="32.6675014">
<ele>1168.05</ele>
<time>2015-04-27T12:14:11Z</time>
</trkpt>
<trkpt lat="35.0112649" lon="32.6675874">
<ele>1168.49</ele>
<time>2015-04-27T12:14:12Z</time>
</trkpt>
<trkpt lat="35.0112701" lon="32.6676700">
<ele>1168.71</ele>
<time>2015-04-27T12:14:13Z</time>
</trkpt>
<trkpt lat="35.0112871" lon="32.6677350">
<ele>1168.32</ele>
<time>2015-04-27T12:14:14Z</time>
</trkpt>
<trkpt lat="35.0112985" lon="32.6678026">
<ele>1167.62</ele>
<time>2015-04-27T12:14:15Z</time>
</trkpt>
<trkpt lat="35.0112913" lon="32.6678750">
<ele>1167.27</ele>
<time>2015-04-27T12:14:16Z</time>
</trkpt>
<trkpt lat="35.0112890" lon="32.6679336">
<ele>1166.60</ele>
<time>2015-04-27T12:14:17Z</time>
</trkpt>
<trkpt lat="35.0112790" lon="32.6680462">
<ele>1166.59</ele>
<time>2015-04-27T12:14:19Z</time>
</trkpt>
<trkpt lat="35.0112792" lon="32.6681239">
<ele>1166.76</ele>
<time>2015-04-27T12:14:22Z</time>
</trkpt>
<trkpt lat="35.0112803" lon="32.6681860">
<ele>1167.63</ele>
<time>2015-04-27T12:14:24Z</time>
</trkpt>
<trkpt lat="35.0112628" lon="32.6682566">
<ele>1167.35</ele>
<time>2015-04-27T12:14:26Z</time>
</trkpt>
<trkpt lat="35.0112541" lon="32.6683250">
<ele>1166.35</ele>
<time>2015-04-27T12:14:29Z</time>
</trkpt>
<trkpt lat="35.0112666" lon="32.6683900">
<ele>1164.74</ele>
<time>2015-04-27T12:17:11Z</time>
</trkpt>
<trkpt lat="35.0112574" lon="32.6684523">
<ele>1165.63</ele>
<time>2015-04-27T12:17:13Z</time>
</trkpt>
<trkpt lat="35.0112638" lon="32.6685302">
<ele>1167.35</ele>
<time>2015-04-27T12:17:15Z</time>
</trkpt>
<trkpt lat="35.0112586" lon="32.6686058">
<ele>1166.53</ele>
<time>2015-04-27T12:17:17Z</time>
</trkpt>
<trkpt lat="35.0112510" lon="32.6686821">
<ele>1168.08</ele>
<time>2015-04-27T12:17:19Z</time>
</trkpt>
<trkpt lat="35.0112419" lon="32.6687588">
<ele>1168.46</ele>
<time>2015-04-27T12:17:21Z</time>
</trkpt>
<trkpt lat="35.0112470" lon="32.6688382">
<ele>1169.06</ele>
<time>2015-04-27T12:17:23Z</time>
</trkpt>
<trkpt lat="35.0112709" lon="32.6689150">
<ele>1169.71</ele>
<time>2015-04-27T12:17:25Z</time>
</trkpt>
<trkpt lat="35.0113084" lon="32.6689861">
<ele>1169.37</ele>
<time>2015-04-27T12:17:27Z</time>
</trkpt>
<trkpt lat="35.0113538" lon="32.6690541">
<ele>1168.29</ele>
<time>2015-04-27T12:17:29Z</time>
</trkpt>
<trkpt lat="35.0114026" lon="32.6691388">
<ele>1167.27</ele>
<time>2015-04-27T12:17:31Z</time>
</trkpt>
<trkpt lat="35.0114264" lon="32.6691859">
<ele>1167.60</ele>
<time>2015-04-27T12:17:32Z</time>
</trkpt>
<trkpt lat="35.0114469" lon="32.6692358">
<ele>1167.76</ele>
<time>2015-04-27T12:17:33Z</time>
</trkpt>
<trkpt lat="35.0114644" lon="32.6692944">
<ele>1167.34</ele>
<time>2015-04-27T12:17:34Z</time>
</trkpt>
<trkpt lat="35.0114594" lon="32.6693817">
<ele>1167.63</ele>
<time>2015-04-27T12:17:35Z</time>
</trkpt>
<trkpt lat="35.0114546" lon="32.6694537">
<ele>1167.78</ele>
<time>2015-04-27T12:17:36Z</time>
</trkpt>
<trkpt lat="35.0114389" lon="32.6695189">
<ele>1167.35</ele>
<time>2015-04-27T12:17:37Z</time>
</trkpt>
<trkpt lat="35.0114232" lon="32.6695810">
<ele>1167.64</ele>
<time>2015-04-27T12:17:38Z</time>
</trkpt>
<trkpt lat="35.0114139" lon="32.6696534">
<ele>1167.78</ele>
<time>2015-04-27T12:17:39Z</time>
</trkpt>
<trkpt lat="35.0114055" lon="32.6697249">
<ele>1168.35</ele>
<time>2015-04-27T12:17:40Z</time>
</trkpt>
<trkpt lat="35.0113793" lon="32.6697942">
<ele>1168.14</ele>
<time>2015-04-27T12:17:41Z</time>
</trkpt>
<trkpt lat="35.0113513" lon="32.6698607">
<ele>1168.53</ele>
<time>2015-04-27T12:17:42Z</time>
</trkpt>
<trkpt lat="35.0113153" lon="32.6699340">
<ele>1167.73</ele>
<time>2015-04-27T12:17:43Z</time>
</trkpt>
<trkpt lat="35.0113027" lon="32.6700064">
<ele>1167.33</ele>
<time>2015-04-27T12:17:44Z</time>
</trkpt>
<trkpt lat="35.0113052" lon="32.6700843">
<ele>1166.63</ele>
<time>2015-04-27T12:17:45Z</time>
</trkpt>
<trkpt lat="35.0113366" lon="32.6701568">
<ele>1166.28</ele>
<time>2015-04-27T12:17:46Z</time>
</trkpt>
<trkpt lat="35.0113781" lon="32.6702150">
<ele>1165.60</ele>
<time>2015-04-27T12:17:47Z</time>
</trkpt>
<trkpt lat="35.0114460" lon="32.6702545">
<ele>1165.26</ele>
<time>2015-04-27T12:17:48Z</time>
</trkpt>
<trkpt lat="35.0115052" lon="32.6702723">
<ele>1165.09</ele>
<time>2015-04-27T12:17:49Z</time>
</trkpt>
<trkpt lat="35.0115730" lon="32.6702759">
<ele>1165.01</ele>
<time>2015-04-27T12:17:50Z</time>
</trkpt>
<trkpt lat="35.0116398" lon="32.6702952">
<ele>1164.47</ele>
<time>2015-04-27T12:17:51Z</time>
</trkpt>
<trkpt lat="35.0116947" lon="32.6703335">
<ele>1163.20</ele>
<time>2015-04-27T12:17:52Z</time>
</trkpt>
<trkpt lat="35.0117778" lon="32.6704492">
<ele>1162.56</ele>
<time>2015-04-27T12:17:53Z</time>
</trkpt>
<trkpt lat="35.0118356" lon="32.6705063">
<ele>1162.24</ele>
<time>2015-04-27T12:17:54Z</time>
</trkpt>
<trkpt lat="35.0118918" lon="32.6706025">
<ele>1162.08</ele>
<time>2015-04-27T12:17:55Z</time>
</trkpt>
<trkpt lat="35.0119518" lon="32.6706792">
<ele>1162.00</ele>
<time>2015-04-27T12:17:56Z</time>
</trkpt>
<trkpt lat="35.0120074" lon="32.6707618">
<ele>1161.96</ele>
<time>2015-04-27T12:17:57Z</time>
</trkpt>
<trkpt lat="35.0120579" lon="32.6708473">
<ele>1160.94</ele>
<time>2015-04-27T12:17:58Z</time>
</trkpt>
<trkpt lat="35.0121167" lon="32.6709543">
<ele>1160.43</ele>
<time>2015-04-27T12:17:59Z</time>
</trkpt>
<trkpt lat="35.0121619" lon="32.6710382">
<ele>1159.68</ele>
<time>2015-04-27T12:18:00Z</time>
</trkpt>
<trkpt lat="35.0121989" lon="32.6711166">
<ele>1158.80</ele>
<time>2015-04-27T12:18:01Z</time>
</trkpt>
<trkpt lat="35.0122296" lon="32.6711937">
<ele>1158.36</ele>
<time>2015-04-27T12:18:02Z</time>
</trkpt>
<trkpt lat="35.0122384" lon="32.6712793">
<ele>1158.14</ele>
<time>2015-04-27T12:18:03Z</time>
</trkpt>
<trkpt lat="35.0122263" lon="32.6713626">
<ele>1158.03</ele>
<time>2015-04-27T12:18:04Z</time>
</trkpt>
<trkpt lat="35.0121930" lon="32.6714322">
<ele>1157.48</ele>
<time>2015-04-27T12:18:05Z</time>
</trkpt>
<trkpt lat="35.0121514" lon="32.6715015">
<ele>1157.20</ele>
<time>2015-04-27T12:18:06Z</time>
</trkpt>
<trkpt lat="35.0120989" lon="32.6715639">
<ele>1156.56</ele>
<time>2015-04-27T12:18:07Z</time>
</trkpt>
<trkpt lat="35.0120489" lon="32.6716292">
<ele>1156.24</ele>
<time>2015-04-27T12:18:08Z</time>
</trkpt>
<trkpt lat="35.0120045" lon="32.6716986">
<ele>1156.08</ele>
<time>2015-04-27T12:18:09Z</time>
</trkpt>
<trkpt lat="35.0119720" lon="32.6717741">
<ele>1156.00</ele>
<time>2015-04-27T12:18:10Z</time>
</trkpt>
<trkpt lat="35.0119522" lon="32.6718497">
<ele>1155.96</ele>
<time>2015-04-27T12:18:11Z</time>
</trkpt>
<trkpt lat="35.0119477" lon="32.6719315">
<ele>1155.94</ele>
<time>2015-04-27T12:18:12Z</time>
</trkpt>
<trkpt lat="35.0119577" lon="32.6720003">
<ele>1155.43</ele>
<time>2015-04-27T12:18:13Z</time>
</trkpt>
<trkpt lat="35.0119901" lon="32.6720608">
<ele>1155.18</ele>
<time>2015-04-27T12:18:14Z</time>
</trkpt>
<trkpt lat="35.0120326" lon="32.6721268">
<ele>1155.55</ele>
<time>2015-04-27T12:18:15Z</time>
</trkpt>
<trkpt lat="35.0120721" lon="32.6721914">
<ele>1155.24</ele>
<time>2015-04-27T12:18:16Z</time>
</trkpt>
<trkpt lat="35.0121252" lon="32.6722584">
<ele>1155.08</ele>
<time>2015-04-27T12:18:17Z</time>
</trkpt>
<trkpt lat="35.0121734" lon="32.6723151">
<ele>1154.50</ele>
<time>2015-04-27T12:18:18Z</time>
</trkpt>
<trkpt lat="35.0122250" lon="32.6723732">
<ele>1154.21</ele>
<time>2015-04-27T12:18:19Z</time>
</trkpt>
<trkpt lat="35.0122791" lon="32.6724399">
<ele>1153.57</ele>
<time>2015-04-27T12:18:20Z</time>
</trkpt>
<trkpt lat="35.0122874" lon="32.6725211">
<ele>1152.75</ele>
<time>2015-04-27T12:18:21Z</time>
</trkpt>
<trkpt lat="35.0122824" lon="32.6726050">
<ele>1152.34</ele>
<time>2015-04-27T12:18:22Z</time>
</trkpt>
<trkpt lat="35.0122564" lon="32.6726817">
<ele>1152.13</ele>
<time>2015-04-27T12:18:23Z</time>
</trkpt>
<trkpt lat="35.0122091" lon="32.6727454">
<ele>1152.03</ele>
<time>2015-04-27T12:18:24Z</time>
</trkpt>
<trkpt lat="35.0121530" lon="32.6728005">
<ele>1151.98</ele>
<time>2015-04-27T12:18:25Z</time>
</trkpt>
<trkpt lat="35.0120918" lon="32.6728448">
<ele>1151.95</ele>
<time>2015-04-27T12:18:26Z</time>
</trkpt>
<trkpt lat="35.0120248" lon="32.6728959">
<ele>1151.94</ele>
<time>2015-04-27T12:18:27Z</time>
</trkpt>
<trkpt lat="35.0119419" lon="32.6729496">
<ele>1151.43</ele>
<time>2015-04-27T12:18:28Z</time>
</trkpt>
<trkpt lat="35.0118977" lon="32.6730158">
<ele>1150.68</ele>
<time>2015-04-27T12:18:29Z</time>
</trkpt>
<trkpt lat="35.0118477" lon="32.6730850">
<ele>1150.80</ele>
<time>2015-04-27T12:18:30Z</time>
</trkpt>
<trkpt lat="35.0117950" lon="32.6731463">
<ele>1151.36</ele>
<time>2015-04-27T12:18:31Z</time>
</trkpt>
<trkpt lat="35.0117323" lon="32.6731934">
<ele>1151.64</ele>
<time>2015-04-27T12:18:32Z</time>
</trkpt>
<trkpt lat="35.0116649" lon="32.6732450">
<ele>1151.28</ele>
<time>2015-04-27T12:18:33Z</time>
</trkpt>
<trkpt lat="35.0116017" lon="32.6732913">
<ele>1151.60</ele>
<time>2015-04-27T12:18:34Z</time>
</trkpt>
<trkpt lat="35.0115348" lon="32.6733263">
<ele>1151.26</ele>
<time>2015-04-27T12:18:35Z</time>
</trkpt>
<trkpt lat="35.0114706" lon="32.6733712">
<ele>1151.09</ele>
<time>2015-04-27T12:18:36Z</time>
</trkpt>
<trkpt lat="35.0114171" lon="32.6734180">
<ele>1151.01</ele>
<time>2015-04-27T12:18:37Z</time>
</trkpt>
<trkpt lat="35.0113600" lon="32.6734590">
<ele>1150.97</ele>
<time>2015-04-27T12:18:38Z</time>
</trkpt>
<trkpt lat="35.0112951" lon="32.6734935">
<ele>1150.45</ele>
<time>2015-04-27T12:18:39Z</time>
</trkpt>
<trkpt lat="35.0112344" lon="32.6735328">
<ele>1150.69</ele>
<time>2015-04-27T12:18:40Z</time>
</trkpt>
<trkpt lat="35.0111753" lon="32.6735667">
<ele>1150.81</ele>
<time>2015-04-27T12:18:41Z</time>
</trkpt>
<trkpt lat="35.0111157" lon="32.6735943">
<ele>1150.37</ele>
<time>2015-04-27T12:18:42Z</time>
</trkpt>
<trkpt lat="35.0110528" lon="32.6736356">
<ele>1150.15</ele>
<time>2015-04-27T12:18:43Z</time>
</trkpt>
<trkpt lat="35.0109965" lon="32.6736886">
<ele>1150.54</ele>
<time>2015-04-27T12:18:44Z</time>
</trkpt>
<trkpt lat="35.0109621" lon="32.6737579">
<ele>1150.23</ele>
<time>2015-04-27T12:18:45Z</time>
</trkpt>
<trkpt lat="35.0109620" lon="32.6738453">
<ele>1150.08</ele>
<time>2015-04-27T12:18:46Z</time>
</trkpt>
<trkpt lat="35.0109780" lon="32.6739318">
<ele>1150.00</ele>
<time>2015-04-27T12:18:47Z</time>
</trkpt>
<trkpt lat="35.0109912" lon="32.6740169">
<ele>1149.96</ele>
<time>2015-04-27T12:18:48Z</time>
</trkpt>
<trkpt lat="35.0109882" lon="32.6741024">
<ele>1149.94</ele>
<time>2015-04-27T12:18:49Z</time>
</trkpt>
<trkpt lat="35.0109611" lon="32.6741770">
<ele>1149.93</ele>
<time>2015-04-27T12:18:50Z</time>
</trkpt>
<trkpt lat="35.0109198" lon="32.6742444">
<ele>1150.43</ele>
<time>2015-04-27T12:18:51Z</time>
</trkpt>
<trkpt lat="35.0108725" lon="32.6742998">
<ele>1150.68</ele>
<time>2015-04-27T12:18:52Z</time>
</trkpt>
<trkpt lat="35.0108204" lon="32.6743437">
<ele>1150.80</ele>
<time>2015-04-27T12:18:53Z</time>
</trkpt>
<trkpt lat="35.0107663" lon="32.6743760">
<ele>1150.86</ele>
<time>2015-04-27T12:18:54Z</time>
</trkpt>
<trkpt lat="35.0107092" lon="32.6744128">
<ele>1150.89</ele>
<time>2015-04-27T12:18:55Z</time>
</trkpt>
<trkpt lat="35.0106492" lon="32.6744569">
<ele>1150.41</ele>
<time>2015-04-27T12:18:56Z</time>
</trkpt>
<trkpt lat="35.0106054" lon="32.6745026">
<ele>1150.17</ele>
<time>2015-04-27T12:18:57Z</time>
</trkpt>
<trkpt lat="35.0105700" lon="32.6745499">
<ele>1149.55</ele>
<time>2015-04-27T12:18:58Z</time>
</trkpt>
<trkpt lat="35.0105491" lon="32.6746352">
<ele>1149.58</ele>
<time>2015-04-27T12:19:00Z</time>
</trkpt>
<trkpt lat="35.0105744" lon="32.6747142">
<ele>1149.84</ele>
<time>2015-04-27T12:19:02Z</time>
</trkpt>
<trkpt lat="35.0106080" lon="32.6747863">
<ele>1149.40</ele>
<time>2015-04-27T12:19:04Z</time>
</trkpt>
<trkpt lat="35.0106696" lon="32.6748713">
<ele>1148.29</ele>
<time>2015-04-27T12:19:06Z</time>
</trkpt>
<trkpt lat="35.0107126" lon="32.6749132">
<ele>1148.11</ele>
<time>2015-04-27T12:19:07Z</time>
</trkpt>
<trkpt lat="35.0107672" lon="32.6749558">
<ele>1148.02</ele>
<time>2015-04-27T12:19:08Z</time>
</trkpt>
<trkpt lat="35.0108184" lon="32.6749978">
<ele>1147.47</ele>
<time>2015-04-27T12:19:09Z</time>
</trkpt>
<trkpt lat="35.0108741" lon="32.6750439">
<ele>1146.70</ele>
<time>2015-04-27T12:19:10Z</time>
</trkpt>
<trkpt lat="35.0109364" lon="32.6750866">
<ele>1146.31</ele>
<time>2015-04-27T12:19:11Z</time>
</trkpt>
<trkpt lat="35.0110054" lon="32.6751299">
<ele>1146.12</ele>
<time>2015-04-27T12:19:12Z</time>
</trkpt>
<trkpt lat="35.0110603" lon="32.6751705">
<ele>1145.52</ele>
<time>2015-04-27T12:19:13Z</time>
</trkpt>
<trkpt lat="35.0111159" lon="32.6752164">
<ele>1145.22</ele>
<time>2015-04-27T12:19:14Z</time>
</trkpt>
<trkpt lat="35.0111717" lon="32.6752573">
<ele>1145.07</ele>
<time>2015-04-27T12:19:15Z</time>
</trkpt>
<trkpt lat="35.0112288" lon="32.6752885">
<ele>1145.50</ele>
<time>2015-04-27T12:19:16Z</time>
</trkpt>
<trkpt lat="35.0112872" lon="32.6753157">
<ele>1145.71</ele>
<time>2015-04-27T12:19:17Z</time>
</trkpt>
<trkpt lat="35.0113396" lon="32.6753481">
<ele>1145.82</ele>
<time>2015-04-27T12:19:18Z</time>
</trkpt>
<trkpt lat="35.0114012" lon="32.6753783">
<ele>1145.87</ele>
<time>2015-04-27T12:19:19Z</time>
</trkpt>
<trkpt lat="35.0114599" lon="32.6754099">
<ele>1145.90</ele>
<time>2015-04-27T12:19:20Z</time>
</trkpt>
<trkpt lat="35.0115163" lon="32.6754542">
<ele>1146.41</ele>
<time>2015-04-27T12:19:21Z</time>
</trkpt>
<trkpt lat="35.0115525" lon="32.6755082">
<ele>1146.17</ele>
<time>2015-04-27T12:19:22Z</time>
</trkpt>
<trkpt lat="35.0115800" lon="32.6755818">
<ele>1146.55</ele>
<time>2015-04-27T12:19:23Z</time>
</trkpt>
<trkpt lat="35.0115957" lon="32.6756536">
<ele>1147.24</ele>
<time>2015-04-27T12:19:24Z</time>
</trkpt>
<trkpt lat="35.0115996" lon="32.6757412">
<ele>1147.58</ele>
<time>2015-04-27T12:19:25Z</time>
</trkpt>
<trkpt lat="35.0116030" lon="32.6758252">
<ele>1147.75</ele>
<time>2015-04-27T12:19:26Z</time>
</trkpt>
<trkpt lat="35.0116103" lon="32.6759124">
<ele>1147.84</ele>
<time>2015-04-27T12:19:27Z</time>
</trkpt>
<trkpt lat="35.0116159" lon="32.6760041">
<ele>1147.88</ele>
<time>2015-04-27T12:19:28Z</time>
</trkpt>
<trkpt lat="35.0116176" lon="32.6760975">
<ele>1147.90</ele>
<time>2015-04-27T12:19:29Z</time>
</trkpt>
<trkpt lat="35.0116108" lon="32.6761905">
<ele>1147.91</ele>
<time>2015-04-27T12:19:30Z</time>
</trkpt>
<trkpt lat="35.0115983" lon="32.6762740">
<ele>1147.92</ele>
<time>2015-04-27T12:19:31Z</time>
</trkpt>
<trkpt lat="35.0115774" lon="32.6763613">
<ele>1147.42</ele>
<time>2015-04-27T12:19:32Z</time>
</trkpt>
<trkpt lat="35.0115614" lon="32.6764425">
<ele>1146.67</ele>
<time>2015-04-27T12:19:33Z</time>
</trkpt>
<trkpt lat="35.0115407" lon="32.6765264">
<ele>1146.30</ele>
<time>2015-04-27T12:19:34Z</time>
</trkpt>
<trkpt lat="35.0115162" lon="32.6766065">
<ele>1146.11</ele>
<time>2015-04-27T12:19:35Z</time>
</trkpt>
<trkpt lat="35.0114920" lon="32.6766841">
<ele>1146.02</ele>
<time>2015-04-27T12:19:36Z</time>
</trkpt>
<trkpt lat="35.0114591" lon="32.6767570">
<ele>1145.97</ele>
<time>2015-04-27T12:19:37Z</time>
</trkpt>
<trkpt lat="35.0114233" lon="32.6768240">
<ele>1145.95</ele>
<time>2015-04-27T12:19:38Z</time>
</trkpt>
<trkpt lat="35.0113856" lon="32.6768937">
<ele>1145.94</ele>
<time>2015-04-27T12:19:39Z</time>
</trkpt>
<trkpt lat="35.0113514" lon="32.6769755">
<ele>1145.93</ele>
<time>2015-04-27T12:19:40Z</time>
</trkpt>
<trkpt lat="35.0113343" lon="32.6770540">
<ele>1145.93</ele>
<time>2015-04-27T12:19:41Z</time>
</trkpt>
<trkpt lat="35.0113302" lon="32.6771386">
<ele>1145.43</ele>
<time>2015-04-27T12:19:42Z</time>
</trkpt>
<trkpt lat="35.0113548" lon="32.6772154">
<ele>1144.18</ele>
<time>2015-04-27T12:19:43Z</time>
</trkpt>
<trkpt lat="35.0113915" lon="32.6772822">
<ele>1143.55</ele>
<time>2015-04-27T12:19:44Z</time>
</trkpt>
<trkpt lat="35.0114414" lon="32.6773418">
<ele>1143.24</ele>
<time>2015-04-27T12:19:45Z</time>
</trkpt>
<trkpt lat="35.0114941" lon="32.6774011">
<ele>1143.08</ele>
<time>2015-04-27T12:19:46Z</time>
</trkpt>
<trkpt lat="35.0115434" lon="32.6774576">
<ele>1143.00</ele>
<time>2015-04-27T12:19:47Z</time>
</trkpt>
<trkpt lat="35.0115930" lon="32.6775245">
<ele>1142.96</ele>
<time>2015-04-27T12:19:48Z</time>
</trkpt>
<trkpt lat="35.0116313" lon="32.6776096">
<ele>1143.44</ele>
<time>2015-04-27T12:19:49Z</time>
</trkpt>
<trkpt lat="35.0116499" lon="32.6776909">
<ele>1143.68</ele>
<time>2015-04-27T12:19:50Z</time>
</trkpt>
<trkpt lat="35.0116590" lon="32.6777754">
<ele>1143.80</ele>
<time>2015-04-27T12:19:51Z</time>
</trkpt>
<trkpt lat="35.0116753" lon="32.6778558">
<ele>1142.86</ele>
<time>2015-04-27T12:19:52Z</time>
</trkpt>
<trkpt lat="35.0117132" lon="32.6779267">
<ele>1142.90</ele>
<time>2015-04-27T12:19:53Z</time>
</trkpt>
<trkpt lat="35.0117532" lon="32.6779836">
<ele>1142.91</ele>
<time>2015-04-27T12:19:54Z</time>
</trkpt>
<trkpt lat="35.0118035" lon="32.6780299">
<ele>1142.92</ele>
<time>2015-04-27T12:19:55Z</time>
</trkpt>
<trkpt lat="35.0118523" lon="32.6780678">
<ele>1143.42</ele>
<time>2015-04-27T12:19:56Z</time>
</trkpt>
<trkpt lat="35.0119109" lon="32.6781070">
<ele>1143.17</ele>
<time>2015-04-27T12:19:57Z</time>
</trkpt>
<trkpt lat="35.0119712" lon="32.6781486">
<ele>1143.55</ele>
<time>2015-04-27T12:19:58Z</time>
</trkpt>
<trkpt lat="35.0120194" lon="32.6782071">
<ele>1144.24</ele>
<time>2015-04-27T12:19:59Z</time>
</trkpt>
<trkpt lat="35.0120599" lon="32.6782684">
<ele>1144.58</ele>
<time>2015-04-27T12:20:00Z</time>
</trkpt>
<trkpt lat="35.0120961" lon="32.6783468">
<ele>1144.75</ele>
<time>2015-04-27T12:20:01Z</time>
</trkpt>
<trkpt lat="35.0121136" lon="32.6784310">
<ele>1145.34</ele>
<time>2015-04-27T12:20:02Z</time>
</trkpt>
<trkpt lat="35.0121193" lon="32.6785244">
<ele>1145.13</ele>
<time>2015-04-27T12:20:03Z</time>
</trkpt>
<trkpt lat="35.0121137" lon="32.6786119">
<ele>1145.03</ele>
<time>2015-04-27T12:20:04Z</time>
</trkpt>
<trkpt lat="35.0120999" lon="32.6786977">
<ele>1144.98</ele>
<time>2015-04-27T12:20:05Z</time>
</trkpt>
<trkpt lat="35.0120910" lon="32.6787768">
<ele>1144.45</ele>
<time>2015-04-27T12:20:06Z</time>
</trkpt>
<trkpt lat="35.0120869" lon="32.6788543">
<ele>1143.69</ele>
<time>2015-04-27T12:20:07Z</time>
</trkpt>
<trkpt lat="35.0121020" lon="32.6789278">
<ele>1143.81</ele>
<time>2015-04-27T12:20:08Z</time>
</trkpt>
<trkpt lat="35.0121230" lon="32.6790043">
<ele>1143.87</ele>
<time>2015-04-27T12:20:09Z</time>
</trkpt>
<trkpt lat="35.0121550" lon="32.6790663">
<ele>1143.90</ele>
<time>2015-04-27T12:20:10Z</time>
</trkpt>
<trkpt lat="35.0121932" lon="32.6791210">
<ele>1143.91</ele>
<time>2015-04-27T12:20:11Z</time>
</trkpt>
<trkpt lat="35.0122382" lon="32.6791733">
<ele>1143.42</ele>
<time>2015-04-27T12:20:12Z</time>
</trkpt>
<trkpt lat="35.0122893" lon="32.6792146">
<ele>1143.67</ele>
<time>2015-04-27T12:20:13Z</time>
</trkpt>
<trkpt lat="35.0123285" lon="32.6792612">
<ele>1144.30</ele>
<time>2015-04-27T12:20:14Z</time>
</trkpt>
<trkpt lat="35.0123739" lon="32.6793111">
<ele>1145.11</ele>
<time>2015-04-27T12:20:15Z</time>
</trkpt>
<trkpt lat="35.0124098" lon="32.6793570">
<ele>1145.52</ele>
<time>2015-04-27T12:20:16Z</time>
</trkpt>
<trkpt lat="35.0124420" lon="32.6793964">
<ele>1145.22</ele>
<time>2015-04-27T12:20:17Z</time>
</trkpt>
<trkpt lat="35.0124743" lon="32.6794422">
<ele>1145.57</ele>
<time>2015-04-27T12:20:18Z</time>
</trkpt>
<trkpt lat="35.0125386" lon="32.6795056">
<ele>1145.84</ele>
<time>2015-04-27T12:20:20Z</time>
</trkpt>
<trkpt lat="35.0125801" lon="32.6795426">
<ele>1146.40</ele>
<time>2015-04-27T12:20:22Z</time>
</trkpt>
<trkpt lat="35.0126122" lon="32.6795899">
<ele>1146.05</ele>
<time>2015-04-27T12:21:20Z</time>
</trkpt>
<trkpt lat="35.0126075" lon="32.6796454">
<ele>1149.02</ele>
<time>2015-04-27T12:22:15Z</time>
</trkpt>
<trkpt lat="35.0125600" lon="32.6796695">
<ele>1146.36</ele>
<time>2015-04-27T12:22:46Z</time>
</trkpt>
<trkpt lat="35.0125166" lon="32.6796965">
<ele>1146.85</ele>
<time>2015-04-27T12:22:49Z</time>
</trkpt>
<trkpt lat="35.0124681" lon="32.6797416">
<ele>1148.42</ele>
<time>2015-04-27T12:22:52Z</time>
</trkpt>
<trkpt lat="35.0124288" lon="32.6797789">
<ele>1149.05</ele>
<time>2015-04-27T12:22:54Z</time>
</trkpt>
<trkpt lat="35.0123913" lon="32.6798164">
<ele>1148.96</ele>
<time>2015-04-27T12:22:56Z</time>
</trkpt>
<trkpt lat="35.0123468" lon="32.6798591">
<ele>1149.68</ele>
<time>2015-04-27T12:22:58Z</time>
</trkpt>
<trkpt lat="35.0122900" lon="32.6799245">
<ele>1150.61</ele>
<time>2015-04-27T12:23:00Z</time>
</trkpt>
<trkpt lat="35.0122334" lon="32.6800035">
<ele>1151.10</ele>
<time>2015-04-27T12:23:02Z</time>
</trkpt>
<trkpt lat="35.0121932" lon="32.6801012">
<ele>1151.72</ele>
<time>2015-04-27T12:23:04Z</time>
</trkpt>
<trkpt lat="35.0121784" lon="32.6801535">
<ele>1151.32</ele>
<time>2015-04-27T12:23:05Z</time>
</trkpt>
<trkpt lat="35.0121576" lon="32.6802564">
<ele>1150.77</ele>
<time>2015-04-27T12:23:07Z</time>
</trkpt>
<trkpt lat="35.0121459" lon="32.6803517">
<ele>1150.14</ele>
<time>2015-04-27T12:23:09Z</time>
</trkpt>
<trkpt lat="35.0121378" lon="32.6804402">
<ele>1148.73</ele>
<time>2015-04-27T12:23:11Z</time>
</trkpt>
<trkpt lat="35.0121382" lon="32.6805259">
<ele>1148.63</ele>
<time>2015-04-27T12:23:13Z</time>
</trkpt>
<trkpt lat="35.0121410" lon="32.6806108">
<ele>1148.10</ele>
<time>2015-04-27T12:23:15Z</time>
</trkpt>
<trkpt lat="35.0121376" lon="32.6806982">
<ele>1147.47</ele>
<time>2015-04-27T12:23:17Z</time>
</trkpt>
<trkpt lat="35.0121305" lon="32.6807871">
<ele>1147.31</ele>
<time>2015-04-27T12:23:19Z</time>
</trkpt>
<trkpt lat="35.0121170" lon="32.6808786">
<ele>1147.02</ele>
<time>2015-04-27T12:23:21Z</time>
</trkpt>
<trkpt lat="35.0120849" lon="32.6809658">
<ele>1146.95</ele>
<time>2015-04-27T12:23:23Z</time>
</trkpt>
<trkpt lat="35.0120331" lon="32.6810374">
<ele>1146.93</ele>
<time>2015-04-27T12:23:25Z</time>
</trkpt>
<trkpt lat="35.0119666" lon="32.6810842">
<ele>1146.93</ele>
<time>2015-04-27T12:23:27Z</time>
</trkpt>
<trkpt lat="35.0118913" lon="32.6811126">
<ele>1146.18</ele>
<time>2015-04-27T12:23:29Z</time>
</trkpt>
<trkpt lat="35.0118158" lon="32.6811378">
<ele>1145.99</ele>
<time>2015-04-27T12:23:31Z</time>
</trkpt>
<trkpt lat="35.0117426" lon="32.6811637">
<ele>1146.19</ele>
<time>2015-04-27T12:23:33Z</time>
</trkpt>
<trkpt lat="35.0116708" lon="32.6811960">
<ele>1144.49</ele>
<time>2015-04-27T12:23:35Z</time>
</trkpt>
<trkpt lat="35.0115991" lon="32.6812301">
<ele>1144.07</ele>
<time>2015-04-27T12:23:37Z</time>
</trkpt>
<trkpt lat="35.0115266" lon="32.6812700">
<ele>1143.21</ele>
<time>2015-04-27T12:23:39Z</time>
</trkpt>
<trkpt lat="35.0114576" lon="32.6813088">
<ele>1142.50</ele>
<time>2015-04-27T12:23:41Z</time>
</trkpt>
<trkpt lat="35.0113978" lon="32.6813421">
<ele>1141.57</ele>
<time>2015-04-27T12:23:43Z</time>
</trkpt>
<trkpt lat="35.0113323" lon="32.6813861">
<ele>1140.59</ele>
<time>2015-04-27T12:23:45Z</time>
</trkpt>
<trkpt lat="35.0112791" lon="32.6814316">
<ele>1139.84</ele>
<time>2015-04-27T12:23:47Z</time>
</trkpt>
<trkpt lat="35.0112413" lon="32.6814933">
<ele>1141.40</ele>
<time>2015-04-27T12:23:49Z</time>
</trkpt>
<trkpt lat="35.0112128" lon="32.6815711">
<ele>1141.79</ele>
<time>2015-04-27T12:23:51Z</time>
</trkpt>
<trkpt lat="35.0111775" lon="32.6816703">
<ele>1141.64</ele>
<time>2015-04-27T12:23:53Z</time>
</trkpt>
<trkpt lat="35.0111578" lon="32.6817287">
<ele>1141.28</ele>
<time>2015-04-27T12:23:54Z</time>
</trkpt>
<trkpt lat="35.0111105" lon="32.6818206">
<ele>1141.76</ele>
<time>2015-04-27T12:23:56Z</time>
</trkpt>
<trkpt lat="35.0110827" lon="32.6818684">
<ele>1141.84</ele>
<time>2015-04-27T12:23:57Z</time>
</trkpt>
<trkpt lat="35.0110261" lon="32.6819592">
<ele>1143.15</ele>
<time>2015-04-27T12:23:59Z</time>
</trkpt>
<trkpt lat="35.0109964" lon="32.6820019">
<ele>1143.54</ele>
<time>2015-04-27T12:24:00Z</time>
</trkpt>
<trkpt lat="35.0109669" lon="32.6820467">
<ele>1143.73</ele>
<time>2015-04-27T12:24:01Z</time>
</trkpt>
<trkpt lat="35.0109364" lon="32.6820894">
<ele>1143.33</ele>
<time>2015-04-27T12:24:02Z</time>
</trkpt>
<trkpt lat="35.0109112" lon="32.6821380">
<ele>1143.13</ele>
<time>2015-04-27T12:24:03Z</time>
</trkpt>
<trkpt lat="35.0108889" lon="32.6821890">
<ele>1143.53</ele>
<time>2015-04-27T12:24:04Z</time>
</trkpt>
<trkpt lat="35.0108695" lon="32.6822397">
<ele>1143.73</ele>
<time>2015-04-27T12:24:05Z</time>
</trkpt>
<trkpt lat="35.0108491" lon="32.6822963">
<ele>1143.83</ele>
<time>2015-04-27T12:24:06Z</time>
</trkpt>
<trkpt lat="35.0108268" lon="32.6823477">
<ele>1143.88</ele>
<time>2015-04-27T12:24:07Z</time>
</trkpt>
<trkpt lat="35.0108039" lon="32.6824036">
<ele>1143.40</ele>
<time>2015-04-27T12:24:08Z</time>
</trkpt>
<trkpt lat="35.0107857" lon="32.6824548">
<ele>1143.16</ele>
<time>2015-04-27T12:24:09Z</time>
</trkpt>
<trkpt lat="35.0107667" lon="32.6825107">
<ele>1142.54</ele>
<time>2015-04-27T12:24:10Z</time>
</trkpt>
<trkpt lat="35.0107484" lon="32.6825665">
<ele>1142.23</ele>
<time>2015-04-27T12:24:11Z</time>
</trkpt>
<trkpt lat="35.0107218" lon="32.6826171">
<ele>1142.58</ele>
<time>2015-04-27T12:24:12Z</time>
</trkpt>
<trkpt lat="35.0106833" lon="32.6826668">
<ele>1142.25</ele>
<time>2015-04-27T12:24:13Z</time>
</trkpt>
<trkpt lat="35.0106424" lon="32.6827179">
<ele>1142.59</ele>
<time>2015-04-27T12:24:14Z</time>
</trkpt>
<trkpt lat="35.0105877" lon="32.6827695">
<ele>1142.76</ele>
<time>2015-04-27T12:24:15Z</time>
</trkpt>
<trkpt lat="35.0105418" lon="32.6828187">
<ele>1142.84</ele>
<time>2015-04-27T12:24:16Z</time>
</trkpt>
<trkpt lat="35.0104962" lon="32.6828616">
<ele>1142.38</ele>
<time>2015-04-27T12:24:17Z</time>
</trkpt>
<trkpt lat="35.0104622" lon="32.6829032">
<ele>1142.65</ele>
<time>2015-04-27T12:24:18Z</time>
</trkpt>
<trkpt lat="35.0104240" lon="32.6829428">
<ele>1143.29</ele>
<time>2015-04-27T12:24:19Z</time>
</trkpt>
<trkpt lat="35.0103775" lon="32.6829723">
<ele>1143.11</ele>
<time>2015-04-27T12:24:20Z</time>
</trkpt>
<trkpt lat="35.0103372" lon="32.6830045">
<ele>1143.52</ele>
<time>2015-04-27T12:24:21Z</time>
</trkpt>
<trkpt lat="35.0102591" lon="32.6830637">
<ele>1144.57</ele>
<time>2015-04-27T12:24:23Z</time>
</trkpt>
<trkpt lat="35.0102183" lon="32.6830901">
<ele>1144.25</ele>
<time>2015-04-27T12:24:24Z</time>
</trkpt>
<trkpt lat="35.0101451" lon="32.6831284">
<ele>1144.76</ele>
<time>2015-04-27T12:24:26Z</time>
</trkpt>
<trkpt lat="35.0100603" lon="32.6831292">
<ele>1144.13</ele>
<time>2015-04-27T12:24:28Z</time>
</trkpt>
<trkpt lat="35.0100122" lon="32.6831228">
<ele>1144.53</ele>
<time>2015-04-27T12:24:29Z</time>
</trkpt>
<trkpt lat="35.0099683" lon="32.6831052">
<ele>1144.73</ele>
<time>2015-04-27T12:24:30Z</time>
</trkpt>
<trkpt lat="35.0099138" lon="32.6830868">
<ele>1144.33</ele>
<time>2015-04-27T12:24:31Z</time>
</trkpt>
<trkpt lat="35.0098564" lon="32.6830779">
<ele>1144.13</ele>
<time>2015-04-27T12:24:32Z</time>
</trkpt>
<trkpt lat="35.0097958" lon="32.6830719">
<ele>1144.53</ele>
<time>2015-04-27T12:24:33Z</time>
</trkpt>
<trkpt lat="35.0097340" lon="32.6830732">
<ele>1145.23</ele>
<time>2015-04-27T12:24:34Z</time>
</trkpt>
<trkpt lat="35.0096779" lon="32.6830708">
<ele>1146.08</ele>
<time>2015-04-27T12:24:35Z</time>
</trkpt>
<trkpt lat="35.0096294" lon="32.6830582">
<ele>1147.00</ele>
<time>2015-04-27T12:24:36Z</time>
</trkpt>
<trkpt lat="35.0095832" lon="32.6830538">
<ele>1147.46</ele>
<time>2015-04-27T12:24:37Z</time>
</trkpt>
<trkpt lat="35.0094961" lon="32.6830530">
<ele>1147.81</ele>
<time>2015-04-27T12:24:39Z</time>
</trkpt>
<trkpt lat="35.0094239" lon="32.6830818">
<ele>1147.90</ele>
<time>2015-04-27T12:24:41Z</time>
</trkpt>
<trkpt lat="35.0093396" lon="32.6830534">
<ele>1148.67</ele>
<time>2015-04-27T12:24:43Z</time>
</trkpt>
<trkpt lat="35.0092571" lon="32.6830265">
<ele>1148.61</ele>
<time>2015-04-27T12:24:45Z</time>
</trkpt>
<trkpt lat="35.0091755" lon="32.6830123">
<ele>1149.35</ele>
<time>2015-04-27T12:24:47Z</time>
</trkpt>
<trkpt lat="35.0090886" lon="32.6830421">
<ele>1150.28</ele>
<time>2015-04-27T12:24:49Z</time>
</trkpt>
<trkpt lat="35.0090105" lon="32.6830927">
<ele>1150.76</ele>
<time>2015-04-27T12:24:51Z</time>
</trkpt>
<trkpt lat="35.0089396" lon="32.6831230">
<ele>1151.38</ele>
<time>2015-04-27T12:24:53Z</time>
</trkpt>
<trkpt lat="35.0088679" lon="32.6831535">
<ele>1152.29</ele>
<time>2015-04-27T12:24:55Z</time>
</trkpt>
<trkpt lat="35.0088143" lon="32.6831367">
<ele>1152.77</ele>
<time>2015-04-27T12:24:57Z</time>
</trkpt>
<trkpt lat="35.0087610" lon="32.6831154">
<ele>1154.14</ele>
<time>2015-04-27T12:24:59Z</time>
</trkpt>
<trkpt lat="35.0087151" lon="32.6830654">
<ele>1155.48</ele>
<time>2015-04-27T12:25:01Z</time>
</trkpt>
<trkpt lat="35.0086710" lon="32.6830084">
<ele>1157.06</ele>
<time>2015-04-27T12:25:03Z</time>
</trkpt>
<trkpt lat="35.0086246" lon="32.6829508">
<ele>1157.71</ele>
<time>2015-04-27T12:25:05Z</time>
</trkpt>
<trkpt lat="35.0085723" lon="32.6828986">
<ele>1157.87</ele>
<time>2015-04-27T12:25:07Z</time>
</trkpt>
<trkpt lat="35.0085259" lon="32.6828534">
<ele>1157.91</ele>
<time>2015-04-27T12:25:09Z</time>
</trkpt>
<trkpt lat="35.0084892" lon="32.6828214">
<ele>1160.05</ele>
<time>2015-04-27T12:25:12Z</time>
</trkpt>
<trkpt lat="35.0084542" lon="32.6827578">
<ele>1160.69</ele>
<time>2015-04-27T12:25:15Z</time>
</trkpt>
<trkpt lat="35.0084321" lon="32.6826562">
<ele>1160.87</ele>
<time>2015-04-27T12:25:17Z</time>
</trkpt>
<trkpt lat="35.0084307" lon="32.6826010">
<ele>1160.90</ele>
<time>2015-04-27T12:25:18Z</time>
</trkpt>
<trkpt lat="35.0084406" lon="32.6825042">
<ele>1161.42</ele>
<time>2015-04-27T12:25:20Z</time>
</trkpt>
<trkpt lat="35.0084510" lon="32.6824259">
<ele>1162.30</ele>
<time>2015-04-27T12:25:22Z</time>
</trkpt>
<trkpt lat="35.0084637" lon="32.6823497">
<ele>1162.27</ele>
<time>2015-04-27T12:25:24Z</time>
</trkpt>
<trkpt lat="35.0084684" lon="32.6822688">
<ele>1162.26</ele>
<time>2015-04-27T12:25:26Z</time>
</trkpt>
<trkpt lat="35.0084690" lon="32.6821812">
<ele>1161.51</ele>
<time>2015-04-27T12:25:28Z</time>
</trkpt>
<trkpt lat="35.0084697" lon="32.6820895">
<ele>1161.07</ele>
<time>2015-04-27T12:25:30Z</time>
</trkpt>
<trkpt lat="35.0084750" lon="32.6819908">
<ele>1160.21</ele>
<time>2015-04-27T12:25:32Z</time>
</trkpt>
<trkpt lat="35.0084746" lon="32.6819010">
<ele>1160.75</ele>
<time>2015-04-27T12:25:34Z</time>
</trkpt>
<trkpt lat="35.0084588" lon="32.6818252">
<ele>1161.38</ele>
<time>2015-04-27T12:25:36Z</time>
</trkpt>
<trkpt lat="35.0084315" lon="32.6817570">
<ele>1160.79</ele>
<time>2015-04-27T12:25:38Z</time>
</trkpt>
<trkpt lat="35.0084082" lon="32.6817058">
<ele>1160.89</ele>
<time>2015-04-27T12:25:40Z</time>
</trkpt>
<trkpt lat="35.0083597" lon="32.6816560">
<ele>1161.80</ele>
<time>2015-04-27T12:25:43Z</time>
</trkpt>
<trkpt lat="35.0083206" lon="32.6816162">
<ele>1161.89</ele>
<time>2015-04-27T12:25:45Z</time>
</trkpt>
<trkpt lat="35.0082595" lon="32.6815672">
<ele>1161.92</ele>
<time>2015-04-27T12:25:47Z</time>
</trkpt>
<trkpt lat="35.0082059" lon="32.6815298">
<ele>1162.42</ele>
<time>2015-04-27T12:25:49Z</time>
</trkpt>
<trkpt lat="35.0081619" lon="32.6815104">
<ele>1164.74</ele>
<time>2015-04-27T12:25:52Z</time>
</trkpt>
<trkpt lat="35.0081088" lon="32.6814841">
<ele>1166.73</ele>
<time>2015-04-27T12:25:56Z</time>
</trkpt>
<trkpt lat="35.0080578" lon="32.6814581">
<ele>1166.88</ele>
<time>2015-04-27T12:25:58Z</time>
</trkpt>
<trkpt lat="35.0080043" lon="32.6814256">
<ele>1167.16</ele>
<time>2015-04-27T12:26:00Z</time>
</trkpt>
<trkpt lat="35.0079574" lon="32.6813916">
<ele>1167.48</ele>
<time>2015-04-27T12:26:02Z</time>
</trkpt>
<trkpt lat="35.0079131" lon="32.6813512">
<ele>1168.77</ele>
<time>2015-04-27T12:26:06Z</time>
</trkpt>
<trkpt lat="35.0078656" lon="32.6812894">
<ele>1168.41</ele>
<time>2015-04-27T12:26:09Z</time>
</trkpt>
<trkpt lat="35.0078125" lon="32.6812284">
<ele>1167.30</ele>
<time>2015-04-27T12:26:11Z</time>
</trkpt>
<trkpt lat="35.0077612" lon="32.6811862">
<ele>1167.77</ele>
<time>2015-04-27T12:26:13Z</time>
</trkpt>
<trkpt lat="35.0077195" lon="32.6811385">
<ele>1168.28</ele>
<time>2015-04-27T12:26:16Z</time>
</trkpt>
<trkpt lat="35.0076614" lon="32.6810998">
<ele>1170.09</ele>
<time>2015-04-27T12:26:19Z</time>
</trkpt>
<trkpt lat="35.0075952" lon="32.6810932">
<ele>1170.22</ele>
<time>2015-04-27T12:26:21Z</time>
</trkpt>
<trkpt lat="35.0075330" lon="32.6811191">
<ele>1168.50</ele>
<time>2015-04-27T12:26:23Z</time>
</trkpt>
<trkpt lat="35.0074821" lon="32.6811676">
<ele>1168.82</ele>
<time>2015-04-27T12:26:25Z</time>
</trkpt>
<trkpt lat="35.0074470" lon="32.6812142">
<ele>1170.15</ele>
<time>2015-04-27T12:26:27Z</time>
</trkpt>
<trkpt lat="35.0074003" lon="32.6812696">
<ele>1170.08</ele>
<time>2015-04-27T12:26:30Z</time>
</trkpt>
<trkpt lat="35.0073602" lon="32.6813024">
<ele>1170.71</ele>
<time>2015-04-27T12:26:32Z</time>
</trkpt>
<trkpt lat="35.0072894" lon="32.6813045">
<ele>1170.12</ele>
<time>2015-04-27T12:26:34Z</time>
</trkpt>
<trkpt lat="35.0072198" lon="32.6812645">
<ele>1169.97</ele>
<time>2015-04-27T12:26:36Z</time>
</trkpt>
<trkpt lat="35.0071555" lon="32.6812062">
<ele>1170.44</ele>
<time>2015-04-27T12:26:38Z</time>
</trkpt>
<trkpt lat="35.0071034" lon="32.6811339">
<ele>1170.80</ele>
<time>2015-04-27T12:26:40Z</time>
</trkpt>
<trkpt lat="35.0070639" lon="32.6810629">
<ele>1170.89</ele>
<time>2015-04-27T12:26:42Z</time>
</trkpt>
<trkpt lat="35.0070304" lon="32.6810028">
<ele>1170.92</ele>
<time>2015-04-27T12:26:45Z</time>
</trkpt>
<trkpt lat="35.0069911" lon="32.6809394">
<ele>1170.80</ele>
<time>2015-04-27T12:26:48Z</time>
</trkpt>
<trkpt lat="35.0069697" lon="32.6808901">
<ele>1171.14</ele>
<time>2015-04-27T12:26:50Z</time>
</trkpt>
<trkpt lat="35.0069476" lon="32.6808310">
<ele>1171.73</ele>
<time>2015-04-27T12:26:52Z</time>
</trkpt>
<trkpt lat="35.0069162" lon="32.6807651">
<ele>1171.88</ele>
<time>2015-04-27T12:26:54Z</time>
</trkpt>
<trkpt lat="35.0068774" lon="32.6806992">
<ele>1171.91</ele>
<time>2015-04-27T12:26:56Z</time>
</trkpt>
<trkpt lat="35.0068373" lon="32.6806184">
<ele>1171.92</ele>
<time>2015-04-27T12:26:58Z</time>
</trkpt>
<trkpt lat="35.0068025" lon="32.6805392">
<ele>1172.42</ele>
<time>2015-04-27T12:27:00Z</time>
</trkpt>
<trkpt lat="35.0067691" lon="32.6804701">
<ele>1172.80</ele>
<time>2015-04-27T12:27:02Z</time>
</trkpt>
<trkpt lat="35.0067464" lon="32.6804140">
<ele>1172.89</ele>
<time>2015-04-27T12:27:04Z</time>
</trkpt>
<trkpt lat="35.0067270" lon="32.6803527">
<ele>1172.42</ele>
<time>2015-04-27T12:27:06Z</time>
</trkpt>
<trkpt lat="35.0067069" lon="32.6802912">
<ele>1172.80</ele>
<time>2015-04-27T12:27:08Z</time>
</trkpt>
<trkpt lat="35.0066869" lon="32.6802357">
<ele>1173.64</ele>
<time>2015-04-27T12:27:10Z</time>
</trkpt>
<trkpt lat="35.0066537" lon="32.6801824">
<ele>1172.85</ele>
<time>2015-04-27T12:27:12Z</time>
</trkpt>
<trkpt lat="35.0066154" lon="32.6801338">
<ele>1172.41</ele>
<time>2015-04-27T12:27:14Z</time>
</trkpt>
<trkpt lat="35.0065766" lon="32.6800915">
<ele>1172.30</ele>
<time>2015-04-27T12:27:16Z</time>
</trkpt>
<trkpt lat="35.0065201" lon="32.6800650">
<ele>1173.35</ele>
<time>2015-04-27T12:27:19Z</time>
</trkpt>
<trkpt lat="35.0064686" lon="32.6800684">
<ele>1173.73</ele>
<time>2015-04-27T12:27:22Z</time>
</trkpt>
<trkpt lat="35.0064053" lon="32.6801001">
<ele>1173.15</ele>
<time>2015-04-27T12:27:25Z</time>
</trkpt>
<trkpt lat="35.0063536" lon="32.6801502">
<ele>1172.73</ele>
<time>2015-04-27T12:27:27Z</time>
</trkpt>
<trkpt lat="35.0063084" lon="32.6802105">
<ele>1173.63</ele>
<time>2015-04-27T12:27:29Z</time>
</trkpt>
<trkpt lat="35.0062612" lon="32.6802856">
<ele>1173.85</ele>
<time>2015-04-27T12:27:31Z</time>
</trkpt>
<trkpt lat="35.0062246" lon="32.6803696">
<ele>1176.41</ele>
<time>2015-04-27T12:27:33Z</time>
</trkpt>
<trkpt lat="35.0061975" lon="32.6804630">
<ele>1179.30</ele>
<time>2015-04-27T12:27:35Z</time>
</trkpt>
<trkpt lat="35.0061662" lon="32.6805591">
<ele>1180.02</ele>
<time>2015-04-27T12:27:37Z</time>
</trkpt>
<trkpt lat="35.0061321" lon="32.6806611">
<ele>1178.70</ele>
<time>2015-04-27T12:27:39Z</time>
</trkpt>
<trkpt lat="35.0061103" lon="32.6807182">
<ele>1177.81</ele>
<time>2015-04-27T12:27:40Z</time>
</trkpt>
<trkpt lat="35.0060873" lon="32.6807702">
<ele>1176.87</ele>
<time>2015-04-27T12:27:41Z</time>
</trkpt>
<trkpt lat="35.0060579" lon="32.6808193">
<ele>1176.40</ele>
<time>2015-04-27T12:27:42Z</time>
</trkpt>
<trkpt lat="35.0060288" lon="32.6808654">
<ele>1176.16</ele>
<time>2015-04-27T12:27:43Z</time>
</trkpt>
<trkpt lat="35.0060152" lon="32.6809543">
<ele>1178.23</ele>
<time>2015-04-27T12:27:45Z</time>
</trkpt>
<trkpt lat="35.0059500" lon="32.6809991">
<ele>1176.58</ele>
<time>2015-04-27T12:27:46Z</time>
</trkpt>
<trkpt lat="35.0058792" lon="32.6810562">
<ele>1173.84</ele>
<time>2015-04-27T12:27:48Z</time>
</trkpt>
<trkpt lat="35.0057956" lon="32.6811058">
<ele>1171.90</ele>
<time>2015-04-27T12:27:50Z</time>
</trkpt>
<trkpt lat="35.0057438" lon="32.6811315">
<ele>1170.91</ele>
<time>2015-04-27T12:27:51Z</time>
</trkpt>
<trkpt lat="35.0057061" lon="32.6811750">
<ele>1170.42</ele>
<time>2015-04-27T12:27:52Z</time>
</trkpt>
<trkpt lat="35.0056421" lon="32.6812639">
<ele>1169.55</ele>
<time>2015-04-27T12:27:54Z</time>
</trkpt>
<trkpt lat="35.0056020" lon="32.6813406">
<ele>1169.83</ele>
<time>2015-04-27T12:27:56Z</time>
</trkpt>
<trkpt lat="35.0055772" lon="32.6813870">
<ele>1169.38</ele>
<time>2015-04-27T12:27:57Z</time>
</trkpt>
<trkpt lat="35.0055806" lon="32.6814460">
<ele>1169.15</ele>
<time>2015-04-27T12:27:58Z</time>
</trkpt>
<trkpt lat="35.0055778" lon="32.6815030">
<ele>1170.04</ele>
<time>2015-04-27T12:27:59Z</time>
</trkpt>
<trkpt lat="35.0055554" lon="32.6816116">
<ele>1170.20</ele>
<time>2015-04-27T12:28:01Z</time>
</trkpt>
<trkpt lat="35.0055164" lon="32.6817233">
<ele>1168.74</ele>
<time>2015-04-27T12:28:03Z</time>
</trkpt>
<trkpt lat="35.0054956" lon="32.6817834">
<ele>1168.33</ele>
<time>2015-04-27T12:28:04Z</time>
</trkpt>
<trkpt lat="35.0054730" lon="32.6818532">
<ele>1167.63</ele>
<time>2015-04-27T12:28:05Z</time>
</trkpt>
<trkpt lat="35.0054507" lon="32.6819219">
<ele>1167.28</ele>
<time>2015-04-27T12:28:06Z</time>
</trkpt>
<trkpt lat="35.0054189" lon="32.6819823">
<ele>1166.60</ele>
<time>2015-04-27T12:28:07Z</time>
</trkpt>
<trkpt lat="35.0053882" lon="32.6820490">
<ele>1165.76</ele>
<time>2015-04-27T12:28:08Z</time>
</trkpt>
<trkpt lat="35.0053529" lon="32.6821032">
<ele>1164.84</ele>
<time>2015-04-27T12:28:09Z</time>
</trkpt>
<trkpt lat="35.0053207" lon="32.6821597">
<ele>1164.88</ele>
<time>2015-04-27T12:28:10Z</time>
</trkpt>
<trkpt lat="35.0052791" lon="32.6822082">
<ele>1164.90</ele>
<time>2015-04-27T12:28:11Z</time>
</trkpt>
<trkpt lat="35.0052321" lon="32.6822542">
<ele>1164.41</ele>
<time>2015-04-27T12:28:12Z</time>
</trkpt>
<trkpt lat="35.0051798" lon="32.6823002">
<ele>1163.17</ele>
<time>2015-04-27T12:28:13Z</time>
</trkpt>
<trkpt lat="35.0051407" lon="32.6823419">
<ele>1162.55</ele>
<time>2015-04-27T12:28:14Z</time>
</trkpt>
<trkpt lat="35.0050978" lon="32.6823789">
<ele>1162.24</ele>
<time>2015-04-27T12:28:15Z</time>
</trkpt>
<trkpt lat="35.0050688" lon="32.6824365">
<ele>1163.08</ele>
<time>2015-04-27T12:28:16Z</time>
</trkpt>
<trkpt lat="35.0050213" lon="32.6824511">
<ele>1163.50</ele>
<time>2015-04-27T12:28:17Z</time>
</trkpt>
<trkpt lat="35.0049714" lon="32.6824391">
<ele>1163.71</ele>
<time>2015-04-27T12:28:18Z</time>
</trkpt>
<trkpt lat="35.0049152" lon="32.6824343">
<ele>1164.32</ele>
<time>2015-04-27T12:28:19Z</time>
</trkpt>
<trkpt lat="35.0048613" lon="32.6824260">
<ele>1163.62</ele>
<time>2015-04-27T12:28:20Z</time>
</trkpt>
<trkpt lat="35.0048120" lon="32.6824240">
<ele>1162.27</ele>
<time>2015-04-27T12:28:21Z</time>
</trkpt>
<trkpt lat="35.0047607" lon="32.6824276">
<ele>1161.10</ele>
<time>2015-04-27T12:28:22Z</time>
</trkpt>
<trkpt lat="35.0047213" lon="32.6824559">
<ele>1161.01</ele>
<time>2015-04-27T12:28:23Z</time>
</trkpt>
<trkpt lat="35.0046778" lon="32.6824805">
<ele>1160.97</ele>
<time>2015-04-27T12:28:24Z</time>
</trkpt>
<trkpt lat="35.0046324" lon="32.6825110">
<ele>1160.45</ele>
<time>2015-04-27T12:28:25Z</time>
</trkpt>
<trkpt lat="35.0045817" lon="32.6825374">
<ele>1159.19</ele>
<time>2015-04-27T12:28:26Z</time>
</trkpt>
<trkpt lat="35.0045315" lon="32.6825694">
<ele>1159.06</ele>
<time>2015-04-27T12:28:27Z</time>
</trkpt>
<trkpt lat="35.0044837" lon="32.6825922">
<ele>1159.99</ele>
<time>2015-04-27T12:28:28Z</time>
</trkpt>
<trkpt lat="35.0044386" lon="32.6825983">
<ele>1160.46</ele>
<time>2015-04-27T12:28:29Z</time>
</trkpt>
<trkpt lat="35.0043904" lon="32.6825939">
<ele>1161.69</ele>
<time>2015-04-27T12:28:30Z</time>
</trkpt>
<trkpt lat="35.0043444" lon="32.6825834">
<ele>1162.81</ele>
<time>2015-04-27T12:28:31Z</time>
</trkpt>
<trkpt lat="35.0043060" lon="32.6825529">
<ele>1162.87</ele>
<time>2015-04-27T12:28:32Z</time>
</trkpt>
<trkpt lat="35.0042681" lon="32.6825219">
<ele>1162.90</ele>
<time>2015-04-27T12:28:33Z</time>
</trkpt>
<trkpt lat="35.0042102" lon="32.6824578">
<ele>1163.67</ele>
<time>2015-04-27T12:28:35Z</time>
</trkpt>
<trkpt lat="35.0041577" lon="32.6823898">
<ele>1164.36</ele>
<time>2015-04-27T12:28:37Z</time>
</trkpt>
<trkpt lat="35.0041165" lon="32.6822997">
<ele>1164.28</ele>
<time>2015-04-27T12:28:39Z</time>
</trkpt>
<trkpt lat="35.0040707" lon="32.6822105">
<ele>1164.01</ele>
<time>2015-04-27T12:28:41Z</time>
</trkpt>
<trkpt lat="35.0040321" lon="32.6821309">
<ele>1163.95</ele>
<time>2015-04-27T12:28:43Z</time>
</trkpt>
<trkpt lat="35.0040014" lon="32.6820769">
<ele>1163.93</ele>
<time>2015-04-27T12:28:45Z</time>
</trkpt>
<trkpt lat="35.0039804" lon="32.6820273">
<ele>1160.51</ele>
<time>2015-04-27T12:29:55Z</time>
</trkpt>
<trkpt lat="35.0040237" lon="32.6820071">
<ele>1164.43</ele>
<time>2015-04-27T12:33:27Z</time>
</trkpt>
<trkpt lat="35.0040122" lon="32.6819258">
<ele>1164.70</ele>
<time>2015-04-27T12:33:44Z</time>
</trkpt>
<trkpt lat="35.0039930" lon="32.6818447">
<ele>1164.87</ele>
<time>2015-04-27T12:33:46Z</time>
</trkpt>
<trkpt lat="35.0039574" lon="32.6817518">
<ele>1164.41</ele>
<time>2015-04-27T12:33:48Z</time>
</trkpt>
<trkpt lat="35.0039030" lon="32.6816686">
<ele>1165.30</ele>
<time>2015-04-27T12:33:50Z</time>
</trkpt>
<trkpt lat="35.0038441" lon="32.6815941">
<ele>1167.02</ele>
<time>2015-04-27T12:33:52Z</time>
</trkpt>
<trkpt lat="35.0037854" lon="32.6815207">
<ele>1167.95</ele>
<time>2015-04-27T12:33:54Z</time>
</trkpt>
<trkpt lat="35.0037310" lon="32.6814408">
<ele>1167.43</ele>
<time>2015-04-27T12:33:56Z</time>
</trkpt>
<trkpt lat="35.0036853" lon="32.6814032">
<ele>1167.18</ele>
<time>2015-04-27T12:33:57Z</time>
</trkpt>
<trkpt lat="35.0036141" lon="32.6813401">
<ele>1167.74</ele>
<time>2015-04-27T12:33:59Z</time>
</trkpt>
<trkpt lat="35.0035283" lon="32.6813180">
<ele>1167.88</ele>
<time>2015-04-27T12:34:01Z</time>
</trkpt>
<trkpt lat="35.0034841" lon="32.6813587">
<ele>1167.40</ele>
<time>2015-04-27T12:34:02Z</time>
</trkpt>
<trkpt lat="35.0034557" lon="32.6814424">
<ele>1166.54</ele>
<time>2015-04-27T12:34:04Z</time>
</trkpt>
<trkpt lat="35.0034410" lon="32.6814996">
<ele>1166.23</ele>
<time>2015-04-27T12:34:05Z</time>
</trkpt>
<trkpt lat="35.0034359" lon="32.6815545">
<ele>1166.58</ele>
<time>2015-04-27T12:34:06Z</time>
</trkpt>
<trkpt lat="35.0034331" lon="32.6816100">
<ele>1166.25</ele>
<time>2015-04-27T12:34:07Z</time>
</trkpt>
<trkpt lat="35.0034225" lon="32.6816812">
<ele>1166.09</ele>
<time>2015-04-27T12:34:08Z</time>
</trkpt>
<trkpt lat="35.0034004" lon="32.6817426">
<ele>1166.01</ele>
<time>2015-04-27T12:34:09Z</time>
</trkpt>
<trkpt lat="35.0033795" lon="32.6818199">
<ele>1165.97</ele>
<time>2015-04-27T12:34:10Z</time>
</trkpt>
<trkpt lat="35.0033581" lon="32.6818898">
<ele>1165.95</ele>
<time>2015-04-27T12:34:11Z</time>
</trkpt>
<trkpt lat="35.0033486" lon="32.6819783">
<ele>1165.94</ele>
<time>2015-04-27T12:34:12Z</time>
</trkpt>
<trkpt lat="35.0033118" lon="32.6820594">
<ele>1165.43</ele>
<time>2015-04-27T12:34:13Z</time>
</trkpt>
<trkpt lat="35.0032905" lon="32.6821476">
<ele>1164.18</ele>
<time>2015-04-27T12:34:14Z</time>
</trkpt>
<trkpt lat="35.0032777" lon="32.6822390">
<ele>1163.55</ele>
<time>2015-04-27T12:34:15Z</time>
</trkpt>
<trkpt lat="35.0032809" lon="32.6823292">
<ele>1162.74</ele>
<time>2015-04-27T12:34:16Z</time>
</trkpt>
<trkpt lat="35.0032900" lon="32.6824239">
<ele>1161.83</ele>
<time>2015-04-27T12:34:17Z</time>
</trkpt>
<trkpt lat="35.0032973" lon="32.6825258">
<ele>1160.38</ele>
<time>2015-04-27T12:34:18Z</time>
</trkpt>
<trkpt lat="35.0032884" lon="32.6826336">
<ele>1158.65</ele>
<time>2015-04-27T12:34:19Z</time>
</trkpt>
<trkpt lat="35.0032685" lon="32.6827360">
<ele>1156.79</ele>
<time>2015-04-27T12:34:20Z</time>
</trkpt>
<trkpt lat="35.0032312" lon="32.6828397">
<ele>1155.36</ele>
<time>2015-04-27T12:34:21Z</time>
</trkpt>
<trkpt lat="35.0031972" lon="32.6829421">
<ele>1155.14</ele>
<time>2015-04-27T12:34:22Z</time>
</trkpt>
<trkpt lat="35.0031675" lon="32.6830532">
<ele>1154.53</ele>
<time>2015-04-27T12:34:23Z</time>
</trkpt>
<trkpt lat="35.0031439" lon="32.6831696">
<ele>1154.23</ele>
<time>2015-04-27T12:34:24Z</time>
</trkpt>
<trkpt lat="35.0031115" lon="32.6832711">
<ele>1153.58</ele>
<time>2015-04-27T12:34:25Z</time>
</trkpt>
<trkpt lat="35.0030846" lon="32.6833530">
<ele>1153.75</ele>
<time>2015-04-27T12:34:26Z</time>
</trkpt>
<trkpt lat="35.0030244" lon="32.6834256">
<ele>1153.34</ele>
<time>2015-04-27T12:34:27Z</time>
</trkpt>
<trkpt lat="35.0029562" lon="32.6834859">
<ele>1153.63</ele>
<time>2015-04-27T12:34:28Z</time>
</trkpt>
<trkpt lat="35.0028810" lon="32.6835372">
<ele>1153.28</ele>
<time>2015-04-27T12:34:29Z</time>
</trkpt>
<trkpt lat="35.0027994" lon="32.6835758">
<ele>1151.60</ele>
<time>2015-04-27T12:34:30Z</time>
</trkpt>
<trkpt lat="35.0027210" lon="32.6836048">
<ele>1150.76</ele>
<time>2015-04-27T12:34:31Z</time>
</trkpt>
<trkpt lat="35.0026477" lon="32.6836242">
<ele>1150.34</ele>
<time>2015-04-27T12:34:32Z</time>
</trkpt>
<trkpt lat="35.0025681" lon="32.6836354">
<ele>1149.63</ele>
<time>2015-04-27T12:34:33Z</time>
</trkpt>
<trkpt lat="35.0024935" lon="32.6836421">
<ele>1148.78</ele>
<time>2015-04-27T12:34:34Z</time>
</trkpt>
<trkpt lat="35.0024193" lon="32.6836532">
<ele>1147.85</ele>
<time>2015-04-27T12:34:35Z</time>
</trkpt>
<trkpt lat="35.0023479" lon="32.6836718">
<ele>1146.89</ele>
<time>2015-04-27T12:34:36Z</time>
</trkpt>
<trkpt lat="35.0022800" lon="32.6836945">
<ele>1146.41</ele>
<time>2015-04-27T12:34:37Z</time>
</trkpt>
<trkpt lat="35.0022137" lon="32.6837125">
<ele>1146.17</ele>
<time>2015-04-27T12:34:38Z</time>
</trkpt>
<trkpt lat="35.0021510" lon="32.6837293">
<ele>1145.55</ele>
<time>2015-04-27T12:34:39Z</time>
</trkpt>
<trkpt lat="35.0020871" lon="32.6837538">
<ele>1145.24</ele>
<time>2015-04-27T12:34:40Z</time>
</trkpt>
<trkpt lat="35.0020253" lon="32.6837806">
<ele>1145.08</ele>
<time>2015-04-27T12:34:41Z</time>
</trkpt>
<trkpt lat="35.0019667" lon="32.6838161">
<ele>1145.50</ele>
<time>2015-04-27T12:34:42Z</time>
</trkpt>
<trkpt lat="35.0019072" lon="32.6838438">
<ele>1145.21</ele>
<time>2015-04-27T12:34:43Z</time>
</trkpt>
<trkpt lat="35.0018679" lon="32.6838778">
<ele>1145.07</ele>
<time>2015-04-27T12:34:44Z</time>
</trkpt>
<trkpt lat="35.0018026" lon="32.6839285">
<ele>1144.50</ele>
<time>2015-04-27T12:34:45Z</time>
</trkpt>
<trkpt lat="35.0017580" lon="32.6839808">
<ele>1144.21</ele>
<time>2015-04-27T12:34:46Z</time>
</trkpt>
<trkpt lat="35.0017426" lon="32.6840515">
<ele>1144.07</ele>
<time>2015-04-27T12:34:47Z</time>
</trkpt>
<trkpt lat="35.0017523" lon="32.6841219">
<ele>1144.50</ele>
<time>2015-04-27T12:34:48Z</time>
</trkpt>
<trkpt lat="35.0017687" lon="32.6841894">
<ele>1143.71</ele>
<time>2015-04-27T12:34:49Z</time>
</trkpt>
<trkpt lat="35.0017954" lon="32.6842518">
<ele>1143.32</ele>
<time>2015-04-27T12:34:50Z</time>
</trkpt>
<trkpt lat="35.0018201" lon="32.6843134">
<ele>1143.12</ele>
<time>2015-04-27T12:34:51Z</time>
</trkpt>
<trkpt lat="35.0018442" lon="32.6843753">
<ele>1143.02</ele>
<time>2015-04-27T12:34:52Z</time>
</trkpt>
<trkpt lat="35.0018752" lon="32.6844375">
<ele>1143.47</ele>
<time>2015-04-27T12:34:53Z</time>
</trkpt>
<trkpt lat="35.0019115" lon="32.6845082">
<ele>1143.20</ele>
<time>2015-04-27T12:34:54Z</time>
</trkpt>
<trkpt lat="35.0019429" lon="32.6845732">
<ele>1142.56</ele>
<time>2015-04-27T12:34:55Z</time>
</trkpt>
<trkpt lat="35.0019778" lon="32.6846444">
<ele>1142.24</ele>
<time>2015-04-27T12:34:56Z</time>
</trkpt>
<trkpt lat="35.0019995" lon="32.6847257">
<ele>1142.08</ele>
<time>2015-04-27T12:34:57Z</time>
</trkpt>
<trkpt lat="35.0020168" lon="32.6847995">
<ele>1141.50</ele>
<time>2015-04-27T12:34:58Z</time>
</trkpt>
<trkpt lat="35.0020363" lon="32.6848727">
<ele>1140.71</ele>
<time>2015-04-27T12:34:59Z</time>
</trkpt>
<trkpt lat="35.0020720" lon="32.6849387">
<ele>1139.82</ele>
<time>2015-04-27T12:35:00Z</time>
</trkpt>
<trkpt lat="35.0021103" lon="32.6849919">
<ele>1138.87</ele>
<time>2015-04-27T12:35:01Z</time>
</trkpt>
<trkpt lat="35.0021460" lon="32.6850458">
<ele>1138.40</ele>
<time>2015-04-27T12:35:02Z</time>
</trkpt>
<trkpt lat="35.0021720" lon="32.6851021">
<ele>1138.16</ele>
<time>2015-04-27T12:35:03Z</time>
</trkpt>
<trkpt lat="35.0021820" lon="32.6851634">
<ele>1138.04</ele>
<time>2015-04-27T12:35:04Z</time>
</trkpt>
<trkpt lat="35.0021652" lon="32.6852349">
<ele>1137.48</ele>
<time>2015-04-27T12:35:05Z</time>
</trkpt>
<trkpt lat="35.0021354" lon="32.6852998">
<ele>1137.20</ele>
<time>2015-04-27T12:35:06Z</time>
</trkpt>
<trkpt lat="35.0021008" lon="32.6853626">
<ele>1137.06</ele>
<time>2015-04-27T12:35:07Z</time>
</trkpt>
<trkpt lat="35.0020704" lon="32.6854329">
<ele>1136.99</ele>
<time>2015-04-27T12:35:08Z</time>
</trkpt>
<trkpt lat="35.0020418" lon="32.6855031">
<ele>1136.46</ele>
<time>2015-04-27T12:35:09Z</time>
</trkpt>
<trkpt lat="35.0020208" lon="32.6855813">
<ele>1136.19</ele>
<time>2015-04-27T12:35:10Z</time>
</trkpt>
<trkpt lat="35.0020024" lon="32.6856499">
<ele>1135.56</ele>
<time>2015-04-27T12:35:11Z</time>
</trkpt>
<trkpt lat="35.0020078" lon="32.6857346">
<ele>1135.24</ele>
<time>2015-04-27T12:35:12Z</time>
</trkpt>
<trkpt lat="35.0020273" lon="32.6858071">
<ele>1135.58</ele>
<time>2015-04-27T12:35:13Z</time>
</trkpt>
<trkpt lat="35.0020532" lon="32.6858681">
<ele>1135.75</ele>
<time>2015-04-27T12:35:14Z</time>
</trkpt>
<trkpt lat="35.0020892" lon="32.6859173">
<ele>1135.34</ele>
<time>2015-04-27T12:35:15Z</time>
</trkpt>
<trkpt lat="35.0021411" lon="32.6859623">
<ele>1135.13</ele>
<time>2015-04-27T12:35:16Z</time>
</trkpt>
<trkpt lat="35.0022009" lon="32.6860075">
<ele>1134.53</ele>
<time>2015-04-27T12:35:17Z</time>
</trkpt>
<trkpt lat="35.0022490" lon="32.6860543">
<ele>1134.23</ele>
<time>2015-04-27T12:35:18Z</time>
</trkpt>
<trkpt lat="35.0022966" lon="32.6861029">
<ele>1133.58</ele>
<time>2015-04-27T12:35:19Z</time>
</trkpt>
<trkpt lat="35.0023596" lon="32.6861684">
<ele>1133.25</ele>
<time>2015-04-27T12:35:20Z</time>
</trkpt>
<trkpt lat="35.0024169" lon="32.6862255">
<ele>1132.59</ele>
<time>2015-04-27T12:35:21Z</time>
</trkpt>
<trkpt lat="35.0024702" lon="32.6862818">
<ele>1132.26</ele>
<time>2015-04-27T12:35:22Z</time>
</trkpt>
<trkpt lat="35.0025207" lon="32.6863402">
<ele>1131.59</ele>
<time>2015-04-27T12:35:23Z</time>
</trkpt>
<trkpt lat="35.0025793" lon="32.6863967">
<ele>1130.76</ele>
<time>2015-04-27T12:35:24Z</time>
</trkpt>
<trkpt lat="35.0026292" lon="32.6864741">
<ele>1129.84</ele>
<time>2015-04-27T12:35:25Z</time>
</trkpt>
<trkpt lat="35.0026542" lon="32.6865539">
<ele>1129.38</ele>
<time>2015-04-27T12:35:26Z</time>
</trkpt>
<trkpt lat="35.0026702" lon="32.6866321">
<ele>1129.65</ele>
<time>2015-04-27T12:35:27Z</time>
</trkpt>
<trkpt lat="35.0026784" lon="32.6867209">
<ele>1129.79</ele>
<time>2015-04-27T12:35:28Z</time>
</trkpt>
<trkpt lat="35.0026809" lon="32.6868102">
<ele>1129.86</ele>
<time>2015-04-27T12:35:29Z</time>
</trkpt>
<trkpt lat="35.0026675" lon="32.6868996">
<ele>1129.89</ele>
<time>2015-04-27T12:35:30Z</time>
</trkpt>
<trkpt lat="35.0026531" lon="32.6869798">
<ele>1130.41</ele>
<time>2015-04-27T12:35:31Z</time>
</trkpt>
<trkpt lat="35.0026333" lon="32.6870662">
<ele>1130.67</ele>
<time>2015-04-27T12:35:32Z</time>
</trkpt>
<trkpt lat="35.0026172" lon="32.6871517">
<ele>1130.80</ele>
<time>2015-04-27T12:35:33Z</time>
</trkpt>
<trkpt lat="35.0026074" lon="32.6872427">
<ele>1130.36</ele>
<time>2015-04-27T12:35:34Z</time>
</trkpt>
<trkpt lat="35.0026142" lon="32.6873338">
<ele>1130.14</ele>
<time>2015-04-27T12:35:35Z</time>
</trkpt>
<trkpt lat="35.0026345" lon="32.6874185">
<ele>1130.53</ele>
<time>2015-04-27T12:35:36Z</time>
</trkpt>
<trkpt lat="35.0026720" lon="32.6874954">
<ele>1130.73</ele>
<time>2015-04-27T12:35:37Z</time>
</trkpt>
<trkpt lat="35.0026989" lon="32.6875664">
<ele>1130.83</ele>
<time>2015-04-27T12:35:38Z</time>
</trkpt>
<trkpt lat="35.0027158" lon="32.6876404">
<ele>1130.88</ele>
<time>2015-04-27T12:35:39Z</time>
</trkpt>
<trkpt lat="35.0027430" lon="32.6876992">
<ele>1130.90</ele>
<time>2015-04-27T12:35:40Z</time>
</trkpt>
<trkpt lat="35.0027775" lon="32.6877516">
<ele>1131.41</ele>
<time>2015-04-27T12:35:41Z</time>
</trkpt>
<trkpt lat="35.0028080" lon="32.6878145">
<ele>1131.17</ele>
<time>2015-04-27T12:35:42Z</time>
</trkpt>
<trkpt lat="35.0028538" lon="32.6878709">
<ele>1131.05</ele>
<time>2015-04-27T12:35:43Z</time>
</trkpt>
<trkpt lat="35.0028990" lon="32.6879315">
<ele>1130.49</ele>
<time>2015-04-27T12:35:44Z</time>
</trkpt>
<trkpt lat="35.0029441" lon="32.6879932">
<ele>1130.71</ele>
<time>2015-04-27T12:35:45Z</time>
</trkpt>
<trkpt lat="35.0029972" lon="32.6880466">
<ele>1130.82</ele>
<time>2015-04-27T12:35:46Z</time>
</trkpt>
<trkpt lat="35.0030521" lon="32.6880877">
<ele>1130.87</ele>
<time>2015-04-27T12:35:47Z</time>
</trkpt>
<trkpt lat="35.0031086" lon="32.6881486">
<ele>1130.40</ele>
<time>2015-04-27T12:35:48Z</time>
</trkpt>
<trkpt lat="35.0031638" lon="32.6882120">
<ele>1130.16</ele>
<time>2015-04-27T12:35:49Z</time>
</trkpt>
<trkpt lat="35.0032154" lon="32.6882799">
<ele>1130.04</ele>
<time>2015-04-27T12:35:50Z</time>
</trkpt>
<trkpt lat="35.0032730" lon="32.6883414">
<ele>1129.48</ele>
<time>2015-04-27T12:35:51Z</time>
</trkpt>
<trkpt lat="35.0033334" lon="32.6884023">
<ele>1129.20</ele>
<time>2015-04-27T12:35:52Z</time>
</trkpt>
<trkpt lat="35.0033898" lon="32.6884590">
<ele>1129.06</ele>
<time>2015-04-27T12:35:53Z</time>
</trkpt>
<trkpt lat="35.0034432" lon="32.6885226">
<ele>1128.99</ele>
<time>2015-04-27T12:35:54Z</time>
</trkpt>
<trkpt lat="35.0034763" lon="32.6886087">
<ele>1128.46</ele>
<time>2015-04-27T12:35:55Z</time>
</trkpt>
<trkpt lat="35.0035022" lon="32.6887057">
<ele>1128.19</ele>
<time>2015-04-27T12:35:56Z</time>
</trkpt>
<trkpt lat="35.0035129" lon="32.6888016">
<ele>1128.06</ele>
<time>2015-04-27T12:35:57Z</time>
</trkpt>
<trkpt lat="35.0035297" lon="32.6888928">
<ele>1127.99</ele>
<time>2015-04-27T12:35:58Z</time>
</trkpt>
<trkpt lat="35.0035517" lon="32.6889797">
<ele>1127.96</ele>
<time>2015-04-27T12:35:59Z</time>
</trkpt>
<trkpt lat="35.0035760" lon="32.6890667">
<ele>1127.94</ele>
<time>2015-04-27T12:36:00Z</time>
</trkpt>
<trkpt lat="35.0036042" lon="32.6891543">
<ele>1127.93</ele>
<time>2015-04-27T12:36:01Z</time>
</trkpt>
<trkpt lat="35.0036337" lon="32.6892419">
<ele>1127.93</ele>
<time>2015-04-27T12:36:02Z</time>
</trkpt>
<trkpt lat="35.0036678" lon="32.6893194">
<ele>1127.93</ele>
<time>2015-04-27T12:36:03Z</time>
</trkpt>
<trkpt lat="35.0037098" lon="32.6893944">
<ele>1127.93</ele>
<time>2015-04-27T12:36:04Z</time>
</trkpt>
<trkpt lat="35.0037557" lon="32.6894624">
<ele>1127.43</ele>
<time>2015-04-27T12:36:05Z</time>
</trkpt>
<trkpt lat="35.0038011" lon="32.6895347">
<ele>1127.18</ele>
<time>2015-04-27T12:36:06Z</time>
</trkpt>
<trkpt lat="35.0038481" lon="32.6896058">
<ele>1126.55</ele>
<time>2015-04-27T12:36:07Z</time>
</trkpt>
<trkpt lat="35.0038956" lon="32.6896689">
<ele>1126.74</ele>
<time>2015-04-27T12:36:08Z</time>
</trkpt>
<trkpt lat="35.0039435" lon="32.6897356">
<ele>1126.33</ele>
<time>2015-04-27T12:36:09Z</time>
</trkpt>
<trkpt lat="35.0039916" lon="32.6898000">
<ele>1125.63</ele>
<time>2015-04-27T12:36:10Z</time>
</trkpt>
<trkpt lat="35.0040455" lon="32.6898496">
<ele>1125.28</ele>
<time>2015-04-27T12:36:11Z</time>
</trkpt>
<trkpt lat="35.0041073" lon="32.6898964">
<ele>1125.10</ele>
<time>2015-04-27T12:36:12Z</time>
</trkpt>
<trkpt lat="35.0041599" lon="32.6899226">
<ele>1125.01</ele>
<time>2015-04-27T12:36:13Z</time>
</trkpt>
<trkpt lat="35.0042119" lon="32.6899520">
<ele>1125.47</ele>
<time>2015-04-27T12:36:14Z</time>
</trkpt>
<trkpt lat="35.0042594" lon="32.6900172">
<ele>1125.20</ele>
<time>2015-04-27T12:36:15Z</time>
</trkpt>
<trkpt lat="35.0042967" lon="32.6900870">
<ele>1124.56</ele>
<time>2015-04-27T12:36:16Z</time>
</trkpt>
<trkpt lat="35.0043107" lon="32.6901722">
<ele>1124.24</ele>
<time>2015-04-27T12:36:17Z</time>
</trkpt>
<trkpt lat="35.0043240" lon="32.6902572">
<ele>1124.58</ele>
<time>2015-04-27T12:36:18Z</time>
</trkpt>
<trkpt lat="35.0043304" lon="32.6903465">
<ele>1124.25</ele>
<time>2015-04-27T12:36:19Z</time>
</trkpt>
<trkpt lat="35.0043398" lon="32.6904339">
<ele>1124.09</ele>
<time>2015-04-27T12:36:20Z</time>
</trkpt>
<trkpt lat="35.0043574" lon="32.6905239">
<ele>1124.01</ele>
<time>2015-04-27T12:36:21Z</time>
</trkpt>
<trkpt lat="35.0043827" lon="32.6906094">
<ele>1123.97</ele>
<time>2015-04-27T12:36:22Z</time>
</trkpt>
<trkpt lat="35.0044217" lon="32.6906868">
<ele>1123.95</ele>
<time>2015-04-27T12:36:23Z</time>
</trkpt>
<trkpt lat="35.0044668" lon="32.6907526">
<ele>1123.94</ele>
<time>2015-04-27T12:36:24Z</time>
</trkpt>
<trkpt lat="35.0045201" lon="32.6908097">
<ele>1123.43</ele>
<time>2015-04-27T12:36:25Z</time>
</trkpt>
<trkpt lat="35.0045663" lon="32.6908688">
<ele>1123.68</ele>
<time>2015-04-27T12:36:26Z</time>
</trkpt>
<trkpt lat="35.0046150" lon="32.6909260">
<ele>1123.30</ele>
<time>2015-04-27T12:36:27Z</time>
</trkpt>
<trkpt lat="35.0046567" lon="32.6909814">
<ele>1123.61</ele>
<time>2015-04-27T12:36:28Z</time>
</trkpt>
<trkpt lat="35.0047044" lon="32.6910416">
<ele>1123.77</ele>
<time>2015-04-27T12:36:29Z</time>
</trkpt>
<trkpt lat="35.0047463" lon="32.6911064">
<ele>1123.85</ele>
<time>2015-04-27T12:36:30Z</time>
</trkpt>
<trkpt lat="35.0047810" lon="32.6911748">
<ele>1123.89</ele>
<time>2015-04-27T12:36:31Z</time>
</trkpt>
<trkpt lat="35.0048135" lon="32.6912400">
<ele>1123.91</ele>
<time>2015-04-27T12:36:32Z</time>
</trkpt>
<trkpt lat="35.0048540" lon="32.6913018">
<ele>1123.42</ele>
<time>2015-04-27T12:36:33Z</time>
</trkpt>
<trkpt lat="35.0048956" lon="32.6913559">
<ele>1123.67</ele>
<time>2015-04-27T12:36:34Z</time>
</trkpt>
<trkpt lat="35.0049470" lon="32.6914090">
<ele>1123.30</ele>
<time>2015-04-27T12:36:35Z</time>
</trkpt>
<trkpt lat="35.0050035" lon="32.6914495">
<ele>1123.61</ele>
<time>2015-04-27T12:36:36Z</time>
</trkpt>
<trkpt lat="35.0050678" lon="32.6914812">
<ele>1123.77</ele>
<time>2015-04-27T12:36:37Z</time>
</trkpt>
<trkpt lat="35.0051329" lon="32.6914995">
<ele>1123.35</ele>
<time>2015-04-27T12:36:38Z</time>
</trkpt>
<trkpt lat="35.0052024" lon="32.6915173">
<ele>1123.14</ele>
<time>2015-04-27T12:36:39Z</time>
</trkpt>
<trkpt lat="35.0052623" lon="32.6915342">
<ele>1122.53</ele>
<time>2015-04-27T12:36:40Z</time>
</trkpt>
<trkpt lat="35.0053100" lon="32.6915612">
<ele>1122.23</ele>
<time>2015-04-27T12:36:41Z</time>
</trkpt>
<trkpt lat="35.0053558" lon="32.6916080">
<ele>1121.58</ele>
<time>2015-04-27T12:36:42Z</time>
</trkpt>
<trkpt lat="35.0053938" lon="32.6916608">
<ele>1121.25</ele>
<time>2015-04-27T12:36:43Z</time>
</trkpt>
<trkpt lat="35.0054271" lon="32.6917310">
<ele>1121.09</ele>
<time>2015-04-27T12:36:44Z</time>
</trkpt>
<trkpt lat="35.0054502" lon="32.6918031">
<ele>1120.51</ele>
<time>2015-04-27T12:36:45Z</time>
</trkpt>
<trkpt lat="35.0054743" lon="32.6918713">
<ele>1120.22</ele>
<time>2015-04-27T12:36:46Z</time>
</trkpt>
<trkpt lat="35.0055103" lon="32.6919486">
<ele>1120.07</ele>
<time>2015-04-27T12:36:47Z</time>
</trkpt>
<trkpt lat="35.0055564" lon="32.6920082">
<ele>1120.00</ele>
<time>2015-04-27T12:36:48Z</time>
</trkpt>
<trkpt lat="35.0056101" lon="32.6920651">
<ele>1119.96</ele>
<time>2015-04-27T12:36:49Z</time>
</trkpt>
<trkpt lat="35.0056756" lon="32.6921133">
<ele>1119.44</ele>
<time>2015-04-27T12:36:50Z</time>
</trkpt>
<trkpt lat="35.0057408" lon="32.6921511">
<ele>1119.18</ele>
<time>2015-04-27T12:36:51Z</time>
</trkpt>
<trkpt lat="35.0058023" lon="32.6921953">
<ele>1119.05</ele>
<time>2015-04-27T12:36:52Z</time>
</trkpt>
<trkpt lat="35.0058661" lon="32.6922399">
<ele>1118.99</ele>
<time>2015-04-27T12:36:53Z</time>
</trkpt>
<trkpt lat="35.0059211" lon="32.6922945">
<ele>1118.46</ele>
<time>2015-04-27T12:36:54Z</time>
</trkpt>
<trkpt lat="35.0059788" lon="32.6923524">
<ele>1118.19</ele>
<time>2015-04-27T12:36:55Z</time>
</trkpt>
<trkpt lat="35.0060310" lon="32.6923990">
<ele>1118.06</ele>
<time>2015-04-27T12:36:56Z</time>
</trkpt>
<trkpt lat="35.0060794" lon="32.6924544">
<ele>1118.49</ele>
<time>2015-04-27T12:36:57Z</time>
</trkpt>
<trkpt lat="35.0061184" lon="32.6925147">
<ele>1118.71</ele>
<time>2015-04-27T12:36:58Z</time>
</trkpt>
<trkpt lat="35.0061329" lon="32.6926065">
<ele>1118.82</ele>
<time>2015-04-27T12:36:59Z</time>
</trkpt>
<trkpt lat="35.0061352" lon="32.6926908">
<ele>1118.87</ele>
<time>2015-04-27T12:37:00Z</time>
</trkpt>
<trkpt lat="35.0061302" lon="32.6927765">
<ele>1118.40</ele>
<time>2015-04-27T12:37:01Z</time>
</trkpt>
<trkpt lat="35.0061222" lon="32.6928550">
<ele>1118.16</ele>
<time>2015-04-27T12:37:02Z</time>
</trkpt>
<trkpt lat="35.0061010" lon="32.6929297">
<ele>1118.04</ele>
<time>2015-04-27T12:37:03Z</time>
</trkpt>
<trkpt lat="35.0060646" lon="32.6929959">
<ele>1117.48</ele>
<time>2015-04-27T12:37:04Z</time>
</trkpt>
<trkpt lat="35.0060142" lon="32.6930513">
<ele>1116.70</ele>
<time>2015-04-27T12:37:05Z</time>
</trkpt>
<trkpt lat="35.0059577" lon="32.6930983">
<ele>1115.81</ele>
<time>2015-04-27T12:37:06Z</time>
</trkpt>
<trkpt lat="35.0059031" lon="32.6931370">
<ele>1115.37</ele>
<time>2015-04-27T12:37:07Z</time>
</trkpt>
<trkpt lat="35.0058413" lon="32.6931837">
<ele>1115.15</ele>
<time>2015-04-27T12:37:08Z</time>
</trkpt>
<trkpt lat="35.0057797" lon="32.6932175">
<ele>1115.54</ele>
<time>2015-04-27T12:37:09Z</time>
</trkpt>
<trkpt lat="35.0057181" lon="32.6932568">
<ele>1115.73</ele>
<time>2015-04-27T12:37:10Z</time>
</trkpt>
<trkpt lat="35.0056529" lon="32.6932963">
<ele>1115.83</ele>
<time>2015-04-27T12:37:11Z</time>
</trkpt>
<trkpt lat="35.0055923" lon="32.6933385">
<ele>1115.88</ele>
<time>2015-04-27T12:37:12Z</time>
</trkpt>
<trkpt lat="35.0055330" lon="32.6933780">
<ele>1116.40</ele>
<time>2015-04-27T12:37:13Z</time>
</trkpt>
<trkpt lat="35.0054792" lon="32.6934153">
<ele>1116.16</ele>
<time>2015-04-27T12:37:14Z</time>
</trkpt>
<trkpt lat="35.0054299" lon="32.6934514">
<ele>1116.54</ele>
<time>2015-04-27T12:37:15Z</time>
</trkpt>
<trkpt lat="35.0053649" lon="32.6934754">
<ele>1117.23</ele>
<time>2015-04-27T12:37:16Z</time>
</trkpt>
<trkpt lat="35.0052987" lon="32.6934666">
<ele>1118.08</ele>
<time>2015-04-27T12:37:17Z</time>
</trkpt>
<trkpt lat="35.0052394" lon="32.6934454">
<ele>1118.50</ele>
<time>2015-04-27T12:37:18Z</time>
</trkpt>
<trkpt lat="35.0051787" lon="32.6934134">
<ele>1118.71</ele>
<time>2015-04-27T12:37:19Z</time>
</trkpt>
<trkpt lat="35.0051205" lon="32.6933712">
<ele>1118.82</ele>
<time>2015-04-27T12:37:20Z</time>
</trkpt>
<trkpt lat="35.0050666" lon="32.6933317">
<ele>1118.37</ele>
<time>2015-04-27T12:37:21Z</time>
</trkpt>
<trkpt lat="35.0050124" lon="32.6932888">
<ele>1117.65</ele>
<time>2015-04-27T12:37:22Z</time>
</trkpt>
<trkpt lat="35.0049594" lon="32.6932524">
<ele>1117.29</ele>
<time>2015-04-27T12:37:23Z</time>
</trkpt>
<trkpt lat="35.0049027" lon="32.6932104">
<ele>1117.61</ele>
<time>2015-04-27T12:37:24Z</time>
</trkpt>
<trkpt lat="35.0048477" lon="32.6931708">
<ele>1117.77</ele>
<time>2015-04-27T12:37:25Z</time>
</trkpt>
<trkpt lat="35.0047988" lon="32.6931283">
<ele>1117.85</ele>
<time>2015-04-27T12:37:26Z</time>
</trkpt>
<trkpt lat="35.0047470" lon="32.6930883">
<ele>1117.89</ele>
<time>2015-04-27T12:37:27Z</time>
</trkpt>
<trkpt lat="35.0046924" lon="32.6930481">
<ele>1118.41</ele>
<time>2015-04-27T12:37:28Z</time>
</trkpt>
<trkpt lat="35.0046420" lon="32.6930029">
<ele>1118.67</ele>
<time>2015-04-27T12:37:29Z</time>
</trkpt>
<trkpt lat="35.0045889" lon="32.6929613">
<ele>1119.30</ele>
<time>2015-04-27T12:37:30Z</time>
</trkpt>
<trkpt lat="35.0045397" lon="32.6929124">
<ele>1119.61</ele>
<time>2015-04-27T12:37:31Z</time>
</trkpt>
<trkpt lat="35.0044869" lon="32.6928668">
<ele>1119.27</ele>
<time>2015-04-27T12:37:32Z</time>
</trkpt>
<trkpt lat="35.0044313" lon="32.6928307">
<ele>1119.10</ele>
<time>2015-04-27T12:37:33Z</time>
</trkpt>
<trkpt lat="35.0043792" lon="32.6928050">
<ele>1119.01</ele>
<time>2015-04-27T12:37:34Z</time>
</trkpt>
<trkpt lat="35.0043224" lon="32.6928083">
<ele>1119.47</ele>
<time>2015-04-27T12:37:35Z</time>
</trkpt>
<trkpt lat="35.0042568" lon="32.6928044">
<ele>1120.20</ele>
<time>2015-04-27T12:37:36Z</time>
</trkpt>
<trkpt lat="35.0041906" lon="32.6928139">
<ele>1120.06</ele>
<time>2015-04-27T12:37:37Z</time>
</trkpt>
<trkpt lat="35.0041117" lon="32.6928444">
<ele>1120.99</ele>
<time>2015-04-27T12:37:38Z</time>
</trkpt>
<trkpt lat="35.0040442" lon="32.6928656">
<ele>1121.46</ele>
<time>2015-04-27T12:37:39Z</time>
</trkpt>
<trkpt lat="35.0039831" lon="32.6929068">
<ele>1121.19</ele>
<time>2015-04-27T12:37:40Z</time>
</trkpt>
<trkpt lat="35.0039240" lon="32.6929417">
<ele>1122.56</ele>
<time>2015-04-27T12:37:41Z</time>
</trkpt>
<trkpt lat="35.0038658" lon="32.6929750">
<ele>1122.74</ele>
<time>2015-04-27T12:37:42Z</time>
</trkpt>
<trkpt lat="35.0038085" lon="32.6930184">
<ele>1122.83</ele>
<time>2015-04-27T12:37:43Z</time>
</trkpt>
<trkpt lat="35.0037412" lon="32.6930509">
<ele>1122.38</ele>
<time>2015-04-27T12:37:44Z</time>
</trkpt>
<trkpt lat="35.0036702" lon="32.6930691">
<ele>1122.15</ele>
<time>2015-04-27T12:37:45Z</time>
</trkpt>
<trkpt lat="35.0035956" lon="32.6930846">
<ele>1122.54</ele>
<time>2015-04-27T12:37:46Z</time>
</trkpt>
<trkpt lat="35.0035302" lon="32.6930900">
<ele>1122.73</ele>
<time>2015-04-27T12:37:47Z</time>
</trkpt>
<trkpt lat="35.0034603" lon="32.6930975">
<ele>1122.83</ele>
<time>2015-04-27T12:37:48Z</time>
</trkpt>
<trkpt lat="35.0033887" lon="32.6931176">
<ele>1122.38</ele>
<time>2015-04-27T12:37:49Z</time>
</trkpt>
<trkpt lat="35.0033141" lon="32.6931347">
<ele>1122.15</ele>
<time>2015-04-27T12:37:50Z</time>
</trkpt>
<trkpt lat="35.0032459" lon="32.6931696">
<ele>1122.04</ele>
<time>2015-04-27T12:37:51Z</time>
</trkpt>
<trkpt lat="35.0031923" lon="32.6932370">
<ele>1121.98</ele>
<time>2015-04-27T12:37:52Z</time>
</trkpt>
<trkpt lat="35.0031394" lon="32.6932859">
<ele>1121.95</ele>
<time>2015-04-27T12:37:53Z</time>
</trkpt>
<trkpt lat="35.0030912" lon="32.6933592">
<ele>1121.94</ele>
<time>2015-04-27T12:37:54Z</time>
</trkpt>
<trkpt lat="35.0030445" lon="32.6934319">
<ele>1121.93</ele>
<time>2015-04-27T12:37:55Z</time>
</trkpt>
<trkpt lat="35.0030087" lon="32.6935074">
<ele>1121.43</ele>
<time>2015-04-27T12:37:56Z</time>
</trkpt>
<trkpt lat="35.0029715" lon="32.6935859">
<ele>1121.18</ele>
<time>2015-04-27T12:37:57Z</time>
</trkpt>
<trkpt lat="35.0029349" lon="32.6936561">
<ele>1120.55</ele>
<time>2015-04-27T12:37:58Z</time>
</trkpt>
<trkpt lat="35.0028993" lon="32.6937376">
<ele>1119.74</ele>
<time>2015-04-27T12:37:59Z</time>
</trkpt>
<trkpt lat="35.0028578" lon="32.6938110">
<ele>1119.33</ele>
<time>2015-04-27T12:38:00Z</time>
</trkpt>
<trkpt lat="35.0027889" lon="32.6938556">
<ele>1118.13</ele>
<time>2015-04-27T12:38:01Z</time>
</trkpt>
<trkpt lat="35.0027289" lon="32.6938688">
<ele>1117.03</ele>
<time>2015-04-27T12:38:02Z</time>
</trkpt>
<trkpt lat="35.0026769" lon="32.6938540">
<ele>1116.48</ele>
<time>2015-04-27T12:38:03Z</time>
</trkpt>
<trkpt lat="35.0026310" lon="32.6938053">
<ele>1116.70</ele>
<time>2015-04-27T12:38:04Z</time>
</trkpt>
<trkpt lat="35.0025998" lon="32.6937487">
<ele>1117.31</ele>
<time>2015-04-27T12:38:05Z</time>
</trkpt>
<trkpt lat="35.0025730" lon="32.6936842">
<ele>1118.12</ele>
<time>2015-04-27T12:38:06Z</time>
</trkpt>
<trkpt lat="35.0025447" lon="32.6936131">
<ele>1118.02</ele>
<time>2015-04-27T12:38:07Z</time>
</trkpt>
<trkpt lat="35.0025166" lon="32.6935525">
<ele>1117.97</ele>
<time>2015-04-27T12:38:08Z</time>
</trkpt>
<trkpt lat="35.0024853" lon="32.6934993">
<ele>1117.95</ele>
<time>2015-04-27T12:38:09Z</time>
</trkpt>
<trkpt lat="35.0024524" lon="32.6934546">
<ele>1118.44</ele>
<time>2015-04-27T12:38:10Z</time>
</trkpt>
<trkpt lat="35.0024194" lon="32.6934012">
<ele>1118.68</ele>
<time>2015-04-27T12:38:11Z</time>
</trkpt>
<trkpt lat="35.0023761" lon="32.6933543">
<ele>1119.30</ele>
<time>2015-04-27T12:38:12Z</time>
</trkpt>
<trkpt lat="35.0023313" lon="32.6933074">
<ele>1119.11</ele>
<time>2015-04-27T12:38:13Z</time>
</trkpt>
<trkpt lat="35.0022845" lon="32.6932681">
<ele>1119.02</ele>
<time>2015-04-27T12:38:14Z</time>
</trkpt>
<trkpt lat="35.0022335" lon="32.6932377">
<ele>1118.97</ele>
<time>2015-04-27T12:38:15Z</time>
</trkpt>
<trkpt lat="35.0021846" lon="32.6932072">
<ele>1119.45</ele>
<time>2015-04-27T12:38:16Z</time>
</trkpt>
<trkpt lat="35.0021374" lon="32.6931682">
<ele>1119.69</ele>
<time>2015-04-27T12:38:17Z</time>
</trkpt>
<trkpt lat="35.0020798" lon="32.6931264">
<ele>1119.81</ele>
<time>2015-04-27T12:38:18Z</time>
</trkpt>
<trkpt lat="35.0020238" lon="32.6930863">
<ele>1119.87</ele>
<time>2015-04-27T12:38:19Z</time>
</trkpt>
<trkpt lat="35.0019692" lon="32.6930560">
<ele>1119.90</ele>
<time>2015-04-27T12:38:20Z</time>
</trkpt>
<trkpt lat="35.0019142" lon="32.6930275">
<ele>1119.91</ele>
<time>2015-04-27T12:38:21Z</time>
</trkpt>
<trkpt lat="35.0018616" lon="32.6929999">
<ele>1119.92</ele>
<time>2015-04-27T12:38:22Z</time>
</trkpt>
<trkpt lat="35.0018092" lon="32.6929778">
<ele>1120.42</ele>
<time>2015-04-27T12:38:23Z</time>
</trkpt>
<trkpt lat="35.0017494" lon="32.6929551">
<ele>1121.17</ele>
<time>2015-04-27T12:38:24Z</time>
</trkpt>
<trkpt lat="35.0016913" lon="32.6929300">
<ele>1121.55</ele>
<time>2015-04-27T12:38:25Z</time>
</trkpt>
<trkpt lat="35.0016333" lon="32.6929006">
<ele>1122.24</ele>
<time>2015-04-27T12:38:26Z</time>
</trkpt>
<trkpt lat="35.0015844" lon="32.6928699">
<ele>1122.58</ele>
<time>2015-04-27T12:38:27Z</time>
</trkpt>
<trkpt lat="35.0015404" lon="32.6928436">
<ele>1122.75</ele>
<time>2015-04-27T12:38:28Z</time>
</trkpt>
<trkpt lat="35.0014609" lon="32.6927890">
<ele>1123.63</ele>
<time>2015-04-27T12:38:30Z</time>
</trkpt>
<trkpt lat="35.0014164" lon="32.6927601">
<ele>1123.78</ele>
<time>2015-04-27T12:38:31Z</time>
</trkpt>
<trkpt lat="35.0013649" lon="32.6927352">
<ele>1123.85</ele>
<time>2015-04-27T12:38:32Z</time>
</trkpt>
<trkpt lat="35.0013112" lon="32.6927068">
<ele>1123.89</ele>
<time>2015-04-27T12:38:33Z</time>
</trkpt>
<trkpt lat="35.0012616" lon="32.6926852">
<ele>1123.91</ele>
<time>2015-04-27T12:38:34Z</time>
</trkpt>
<trkpt lat="35.0012101" lon="32.6926510">
<ele>1123.42</ele>
<time>2015-04-27T12:38:35Z</time>
</trkpt>
<trkpt lat="35.0011539" lon="32.6926225">
<ele>1123.17</ele>
<time>2015-04-27T12:38:36Z</time>
</trkpt>
<trkpt lat="35.0010951" lon="32.6926008">
<ele>1123.55</ele>
<time>2015-04-27T12:38:37Z</time>
</trkpt>
<trkpt lat="35.0010396" lon="32.6925973">
<ele>1123.74</ele>
<time>2015-04-27T12:38:38Z</time>
</trkpt>
<trkpt lat="35.0009911" lon="32.6925884">
<ele>1123.83</ele>
<time>2015-04-27T12:38:39Z</time>
</trkpt>
<trkpt lat="35.0008901" lon="32.6925906">
<ele>1122.40</ele>
<time>2015-04-27T12:38:41Z</time>
</trkpt>
<trkpt lat="35.0008402" lon="32.6925991">
<ele>1122.66</ele>
<time>2015-04-27T12:38:42Z</time>
</trkpt>
<trkpt lat="35.0007825" lon="32.6926052">
<ele>1122.29</ele>
<time>2015-04-27T12:38:43Z</time>
</trkpt>
<trkpt lat="35.0006842" lon="32.6926354">
<ele>1121.77</ele>
<time>2015-04-27T12:38:45Z</time>
</trkpt>
<trkpt lat="35.0006302" lon="32.6926550">
<ele>1121.85</ele>
<time>2015-04-27T12:38:46Z</time>
</trkpt>
<trkpt lat="35.0005795" lon="32.6926871">
<ele>1121.89</ele>
<time>2015-04-27T12:38:47Z</time>
</trkpt>
<trkpt lat="35.0005323" lon="32.6927096">
<ele>1122.41</ele>
<time>2015-04-27T12:38:48Z</time>
</trkpt>
<trkpt lat="35.0004914" lon="32.6927337">
<ele>1122.17</ele>
<time>2015-04-27T12:38:49Z</time>
</trkpt>
<trkpt lat="35.0004490" lon="32.6927658">
<ele>1122.55</ele>
<time>2015-04-27T12:38:50Z</time>
</trkpt>
<trkpt lat="35.0004121" lon="32.6928022">
<ele>1122.73</ele>
<time>2015-04-27T12:38:51Z</time>
</trkpt>
<trkpt lat="35.0003851" lon="32.6928475">
<ele>1122.83</ele>
<time>2015-04-27T12:38:52Z</time>
</trkpt>
<trkpt lat="35.0003640" lon="32.6929018">
<ele>1122.38</ele>
<time>2015-04-27T12:38:53Z</time>
</trkpt>
<trkpt lat="35.0003374" lon="32.6929500">
<ele>1122.15</ele>
<time>2015-04-27T12:38:54Z</time>
</trkpt>
<trkpt lat="35.0003124" lon="32.6929962">
<ele>1122.04</ele>
<time>2015-04-27T12:38:55Z</time>
</trkpt>
<trkpt lat="35.0002843" lon="32.6930510">
<ele>1121.98</ele>
<time>2015-04-27T12:38:56Z</time>
</trkpt>
<trkpt lat="35.0002558" lon="32.6931032">
<ele>1121.95</ele>
<time>2015-04-27T12:38:57Z</time>
</trkpt>
<trkpt lat="35.0002265" lon="32.6931612">
<ele>1121.94</ele>
<time>2015-04-27T12:38:58Z</time>
</trkpt>
<trkpt lat="35.0001916" lon="32.6932186">
<ele>1121.43</ele>
<time>2015-04-27T12:38:59Z</time>
</trkpt>
<trkpt lat="35.0001543" lon="32.6932770">
<ele>1120.68</ele>
<time>2015-04-27T12:39:00Z</time>
</trkpt>
<trkpt lat="35.0001213" lon="32.6933336">
<ele>1120.30</ele>
<time>2015-04-27T12:39:01Z</time>
</trkpt>
<trkpt lat="35.0000889" lon="32.6933925">
<ele>1119.61</ele>
<time>2015-04-27T12:39:02Z</time>
</trkpt>
<trkpt lat="35.0000603" lon="32.6934571">
<ele>1119.27</ele>
<time>2015-04-27T12:39:03Z</time>
</trkpt>
<trkpt lat="35.0000219" lon="32.6935180">
<ele>1119.10</ele>
<time>2015-04-27T12:39:04Z</time>
</trkpt>
<trkpt lat="34.9999785" lon="32.6935687">
<ele>1119.01</ele>
<time>2015-04-27T12:39:05Z</time>
</trkpt>
<trkpt lat="34.9999196" lon="32.6936116">
<ele>1119.47</ele>
<time>2015-04-27T12:39:06Z</time>
</trkpt>
<trkpt lat="34.9998534" lon="32.6936388">
<ele>1120.20</ele>
<time>2015-04-27T12:39:07Z</time>
</trkpt>
<trkpt lat="34.9997853" lon="32.6936547">
<ele>1121.06</ele>
<time>2015-04-27T12:39:08Z</time>
</trkpt>
<trkpt lat="34.9997186" lon="32.6936688">
<ele>1121.49</ele>
<time>2015-04-27T12:39:09Z</time>
</trkpt>
<trkpt lat="34.9996531" lon="32.6936846">
<ele>1121.71</ele>
<time>2015-04-27T12:39:10Z</time>
</trkpt>
<trkpt lat="34.9995856" lon="32.6936881">
<ele>1122.32</ele>
<time>2015-04-27T12:39:11Z</time>
</trkpt>
<trkpt lat="34.9995193" lon="32.6936721">
<ele>1123.62</ele>
<time>2015-04-27T12:39:12Z</time>
</trkpt>
<trkpt lat="34.9994670" lon="32.6936386">
<ele>1124.27</ele>
<time>2015-04-27T12:39:13Z</time>
</trkpt>
<trkpt lat="34.9994194" lon="32.6935981">
<ele>1124.60</ele>
<time>2015-04-27T12:39:14Z</time>
</trkpt>
<trkpt lat="34.9993766" lon="32.6935420">
<ele>1124.26</ele>
<time>2015-04-27T12:39:15Z</time>
</trkpt>
<trkpt lat="34.9993312" lon="32.6934945">
<ele>1124.09</ele>
<time>2015-04-27T12:39:16Z</time>
</trkpt>
<trkpt lat="34.9992884" lon="32.6934486">
<ele>1124.01</ele>
<time>2015-04-27T12:39:17Z</time>
</trkpt>
<trkpt lat="34.9992345" lon="32.6934020">
<ele>1123.97</ele>
<time>2015-04-27T12:39:18Z</time>
</trkpt>
<trkpt lat="34.9991717" lon="32.6933618">
<ele>1123.95</ele>
<time>2015-04-27T12:39:19Z</time>
</trkpt>
<trkpt lat="34.9991208" lon="32.6933345">
<ele>1123.44</ele>
<time>2015-04-27T12:39:20Z</time>
</trkpt>
<trkpt lat="34.9990452" lon="32.6933154">
<ele>1123.18</ele>
<time>2015-04-27T12:39:21Z</time>
</trkpt>
<trkpt lat="34.9989820" lon="32.6932984">
<ele>1122.55</ele>
<time>2015-04-27T12:39:22Z</time>
</trkpt>
<trkpt lat="34.9989345" lon="32.6932863">
<ele>1121.74</ele>
<time>2015-04-27T12:39:23Z</time>
</trkpt>
<trkpt lat="34.9988771" lon="32.6933099">
<ele>1121.33</ele>
<time>2015-04-27T12:39:24Z</time>
</trkpt>
<trkpt lat="34.9988226" lon="32.6933324">
<ele>1120.13</ele>
<time>2015-04-27T12:39:25Z</time>
</trkpt>
<trkpt lat="34.9987693" lon="32.6933554">
<ele>1119.53</ele>
<time>2015-04-27T12:39:26Z</time>
</trkpt>
<trkpt lat="34.9987079" lon="32.6933886">
<ele>1119.23</ele>
<time>2015-04-27T12:39:27Z</time>
</trkpt>
<trkpt lat="34.9986550" lon="32.6934322">
<ele>1119.58</ele>
<time>2015-04-27T12:39:28Z</time>
</trkpt>
<trkpt lat="34.9986087" lon="32.6934635">
<ele>1118.75</ele>
<time>2015-04-27T12:39:29Z</time>
</trkpt>
<trkpt lat="34.9985451" lon="32.6934932">
<ele>1118.34</ele>
<time>2015-04-27T12:39:30Z</time>
</trkpt>
<trkpt lat="34.9984929" lon="32.6935079">
<ele>1118.13</ele>
<time>2015-04-27T12:39:31Z</time>
</trkpt>
<trkpt lat="34.9984266" lon="32.6935197">
<ele>1118.53</ele>
<time>2015-04-27T12:39:32Z</time>
</trkpt>
<trkpt lat="34.9983669" lon="32.6935380">
<ele>1118.73</ele>
<time>2015-04-27T12:39:33Z</time>
</trkpt>
<trkpt lat="34.9983023" lon="32.6935540">
<ele>1118.83</ele>
<time>2015-04-27T12:39:34Z</time>
</trkpt>
<trkpt lat="34.9982428" lon="32.6935748">
<ele>1118.38</ele>
<time>2015-04-27T12:39:35Z</time>
</trkpt>
<trkpt lat="34.9981835" lon="32.6935941">
<ele>1118.15</ele>
<time>2015-04-27T12:39:36Z</time>
</trkpt>
<trkpt lat="34.9981187" lon="32.6936311">
<ele>1118.54</ele>
<time>2015-04-27T12:39:37Z</time>
</trkpt>
<trkpt lat="34.9980741" lon="32.6936520">
<ele>1118.23</ele>
<time>2015-04-27T12:39:38Z</time>
</trkpt>
<trkpt lat="34.9980188" lon="32.6936895">
<ele>1118.08</ele>
<time>2015-04-27T12:39:39Z</time>
</trkpt>
<trkpt lat="34.9979646" lon="32.6937293">
<ele>1117.50</ele>
<time>2015-04-27T12:39:40Z</time>
</trkpt>
<trkpt lat="34.9979280" lon="32.6937931">
<ele>1117.71</ele>
<time>2015-04-27T12:39:41Z</time>
</trkpt>
<trkpt lat="34.9979008" lon="32.6938687">
<ele>1117.32</ele>
<time>2015-04-27T12:39:42Z</time>
</trkpt>
<trkpt lat="34.9978873" lon="32.6939588">
<ele>1117.62</ele>
<time>2015-04-27T12:39:43Z</time>
</trkpt>
<trkpt lat="34.9978960" lon="32.6940382">
<ele>1117.77</ele>
<time>2015-04-27T12:39:44Z</time>
</trkpt>
<trkpt lat="34.9979164" lon="32.6941231">
<ele>1118.35</ele>
<time>2015-04-27T12:39:45Z</time>
</trkpt>
<trkpt lat="34.9979429" lon="32.6942000">
<ele>1118.64</ele>
<time>2015-04-27T12:39:46Z</time>
</trkpt>
<trkpt lat="34.9979710" lon="32.6942741">
<ele>1118.28</ele>
<time>2015-04-27T12:39:47Z</time>
</trkpt>
<trkpt lat="34.9979975" lon="32.6943552">
<ele>1118.10</ele>
<time>2015-04-27T12:39:48Z</time>
</trkpt>
<trkpt lat="34.9980281" lon="32.6944362">
<ele>1118.01</ele>
<time>2015-04-27T12:39:49Z</time>
</trkpt>
<trkpt lat="34.9980583" lon="32.6945122">
<ele>1117.97</ele>
<time>2015-04-27T12:39:50Z</time>
</trkpt>
<trkpt lat="34.9980775" lon="32.6945912">
<ele>1117.95</ele>
<time>2015-04-27T12:39:51Z</time>
</trkpt>
<trkpt lat="34.9980810" lon="32.6946725">
<ele>1117.94</ele>
<time>2015-04-27T12:39:52Z</time>
</trkpt>
<trkpt lat="34.9980823" lon="32.6947550">
<ele>1117.43</ele>
<time>2015-04-27T12:39:53Z</time>
</trkpt>
<trkpt lat="34.9980787" lon="32.6948446">
<ele>1116.68</ele>
<time>2015-04-27T12:39:54Z</time>
</trkpt>
<trkpt lat="34.9980784" lon="32.6949334">
<ele>1115.80</ele>
<time>2015-04-27T12:39:55Z</time>
</trkpt>
<trkpt lat="34.9980708" lon="32.6950165">
<ele>1115.36</ele>
<time>2015-04-27T12:39:56Z</time>
</trkpt>
<trkpt lat="34.9980563" lon="32.6950970">
<ele>1114.64</ele>
<time>2015-04-27T12:39:57Z</time>
</trkpt>
<trkpt lat="34.9980391" lon="32.6951787">
<ele>1114.28</ele>
<time>2015-04-27T12:39:58Z</time>
</trkpt>
<trkpt lat="34.9980177" lon="32.6952579">
<ele>1114.10</ele>
<time>2015-04-27T12:39:59Z</time>
</trkpt>
<trkpt lat="34.9979907" lon="32.6953358">
<ele>1114.01</ele>
<time>2015-04-27T12:40:00Z</time>
</trkpt>
<trkpt lat="34.9979613" lon="32.6954130">
<ele>1113.97</ele>
<time>2015-04-27T12:40:01Z</time>
</trkpt>
<trkpt lat="34.9979310" lon="32.6954869">
<ele>1113.45</ele>
<time>2015-04-27T12:40:02Z</time>
</trkpt>
<trkpt lat="34.9979020" lon="32.6955681">
<ele>1113.19</ele>
<time>2015-04-27T12:40:03Z</time>
</trkpt>
<trkpt lat="34.9978725" lon="32.6956472">
<ele>1113.06</ele>
<time>2015-04-27T12:40:04Z</time>
</trkpt>
<trkpt lat="34.9978445" lon="32.6957263">
<ele>1112.49</ele>
<time>2015-04-27T12:40:05Z</time>
</trkpt>
<trkpt lat="34.9978283" lon="32.6958089">
<ele>1111.71</ele>
<time>2015-04-27T12:40:06Z</time>
</trkpt>
<trkpt lat="34.9978277" lon="32.6958918">
<ele>1111.32</ele>
<time>2015-04-27T12:40:07Z</time>
</trkpt>
<trkpt lat="34.9978441" lon="32.6959759">
<ele>1111.12</ele>
<time>2015-04-27T12:40:08Z</time>
</trkpt>
<trkpt lat="34.9978671" lon="32.6960553">
<ele>1110.52</ele>
<time>2015-04-27T12:40:09Z</time>
</trkpt>
<trkpt lat="34.9978994" lon="32.6961407">
<ele>1110.22</ele>
<time>2015-04-27T12:40:10Z</time>
</trkpt>
<trkpt lat="34.9979376" lon="32.6962196">
<ele>1110.07</ele>
<time>2015-04-27T12:40:11Z</time>
</trkpt>
<trkpt lat="34.9979783" lon="32.6962910">
<ele>1110.00</ele>
<time>2015-04-27T12:40:12Z</time>
</trkpt>
<trkpt lat="34.9980142" lon="32.6963656">
<ele>1109.96</ele>
<time>2015-04-27T12:40:13Z</time>
</trkpt>
<trkpt lat="34.9980484" lon="32.6964398">
<ele>1109.94</ele>
<time>2015-04-27T12:40:14Z</time>
</trkpt>
<trkpt lat="34.9980759" lon="32.6965235">
<ele>1109.43</ele>
<time>2015-04-27T12:40:15Z</time>
</trkpt>
<trkpt lat="34.9980922" lon="32.6966185">
<ele>1109.18</ele>
<time>2015-04-27T12:40:16Z</time>
</trkpt>
<trkpt lat="34.9980972" lon="32.6967117">
<ele>1109.05</ele>
<time>2015-04-27T12:40:17Z</time>
</trkpt>
<trkpt lat="34.9980911" lon="32.6967976">
<ele>1108.99</ele>
<time>2015-04-27T12:40:18Z</time>
</trkpt>
<trkpt lat="34.9980634" lon="32.6968759">
<ele>1108.96</ele>
<time>2015-04-27T12:40:19Z</time>
</trkpt>
<trkpt lat="34.9980186" lon="32.6969408">
<ele>1108.94</ele>
<time>2015-04-27T12:40:20Z</time>
</trkpt>
<trkpt lat="34.9979533" lon="32.6969920">
<ele>1108.93</ele>
<time>2015-04-27T12:40:21Z</time>
</trkpt>
<trkpt lat="34.9978908" lon="32.6970282">
<ele>1108.93</ele>
<time>2015-04-27T12:40:22Z</time>
</trkpt>
<trkpt lat="34.9978315" lon="32.6970630">
<ele>1108.93</ele>
<time>2015-04-27T12:40:23Z</time>
</trkpt>
<trkpt lat="34.9977718" lon="32.6971012">
<ele>1109.43</ele>
<time>2015-04-27T12:40:24Z</time>
</trkpt>
<trkpt lat="34.9977077" lon="32.6971303">
<ele>1109.18</ele>
<time>2015-04-27T12:40:25Z</time>
</trkpt>
<trkpt lat="34.9976437" lon="32.6971561">
<ele>1109.05</ele>
<time>2015-04-27T12:40:26Z</time>
</trkpt>
<trkpt lat="34.9975822" lon="32.6971817">
<ele>1108.99</ele>
<time>2015-04-27T12:40:27Z</time>
</trkpt>
<trkpt lat="34.9975267" lon="32.6971994">
<ele>1108.96</ele>
<time>2015-04-27T12:40:28Z</time>
</trkpt>
<trkpt lat="34.9974716" lon="32.6972206">
<ele>1108.94</ele>
<time>2015-04-27T12:40:29Z</time>
</trkpt>
<trkpt lat="34.9974075" lon="32.6972440">
<ele>1108.93</ele>
<time>2015-04-27T12:40:30Z</time>
</trkpt>
<trkpt lat="34.9973435" lon="32.6972708">
<ele>1108.43</ele>
<time>2015-04-27T12:40:31Z</time>
</trkpt>
<trkpt lat="34.9972830" lon="32.6972894">
<ele>1108.68</ele>
<time>2015-04-27T12:40:32Z</time>
</trkpt>
<trkpt lat="34.9972224" lon="32.6973098">
<ele>1108.30</ele>
<time>2015-04-27T12:40:33Z</time>
</trkpt>
<trkpt lat="34.9971643" lon="32.6973288">
<ele>1108.61</ele>
<time>2015-04-27T12:40:34Z</time>
</trkpt>
<trkpt lat="34.9971013" lon="32.6973573">
<ele>1108.77</ele>
<time>2015-04-27T12:40:35Z</time>
</trkpt>
<trkpt lat="34.9970577" lon="32.6973749">
<ele>1108.85</ele>
<time>2015-04-27T12:40:36Z</time>
</trkpt>
<trkpt lat="34.9970053" lon="32.6973921">
<ele>1108.89</ele>
<time>2015-04-27T12:40:37Z</time>
</trkpt>
<trkpt lat="34.9969536" lon="32.6974089">
<ele>1108.91</ele>
<time>2015-04-27T12:40:38Z</time>
</trkpt>
<trkpt lat="34.9969098" lon="32.6974304">
<ele>1108.92</ele>
<time>2015-04-27T12:40:39Z</time>
</trkpt>
<trkpt lat="34.9968646" lon="32.6974637">
<ele>1108.92</ele>
<time>2015-04-27T12:40:40Z</time>
</trkpt>
<trkpt lat="34.9968208" lon="32.6974935">
<ele>1108.92</ele>
<time>2015-04-27T12:40:41Z</time>
</trkpt>
<trkpt lat="34.9967528" lon="32.6975483">
<ele>1110.17</ele>
<time>2015-04-27T12:40:43Z</time>
</trkpt>
<trkpt lat="34.9966782" lon="32.6976023">
<ele>1110.74</ele>
<time>2015-04-27T12:40:45Z</time>
</trkpt>
<trkpt lat="34.9966074" lon="32.6976565">
<ele>1110.88</ele>
<time>2015-04-27T12:40:47Z</time>
</trkpt>
<trkpt lat="34.9965686" lon="32.6976929">
<ele>1110.40</ele>
<time>2015-04-27T12:40:48Z</time>
</trkpt>
<trkpt lat="34.9965332" lon="32.6977374">
<ele>1110.16</ele>
<time>2015-04-27T12:40:49Z</time>
</trkpt>
<trkpt lat="34.9964946" lon="32.6977848">
<ele>1109.54</ele>
<time>2015-04-27T12:40:50Z</time>
</trkpt>
<trkpt lat="34.9964716" lon="32.6978493">
<ele>1109.23</ele>
<time>2015-04-27T12:40:51Z</time>
</trkpt>
<trkpt lat="34.9964706" lon="32.6979718">
<ele>1111.00</ele>
<time>2015-04-27T12:40:53Z</time>
</trkpt>
<trkpt lat="34.9964863" lon="32.6980442">
<ele>1111.46</ele>
<time>2015-04-27T12:40:54Z</time>
</trkpt>
<trkpt lat="34.9965088" lon="32.6981220">
<ele>1111.69</ele>
<time>2015-04-27T12:40:55Z</time>
</trkpt>
<trkpt lat="34.9965375" lon="32.6981849">
<ele>1111.31</ele>
<time>2015-04-27T12:40:56Z</time>
</trkpt>
<trkpt lat="34.9965735" lon="32.6982517">
<ele>1110.12</ele>
<time>2015-04-27T12:40:57Z</time>
</trkpt>
<trkpt lat="34.9966108" lon="32.6983163">
<ele>1109.02</ele>
<time>2015-04-27T12:40:58Z</time>
</trkpt>
<trkpt lat="34.9966515" lon="32.6983812">
<ele>1108.47</ele>
<time>2015-04-27T12:40:59Z</time>
</trkpt>
<trkpt lat="34.9966931" lon="32.6984428">
<ele>1107.70</ele>
<time>2015-04-27T12:41:00Z</time>
</trkpt>
<trkpt lat="34.9967395" lon="32.6984973">
<ele>1106.81</ele>
<time>2015-04-27T12:41:01Z</time>
</trkpt>
<trkpt lat="34.9967712" lon="32.6985410">
<ele>1105.37</ele>
<time>2015-04-27T12:41:02Z</time>
</trkpt>
<trkpt lat="34.9968212" lon="32.6985979">
<ele>1103.65</ele>
<time>2015-04-27T12:41:03Z</time>
</trkpt>
<trkpt lat="34.9968777" lon="32.6986556">
<ele>1103.79</ele>
<time>2015-04-27T12:41:04Z</time>
</trkpt>
<trkpt lat="34.9969275" lon="32.6987212">
<ele>1103.36</ele>
<time>2015-04-27T12:41:05Z</time>
</trkpt>
<trkpt lat="34.9969640" lon="32.6987918">
<ele>1102.64</ele>
<time>2015-04-27T12:41:06Z</time>
</trkpt>
<trkpt lat="34.9969902" lon="32.6988761">
<ele>1102.28</ele>
<time>2015-04-27T12:41:07Z</time>
</trkpt>
<trkpt lat="34.9970000" lon="32.6989586">
<ele>1102.10</ele>
<time>2015-04-27T12:41:08Z</time>
</trkpt>
<trkpt lat="34.9969896" lon="32.6990376">
<ele>1101.01</ele>
<time>2015-04-27T12:41:09Z</time>
</trkpt>
<trkpt lat="34.9969833" lon="32.6991216">
<ele>1100.47</ele>
<time>2015-04-27T12:41:10Z</time>
</trkpt>
<trkpt lat="34.9969779" lon="32.6991994">
<ele>1100.20</ele>
<time>2015-04-27T12:41:11Z</time>
</trkpt>
<trkpt lat="34.9969734" lon="32.6992799">
<ele>1100.06</ele>
<time>2015-04-27T12:41:12Z</time>
</trkpt>
<trkpt lat="34.9969836" lon="32.6993643">
<ele>1100.49</ele>
<time>2015-04-27T12:41:13Z</time>
</trkpt>
<trkpt lat="34.9969960" lon="32.6994453">
<ele>1101.21</ele>
<time>2015-04-27T12:41:14Z</time>
</trkpt>
<trkpt lat="34.9970182" lon="32.6995191">
<ele>1101.07</ele>
<time>2015-04-27T12:41:15Z</time>
</trkpt>
<trkpt lat="34.9970423" lon="32.6995939">
<ele>1101.00</ele>
<time>2015-04-27T12:41:16Z</time>
</trkpt>
<trkpt lat="34.9970692" lon="32.6996661">
<ele>1100.46</ele>
<time>2015-04-27T12:41:17Z</time>
</trkpt>
<trkpt lat="34.9970966" lon="32.6997422">
<ele>1100.19</ele>
<time>2015-04-27T12:41:18Z</time>
</trkpt>
<trkpt lat="34.9971226" lon="32.6998152">
<ele>1099.56</ele>
<time>2015-04-27T12:41:19Z</time>
</trkpt>
<trkpt lat="34.9971494" lon="32.6998877">
<ele>1098.74</ele>
<time>2015-04-27T12:41:20Z</time>
</trkpt>
<trkpt lat="34.9971747" lon="32.6999570">
<ele>1098.33</ele>
<time>2015-04-27T12:41:21Z</time>
</trkpt>
<trkpt lat="34.9971969" lon="32.7000294">
<ele>1098.63</ele>
<time>2015-04-27T12:41:22Z</time>
</trkpt>
<trkpt lat="34.9972236" lon="32.7001075">
<ele>1098.78</ele>
<time>2015-04-27T12:41:23Z</time>
</trkpt>
<trkpt lat="34.9972477" lon="32.7002018">
<ele>1098.35</ele>
<time>2015-04-27T12:41:24Z</time>
</trkpt>
<trkpt lat="34.9972781" lon="32.7002786">
<ele>1098.14</ele>
<time>2015-04-27T12:41:25Z</time>
</trkpt>
<trkpt lat="34.9973131" lon="32.7003579">
<ele>1098.03</ele>
<time>2015-04-27T12:41:26Z</time>
</trkpt>
<trkpt lat="34.9973534" lon="32.7004412">
<ele>1097.48</ele>
<time>2015-04-27T12:41:27Z</time>
</trkpt>
<trkpt lat="34.9974048" lon="32.7005192">
<ele>1097.20</ele>
<time>2015-04-27T12:41:28Z</time>
</trkpt>
<trkpt lat="34.9974622" lon="32.7005924">
<ele>1096.06</ele>
<time>2015-04-27T12:41:29Z</time>
</trkpt>
<trkpt lat="34.9975203" lon="32.7006518">
<ele>1095.49</ele>
<time>2015-04-27T12:41:30Z</time>
</trkpt>
<trkpt lat="34.9975742" lon="32.7007217">
<ele>1095.21</ele>
<time>2015-04-27T12:41:31Z</time>
</trkpt>
<trkpt lat="34.9976171" lon="32.7008144">
<ele>1094.57</ele>
<time>2015-04-27T12:41:32Z</time>
</trkpt>
<trkpt lat="34.9976550" lon="32.7009029">
<ele>1094.25</ele>
<time>2015-04-27T12:41:33Z</time>
</trkpt>
<trkpt lat="34.9976694" lon="32.7009996">
<ele>1094.09</ele>
<time>2015-04-27T12:41:34Z</time>
</trkpt>
<trkpt lat="34.9976717" lon="32.7010976">
<ele>1094.01</ele>
<time>2015-04-27T12:41:35Z</time>
</trkpt>
<trkpt lat="34.9976938" lon="32.7011944">
<ele>1093.97</ele>
<time>2015-04-27T12:41:36Z</time>
</trkpt>
<trkpt lat="34.9977375" lon="32.7012756">
<ele>1094.45</ele>
<time>2015-04-27T12:41:37Z</time>
</trkpt>
<trkpt lat="34.9977856" lon="32.7013529">
<ele>1094.69</ele>
<time>2015-04-27T12:41:38Z</time>
</trkpt>
<trkpt lat="34.9978497" lon="32.7014251">
<ele>1094.81</ele>
<time>2015-04-27T12:41:39Z</time>
</trkpt>
<trkpt lat="34.9979032" lon="32.7014793">
<ele>1094.86</ele>
<time>2015-04-27T12:41:40Z</time>
</trkpt>
<trkpt lat="34.9979397" lon="32.7015323">
<ele>1094.90</ele>
<time>2015-04-27T12:41:41Z</time>
</trkpt>
<trkpt lat="34.9979670" lon="32.7015956">
<ele>1094.41</ele>
<time>2015-04-27T12:41:42Z</time>
</trkpt>
<trkpt lat="34.9979848" lon="32.7016627">
<ele>1094.17</ele>
<time>2015-04-27T12:41:43Z</time>
</trkpt>
<trkpt lat="34.9979792" lon="32.7017309">
<ele>1094.05</ele>
<time>2015-04-27T12:41:44Z</time>
</trkpt>
<trkpt lat="34.9979593" lon="32.7018023">
<ele>1093.49</ele>
<time>2015-04-27T12:41:45Z</time>
</trkpt>
<trkpt lat="34.9979394" lon="32.7018754">
<ele>1093.71</ele>
<time>2015-04-27T12:41:46Z</time>
</trkpt>
<trkpt lat="34.9979182" lon="32.7019526">
<ele>1093.82</ele>
<time>2015-04-27T12:41:47Z</time>
</trkpt>
<trkpt lat="34.9979040" lon="32.7020408">
<ele>1093.37</ele>
<time>2015-04-27T12:41:48Z</time>
</trkpt>
<trkpt lat="34.9979040" lon="32.7021286">
<ele>1093.65</ele>
<time>2015-04-27T12:41:49Z</time>
</trkpt>
<trkpt lat="34.9979065" lon="32.7022139">
<ele>1093.79</ele>
<time>2015-04-27T12:41:50Z</time>
</trkpt>
<trkpt lat="34.9979149" lon="32.7022978">
<ele>1093.86</ele>
<time>2015-04-27T12:41:51Z</time>
</trkpt>
<trkpt lat="34.9979276" lon="32.7023815">
<ele>1094.39</ele>
<time>2015-04-27T12:41:52Z</time>
</trkpt>
<trkpt lat="34.9979421" lon="32.7024587">
<ele>1094.66</ele>
<time>2015-04-27T12:41:53Z</time>
</trkpt>
<trkpt lat="34.9979574" lon="32.7025363">
<ele>1094.79</ele>
<time>2015-04-27T12:41:54Z</time>
</trkpt>
<trkpt lat="34.9979670" lon="32.7026195">
<ele>1095.36</ele>
<time>2015-04-27T12:41:55Z</time>
</trkpt>
<trkpt lat="34.9979701" lon="32.7027043">
<ele>1095.64</ele>
<time>2015-04-27T12:41:56Z</time>
</trkpt>
<trkpt lat="34.9979639" lon="32.7027803">
<ele>1095.28</ele>
<time>2015-04-27T12:41:57Z</time>
</trkpt>
<trkpt lat="34.9979535" lon="32.7028666">
<ele>1095.10</ele>
<time>2015-04-27T12:41:58Z</time>
</trkpt>
<trkpt lat="34.9979500" lon="32.7029561">
<ele>1095.01</ele>
<time>2015-04-27T12:41:59Z</time>
</trkpt>
<trkpt lat="34.9979551" lon="32.7030449">
<ele>1094.97</ele>
<time>2015-04-27T12:42:00Z</time>
</trkpt>
<trkpt lat="34.9979616" lon="32.7031241">
<ele>1094.95</ele>
<time>2015-04-27T12:42:01Z</time>
</trkpt>
<trkpt lat="34.9979804" lon="32.7032076">
<ele>1094.94</ele>
<time>2015-04-27T12:42:02Z</time>
</trkpt>
<trkpt lat="34.9980176" lon="32.7032872">
<ele>1094.93</ele>
<time>2015-04-27T12:42:03Z</time>
</trkpt>
<trkpt lat="34.9980758" lon="32.7033506">
<ele>1094.93</ele>
<time>2015-04-27T12:42:04Z</time>
</trkpt>
<trkpt lat="34.9981355" lon="32.7033947">
<ele>1094.93</ele>
<time>2015-04-27T12:42:05Z</time>
</trkpt>
<trkpt lat="34.9981955" lon="32.7034373">
<ele>1094.93</ele>
<time>2015-04-27T12:42:06Z</time>
</trkpt>
<trkpt lat="34.9982505" lon="32.7034852">
<ele>1094.93</ele>
<time>2015-04-27T12:42:07Z</time>
</trkpt>
<trkpt lat="34.9983028" lon="32.7035418">
<ele>1094.93</ele>
<time>2015-04-27T12:42:08Z</time>
</trkpt>
<trkpt lat="34.9983463" lon="32.7036066">
<ele>1094.43</ele>
<time>2015-04-27T12:42:09Z</time>
</trkpt>
<trkpt lat="34.9983799" lon="32.7036796">
<ele>1094.68</ele>
<time>2015-04-27T12:42:10Z</time>
</trkpt>
<trkpt lat="34.9984121" lon="32.7037544">
<ele>1094.30</ele>
<time>2015-04-27T12:42:11Z</time>
</trkpt>
<trkpt lat="34.9984525" lon="32.7038280">
<ele>1094.11</ele>
<time>2015-04-27T12:42:12Z</time>
</trkpt>
<trkpt lat="34.9985047" lon="32.7039039">
<ele>1093.52</ele>
<time>2015-04-27T12:42:13Z</time>
</trkpt>
<trkpt lat="34.9985567" lon="32.7039670">
<ele>1092.72</ele>
<time>2015-04-27T12:42:14Z</time>
</trkpt>
<trkpt lat="34.9986137" lon="32.7040316">
<ele>1092.32</ele>
<time>2015-04-27T12:42:15Z</time>
</trkpt>
<trkpt lat="34.9986752" lon="32.7041048">
<ele>1092.12</ele>
<time>2015-04-27T12:42:16Z</time>
</trkpt>
<trkpt lat="34.9987512" lon="32.7041590">
<ele>1092.02</ele>
<time>2015-04-27T12:42:17Z</time>
</trkpt>
<trkpt lat="34.9988290" lon="32.7041922">
<ele>1091.47</ele>
<time>2015-04-27T12:42:18Z</time>
</trkpt>
<trkpt lat="34.9989104" lon="32.7041957">
<ele>1091.20</ele>
<time>2015-04-27T12:42:19Z</time>
</trkpt>
<trkpt lat="34.9989911" lon="32.7041857">
<ele>1091.06</ele>
<time>2015-04-27T12:42:20Z</time>
</trkpt>
<trkpt lat="34.9990732" lon="32.7041590">
<ele>1090.49</ele>
<time>2015-04-27T12:42:21Z</time>
</trkpt>
<trkpt lat="34.9991447" lon="32.7041274">
<ele>1090.21</ele>
<time>2015-04-27T12:42:22Z</time>
</trkpt>
<trkpt lat="34.9992258" lon="32.7041220">
<ele>1090.07</ele>
<time>2015-04-27T12:42:23Z</time>
</trkpt>
<trkpt lat="34.9993060" lon="32.7041369">
<ele>1089.50</ele>
<time>2015-04-27T12:42:24Z</time>
</trkpt>
<trkpt lat="34.9993892" lon="32.7041723">
<ele>1088.21</ele>
<time>2015-04-27T12:42:25Z</time>
</trkpt>
<trkpt lat="34.9994673" lon="32.7041879">
<ele>1087.07</ele>
<time>2015-04-27T12:42:26Z</time>
</trkpt>
<trkpt lat="34.9995494" lon="32.7042209">
<ele>1086.00</ele>
<time>2015-04-27T12:42:27Z</time>
</trkpt>
<trkpt lat="34.9996344" lon="32.7042480">
<ele>1084.96</ele>
<time>2015-04-27T12:42:28Z</time>
</trkpt>
<trkpt lat="34.9997196" lon="32.7042626">
<ele>1084.94</ele>
<time>2015-04-27T12:42:29Z</time>
</trkpt>
<trkpt lat="34.9998025" lon="32.7042736">
<ele>1084.43</ele>
<time>2015-04-27T12:42:30Z</time>
</trkpt>
<trkpt lat="34.9998804" lon="32.7042790">
<ele>1083.68</ele>
<time>2015-04-27T12:42:31Z</time>
</trkpt>
<trkpt lat="34.9999452" lon="32.7042962">
<ele>1082.80</ele>
<time>2015-04-27T12:42:32Z</time>
</trkpt>
<trkpt lat="35.0000068" lon="32.7043460">
<ele>1082.36</ele>
<time>2015-04-27T12:42:33Z</time>
</trkpt>
<trkpt lat="35.0000543" lon="32.7044210">
<ele>1081.64</ele>
<time>2015-04-27T12:42:34Z</time>
</trkpt>
<trkpt lat="35.0000797" lon="32.7045114">
<ele>1081.28</ele>
<time>2015-04-27T12:42:35Z</time>
</trkpt>
<trkpt lat="35.0000970" lon="32.7045992">
<ele>1080.60</ele>
<time>2015-04-27T12:42:36Z</time>
</trkpt>
<trkpt lat="35.0001123" lon="32.7046870">
<ele>1080.26</ele>
<time>2015-04-27T12:42:37Z</time>
</trkpt>
<trkpt lat="35.0001378" lon="32.7047721">
<ele>1080.09</ele>
<time>2015-04-27T12:42:38Z</time>
</trkpt>
<trkpt lat="35.0001734" lon="32.7048649">
<ele>1080.51</ele>
<time>2015-04-27T12:42:39Z</time>
</trkpt>
<trkpt lat="35.0002169" lon="32.7049497">
<ele>1080.22</ele>
<time>2015-04-27T12:42:40Z</time>
</trkpt>
<trkpt lat="35.0002742" lon="32.7050273">
<ele>1079.57</ele>
<time>2015-04-27T12:42:41Z</time>
</trkpt>
<trkpt lat="35.0003499" lon="32.7050701">
<ele>1079.25</ele>
<time>2015-04-27T12:42:42Z</time>
</trkpt>
<trkpt lat="35.0004261" lon="32.7050976">
<ele>1079.09</ele>
<time>2015-04-27T12:42:43Z</time>
</trkpt>
<trkpt lat="35.0005092" lon="32.7051112">
<ele>1078.51</ele>
<time>2015-04-27T12:42:44Z</time>
</trkpt>
<trkpt lat="35.0005957" lon="32.7051382">
<ele>1077.72</ele>
<time>2015-04-27T12:42:45Z</time>
</trkpt>
<trkpt lat="35.0006859" lon="32.7051480">
<ele>1077.82</ele>
<time>2015-04-27T12:42:46Z</time>
</trkpt>
<trkpt lat="35.0007694" lon="32.7051358">
<ele>1077.87</ele>
<time>2015-04-27T12:42:47Z</time>
</trkpt>
<trkpt lat="35.0008582" lon="32.7051120">
<ele>1078.40</ele>
<time>2015-04-27T12:42:48Z</time>
</trkpt>
<trkpt lat="35.0009468" lon="32.7050958">
<ele>1078.66</ele>
<time>2015-04-27T12:42:49Z</time>
</trkpt>
<trkpt lat="35.0010404" lon="32.7051060">
<ele>1077.79</ele>
<time>2015-04-27T12:42:50Z</time>
</trkpt>
<trkpt lat="35.0011383" lon="32.7051172">
<ele>1076.86</ele>
<time>2015-04-27T12:42:51Z</time>
</trkpt>
<trkpt lat="35.0012333" lon="32.7051151">
<ele>1076.89</ele>
<time>2015-04-27T12:42:52Z</time>
</trkpt>
<trkpt lat="35.0013240" lon="32.7051197">
<ele>1076.41</ele>
<time>2015-04-27T12:42:53Z</time>
</trkpt>
<trkpt lat="35.0013826" lon="32.7050207">
<ele>1076.17</ele>
<time>2015-04-27T12:42:54Z</time>
</trkpt>
<trkpt lat="35.0014354" lon="32.7049339">
<ele>1076.05</ele>
<time>2015-04-27T12:42:55Z</time>
</trkpt>
<trkpt lat="35.0014961" lon="32.7048622">
<ele>1076.49</ele>
<time>2015-04-27T12:42:56Z</time>
</trkpt>
<trkpt lat="35.0015515" lon="32.7047904">
<ele>1076.21</ele>
<time>2015-04-27T12:42:57Z</time>
</trkpt>
<trkpt lat="35.0016124" lon="32.7047260">
<ele>1075.57</ele>
<time>2015-04-27T12:42:58Z</time>
</trkpt>
<trkpt lat="35.0016740" lon="32.7046512">
<ele>1075.24</ele>
<time>2015-04-27T12:42:59Z</time>
</trkpt>
<trkpt lat="35.0017323" lon="32.7045754">
<ele>1075.09</ele>
<time>2015-04-27T12:43:00Z</time>
</trkpt>
<trkpt lat="35.0017864" lon="32.7044938">
<ele>1074.51</ele>
<time>2015-04-27T12:43:01Z</time>
</trkpt>
<trkpt lat="35.0018447" lon="32.7044157">
<ele>1073.71</ele>
<time>2015-04-27T12:43:02Z</time>
</trkpt>
<trkpt lat="35.0019061" lon="32.7043441">
<ele>1072.82</ele>
<time>2015-04-27T12:43:03Z</time>
</trkpt>
<trkpt lat="35.0019805" lon="32.7042824">
<ele>1071.87</ele>
<time>2015-04-27T12:43:04Z</time>
</trkpt>
<trkpt lat="35.0020482" lon="32.7042157">
<ele>1071.40</ele>
<time>2015-04-27T12:43:05Z</time>
</trkpt>
<trkpt lat="35.0021082" lon="32.7041459">
<ele>1070.66</ele>
<time>2015-04-27T12:43:06Z</time>
</trkpt>
<trkpt lat="35.0021613" lon="32.7040883">
<ele>1070.29</ele>
<time>2015-04-27T12:43:07Z</time>
</trkpt>
<trkpt lat="35.0022374" lon="32.7040530">
<ele>1069.11</ele>
<time>2015-04-27T12:43:08Z</time>
</trkpt>
<trkpt lat="35.0023062" lon="32.7040412">
<ele>1068.52</ele>
<time>2015-04-27T12:43:09Z</time>
</trkpt>
<trkpt lat="35.0023798" lon="32.7040669">
<ele>1067.72</ele>
<time>2015-04-27T12:43:10Z</time>
</trkpt>
<trkpt lat="35.0024460" lon="32.7041155">
<ele>1067.32</ele>
<time>2015-04-27T12:43:11Z</time>
</trkpt>
<trkpt lat="35.0025014" lon="32.7041787">
<ele>1067.12</ele>
<time>2015-04-27T12:43:12Z</time>
</trkpt>
<trkpt lat="35.0025563" lon="32.7042449">
<ele>1067.02</ele>
<time>2015-04-27T12:43:13Z</time>
</trkpt>
<trkpt lat="35.0026124" lon="32.7043081">
<ele>1066.97</ele>
<time>2015-04-27T12:43:14Z</time>
</trkpt>
<trkpt lat="35.0026706" lon="32.7043727">
<ele>1066.95</ele>
<time>2015-04-27T12:43:15Z</time>
</trkpt>
<trkpt lat="35.0027207" lon="32.7044335">
<ele>1066.94</ele>
<time>2015-04-27T12:43:16Z</time>
</trkpt>
<trkpt lat="35.0027870" lon="32.7044870">
<ele>1066.43</ele>
<time>2015-04-27T12:43:17Z</time>
</trkpt>
<trkpt lat="35.0028637" lon="32.7045298">
<ele>1066.18</ele>
<time>2015-04-27T12:43:18Z</time>
</trkpt>
<trkpt lat="35.0029383" lon="32.7045692">
<ele>1066.05</ele>
<time>2015-04-27T12:43:19Z</time>
</trkpt>
<trkpt lat="35.0030171" lon="32.7046010">
<ele>1065.99</ele>
<time>2015-04-27T12:43:20Z</time>
</trkpt>
<trkpt lat="35.0030917" lon="32.7046493">
<ele>1065.96</ele>
<time>2015-04-27T12:43:21Z</time>
</trkpt>
<trkpt lat="35.0031585" lon="32.7047078">
<ele>1065.44</ele>
<time>2015-04-27T12:43:22Z</time>
</trkpt>
<trkpt lat="35.0032423" lon="32.7047800">
<ele>1064.68</ele>
<time>2015-04-27T12:43:23Z</time>
</trkpt>
<trkpt lat="35.0033185" lon="32.7048476">
<ele>1063.80</ele>
<time>2015-04-27T12:43:24Z</time>
</trkpt>
<trkpt lat="35.0034191" lon="32.7048862">
<ele>1063.36</ele>
<time>2015-04-27T12:43:25Z</time>
</trkpt>
<trkpt lat="35.0035123" lon="32.7049115">
<ele>1063.64</ele>
<time>2015-04-27T12:43:26Z</time>
</trkpt>
<trkpt lat="35.0036013" lon="32.7049602">
<ele>1063.28</ele>
<time>2015-04-27T12:43:27Z</time>
</trkpt>
<trkpt lat="35.0036829" lon="32.7050037">
<ele>1063.10</ele>
<time>2015-04-27T12:43:28Z</time>
</trkpt>
<trkpt lat="35.0037592" lon="32.7050604">
<ele>1062.02</ele>
<time>2015-04-27T12:43:29Z</time>
</trkpt>
<trkpt lat="35.0038389" lon="32.7051122">
<ele>1061.47</ele>
<time>2015-04-27T12:43:30Z</time>
</trkpt>
<trkpt lat="35.0039255" lon="32.7051505">
<ele>1060.70</ele>
<time>2015-04-27T12:43:31Z</time>
</trkpt>
<trkpt lat="35.0040176" lon="32.7051659">
<ele>1060.81</ele>
<time>2015-04-27T12:43:32Z</time>
</trkpt>
<trkpt lat="35.0041074" lon="32.7051834">
<ele>1060.37</ele>
<time>2015-04-27T12:43:33Z</time>
</trkpt>
<trkpt lat="35.0041961" lon="32.7051856">
<ele>1060.15</ele>
<time>2015-04-27T12:43:34Z</time>
</trkpt>
<trkpt lat="35.0042797" lon="32.7051830">
<ele>1060.04</ele>
<time>2015-04-27T12:43:35Z</time>
</trkpt>
<trkpt lat="35.0043571" lon="32.7051721">
<ele>1059.48</ele>
<time>2015-04-27T12:43:36Z</time>
</trkpt>
<trkpt lat="35.0044382" lon="32.7051548">
<ele>1058.70</ele>
<time>2015-04-27T12:43:37Z</time>
</trkpt>
<trkpt lat="35.0045178" lon="32.7051405">
<ele>1058.81</ele>
<time>2015-04-27T12:43:38Z</time>
</trkpt>
<trkpt lat="35.0045985" lon="32.7051328">
<ele>1058.37</ele>
<time>2015-04-27T12:43:39Z</time>
</trkpt>
<trkpt lat="35.0046832" lon="32.7051308">
<ele>1058.15</ele>
<time>2015-04-27T12:43:40Z</time>
</trkpt>
<trkpt lat="35.0047642" lon="32.7051306">
<ele>1057.54</ele>
<time>2015-04-27T12:43:41Z</time>
</trkpt>
<trkpt lat="35.0048422" lon="32.7051356">
<ele>1057.23</ele>
<time>2015-04-27T12:43:42Z</time>
</trkpt>
<trkpt lat="35.0049201" lon="32.7051289">
<ele>1057.08</ele>
<time>2015-04-27T12:43:43Z</time>
</trkpt>
<trkpt lat="35.0049958" lon="32.7051324">
<ele>1056.50</ele>
<time>2015-04-27T12:43:44Z</time>
</trkpt>
<trkpt lat="35.0050709" lon="32.7051546">
<ele>1055.71</ele>
<time>2015-04-27T12:43:45Z</time>
</trkpt>
<trkpt lat="35.0051429" lon="32.7051943">
<ele>1055.32</ele>
<time>2015-04-27T12:43:46Z</time>
</trkpt>
<trkpt lat="35.0052144" lon="32.7052366">
<ele>1055.12</ele>
<time>2015-04-27T12:43:47Z</time>
</trkpt>
<trkpt lat="35.0052897" lon="32.7052783">
<ele>1055.02</ele>
<time>2015-04-27T12:43:48Z</time>
</trkpt>
<trkpt lat="35.0053626" lon="32.7053183">
<ele>1054.47</ele>
<time>2015-04-27T12:43:49Z</time>
</trkpt>
<trkpt lat="35.0054360" lon="32.7053580">
<ele>1054.70</ele>
<time>2015-04-27T12:43:50Z</time>
</trkpt>
<trkpt lat="35.0055114" lon="32.7053902">
<ele>1054.81</ele>
<time>2015-04-27T12:43:51Z</time>
</trkpt>
<trkpt lat="35.0055820" lon="32.7054156">
<ele>1054.37</ele>
<time>2015-04-27T12:43:52Z</time>
</trkpt>
<trkpt lat="35.0056542" lon="32.7054336">
<ele>1054.15</ele>
<time>2015-04-27T12:43:53Z</time>
</trkpt>
<trkpt lat="35.0057209" lon="32.7054488">
<ele>1054.04</ele>
<time>2015-04-27T12:43:54Z</time>
</trkpt>
<trkpt lat="35.0057887" lon="32.7054858">
<ele>1053.48</ele>
<time>2015-04-27T12:43:55Z</time>
</trkpt>
<trkpt lat="35.0058454" lon="32.7055365">
<ele>1053.20</ele>
<time>2015-04-27T12:43:56Z</time>
</trkpt>
<trkpt lat="35.0058802" lon="32.7056265">
<ele>1052.56</ele>
<time>2015-04-27T12:43:57Z</time>
</trkpt>
<trkpt lat="35.0058910" lon="32.7057176">
<ele>1052.24</ele>
<time>2015-04-27T12:43:58Z</time>
</trkpt>
<trkpt lat="35.0058821" lon="32.7057973">
<ele>1051.58</ele>
<time>2015-04-27T12:43:59Z</time>
</trkpt>
<trkpt lat="35.0058432" lon="32.7058633">
<ele>1051.25</ele>
<time>2015-04-27T12:44:00Z</time>
</trkpt>
<trkpt lat="35.0057943" lon="32.7059145">
<ele>1051.09</ele>
<time>2015-04-27T12:44:01Z</time>
</trkpt>
<trkpt lat="35.0057363" lon="32.7059360">
<ele>1052.01</ele>
<time>2015-04-27T12:44:02Z</time>
</trkpt>
<trkpt lat="35.0056837" lon="32.7059610">
<ele>1052.97</ele>
<time>2015-04-27T12:44:03Z</time>
</trkpt>
<trkpt lat="35.0056346" lon="32.7059822">
<ele>1053.45</ele>
<time>2015-04-27T12:44:04Z</time>
</trkpt>
<trkpt lat="35.0055821" lon="32.7059973">
<ele>1053.69</ele>
<time>2015-04-27T12:44:05Z</time>
</trkpt>
<trkpt lat="35.0055257" lon="32.7060040">
<ele>1054.31</ele>
<time>2015-04-27T12:44:06Z</time>
</trkpt>
<trkpt lat="35.0054671" lon="32.7060078">
<ele>1055.12</ele>
<time>2015-04-27T12:44:07Z</time>
</trkpt>
<trkpt lat="35.0054156" lon="32.7060183">
<ele>1055.52</ele>
<time>2015-04-27T12:44:08Z</time>
</trkpt>
<trkpt lat="35.0053589" lon="32.7060257">
<ele>1056.22</ele>
<time>2015-04-27T12:44:09Z</time>
</trkpt>
<trkpt lat="35.0053107" lon="32.7060423">
<ele>1057.07</ele>
<time>2015-04-27T12:44:10Z</time>
</trkpt>
<trkpt lat="35.0052641" lon="32.7060599">
<ele>1057.50</ele>
<time>2015-04-27T12:44:11Z</time>
</trkpt>
<trkpt lat="35.0051765" lon="32.7060790">
<ele>1058.32</ele>
<time>2015-04-27T12:44:13Z</time>
</trkpt>
<trkpt lat="35.0050984" lon="32.7060809">
<ele>1058.77</ele>
<time>2015-04-27T12:44:15Z</time>
</trkpt>
<trkpt lat="35.0050540" lon="32.7060932">
<ele>1058.85</ele>
<time>2015-04-27T12:44:16Z</time>
</trkpt>
<trkpt lat="35.0050062" lon="32.7060988">
<ele>1058.89</ele>
<time>2015-04-27T12:44:17Z</time>
</trkpt>
<trkpt lat="35.0049500" lon="32.7060967">
<ele>1058.91</ele>
<time>2015-04-27T12:44:18Z</time>
</trkpt>
<trkpt lat="35.0049021" lon="32.7061011">
<ele>1058.92</ele>
<time>2015-04-27T12:44:19Z</time>
</trkpt>
<trkpt lat="35.0048565" lon="32.7060995">
<ele>1058.92</ele>
<time>2015-04-27T12:44:20Z</time>
</trkpt>
<trkpt lat="35.0048004" lon="32.7061121">
<ele>1059.42</ele>
<time>2015-04-27T12:44:21Z</time>
</trkpt>
<trkpt lat="35.0047447" lon="32.7061246">
<ele>1059.67</ele>
<time>2015-04-27T12:44:22Z</time>
</trkpt>
<trkpt lat="35.0046889" lon="32.7061389">
<ele>1059.80</ele>
<time>2015-04-27T12:44:23Z</time>
</trkpt>
<trkpt lat="35.0046320" lon="32.7061490">
<ele>1059.86</ele>
<time>2015-04-27T12:44:24Z</time>
</trkpt>
<trkpt lat="35.0045756" lon="32.7061700">
<ele>1059.89</ele>
<time>2015-04-27T12:44:25Z</time>
</trkpt>
<trkpt lat="35.0045174" lon="32.7061870">
<ele>1059.91</ele>
<time>2015-04-27T12:44:26Z</time>
</trkpt>
<trkpt lat="35.0044688" lon="32.7062089">
<ele>1059.92</ele>
<time>2015-04-27T12:44:27Z</time>
</trkpt>
<trkpt lat="35.0044030" lon="32.7062273">
<ele>1059.92</ele>
<time>2015-04-27T12:44:28Z</time>
</trkpt>
<trkpt lat="35.0043438" lon="32.7062451">
<ele>1059.92</ele>
<time>2015-04-27T12:44:29Z</time>
</trkpt>
<trkpt lat="35.0042855" lon="32.7062694">
<ele>1058.92</ele>
<time>2015-04-27T12:44:30Z</time>
</trkpt>
<trkpt lat="35.0042240" lon="32.7062883">
<ele>1058.92</ele>
<time>2015-04-27T12:44:31Z</time>
</trkpt>
<trkpt lat="35.0041666" lon="32.7063147">
<ele>1058.92</ele>
<time>2015-04-27T12:44:32Z</time>
</trkpt>
<trkpt lat="35.0041233" lon="32.7063456">
<ele>1058.92</ele>
<time>2015-04-27T12:44:33Z</time>
</trkpt>
<trkpt lat="35.0040828" lon="32.7063775">
<ele>1059.42</ele>
<time>2015-04-27T12:44:34Z</time>
</trkpt>
<trkpt lat="35.0040432" lon="32.7064129">
<ele>1059.67</ele>
<time>2015-04-27T12:44:35Z</time>
</trkpt>
<trkpt lat="35.0039977" lon="32.7064444">
<ele>1059.80</ele>
<time>2015-04-27T12:44:36Z</time>
</trkpt>
<trkpt lat="35.0039371" lon="32.7064739">
<ele>1059.36</ele>
<time>2015-04-27T12:44:37Z</time>
</trkpt>
<trkpt lat="35.0038577" lon="32.7065227">
<ele>1059.03</ele>
<time>2015-04-27T12:44:39Z</time>
</trkpt>
<trkpt lat="35.0038052" lon="32.7065515">
<ele>1058.48</ele>
<time>2015-04-27T12:44:40Z</time>
</trkpt>
<trkpt lat="35.0037516" lon="32.7065773">
<ele>1058.20</ele>
<time>2015-04-27T12:44:41Z</time>
</trkpt>
<trkpt lat="35.0037052" lon="32.7066146">
<ele>1058.06</ele>
<time>2015-04-27T12:44:42Z</time>
</trkpt>
<trkpt lat="35.0036709" lon="32.7066627">
<ele>1057.99</ele>
<time>2015-04-27T12:44:43Z</time>
</trkpt>
<trkpt lat="35.0036168" lon="32.7067131">
<ele>1057.96</ele>
<time>2015-04-27T12:44:44Z</time>
</trkpt>
<trkpt lat="35.0035737" lon="32.7067596">
<ele>1057.94</ele>
<time>2015-04-27T12:44:45Z</time>
</trkpt>
<trkpt lat="35.0035104" lon="32.7068533">
<ele>1058.68</ele>
<time>2015-04-27T12:44:47Z</time>
</trkpt>
<trkpt lat="35.0034561" lon="32.7069496">
<ele>1058.11</ele>
<time>2015-04-27T12:44:49Z</time>
</trkpt>
<trkpt lat="35.0034124" lon="32.7069993">
<ele>1058.02</ele>
<time>2015-04-27T12:44:50Z</time>
</trkpt>
<trkpt lat="35.0033792" lon="32.7070480">
<ele>1057.47</ele>
<time>2015-04-27T12:44:51Z</time>
</trkpt>
<trkpt lat="35.0033463" lon="32.7070879">
<ele>1056.70</ele>
<time>2015-04-27T12:44:52Z</time>
</trkpt>
<trkpt lat="35.0033144" lon="32.7071348">
<ele>1056.31</ele>
<time>2015-04-27T12:44:53Z</time>
</trkpt>
<trkpt lat="35.0032769" lon="32.7071815">
<ele>1056.62</ele>
<time>2015-04-27T12:44:54Z</time>
</trkpt>
<trkpt lat="35.0032272" lon="32.7072747">
<ele>1055.60</ele>
<time>2015-04-27T12:44:56Z</time>
</trkpt>
<trkpt lat="35.0032034" lon="32.7073235">
<ele>1054.76</ele>
<time>2015-04-27T12:44:57Z</time>
</trkpt>
<trkpt lat="35.0031775" lon="32.7073772">
<ele>1054.34</ele>
<time>2015-04-27T12:44:58Z</time>
</trkpt>
<trkpt lat="35.0031558" lon="32.7074375">
<ele>1054.13</ele>
<time>2015-04-27T12:44:59Z</time>
</trkpt>
<trkpt lat="35.0031303" lon="32.7074966">
<ele>1053.53</ele>
<time>2015-04-27T12:45:00Z</time>
</trkpt>
<trkpt lat="35.0031033" lon="32.7075470">
<ele>1052.73</ele>
<time>2015-04-27T12:45:01Z</time>
</trkpt>
<trkpt lat="35.0030814" lon="32.7076010">
<ele>1052.83</ele>
<time>2015-04-27T12:45:02Z</time>
</trkpt>
<trkpt lat="35.0030539" lon="32.7076479">
<ele>1052.88</ele>
<time>2015-04-27T12:45:03Z</time>
</trkpt>
<trkpt lat="35.0030245" lon="32.7076942">
<ele>1052.90</ele>
<time>2015-04-27T12:45:04Z</time>
</trkpt>
<trkpt lat="35.0029919" lon="32.7077422">
<ele>1052.91</ele>
<time>2015-04-27T12:45:05Z</time>
</trkpt>
<trkpt lat="35.0029617" lon="32.7077856">
<ele>1052.42</ele>
<time>2015-04-27T12:45:06Z</time>
</trkpt>
<trkpt lat="35.0029316" lon="32.7078316">
<ele>1052.17</ele>
<time>2015-04-27T12:45:07Z</time>
</trkpt>
<trkpt lat="35.0029031" lon="32.7078779">
<ele>1051.55</ele>
<time>2015-04-27T12:45:08Z</time>
</trkpt>
<trkpt lat="35.0028758" lon="32.7079227">
<ele>1050.74</ele>
<time>2015-04-27T12:45:09Z</time>
</trkpt>
<trkpt lat="35.0028472" lon="32.7079686">
<ele>1049.83</ele>
<time>2015-04-27T12:45:10Z</time>
</trkpt>
<trkpt lat="35.0028237" lon="32.7080159">
<ele>1049.38</ele>
<time>2015-04-27T12:45:11Z</time>
</trkpt>
<trkpt lat="35.0027920" lon="32.7080598">
<ele>1049.15</ele>
<time>2015-04-27T12:45:12Z</time>
</trkpt>
<trkpt lat="35.0027482" lon="32.7081642">
<ele>1048.98</ele>
<time>2015-04-27T12:45:14Z</time>
</trkpt>
<trkpt lat="35.0027252" lon="32.7082210">
<ele>1049.45</ele>
<time>2015-04-27T12:45:15Z</time>
</trkpt>
<trkpt lat="35.0027009" lon="32.7082765">
<ele>1049.69</ele>
<time>2015-04-27T12:45:16Z</time>
</trkpt>
<trkpt lat="35.0026796" lon="32.7083325">
<ele>1049.81</ele>
<time>2015-04-27T12:45:17Z</time>
</trkpt>
<trkpt lat="35.0026661" lon="32.7083948">
<ele>1049.37</ele>
<time>2015-04-27T12:45:18Z</time>
</trkpt>
<trkpt lat="35.0026562" lon="32.7084519">
<ele>1049.15</ele>
<time>2015-04-27T12:45:19Z</time>
</trkpt>
<trkpt lat="35.0026458" lon="32.7085181">
<ele>1049.04</ele>
<time>2015-04-27T12:45:20Z</time>
</trkpt>
<trkpt lat="35.0026470" lon="32.7085911">
<ele>1049.48</ele>
<time>2015-04-27T12:45:21Z</time>
</trkpt>
<trkpt lat="35.0026520" lon="32.7086673">
<ele>1049.20</ele>
<time>2015-04-27T12:45:22Z</time>
</trkpt>
<trkpt lat="35.0026677" lon="32.7087331">
<ele>1049.56</ele>
<time>2015-04-27T12:45:23Z</time>
</trkpt>
<trkpt lat="35.0026808" lon="32.7088048">
<ele>1049.74</ele>
<time>2015-04-27T12:45:24Z</time>
</trkpt>
<trkpt lat="35.0026950" lon="32.7088805">
<ele>1049.83</ele>
<time>2015-04-27T12:45:25Z</time>
</trkpt>
<trkpt lat="35.0027152" lon="32.7089623">
<ele>1050.38</ele>
<time>2015-04-27T12:45:26Z</time>
</trkpt>
<trkpt lat="35.0027296" lon="32.7090344">
<ele>1050.65</ele>
<time>2015-04-27T12:45:27Z</time>
</trkpt>
<trkpt lat="35.0027535" lon="32.7091076">
<ele>1051.29</ele>
<time>2015-04-27T12:45:28Z</time>
</trkpt>
<trkpt lat="35.0027556" lon="32.7091825">
<ele>1051.61</ele>
<time>2015-04-27T12:45:29Z</time>
</trkpt>
<trkpt lat="35.0027449" lon="32.7092604">
<ele>1051.77</ele>
<time>2015-04-27T12:45:30Z</time>
</trkpt>
<trkpt lat="35.0027382" lon="32.7093364">
<ele>1051.35</ele>
<time>2015-04-27T12:45:31Z</time>
</trkpt>
<trkpt lat="35.0027277" lon="32.7094209">
<ele>1051.14</ele>
<time>2015-04-27T12:45:32Z</time>
</trkpt>
<trkpt lat="35.0027275" lon="32.7094968">
<ele>1051.03</ele>
<time>2015-04-27T12:45:33Z</time>
</trkpt>
<trkpt lat="35.0027190" lon="32.7095704">
<ele>1050.48</ele>
<time>2015-04-27T12:45:34Z</time>
</trkpt>
<trkpt lat="35.0027047" lon="32.7096555">
<ele>1049.20</ele>
<time>2015-04-27T12:45:35Z</time>
</trkpt>
<trkpt lat="35.0027046" lon="32.7097387">
<ele>1048.56</ele>
<time>2015-04-27T12:45:36Z</time>
</trkpt>
<trkpt lat="35.0027052" lon="32.7098180">
<ele>1048.24</ele>
<time>2015-04-27T12:45:37Z</time>
</trkpt>
<trkpt lat="35.0027130" lon="32.7098962">
<ele>1048.08</ele>
<time>2015-04-27T12:45:38Z</time>
</trkpt>
<trkpt lat="35.0027241" lon="32.7099723">
<ele>1048.00</ele>
<time>2015-04-27T12:45:39Z</time>
</trkpt>
<trkpt lat="35.0027415" lon="32.7100483">
<ele>1047.46</ele>
<time>2015-04-27T12:45:40Z</time>
</trkpt>
<trkpt lat="35.0027655" lon="32.7101334">
<ele>1047.19</ele>
<time>2015-04-27T12:45:41Z</time>
</trkpt>
<trkpt lat="35.0027969" lon="32.7102106">
<ele>1047.06</ele>
<time>2015-04-27T12:45:42Z</time>
</trkpt>
<trkpt lat="35.0028365" lon="32.7102800">
<ele>1046.49</ele>
<time>2015-04-27T12:45:43Z</time>
</trkpt>
<trkpt lat="35.0028746" lon="32.7103532">
<ele>1046.21</ele>
<time>2015-04-27T12:45:44Z</time>
</trkpt>
<trkpt lat="35.0029024" lon="32.7104486">
<ele>1045.57</ele>
<time>2015-04-27T12:45:45Z</time>
</trkpt>
<trkpt lat="35.0029126" lon="32.7105456">
<ele>1045.75</ele>
<time>2015-04-27T12:45:46Z</time>
</trkpt>
<trkpt lat="35.0029067" lon="32.7106504">
<ele>1045.34</ele>
<time>2015-04-27T12:45:47Z</time>
</trkpt>
<trkpt lat="35.0028834" lon="32.7107369">
<ele>1044.63</ele>
<time>2015-04-27T12:45:48Z</time>
</trkpt>
<trkpt lat="35.0028565" lon="32.7108283">
<ele>1044.28</ele>
<time>2015-04-27T12:45:49Z</time>
</trkpt>
<trkpt lat="35.0028267" lon="32.7109094">
<ele>1044.10</ele>
<time>2015-04-27T12:45:50Z</time>
</trkpt>
<trkpt lat="35.0028067" lon="32.7109804">
<ele>1043.51</ele>
<time>2015-04-27T12:45:51Z</time>
</trkpt>
<trkpt lat="35.0027872" lon="32.7110533">
<ele>1042.72</ele>
<time>2015-04-27T12:45:52Z</time>
</trkpt>
<trkpt lat="35.0027717" lon="32.7111215">
<ele>1042.32</ele>
<time>2015-04-27T12:45:53Z</time>
</trkpt>
<trkpt lat="35.0027642" lon="32.7111948">
<ele>1042.12</ele>
<time>2015-04-27T12:45:54Z</time>
</trkpt>
<trkpt lat="35.0027640" lon="32.7112624">
<ele>1042.02</ele>
<time>2015-04-27T12:45:55Z</time>
</trkpt>
<trkpt lat="35.0027670" lon="32.7113396">
<ele>1042.47</ele>
<time>2015-04-27T12:45:56Z</time>
</trkpt>
<trkpt lat="35.0027717" lon="32.7114166">
<ele>1042.70</ele>
<time>2015-04-27T12:45:57Z</time>
</trkpt>
<trkpt lat="35.0027866" lon="32.7114884">
<ele>1043.31</ele>
<time>2015-04-27T12:45:58Z</time>
</trkpt>
<trkpt lat="35.0027972" lon="32.7115583">
<ele>1044.12</ele>
<time>2015-04-27T12:45:59Z</time>
</trkpt>
<trkpt lat="35.0028085" lon="32.7116261">
<ele>1044.52</ele>
<time>2015-04-27T12:46:00Z</time>
</trkpt>
<trkpt lat="35.0028086" lon="32.7116934">
<ele>1044.22</ele>
<time>2015-04-27T12:46:01Z</time>
</trkpt>
<trkpt lat="35.0028125" lon="32.7117657">
<ele>1044.07</ele>
<time>2015-04-27T12:46:02Z</time>
</trkpt>
<trkpt lat="35.0028170" lon="32.7118369">
<ele>1044.00</ele>
<time>2015-04-27T12:46:03Z</time>
</trkpt>
<trkpt lat="35.0028177" lon="32.7119028">
<ele>1043.96</ele>
<time>2015-04-27T12:46:04Z</time>
</trkpt>
<trkpt lat="35.0028170" lon="32.7119762">
<ele>1043.44</ele>
<time>2015-04-27T12:46:05Z</time>
</trkpt>
<trkpt lat="35.0028200" lon="32.7120471">
<ele>1043.68</ele>
<time>2015-04-27T12:46:06Z</time>
</trkpt>
<trkpt lat="35.0028220" lon="32.7121205">
<ele>1043.30</ele>
<time>2015-04-27T12:46:07Z</time>
</trkpt>
<trkpt lat="35.0028278" lon="32.7121934">
<ele>1043.11</ele>
<time>2015-04-27T12:46:08Z</time>
</trkpt>
<trkpt lat="35.0028358" lon="32.7122687">
<ele>1043.02</ele>
<time>2015-04-27T12:46:09Z</time>
</trkpt>
<trkpt lat="35.0028367" lon="32.7123429">
<ele>1042.97</ele>
<time>2015-04-27T12:46:10Z</time>
</trkpt>
<trkpt lat="35.0028356" lon="32.7124218">
<ele>1042.95</ele>
<time>2015-04-27T12:46:11Z</time>
</trkpt>
<trkpt lat="35.0028294" lon="32.7125034">
<ele>1042.94</ele>
<time>2015-04-27T12:46:12Z</time>
</trkpt>
<trkpt lat="35.0028262" lon="32.7125858">
<ele>1042.93</ele>
<time>2015-04-27T12:46:13Z</time>
</trkpt>
<trkpt lat="35.0028257" lon="32.7126669">
<ele>1042.93</ele>
<time>2015-04-27T12:46:14Z</time>
</trkpt>
<trkpt lat="35.0028148" lon="32.7127469">
<ele>1042.93</ele>
<time>2015-04-27T12:46:15Z</time>
</trkpt>
<trkpt lat="35.0027936" lon="32.7128276">
<ele>1042.93</ele>
<time>2015-04-27T12:46:16Z</time>
</trkpt>
<trkpt lat="35.0027718" lon="32.7129110">
<ele>1042.93</ele>
<time>2015-04-27T12:46:17Z</time>
</trkpt>
<trkpt lat="35.0027530" lon="32.7129858">
<ele>1042.43</ele>
<time>2015-04-27T12:46:18Z</time>
</trkpt>
<trkpt lat="35.0027375" lon="32.7130535">
<ele>1042.18</ele>
<time>2015-04-27T12:46:19Z</time>
</trkpt>
<trkpt lat="35.0027268" lon="32.7131196">
<ele>1042.05</ele>
<time>2015-04-27T12:46:20Z</time>
</trkpt>
<trkpt lat="35.0027194" lon="32.7131763">
<ele>1041.99</ele>
<time>2015-04-27T12:46:21Z</time>
</trkpt>
<trkpt lat="35.0027172" lon="32.7132321">
<ele>1041.46</ele>
<time>2015-04-27T12:46:22Z</time>
</trkpt>
<trkpt lat="35.0027140" lon="32.7133064">
<ele>1040.31</ele>
<time>2015-04-27T12:46:24Z</time>
</trkpt>
<trkpt lat="35.0027052" lon="32.7133768">
<ele>1040.02</ele>
<time>2015-04-27T12:46:26Z</time>
</trkpt>
<trkpt lat="35.0027013" lon="32.7134459">
<ele>1039.70</ele>
<time>2015-04-27T12:46:28Z</time>
</trkpt>
<trkpt lat="35.0026972" lon="32.7135158">
<ele>1039.12</ele>
<time>2015-04-27T12:46:30Z</time>
</trkpt>
<trkpt lat="35.0026874" lon="32.7135919">
<ele>1038.47</ele>
<time>2015-04-27T12:46:32Z</time>
</trkpt>
<trkpt lat="35.0026857" lon="32.7136791">
<ele>1038.56</ele>
<time>2015-04-27T12:46:34Z</time>
</trkpt>
<trkpt lat="35.0026880" lon="32.7137709">
<ele>1038.58</ele>
<time>2015-04-27T12:46:36Z</time>
</trkpt>
<trkpt lat="35.0027082" lon="32.7138632">
<ele>1038.84</ele>
<time>2015-04-27T12:46:38Z</time>
</trkpt>
<trkpt lat="35.0027547" lon="32.7139524">
<ele>1039.65</ele>
<time>2015-04-27T12:46:40Z</time>
</trkpt>
<trkpt lat="35.0027849" lon="32.7139996">
<ele>1039.79</ele>
<time>2015-04-27T12:46:41Z</time>
</trkpt>
<trkpt lat="35.0028355" lon="32.7140506">
<ele>1039.36</ele>
<time>2015-04-27T12:46:42Z</time>
</trkpt>
<trkpt lat="35.0028680" lon="32.7140956">
<ele>1039.64</ele>
<time>2015-04-27T12:46:43Z</time>
</trkpt>
<trkpt lat="35.0029040" lon="32.7141459">
<ele>1039.28</ele>
<time>2015-04-27T12:46:44Z</time>
</trkpt>
<trkpt lat="35.0029401" lon="32.7141946">
<ele>1039.60</ele>
<time>2015-04-27T12:46:45Z</time>
</trkpt>
<trkpt lat="35.0029708" lon="32.7142420">
<ele>1039.76</ele>
<time>2015-04-27T12:46:46Z</time>
</trkpt>
<trkpt lat="35.0030066" lon="32.7142905">
<ele>1039.84</ele>
<time>2015-04-27T12:46:47Z</time>
</trkpt>
<trkpt lat="35.0030372" lon="32.7143361">
<ele>1039.38</ele>
<time>2015-04-27T12:46:48Z</time>
</trkpt>
<trkpt lat="35.0030654" lon="32.7143860">
<ele>1039.15</ele>
<time>2015-04-27T12:46:49Z</time>
</trkpt>
<trkpt lat="35.0031217" lon="32.7144653">
<ele>1039.48</ele>
<time>2015-04-27T12:46:51Z</time>
</trkpt>
<trkpt lat="35.0031807" lon="32.7145584">
<ele>1038.56</ele>
<time>2015-04-27T12:46:53Z</time>
</trkpt>
<trkpt lat="35.0032433" lon="32.7146242">
<ele>1037.83</ele>
<time>2015-04-27T12:46:55Z</time>
</trkpt>
<trkpt lat="35.0033202" lon="32.7146924">
<ele>1038.65</ele>
<time>2015-04-27T12:46:57Z</time>
</trkpt>
<trkpt lat="35.0033891" lon="32.7147560">
<ele>1038.86</ele>
<time>2015-04-27T12:46:59Z</time>
</trkpt>
<trkpt lat="35.0034692" lon="32.7148163">
<ele>1038.41</ele>
<time>2015-04-27T12:47:01Z</time>
</trkpt>
<trkpt lat="35.0035089" lon="32.7148512">
<ele>1038.17</ele>
<time>2015-04-27T12:47:02Z</time>
</trkpt>
<trkpt lat="35.0035796" lon="32.7149034">
<ele>1037.99</ele>
<time>2015-04-27T12:47:04Z</time>
</trkpt>
<trkpt lat="35.0036408" lon="32.7149763">
<ele>1037.94</ele>
<time>2015-04-27T12:47:06Z</time>
</trkpt>
<trkpt lat="35.0037148" lon="32.7150292">
<ele>1037.43</ele>
<time>2015-04-27T12:47:08Z</time>
</trkpt>
<trkpt lat="35.0037853" lon="32.7150732">
<ele>1037.55</ele>
<time>2015-04-27T12:47:10Z</time>
</trkpt>
<trkpt lat="35.0038478" lon="32.7151246">
<ele>1037.83</ele>
<time>2015-04-27T12:47:12Z</time>
</trkpt>
<trkpt lat="35.0039048" lon="32.7151886">
<ele>1037.90</ele>
<time>2015-04-27T12:47:14Z</time>
</trkpt>
<trkpt lat="35.0039672" lon="32.7152483">
<ele>1037.92</ele>
<time>2015-04-27T12:47:16Z</time>
</trkpt>
<trkpt lat="35.0040063" lon="32.7152819">
<ele>1038.42</ele>
<time>2015-04-27T12:47:17Z</time>
</trkpt>
<trkpt lat="35.0040602" lon="32.7153255">
<ele>1038.67</ele>
<time>2015-04-27T12:47:18Z</time>
</trkpt>
<trkpt lat="35.0041023" lon="32.7153522">
<ele>1038.80</ele>
<time>2015-04-27T12:47:19Z</time>
</trkpt>
<trkpt lat="35.0041452" lon="32.7153784">
<ele>1039.36</ele>
<time>2015-04-27T12:47:20Z</time>
</trkpt>
<trkpt lat="35.0042268" lon="32.7154311">
<ele>1039.78</ele>
<time>2015-04-27T12:47:22Z</time>
</trkpt>
<trkpt lat="35.0043124" lon="32.7154681">
<ele>1040.39</ele>
<time>2015-04-27T12:47:24Z</time>
</trkpt>
<trkpt lat="35.0043602" lon="32.7154878">
<ele>1040.66</ele>
<time>2015-04-27T12:47:25Z</time>
</trkpt>
<trkpt lat="35.0044076" lon="32.7155076">
<ele>1040.79</ele>
<time>2015-04-27T12:47:26Z</time>
</trkpt>
<trkpt lat="35.0044841" lon="32.7155438">
<ele>1040.89</ele>
<time>2015-04-27T12:47:28Z</time>
</trkpt>
<trkpt lat="35.0045593" lon="32.7155832">
<ele>1040.92</ele>
<time>2015-04-27T12:47:30Z</time>
</trkpt>
<trkpt lat="35.0046350" lon="32.7156037">
<ele>1040.92</ele>
<time>2015-04-27T12:47:32Z</time>
</trkpt>
<trkpt lat="35.0046931" lon="32.7156197">
<ele>1042.17</ele>
<time>2015-04-27T12:47:34Z</time>
</trkpt>
<trkpt lat="35.0047431" lon="32.7156250">
<ele>1042.74</ele>
<time>2015-04-27T12:47:36Z</time>
</trkpt>
<trkpt lat="35.0047954" lon="32.7156351">
<ele>1043.88</ele>
<time>2015-04-27T12:47:38Z</time>
</trkpt>
<trkpt lat="35.0048498" lon="32.7156550">
<ele>1045.16</ele>
<time>2015-04-27T12:47:40Z</time>
</trkpt>
<trkpt lat="35.0049048" lon="32.7157067">
<ele>1045.48</ele>
<time>2015-04-27T12:47:42Z</time>
</trkpt>
<trkpt lat="35.0049283" lon="32.7157991">
<ele>1044.06</ele>
<time>2015-04-27T12:47:44Z</time>
</trkpt>
<trkpt lat="35.0049206" lon="32.7158868">
<ele>1043.71</ele>
<time>2015-04-27T12:47:46Z</time>
</trkpt>
<trkpt lat="35.0048698" lon="32.7159660">
<ele>1043.12</ele>
<time>2015-04-27T12:47:48Z</time>
</trkpt>
<trkpt lat="35.0047932" lon="32.7160205">
<ele>1042.97</ele>
<time>2015-04-27T12:47:50Z</time>
</trkpt>
<trkpt lat="35.0047204" lon="32.7160656">
<ele>1043.44</ele>
<time>2015-04-27T12:47:52Z</time>
</trkpt>
<trkpt lat="35.0046634" lon="32.7160910">
<ele>1043.05</ele>
<time>2015-04-27T12:47:54Z</time>
</trkpt>
<trkpt lat="35.0046109" lon="32.7161113">
<ele>1045.19</ele>
<time>2015-04-27T12:47:57Z</time>
</trkpt>
<trkpt lat="35.0045684" lon="32.7161298">
<ele>1046.99</ele>
<time>2015-04-27T12:47:59Z</time>
</trkpt>
<trkpt lat="35.0045094" lon="32.7161596">
<ele>1047.69</ele>
<time>2015-04-27T12:48:01Z</time>
</trkpt>
<trkpt lat="35.0044539" lon="32.7161859">
<ele>1048.12</ele>
<time>2015-04-27T12:48:03Z</time>
</trkpt>
<trkpt lat="35.0043973" lon="32.7162163">
<ele>1047.97</ele>
<time>2015-04-27T12:48:05Z</time>
</trkpt>
<trkpt lat="35.0043418" lon="32.7162449">
<ele>1047.19</ele>
<time>2015-04-27T12:48:07Z</time>
</trkpt>
<trkpt lat="35.0043016" lon="32.7162708">
<ele>1047.74</ele>
<time>2015-04-27T12:48:09Z</time>
</trkpt>
<trkpt lat="35.0042642" lon="32.7163040">
<ele>1048.13</ele>
<time>2015-04-27T12:48:11Z</time>
</trkpt>
<trkpt lat="35.0042234" lon="32.7163405">
<ele>1048.48</ele>
<time>2015-04-27T12:48:13Z</time>
</trkpt>
<trkpt lat="35.0041804" lon="32.7163841">
<ele>1048.81</ele>
<time>2015-04-27T12:48:15Z</time>
</trkpt>
<trkpt lat="35.0041322" lon="32.7164394">
<ele>1049.15</ele>
<time>2015-04-27T12:48:17Z</time>
</trkpt>
<trkpt lat="35.0040831" lon="32.7164971">
<ele>1049.48</ele>
<time>2015-04-27T12:48:19Z</time>
</trkpt>
<trkpt lat="35.0040351" lon="32.7165477">
<ele>1049.31</ele>
<time>2015-04-27T12:48:21Z</time>
</trkpt>
<trkpt lat="35.0039967" lon="32.7165820">
<ele>1047.77</ele>
<time>2015-04-27T12:48:23Z</time>
</trkpt>
<trkpt lat="35.0039534" lon="32.7166258">
<ele>1047.64</ele>
<time>2015-04-27T12:48:25Z</time>
</trkpt>
<trkpt lat="35.0038969" lon="32.7166844">
<ele>1047.85</ele>
<time>2015-04-27T12:48:27Z</time>
</trkpt>
<trkpt lat="35.0038499" lon="32.7167428">
<ele>1049.16</ele>
<time>2015-04-27T12:48:29Z</time>
</trkpt>
<trkpt lat="35.0038129" lon="32.7167943">
<ele>1047.98</ele>
<time>2015-04-27T12:48:31Z</time>
</trkpt>
<trkpt lat="35.0037814" lon="32.7168472">
<ele>1048.44</ele>
<time>2015-04-27T12:48:33Z</time>
</trkpt>
<trkpt lat="35.0037485" lon="32.7169049">
<ele>1048.80</ele>
<time>2015-04-27T12:48:35Z</time>
</trkpt>
<trkpt lat="35.0037163" lon="32.7169588">
<ele>1046.14</ele>
<time>2015-04-27T12:48:37Z</time>
</trkpt>
<trkpt lat="35.0036794" lon="32.7170159">
<ele>1045.73</ele>
<time>2015-04-27T12:48:39Z</time>
</trkpt>
<trkpt lat="35.0036461" lon="32.7170734">
<ele>1047.38</ele>
<time>2015-04-27T12:48:41Z</time>
</trkpt>
<trkpt lat="35.0036251" lon="32.7171367">
<ele>1048.54</ele>
<time>2015-04-27T12:48:43Z</time>
</trkpt>
<trkpt lat="35.0036113" lon="32.7172125">
<ele>1049.58</ele>
<time>2015-04-27T12:48:45Z</time>
</trkpt>
<trkpt lat="35.0035993" lon="32.7173017">
<ele>1051.09</ele>
<time>2015-04-27T12:48:47Z</time>
</trkpt>
<trkpt lat="35.0035902" lon="32.7173819">
<ele>1050.47</ele>
<time>2015-04-27T12:48:49Z</time>
</trkpt>
<trkpt lat="35.0035850" lon="32.7174651">
<ele>1051.31</ele>
<time>2015-04-27T12:48:51Z</time>
</trkpt>
<trkpt lat="35.0035802" lon="32.7175436">
<ele>1051.02</ele>
<time>2015-04-27T12:48:53Z</time>
</trkpt>
<trkpt lat="35.0035733" lon="32.7176174">
<ele>1051.20</ele>
<time>2015-04-27T12:48:55Z</time>
</trkpt>
<trkpt lat="35.0035658" lon="32.7176988">
<ele>1051.49</ele>
<time>2015-04-27T12:48:57Z</time>
</trkpt>
<trkpt lat="35.0035587" lon="32.7177815">
<ele>1051.57</ele>
<time>2015-04-27T12:48:59Z</time>
</trkpt>
<trkpt lat="35.0035496" lon="32.7178576">
<ele>1052.59</ele>
<time>2015-04-27T12:49:01Z</time>
</trkpt>
<trkpt lat="35.0035308" lon="32.7179288">
<ele>1051.59</ele>
<time>2015-04-27T12:49:03Z</time>
</trkpt>
<trkpt lat="35.0034830" lon="32.7179899">
<ele>1050.34</ele>
<time>2015-04-27T12:49:05Z</time>
</trkpt>
<trkpt lat="35.0034184" lon="32.7180588">
<ele>1050.78</ele>
<time>2015-04-27T12:49:07Z</time>
</trkpt>
<trkpt lat="35.0033594" lon="32.7181268">
<ele>1050.14</ele>
<time>2015-04-27T12:49:09Z</time>
</trkpt>
<trkpt lat="35.0033117" lon="32.7181965">
<ele>1051.23</ele>
<time>2015-04-27T12:49:11Z</time>
</trkpt>
<trkpt lat="35.0032698" lon="32.7182719">
<ele>1051.00</ele>
<time>2015-04-27T12:49:13Z</time>
</trkpt>
<trkpt lat="35.0032352" lon="32.7183575">
<ele>1051.19</ele>
<time>2015-04-27T12:49:15Z</time>
</trkpt>
<trkpt lat="35.0032065" lon="32.7184486">
<ele>1052.24</ele>
<time>2015-04-27T12:49:17Z</time>
</trkpt>
<trkpt lat="35.0031805" lon="32.7185443">
<ele>1051.25</ele>
<time>2015-04-27T12:49:19Z</time>
</trkpt>
<trkpt lat="35.0031411" lon="32.7186324">
<ele>1051.01</ele>
<time>2015-04-27T12:49:21Z</time>
</trkpt>
<trkpt lat="35.0030939" lon="32.7187137">
<ele>1050.95</ele>
<time>2015-04-27T12:49:23Z</time>
</trkpt>
<trkpt lat="35.0030507" lon="32.7187928">
<ele>1052.43</ele>
<time>2015-04-27T12:49:25Z</time>
</trkpt>
<trkpt lat="35.0030098" lon="32.7188726">
<ele>1054.05</ele>
<time>2015-04-27T12:49:27Z</time>
</trkpt>
<trkpt lat="35.0029716" lon="32.7189359">
<ele>1054.71</ele>
<time>2015-04-27T12:49:29Z</time>
</trkpt>
<trkpt lat="35.0029403" lon="32.7189920">
<ele>1053.87</ele>
<time>2015-04-27T12:49:31Z</time>
</trkpt>
<trkpt lat="35.0029122" lon="32.7190524">
<ele>1053.66</ele>
<time>2015-04-27T12:49:33Z</time>
</trkpt>
<trkpt lat="35.0028912" lon="32.7191309">
<ele>1053.11</ele>
<time>2015-04-27T12:49:35Z</time>
</trkpt>
<trkpt lat="35.0028865" lon="32.7192186">
<ele>1051.97</ele>
<time>2015-04-27T12:49:37Z</time>
</trkpt>
<trkpt lat="35.0028979" lon="32.7193128">
<ele>1051.44</ele>
<time>2015-04-27T12:49:39Z</time>
</trkpt>
<trkpt lat="35.0029108" lon="32.7194018">
<ele>1052.30</ele>
<time>2015-04-27T12:49:41Z</time>
</trkpt>
<trkpt lat="35.0029236" lon="32.7194846">
<ele>1052.77</ele>
<time>2015-04-27T12:49:43Z</time>
</trkpt>
<trkpt lat="35.0029426" lon="32.7195752">
<ele>1051.39</ele>
<time>2015-04-27T12:49:45Z</time>
</trkpt>
<trkpt lat="35.0029669" lon="32.7196820">
<ele>1050.29</ele>
<time>2015-04-27T12:49:47Z</time>
</trkpt>
<trkpt lat="35.0029794" lon="32.7197367">
<ele>1050.11</ele>
<time>2015-04-27T12:49:48Z</time>
</trkpt>
<trkpt lat="35.0029912" lon="32.7197901">
<ele>1050.52</ele>
<time>2015-04-27T12:49:49Z</time>
</trkpt>
<trkpt lat="35.0030180" lon="32.7198913">
<ele>1050.32</ele>
<time>2015-04-27T12:49:51Z</time>
</trkpt>
<trkpt lat="35.0030486" lon="32.7199810">
<ele>1050.77</ele>
<time>2015-04-27T12:49:53Z</time>
</trkpt>
<trkpt lat="35.0030814" lon="32.7200708">
<ele>1050.14</ele>
<time>2015-04-27T12:49:55Z</time>
</trkpt>
<trkpt lat="35.0031329" lon="32.7201817">
<ele>1050.73</ele>
<time>2015-04-27T12:49:57Z</time>
</trkpt>
<trkpt lat="35.0031552" lon="32.7202296">
<ele>1050.33</ele>
<time>2015-04-27T12:49:58Z</time>
</trkpt>
<trkpt lat="35.0031759" lon="32.7202870">
<ele>1049.63</ele>
<time>2015-04-27T12:49:59Z</time>
</trkpt>
<trkpt lat="35.0032129" lon="32.7203769">
<ele>1048.60</ele>
<time>2015-04-27T12:50:01Z</time>
</trkpt>
<trkpt lat="35.0032429" lon="32.7204749">
<ele>1048.34</ele>
<time>2015-04-27T12:50:03Z</time>
</trkpt>
<trkpt lat="35.0032542" lon="32.7205320">
<ele>1048.13</ele>
<time>2015-04-27T12:50:04Z</time>
</trkpt>
<trkpt lat="35.0032660" lon="32.7205873">
<ele>1047.53</ele>
<time>2015-04-27T12:50:05Z</time>
</trkpt>
<trkpt lat="35.0033025" lon="32.7206866">
<ele>1047.83</ele>
<time>2015-04-27T12:50:07Z</time>
</trkpt>
<trkpt lat="35.0033212" lon="32.7207373">
<ele>1048.38</ele>
<time>2015-04-27T12:50:08Z</time>
</trkpt>
<trkpt lat="35.0033472" lon="32.7208400">
<ele>1047.79</ele>
<time>2015-04-27T12:50:10Z</time>
</trkpt>
<trkpt lat="35.0033901" lon="32.7209320">
<ele>1047.14</ele>
<time>2015-04-27T12:50:12Z</time>
</trkpt>
<trkpt lat="35.0034244" lon="32.7210010">
<ele>1047.48</ele>
<time>2015-04-27T12:50:14Z</time>
</trkpt>
<trkpt lat="35.0034671" lon="32.7210890">
<ele>1048.56</ele>
<time>2015-04-27T12:50:16Z</time>
</trkpt>
<trkpt lat="35.0034958" lon="32.7211708">
<ele>1049.33</ele>
<time>2015-04-27T12:50:18Z</time>
</trkpt>
<trkpt lat="35.0035065" lon="32.7212507">
<ele>1050.78</ele>
<time>2015-04-27T12:50:20Z</time>
</trkpt>
<trkpt lat="35.0035019" lon="32.7213348">
<ele>1053.39</ele>
<time>2015-04-27T12:50:22Z</time>
</trkpt>
<trkpt lat="35.0034784" lon="32.7214266">
<ele>1054.54</ele>
<time>2015-04-27T12:50:24Z</time>
</trkpt>
<trkpt lat="35.0034624" lon="32.7214815">
<ele>1054.73</ele>
<time>2015-04-27T12:50:25Z</time>
</trkpt>
<trkpt lat="35.0034457" lon="32.7215436">
<ele>1053.33</ele>
<time>2015-04-27T12:50:26Z</time>
</trkpt>
<trkpt lat="35.0034248" lon="32.7216652">
<ele>1052.13</ele>
<time>2015-04-27T12:50:27Z</time>
</trkpt>
<trkpt lat="35.0034005" lon="32.7217788">
<ele>1050.98</ele>
<time>2015-04-27T12:50:29Z</time>
</trkpt>
<trkpt lat="35.0033879" lon="32.7218332">
<ele>1050.45</ele>
<time>2015-04-27T12:50:30Z</time>
</trkpt>
<trkpt lat="35.0033733" lon="32.7218935">
<ele>1050.69</ele>
<time>2015-04-27T12:50:31Z</time>
</trkpt>
<trkpt lat="35.0033520" lon="32.7219969">
<ele>1050.12</ele>
<time>2015-04-27T12:50:33Z</time>
</trkpt>
<trkpt lat="35.0033336" lon="32.7221025">
<ele>1050.22</ele>
<time>2015-04-27T12:50:35Z</time>
</trkpt>
<trkpt lat="35.0033327" lon="32.7221588">
<ele>1049.57</ele>
<time>2015-04-27T12:50:36Z</time>
</trkpt>
<trkpt lat="35.0033386" lon="32.7222486">
<ele>1051.34</ele>
<time>2015-04-27T12:50:38Z</time>
</trkpt>
<trkpt lat="35.0033400" lon="32.7223104">
<ele>1051.13</ele>
<time>2015-04-27T12:50:39Z</time>
</trkpt>
<trkpt lat="35.0033427" lon="32.7224037">
<ele>1051.73</ele>
<time>2015-04-27T12:50:41Z</time>
</trkpt>
<trkpt lat="35.0033345" lon="32.7225049">
<ele>1053.13</ele>
<time>2015-04-27T12:50:43Z</time>
</trkpt>
<trkpt lat="35.0033253" lon="32.7226076">
<ele>1053.23</ele>
<time>2015-04-27T12:50:45Z</time>
</trkpt>
<trkpt lat="35.0033300" lon="32.7226624">
<ele>1053.58</ele>
<time>2015-04-27T12:50:46Z</time>
</trkpt>
<trkpt lat="35.0033344" lon="32.7227672">
<ele>1053.84</ele>
<time>2015-04-27T12:50:48Z</time>
</trkpt>
<trkpt lat="35.0033385" lon="32.7228241">
<ele>1054.38</ele>
<time>2015-04-27T12:50:49Z</time>
</trkpt>
<trkpt lat="35.0033392" lon="32.7228950">
<ele>1054.15</ele>
<time>2015-04-27T12:50:50Z</time>
</trkpt>
<trkpt lat="35.0033456" lon="32.7229888">
<ele>1053.73</ele>
<time>2015-04-27T12:50:52Z</time>
</trkpt>
<trkpt lat="35.0033548" lon="32.7230858">
<ele>1054.38</ele>
<time>2015-04-27T12:50:54Z</time>
</trkpt>
<trkpt lat="35.0033896" lon="32.7231832">
<ele>1055.54</ele>
<time>2015-04-27T12:50:56Z</time>
</trkpt>
<trkpt lat="35.0034225" lon="32.7232832">
<ele>1055.08</ele>
<time>2015-04-27T12:50:58Z</time>
</trkpt>
<trkpt lat="35.0034458" lon="32.7233329">
<ele>1055.00</ele>
<time>2015-04-27T12:50:59Z</time>
</trkpt>
<trkpt lat="35.0034672" lon="32.7234229">
<ele>1050.96</ele>
<time>2015-04-27T12:51:00Z</time>
</trkpt>
<trkpt lat="35.0035285" lon="32.7234993">
<ele>1047.93</ele>
<time>2015-04-27T12:51:02Z</time>
</trkpt>
<trkpt lat="35.0035803" lon="32.7235448">
<ele>1047.93</ele>
<time>2015-04-27T12:51:03Z</time>
</trkpt>
<trkpt lat="35.0036224" lon="32.7235817">
<ele>1047.93</ele>
<time>2015-04-27T12:51:04Z</time>
</trkpt>
<trkpt lat="35.0036611" lon="32.7236211">
<ele>1047.93</ele>
<time>2015-04-27T12:51:05Z</time>
</trkpt>
<trkpt lat="35.0036979" lon="32.7236603">
<ele>1048.43</ele>
<time>2015-04-27T12:51:06Z</time>
</trkpt>
<trkpt lat="35.0037310" lon="32.7237061">
<ele>1048.68</ele>
<time>2015-04-27T12:51:07Z</time>
</trkpt>
<trkpt lat="35.0037665" lon="32.7237478">
<ele>1048.80</ele>
<time>2015-04-27T12:51:08Z</time>
</trkpt>
<trkpt lat="35.0038044" lon="32.7237859">
<ele>1049.36</ele>
<time>2015-04-27T12:51:09Z</time>
</trkpt>
<trkpt lat="35.0038481" lon="32.7238215">
<ele>1049.14</ele>
<time>2015-04-27T12:51:10Z</time>
</trkpt>
<trkpt lat="35.0038844" lon="32.7238566">
<ele>1049.03</ele>
<time>2015-04-27T12:51:11Z</time>
</trkpt>
<trkpt lat="35.0039205" lon="32.7238929">
<ele>1048.98</ele>
<time>2015-04-27T12:51:12Z</time>
</trkpt>
<trkpt lat="35.0039578" lon="32.7239256">
<ele>1048.95</ele>
<time>2015-04-27T12:51:13Z</time>
</trkpt>
<trkpt lat="35.0039975" lon="32.7239634">
<ele>1048.94</ele>
<time>2015-04-27T12:51:14Z</time>
</trkpt>
<trkpt lat="35.0040441" lon="32.7240004">
<ele>1048.93</ele>
<time>2015-04-27T12:51:15Z</time>
</trkpt>
<trkpt lat="35.0041180" lon="32.7240571">
<ele>1049.68</ele>
<time>2015-04-27T12:51:17Z</time>
</trkpt>
<trkpt lat="35.0041932" lon="32.7241030">
<ele>1049.86</ele>
<time>2015-04-27T12:51:19Z</time>
</trkpt>
<trkpt lat="35.0042313" lon="32.7241392">
<ele>1049.89</ele>
<time>2015-04-27T12:51:20Z</time>
</trkpt>
<trkpt lat="35.0042724" lon="32.7241754">
<ele>1049.91</ele>
<time>2015-04-27T12:51:21Z</time>
</trkpt>
<trkpt lat="35.0043044" lon="32.7242280">
<ele>1049.92</ele>
<time>2015-04-27T12:51:22Z</time>
</trkpt>
<trkpt lat="35.0043350" lon="32.7242913">
<ele>1049.42</ele>
<time>2015-04-27T12:51:23Z</time>
</trkpt>
<trkpt lat="35.0043624" lon="32.7243625">
<ele>1049.17</ele>
<time>2015-04-27T12:51:24Z</time>
</trkpt>
<trkpt lat="35.0043883" lon="32.7244401">
<ele>1049.05</ele>
<time>2015-04-27T12:51:25Z</time>
</trkpt>
<trkpt lat="35.0044128" lon="32.7245196">
<ele>1048.49</ele>
<time>2015-04-27T12:51:26Z</time>
</trkpt>
<trkpt lat="35.0044395" lon="32.7245952">
<ele>1047.71</ele>
<time>2015-04-27T12:51:27Z</time>
</trkpt>
<trkpt lat="35.0044657" lon="32.7246673">
<ele>1047.32</ele>
<time>2015-04-27T12:51:28Z</time>
</trkpt>
<trkpt lat="35.0044958" lon="32.7247483">
<ele>1047.12</ele>
<time>2015-04-27T12:51:29Z</time>
</trkpt>
<trkpt lat="35.0045219" lon="32.7248246">
<ele>1047.02</ele>
<time>2015-04-27T12:51:30Z</time>
</trkpt>
<trkpt lat="35.0045516" lon="32.7248953">
<ele>1046.97</ele>
<time>2015-04-27T12:51:31Z</time>
</trkpt>
<trkpt lat="35.0045866" lon="32.7249787">
<ele>1046.45</ele>
<time>2015-04-27T12:51:32Z</time>
</trkpt>
<trkpt lat="35.0046169" lon="32.7250425">
<ele>1046.19</ele>
<time>2015-04-27T12:51:33Z</time>
</trkpt>
<trkpt lat="35.0046470" lon="32.7251089">
<ele>1046.56</ele>
<time>2015-04-27T12:51:34Z</time>
</trkpt>
<trkpt lat="35.0046949" lon="32.7251670">
<ele>1046.74</ele>
<time>2015-04-27T12:51:35Z</time>
</trkpt>
<trkpt lat="35.0047432" lon="32.7252212">
<ele>1047.33</ele>
<time>2015-04-27T12:51:36Z</time>
</trkpt>
<trkpt lat="35.0047972" lon="32.7252840">
<ele>1048.13</ele>
<time>2015-04-27T12:51:37Z</time>
</trkpt>
<trkpt lat="35.0048563" lon="32.7253361">
<ele>1048.03</ele>
<time>2015-04-27T12:51:38Z</time>
</trkpt>
<trkpt lat="35.0049161" lon="32.7253704">
<ele>1048.48</ele>
<time>2015-04-27T12:51:39Z</time>
</trkpt>
<trkpt lat="35.0049727" lon="32.7254258">
<ele>1048.20</ele>
<time>2015-04-27T12:51:40Z</time>
</trkpt>
<trkpt lat="35.0050238" lon="32.7254842">
<ele>1047.56</ele>
<time>2015-04-27T12:51:41Z</time>
</trkpt>
<trkpt lat="35.0050777" lon="32.7255451">
<ele>1047.24</ele>
<time>2015-04-27T12:51:42Z</time>
</trkpt>
<trkpt lat="35.0051260" lon="32.7256087">
<ele>1046.58</ele>
<time>2015-04-27T12:51:43Z</time>
</trkpt>
<trkpt lat="35.0051809" lon="32.7256730">
<ele>1046.25</ele>
<time>2015-04-27T12:51:44Z</time>
</trkpt>
<trkpt lat="35.0052394" lon="32.7257505">
<ele>1045.59</ele>
<time>2015-04-27T12:51:45Z</time>
</trkpt>
<trkpt lat="35.0052818" lon="32.7258212">
<ele>1044.76</ele>
<time>2015-04-27T12:51:46Z</time>
</trkpt>
<trkpt lat="35.0053382" lon="32.7258792">
<ele>1045.34</ele>
<time>2015-04-27T12:51:47Z</time>
</trkpt>
<trkpt lat="35.0053928" lon="32.7259600">
<ele>1045.13</ele>
<time>2015-04-27T12:51:48Z</time>
</trkpt>
<trkpt lat="35.0054541" lon="32.7260322">
<ele>1044.03</ele>
<time>2015-04-27T12:51:49Z</time>
</trkpt>
<trkpt lat="35.0055200" lon="32.7261001">
<ele>1043.98</ele>
<time>2015-04-27T12:51:50Z</time>
</trkpt>
<trkpt lat="35.0055788" lon="32.7261729">
<ele>1043.45</ele>
<time>2015-04-27T12:51:51Z</time>
</trkpt>
<trkpt lat="35.0056370" lon="32.7262496">
<ele>1042.69</ele>
<time>2015-04-27T12:51:52Z</time>
</trkpt>
<trkpt lat="35.0056992" lon="32.7263263">
<ele>1041.31</ele>
<time>2015-04-27T12:51:53Z</time>
</trkpt>
<trkpt lat="35.0057697" lon="32.7263861">
<ele>1040.62</ele>
<time>2015-04-27T12:51:54Z</time>
</trkpt>
<trkpt lat="35.0058425" lon="32.7264402">
<ele>1039.77</ele>
<time>2015-04-27T12:51:55Z</time>
</trkpt>
<trkpt lat="35.0059252" lon="32.7264758">
<ele>1038.85</ele>
<time>2015-04-27T12:51:56Z</time>
</trkpt>
<trkpt lat="35.0060136" lon="32.7264920">
<ele>1038.89</ele>
<time>2015-04-27T12:51:57Z</time>
</trkpt>
<trkpt lat="35.0061015" lon="32.7264972">
<ele>1038.91</ele>
<time>2015-04-27T12:51:58Z</time>
</trkpt>
<trkpt lat="35.0061836" lon="32.7264956">
<ele>1038.92</ele>
<time>2015-04-27T12:51:59Z</time>
</trkpt>
<trkpt lat="35.0062687" lon="32.7264935">
<ele>1038.42</ele>
<time>2015-04-27T12:52:00Z</time>
</trkpt>
<trkpt lat="35.0063478" lon="32.7264919">
<ele>1038.17</ele>
<time>2015-04-27T12:52:01Z</time>
</trkpt>
<trkpt lat="35.0064141" lon="32.7264936">
<ele>1037.55</ele>
<time>2015-04-27T12:52:02Z</time>
</trkpt>
<trkpt lat="35.0064815" lon="32.7264986">
<ele>1037.74</ele>
<time>2015-04-27T12:52:03Z</time>
</trkpt>
<trkpt lat="35.0065379" lon="32.7265531">
<ele>1037.83</ele>
<time>2015-04-27T12:52:04Z</time>
</trkpt>
<trkpt lat="35.0065710" lon="32.7266193">
<ele>1037.88</ele>
<time>2015-04-27T12:52:05Z</time>
</trkpt>
<trkpt lat="35.0065880" lon="32.7266905">
<ele>1038.40</ele>
<time>2015-04-27T12:52:06Z</time>
</trkpt>
<trkpt lat="35.0065903" lon="32.7267698">
<ele>1039.16</ele>
<time>2015-04-27T12:52:07Z</time>
</trkpt>
<trkpt lat="35.0065911" lon="32.7268417">
<ele>1039.54</ele>
<time>2015-04-27T12:52:08Z</time>
</trkpt>
<trkpt lat="35.0065947" lon="32.7269246">
<ele>1039.23</ele>
<time>2015-04-27T12:52:09Z</time>
</trkpt>
<trkpt lat="35.0066102" lon="32.7270064">
<ele>1039.08</ele>
<time>2015-04-27T12:52:10Z</time>
</trkpt>
<trkpt lat="35.0066333" lon="32.7270908">
<ele>1039.00</ele>
<time>2015-04-27T12:52:11Z</time>
</trkpt>
<trkpt lat="35.0066719" lon="32.7271668">
<ele>1038.96</ele>
<time>2015-04-27T12:52:12Z</time>
</trkpt>
<trkpt lat="35.0067242" lon="32.7272310">
<ele>1038.94</ele>
<time>2015-04-27T12:52:13Z</time>
</trkpt>
<trkpt lat="35.0067782" lon="32.7272906">
<ele>1038.93</ele>
<time>2015-04-27T12:52:14Z</time>
</trkpt>
<trkpt lat="35.0068308" lon="32.7273469">
<ele>1038.93</ele>
<time>2015-04-27T12:52:15Z</time>
</trkpt>
<trkpt lat="35.0068758" lon="32.7273967">
<ele>1038.93</ele>
<time>2015-04-27T12:52:16Z</time>
</trkpt>
<trkpt lat="35.0069309" lon="32.7274507">
<ele>1039.43</ele>
<time>2015-04-27T12:52:17Z</time>
</trkpt>
<trkpt lat="35.0069914" lon="32.7274975">
<ele>1039.18</ele>
<time>2015-04-27T12:52:18Z</time>
</trkpt>
<trkpt lat="35.0070507" lon="32.7275502">
<ele>1039.55</ele>
<time>2015-04-27T12:52:19Z</time>
</trkpt>
<trkpt lat="35.0071060" lon="32.7276031">
<ele>1039.74</ele>
<time>2015-04-27T12:52:20Z</time>
</trkpt>
<trkpt lat="35.0071630" lon="32.7276608">
<ele>1039.83</ele>
<time>2015-04-27T12:52:21Z</time>
</trkpt>
<trkpt lat="35.0072188" lon="32.7277224">
<ele>1039.38</ele>
<time>2015-04-27T12:52:22Z</time>
</trkpt>
<trkpt lat="35.0072755" lon="32.7277759">
<ele>1039.15</ele>
<time>2015-04-27T12:52:23Z</time>
</trkpt>
<trkpt lat="35.0073378" lon="32.7278336">
<ele>1039.04</ele>
<time>2015-04-27T12:52:24Z</time>
</trkpt>
<trkpt lat="35.0073938" lon="32.7278930">
<ele>1038.98</ele>
<time>2015-04-27T12:52:25Z</time>
</trkpt>
<trkpt lat="35.0074548" lon="32.7279411">
<ele>1038.45</ele>
<time>2015-04-27T12:52:26Z</time>
</trkpt>
<trkpt lat="35.0075257" lon="32.7279784">
<ele>1038.19</ele>
<time>2015-04-27T12:52:27Z</time>
</trkpt>
<trkpt lat="35.0075949" lon="32.7280042">
<ele>1038.06</ele>
<time>2015-04-27T12:52:28Z</time>
</trkpt>
<trkpt lat="35.0076684" lon="32.7280237">
<ele>1038.49</ele>
<time>2015-04-27T12:52:29Z</time>
</trkpt>
<trkpt lat="35.0077435" lon="32.7280294">
<ele>1038.71</ele>
<time>2015-04-27T12:52:30Z</time>
</trkpt>
<trkpt lat="35.0078229" lon="32.7280201">
<ele>1038.32</ele>
<time>2015-04-27T12:52:31Z</time>
</trkpt>
<trkpt lat="35.0078983" lon="32.7280113">
<ele>1038.12</ele>
<time>2015-04-27T12:52:32Z</time>
</trkpt>
<trkpt lat="35.0079757" lon="32.7279948">
<ele>1037.52</ele>
<time>2015-04-27T12:52:33Z</time>
</trkpt>
<trkpt lat="35.0080491" lon="32.7279888">
<ele>1037.72</ele>
<time>2015-04-27T12:52:34Z</time>
</trkpt>
<trkpt lat="35.0081333" lon="32.7279886">
<ele>1037.32</ele>
<time>2015-04-27T12:52:35Z</time>
</trkpt>
<trkpt lat="35.0082079" lon="32.7279947">
<ele>1037.12</ele>
<time>2015-04-27T12:52:36Z</time>
</trkpt>
<trkpt lat="35.0082874" lon="32.7280212">
<ele>1037.02</ele>
<time>2015-04-27T12:52:37Z</time>
</trkpt>
<trkpt lat="35.0083695" lon="32.7280565">
<ele>1036.47</ele>
<time>2015-04-27T12:52:38Z</time>
</trkpt>
<trkpt lat="35.0084484" lon="32.7280987">
<ele>1036.20</ele>
<time>2015-04-27T12:52:39Z</time>
</trkpt>
<trkpt lat="35.0085231" lon="32.7281344">
<ele>1035.56</ele>
<time>2015-04-27T12:52:40Z</time>
</trkpt>
<trkpt lat="35.0085974" lon="32.7281698">
<ele>1035.24</ele>
<time>2015-04-27T12:52:41Z</time>
</trkpt>
<trkpt lat="35.0086738" lon="32.7282004">
<ele>1035.58</ele>
<time>2015-04-27T12:52:42Z</time>
</trkpt>
<trkpt lat="35.0087506" lon="32.7282150">
<ele>1035.25</ele>
<time>2015-04-27T12:52:43Z</time>
</trkpt>
<trkpt lat="35.0088350" lon="32.7282186">
<ele>1035.59</ele>
<time>2015-04-27T12:52:44Z</time>
</trkpt>
<trkpt lat="35.0089146" lon="32.7282129">
<ele>1035.76</ele>
<time>2015-04-27T12:52:45Z</time>
</trkpt>
<trkpt lat="35.0089932" lon="32.7282071">
<ele>1035.34</ele>
<time>2015-04-27T12:52:46Z</time>
</trkpt>
<trkpt lat="35.0090696" lon="32.7282109">
<ele>1035.13</ele>
<time>2015-04-27T12:52:47Z</time>
</trkpt>
<trkpt lat="35.0091458" lon="32.7282076">
<ele>1034.53</ele>
<time>2015-04-27T12:52:48Z</time>
</trkpt>
<trkpt lat="35.0092306" lon="32.7282073">
<ele>1033.23</ele>
<time>2015-04-27T12:52:49Z</time>
</trkpt>
<trkpt lat="35.0093082" lon="32.7281917">
<ele>1032.58</ele>
<time>2015-04-27T12:52:50Z</time>
</trkpt>
<trkpt lat="35.0093877" lon="32.7281689">
<ele>1032.75</ele>
<time>2015-04-27T12:52:51Z</time>
</trkpt>
<trkpt lat="35.0094623" lon="32.7281417">
<ele>1032.84</ele>
<time>2015-04-27T12:52:52Z</time>
</trkpt>
<trkpt lat="35.0095441" lon="32.7281184">
<ele>1033.38</ele>
<time>2015-04-27T12:52:53Z</time>
</trkpt>
<trkpt lat="35.0096121" lon="32.7280742">
<ele>1033.65</ele>
<time>2015-04-27T12:52:54Z</time>
</trkpt>
<trkpt lat="35.0096870" lon="32.7280431">
<ele>1033.29</ele>
<time>2015-04-27T12:52:55Z</time>
</trkpt>
<trkpt lat="35.0097657" lon="32.7280117">
<ele>1033.11</ele>
<time>2015-04-27T12:52:56Z</time>
</trkpt>
<trkpt lat="35.0098509" lon="32.7279878">
<ele>1033.02</ele>
<time>2015-04-27T12:52:57Z</time>
</trkpt>
<trkpt lat="35.0099276" lon="32.7279478">
<ele>1032.97</ele>
<time>2015-04-27T12:52:58Z</time>
</trkpt>
<trkpt lat="35.0099963" lon="32.7279265">
<ele>1032.45</ele>
<time>2015-04-27T12:52:59Z</time>
</trkpt>
<trkpt lat="35.0100693" lon="32.7278753">
<ele>1032.69</ele>
<time>2015-04-27T12:53:00Z</time>
</trkpt>
<trkpt lat="35.0101362" lon="32.7278111">
<ele>1032.81</ele>
<time>2015-04-27T12:53:01Z</time>
</trkpt>
<trkpt lat="35.0102013" lon="32.7277317">
<ele>1032.37</ele>
<time>2015-04-27T12:53:02Z</time>
</trkpt>
<trkpt lat="35.0102580" lon="32.7276486">
<ele>1032.15</ele>
<time>2015-04-27T12:53:03Z</time>
</trkpt>
<trkpt lat="35.0103040" lon="32.7275580">
<ele>1031.54</ele>
<time>2015-04-27T12:53:04Z</time>
</trkpt>
<trkpt lat="35.0103536" lon="32.7274682">
<ele>1030.73</ele>
<time>2015-04-27T12:53:05Z</time>
</trkpt>
<trkpt lat="35.0104098" lon="32.7273792">
<ele>1030.33</ele>
<time>2015-04-27T12:53:06Z</time>
</trkpt>
<trkpt lat="35.0104592" lon="32.7272919">
<ele>1029.63</ele>
<time>2015-04-27T12:53:07Z</time>
</trkpt>
<trkpt lat="35.0105177" lon="32.7272037">
<ele>1029.28</ele>
<time>2015-04-27T12:53:08Z</time>
</trkpt>
<trkpt lat="35.0105791" lon="32.7271108">
<ele>1029.10</ele>
<time>2015-04-27T12:53:09Z</time>
</trkpt>
<trkpt lat="35.0106394" lon="32.7270312">
<ele>1029.01</ele>
<time>2015-04-27T12:53:10Z</time>
</trkpt>
<trkpt lat="35.0106997" lon="32.7269414">
<ele>1028.47</ele>
<time>2015-04-27T12:53:11Z</time>
</trkpt>
<trkpt lat="35.0107580" lon="32.7268529">
<ele>1027.20</ele>
<time>2015-04-27T12:53:12Z</time>
</trkpt>
<trkpt lat="35.0108046" lon="32.7267633">
<ele>1027.06</ele>
<time>2015-04-27T12:53:13Z</time>
</trkpt>
<trkpt lat="35.0108665" lon="32.7267038">
<ele>1026.49</ele>
<time>2015-04-27T12:53:14Z</time>
</trkpt>
<trkpt lat="35.0109383" lon="32.7266760">
<ele>1026.21</ele>
<time>2015-04-27T12:53:15Z</time>
</trkpt>
<trkpt lat="35.0110127" lon="32.7266822">
<ele>1026.07</ele>
<time>2015-04-27T12:53:16Z</time>
</trkpt>
<trkpt lat="35.0110801" lon="32.7267132">
<ele>1026.00</ele>
<time>2015-04-27T12:53:17Z</time>
</trkpt>
<trkpt lat="35.0111461" lon="32.7267669">
<ele>1024.96</ele>
<time>2015-04-27T12:53:18Z</time>
</trkpt>
<trkpt lat="35.0112052" lon="32.7268290">
<ele>1023.94</ele>
<time>2015-04-27T12:53:19Z</time>
</trkpt>
<trkpt lat="35.0112672" lon="32.7268916">
<ele>1023.93</ele>
<time>2015-04-27T12:53:20Z</time>
</trkpt>
<trkpt lat="35.0113330" lon="32.7269472">
<ele>1023.43</ele>
<time>2015-04-27T12:53:21Z</time>
</trkpt>
<trkpt lat="35.0114026" lon="32.7269947">
<ele>1023.18</ele>
<time>2015-04-27T12:53:22Z</time>
</trkpt>
<trkpt lat="35.0114652" lon="32.7270501">
<ele>1023.05</ele>
<time>2015-04-27T12:53:23Z</time>
</trkpt>
<trkpt lat="35.0115380" lon="32.7271219">
<ele>1022.49</ele>
<time>2015-04-27T12:53:24Z</time>
</trkpt>
<trkpt lat="35.0116056" lon="32.7271949">
<ele>1021.71</ele>
<time>2015-04-27T12:53:25Z</time>
</trkpt>
<trkpt lat="35.0116716" lon="32.7272697">
<ele>1020.82</ele>
<time>2015-04-27T12:53:26Z</time>
</trkpt>
<trkpt lat="35.0117444" lon="32.7273402">
<ele>1020.87</ele>
<time>2015-04-27T12:53:27Z</time>
</trkpt>
<trkpt lat="35.0118205" lon="32.7274018">
<ele>1020.40</ele>
<time>2015-04-27T12:53:28Z</time>
</trkpt>
<trkpt lat="35.0119027" lon="32.7274624">
<ele>1020.16</ele>
<time>2015-04-27T12:53:29Z</time>
</trkpt>
<trkpt lat="35.0119865" lon="32.7275131">
<ele>1020.04</ele>
<time>2015-04-27T12:53:30Z</time>
</trkpt>
<trkpt lat="35.0120785" lon="32.7275598">
<ele>1020.48</ele>
<time>2015-04-27T12:53:31Z</time>
</trkpt>
<trkpt lat="35.0121733" lon="32.7275944">
<ele>1020.70</ele>
<time>2015-04-27T12:53:32Z</time>
</trkpt>
<trkpt lat="35.0122714" lon="32.7276296">
<ele>1020.81</ele>
<time>2015-04-27T12:53:33Z</time>
</trkpt>
<trkpt lat="35.0123594" lon="32.7276674">
<ele>1020.87</ele>
<time>2015-04-27T12:53:34Z</time>
</trkpt>
<trkpt lat="35.0124453" lon="32.7276925">
<ele>1020.40</ele>
<time>2015-04-27T12:53:35Z</time>
</trkpt>
<trkpt lat="35.0125320" lon="32.7277104">
<ele>1020.66</ele>
<time>2015-04-27T12:53:36Z</time>
</trkpt>
<trkpt lat="35.0126081" lon="32.7276972">
<ele>1020.79</ele>
<time>2015-04-27T12:53:37Z</time>
</trkpt>
<trkpt lat="35.0126979" lon="32.7276625">
<ele>1021.86</ele>
<time>2015-04-27T12:53:38Z</time>
</trkpt>
<trkpt lat="35.0127859" lon="32.7276351">
<ele>1021.89</ele>
<time>2015-04-27T12:53:39Z</time>
</trkpt>
<trkpt lat="35.0128668" lon="32.7275966">
<ele>1022.41</ele>
<time>2015-04-27T12:53:40Z</time>
</trkpt>
<trkpt lat="35.0129436" lon="32.7275626">
<ele>1022.67</ele>
<time>2015-04-27T12:53:41Z</time>
</trkpt>
<trkpt lat="35.0130204" lon="32.7275256">
<ele>1022.80</ele>
<time>2015-04-27T12:53:42Z</time>
</trkpt>
<trkpt lat="35.0130898" lon="32.7274830">
<ele>1023.36</ele>
<time>2015-04-27T12:53:43Z</time>
</trkpt>
<trkpt lat="35.0131597" lon="32.7274562">
<ele>1023.64</ele>
<time>2015-04-27T12:53:44Z</time>
</trkpt>
<trkpt lat="35.0132219" lon="32.7274281">
<ele>1023.78</ele>
<time>2015-04-27T12:53:45Z</time>
</trkpt>
<trkpt lat="35.0132839" lon="32.7274196">
<ele>1023.85</ele>
<time>2015-04-27T12:53:46Z</time>
</trkpt>
<trkpt lat="35.0133437" lon="32.7274155">
<ele>1023.89</ele>
<time>2015-04-27T12:53:47Z</time>
</trkpt>
<trkpt lat="35.0134092" lon="32.7274202">
<ele>1023.41</ele>
<time>2015-04-27T12:53:48Z</time>
</trkpt>
<trkpt lat="35.0134600" lon="32.7274251">
<ele>1023.67</ele>
<time>2015-04-27T12:53:49Z</time>
</trkpt>
<trkpt lat="35.0135356" lon="32.7274329">
<ele>1022.36</ele>
<time>2015-04-27T12:53:51Z</time>
</trkpt>
<trkpt lat="35.0135874" lon="32.7274571">
<ele>1021.53</ele>
<time>2015-04-27T12:53:53Z</time>
</trkpt>
<trkpt lat="35.0135812" lon="32.7275126">
<ele>1023.30</ele>
<time>2015-04-27T12:55:56Z</time>
</trkpt>
<trkpt lat="35.0135577" lon="32.7275718">
<ele>1023.53</ele>
<time>2015-04-27T12:56:01Z</time>
</trkpt>
<trkpt lat="35.0135671" lon="32.7276516">
<ele>1023.13</ele>
<time>2015-04-27T12:56:04Z</time>
</trkpt>
<trkpt lat="35.0135810" lon="32.7277270">
<ele>1022.48</ele>
<time>2015-04-27T12:56:06Z</time>
</trkpt>
<trkpt lat="35.0135928" lon="32.7278054">
<ele>1021.56</ele>
<time>2015-04-27T12:56:08Z</time>
</trkpt>
<trkpt lat="35.0135989" lon="32.7278974">
<ele>1020.83</ele>
<time>2015-04-27T12:56:10Z</time>
</trkpt>
<trkpt lat="35.0136065" lon="32.7280045">
<ele>1020.15</ele>
<time>2015-04-27T12:56:12Z</time>
</trkpt>
<trkpt lat="35.0136121" lon="32.7280601">
<ele>1020.04</ele>
<time>2015-04-27T12:56:13Z</time>
</trkpt>
<trkpt lat="35.0136119" lon="32.7281338">
<ele>1019.98</ele>
<time>2015-04-27T12:56:14Z</time>
</trkpt>
<trkpt lat="35.0136072" lon="32.7281972">
<ele>1019.45</ele>
<time>2015-04-27T12:56:15Z</time>
</trkpt>
<trkpt lat="35.0136004" lon="32.7282641">
<ele>1018.69</ele>
<time>2015-04-27T12:56:16Z</time>
</trkpt>
<trkpt lat="35.0135754" lon="32.7283280">
<ele>1018.81</ele>
<time>2015-04-27T12:56:17Z</time>
</trkpt>
<trkpt lat="35.0135467" lon="32.7283926">
<ele>1018.37</ele>
<time>2015-04-27T12:56:18Z</time>
</trkpt>
<trkpt lat="35.0135081" lon="32.7284540">
<ele>1018.15</ele>
<time>2015-04-27T12:56:19Z</time>
</trkpt>
<trkpt lat="35.0134653" lon="32.7285105">
<ele>1018.04</ele>
<time>2015-04-27T12:56:20Z</time>
</trkpt>
<trkpt lat="35.0134201" lon="32.7285611">
<ele>1017.98</ele>
<time>2015-04-27T12:56:21Z</time>
</trkpt>
<trkpt lat="35.0133745" lon="32.7286143">
<ele>1017.95</ele>
<time>2015-04-27T12:56:22Z</time>
</trkpt>
<trkpt lat="35.0133281" lon="32.7286576">
<ele>1017.94</ele>
<time>2015-04-27T12:56:23Z</time>
</trkpt>
<trkpt lat="35.0132708" lon="32.7286874">
<ele>1018.43</ele>
<time>2015-04-27T12:56:24Z</time>
</trkpt>
<trkpt lat="35.0132108" lon="32.7287085">
<ele>1018.68</ele>
<time>2015-04-27T12:56:25Z</time>
</trkpt>
<trkpt lat="35.0131485" lon="32.7287125">
<ele>1018.80</ele>
<time>2015-04-27T12:56:26Z</time>
</trkpt>
<trkpt lat="35.0130830" lon="32.7287026">
<ele>1018.86</ele>
<time>2015-04-27T12:56:27Z</time>
</trkpt>
<trkpt lat="35.0130186" lon="32.7287008">
<ele>1019.39</ele>
<time>2015-04-27T12:56:28Z</time>
</trkpt>
<trkpt lat="35.0129508" lon="32.7287009">
<ele>1019.16</ele>
<time>2015-04-27T12:56:29Z</time>
</trkpt>
<trkpt lat="35.0128794" lon="32.7286933">
<ele>1019.04</ele>
<time>2015-04-27T12:56:30Z</time>
</trkpt>
<trkpt lat="35.0128030" lon="32.7286915">
<ele>1018.98</ele>
<time>2015-04-27T12:56:31Z</time>
</trkpt>
<trkpt lat="35.0127300" lon="32.7286701">
<ele>1018.45</ele>
<time>2015-04-27T12:56:32Z</time>
</trkpt>
<trkpt lat="35.0126487" lon="32.7286617">
<ele>1018.19</ele>
<time>2015-04-27T12:56:33Z</time>
</trkpt>
<trkpt lat="35.0125749" lon="32.7286462">
<ele>1018.06</ele>
<time>2015-04-27T12:56:34Z</time>
</trkpt>
<trkpt lat="35.0124924" lon="32.7286451">
<ele>1017.49</ele>
<time>2015-04-27T12:56:35Z</time>
</trkpt>
<trkpt lat="35.0124108" lon="32.7286689">
<ele>1017.21</ele>
<time>2015-04-27T12:56:36Z</time>
</trkpt>
<trkpt lat="35.0123313" lon="32.7287127">
<ele>1017.57</ele>
<time>2015-04-27T12:56:37Z</time>
</trkpt>
<trkpt lat="35.0122603" lon="32.7287660">
<ele>1017.25</ele>
<time>2015-04-27T12:56:38Z</time>
</trkpt>
<trkpt lat="35.0121886" lon="32.7288221">
<ele>1017.09</ele>
<time>2015-04-27T12:56:39Z</time>
</trkpt>
<trkpt lat="35.0121226" lon="32.7288671">
<ele>1017.01</ele>
<time>2015-04-27T12:56:40Z</time>
</trkpt>
<trkpt lat="35.0120464" lon="32.7288837">
<ele>1015.97</ele>
<time>2015-04-27T12:56:41Z</time>
</trkpt>
<trkpt lat="35.0119670" lon="32.7288943">
<ele>1015.45</ele>
<time>2015-04-27T12:56:42Z</time>
</trkpt>
<trkpt lat="35.0118816" lon="32.7289024">
<ele>1014.68</ele>
<time>2015-04-27T12:56:43Z</time>
</trkpt>
<trkpt lat="35.0117961" lon="32.7289017">
<ele>1014.30</ele>
<time>2015-04-27T12:56:44Z</time>
</trkpt>
<trkpt lat="35.0117160" lon="32.7288955">
<ele>1013.11</ele>
<time>2015-04-27T12:56:45Z</time>
</trkpt>
<trkpt lat="35.0116291" lon="32.7288970">
<ele>1012.02</ele>
<time>2015-04-27T12:56:46Z</time>
</trkpt>
<trkpt lat="35.0115469" lon="32.7289154">
<ele>1011.47</ele>
<time>2015-04-27T12:56:47Z</time>
</trkpt>
<trkpt lat="35.0114665" lon="32.7289552">
<ele>1010.70</ele>
<time>2015-04-27T12:56:48Z</time>
</trkpt>
<trkpt lat="35.0114024" lon="32.7290184">
<ele>1010.81</ele>
<time>2015-04-27T12:56:49Z</time>
</trkpt>
<trkpt lat="35.0113474" lon="32.7290822">
<ele>1010.37</ele>
<time>2015-04-27T12:56:50Z</time>
</trkpt>
<trkpt lat="35.0113108" lon="32.7291848">
<ele>1010.15</ele>
<time>2015-04-27T12:56:51Z</time>
</trkpt>
<trkpt lat="35.0113197" lon="32.7292832">
<ele>1009.54</ele>
<time>2015-04-27T12:56:52Z</time>
</trkpt>
<trkpt lat="35.0113190" lon="32.7293783">
<ele>1008.73</ele>
<time>2015-04-27T12:56:53Z</time>
</trkpt>
<trkpt lat="35.0113162" lon="32.7294871">
<ele>1007.83</ele>
<time>2015-04-27T12:56:54Z</time>
</trkpt>
<trkpt lat="35.0113080" lon="32.7295853">
<ele>1006.88</ele>
<time>2015-04-27T12:56:55Z</time>
</trkpt>
<trkpt lat="35.0112837" lon="32.7296796">
<ele>1005.40</ele>
<time>2015-04-27T12:56:56Z</time>
</trkpt>
<trkpt lat="35.0112630" lon="32.7297804">
<ele>1004.66</ele>
<time>2015-04-27T12:56:57Z</time>
</trkpt>
<trkpt lat="35.0112193" lon="32.7298746">
<ele>1003.29</ele>
<time>2015-04-27T12:56:58Z</time>
</trkpt>
<trkpt lat="35.0111622" lon="32.7299693">
<ele>1002.61</ele>
<time>2015-04-27T12:56:59Z</time>
</trkpt>
<trkpt lat="35.0111066" lon="32.7300519">
<ele>1001.27</ele>
<time>2015-04-27T12:57:00Z</time>
</trkpt>
<trkpt lat="35.0110484" lon="32.7301403">
<ele>1000.60</ele>
<time>2015-04-27T12:57:01Z</time>
</trkpt>
<trkpt lat="35.0109971" lon="32.7302315">
<ele>1000.26</ele>
<time>2015-04-27T12:57:02Z</time>
</trkpt>
<trkpt lat="35.0109502" lon="32.7303270">
<ele>1000.09</ele>
<time>2015-04-27T12:57:03Z</time>
</trkpt>
<trkpt lat="35.0109206" lon="32.7304185">
<ele>999.51</ele>
<time>2015-04-27T12:57:04Z</time>
</trkpt>
<trkpt lat="35.0108932" lon="32.7305098">
<ele>998.72</ele>
<time>2015-04-27T12:57:05Z</time>
</trkpt>
<trkpt lat="35.0108700" lon="32.7305918">
<ele>997.82</ele>
<time>2015-04-27T12:57:06Z</time>
</trkpt>
<trkpt lat="35.0108413" lon="32.7306707">
<ele>996.87</ele>
<time>2015-04-27T12:57:07Z</time>
</trkpt>
<trkpt lat="35.0108184" lon="32.7307475">
<ele>995.90</ele>
<time>2015-04-27T12:57:08Z</time>
</trkpt>
<trkpt lat="35.0107994" lon="32.7308182">
<ele>994.91</ele>
<time>2015-04-27T12:57:09Z</time>
</trkpt>
<trkpt lat="35.0107816" lon="32.7308895">
<ele>994.42</ele>
<time>2015-04-27T12:57:10Z</time>
</trkpt>
<trkpt lat="35.0107708" lon="32.7309607">
<ele>994.17</ele>
<time>2015-04-27T12:57:11Z</time>
</trkpt>
<trkpt lat="35.0107616" lon="32.7310342">
<ele>994.55</ele>
<time>2015-04-27T12:57:12Z</time>
</trkpt>
<trkpt lat="35.0107434" lon="32.7310974">
<ele>994.74</ele>
<time>2015-04-27T12:57:13Z</time>
</trkpt>
<trkpt lat="35.0107074" lon="32.7311419">
<ele>994.33</ele>
<time>2015-04-27T12:57:14Z</time>
</trkpt>
<trkpt lat="35.0106575" lon="32.7311701">
<ele>994.13</ele>
<time>2015-04-27T12:57:15Z</time>
</trkpt>
<trkpt lat="35.0106084" lon="32.7311709">
<ele>993.53</ele>
<time>2015-04-27T12:57:16Z</time>
</trkpt>
<trkpt lat="35.0105516" lon="32.7311503">
<ele>992.73</ele>
<time>2015-04-27T12:57:17Z</time>
</trkpt>
<trkpt lat="35.0104950" lon="32.7311292">
<ele>992.33</ele>
<time>2015-04-27T12:57:18Z</time>
</trkpt>
<trkpt lat="35.0104343" lon="32.7310993">
<ele>991.63</ele>
<time>2015-04-27T12:57:19Z</time>
</trkpt>
<trkpt lat="35.0103676" lon="32.7310723">
<ele>990.78</ele>
<time>2015-04-27T12:57:20Z</time>
</trkpt>
<trkpt lat="35.0102951" lon="32.7310556">
<ele>989.85</ele>
<time>2015-04-27T12:57:21Z</time>
</trkpt>
<trkpt lat="35.0102182" lon="32.7310416">
<ele>988.89</ele>
<time>2015-04-27T12:57:22Z</time>
</trkpt>
<trkpt lat="35.0101487" lon="32.7310308">
<ele>988.41</ele>
<time>2015-04-27T12:57:23Z</time>
</trkpt>
<trkpt lat="35.0100870" lon="32.7310139">
<ele>987.67</ele>
<time>2015-04-27T12:57:24Z</time>
</trkpt>
<trkpt lat="35.0100319" lon="32.7310021">
<ele>987.30</ele>
<time>2015-04-27T12:57:25Z</time>
</trkpt>
<trkpt lat="35.0099765" lon="32.7309953">
<ele>986.61</ele>
<time>2015-04-27T12:57:26Z</time>
</trkpt>
<trkpt lat="35.0099322" lon="32.7309803">
<ele>986.27</ele>
<time>2015-04-27T12:57:27Z</time>
</trkpt>
<trkpt lat="35.0098519" lon="32.7309484">
<ele>985.51</ele>
<time>2015-04-27T12:57:29Z</time>
</trkpt>
<trkpt lat="35.0097604" lon="32.7309279">
<ele>984.57</ele>
<time>2015-04-27T12:57:31Z</time>
</trkpt>
<trkpt lat="35.0097102" lon="32.7309108">
<ele>984.25</ele>
<time>2015-04-27T12:57:32Z</time>
</trkpt>
<trkpt lat="35.0096529" lon="32.7308928">
<ele>983.59</ele>
<time>2015-04-27T12:57:33Z</time>
</trkpt>
<trkpt lat="35.0095985" lon="32.7308864">
<ele>982.76</ele>
<time>2015-04-27T12:57:34Z</time>
</trkpt>
<trkpt lat="35.0095464" lon="32.7308780">
<ele>982.34</ele>
<time>2015-04-27T12:57:35Z</time>
</trkpt>
<trkpt lat="35.0095003" lon="32.7308678">
<ele>981.63</ele>
<time>2015-04-27T12:57:36Z</time>
</trkpt>
<trkpt lat="35.0094112" lon="32.7308364">
<ele>980.60</ele>
<time>2015-04-27T12:57:38Z</time>
</trkpt>
<trkpt lat="35.0093701" lon="32.7308035">
<ele>979.76</ele>
<time>2015-04-27T12:57:39Z</time>
</trkpt>
<trkpt lat="35.0093344" lon="32.7307509">
<ele>979.34</ele>
<time>2015-04-27T12:57:40Z</time>
</trkpt>
<trkpt lat="35.0093031" lon="32.7306888">
<ele>979.13</ele>
<time>2015-04-27T12:57:41Z</time>
</trkpt>
<trkpt lat="35.0092718" lon="32.7306273">
<ele>979.03</ele>
<time>2015-04-27T12:57:42Z</time>
</trkpt>
<trkpt lat="35.0092340" lon="32.7305564">
<ele>978.48</ele>
<time>2015-04-27T12:57:43Z</time>
</trkpt>
<trkpt lat="35.0091969" lon="32.7304915">
<ele>978.20</ele>
<time>2015-04-27T12:57:44Z</time>
</trkpt>
<trkpt lat="35.0091570" lon="32.7304215">
<ele>977.06</ele>
<time>2015-04-27T12:57:45Z</time>
</trkpt>
<trkpt lat="35.0091188" lon="32.7303636">
<ele>976.49</ele>
<time>2015-04-27T12:57:46Z</time>
</trkpt>
<trkpt lat="35.0090816" lon="32.7303119">
<ele>976.21</ele>
<time>2015-04-27T12:57:47Z</time>
</trkpt>
<trkpt lat="35.0090482" lon="32.7302660">
<ele>976.07</ele>
<time>2015-04-27T12:57:48Z</time>
</trkpt>
<trkpt lat="35.0090060" lon="32.7302382">
<ele>976.00</ele>
<time>2015-04-27T12:57:49Z</time>
</trkpt>
<trkpt lat="35.0089272" lon="32.7302404">
<ele>975.44</ele>
<time>2015-04-27T12:57:51Z</time>
</trkpt>
<trkpt lat="35.0088494" lon="32.7302877">
<ele>975.05</ele>
<time>2015-04-27T12:57:53Z</time>
</trkpt>
<trkpt lat="35.0087700" lon="32.7303239">
<ele>974.46</ele>
<time>2015-04-27T12:57:55Z</time>
</trkpt>
<trkpt lat="35.0087063" lon="32.7303557">
<ele>974.56</ele>
<time>2015-04-27T12:57:57Z</time>
</trkpt>
<trkpt lat="35.0086550" lon="32.7303823">
<ele>974.83</ele>
<time>2015-04-27T12:57:59Z</time>
</trkpt>
<trkpt lat="35.0086118" lon="32.7304032">
<ele>974.40</ele>
<time>2015-04-27T12:58:01Z</time>
</trkpt>
<trkpt lat="35.0085662" lon="32.7304222">
<ele>974.04</ele>
<time>2015-04-27T12:58:03Z</time>
</trkpt>
<trkpt lat="35.0085209" lon="32.7304471">
<ele>974.70</ele>
<time>2015-04-27T12:58:05Z</time>
</trkpt>
<trkpt lat="35.0084728" lon="32.7304625">
<ele>975.62</ele>
<time>2015-04-27T12:58:07Z</time>
</trkpt>
<trkpt lat="35.0084231" lon="32.7304572">
<ele>975.35</ele>
<time>2015-04-27T12:58:09Z</time>
</trkpt>
<trkpt lat="35.0083704" lon="32.7304541">
<ele>975.78</ele>
<time>2015-04-27T12:58:11Z</time>
</trkpt>
<trkpt lat="35.0083168" lon="32.7304538">
<ele>975.14</ele>
<time>2015-04-27T12:58:13Z</time>
</trkpt>
<trkpt lat="35.0082650" lon="32.7304510">
<ele>975.23</ele>
<time>2015-04-27T12:58:15Z</time>
</trkpt>
<trkpt lat="35.0082140" lon="32.7304491">
<ele>975.00</ele>
<time>2015-04-27T12:58:17Z</time>
</trkpt>
<trkpt lat="35.0081588" lon="32.7304340">
<ele>974.19</ele>
<time>2015-04-27T12:58:19Z</time>
</trkpt>
<trkpt lat="35.0081030" lon="32.7304153">
<ele>973.99</ele>
<time>2015-04-27T12:58:21Z</time>
</trkpt>
<trkpt lat="35.0080528" lon="32.7303953">
<ele>973.44</ele>
<time>2015-04-27T12:58:23Z</time>
</trkpt>
<trkpt lat="35.0080026" lon="32.7303730">
<ele>974.24</ele>
<time>2015-04-27T12:58:26Z</time>
</trkpt>
<trkpt lat="35.0079458" lon="32.7303626">
<ele>974.84</ele>
<time>2015-04-27T12:58:29Z</time>
</trkpt>
<trkpt lat="35.0078888" lon="32.7303497">
<ele>975.41</ele>
<time>2015-04-27T12:58:32Z</time>
</trkpt>
<trkpt lat="35.0078384" lon="32.7303375">
<ele>975.74</ele>
<time>2015-04-27T12:58:35Z</time>
</trkpt>
<trkpt lat="35.0077763" lon="32.7303322">
<ele>975.65</ele>
<time>2015-04-27T12:58:38Z</time>
</trkpt>
<trkpt lat="35.0077278" lon="32.7303340">
<ele>975.86</ele>
<time>2015-04-27T12:58:40Z</time>
</trkpt>
<trkpt lat="35.0076801" lon="32.7303404">
<ele>977.16</ele>
<time>2015-04-27T12:58:42Z</time>
</trkpt>
<trkpt lat="35.0076326" lon="32.7303491">
<ele>977.73</ele>
<time>2015-04-27T12:58:44Z</time>
</trkpt>
<trkpt lat="35.0075854" lon="32.7303618">
<ele>977.88</ele>
<time>2015-04-27T12:58:46Z</time>
</trkpt>
<trkpt lat="35.0075386" lon="32.7303771">
<ele>978.66</ele>
<time>2015-04-27T12:58:48Z</time>
</trkpt>
<trkpt lat="35.0074909" lon="32.7303916">
<ele>978.86</ele>
<time>2015-04-27T12:58:50Z</time>
</trkpt>
<trkpt lat="35.0074429" lon="32.7303937">
<ele>978.91</ele>
<time>2015-04-27T12:58:52Z</time>
</trkpt>
<trkpt lat="35.0073942" lon="32.7303901">
<ele>980.17</ele>
<time>2015-04-27T12:58:54Z</time>
</trkpt>
<trkpt lat="35.0073470" lon="32.7303811">
<ele>980.74</ele>
<time>2015-04-27T12:58:56Z</time>
</trkpt>
<trkpt lat="35.0073021" lon="32.7303657">
<ele>980.88</ele>
<time>2015-04-27T12:58:58Z</time>
</trkpt>
<trkpt lat="35.0072546" lon="32.7303490">
<ele>980.41</ele>
<time>2015-04-27T12:59:00Z</time>
</trkpt>
<trkpt lat="35.0072102" lon="32.7303236">
<ele>980.05</ele>
<time>2015-04-27T12:59:02Z</time>
</trkpt>
<trkpt lat="35.0071555" lon="32.7303025">
<ele>979.07</ele>
<time>2015-04-27T12:59:05Z</time>
</trkpt>
<trkpt lat="35.0071037" lon="32.7302878">
<ele>978.44</ele>
<time>2015-04-27T12:59:08Z</time>
</trkpt>
<trkpt lat="35.0070549" lon="32.7302747">
<ele>979.55</ele>
<time>2015-04-27T12:59:10Z</time>
</trkpt>
<trkpt lat="35.0069990" lon="32.7302606">
<ele>979.33</ele>
<time>2015-04-27T12:59:12Z</time>
</trkpt>
<trkpt lat="35.0069405" lon="32.7302438">
<ele>979.03</ele>
<time>2015-04-27T12:59:14Z</time>
</trkpt>
<trkpt lat="35.0068839" lon="32.7302288">
<ele>978.95</ele>
<time>2015-04-27T12:59:16Z</time>
</trkpt>
<trkpt lat="35.0068378" lon="32.7302187">
<ele>979.43</ele>
<time>2015-04-27T12:59:18Z</time>
</trkpt>
<trkpt lat="35.0067902" lon="32.7302082">
<ele>979.05</ele>
<time>2015-04-27T12:59:20Z</time>
</trkpt>
<trkpt lat="35.0067286" lon="32.7301972">
<ele>977.71</ele>
<time>2015-04-27T12:59:22Z</time>
</trkpt>
<trkpt lat="35.0066611" lon="32.7302047">
<ele>976.87</ele>
<time>2015-04-27T12:59:24Z</time>
</trkpt>
<trkpt lat="35.0065998" lon="32.7302482">
<ele>976.41</ele>
<time>2015-04-27T12:59:26Z</time>
</trkpt>
<trkpt lat="35.0065567" lon="32.7303184">
<ele>975.55</ele>
<time>2015-04-27T12:59:28Z</time>
</trkpt>
<trkpt lat="35.0065339" lon="32.7304018">
<ele>975.08</ele>
<time>2015-04-27T12:59:30Z</time>
</trkpt>
<trkpt lat="35.0065301" lon="32.7304934">
<ele>974.96</ele>
<time>2015-04-27T12:59:32Z</time>
</trkpt>
<trkpt lat="35.0065376" lon="32.7305852">
<ele>974.93</ele>
<time>2015-04-27T12:59:34Z</time>
</trkpt>
<trkpt lat="35.0065473" lon="32.7306690">
<ele>975.43</ele>
<time>2015-04-27T12:59:36Z</time>
</trkpt>
<trkpt lat="35.0065476" lon="32.7307306">
<ele>975.80</ele>
<time>2015-04-27T12:59:38Z</time>
</trkpt>
<trkpt lat="35.0065422" lon="32.7307914">
<ele>975.89</ele>
<time>2015-04-27T12:59:40Z</time>
</trkpt>
<trkpt lat="35.0065466" lon="32.7308534">
<ele>976.67</ele>
<time>2015-04-27T12:59:42Z</time>
</trkpt>
<trkpt lat="35.0065602" lon="32.7309187">
<ele>976.86</ele>
<time>2015-04-27T12:59:44Z</time>
</trkpt>
<trkpt lat="35.0065718" lon="32.7309987">
<ele>976.91</ele>
<time>2015-04-27T12:59:46Z</time>
</trkpt>
<trkpt lat="35.0065767" lon="32.7310879">
<ele>977.42</ele>
<time>2015-04-27T12:59:48Z</time>
</trkpt>
<trkpt lat="35.0065814" lon="32.7311768">
<ele>977.80</ele>
<time>2015-04-27T12:59:50Z</time>
</trkpt>
<trkpt lat="35.0065873" lon="32.7312632">
<ele>977.89</ele>
<time>2015-04-27T12:59:52Z</time>
</trkpt>
<trkpt lat="35.0065910" lon="32.7313441">
<ele>977.92</ele>
<time>2015-04-27T12:59:54Z</time>
</trkpt>
<trkpt lat="35.0065885" lon="32.7314246">
<ele>978.17</ele>
<time>2015-04-27T12:59:56Z</time>
</trkpt>
<trkpt lat="35.0065962" lon="32.7315038">
<ele>977.99</ele>
<time>2015-04-27T12:59:58Z</time>
</trkpt>
<trkpt lat="35.0066078" lon="32.7315622">
<ele>977.19</ele>
<time>2015-04-27T13:00:00Z</time>
</trkpt>
<trkpt lat="35.0066260" lon="32.7316148">
<ele>976.21</ele>
<time>2015-04-27T13:00:03Z</time>
</trkpt>
<trkpt lat="35.0066427" lon="32.7316818">
<ele>976.34</ele>
<time>2015-04-27T13:00:06Z</time>
</trkpt>
<trkpt lat="35.0066570" lon="32.7317435">
<ele>975.98</ele>
<time>2015-04-27T13:00:09Z</time>
</trkpt>
<trkpt lat="35.0066576" lon="32.7318079">
<ele>976.81</ele>
<time>2015-04-27T13:00:12Z</time>
</trkpt>
<trkpt lat="35.0066527" lon="32.7318646">
<ele>978.15</ele>
<time>2015-04-27T13:00:14Z</time>
</trkpt>
<trkpt lat="35.0066362" lon="32.7319270">
<ele>978.73</ele>
<time>2015-04-27T13:00:16Z</time>
</trkpt>
<trkpt lat="35.0066059" lon="32.7319870">
<ele>979.63</ele>
<time>2015-04-27T13:00:18Z</time>
</trkpt>
<trkpt lat="35.0065689" lon="32.7320509">
<ele>980.35</ele>
<time>2015-04-27T13:00:20Z</time>
</trkpt>
<trkpt lat="35.0065262" lon="32.7321187">
<ele>981.28</ele>
<time>2015-04-27T13:00:22Z</time>
</trkpt>
<trkpt lat="35.0064838" lon="32.7321789">
<ele>982.26</ele>
<time>2015-04-27T13:00:24Z</time>
</trkpt>
<trkpt lat="35.0064531" lon="32.7322229">
<ele>982.76</ele>
<time>2015-04-27T13:00:26Z</time>
</trkpt>
<trkpt lat="35.0064180" lon="32.7322845">
<ele>982.90</ele>
<time>2015-04-27T13:00:29Z</time>
</trkpt>
<trkpt lat="35.0063870" lon="32.7323470">
<ele>982.92</ele>
<time>2015-04-27T13:00:32Z</time>
</trkpt>
<trkpt lat="35.0063561" lon="32.7324006">
<ele>982.17</ele>
<time>2015-04-27T13:00:36Z</time>
</trkpt>
<trkpt lat="35.0063427" lon="32.7324537">
<ele>983.71</ele>
<time>2015-04-27T13:00:39Z</time>
</trkpt>
<trkpt lat="35.0063392" lon="32.7325108">
<ele>983.87</ele>
<time>2015-04-27T13:00:41Z</time>
</trkpt>
<trkpt lat="35.0063354" lon="32.7325709">
<ele>984.66</ele>
<time>2015-04-27T13:00:43Z</time>
</trkpt>
<trkpt lat="35.0063190" lon="32.7326272">
<ele>985.61</ele>
<time>2015-04-27T13:00:45Z</time>
</trkpt>
<trkpt lat="35.0062956" lon="32.7326757">
<ele>985.85</ele>
<time>2015-04-27T13:00:47Z</time>
</trkpt>
<trkpt lat="35.0062674" lon="32.7327398">
<ele>986.04</ele>
<time>2015-04-27T13:00:50Z</time>
</trkpt>
<trkpt lat="35.0062347" lon="32.7327979">
<ele>986.68</ele>
<time>2015-04-27T13:00:54Z</time>
</trkpt>
<trkpt lat="35.0062012" lon="32.7328346">
<ele>989.02</ele>
<time>2015-04-27T13:00:57Z</time>
</trkpt>
<trkpt lat="35.0061585" lon="32.7328602">
<ele>990.56</ele>
<time>2015-04-27T13:01:00Z</time>
</trkpt>
<trkpt lat="35.0061104" lon="32.7328858">
<ele>990.38</ele>
<time>2015-04-27T13:01:03Z</time>
</trkpt>
<trkpt lat="35.0060563" lon="32.7328878">
<ele>989.98</ele>
<time>2015-04-27T13:01:06Z</time>
</trkpt>
<trkpt lat="35.0060084" lon="32.7328843">
<ele>989.94</ele>
<time>2015-04-27T13:01:08Z</time>
</trkpt>
<trkpt lat="35.0059485" lon="32.7328591">
<ele>991.05</ele>
<time>2015-04-27T13:01:11Z</time>
</trkpt>
<trkpt lat="35.0059059" lon="32.7328153">
<ele>991.87</ele>
<time>2015-04-27T13:01:15Z</time>
</trkpt>
<trkpt lat="35.0058649" lon="32.7327646">
<ele>991.42</ele>
<time>2015-04-27T13:01:19Z</time>
</trkpt>
<trkpt lat="35.0058237" lon="32.7327208">
<ele>991.39</ele>
<time>2015-04-27T13:01:23Z</time>
</trkpt>
<trkpt lat="35.0057937" lon="32.7326668">
<ele>991.89</ele>
<time>2015-04-27T13:01:27Z</time>
</trkpt>
<trkpt lat="35.0057648" lon="32.7326210">
<ele>993.61</ele>
<time>2015-04-27T13:01:31Z</time>
</trkpt>
<trkpt lat="35.0057295" lon="32.7325808">
<ele>994.16</ele>
<time>2015-04-27T13:01:35Z</time>
</trkpt>
<trkpt lat="35.0056938" lon="32.7325422">
<ele>996.13</ele>
<time>2015-04-27T13:01:39Z</time>
</trkpt>
<trkpt lat="35.0056575" lon="32.7325038">
<ele>997.38</ele>
<time>2015-04-27T13:01:43Z</time>
</trkpt>
<trkpt lat="35.0056168" lon="32.7324701">
<ele>998.77</ele>
<time>2015-04-27T13:01:47Z</time>
</trkpt>
<trkpt lat="35.0055858" lon="32.7324302">
<ele>999.42</ele>
<time>2015-04-27T13:01:51Z</time>
</trkpt>
<trkpt lat="35.0055403" lon="32.7323931">
<ele>1000.66</ele>
<time>2015-04-27T13:01:56Z</time>
</trkpt>
<trkpt lat="35.0055087" lon="32.7323510">
<ele>1000.91</ele>
<time>2015-04-27T13:02:00Z</time>
</trkpt>
<trkpt lat="35.0054665" lon="32.7323176">
<ele>1001.67</ele>
<time>2015-04-27T13:02:04Z</time>
</trkpt>
<trkpt lat="35.0054255" lon="32.7322824">
<ele>1001.91</ele>
<time>2015-04-27T13:02:08Z</time>
</trkpt>
<trkpt lat="35.0053860" lon="32.7322414">
<ele>1001.92</ele>
<time>2015-04-27T13:02:12Z</time>
</trkpt>
<trkpt lat="35.0053438" lon="32.7322035">
<ele>1002.42</ele>
<time>2015-04-27T13:02:16Z</time>
</trkpt>
<trkpt lat="35.0053082" lon="32.7321559">
<ele>1002.89</ele>
<time>2015-04-27T13:02:20Z</time>
</trkpt>
<trkpt lat="35.0052763" lon="32.7321080">
<ele>1004.17</ele>
<time>2015-04-27T13:02:24Z</time>
</trkpt>
<trkpt lat="35.0052300" lon="32.7321148">
<ele>998.30</ele>
<time>2015-04-27T13:14:38Z</time>
</trkpt>
<trkpt lat="35.0051770" lon="32.7321054">
<ele>998.92</ele>
<time>2015-04-27T13:14:44Z</time>
</trkpt>
<trkpt lat="35.0051310" lon="32.7321120">
<ele>999.99</ele>
<time>2015-04-27T13:14:48Z</time>
</trkpt>
<trkpt lat="35.0050850" lon="32.7321087">
<ele>1000.37</ele>
<time>2015-04-27T13:14:52Z</time>
</trkpt>
<trkpt lat="35.0050345" lon="32.7321278">
<ele>999.08</ele>
<time>2015-04-27T13:14:56Z</time>
</trkpt>
<trkpt lat="35.0049872" lon="32.7321493">
<ele>999.87</ele>
<time>2015-04-27T13:15:00Z</time>
</trkpt>
<trkpt lat="35.0049430" lon="32.7321667">
<ele>1000.86</ele>
<time>2015-04-27T13:15:04Z</time>
</trkpt>
<trkpt lat="35.0048968" lon="32.7321977">
<ele>1001.64</ele>
<time>2015-04-27T13:15:09Z</time>
</trkpt>
<trkpt lat="35.0048551" lon="32.7322237">
<ele>1000.59</ele>
<time>2015-04-27T13:15:13Z</time>
</trkpt>
<trkpt lat="35.0048080" lon="32.7322516">
<ele>999.65</ele>
<time>2015-04-27T13:15:17Z</time>
</trkpt>
<trkpt lat="35.0047573" lon="32.7322804">
<ele>1000.41</ele>
<time>2015-04-27T13:15:21Z</time>
</trkpt>
<trkpt lat="35.0047088" lon="32.7323191">
<ele>1000.96</ele>
<time>2015-04-27T13:15:25Z</time>
</trkpt>
<trkpt lat="35.0046649" lon="32.7323592">
<ele>1002.30</ele>
<time>2015-04-27T13:15:29Z</time>
</trkpt>
<trkpt lat="35.0046211" lon="32.7323995">
<ele>1003.32</ele>
<time>2015-04-27T13:15:33Z</time>
</trkpt>
<trkpt lat="35.0045792" lon="32.7324413">
<ele>1004.64</ele>
<time>2015-04-27T13:15:37Z</time>
</trkpt>
<trkpt lat="35.0045394" lon="32.7324848">
<ele>1002.75</ele>
<time>2015-04-27T13:15:43Z</time>
</trkpt>
<trkpt lat="35.0045039" lon="32.7325274">
<ele>1003.42</ele>
<time>2015-04-27T13:15:48Z</time>
</trkpt>
<trkpt lat="35.0044608" lon="32.7325697">
<ele>1002.97</ele>
<time>2015-04-27T13:15:53Z</time>
</trkpt>
<trkpt lat="35.0044249" lon="32.7326134">
<ele>1004.30</ele>
<time>2015-04-27T13:15:57Z</time>
</trkpt>
<trkpt lat="35.0043917" lon="32.7326537">
<ele>1004.89</ele>
<time>2015-04-27T13:16:01Z</time>
</trkpt>
<trkpt lat="35.0043578" lon="32.7326947">
<ele>1005.24</ele>
<time>2015-04-27T13:16:05Z</time>
</trkpt>
<trkpt lat="35.0043168" lon="32.7327335">
<ele>1004.82</ele>
<time>2015-04-27T13:16:09Z</time>
</trkpt>
<trkpt lat="35.0042794" lon="32.7327720">
<ele>1005.79</ele>
<time>2015-04-27T13:16:13Z</time>
</trkpt>
<trkpt lat="35.0042392" lon="32.7328087">
<ele>1006.79</ele>
<time>2015-04-27T13:16:17Z</time>
</trkpt>
<trkpt lat="35.0042040" lon="32.7328475">
<ele>1006.98</ele>
<time>2015-04-27T13:16:21Z</time>
</trkpt>
<trkpt lat="35.0041651" lon="32.7328834">
<ele>1005.37</ele>
<time>2015-04-27T13:16:25Z</time>
</trkpt>
<trkpt lat="35.0041260" lon="32.7329241">
<ele>1004.95</ele>
<time>2015-04-27T13:16:29Z</time>
</trkpt>
<trkpt lat="35.0040868" lon="32.7329679">
<ele>1005.61</ele>
<time>2015-04-27T13:16:33Z</time>
</trkpt>
<trkpt lat="35.0040449" lon="32.7330024">
<ele>1004.53</ele>
<time>2015-04-27T13:16:37Z</time>
</trkpt>
<trkpt lat="35.0040061" lon="32.7330362">
<ele>1005.40</ele>
<time>2015-04-27T13:16:41Z</time>
</trkpt>
<trkpt lat="35.0039587" lon="32.7330552">
<ele>1006.89</ele>
<time>2015-04-27T13:16:47Z</time>
</trkpt>
<trkpt lat="35.0039133" lon="32.7330509">
<ele>1007.52</ele>
<time>2015-04-27T13:16:53Z</time>
</trkpt>
<trkpt lat="35.0038670" lon="32.7330473">
<ele>1008.41</ele>
<time>2015-04-27T13:16:58Z</time>
</trkpt>
<trkpt lat="35.0038150" lon="32.7330472">
<ele>1010.35</ele>
<time>2015-04-27T13:17:03Z</time>
</trkpt>
<trkpt lat="35.0037632" lon="32.7330564">
<ele>1012.81</ele>
<time>2015-04-27T13:17:08Z</time>
</trkpt>
<trkpt lat="35.0037116" lon="32.7330751">
<ele>1013.20</ele>
<time>2015-04-27T13:17:13Z</time>
</trkpt>
<trkpt lat="35.0036678" lon="32.7330912">
<ele>1012.94</ele>
<time>2015-04-27T13:17:17Z</time>
</trkpt>
<trkpt lat="35.0036234" lon="32.7331043">
<ele>1013.43</ele>
<time>2015-04-27T13:17:21Z</time>
</trkpt>
<trkpt lat="35.0035689" lon="32.7331122">
<ele>1013.47</ele>
<time>2015-04-27T13:17:26Z</time>
</trkpt>
<trkpt lat="35.0035219" lon="32.7331261">
<ele>1013.15</ele>
<time>2015-04-27T13:17:30Z</time>
</trkpt>
<trkpt lat="35.0034736" lon="32.7331384">
<ele>1014.94</ele>
<time>2015-04-27T13:17:34Z</time>
</trkpt>
<trkpt lat="35.0034210" lon="32.7331442">
<ele>1016.74</ele>
<time>2015-04-27T13:17:38Z</time>
</trkpt>
<trkpt lat="35.0033756" lon="32.7331388">
<ele>1016.41</ele>
<time>2015-04-27T13:17:42Z</time>
</trkpt>
<trkpt lat="35.0033275" lon="32.7331181">
<ele>1016.46</ele>
<time>2015-04-27T13:17:46Z</time>
</trkpt>
<trkpt lat="35.0032811" lon="32.7330913">
<ele>1018.33</ele>
<time>2015-04-27T13:17:50Z</time>
</trkpt>
<trkpt lat="35.0032346" lon="32.7330627">
<ele>1017.76</ele>
<time>2015-04-27T13:17:54Z</time>
</trkpt>
<trkpt lat="35.0031884" lon="32.7330472">
<ele>1017.16</ele>
<time>2015-04-27T13:17:58Z</time>
</trkpt>
<trkpt lat="35.0031494" lon="32.7330187">
<ele>1015.82</ele>
<time>2015-04-27T13:18:02Z</time>
</trkpt>
<trkpt lat="35.0031016" lon="32.7329960">
<ele>1015.92</ele>
<time>2015-04-27T13:18:06Z</time>
</trkpt>
<trkpt lat="35.0030529" lon="32.7329753">
<ele>1016.61</ele>
<time>2015-04-27T13:18:11Z</time>
</trkpt>
<trkpt lat="35.0030083" lon="32.7329551">
<ele>1017.29</ele>
<time>2015-04-27T13:18:16Z</time>
</trkpt>
<trkpt lat="35.0029625" lon="32.7329292">
<ele>1017.12</ele>
<time>2015-04-27T13:18:21Z</time>
</trkpt>
<trkpt lat="35.0029096" lon="32.7329187">
<ele>1017.07</ele>
<time>2015-04-27T13:18:27Z</time>
</trkpt>
<trkpt lat="35.0028606" lon="32.7329029">
<ele>1017.12</ele>
<time>2015-04-27T13:18:32Z</time>
</trkpt>
<trkpt lat="35.0028116" lon="32.7328965">
<ele>1019.50</ele>
<time>2015-04-27T13:18:36Z</time>
</trkpt>
<trkpt lat="35.0027598" lon="32.7328870">
<ele>1018.19</ele>
<time>2015-04-27T13:18:41Z</time>
</trkpt>
<trkpt lat="35.0027111" lon="32.7328776">
<ele>1016.53</ele>
<time>2015-04-27T13:18:46Z</time>
</trkpt>
<trkpt lat="35.0026661" lon="32.7328778">
<ele>1015.94</ele>
<time>2015-04-27T13:18:51Z</time>
</trkpt>
<trkpt lat="35.0026211" lon="32.7328869">
<ele>1017.77</ele>
<time>2015-04-27T13:18:56Z</time>
</trkpt>
<trkpt lat="35.0025703" lon="32.7328936">
<ele>1017.48</ele>
<time>2015-04-27T13:19:01Z</time>
</trkpt>
<trkpt lat="35.0025235" lon="32.7329027">
<ele>1016.94</ele>
<time>2015-04-27T13:19:06Z</time>
</trkpt>
<trkpt lat="35.0024780" lon="32.7329228">
<ele>1015.55</ele>
<time>2015-04-27T13:19:11Z</time>
</trkpt>
<trkpt lat="35.0024339" lon="32.7329551">
<ele>1017.91</ele>
<time>2015-04-27T13:19:16Z</time>
</trkpt>
<trkpt lat="35.0023912" lon="32.7329878">
<ele>1018.67</ele>
<time>2015-04-27T13:19:21Z</time>
</trkpt>
<trkpt lat="35.0023531" lon="32.7330264">
<ele>1019.14</ele>
<time>2015-04-27T13:19:26Z</time>
</trkpt>
<trkpt lat="35.0023074" lon="32.7330472">
<ele>1019.34</ele>
<time>2015-04-27T13:19:31Z</time>
</trkpt>
<trkpt lat="35.0022641" lon="32.7330858">
<ele>1020.41</ele>
<time>2015-04-27T13:19:36Z</time>
</trkpt>
<trkpt lat="35.0022106" lon="32.7331277">
<ele>1022.58</ele>
<time>2015-04-27T13:19:40Z</time>
</trkpt>
<trkpt lat="35.0021693" lon="32.7331685">
<ele>1020.09</ele>
<time>2015-04-27T13:19:44Z</time>
</trkpt>
<trkpt lat="35.0021258" lon="32.7331995">
<ele>1021.59</ele>
<time>2015-04-27T13:19:49Z</time>
</trkpt>
<trkpt lat="35.0020882" lon="32.7332321">
<ele>1022.90</ele>
<time>2015-04-27T13:19:53Z</time>
</trkpt>
<trkpt lat="35.0020511" lon="32.7332682">
<ele>1022.99</ele>
<time>2015-04-27T13:19:57Z</time>
</trkpt>
<trkpt lat="35.0020102" lon="32.7333112">
<ele>1023.02</ele>
<time>2015-04-27T13:20:02Z</time>
</trkpt>
<trkpt lat="35.0019780" lon="32.7333502">
<ele>1023.43</ele>
<time>2015-04-27T13:20:06Z</time>
</trkpt>
<trkpt lat="35.0019368" lon="32.7333953">
<ele>1024.64</ele>
<time>2015-04-27T13:20:10Z</time>
</trkpt>
<trkpt lat="35.0019039" lon="32.7334337">
<ele>1025.76</ele>
<time>2015-04-27T13:20:13Z</time>
</trkpt>
<trkpt lat="35.0018652" lon="32.7334712">
<ele>1025.91</ele>
<time>2015-04-27T13:20:16Z</time>
</trkpt>
<trkpt lat="35.0018132" lon="32.7335030">
<ele>1025.92</ele>
<time>2015-04-27T13:20:20Z</time>
</trkpt>
<trkpt lat="35.0017632" lon="32.7335368">
<ele>1026.86</ele>
<time>2015-04-27T13:20:24Z</time>
</trkpt>
<trkpt lat="35.0017110" lon="32.7335648">
<ele>1027.86</ele>
<time>2015-04-27T13:20:28Z</time>
</trkpt>
<trkpt lat="35.0016634" lon="32.7335899">
<ele>1026.23</ele>
<time>2015-04-27T13:20:32Z</time>
</trkpt>
<trkpt lat="35.0016103" lon="32.7335985">
<ele>1027.38</ele>
<time>2015-04-27T13:20:36Z</time>
</trkpt>
<trkpt lat="35.0015545" lon="32.7336114">
<ele>1027.89</ele>
<time>2015-04-27T13:20:40Z</time>
</trkpt>
<trkpt lat="35.0015030" lon="32.7336319">
<ele>1028.05</ele>
<time>2015-04-27T13:20:44Z</time>
</trkpt>
<trkpt lat="35.0014481" lon="32.7336253">
<ele>1027.18</ele>
<time>2015-04-27T13:20:48Z</time>
</trkpt>
<trkpt lat="35.0013944" lon="32.7336188">
<ele>1027.88</ele>
<time>2015-04-27T13:20:52Z</time>
</trkpt>
<trkpt lat="35.0013399" lon="32.7336159">
<ele>1028.67</ele>
<time>2015-04-27T13:20:56Z</time>
</trkpt>
<trkpt lat="35.0012810" lon="32.7336153">
<ele>1029.41</ele>
<time>2015-04-27T13:21:00Z</time>
</trkpt>
<trkpt lat="35.0012344" lon="32.7336129">
<ele>1029.86</ele>
<time>2015-04-27T13:21:03Z</time>
</trkpt>
<trkpt lat="35.0011869" lon="32.7336183">
<ele>1029.92</ele>
<time>2015-04-27T13:21:06Z</time>
</trkpt>
<trkpt lat="35.0011410" lon="32.7336230">
<ele>1029.92</ele>
<time>2015-04-27T13:21:09Z</time>
</trkpt>
<trkpt lat="35.0010956" lon="32.7336255">
<ele>1029.92</ele>
<time>2015-04-27T13:21:12Z</time>
</trkpt>
<trkpt lat="35.0010380" lon="32.7336417">
<ele>1029.93</ele>
<time>2015-04-27T13:21:16Z</time>
</trkpt>
<trkpt lat="35.0009824" lon="32.7336600">
<ele>1029.93</ele>
<time>2015-04-27T13:21:20Z</time>
</trkpt>
<trkpt lat="35.0009279" lon="32.7336705">
<ele>1028.36</ele>
<time>2015-04-27T13:21:24Z</time>
</trkpt>
<trkpt lat="35.0008761" lon="32.7336962">
<ele>1027.76</ele>
<time>2015-04-27T13:21:28Z</time>
</trkpt>
<trkpt lat="35.0008370" lon="32.7337303">
<ele>1030.03</ele>
<time>2015-04-27T13:21:31Z</time>
</trkpt>
<trkpt lat="35.0007987" lon="32.7337689">
<ele>1030.81</ele>
<time>2015-04-27T13:21:34Z</time>
</trkpt>
<trkpt lat="35.0007646" lon="32.7338061">
<ele>1030.54</ele>
<time>2015-04-27T13:21:37Z</time>
</trkpt>
<trkpt lat="35.0007313" lon="32.7338628">
<ele>1030.34</ele>
<time>2015-04-27T13:21:41Z</time>
</trkpt>
<trkpt lat="35.0007109" lon="32.7339271">
<ele>1029.20</ele>
<time>2015-04-27T13:21:45Z</time>
</trkpt>
<trkpt lat="35.0007010" lon="32.7339979">
<ele>1030.07</ele>
<time>2015-04-27T13:21:49Z</time>
</trkpt>
<trkpt lat="35.0006862" lon="32.7340635">
<ele>1033.00</ele>
<time>2015-04-27T13:21:53Z</time>
</trkpt>
<trkpt lat="35.0006944" lon="32.7341282">
<ele>1034.37</ele>
<time>2015-04-27T13:21:57Z</time>
</trkpt>
<trkpt lat="35.0007120" lon="32.7341871">
<ele>1034.77</ele>
<time>2015-04-27T13:22:01Z</time>
</trkpt>
<trkpt lat="35.0007299" lon="32.7342413">
<ele>1034.92</ele>
<time>2015-04-27T13:22:05Z</time>
</trkpt>
<trkpt lat="35.0007558" lon="32.7342971">
<ele>1034.92</ele>
<time>2015-04-27T13:22:10Z</time>
</trkpt>
<trkpt lat="35.0007672" lon="32.7343588">
<ele>1034.68</ele>
<time>2015-04-27T13:22:15Z</time>
</trkpt>
<trkpt lat="35.0007829" lon="32.7344180">
<ele>1035.42</ele>
<time>2015-04-27T13:22:20Z</time>
</trkpt>
<trkpt lat="35.0007884" lon="32.7344734">
<ele>1035.91</ele>
<time>2015-04-27T13:22:25Z</time>
</trkpt>
<trkpt lat="35.0007867" lon="32.7345404">
<ele>1036.89</ele>
<time>2015-04-27T13:22:30Z</time>
</trkpt>
<trkpt lat="35.0007967" lon="32.7346007">
<ele>1036.67</ele>
<time>2015-04-27T13:22:34Z</time>
</trkpt>
<trkpt lat="35.0007580" lon="32.7346295">
<ele>1035.94</ele>
<time>2015-04-27T13:22:40Z</time>
</trkpt>
<trkpt lat="35.0007526" lon="32.7346849">
<ele>1036.68</ele>
<time>2015-04-27T13:22:44Z</time>
</trkpt>
<trkpt lat="35.0007276" lon="32.7347468">
<ele>1037.79</ele>
<time>2015-04-27T13:22:49Z</time>
</trkpt>
<trkpt lat="35.0006919" lon="32.7347956">
<ele>1039.29</ele>
<time>2015-04-27T13:22:53Z</time>
</trkpt>
<trkpt lat="35.0006681" lon="32.7348517">
<ele>1039.89</ele>
<time>2015-04-27T13:22:57Z</time>
</trkpt>
<trkpt lat="35.0006347" lon="32.7348992">
<ele>1040.86</ele>
<time>2015-04-27T13:23:01Z</time>
</trkpt>
<trkpt lat="35.0005865" lon="32.7349310">
<ele>1040.92</ele>
<time>2015-04-27T13:23:06Z</time>
</trkpt>
<trkpt lat="35.0005354" lon="32.7349552">
<ele>1042.30</ele>
<time>2015-04-27T13:23:11Z</time>
</trkpt>
<trkpt lat="35.0004921" lon="32.7349912">
<ele>1043.03</ele>
<time>2015-04-27T13:23:16Z</time>
</trkpt>
<trkpt lat="35.0004512" lon="32.7350263">
<ele>1041.99</ele>
<time>2015-04-27T13:23:21Z</time>
</trkpt>
<trkpt lat="35.0004095" lon="32.7350700">
<ele>1041.93</ele>
<time>2015-04-27T13:23:26Z</time>
</trkpt>
<trkpt lat="35.0003707" lon="32.7351012">
<ele>1042.80</ele>
<time>2015-04-27T13:23:30Z</time>
</trkpt>
<trkpt lat="35.0003361" lon="32.7351423">
<ele>1044.29</ele>
<time>2015-04-27T13:23:34Z</time>
</trkpt>
<trkpt lat="35.0003022" lon="32.7351922">
<ele>1045.78</ele>
<time>2015-04-27T13:23:39Z</time>
</trkpt>
<trkpt lat="35.0002714" lon="32.7352432">
<ele>1045.51</ele>
<time>2015-04-27T13:23:44Z</time>
</trkpt>
<trkpt lat="35.0002567" lon="32.7353053">
<ele>1046.19</ele>
<time>2015-04-27T13:23:49Z</time>
</trkpt>
<trkpt lat="35.0002477" lon="32.7353761">
<ele>1045.96</ele>
<time>2015-04-27T13:23:54Z</time>
</trkpt>
<trkpt lat="35.0002363" lon="32.7354462">
<ele>1045.93</ele>
<time>2015-04-27T13:23:58Z</time>
</trkpt>
<trkpt lat="35.0002303" lon="32.7355061">
<ele>1046.80</ele>
<time>2015-04-27T13:24:02Z</time>
</trkpt>
<trkpt lat="35.0002252" lon="32.7355616">
<ele>1046.92</ele>
<time>2015-04-27T13:24:06Z</time>
</trkpt>
<trkpt lat="35.0002066" lon="32.7356211">
<ele>1047.71</ele>
<time>2015-04-27T13:24:11Z</time>
</trkpt>
<trkpt lat="35.0001936" lon="32.7356835">
<ele>1049.64</ele>
<time>2015-04-27T13:24:16Z</time>
</trkpt>
<trkpt lat="35.0001711" lon="32.7357420">
<ele>1049.35</ele>
<time>2015-04-27T13:24:21Z</time>
</trkpt>
<trkpt lat="35.0001329" lon="32.7357810">
<ele>1049.76</ele>
<time>2015-04-27T13:24:25Z</time>
</trkpt>
<trkpt lat="35.0000989" lon="32.7358249">
<ele>1049.04</ele>
<time>2015-04-27T13:24:29Z</time>
</trkpt>
<trkpt lat="35.0000680" lon="32.7358702">
<ele>1049.18</ele>
<time>2015-04-27T13:24:33Z</time>
</trkpt>
<trkpt lat="35.0000232" lon="32.7359059">
<ele>1050.28</ele>
<time>2015-04-27T13:24:38Z</time>
</trkpt>
<trkpt lat="34.9999769" lon="32.7359259">
<ele>1052.28</ele>
<time>2015-04-27T13:24:43Z</time>
</trkpt>
<trkpt lat="34.9999346" lon="32.7359564">
<ele>1051.95</ele>
<time>2015-04-27T13:24:47Z</time>
</trkpt>
<trkpt lat="34.9998876" lon="32.7359615">
<ele>1051.93</ele>
<time>2015-04-27T13:24:51Z</time>
</trkpt>
<trkpt lat="34.9998404" lon="32.7359545">
<ele>1052.86</ele>
<time>2015-04-27T13:24:55Z</time>
</trkpt>
<trkpt lat="34.9997839" lon="32.7359489">
<ele>1054.17</ele>
<time>2015-04-27T13:24:59Z</time>
</trkpt>
<trkpt lat="34.9997316" lon="32.7359372">
<ele>1053.96</ele>
<time>2015-04-27T13:25:02Z</time>
</trkpt>
<trkpt lat="34.9996842" lon="32.7359154">
<ele>1054.80</ele>
<time>2015-04-27T13:25:05Z</time>
</trkpt>
<trkpt lat="34.9996440" lon="32.7358892">
<ele>1055.17</ele>
<time>2015-04-27T13:25:09Z</time>
</trkpt>
<trkpt lat="34.9996005" lon="32.7358452">
<ele>1055.88</ele>
<time>2015-04-27T13:25:13Z</time>
</trkpt>
<trkpt lat="34.9995648" lon="32.7357923">
<ele>1055.48</ele>
<time>2015-04-27T13:25:17Z</time>
</trkpt>
<trkpt lat="34.9995342" lon="32.7357373">
<ele>1057.15</ele>
<time>2015-04-27T13:25:21Z</time>
</trkpt>
<trkpt lat="34.9995067" lon="32.7356936">
<ele>1058.70</ele>
<time>2015-04-27T13:25:24Z</time>
</trkpt>
<trkpt lat="34.9994798" lon="32.7356429">
<ele>1059.02</ele>
<time>2015-04-27T13:25:27Z</time>
</trkpt>
<trkpt lat="34.9994500" lon="32.7355950">
<ele>1059.56</ele>
<time>2015-04-27T13:25:30Z</time>
</trkpt>
<trkpt lat="34.9994051" lon="32.7355604">
<ele>1059.34</ele>
<time>2015-04-27T13:25:34Z</time>
</trkpt>
<trkpt lat="34.9993609" lon="32.7355238">
<ele>1060.58</ele>
<time>2015-04-27T13:25:38Z</time>
</trkpt>
<trkpt lat="34.9993078" lon="32.7354951">
<ele>1060.40</ele>
<time>2015-04-27T13:25:42Z</time>
</trkpt>
<trkpt lat="34.9992625" lon="32.7354673">
<ele>1060.39</ele>
<time>2015-04-27T13:25:46Z</time>
</trkpt>
<trkpt lat="34.9992147" lon="32.7354427">
<ele>1063.08</ele>
<time>2015-04-27T13:25:50Z</time>
</trkpt>
<trkpt lat="34.9991737" lon="32.7354108">
<ele>1063.87</ele>
<time>2015-04-27T13:25:54Z</time>
</trkpt>
<trkpt lat="34.9991301" lon="32.7353778">
<ele>1063.05</ele>
<time>2015-04-27T13:25:58Z</time>
</trkpt>
<trkpt lat="34.9990873" lon="32.7353436">
<ele>1063.68</ele>
<time>2015-04-27T13:26:02Z</time>
</trkpt>
<trkpt lat="34.9990546" lon="32.7352914">
<ele>1064.66</ele>
<time>2015-04-27T13:26:06Z</time>
</trkpt>
<trkpt lat="34.9990165" lon="32.7352460">
<ele>1065.85</ele>
<time>2015-04-27T13:26:10Z</time>
</trkpt>
<trkpt lat="34.9989834" lon="32.7351983">
<ele>1065.17</ele>
<time>2015-04-27T13:26:14Z</time>
</trkpt>
<trkpt lat="34.9989429" lon="32.7351543">
<ele>1064.50</ele>
<time>2015-04-27T13:26:18Z</time>
</trkpt>
<trkpt lat="34.9989200" lon="32.7351042">
<ele>1064.65</ele>
<time>2015-04-27T13:26:22Z</time>
</trkpt>
<trkpt lat="34.9988854" lon="32.7350559">
<ele>1064.91</ele>
<time>2015-04-27T13:26:26Z</time>
</trkpt>
<trkpt lat="34.9988647" lon="32.7349983">
<ele>1063.30</ele>
<time>2015-04-27T13:26:30Z</time>
</trkpt>
<trkpt lat="34.9988398" lon="32.7349411">
<ele>1062.14</ele>
<time>2015-04-27T13:26:34Z</time>
</trkpt>
<trkpt lat="34.9988037" lon="32.7348837">
<ele>1063.13</ele>
<time>2015-04-27T13:26:38Z</time>
</trkpt>
<trkpt lat="34.9987752" lon="32.7348379">
<ele>1062.70</ele>
<time>2015-04-27T13:26:41Z</time>
</trkpt>
<trkpt lat="34.9987464" lon="32.7347901">
<ele>1062.65</ele>
<time>2015-04-27T13:26:44Z</time>
</trkpt>
<trkpt lat="34.9987092" lon="32.7347470">
<ele>1062.14</ele>
<time>2015-04-27T13:26:47Z</time>
</trkpt>
<trkpt lat="34.9986754" lon="32.7347065">
<ele>1062.08</ele>
<time>2015-04-27T13:26:50Z</time>
</trkpt>
<trkpt lat="34.9986318" lon="32.7346626">
<ele>1062.00</ele>
<time>2015-04-27T13:26:54Z</time>
</trkpt>
<trkpt lat="34.9985866" lon="32.7346396">
<ele>1063.05</ele>
<time>2015-04-27T13:26:58Z</time>
</trkpt>
<trkpt lat="34.9985396" lon="32.7346185">
<ele>1063.62</ele>
<time>2015-04-27T13:27:02Z</time>
</trkpt>
<trkpt lat="34.9984987" lon="32.7345942">
<ele>1063.66</ele>
<time>2015-04-27T13:27:06Z</time>
</trkpt>
<trkpt lat="34.9984519" lon="32.7345862">
<ele>1063.66</ele>
<time>2015-04-27T13:27:10Z</time>
</trkpt>
<trkpt lat="34.9984024" lon="32.7345866">
<ele>1066.16</ele>
<time>2015-04-27T13:27:14Z</time>
</trkpt>
<trkpt lat="34.9983537" lon="32.7345825">
<ele>1065.98</ele>
<time>2015-04-27T13:27:16Z</time>
</trkpt>
<trkpt lat="34.9983032" lon="32.7345776">
<ele>1065.94</ele>
<time>2015-04-27T13:27:18Z</time>
</trkpt>
<trkpt lat="34.9982470" lon="32.7345826">
<ele>1066.68</ele>
<time>2015-04-27T13:27:20Z</time>
</trkpt>
<trkpt lat="34.9981899" lon="32.7345891">
<ele>1065.61</ele>
<time>2015-04-27T13:27:22Z</time>
</trkpt>
<trkpt lat="34.9981336" lon="32.7346044">
<ele>1064.35</ele>
<time>2015-04-27T13:27:24Z</time>
</trkpt>
<trkpt lat="34.9980687" lon="32.7346320">
<ele>1065.53</ele>
<time>2015-04-27T13:27:26Z</time>
</trkpt>
<trkpt lat="34.9980038" lon="32.7346584">
<ele>1066.33</ele>
<time>2015-04-27T13:27:28Z</time>
</trkpt>
<trkpt lat="34.9979426" lon="32.7346837">
<ele>1065.53</ele>
<time>2015-04-27T13:27:30Z</time>
</trkpt>
<trkpt lat="34.9978788" lon="32.7347114">
<ele>1065.83</ele>
<time>2015-04-27T13:27:32Z</time>
</trkpt>
<trkpt lat="34.9978196" lon="32.7347394">
<ele>1065.65</ele>
<time>2015-04-27T13:27:34Z</time>
</trkpt>
<trkpt lat="34.9977658" lon="32.7347690">
<ele>1065.11</ele>
<time>2015-04-27T13:27:36Z</time>
</trkpt>
<trkpt lat="34.9977116" lon="32.7347986">
<ele>1065.97</ele>
<time>2015-04-27T13:27:38Z</time>
</trkpt>
<trkpt lat="34.9976627" lon="32.7348305">
<ele>1066.69</ele>
<time>2015-04-27T13:27:40Z</time>
</trkpt>
<trkpt lat="34.9976136" lon="32.7348684">
<ele>1068.54</ele>
<time>2015-04-27T13:27:44Z</time>
</trkpt>
<trkpt lat="34.9975717" lon="32.7348942">
<ele>1068.83</ele>
<time>2015-04-27T13:27:46Z</time>
</trkpt>
<trkpt lat="34.9975288" lon="32.7349257">
<ele>1069.40</ele>
<time>2015-04-27T13:27:48Z</time>
</trkpt>
<trkpt lat="34.9974890" lon="32.7349596">
<ele>1070.23</ele>
<time>2015-04-27T13:27:51Z</time>
</trkpt>
<trkpt lat="34.9974511" lon="32.7349945">
<ele>1070.34</ele>
<time>2015-04-27T13:27:54Z</time>
</trkpt>
<trkpt lat="34.9974074" lon="32.7350426">
<ele>1071.23</ele>
<time>2015-04-27T13:27:57Z</time>
</trkpt>
<trkpt lat="34.9973664" lon="32.7350915">
<ele>1071.75</ele>
<time>2015-04-27T13:27:59Z</time>
</trkpt>
<trkpt lat="34.9973320" lon="32.7351356">
<ele>1071.38</ele>
<time>2015-04-27T13:28:01Z</time>
</trkpt>
<trkpt lat="34.9972988" lon="32.7351905">
<ele>1070.20</ele>
<time>2015-04-27T13:28:05Z</time>
</trkpt>
<trkpt lat="34.9972706" lon="32.7352385">
<ele>1069.21</ele>
<time>2015-04-27T13:28:08Z</time>
</trkpt>
<trkpt lat="34.9972347" lon="32.7352891">
<ele>1068.09</ele>
<time>2015-04-27T13:28:11Z</time>
</trkpt>
<trkpt lat="34.9972078" lon="32.7353361">
<ele>1069.70</ele>
<time>2015-04-27T13:28:14Z</time>
</trkpt>
<trkpt lat="34.9971764" lon="32.7353960">
<ele>1071.47</ele>
<time>2015-04-27T13:28:18Z</time>
</trkpt>
<trkpt lat="34.9971540" lon="32.7354645">
<ele>1072.74</ele>
<time>2015-04-27T13:28:21Z</time>
</trkpt>
<trkpt lat="34.9971310" lon="32.7355298">
<ele>1073.79</ele>
<time>2015-04-27T13:28:25Z</time>
</trkpt>
<trkpt lat="34.9971119" lon="32.7355966">
<ele>1074.79</ele>
<time>2015-04-27T13:28:29Z</time>
</trkpt>
<trkpt lat="34.9970928" lon="32.7356534">
<ele>1075.66</ele>
<time>2015-04-27T13:28:32Z</time>
</trkpt>
<trkpt lat="34.9970673" lon="32.7357122">
<ele>1077.64</ele>
<time>2015-04-27T13:28:35Z</time>
</trkpt>
<trkpt lat="34.9970255" lon="32.7357694">
<ele>1078.64</ele>
<time>2015-04-27T13:28:38Z</time>
</trkpt>
<trkpt lat="34.9969779" lon="32.7358096">
<ele>1079.39</ele>
<time>2015-04-27T13:28:41Z</time>
</trkpt>
<trkpt lat="34.9969274" lon="32.7358424">
<ele>1079.73</ele>
<time>2015-04-27T13:28:44Z</time>
</trkpt>
<trkpt lat="34.9968674" lon="32.7358584">
<ele>1081.28</ele>
<time>2015-04-27T13:28:47Z</time>
</trkpt>
<trkpt lat="34.9968178" lon="32.7358469">
<ele>1082.34</ele>
<time>2015-04-27T13:28:50Z</time>
</trkpt>
<trkpt lat="34.9967721" lon="32.7358216">
<ele>1082.85</ele>
<time>2015-04-27T13:28:53Z</time>
</trkpt>
<trkpt lat="34.9967238" lon="32.7357849">
<ele>1083.04</ele>
<time>2015-04-27T13:28:56Z</time>
</trkpt>
<trkpt lat="34.9966812" lon="32.7357376">
<ele>1082.93</ele>
<time>2015-04-27T13:29:00Z</time>
</trkpt>
<trkpt lat="34.9966507" lon="32.7356918">
<ele>1081.30</ele>
<time>2015-04-27T13:29:03Z</time>
</trkpt>
<trkpt lat="34.9966170" lon="32.7356432">
<ele>1080.47</ele>
<time>2015-04-27T13:29:06Z</time>
</trkpt>
<trkpt lat="34.9965756" lon="32.7355987">
<ele>1080.12</ele>
<time>2015-04-27T13:29:09Z</time>
</trkpt>
<trkpt lat="34.9965403" lon="32.7355610">
<ele>1080.70</ele>
<time>2015-04-27T13:29:12Z</time>
</trkpt>
<trkpt lat="34.9965002" lon="32.7355124">
<ele>1078.57</ele>
<time>2015-04-27T13:29:17Z</time>
</trkpt>
<trkpt lat="34.9964646" lon="32.7354742">
<ele>1080.13</ele>
<time>2015-04-27T13:29:20Z</time>
</trkpt>
<trkpt lat="34.9964238" lon="32.7354340">
<ele>1082.50</ele>
<time>2015-04-27T13:29:24Z</time>
</trkpt>
<trkpt lat="34.9963851" lon="32.7353971">
<ele>1083.40</ele>
<time>2015-04-27T13:29:28Z</time>
</trkpt>
<trkpt lat="34.9963363" lon="32.7353575">
<ele>1083.70</ele>
<time>2015-04-27T13:29:32Z</time>
</trkpt>
<trkpt lat="34.9962924" lon="32.7353314">
<ele>1084.66</ele>
<time>2015-04-27T13:29:36Z</time>
</trkpt>
<trkpt lat="34.9962503" lon="32.7352988">
<ele>1086.72</ele>
<time>2015-04-27T13:29:40Z</time>
</trkpt>
<trkpt lat="34.9962046" lon="32.7352589">
<ele>1086.16</ele>
<time>2015-04-27T13:29:44Z</time>
</trkpt>
<trkpt lat="34.9961597" lon="32.7352272">
<ele>1086.45</ele>
<time>2015-04-27T13:29:47Z</time>
</trkpt>
<trkpt lat="34.9961158" lon="32.7351840">
<ele>1087.62</ele>
<time>2015-04-27T13:29:50Z</time>
</trkpt>
<trkpt lat="34.9960716" lon="32.7351456">
<ele>1087.51</ele>
<time>2015-04-27T13:29:53Z</time>
</trkpt>
<trkpt lat="34.9960256" lon="32.7351127">
<ele>1084.77</ele>
<time>2015-04-27T13:29:57Z</time>
</trkpt>
<trkpt lat="34.9959716" lon="32.7350753">
<ele>1083.48</ele>
<time>2015-04-27T13:30:01Z</time>
</trkpt>
<trkpt lat="34.9959196" lon="32.7350604">
<ele>1083.87</ele>
<time>2015-04-27T13:30:04Z</time>
</trkpt>
<trkpt lat="34.9958687" lon="32.7350516">
<ele>1085.29</ele>
<time>2015-04-27T13:30:07Z</time>
</trkpt>
<trkpt lat="34.9958197" lon="32.7350454">
<ele>1087.72</ele>
<time>2015-04-27T13:30:10Z</time>
</trkpt>
<trkpt lat="34.9957717" lon="32.7350616">
<ele>1090.29</ele>
<time>2015-04-27T13:30:14Z</time>
</trkpt>
<trkpt lat="34.9957168" lon="32.7350786">
<ele>1093.47</ele>
<time>2015-04-27T13:30:17Z</time>
</trkpt>
<trkpt lat="34.9956598" lon="32.7351024">
<ele>1094.62</ele>
<time>2015-04-27T13:30:20Z</time>
</trkpt>
<trkpt lat="34.9956130" lon="32.7351316">
<ele>1094.39</ele>
<time>2015-04-27T13:30:23Z</time>
</trkpt>
<trkpt lat="34.9955746" lon="32.7351716">
<ele>1094.48</ele>
<time>2015-04-27T13:30:26Z</time>
</trkpt>
<trkpt lat="34.9955333" lon="32.7352131">
<ele>1094.37</ele>
<time>2015-04-27T13:30:29Z</time>
</trkpt>
<trkpt lat="34.9954943" lon="32.7352499">
<ele>1095.11</ele>
<time>2015-04-27T13:30:32Z</time>
</trkpt>
<trkpt lat="34.9954545" lon="32.7352846">
<ele>1094.57</ele>
<time>2015-04-27T13:30:35Z</time>
</trkpt>
<trkpt lat="34.9954176" lon="32.7353268">
<ele>1095.26</ele>
<time>2015-04-27T13:30:38Z</time>
</trkpt>
<trkpt lat="34.9953804" lon="32.7353666">
<ele>1096.22</ele>
<time>2015-04-27T13:30:41Z</time>
</trkpt>
<trkpt lat="34.9953415" lon="32.7354092">
<ele>1098.09</ele>
<time>2015-04-27T13:30:44Z</time>
</trkpt>
<trkpt lat="34.9953009" lon="32.7354526">
<ele>1099.32</ele>
<time>2015-04-27T13:30:47Z</time>
</trkpt>
<trkpt lat="34.9952623" lon="32.7354962">
<ele>1099.85</ele>
<time>2015-04-27T13:30:50Z</time>
</trkpt>
<trkpt lat="34.9952256" lon="32.7355424">
<ele>1100.42</ele>
<time>2015-04-27T13:30:53Z</time>
</trkpt>
<trkpt lat="34.9951882" lon="32.7355872">
<ele>1100.11</ele>
<time>2015-04-27T13:30:56Z</time>
</trkpt>
<trkpt lat="34.9951451" lon="32.7356240">
<ele>1101.20</ele>
<time>2015-04-27T13:30:59Z</time>
</trkpt>
<trkpt lat="34.9951056" lon="32.7356636">
<ele>1101.71</ele>
<time>2015-04-27T13:31:02Z</time>
</trkpt>
<trkpt lat="34.9950720" lon="32.7357053">
<ele>1102.40</ele>
<time>2015-04-27T13:31:05Z</time>
</trkpt>
<trkpt lat="34.9950426" lon="32.7357493">
<ele>1102.73</ele>
<time>2015-04-27T13:31:08Z</time>
</trkpt>
<trkpt lat="34.9950033" lon="32.7358037">
<ele>1104.60</ele>
<time>2015-04-27T13:31:12Z</time>
</trkpt>
<trkpt lat="34.9949610" lon="32.7358532">
<ele>1105.34</ele>
<time>2015-04-27T13:31:16Z</time>
</trkpt>
<trkpt lat="34.9949203" lon="32.7358908">
<ele>1104.95</ele>
<time>2015-04-27T13:31:20Z</time>
</trkpt>
<trkpt lat="34.9948817" lon="32.7359302">
<ele>1104.93</ele>
<time>2015-04-27T13:31:24Z</time>
</trkpt>
<trkpt lat="34.9948477" lon="32.7359796">
<ele>1104.05</ele>
<time>2015-04-27T13:31:28Z</time>
</trkpt>
<trkpt lat="34.9948030" lon="32.7360154">
<ele>1103.93</ele>
<time>2015-04-27T13:31:32Z</time>
</trkpt>
<trkpt lat="34.9947506" lon="32.7360486">
<ele>1102.99</ele>
<time>2015-04-27T13:31:36Z</time>
</trkpt>
<trkpt lat="34.9946966" lon="32.7360784">
<ele>1100.49</ele>
<time>2015-04-27T13:31:40Z</time>
</trkpt>
<trkpt lat="34.9946515" lon="32.7360961">
<ele>1098.22</ele>
<time>2015-04-27T13:31:45Z</time>
</trkpt>
<trkpt lat="34.9945983" lon="32.7360910">
<ele>1100.24</ele>
<time>2015-04-27T13:31:51Z</time>
</trkpt>
<trkpt lat="34.9945468" lon="32.7360819">
<ele>1098.81</ele>
<time>2015-04-27T13:31:56Z</time>
</trkpt>
<trkpt lat="34.9945016" lon="32.7360827">
<ele>1100.29</ele>
<time>2015-04-27T13:32:00Z</time>
</trkpt>
<trkpt lat="34.9944470" lon="32.7360749">
<ele>1101.39</ele>
<time>2015-04-27T13:32:04Z</time>
</trkpt>
<trkpt lat="34.9943949" lon="32.7360638">
<ele>1101.73</ele>
<time>2015-04-27T13:32:07Z</time>
</trkpt>
<trkpt lat="34.9943358" lon="32.7360516">
<ele>1100.73</ele>
<time>2015-04-27T13:32:11Z</time>
</trkpt>
<trkpt lat="34.9942757" lon="32.7360494">
<ele>1101.40</ele>
<time>2015-04-27T13:32:14Z</time>
</trkpt>
<trkpt lat="34.9942201" lon="32.7360497">
<ele>1101.61</ele>
<time>2015-04-27T13:32:17Z</time>
</trkpt>
<trkpt lat="34.9941651" lon="32.7360573">
<ele>1103.14</ele>
<time>2015-04-27T13:32:20Z</time>
</trkpt>
<trkpt lat="34.9941084" lon="32.7360682">
<ele>1102.45</ele>
<time>2015-04-27T13:32:23Z</time>
</trkpt>
<trkpt lat="34.9940554" lon="32.7360869">
<ele>1102.06</ele>
<time>2015-04-27T13:32:25Z</time>
</trkpt>
<trkpt lat="34.9940043" lon="32.7361093">
<ele>1102.71</ele>
<time>2015-04-27T13:32:27Z</time>
</trkpt>
<trkpt lat="34.9939498" lon="32.7361403">
<ele>1102.87</ele>
<time>2015-04-27T13:32:29Z</time>
</trkpt>
<trkpt lat="34.9939000" lon="32.7361783">
<ele>1103.16</ele>
<time>2015-04-27T13:32:31Z</time>
</trkpt>
<trkpt lat="34.9938552" lon="32.7362152">
<ele>1102.58</ele>
<time>2015-04-27T13:32:34Z</time>
</trkpt>
<trkpt lat="34.9938017" lon="32.7362713">
<ele>1102.76</ele>
<time>2015-04-27T13:32:37Z</time>
</trkpt>
<trkpt lat="34.9937645" lon="32.7363194">
<ele>1102.88</ele>
<time>2015-04-27T13:32:39Z</time>
</trkpt>
<trkpt lat="34.9937319" lon="32.7363681">
<ele>1102.91</ele>
<time>2015-04-27T13:32:41Z</time>
</trkpt>
<trkpt lat="34.9937009" lon="32.7364265">
<ele>1102.92</ele>
<time>2015-04-27T13:32:43Z</time>
</trkpt>
<trkpt lat="34.9936708" lon="32.7364847">
<ele>1103.42</ele>
<time>2015-04-27T13:32:45Z</time>
</trkpt>
<trkpt lat="34.9936386" lon="32.7365375">
<ele>1106.30</ele>
<time>2015-04-27T13:32:47Z</time>
</trkpt>
<trkpt lat="34.9936087" lon="32.7365933">
<ele>1107.27</ele>
<time>2015-04-27T13:32:49Z</time>
</trkpt>
<trkpt lat="34.9935777" lon="32.7366443">
<ele>1108.51</ele>
<time>2015-04-27T13:32:51Z</time>
</trkpt>
<trkpt lat="34.9935489" lon="32.7366967">
<ele>1107.65</ele>
<time>2015-04-27T13:32:55Z</time>
</trkpt>
<trkpt lat="34.9935118" lon="32.7367723">
<ele>1109.91</ele>
<time>2015-04-27T13:32:59Z</time>
</trkpt>
<trkpt lat="34.9934794" lon="32.7368326">
<ele>1109.92</ele>
<time>2015-04-27T13:33:01Z</time>
</trkpt>
<trkpt lat="34.9934604" lon="32.7368929">
<ele>1109.92</ele>
<time>2015-04-27T13:33:03Z</time>
</trkpt>
<trkpt lat="34.9934500" lon="32.7369575">
<ele>1108.67</ele>
<time>2015-04-27T13:33:06Z</time>
</trkpt>
<trkpt lat="34.9934323" lon="32.7370190">
<ele>1108.22</ele>
<time>2015-04-27T13:33:10Z</time>
</trkpt>
<trkpt lat="34.9934119" lon="32.7370790">
<ele>1107.96</ele>
<time>2015-04-27T13:33:13Z</time>
</trkpt>
<trkpt lat="34.9933916" lon="32.7371457">
<ele>1107.43</ele>
<time>2015-04-27T13:33:15Z</time>
</trkpt>
<trkpt lat="34.9933720" lon="32.7372066">
<ele>1106.55</ele>
<time>2015-04-27T13:33:17Z</time>
</trkpt>
<trkpt lat="34.9933561" lon="32.7372816">
<ele>1106.50</ele>
<time>2015-04-27T13:33:20Z</time>
</trkpt>
<trkpt lat="34.9933349" lon="32.7373455">
<ele>1106.87</ele>
<time>2015-04-27T13:33:23Z</time>
</trkpt>
<trkpt lat="34.9933081" lon="32.7374124">
<ele>1107.79</ele>
<time>2015-04-27T13:33:26Z</time>
</trkpt>
<trkpt lat="34.9932774" lon="32.7374802">
<ele>1107.91</ele>
<time>2015-04-27T13:33:29Z</time>
</trkpt>
<trkpt lat="34.9932586" lon="32.7375309">
<ele>1107.92</ele>
<time>2015-04-27T13:33:31Z</time>
</trkpt>
<trkpt lat="34.9932442" lon="32.7375829">
<ele>1108.67</ele>
<time>2015-04-27T13:33:33Z</time>
</trkpt>
<trkpt lat="34.9932083" lon="32.7376461">
<ele>1109.77</ele>
<time>2015-04-27T13:33:36Z</time>
</trkpt>
<trkpt lat="34.9931752" lon="32.7376916">
<ele>1109.39</ele>
<time>2015-04-27T13:33:38Z</time>
</trkpt>
<trkpt lat="34.9931368" lon="32.7377430">
<ele>1109.54</ele>
<time>2015-04-27T13:33:40Z</time>
</trkpt>
<trkpt lat="34.9931020" lon="32.7377928">
<ele>1109.58</ele>
<time>2015-04-27T13:33:42Z</time>
</trkpt>
<trkpt lat="34.9930566" lon="32.7378404">
<ele>1109.13</ele>
<time>2015-04-27T13:33:45Z</time>
</trkpt>
<trkpt lat="34.9930101" lon="32.7378668">
<ele>1108.95</ele>
<time>2015-04-27T13:33:48Z</time>
</trkpt>
<trkpt lat="34.9929637" lon="32.7379001">
<ele>1108.55</ele>
<time>2015-04-27T13:33:51Z</time>
</trkpt>
<trkpt lat="34.9929186" lon="32.7379055">
<ele>1116.89</ele>
<time>2015-04-27T13:41:03Z</time>
</trkpt>
<trkpt lat="34.9928636" lon="32.7379123">
<ele>1117.74</ele>
<time>2015-04-27T13:42:07Z</time>
</trkpt>
<trkpt lat="34.9928156" lon="32.7379069">
<ele>1116.15</ele>
<time>2015-04-27T13:42:10Z</time>
</trkpt>
<trkpt lat="34.9927501" lon="32.7378951">
<ele>1115.20</ele>
<time>2015-04-27T13:42:13Z</time>
</trkpt>
<trkpt lat="34.9927027" lon="32.7378894">
<ele>1114.99</ele>
<time>2015-04-27T13:42:15Z</time>
</trkpt>
<trkpt lat="34.9926484" lon="32.7378773">
<ele>1116.19</ele>
<time>2015-04-27T13:42:17Z</time>
</trkpt>
<trkpt lat="34.9925983" lon="32.7378494">
<ele>1116.74</ele>
<time>2015-04-27T13:42:19Z</time>
</trkpt>
<trkpt lat="34.9925506" lon="32.7378188">
<ele>1116.88</ele>
<time>2015-04-27T13:42:21Z</time>
</trkpt>
<trkpt lat="34.9925056" lon="32.7377870">
<ele>1116.41</ele>
<time>2015-04-27T13:42:23Z</time>
</trkpt>
<trkpt lat="34.9924613" lon="32.7377494">
<ele>1115.55</ele>
<time>2015-04-27T13:42:25Z</time>
</trkpt>
<trkpt lat="34.9924165" lon="32.7377151">
<ele>1114.58</ele>
<time>2015-04-27T13:42:27Z</time>
</trkpt>
<trkpt lat="34.9923703" lon="32.7376921">
<ele>1114.09</ele>
<time>2015-04-27T13:42:29Z</time>
</trkpt>
<trkpt lat="34.9923255" lon="32.7376709">
<ele>1113.97</ele>
<time>2015-04-27T13:42:31Z</time>
</trkpt>
<trkpt lat="34.9922613" lon="32.7376586">
<ele>1115.81</ele>
<time>2015-04-27T13:42:34Z</time>
</trkpt>
<trkpt lat="34.9922005" lon="32.7376441">
<ele>1116.79</ele>
<time>2015-04-27T13:42:37Z</time>
</trkpt>
<trkpt lat="34.9921382" lon="32.7376146">
<ele>1116.91</ele>
<time>2015-04-27T13:42:40Z</time>
</trkpt>
<trkpt lat="34.9920961" lon="32.7375916">
<ele>1116.42</ele>
<time>2015-04-27T13:42:42Z</time>
</trkpt>
<trkpt lat="34.9920357" lon="32.7375722">
<ele>1116.86</ele>
<time>2015-04-27T13:42:45Z</time>
</trkpt>
<trkpt lat="34.9919872" lon="32.7375672">
<ele>1116.73</ele>
<time>2015-04-27T13:42:49Z</time>
</trkpt>
<trkpt lat="34.9919346" lon="32.7375581">
<ele>1116.20</ele>
<time>2015-04-27T13:43:03Z</time>
</trkpt>
<trkpt lat="34.9918757" lon="32.7375360">
<ele>1116.71</ele>
<time>2015-04-27T13:43:06Z</time>
</trkpt>
<trkpt lat="34.9918304" lon="32.7375163">
<ele>1116.87</ele>
<time>2015-04-27T13:43:08Z</time>
</trkpt>
<trkpt lat="34.9917852" lon="32.7375114">
<ele>1116.16</ele>
<time>2015-04-27T13:43:10Z</time>
</trkpt>
<trkpt lat="34.9917172" lon="32.7375194">
<ele>1116.45</ele>
<time>2015-04-27T13:43:13Z</time>
</trkpt>
<trkpt lat="34.9916637" lon="32.7375346">
<ele>1116.31</ele>
<time>2015-04-27T13:43:15Z</time>
</trkpt>
<trkpt lat="34.9916035" lon="32.7375672">
<ele>1117.27</ele>
<time>2015-04-27T13:43:17Z</time>
</trkpt>
<trkpt lat="34.9915477" lon="32.7376012">
<ele>1118.26</ele>
<time>2015-04-27T13:43:19Z</time>
</trkpt>
<trkpt lat="34.9914954" lon="32.7376329">
<ele>1119.76</ele>
<time>2015-04-27T13:43:21Z</time>
</trkpt>
<trkpt lat="34.9914467" lon="32.7376661">
<ele>1120.63</ele>
<time>2015-04-27T13:43:23Z</time>
</trkpt>
<trkpt lat="34.9913861" lon="32.7377154">
<ele>1120.85</ele>
<time>2015-04-27T13:43:25Z</time>
</trkpt>
<trkpt lat="34.9913323" lon="32.7377591">
<ele>1120.91</ele>
<time>2015-04-27T13:43:27Z</time>
</trkpt>
<trkpt lat="34.9912801" lon="32.7377972">
<ele>1121.17</ele>
<time>2015-04-27T13:43:29Z</time>
</trkpt>
<trkpt lat="34.9912277" lon="32.7378353">
<ele>1120.24</ele>
<time>2015-04-27T13:43:31Z</time>
</trkpt>
<trkpt lat="34.9911659" lon="32.7378687">
<ele>1120.00</ele>
<time>2015-04-27T13:43:33Z</time>
</trkpt>
<trkpt lat="34.9910984" lon="32.7378977">
<ele>1120.94</ele>
<time>2015-04-27T13:43:35Z</time>
</trkpt>
<trkpt lat="34.9910313" lon="32.7379232">
<ele>1121.93</ele>
<time>2015-04-27T13:43:37Z</time>
</trkpt>
<trkpt lat="34.9909605" lon="32.7379468">
<ele>1123.18</ele>
<time>2015-04-27T13:43:39Z</time>
</trkpt>
<trkpt lat="34.9908896" lon="32.7379702">
<ele>1124.24</ele>
<time>2015-04-27T13:43:41Z</time>
</trkpt>
<trkpt lat="34.9908173" lon="32.7379891">
<ele>1124.50</ele>
<time>2015-04-27T13:43:43Z</time>
</trkpt>
<trkpt lat="34.9907437" lon="32.7380064">
<ele>1124.57</ele>
<time>2015-04-27T13:43:45Z</time>
</trkpt>
<trkpt lat="34.9906777" lon="32.7380374">
<ele>1123.59</ele>
<time>2015-04-27T13:43:47Z</time>
</trkpt>
<trkpt lat="34.9906171" lon="32.7380738">
<ele>1122.59</ele>
<time>2015-04-27T13:43:49Z</time>
</trkpt>
<trkpt lat="34.9905550" lon="32.7381073">
<ele>1121.34</ele>
<time>2015-04-27T13:43:51Z</time>
</trkpt>
<trkpt lat="34.9904895" lon="32.7381460">
<ele>1122.03</ele>
<time>2015-04-27T13:43:53Z</time>
</trkpt>
<trkpt lat="34.9904219" lon="32.7381977">
<ele>1122.70</ele>
<time>2015-04-27T13:43:55Z</time>
</trkpt>
<trkpt lat="34.9903554" lon="32.7382495">
<ele>1121.62</ele>
<time>2015-04-27T13:43:57Z</time>
</trkpt>
<trkpt lat="34.9902873" lon="32.7382970">
<ele>1121.85</ele>
<time>2015-04-27T13:43:59Z</time>
</trkpt>
<trkpt lat="34.9902200" lon="32.7383465">
<ele>1122.41</ele>
<time>2015-04-27T13:44:01Z</time>
</trkpt>
<trkpt lat="34.9901185" lon="32.7384075">
<ele>1122.30</ele>
<time>2015-04-27T13:44:03Z</time>
</trkpt>
<trkpt lat="34.9900378" lon="32.7384416">
<ele>1122.77</ele>
<time>2015-04-27T13:44:05Z</time>
</trkpt>
<trkpt lat="34.9899718" lon="32.7384622">
<ele>1123.64</ele>
<time>2015-04-27T13:44:07Z</time>
</trkpt>
<trkpt lat="34.9899063" lon="32.7384840">
<ele>1123.85</ele>
<time>2015-04-27T13:44:09Z</time>
</trkpt>
<trkpt lat="34.9898348" lon="32.7385040">
<ele>1123.41</ele>
<time>2015-04-27T13:44:11Z</time>
</trkpt>
<trkpt lat="34.9897495" lon="32.7385380">
<ele>1123.05</ele>
<time>2015-04-27T13:44:13Z</time>
</trkpt>
<trkpt lat="34.9897056" lon="32.7385634">
<ele>1122.99</ele>
<time>2015-04-27T13:44:14Z</time>
</trkpt>
<trkpt lat="34.9896600" lon="32.7385834">
<ele>1122.96</ele>
<time>2015-04-27T13:44:15Z</time>
</trkpt>
<trkpt lat="34.9896122" lon="32.7386036">
<ele>1123.44</ele>
<time>2015-04-27T13:44:16Z</time>
</trkpt>
<trkpt lat="34.9895722" lon="32.7386353">
<ele>1123.68</ele>
<time>2015-04-27T13:44:17Z</time>
</trkpt>
<trkpt lat="34.9895286" lon="32.7386534">
<ele>1123.80</ele>
<time>2015-04-27T13:44:18Z</time>
</trkpt>
<trkpt lat="34.9894540" lon="32.7386874">
<ele>1124.64</ele>
<time>2015-04-27T13:44:20Z</time>
</trkpt>
<trkpt lat="34.9893847" lon="32.7387390">
<ele>1124.35</ele>
<time>2015-04-27T13:44:22Z</time>
</trkpt>
<trkpt lat="34.9893481" lon="32.7387719">
<ele>1124.14</ele>
<time>2015-04-27T13:44:23Z</time>
</trkpt>
<trkpt lat="34.9892838" lon="32.7388298">
<ele>1123.23</ele>
<time>2015-04-27T13:44:25Z</time>
</trkpt>
<trkpt lat="34.9892243" lon="32.7388901">
<ele>1123.50</ele>
<time>2015-04-27T13:44:27Z</time>
</trkpt>
<trkpt lat="34.9891788" lon="32.7389417">
<ele>1123.82</ele>
<time>2015-04-27T13:44:29Z</time>
</trkpt>
<trkpt lat="34.9891290" lon="32.7389785">
<ele>1125.15</ele>
<time>2015-04-27T13:44:31Z</time>
</trkpt>
<trkpt lat="34.9890751" lon="32.7390253">
<ele>1125.73</ele>
<time>2015-04-27T13:44:33Z</time>
</trkpt>
<trkpt lat="34.9890204" lon="32.7390810">
<ele>1125.88</ele>
<time>2015-04-27T13:44:35Z</time>
</trkpt>
<trkpt lat="34.9889586" lon="32.7391399">
<ele>1126.66</ele>
<time>2015-04-27T13:44:37Z</time>
</trkpt>
<trkpt lat="34.9889013" lon="32.7391852">
<ele>1127.29</ele>
<time>2015-04-27T13:44:38Z</time>
</trkpt>
<trkpt lat="34.9888231" lon="32.7392400">
<ele>1126.27</ele>
<time>2015-04-27T13:44:40Z</time>
</trkpt>
<trkpt lat="34.9887470" lon="32.7392872">
<ele>1126.51</ele>
<time>2015-04-27T13:44:42Z</time>
</trkpt>
<trkpt lat="34.9886774" lon="32.7393419">
<ele>1126.82</ele>
<time>2015-04-27T13:44:44Z</time>
</trkpt>
<trkpt lat="34.9886092" lon="32.7394003">
<ele>1126.90</ele>
<time>2015-04-27T13:44:46Z</time>
</trkpt>
<trkpt lat="34.9885364" lon="32.7394554">
<ele>1126.92</ele>
<time>2015-04-27T13:44:48Z</time>
</trkpt>
<trkpt lat="34.9884985" lon="32.7394929">
<ele>1127.42</ele>
<time>2015-04-27T13:44:49Z</time>
</trkpt>
<trkpt lat="34.9884587" lon="32.7395256">
<ele>1127.17</ele>
<time>2015-04-27T13:44:50Z</time>
</trkpt>
<trkpt lat="34.9884179" lon="32.7395541">
<ele>1127.55</ele>
<time>2015-04-27T13:44:51Z</time>
</trkpt>
<trkpt lat="34.9883743" lon="32.7395858">
<ele>1127.74</ele>
<time>2015-04-27T13:44:52Z</time>
</trkpt>
<trkpt lat="34.9883319" lon="32.7396246">
<ele>1127.83</ele>
<time>2015-04-27T13:44:53Z</time>
</trkpt>
<trkpt lat="34.9882854" lon="32.7396584">
<ele>1127.38</ele>
<time>2015-04-27T13:44:54Z</time>
</trkpt>
<trkpt lat="34.9882064" lon="32.7397186">
<ele>1125.04</ele>
<time>2015-04-27T13:44:56Z</time>
</trkpt>
<trkpt lat="34.9881629" lon="32.7397504">
<ele>1123.98</ele>
<time>2015-04-27T13:44:57Z</time>
</trkpt>
<trkpt lat="34.9881185" lon="32.7397850">
<ele>1122.95</ele>
<time>2015-04-27T13:44:58Z</time>
</trkpt>
<trkpt lat="34.9880436" lon="32.7398515">
<ele>1120.93</ele>
<time>2015-04-27T13:45:00Z</time>
</trkpt>
<trkpt lat="34.9879964" lon="32.7398800">
<ele>1120.43</ele>
<time>2015-04-27T13:45:01Z</time>
</trkpt>
<trkpt lat="34.9879570" lon="32.7399130">
<ele>1119.68</ele>
<time>2015-04-27T13:45:02Z</time>
</trkpt>
<trkpt lat="34.9878837" lon="32.7399806">
<ele>1117.61</ele>
<time>2015-04-27T13:45:04Z</time>
</trkpt>
<trkpt lat="34.9878487" lon="32.7400210">
<ele>1116.27</ele>
<time>2015-04-27T13:45:05Z</time>
</trkpt>
<trkpt lat="34.9878085" lon="32.7400612">
<ele>1115.60</ele>
<time>2015-04-27T13:45:06Z</time>
</trkpt>
<trkpt lat="34.9877643" lon="32.7400986">
<ele>1115.26</ele>
<time>2015-04-27T13:45:07Z</time>
</trkpt>
<trkpt lat="34.9877296" lon="32.7401434">
<ele>1114.59</ele>
<time>2015-04-27T13:45:08Z</time>
</trkpt>
<trkpt lat="34.9876928" lon="32.7401790">
<ele>1114.26</ele>
<time>2015-04-27T13:45:09Z</time>
</trkpt>
<trkpt lat="34.9876518" lon="32.7402231">
<ele>1114.09</ele>
<time>2015-04-27T13:45:10Z</time>
</trkpt>
<trkpt lat="34.9876151" lon="32.7402655">
<ele>1114.01</ele>
<time>2015-04-27T13:45:11Z</time>
</trkpt>
<trkpt lat="34.9875781" lon="32.7403128">
<ele>1113.97</ele>
<time>2015-04-27T13:45:12Z</time>
</trkpt>
<trkpt lat="34.9875457" lon="32.7403606">
<ele>1114.45</ele>
<time>2015-04-27T13:45:13Z</time>
</trkpt>
<trkpt lat="34.9875128" lon="32.7404061">
<ele>1114.69</ele>
<time>2015-04-27T13:45:14Z</time>
</trkpt>
<trkpt lat="34.9874862" lon="32.7404516">
<ele>1114.31</ele>
<time>2015-04-27T13:45:15Z</time>
</trkpt>
<trkpt lat="34.9874583" lon="32.7405013">
<ele>1114.62</ele>
<time>2015-04-27T13:45:16Z</time>
</trkpt>
<trkpt lat="34.9874020" lon="32.7405984">
<ele>1114.60</ele>
<time>2015-04-27T13:45:18Z</time>
</trkpt>
<trkpt lat="34.9873740" lon="32.7406622">
<ele>1114.76</ele>
<time>2015-04-27T13:45:19Z</time>
</trkpt>
<trkpt lat="34.9873477" lon="32.7407214">
<ele>1114.34</ele>
<time>2015-04-27T13:45:20Z</time>
</trkpt>
<trkpt lat="34.9873254" lon="32.7407899">
<ele>1115.13</ele>
<time>2015-04-27T13:45:21Z</time>
</trkpt>
<trkpt lat="34.9873061" lon="32.7408539">
<ele>1115.53</ele>
<time>2015-04-27T13:45:22Z</time>
</trkpt>
<trkpt lat="34.9872862" lon="32.7409123">
<ele>1116.23</ele>
<time>2015-04-27T13:45:23Z</time>
</trkpt>
<trkpt lat="34.9872613" lon="32.7409772">
<ele>1117.08</ele>
<time>2015-04-27T13:45:24Z</time>
</trkpt>
<trkpt lat="34.9872406" lon="32.7410386">
<ele>1117.00</ele>
<time>2015-04-27T13:45:25Z</time>
</trkpt>
<trkpt lat="34.9872189" lon="32.7411044">
<ele>1116.96</ele>
<time>2015-04-27T13:45:26Z</time>
</trkpt>
<trkpt lat="34.9871951" lon="32.7411743">
<ele>1116.94</ele>
<time>2015-04-27T13:45:27Z</time>
</trkpt>
<trkpt lat="34.9871648" lon="32.7412406">
<ele>1116.93</ele>
<time>2015-04-27T13:45:28Z</time>
</trkpt>
<trkpt lat="34.9871551" lon="32.7413040">
<ele>1116.93</ele>
<time>2015-04-27T13:45:29Z</time>
</trkpt>
<trkpt lat="34.9871381" lon="32.7413623">
<ele>1116.93</ele>
<time>2015-04-27T13:45:30Z</time>
</trkpt>
<trkpt lat="34.9871282" lon="32.7414213">
<ele>1116.93</ele>
<time>2015-04-27T13:45:31Z</time>
</trkpt>
<trkpt lat="34.9871044" lon="32.7414805">
<ele>1116.93</ele>
<time>2015-04-27T13:45:32Z</time>
</trkpt>
<trkpt lat="34.9870926" lon="32.7415376">
<ele>1117.43</ele>
<time>2015-04-27T13:45:33Z</time>
</trkpt>
<trkpt lat="34.9870697" lon="32.7415996">
<ele>1117.68</ele>
<time>2015-04-27T13:45:34Z</time>
</trkpt>
<trkpt lat="34.9870509" lon="32.7416610">
<ele>1117.80</ele>
<time>2015-04-27T13:45:35Z</time>
</trkpt>
<trkpt lat="34.9870331" lon="32.7417186">
<ele>1118.36</ele>
<time>2015-04-27T13:45:36Z</time>
</trkpt>
<trkpt lat="34.9870143" lon="32.7418226">
<ele>1118.03</ele>
<time>2015-04-27T13:45:38Z</time>
</trkpt>
<trkpt lat="34.9869764" lon="32.7419228">
<ele>1118.45</ele>
<time>2015-04-27T13:45:40Z</time>
</trkpt>
<trkpt lat="34.9869527" lon="32.7420238">
<ele>1119.56</ele>
<time>2015-04-27T13:45:42Z</time>
</trkpt>
<trkpt lat="34.9869211" lon="32.7421300">
<ele>1119.83</ele>
<time>2015-04-27T13:45:44Z</time>
</trkpt>
<trkpt lat="34.9868941" lon="32.7421748">
<ele>1119.38</ele>
<time>2015-04-27T13:45:45Z</time>
</trkpt>
<trkpt lat="34.9868607" lon="32.7422357">
<ele>1119.65</ele>
<time>2015-04-27T13:45:46Z</time>
</trkpt>
<trkpt lat="34.9868592" lon="32.7422995">
<ele>1119.79</ele>
<time>2015-04-27T13:45:47Z</time>
</trkpt>
<trkpt lat="34.9868452" lon="32.7423566">
<ele>1119.86</ele>
<time>2015-04-27T13:45:48Z</time>
</trkpt>
<trkpt lat="34.9868307" lon="32.7424187">
<ele>1120.39</ele>
<time>2015-04-27T13:45:49Z</time>
</trkpt>
<trkpt lat="34.9868072" lon="32.7424758">
<ele>1120.66</ele>
<time>2015-04-27T13:45:50Z</time>
</trkpt>
<trkpt lat="34.9867765" lon="32.7425758">
<ele>1120.86</ele>
<time>2015-04-27T13:45:52Z</time>
</trkpt>
<trkpt lat="34.9867525" lon="32.7426749">
<ele>1121.16</ele>
<time>2015-04-27T13:45:54Z</time>
</trkpt>
<trkpt lat="34.9867444" lon="32.7427350">
<ele>1121.54</ele>
<time>2015-04-27T13:45:55Z</time>
</trkpt>
<trkpt lat="34.9867342" lon="32.7427940">
<ele>1121.23</ele>
<time>2015-04-27T13:45:56Z</time>
</trkpt>
<trkpt lat="34.9867214" lon="32.7428564">
<ele>1121.08</ele>
<time>2015-04-27T13:45:57Z</time>
</trkpt>
<trkpt lat="34.9867088" lon="32.7429215">
<ele>1121.00</ele>
<time>2015-04-27T13:45:58Z</time>
</trkpt>
<trkpt lat="34.9866926" lon="32.7429826">
<ele>1121.46</ele>
<time>2015-04-27T13:45:59Z</time>
</trkpt>
<trkpt lat="34.9866794" lon="32.7430398">
<ele>1120.69</ele>
<time>2015-04-27T13:46:00Z</time>
</trkpt>
<trkpt lat="34.9866713" lon="32.7430984">
<ele>1120.81</ele>
<time>2015-04-27T13:46:01Z</time>
</trkpt>
<trkpt lat="34.9866473" lon="32.7431642">
<ele>1121.37</ele>
<time>2015-04-27T13:46:02Z</time>
</trkpt>
<trkpt lat="34.9866342" lon="32.7432189">
<ele>1121.65</ele>
<time>2015-04-27T13:46:03Z</time>
</trkpt>
<trkpt lat="34.9866055" lon="32.7433135">
<ele>1121.86</ele>
<time>2015-04-27T13:46:05Z</time>
</trkpt>
<trkpt lat="34.9865755" lon="32.7434059">
<ele>1121.66</ele>
<time>2015-04-27T13:46:07Z</time>
</trkpt>
<trkpt lat="34.9865370" lon="32.7434948">
<ele>1121.86</ele>
<time>2015-04-27T13:46:09Z</time>
</trkpt>
<trkpt lat="34.9864885" lon="32.7435751">
<ele>1121.91</ele>
<time>2015-04-27T13:46:11Z</time>
</trkpt>
<trkpt lat="34.9864292" lon="32.7436490">
<ele>1121.92</ele>
<time>2015-04-27T13:46:13Z</time>
</trkpt>
<trkpt lat="34.9863678" lon="32.7437065">
<ele>1123.42</ele>
<time>2015-04-27T13:46:15Z</time>
</trkpt>
<trkpt lat="34.9863123" lon="32.7437582">
<ele>1123.05</ele>
<time>2015-04-27T13:46:17Z</time>
</trkpt>
<trkpt lat="34.9862544" lon="32.7438028">
<ele>1122.96</ele>
<time>2015-04-27T13:46:19Z</time>
</trkpt>
<trkpt lat="34.9862023" lon="32.7438360">
<ele>1122.93</ele>
<time>2015-04-27T13:46:21Z</time>
</trkpt>
<trkpt lat="34.9861571" lon="32.7438615">
<ele>1122.18</ele>
<time>2015-04-27T13:46:23Z</time>
</trkpt>
<trkpt lat="34.9861120" lon="32.7438846">
<ele>1121.49</ele>
<time>2015-04-27T13:46:25Z</time>
</trkpt>
<trkpt lat="34.9860642" lon="32.7439011">
<ele>1121.82</ele>
<time>2015-04-27T13:46:27Z</time>
</trkpt>
<trkpt lat="34.9860111" lon="32.7439267">
<ele>1121.40</ele>
<time>2015-04-27T13:46:29Z</time>
</trkpt>
<trkpt lat="34.9859407" lon="32.7439704">
<ele>1121.04</ele>
<time>2015-04-27T13:46:31Z</time>
</trkpt>
<trkpt lat="34.9858700" lon="32.7440144">
<ele>1120.95</ele>
<time>2015-04-27T13:46:33Z</time>
</trkpt>
<trkpt lat="34.9857776" lon="32.7440569">
<ele>1121.18</ele>
<time>2015-04-27T13:46:35Z</time>
</trkpt>
<trkpt lat="34.9857043" lon="32.7440765">
<ele>1120.24</ele>
<time>2015-04-27T13:46:37Z</time>
</trkpt>
<trkpt lat="34.9856303" lon="32.7441161">
<ele>1119.75</ele>
<time>2015-04-27T13:46:39Z</time>
</trkpt>
<trkpt lat="34.9855582" lon="32.7441290">
<ele>1120.38</ele>
<time>2015-04-27T13:46:41Z</time>
</trkpt>
<trkpt lat="34.9854852" lon="32.7441228">
<ele>1120.29</ele>
<time>2015-04-27T13:46:43Z</time>
</trkpt>
<trkpt lat="34.9854118" lon="32.7441179">
<ele>1120.02</ele>
<time>2015-04-27T13:46:45Z</time>
</trkpt>
<trkpt lat="34.9853473" lon="32.7440831">
<ele>1119.45</ele>
<time>2015-04-27T13:46:47Z</time>
</trkpt>
<trkpt lat="34.9852942" lon="32.7440302">
<ele>1119.81</ele>
<time>2015-04-27T13:46:49Z</time>
</trkpt>
<trkpt lat="34.9852537" lon="32.7439642">
<ele>1119.40</ele>
<time>2015-04-27T13:46:51Z</time>
</trkpt>
<trkpt lat="34.9852333" lon="32.7438859">
<ele>1119.79</ele>
<time>2015-04-27T13:46:53Z</time>
</trkpt>
<trkpt lat="34.9852202" lon="32.7438064">
<ele>1119.89</ele>
<time>2015-04-27T13:46:55Z</time>
</trkpt>
<trkpt lat="34.9852043" lon="32.7437308">
<ele>1119.92</ele>
<time>2015-04-27T13:46:57Z</time>
</trkpt>
<trkpt lat="34.9851935" lon="32.7436630">
<ele>1120.67</ele>
<time>2015-04-27T13:46:59Z</time>
</trkpt>
<trkpt lat="34.9851812" lon="32.7435988">
<ele>1121.61</ele>
<time>2015-04-27T13:47:01Z</time>
</trkpt>
<trkpt lat="34.9851563" lon="32.7435294">
<ele>1121.85</ele>
<time>2015-04-27T13:47:03Z</time>
</trkpt>
<trkpt lat="34.9851217" lon="32.7434460">
<ele>1122.66</ele>
<time>2015-04-27T13:47:05Z</time>
</trkpt>
<trkpt lat="34.9850811" lon="32.7433577">
<ele>1123.61</ele>
<time>2015-04-27T13:47:07Z</time>
</trkpt>
<trkpt lat="34.9850346" lon="32.7432825">
<ele>1123.85</ele>
<time>2015-04-27T13:47:09Z</time>
</trkpt>
<trkpt lat="34.9849928" lon="32.7432320">
<ele>1123.91</ele>
<time>2015-04-27T13:47:11Z</time>
</trkpt>
<trkpt lat="34.9849495" lon="32.7431810">
<ele>1123.92</ele>
<time>2015-04-27T13:47:13Z</time>
</trkpt>
<trkpt lat="34.9849058" lon="32.7431255">
<ele>1124.42</ele>
<time>2015-04-27T13:47:15Z</time>
</trkpt>
<trkpt lat="34.9848571" lon="32.7430712">
<ele>1125.55</ele>
<time>2015-04-27T13:47:17Z</time>
</trkpt>
<trkpt lat="34.9848145" lon="32.7430164">
<ele>1125.83</ele>
<time>2015-04-27T13:47:19Z</time>
</trkpt>
<trkpt lat="34.9847721" lon="32.7429638">
<ele>1126.40</ele>
<time>2015-04-27T13:47:21Z</time>
</trkpt>
<trkpt lat="34.9847279" lon="32.7429093">
<ele>1126.04</ele>
<time>2015-04-27T13:47:23Z</time>
</trkpt>
<trkpt lat="34.9846876" lon="32.7428526">
<ele>1125.95</ele>
<time>2015-04-27T13:47:25Z</time>
</trkpt>
<trkpt lat="34.9846528" lon="32.7427944">
<ele>1126.68</ele>
<time>2015-04-27T13:47:27Z</time>
</trkpt>
<trkpt lat="34.9846204" lon="32.7427370">
<ele>1127.86</ele>
<time>2015-04-27T13:47:29Z</time>
</trkpt>
<trkpt lat="34.9845982" lon="32.7426805">
<ele>1128.91</ele>
<time>2015-04-27T13:47:31Z</time>
</trkpt>
<trkpt lat="34.9845853" lon="32.7426213">
<ele>1129.42</ele>
<time>2015-04-27T13:47:33Z</time>
</trkpt>
<trkpt lat="34.9845737" lon="32.7425620">
<ele>1130.55</ele>
<time>2015-04-27T13:47:35Z</time>
</trkpt>
<trkpt lat="34.9845690" lon="32.7425026">
<ele>1130.83</ele>
<time>2015-04-27T13:47:37Z</time>
</trkpt>
<trkpt lat="34.9845646" lon="32.7424258">
<ele>1132.29</ele>
<time>2015-04-27T13:47:41Z</time>
</trkpt>
<trkpt lat="34.9845610" lon="32.7423708">
<ele>1133.27</ele>
<time>2015-04-27T13:47:43Z</time>
</trkpt>
<trkpt lat="34.9845608" lon="32.7423134">
<ele>1134.51</ele>
<time>2015-04-27T13:47:45Z</time>
</trkpt>
<trkpt lat="34.9845629" lon="32.7422547">
<ele>1135.57</ele>
<time>2015-04-27T13:47:47Z</time>
</trkpt>
<trkpt lat="34.9845631" lon="32.7421977">
<ele>1136.59</ele>
<time>2015-04-27T13:47:49Z</time>
</trkpt>
<trkpt lat="34.9845550" lon="32.7421434">
<ele>1136.34</ele>
<time>2015-04-27T13:47:51Z</time>
</trkpt>
<trkpt lat="34.9845428" lon="32.7420647">
<ele>1137.35</ele>
<time>2015-04-27T13:47:54Z</time>
</trkpt>
<trkpt lat="34.9845398" lon="32.7419839">
<ele>1136.98</ele>
<time>2015-04-27T13:47:57Z</time>
</trkpt>
<trkpt lat="34.9845454" lon="32.7419014">
<ele>1136.93</ele>
<time>2015-04-27T13:48:00Z</time>
</trkpt>
<trkpt lat="34.9845393" lon="32.7418263">
<ele>1136.93</ele>
<time>2015-04-27T13:48:03Z</time>
</trkpt>
<trkpt lat="34.9845299" lon="32.7417563">
<ele>1137.80</ele>
<time>2015-04-27T13:48:06Z</time>
</trkpt>
<trkpt lat="34.9845217" lon="32.7416847">
<ele>1140.16</ele>
<time>2015-04-27T13:48:09Z</time>
</trkpt>
<trkpt lat="34.9845007" lon="32.7416312">
<ele>1142.83</ele>
<time>2015-04-27T13:48:12Z</time>
</trkpt>
<trkpt lat="34.9844538" lon="32.7416038">
<ele>1142.92</ele>
<time>2015-04-27T13:48:16Z</time>
</trkpt>
<trkpt lat="34.9844097" lon="32.7415617">
<ele>1141.96</ele>
<time>2015-04-27T13:48:21Z</time>
</trkpt>
<trkpt lat="34.9843710" lon="32.7415283">
<ele>1141.18</ele>
<time>2015-04-27T13:48:24Z</time>
</trkpt>
<trkpt lat="34.9843204" lon="32.7414982">
<ele>1140.83</ele>
<time>2015-04-27T13:48:27Z</time>
</trkpt>
<trkpt lat="34.9842724" lon="32.7414916">
<ele>1141.04</ele>
<time>2015-04-27T13:48:30Z</time>
</trkpt>
<trkpt lat="34.9842264" lon="32.7414966">
<ele>1141.56</ele>
<time>2015-04-27T13:48:33Z</time>
</trkpt>
<trkpt lat="34.9841802" lon="32.7415023">
<ele>1142.38</ele>
<time>2015-04-27T13:48:36Z</time>
</trkpt>
<trkpt lat="34.9841355" lon="32.7415089">
<ele>1142.11</ele>
<time>2015-04-27T13:48:39Z</time>
</trkpt>
<trkpt lat="34.9840841" lon="32.7415167">
<ele>1142.82</ele>
<time>2015-04-27T13:48:42Z</time>
</trkpt>
<trkpt lat="34.9840323" lon="32.7415314">
<ele>1142.04</ele>
<time>2015-04-27T13:48:45Z</time>
</trkpt>
<trkpt lat="34.9839874" lon="32.7415515">
<ele>1139.56</ele>
<time>2015-04-27T13:48:48Z</time>
</trkpt>
<trkpt lat="34.9839292" lon="32.7415653">
<ele>1138.84</ele>
<time>2015-04-27T13:48:52Z</time>
</trkpt>
<trkpt lat="34.9838829" lon="32.7415478">
<ele>1136.79</ele>
<time>2015-04-27T13:48:55Z</time>
</trkpt>
<trkpt lat="34.9839099" lon="32.7415023">
<ele>1136.64</ele>
<time>2015-04-27T13:49:00Z</time>
</trkpt>
<trkpt lat="34.9839542" lon="32.7415302">
<ele>1134.51</ele>
<time>2015-04-27T13:49:06Z</time>
</trkpt>
<trkpt lat="34.9839978" lon="32.7415111">
<ele>1133.46</ele>
<time>2015-04-27T13:49:10Z</time>
</trkpt>
<trkpt lat="34.9839559" lon="32.7415352">
<ele>1135.13</ele>
<time>2015-04-27T13:49:15Z</time>
</trkpt>
<trkpt lat="34.9839027" lon="32.7415004">
<ele>1136.13</ele>
<time>2015-04-27T13:49:19Z</time>
</trkpt>
<trkpt lat="34.9839306" lon="32.7414545">
<ele>1128.05</ele>
<time>2015-04-27T13:54:44Z</time>
</trkpt>
<trkpt lat="34.9838977" lon="32.7414993">
<ele>1130.71</ele>
<time>2015-04-27T13:54:58Z</time>
</trkpt>
<trkpt lat="34.9838620" lon="32.7415533">
<ele>1130.08</ele>
<time>2015-04-27T13:55:10Z</time>
</trkpt>
<trkpt lat="34.9838244" lon="32.7416114">
<ele>1130.69</ele>
<time>2015-04-27T13:55:13Z</time>
</trkpt>
<trkpt lat="34.9837804" lon="32.7416683">
<ele>1130.90</ele>
<time>2015-04-27T13:55:16Z</time>
</trkpt>
<trkpt lat="34.9837482" lon="32.7417146">
<ele>1131.67</ele>
<time>2015-04-27T13:55:18Z</time>
</trkpt>
<trkpt lat="34.9837143" lon="32.7417795">
<ele>1129.77</ele>
<time>2015-04-27T13:55:21Z</time>
</trkpt>
<trkpt lat="34.9836787" lon="32.7418345">
<ele>1129.03</ele>
<time>2015-04-27T13:55:24Z</time>
</trkpt>
<trkpt lat="34.9836408" lon="32.7418851">
<ele>1130.31</ele>
<time>2015-04-27T13:55:27Z</time>
</trkpt>
<trkpt lat="34.9835995" lon="32.7419393">
<ele>1130.10</ele>
<time>2015-04-27T13:55:30Z</time>
</trkpt>
<trkpt lat="34.9835620" lon="32.7419976">
<ele>1128.57</ele>
<time>2015-04-27T13:55:33Z</time>
</trkpt>
<trkpt lat="34.9835224" lon="32.7420577">
<ele>1128.01</ele>
<time>2015-04-27T13:55:36Z</time>
</trkpt>
<trkpt lat="34.9834842" lon="32.7421114">
<ele>1127.69</ele>
<time>2015-04-27T13:55:39Z</time>
</trkpt>
<trkpt lat="34.9834479" lon="32.7421677">
<ele>1127.90</ele>
<time>2015-04-27T13:55:42Z</time>
</trkpt>
<trkpt lat="34.9834037" lon="32.7422138">
<ele>1128.30</ele>
<time>2015-04-27T13:55:45Z</time>
</trkpt>
<trkpt lat="34.9833541" lon="32.7422546">
<ele>1129.20</ele>
<time>2015-04-27T13:55:49Z</time>
</trkpt>
<trkpt lat="34.9833208" lon="32.7422966">
<ele>1128.99</ele>
<time>2015-04-27T13:55:51Z</time>
</trkpt>
<trkpt lat="34.9832829" lon="32.7423459">
<ele>1130.94</ele>
<time>2015-04-27T13:55:53Z</time>
</trkpt>
<trkpt lat="34.9832468" lon="32.7423902">
<ele>1131.93</ele>
<time>2015-04-27T13:55:55Z</time>
</trkpt>
<trkpt lat="34.9832178" lon="32.7424598">
<ele>1132.30</ele>
<time>2015-04-27T13:55:58Z</time>
</trkpt>
<trkpt lat="34.9832012" lon="32.7425110">
<ele>1132.77</ele>
<time>2015-04-27T13:56:00Z</time>
</trkpt>
<trkpt lat="34.9831812" lon="32.7425851">
<ele>1132.41</ele>
<time>2015-04-27T13:56:03Z</time>
</trkpt>
<trkpt lat="34.9831651" lon="32.7426584">
<ele>1132.86</ele>
<time>2015-04-27T13:56:06Z</time>
</trkpt>
<trkpt lat="34.9831354" lon="32.7427320">
<ele>1134.67</ele>
<time>2015-04-27T13:56:09Z</time>
</trkpt>
<trkpt lat="34.9831209" lon="32.7427848">
<ele>1134.86</ele>
<time>2015-04-27T13:56:11Z</time>
</trkpt>
<trkpt lat="34.9831088" lon="32.7428391">
<ele>1134.41</ele>
<time>2015-04-27T13:56:13Z</time>
</trkpt>
<trkpt lat="34.9830933" lon="32.7428925">
<ele>1134.05</ele>
<time>2015-04-27T13:56:15Z</time>
</trkpt>
<trkpt lat="34.9830646" lon="32.7429638">
<ele>1134.32</ele>
<time>2015-04-27T13:56:18Z</time>
</trkpt>
<trkpt lat="34.9830456" lon="32.7430225">
<ele>1133.82</ele>
<time>2015-04-27T13:56:22Z</time>
</trkpt>
<trkpt lat="34.9830228" lon="32.7430912">
<ele>1133.16</ele>
<time>2015-04-27T13:56:25Z</time>
</trkpt>
<trkpt lat="34.9830022" lon="32.7431491">
<ele>1132.48</ele>
<time>2015-04-27T13:56:27Z</time>
</trkpt>
<trkpt lat="34.9829812" lon="32.7431986">
<ele>1132.06</ele>
<time>2015-04-27T13:56:29Z</time>
</trkpt>
<trkpt lat="34.9829655" lon="32.7432651">
<ele>1130.12</ele>
<time>2015-04-27T13:56:33Z</time>
</trkpt>
<trkpt lat="34.9829449" lon="32.7433147">
<ele>1130.07</ele>
<time>2015-04-27T13:56:36Z</time>
</trkpt>
<trkpt lat="34.9829170" lon="32.7433620">
<ele>1131.44</ele>
<time>2015-04-27T13:56:39Z</time>
</trkpt>
<trkpt lat="34.9828768" lon="32.7434001">
<ele>1132.36</ele>
<time>2015-04-27T13:56:42Z</time>
</trkpt>
<trkpt lat="34.9828249" lon="32.7434199">
<ele>1132.85</ele>
<time>2015-04-27T13:56:45Z</time>
</trkpt>
<trkpt lat="34.9827712" lon="32.7434260">
<ele>1132.92</ele>
<time>2015-04-27T13:56:48Z</time>
</trkpt>
<trkpt lat="34.9827256" lon="32.7434369">
<ele>1133.67</ele>
<time>2015-04-27T13:56:51Z</time>
</trkpt>
<trkpt lat="34.9826823" lon="32.7434138">
<ele>1134.64</ele>
<time>2015-04-27T13:56:54Z</time>
</trkpt>
<trkpt lat="34.9826348" lon="32.7433972">
<ele>1134.89</ele>
<time>2015-04-27T13:56:57Z</time>
</trkpt>
<trkpt lat="34.9825911" lon="32.7433823">
<ele>1135.05</ele>
<time>2015-04-27T13:57:00Z</time>
</trkpt>
<trkpt lat="34.9825481" lon="32.7433575">
<ele>1134.93</ele>
<time>2015-04-27T13:57:05Z</time>
</trkpt>
<trkpt lat="34.9825077" lon="32.7433223">
<ele>1133.99</ele>
<time>2015-04-27T13:57:11Z</time>
</trkpt>
<trkpt lat="34.9824672" lon="32.7432637">
<ele>1134.86</ele>
<time>2015-04-27T13:57:16Z</time>
</trkpt>
<trkpt lat="34.9824199" lon="32.7432271">
<ele>1134.92</ele>
<time>2015-04-27T13:57:19Z</time>
</trkpt>
<trkpt lat="34.9823788" lon="32.7431834">
<ele>1135.80</ele>
<time>2015-04-27T13:57:22Z</time>
</trkpt>
<trkpt lat="34.9823446" lon="32.7431104">
<ele>1134.53</ele>
<time>2015-04-27T13:57:25Z</time>
</trkpt>
<trkpt lat="34.9823163" lon="32.7430528">
<ele>1135.33</ele>
<time>2015-04-27T13:57:27Z</time>
</trkpt>
<trkpt lat="34.9822824" lon="32.7429918">
<ele>1137.03</ele>
<time>2015-04-27T13:57:29Z</time>
</trkpt>
<trkpt lat="34.9822432" lon="32.7429047">
<ele>1138.45</ele>
<time>2015-04-27T13:57:31Z</time>
</trkpt>
<trkpt lat="34.9822095" lon="32.7428175">
<ele>1138.81</ele>
<time>2015-04-27T13:57:33Z</time>
</trkpt>
<trkpt lat="34.9821845" lon="32.7427481">
<ele>1139.65</ele>
<time>2015-04-27T13:57:35Z</time>
</trkpt>
<trkpt lat="34.9821495" lon="32.7426836">
<ele>1139.61</ele>
<time>2015-04-27T13:57:37Z</time>
</trkpt>
<trkpt lat="34.9821060" lon="32.7426208">
<ele>1141.34</ele>
<time>2015-04-27T13:57:39Z</time>
</trkpt>
<trkpt lat="34.9820646" lon="32.7425568">
<ele>1141.78</ele>
<time>2015-04-27T13:57:41Z</time>
</trkpt>
<trkpt lat="34.9820145" lon="32.7425023">
<ele>1142.39</ele>
<time>2015-04-27T13:57:43Z</time>
</trkpt>
<trkpt lat="34.9819636" lon="32.7424478">
<ele>1142.04</ele>
<time>2015-04-27T13:57:45Z</time>
</trkpt>
<trkpt lat="34.9819139" lon="32.7423971">
<ele>1141.95</ele>
<time>2015-04-27T13:57:47Z</time>
</trkpt>
<trkpt lat="34.9818696" lon="32.7423598">
<ele>1141.93</ele>
<time>2015-04-27T13:57:49Z</time>
</trkpt>
<trkpt lat="34.9818260" lon="32.7423310">
<ele>1141.93</ele>
<time>2015-04-27T13:57:51Z</time>
</trkpt>
<trkpt lat="34.9817844" lon="32.7423023">
<ele>1141.93</ele>
<time>2015-04-27T13:57:53Z</time>
</trkpt>
<trkpt lat="34.9817284" lon="32.7422608">
<ele>1141.43</ele>
<time>2015-04-27T13:57:56Z</time>
</trkpt>
<trkpt lat="34.9816726" lon="32.7422297">
<ele>1138.86</ele>
<time>2015-04-27T13:57:59Z</time>
</trkpt>
<trkpt lat="34.9816275" lon="32.7422152">
<ele>1137.66</ele>
<time>2015-04-27T13:58:01Z</time>
</trkpt>
<trkpt lat="34.9815616" lon="32.7421962">
<ele>1135.86</ele>
<time>2015-04-27T13:58:03Z</time>
</trkpt>
<trkpt lat="34.9814904" lon="32.7421749">
<ele>1134.41</ele>
<time>2015-04-27T13:58:05Z</time>
</trkpt>
<trkpt lat="34.9814100" lon="32.7421608">
<ele>1132.80</ele>
<time>2015-04-27T13:58:07Z</time>
</trkpt>
<trkpt lat="34.9813319" lon="32.7421474">
<ele>1132.14</ele>
<time>2015-04-27T13:58:09Z</time>
</trkpt>
<trkpt lat="34.9812506" lon="32.7421340">
<ele>1130.73</ele>
<time>2015-04-27T13:58:11Z</time>
</trkpt>
<trkpt lat="34.9811992" lon="32.7421260">
<ele>1130.33</ele>
<time>2015-04-27T13:58:12Z</time>
</trkpt>
<trkpt lat="34.9811339" lon="32.7421137">
<ele>1129.63</ele>
<time>2015-04-27T13:58:13Z</time>
</trkpt>
<trkpt lat="34.9810700" lon="32.7421055">
<ele>1129.28</ele>
<time>2015-04-27T13:58:14Z</time>
</trkpt>
<trkpt lat="34.9810109" lon="32.7421004">
<ele>1128.60</ele>
<time>2015-04-27T13:58:15Z</time>
</trkpt>
<trkpt lat="34.9809434" lon="32.7421062">
<ele>1128.26</ele>
<time>2015-04-27T13:58:16Z</time>
</trkpt>
<trkpt lat="34.9808742" lon="32.7421143">
<ele>1127.59</ele>
<time>2015-04-27T13:58:17Z</time>
</trkpt>
<trkpt lat="34.9807980" lon="32.7421210">
<ele>1126.76</ele>
<time>2015-04-27T13:58:18Z</time>
</trkpt>
<trkpt lat="34.9807204" lon="32.7421394">
<ele>1126.34</ele>
<time>2015-04-27T13:58:19Z</time>
</trkpt>
<trkpt lat="34.9806344" lon="32.7421616">
<ele>1125.63</ele>
<time>2015-04-27T13:58:20Z</time>
</trkpt>
<trkpt lat="34.9805484" lon="32.7421906">
<ele>1123.78</ele>
<time>2015-04-27T13:58:21Z</time>
</trkpt>
<trkpt lat="34.9804487" lon="32.7422202">
<ele>1122.85</ele>
<time>2015-04-27T13:58:22Z</time>
</trkpt>
<trkpt lat="34.9803528" lon="32.7422420">
<ele>1120.89</ele>
<time>2015-04-27T13:58:23Z</time>
</trkpt>
<trkpt lat="34.9802441" lon="32.7422627">
<ele>1119.41</ele>
<time>2015-04-27T13:58:24Z</time>
</trkpt>
<trkpt lat="34.9801348" lon="32.7422738">
<ele>1118.17</ele>
<time>2015-04-27T13:58:25Z</time>
</trkpt>
<trkpt lat="34.9800188" lon="32.7422838">
<ele>1117.05</ele>
<time>2015-04-27T13:58:26Z</time>
</trkpt>
<trkpt lat="34.9799077" lon="32.7422928">
<ele>1115.99</ele>
<time>2015-04-27T13:58:27Z</time>
</trkpt>
<trkpt lat="34.9798079" lon="32.7422934">
<ele>1114.96</ele>
<time>2015-04-27T13:58:28Z</time>
</trkpt>
<trkpt lat="34.9797280" lon="32.7422961">
<ele>1114.44</ele>
<time>2015-04-27T13:58:29Z</time>
</trkpt>
<trkpt lat="34.9796556" lon="32.7423039">
<ele>1114.18</ele>
<time>2015-04-27T13:58:30Z</time>
</trkpt>
<trkpt lat="34.9795908" lon="32.7423086">
<ele>1113.55</ele>
<time>2015-04-27T13:58:31Z</time>
</trkpt>
<trkpt lat="34.9795348" lon="32.7423184">
<ele>1113.24</ele>
<time>2015-04-27T13:58:32Z</time>
</trkpt>
<trkpt lat="34.9794545" lon="32.7423203">
<ele>1112.25</ele>
<time>2015-04-27T13:58:34Z</time>
</trkpt>
<trkpt lat="34.9793893" lon="32.7423275">
<ele>1111.26</ele>
<time>2015-04-27T13:58:36Z</time>
</trkpt>
<trkpt lat="34.9793135" lon="32.7423315">
<ele>1111.01</ele>
<time>2015-04-27T13:58:38Z</time>
</trkpt>
<trkpt lat="34.9792358" lon="32.7423808">
<ele>1109.70</ele>
<time>2015-04-27T13:58:40Z</time>
</trkpt>
<trkpt lat="34.9791914" lon="32.7424010">
<ele>1109.31</ele>
<time>2015-04-27T13:58:41Z</time>
</trkpt>
<trkpt lat="34.9791436" lon="32.7424293">
<ele>1109.12</ele>
<time>2015-04-27T13:58:42Z</time>
</trkpt>
<trkpt lat="34.9790957" lon="32.7424622">
<ele>1109.02</ele>
<time>2015-04-27T13:58:43Z</time>
</trkpt>
<trkpt lat="34.9790430" lon="32.7425002">
<ele>1108.97</ele>
<time>2015-04-27T13:58:44Z</time>
</trkpt>
<trkpt lat="34.9789861" lon="32.7425339">
<ele>1108.45</ele>
<time>2015-04-27T13:58:45Z</time>
</trkpt>
<trkpt lat="34.9789328" lon="32.7425776">
<ele>1107.69</ele>
<time>2015-04-27T13:58:46Z</time>
</trkpt>
<trkpt lat="34.9788699" lon="32.7426214">
<ele>1107.31</ele>
<time>2015-04-27T13:58:47Z</time>
</trkpt>
<trkpt lat="34.9788018" lon="32.7426672">
<ele>1107.12</ele>
<time>2015-04-27T13:58:48Z</time>
</trkpt>
<trkpt lat="34.9787334" lon="32.7427029">
<ele>1106.52</ele>
<time>2015-04-27T13:58:49Z</time>
</trkpt>
<trkpt lat="34.9786587" lon="32.7427436">
<ele>1105.72</ele>
<time>2015-04-27T13:58:50Z</time>
</trkpt>
<trkpt lat="34.9785867" lon="32.7427848">
<ele>1105.32</ele>
<time>2015-04-27T13:58:51Z</time>
</trkpt>
<trkpt lat="34.9785041" lon="32.7428122">
<ele>1104.62</ele>
<time>2015-04-27T13:58:52Z</time>
</trkpt>
<trkpt lat="34.9784206" lon="32.7428310">
<ele>1103.77</ele>
<time>2015-04-27T13:58:53Z</time>
</trkpt>
<trkpt lat="34.9783326" lon="32.7428326">
<ele>1103.35</ele>
<time>2015-04-27T13:58:54Z</time>
</trkpt>
<trkpt lat="34.9782526" lon="32.7428265">
<ele>1102.64</ele>
<time>2015-04-27T13:58:55Z</time>
</trkpt>
<trkpt lat="34.9781784" lon="32.7428245">
<ele>1102.28</ele>
<time>2015-04-27T13:58:56Z</time>
</trkpt>
<trkpt lat="34.9781258" lon="32.7428281">
<ele>1101.60</ele>
<time>2015-04-27T13:58:57Z</time>
</trkpt>
<trkpt lat="34.9780539" lon="32.7428402">
<ele>1100.59</ele>
<time>2015-04-27T13:58:59Z</time>
</trkpt>
<trkpt lat="34.9780099" lon="32.7428755">
<ele>1099.26</ele>
<time>2015-04-27T13:59:02Z</time>
</trkpt>
<trkpt lat="34.9780263" lon="32.7429430">
<ele>1096.09</ele>
<time>2015-04-27T13:59:08Z</time>
</trkpt>
<trkpt lat="34.9780694" lon="32.7429757">
<ele>1095.95</ele>
<time>2015-04-27T13:59:11Z</time>
</trkpt>
<trkpt lat="34.9781362" lon="32.7429865">
<ele>1095.93</ele>
<time>2015-04-27T13:59:13Z</time>
</trkpt>
<trkpt lat="34.9782225" lon="32.7429811">
<ele>1095.43</ele>
<time>2015-04-27T13:59:15Z</time>
</trkpt>
<trkpt lat="34.9782712" lon="32.7429833">
<ele>1095.18</ele>
<time>2015-04-27T13:59:16Z</time>
</trkpt>
<trkpt lat="34.9783177" lon="32.7429969">
<ele>1095.05</ele>
<time>2015-04-27T13:59:17Z</time>
</trkpt>
<trkpt lat="34.9783918" lon="32.7430066">
<ele>1094.46</ele>
<time>2015-04-27T13:59:19Z</time>
</trkpt>
<trkpt lat="34.9784551" lon="32.7430146">
<ele>1093.31</ele>
<time>2015-04-27T13:59:21Z</time>
</trkpt>
<trkpt lat="34.9785180" lon="32.7430264">
<ele>1092.27</ele>
<time>2015-04-27T13:59:23Z</time>
</trkpt>
<trkpt lat="34.9785706" lon="32.7430352">
<ele>1092.01</ele>
<time>2015-04-27T13:59:25Z</time>
</trkpt>
<trkpt lat="34.9786219" lon="32.7430587">
<ele>1091.20</ele>
<time>2015-04-27T13:59:27Z</time>
</trkpt>
<trkpt lat="34.9786800" lon="32.7430740">
<ele>1090.49</ele>
<time>2015-04-27T13:59:29Z</time>
</trkpt>
<trkpt lat="34.9787563" lon="32.7430769">
<ele>1089.57</ele>
<time>2015-04-27T13:59:31Z</time>
</trkpt>
<trkpt lat="34.9788046" lon="32.7430762">
<ele>1088.75</ele>
<time>2015-04-27T13:59:32Z</time>
</trkpt>
<trkpt lat="34.9788635" lon="32.7430633">
<ele>1088.34</ele>
<time>2015-04-27T13:59:33Z</time>
</trkpt>
<trkpt lat="34.9789138" lon="32.7430473">
<ele>1088.13</ele>
<time>2015-04-27T13:59:34Z</time>
</trkpt>
<trkpt lat="34.9789669" lon="32.7430297">
<ele>1088.03</ele>
<time>2015-04-27T13:59:35Z</time>
</trkpt>
<trkpt lat="34.9790242" lon="32.7430104">
<ele>1087.98</ele>
<time>2015-04-27T13:59:36Z</time>
</trkpt>
<trkpt lat="34.9790853" lon="32.7429862">
<ele>1087.45</ele>
<time>2015-04-27T13:59:37Z</time>
</trkpt>
<trkpt lat="34.9791481" lon="32.7429614">
<ele>1086.69</ele>
<time>2015-04-27T13:59:38Z</time>
</trkpt>
<trkpt lat="34.9792135" lon="32.7429419">
<ele>1086.31</ele>
<time>2015-04-27T13:59:39Z</time>
</trkpt>
<trkpt lat="34.9792824" lon="32.7429204">
<ele>1085.62</ele>
<time>2015-04-27T13:59:40Z</time>
</trkpt>
<trkpt lat="34.9793554" lon="32.7428983">
<ele>1085.27</ele>
<time>2015-04-27T13:59:41Z</time>
</trkpt>
<trkpt lat="34.9794364" lon="32.7428730">
<ele>1085.10</ele>
<time>2015-04-27T13:59:42Z</time>
</trkpt>
<trkpt lat="34.9795151" lon="32.7428379">
<ele>1084.51</ele>
<time>2015-04-27T13:59:43Z</time>
</trkpt>
<trkpt lat="34.9795758" lon="32.7428036">
<ele>1084.22</ele>
<time>2015-04-27T13:59:44Z</time>
</trkpt>
<trkpt lat="34.9796640" lon="32.7427699">
<ele>1083.57</ele>
<time>2015-04-27T13:59:45Z</time>
</trkpt>
<trkpt lat="34.9797422" lon="32.7427803">
<ele>1083.25</ele>
<time>2015-04-27T13:59:46Z</time>
</trkpt>
<trkpt lat="34.9798031" lon="32.7427803">
<ele>1083.09</ele>
<time>2015-04-27T13:59:47Z</time>
</trkpt>
<trkpt lat="34.9798832" lon="32.7427786">
<ele>1083.01</ele>
<time>2015-04-27T13:59:48Z</time>
</trkpt>
<trkpt lat="34.9799557" lon="32.7427928">
<ele>1083.47</ele>
<time>2015-04-27T13:59:49Z</time>
</trkpt>
<trkpt lat="34.9800205" lon="32.7428250">
<ele>1083.70</ele>
<time>2015-04-27T13:59:50Z</time>
</trkpt>
<trkpt lat="34.9801083" lon="32.7428518">
<ele>1083.31</ele>
<time>2015-04-27T13:59:51Z</time>
</trkpt>
<trkpt lat="34.9802156" lon="32.7428765">
<ele>1082.12</ele>
<time>2015-04-27T13:59:52Z</time>
</trkpt>
<trkpt lat="34.9803317" lon="32.7428929">
<ele>1079.02</ele>
<time>2015-04-27T13:59:53Z</time>
</trkpt>
<trkpt lat="34.9804288" lon="32.7429005">
<ele>1077.47</ele>
<time>2015-04-27T13:59:54Z</time>
</trkpt>
<trkpt lat="34.9805241" lon="32.7429064">
<ele>1076.20</ele>
<time>2015-04-27T13:59:55Z</time>
</trkpt>
<trkpt lat="34.9806274" lon="32.7429158">
<ele>1076.06</ele>
<time>2015-04-27T13:59:56Z</time>
</trkpt>
<trkpt lat="34.9807219" lon="32.7429292">
<ele>1076.49</ele>
<time>2015-04-27T13:59:57Z</time>
</trkpt>
<trkpt lat="34.9808282" lon="32.7429551">
<ele>1076.71</ele>
<time>2015-04-27T13:59:58Z</time>
</trkpt>
<trkpt lat="34.9809262" lon="32.7429800">
<ele>1076.82</ele>
<time>2015-04-27T13:59:59Z</time>
</trkpt>
<trkpt lat="34.9810311" lon="32.7430088">
<ele>1076.87</ele>
<time>2015-04-27T14:00:00Z</time>
</trkpt>
<trkpt lat="34.9811237" lon="32.7430499">
<ele>1076.90</ele>
<time>2015-04-27T14:00:01Z</time>
</trkpt>
<trkpt lat="34.9812109" lon="32.7430904">
<ele>1076.41</ele>
<time>2015-04-27T14:00:02Z</time>
</trkpt>
<trkpt lat="34.9812840" lon="32.7431410">
<ele>1075.17</ele>
<time>2015-04-27T14:00:03Z</time>
</trkpt>
<trkpt lat="34.9813459" lon="32.7431900">
<ele>1074.55</ele>
<time>2015-04-27T14:00:04Z</time>
</trkpt>
<trkpt lat="34.9813894" lon="32.7432851">
<ele>1074.24</ele>
<time>2015-04-27T14:00:05Z</time>
</trkpt>
<trkpt lat="34.9814112" lon="32.7433768">
<ele>1073.58</ele>
<time>2015-04-27T14:00:06Z</time>
</trkpt>
<trkpt lat="34.9814268" lon="32.7434829">
<ele>1073.25</ele>
<time>2015-04-27T14:00:07Z</time>
</trkpt>
<trkpt lat="34.9814437" lon="32.7435800">
<ele>1072.59</ele>
<time>2015-04-27T14:00:08Z</time>
</trkpt>
<trkpt lat="34.9814682" lon="32.7436733">
<ele>1072.76</ele>
<time>2015-04-27T14:00:09Z</time>
</trkpt>
<trkpt lat="34.9814993" lon="32.7437717">
<ele>1072.84</ele>
<time>2015-04-27T14:00:10Z</time>
</trkpt>
<trkpt lat="34.9815277" lon="32.7438618">
<ele>1072.38</ele>
<time>2015-04-27T14:00:11Z</time>
</trkpt>
<trkpt lat="34.9815375" lon="32.7439647">
<ele>1072.15</ele>
<time>2015-04-27T14:00:12Z</time>
</trkpt>
<trkpt lat="34.9815313" lon="32.7440657">
<ele>1072.54</ele>
<time>2015-04-27T14:00:13Z</time>
</trkpt>
<trkpt lat="34.9815070" lon="32.7441670">
<ele>1071.73</ele>
<time>2015-04-27T14:00:14Z</time>
</trkpt>
<trkpt lat="34.9814792" lon="32.7442600">
<ele>1070.83</ele>
<time>2015-04-27T14:00:15Z</time>
</trkpt>
<trkpt lat="34.9814177" lon="32.7443371">
<ele>1070.38</ele>
<time>2015-04-27T14:00:16Z</time>
</trkpt>
<trkpt lat="34.9813589" lon="32.7444266">
<ele>1070.15</ele>
<time>2015-04-27T14:00:17Z</time>
</trkpt>
<trkpt lat="34.9813126" lon="32.7445276">
<ele>1070.04</ele>
<time>2015-04-27T14:00:18Z</time>
</trkpt>
<trkpt lat="34.9812782" lon="32.7446294">
<ele>1069.48</ele>
<time>2015-04-27T14:00:19Z</time>
</trkpt>
<trkpt lat="34.9812681" lon="32.7447363">
<ele>1068.70</ele>
<time>2015-04-27T14:00:20Z</time>
</trkpt>
<trkpt lat="34.9812502" lon="32.7448442">
<ele>1068.31</ele>
<time>2015-04-27T14:00:21Z</time>
</trkpt>
<trkpt lat="34.9812198" lon="32.7449517">
<ele>1068.12</ele>
<time>2015-04-27T14:00:22Z</time>
</trkpt>
<trkpt lat="34.9811584" lon="32.7450380">
<ele>1067.52</ele>
<time>2015-04-27T14:00:23Z</time>
</trkpt>
<trkpt lat="34.9810943" lon="32.7451215">
<ele>1066.72</ele>
<time>2015-04-27T14:00:24Z</time>
</trkpt>
<trkpt lat="34.9810252" lon="32.7451973">
<ele>1066.32</ele>
<time>2015-04-27T14:00:25Z</time>
</trkpt>
<trkpt lat="34.9809495" lon="32.7452674">
<ele>1066.12</ele>
<time>2015-04-27T14:00:26Z</time>
</trkpt>
<trkpt lat="34.9808802" lon="32.7453428">
<ele>1065.52</ele>
<time>2015-04-27T14:00:27Z</time>
</trkpt>
<trkpt lat="34.9808090" lon="32.7454166">
<ele>1065.22</ele>
<time>2015-04-27T14:00:28Z</time>
</trkpt>
<trkpt lat="34.9807333" lon="32.7454827">
<ele>1065.07</ele>
<time>2015-04-27T14:00:29Z</time>
</trkpt>
<trkpt lat="34.9806499" lon="32.7455484">
<ele>1064.50</ele>
<time>2015-04-27T14:00:30Z</time>
</trkpt>
<trkpt lat="34.9805709" lon="32.7456150">
<ele>1064.21</ele>
<time>2015-04-27T14:00:31Z</time>
</trkpt>
<trkpt lat="34.9804863" lon="32.7456760">
<ele>1064.57</ele>
<time>2015-04-27T14:00:32Z</time>
</trkpt>
<trkpt lat="34.9804177" lon="32.7457591">
<ele>1063.75</ele>
<time>2015-04-27T14:00:33Z</time>
</trkpt>
<trkpt lat="34.9803328" lon="32.7458267">
<ele>1063.34</ele>
<time>2015-04-27T14:00:34Z</time>
</trkpt>
<trkpt lat="34.9802536" lon="32.7458962">
<ele>1063.13</ele>
<time>2015-04-27T14:00:35Z</time>
</trkpt>
<trkpt lat="34.9801773" lon="32.7459673">
<ele>1062.53</ele>
<time>2015-04-27T14:00:36Z</time>
</trkpt>
<trkpt lat="34.9800949" lon="32.7460364">
<ele>1062.23</ele>
<time>2015-04-27T14:00:37Z</time>
</trkpt>
<trkpt lat="34.9800235" lon="32.7461232">
<ele>1061.08</ele>
<time>2015-04-27T14:00:38Z</time>
</trkpt>
<trkpt lat="34.9799548" lon="32.7462120">
<ele>1060.00</ele>
<time>2015-04-27T14:00:39Z</time>
</trkpt>
<trkpt lat="34.9798941" lon="32.7463118">
<ele>1058.96</ele>
<time>2015-04-27T14:00:40Z</time>
</trkpt>
<trkpt lat="34.9798568" lon="32.7464268">
<ele>1057.94</ele>
<time>2015-04-27T14:00:41Z</time>
</trkpt>
<trkpt lat="34.9798385" lon="32.7465528">
<ele>1057.43</ele>
<time>2015-04-27T14:00:42Z</time>
</trkpt>
<trkpt lat="34.9798290" lon="32.7466763">
<ele>1057.68</ele>
<time>2015-04-27T14:00:43Z</time>
</trkpt>
<trkpt lat="34.9798280" lon="32.7468022">
<ele>1057.30</ele>
<time>2015-04-27T14:00:44Z</time>
</trkpt>
<trkpt lat="34.9798135" lon="32.7469261">
<ele>1057.11</ele>
<time>2015-04-27T14:00:45Z</time>
</trkpt>
<trkpt lat="34.9797948" lon="32.7470554">
<ele>1056.52</ele>
<time>2015-04-27T14:00:46Z</time>
</trkpt>
<trkpt lat="34.9797563" lon="32.7471674">
<ele>1056.22</ele>
<time>2015-04-27T14:00:47Z</time>
</trkpt>
<trkpt lat="34.9797262" lon="32.7472801">
<ele>1055.07</ele>
<time>2015-04-27T14:00:48Z</time>
</trkpt>
<trkpt lat="34.9796991" lon="32.7473833">
<ele>1053.00</ele>
<time>2015-04-27T14:00:49Z</time>
</trkpt>
<trkpt lat="34.9796520" lon="32.7474914">
<ele>1051.96</ele>
<time>2015-04-27T14:00:50Z</time>
</trkpt>
<trkpt lat="34.9796006" lon="32.7475956">
<ele>1050.94</ele>
<time>2015-04-27T14:00:51Z</time>
</trkpt>
<trkpt lat="34.9795693" lon="32.7477128">
<ele>1050.43</ele>
<time>2015-04-27T14:00:52Z</time>
</trkpt>
<trkpt lat="34.9795432" lon="32.7478177">
<ele>1050.18</ele>
<time>2015-04-27T14:00:53Z</time>
</trkpt>
<trkpt lat="34.9795283" lon="32.7479252">
<ele>1050.05</ele>
<time>2015-04-27T14:00:54Z</time>
</trkpt>
<trkpt lat="34.9795553" lon="32.7480248">
<ele>1050.99</ele>
<time>2015-04-27T14:00:55Z</time>
</trkpt>
<trkpt lat="34.9795938" lon="32.7481056">
<ele>1050.96</ele>
<time>2015-04-27T14:00:56Z</time>
</trkpt>
<trkpt lat="34.9796487" lon="32.7481752">
<ele>1050.44</ele>
<time>2015-04-27T14:00:57Z</time>
</trkpt>
<trkpt lat="34.9797214" lon="32.7482096">
<ele>1050.18</ele>
<time>2015-04-27T14:00:58Z</time>
</trkpt>
<trkpt lat="34.9798028" lon="32.7482197">
<ele>1049.55</ele>
<time>2015-04-27T14:00:59Z</time>
</trkpt>
<trkpt lat="34.9798832" lon="32.7482255">
<ele>1048.74</ele>
<time>2015-04-27T14:01:00Z</time>
</trkpt>
<trkpt lat="34.9799654" lon="32.7482022">
<ele>1047.83</ele>
<time>2015-04-27T14:01:01Z</time>
</trkpt>
<trkpt lat="34.9800344" lon="32.7481688">
<ele>1046.38</ele>
<time>2015-04-27T14:01:02Z</time>
</trkpt>
<trkpt lat="34.9800885" lon="32.7481074">
<ele>1046.15</ele>
<time>2015-04-27T14:01:03Z</time>
</trkpt>
<trkpt lat="34.9801350" lon="32.7480422">
<ele>1046.04</ele>
<time>2015-04-27T14:01:04Z</time>
</trkpt>
<trkpt lat="34.9801849" lon="32.7479805">
<ele>1046.48</ele>
<time>2015-04-27T14:01:05Z</time>
</trkpt>
<trkpt lat="34.9802256" lon="32.7478760">
<ele>1046.20</ele>
<time>2015-04-27T14:01:06Z</time>
</trkpt>
<trkpt lat="34.9802570" lon="32.7477845">
<ele>1045.56</ele>
<time>2015-04-27T14:01:07Z</time>
</trkpt>
<trkpt lat="34.9802892" lon="32.7476955">
<ele>1045.74</ele>
<time>2015-04-27T14:01:08Z</time>
</trkpt>
<trkpt lat="34.9803223" lon="32.7476027">
<ele>1045.83</ele>
<time>2015-04-27T14:01:09Z</time>
</trkpt>
<trkpt lat="34.9803562" lon="32.7475073">
<ele>1045.38</ele>
<time>2015-04-27T14:01:10Z</time>
</trkpt>
<trkpt lat="34.9803951" lon="32.7474115">
<ele>1045.15</ele>
<time>2015-04-27T14:01:11Z</time>
</trkpt>
<trkpt lat="34.9804414" lon="32.7473180">
<ele>1045.04</ele>
<time>2015-04-27T14:01:12Z</time>
</trkpt>
<trkpt lat="34.9804897" lon="32.7472309">
<ele>1045.48</ele>
<time>2015-04-27T14:01:13Z</time>
</trkpt>
<trkpt lat="34.9805455" lon="32.7471388">
<ele>1045.70</ele>
<time>2015-04-27T14:01:14Z</time>
</trkpt>
<trkpt lat="34.9806017" lon="32.7470581">
<ele>1045.81</ele>
<time>2015-04-27T14:01:15Z</time>
</trkpt>
<trkpt lat="34.9806603" lon="32.7469692">
<ele>1045.37</ele>
<time>2015-04-27T14:01:16Z</time>
</trkpt>
<trkpt lat="34.9807203" lon="32.7468815">
<ele>1045.15</ele>
<time>2015-04-27T14:01:17Z</time>
</trkpt>
<trkpt lat="34.9807936" lon="32.7468113">
<ele>1045.04</ele>
<time>2015-04-27T14:01:18Z</time>
</trkpt>
<trkpt lat="34.9808582" lon="32.7467474">
<ele>1044.48</ele>
<time>2015-04-27T14:01:19Z</time>
</trkpt>
<trkpt lat="34.9809336" lon="32.7466992">
<ele>1043.70</ele>
<time>2015-04-27T14:01:20Z</time>
</trkpt>
<trkpt lat="34.9810034" lon="32.7466831">
<ele>1042.81</ele>
<time>2015-04-27T14:01:21Z</time>
</trkpt>
<trkpt lat="34.9810694" lon="32.7466806">
<ele>1041.87</ele>
<time>2015-04-27T14:01:22Z</time>
</trkpt>
<trkpt lat="34.9811279" lon="32.7467063">
<ele>1041.90</ele>
<time>2015-04-27T14:01:23Z</time>
</trkpt>
<trkpt lat="34.9811791" lon="32.7467410">
<ele>1040.91</ele>
<time>2015-04-27T14:01:24Z</time>
</trkpt>
<trkpt lat="34.9812409" lon="32.7468067">
<ele>1039.92</ele>
<time>2015-04-27T14:01:25Z</time>
</trkpt>
<trkpt lat="34.9812828" lon="32.7469042">
<ele>1039.92</ele>
<time>2015-04-27T14:01:26Z</time>
</trkpt>
<trkpt lat="34.9812897" lon="32.7469916">
<ele>1039.92</ele>
<time>2015-04-27T14:01:27Z</time>
</trkpt>
<trkpt lat="34.9813160" lon="32.7471056">
<ele>1039.92</ele>
<time>2015-04-27T14:01:28Z</time>
</trkpt>
<trkpt lat="34.9813490" lon="32.7471956">
<ele>1039.92</ele>
<time>2015-04-27T14:01:29Z</time>
</trkpt>
<trkpt lat="34.9813777" lon="32.7472901">
<ele>1039.42</ele>
<time>2015-04-27T14:01:30Z</time>
</trkpt>
<trkpt lat="34.9813957" lon="32.7473842">
<ele>1039.17</ele>
<time>2015-04-27T14:01:31Z</time>
</trkpt>
<trkpt lat="34.9814323" lon="32.7474806">
<ele>1039.55</ele>
<time>2015-04-27T14:01:32Z</time>
</trkpt>
<trkpt lat="34.9814530" lon="32.7475772">
<ele>1038.74</ele>
<time>2015-04-27T14:01:33Z</time>
</trkpt>
<trkpt lat="34.9814839" lon="32.7476781">
<ele>1038.83</ele>
<time>2015-04-27T14:01:34Z</time>
</trkpt>
<trkpt lat="34.9815173" lon="32.7477702">
<ele>1038.88</ele>
<time>2015-04-27T14:01:35Z</time>
</trkpt>
<trkpt lat="34.9815539" lon="32.7478732">
<ele>1038.90</ele>
<time>2015-04-27T14:01:36Z</time>
</trkpt>
<trkpt lat="34.9815919" lon="32.7479678">
<ele>1038.41</ele>
<time>2015-04-27T14:01:37Z</time>
</trkpt>
<trkpt lat="34.9816313" lon="32.7480653">
<ele>1037.67</ele>
<time>2015-04-27T14:01:38Z</time>
</trkpt>
<trkpt lat="34.9816716" lon="32.7481674">
<ele>1037.30</ele>
<time>2015-04-27T14:01:39Z</time>
</trkpt>
<trkpt lat="34.9817118" lon="32.7482685">
<ele>1037.11</ele>
<time>2015-04-27T14:01:40Z</time>
</trkpt>
<trkpt lat="34.9817610" lon="32.7483666">
<ele>1036.52</ele>
<time>2015-04-27T14:01:41Z</time>
</trkpt>
<trkpt lat="34.9818107" lon="32.7484546">
<ele>1036.22</ele>
<time>2015-04-27T14:01:42Z</time>
</trkpt>
<trkpt lat="34.9818747" lon="32.7485184">
<ele>1035.57</ele>
<time>2015-04-27T14:01:43Z</time>
</trkpt>
<trkpt lat="34.9819600" lon="32.7485783">
<ele>1033.75</ele>
<time>2015-04-27T14:01:44Z</time>
</trkpt>
<trkpt lat="34.9820318" lon="32.7486282">
<ele>1032.34</ele>
<time>2015-04-27T14:01:45Z</time>
</trkpt>
<trkpt lat="34.9821209" lon="32.7486499">
<ele>1031.13</ele>
<time>2015-04-27T14:01:46Z</time>
</trkpt>
<trkpt lat="34.9822077" lon="32.7486515">
<ele>1031.03</ele>
<time>2015-04-27T14:01:47Z</time>
</trkpt>
<trkpt lat="34.9823041" lon="32.7486584">
<ele>1029.98</ele>
<time>2015-04-27T14:01:48Z</time>
</trkpt>
<trkpt lat="34.9823984" lon="32.7486776">
<ele>1028.45</ele>
<time>2015-04-27T14:01:49Z</time>
</trkpt>
<trkpt lat="34.9824752" lon="32.7487079">
<ele>1027.69</ele>
<time>2015-04-27T14:01:50Z</time>
</trkpt>
<trkpt lat="34.9825546" lon="32.7487632">
<ele>1027.31</ele>
<time>2015-04-27T14:01:51Z</time>
</trkpt>
<trkpt lat="34.9826243" lon="32.7488280">
<ele>1026.62</ele>
<time>2015-04-27T14:01:52Z</time>
</trkpt>
<trkpt lat="34.9826837" lon="32.7489136">
<ele>1026.77</ele>
<time>2015-04-27T14:01:53Z</time>
</trkpt>
<trkpt lat="34.9827556" lon="32.7489925">
<ele>1027.35</ele>
<time>2015-04-27T14:01:54Z</time>
</trkpt>
<trkpt lat="34.9828182" lon="32.7490621">
<ele>1027.64</ele>
<time>2015-04-27T14:01:55Z</time>
</trkpt>
<trkpt lat="34.9829042" lon="32.7491130">
<ele>1027.28</ele>
<time>2015-04-27T14:01:56Z</time>
</trkpt>
<trkpt lat="34.9830002" lon="32.7491461">
<ele>1026.10</ele>
<time>2015-04-27T14:01:57Z</time>
</trkpt>
<trkpt lat="34.9830993" lon="32.7491808">
<ele>1025.01</ele>
<time>2015-04-27T14:01:58Z</time>
</trkpt>
<trkpt lat="34.9831971" lon="32.7492002">
<ele>1023.97</ele>
<time>2015-04-27T14:01:59Z</time>
</trkpt>
<trkpt lat="34.9832873" lon="32.7492290">
<ele>1023.45</ele>
<time>2015-04-27T14:02:00Z</time>
</trkpt>
<trkpt lat="34.9833692" lon="32.7492571">
<ele>1022.69</ele>
<time>2015-04-27T14:02:01Z</time>
</trkpt>
<trkpt lat="34.9834552" lon="32.7492858">
<ele>1021.81</ele>
<time>2015-04-27T14:02:02Z</time>
</trkpt>
<trkpt lat="34.9835406" lon="32.7492978">
<ele>1020.37</ele>
<time>2015-04-27T14:02:03Z</time>
</trkpt>
<trkpt lat="34.9836252" lon="32.7493010">
<ele>1019.65</ele>
<time>2015-04-27T14:02:04Z</time>
</trkpt>
<trkpt lat="34.9837050" lon="32.7492934">
<ele>1018.79</ele>
<time>2015-04-27T14:02:05Z</time>
</trkpt>
<trkpt lat="34.9837920" lon="32.7492620">
<ele>1018.86</ele>
<time>2015-04-27T14:02:06Z</time>
</trkpt>
<trkpt lat="34.9838874" lon="32.7492141">
<ele>1018.39</ele>
<time>2015-04-27T14:02:07Z</time>
</trkpt>
<trkpt lat="34.9839715" lon="32.7491529">
<ele>1017.66</ele>
<time>2015-04-27T14:02:08Z</time>
</trkpt>
<trkpt lat="34.9840255" lon="32.7490995">
<ele>1016.79</ele>
<time>2015-04-27T14:02:09Z</time>
</trkpt>
<trkpt lat="34.9841001" lon="32.7490652">
<ele>1016.36</ele>
<time>2015-04-27T14:02:10Z</time>
</trkpt>
<trkpt lat="34.9841864" lon="32.7490512">
<ele>1016.14</ele>
<time>2015-04-27T14:02:11Z</time>
</trkpt>
<trkpt lat="34.9842856" lon="32.7490597">
<ele>1015.53</ele>
<time>2015-04-27T14:02:12Z</time>
</trkpt>
<trkpt lat="34.9843715" lon="32.7490881">
<ele>1015.23</ele>
<time>2015-04-27T14:02:13Z</time>
</trkpt>
<trkpt lat="34.9844466" lon="32.7491542">
<ele>1014.08</ele>
<time>2015-04-27T14:02:14Z</time>
</trkpt>
<trkpt lat="34.9845167" lon="32.7492133">
<ele>1013.00</ele>
<time>2015-04-27T14:02:15Z</time>
</trkpt>
<trkpt lat="34.9845966" lon="32.7492744">
<ele>1012.46</ele>
<time>2015-04-27T14:02:16Z</time>
</trkpt>
<trkpt lat="34.9846680" lon="32.7493222">
<ele>1011.69</ele>
<time>2015-04-27T14:02:17Z</time>
</trkpt>
<trkpt lat="34.9847450" lon="32.7493474">
<ele>1010.31</ele>
<time>2015-04-27T14:02:18Z</time>
</trkpt>
<trkpt lat="34.9848124" lon="32.7493788">
<ele>1009.62</ele>
<time>2015-04-27T14:02:19Z</time>
</trkpt>
<trkpt lat="34.9848818" lon="32.7493665">
<ele>1009.27</ele>
<time>2015-04-27T14:02:20Z</time>
</trkpt>
<trkpt lat="34.9849581" lon="32.7493311">
<ele>1009.10</ele>
<time>2015-04-27T14:02:21Z</time>
</trkpt>
<trkpt lat="34.9850107" lon="32.7492631">
<ele>1009.51</ele>
<time>2015-04-27T14:02:22Z</time>
</trkpt>
<trkpt lat="34.9850564" lon="32.7491932">
<ele>1009.72</ele>
<time>2015-04-27T14:02:23Z</time>
</trkpt>
<trkpt lat="34.9851187" lon="32.7491113">
<ele>1010.32</ele>
<time>2015-04-27T14:02:24Z</time>
</trkpt>
<trkpt lat="34.9851593" lon="32.7490311">
<ele>1010.62</ele>
<time>2015-04-27T14:02:25Z</time>
</trkpt>
<trkpt lat="34.9851655" lon="32.7489259">
<ele>1010.27</ele>
<time>2015-04-27T14:02:26Z</time>
</trkpt>
<trkpt lat="34.9851758" lon="32.7488117">
<ele>1010.10</ele>
<time>2015-04-27T14:02:27Z</time>
</trkpt>
<trkpt lat="34.9851847" lon="32.7486948">
<ele>1009.51</ele>
<time>2015-04-27T14:02:28Z</time>
</trkpt>
<trkpt lat="34.9851881" lon="32.7485833">
<ele>1009.22</ele>
<time>2015-04-27T14:02:29Z</time>
</trkpt>
<trkpt lat="34.9851849" lon="32.7484709">
<ele>1009.07</ele>
<time>2015-04-27T14:02:30Z</time>
</trkpt>
<trkpt lat="34.9851880" lon="32.7483678">
<ele>1009.00</ele>
<time>2015-04-27T14:02:31Z</time>
</trkpt>
<trkpt lat="34.9851931" lon="32.7482515">
<ele>1008.46</ele>
<time>2015-04-27T14:02:32Z</time>
</trkpt>
<trkpt lat="34.9852040" lon="32.7481370">
<ele>1007.69</ele>
<time>2015-04-27T14:02:33Z</time>
</trkpt>
<trkpt lat="34.9852298" lon="32.7480100">
<ele>1006.81</ele>
<time>2015-04-27T14:02:34Z</time>
</trkpt>
<trkpt lat="34.9852523" lon="32.7478914">
<ele>1006.87</ele>
<time>2015-04-27T14:02:35Z</time>
</trkpt>
<trkpt lat="34.9852690" lon="32.7477673">
<ele>1006.90</ele>
<time>2015-04-27T14:02:36Z</time>
</trkpt>
<trkpt lat="34.9852629" lon="32.7476693">
<ele>1005.91</ele>
<time>2015-04-27T14:02:37Z</time>
</trkpt>
<trkpt lat="34.9852712" lon="32.7475708">
<ele>1004.92</ele>
<time>2015-04-27T14:02:38Z</time>
</trkpt>
<trkpt lat="34.9852877" lon="32.7474884">
<ele>1003.92</ele>
<time>2015-04-27T14:02:39Z</time>
</trkpt>
<trkpt lat="34.9853065" lon="32.7473961">
<ele>1003.42</ele>
<time>2015-04-27T14:02:40Z</time>
</trkpt>
<trkpt lat="34.9853066" lon="32.7473015">
<ele>1003.17</ele>
<time>2015-04-27T14:02:41Z</time>
</trkpt>
<trkpt lat="34.9853046" lon="32.7472006">
<ele>1003.05</ele>
<time>2015-04-27T14:02:42Z</time>
</trkpt>
<trkpt lat="34.9852767" lon="32.7471048">
<ele>1002.49</ele>
<time>2015-04-27T14:02:43Z</time>
</trkpt>
<trkpt lat="34.9852427" lon="32.7470081">
<ele>1001.71</ele>
<time>2015-04-27T14:02:44Z</time>
</trkpt>
<trkpt lat="34.9852129" lon="32.7469124">
<ele>1000.82</ele>
<time>2015-04-27T14:02:45Z</time>
</trkpt>
<trkpt lat="34.9852082" lon="32.7468391">
<ele>999.37</ele>
<time>2015-04-27T14:02:46Z</time>
</trkpt>
<trkpt lat="34.9852340" lon="32.7467771">
<ele>999.15</ele>
<time>2015-04-27T14:02:47Z</time>
</trkpt>
<trkpt lat="34.9853122" lon="32.7467412">
<ele>998.48</ele>
<time>2015-04-27T14:02:49Z</time>
</trkpt>
<trkpt lat="34.9853734" lon="32.7467410">
<ele>997.70</ele>
<time>2015-04-27T14:02:50Z</time>
</trkpt>
<trkpt lat="34.9854363" lon="32.7467537">
<ele>996.81</ele>
<time>2015-04-27T14:02:51Z</time>
</trkpt>
<trkpt lat="34.9855088" lon="32.7467867">
<ele>997.37</ele>
<time>2015-04-27T14:02:52Z</time>
</trkpt>
<trkpt lat="34.9855712" lon="32.7468143">
<ele>997.15</ele>
<time>2015-04-27T14:02:53Z</time>
</trkpt>
<trkpt lat="34.9856420" lon="32.7468471">
<ele>996.54</ele>
<time>2015-04-27T14:02:54Z</time>
</trkpt>
<trkpt lat="34.9857116" lon="32.7468828">
<ele>995.73</ele>
<time>2015-04-27T14:02:55Z</time>
</trkpt>
<trkpt lat="34.9857702" lon="32.7469313">
<ele>994.33</ele>
<time>2015-04-27T14:02:56Z</time>
</trkpt>
<trkpt lat="34.9858356" lon="32.7470001">
<ele>994.13</ele>
<time>2015-04-27T14:02:57Z</time>
</trkpt>
<trkpt lat="34.9858705" lon="32.7470858">
<ele>993.53</ele>
<time>2015-04-27T14:02:58Z</time>
</trkpt>
<trkpt lat="34.9859029" lon="32.7471853">
<ele>993.23</ele>
<time>2015-04-27T14:02:59Z</time>
</trkpt>
<trkpt lat="34.9859058" lon="32.7472949">
<ele>992.58</ele>
<time>2015-04-27T14:03:00Z</time>
</trkpt>
<trkpt lat="34.9859200" lon="32.7474017">
<ele>991.75</ele>
<time>2015-04-27T14:03:01Z</time>
</trkpt>
<trkpt lat="34.9859325" lon="32.7475232">
<ele>991.34</ele>
<time>2015-04-27T14:03:02Z</time>
</trkpt>
<trkpt lat="34.9859393" lon="32.7476385">
<ele>991.13</ele>
<time>2015-04-27T14:03:03Z</time>
</trkpt>
<trkpt lat="34.9859389" lon="32.7477604">
<ele>990.53</ele>
<time>2015-04-27T14:03:04Z</time>
</trkpt>
<trkpt lat="34.9859462" lon="32.7478852">
<ele>990.23</ele>
<time>2015-04-27T14:03:05Z</time>
</trkpt>
<trkpt lat="34.9859780" lon="32.7480268">
<ele>990.08</ele>
<time>2015-04-27T14:03:06Z</time>
</trkpt>
<trkpt lat="34.9859933" lon="32.7481558">
<ele>990.00</ele>
<time>2015-04-27T14:03:07Z</time>
</trkpt>
<trkpt lat="34.9860223" lon="32.7482679">
<ele>989.96</ele>
<time>2015-04-27T14:03:08Z</time>
</trkpt>
<trkpt lat="34.9860523" lon="32.7484193">
<ele>989.94</ele>
<time>2015-04-27T14:03:09Z</time>
</trkpt>
<trkpt lat="34.9860621" lon="32.7485631">
<ele>990.43</ele>
<time>2015-04-27T14:03:10Z</time>
</trkpt>
<trkpt lat="34.9860998" lon="32.7486593">
<ele>990.68</ele>
<time>2015-04-27T14:03:11Z</time>
</trkpt>
<trkpt lat="34.9861297" lon="32.7487792">
<ele>990.30</ele>
<time>2015-04-27T14:03:12Z</time>
</trkpt>
<trkpt lat="34.9861499" lon="32.7489131">
<ele>990.11</ele>
<time>2015-04-27T14:03:13Z</time>
</trkpt>
<trkpt lat="34.9861798" lon="32.7490286">
<ele>990.52</ele>
<time>2015-04-27T14:03:14Z</time>
</trkpt>
<trkpt lat="34.9862144" lon="32.7491572">
<ele>990.72</ele>
<time>2015-04-27T14:03:15Z</time>
</trkpt>
<trkpt lat="34.9862389" lon="32.7492896">
<ele>988.82</ele>
<time>2015-04-27T14:03:16Z</time>
</trkpt>
<trkpt lat="34.9862712" lon="32.7494119">
<ele>987.87</ele>
<time>2015-04-27T14:03:17Z</time>
</trkpt>
<trkpt lat="34.9862936" lon="32.7495391">
<ele>987.40</ele>
<time>2015-04-27T14:03:18Z</time>
</trkpt>
<trkpt lat="34.9863180" lon="32.7496614">
<ele>987.16</ele>
<time>2015-04-27T14:03:19Z</time>
</trkpt>
<trkpt lat="34.9863243" lon="32.7497868">
<ele>987.04</ele>
<time>2015-04-27T14:03:20Z</time>
</trkpt>
<trkpt lat="34.9863267" lon="32.7499014">
<ele>986.48</ele>
<time>2015-04-27T14:03:21Z</time>
</trkpt>
<trkpt lat="34.9863133" lon="32.7500014">
<ele>985.70</ele>
<time>2015-04-27T14:03:22Z</time>
</trkpt>
<trkpt lat="34.9863097" lon="32.7500952">
<ele>984.31</ele>
<time>2015-04-27T14:03:23Z</time>
</trkpt>
<trkpt lat="34.9862801" lon="32.7501756">
<ele>983.62</ele>
<time>2015-04-27T14:03:24Z</time>
</trkpt>
<trkpt lat="34.9862534" lon="32.7502482">
<ele>983.27</ele>
<time>2015-04-27T14:03:25Z</time>
</trkpt>
<trkpt lat="34.9862221" lon="32.7503240">
<ele>982.60</ele>
<time>2015-04-27T14:03:26Z</time>
</trkpt>
<trkpt lat="34.9862127" lon="32.7504048">
<ele>980.26</ele>
<time>2015-04-27T14:03:27Z</time>
</trkpt>
<trkpt lat="34.9861831" lon="32.7504815">
<ele>979.09</ele>
<time>2015-04-27T14:03:28Z</time>
</trkpt>
<trkpt lat="34.9861514" lon="32.7505604">
<ele>978.51</ele>
<time>2015-04-27T14:03:29Z</time>
</trkpt>
<trkpt lat="34.9861098" lon="32.7506335">
<ele>978.22</ele>
<time>2015-04-27T14:03:30Z</time>
</trkpt>
<trkpt lat="34.9860676" lon="32.7507029">
<ele>978.07</ele>
<time>2015-04-27T14:03:31Z</time>
</trkpt>
<trkpt lat="34.9860197" lon="32.7507761">
<ele>978.50</ele>
<time>2015-04-27T14:03:32Z</time>
</trkpt>
<trkpt lat="34.9859742" lon="32.7508456">
<ele>978.21</ele>
<time>2015-04-27T14:03:33Z</time>
</trkpt>
<trkpt lat="34.9859317" lon="32.7509178">
<ele>978.07</ele>
<time>2015-04-27T14:03:34Z</time>
</trkpt>
<trkpt lat="34.9858893" lon="32.7509863">
<ele>978.00</ele>
<time>2015-04-27T14:03:35Z</time>
</trkpt>
<trkpt lat="34.9858518" lon="32.7510566">
<ele>977.96</ele>
<time>2015-04-27T14:03:36Z</time>
</trkpt>
<trkpt lat="34.9858056" lon="32.7511195">
<ele>977.94</ele>
<time>2015-04-27T14:03:37Z</time>
</trkpt>
<trkpt lat="34.9857634" lon="32.7511774">
<ele>977.93</ele>
<time>2015-04-27T14:03:38Z</time>
</trkpt>
<trkpt lat="34.9857232" lon="32.7512329">
<ele>977.93</ele>
<time>2015-04-27T14:03:39Z</time>
</trkpt>
<trkpt lat="34.9856868" lon="32.7512878">
<ele>977.93</ele>
<time>2015-04-27T14:03:40Z</time>
</trkpt>
<trkpt lat="34.9856531" lon="32.7513344">
<ele>977.93</ele>
<time>2015-04-27T14:03:41Z</time>
</trkpt>
<trkpt lat="34.9856208" lon="32.7513911">
<ele>977.93</ele>
<time>2015-04-27T14:03:42Z</time>
</trkpt>
<trkpt lat="34.9855872" lon="32.7514474">
<ele>977.93</ele>
<time>2015-04-27T14:03:43Z</time>
</trkpt>
<trkpt lat="34.9855564" lon="32.7515054">
<ele>977.93</ele>
<time>2015-04-27T14:03:44Z</time>
</trkpt>
<trkpt lat="34.9855393" lon="32.7515658">
<ele>977.93</ele>
<time>2015-04-27T14:03:45Z</time>
</trkpt>
<trkpt lat="34.9855141" lon="32.7516215">
<ele>977.93</ele>
<time>2015-04-27T14:03:46Z</time>
</trkpt>
<trkpt lat="34.9854868" lon="32.7516726">
<ele>977.92</ele>
<time>2015-04-27T14:03:47Z</time>
</trkpt>
<trkpt lat="34.9854707" lon="32.7517420">
<ele>977.42</ele>
<time>2015-04-27T14:03:48Z</time>
</trkpt>
<trkpt lat="34.9854477" lon="32.7518096">
<ele>977.67</ele>
<time>2015-04-27T14:03:49Z</time>
</trkpt>
<trkpt lat="34.9854266" lon="32.7518680">
<ele>977.80</ele>
<time>2015-04-27T14:03:50Z</time>
</trkpt>
<trkpt lat="34.9854062" lon="32.7519271">
<ele>978.36</ele>
<time>2015-04-27T14:03:51Z</time>
</trkpt>
<trkpt lat="34.9854024" lon="32.7519966">
<ele>978.14</ele>
<time>2015-04-27T14:03:52Z</time>
</trkpt>
<trkpt lat="34.9853788" lon="32.7520672">
<ele>978.03</ele>
<time>2015-04-27T14:03:53Z</time>
</trkpt>
<trkpt lat="34.9853499" lon="32.7521201">
<ele>977.98</ele>
<time>2015-04-27T14:03:54Z</time>
</trkpt>
<trkpt lat="34.9853098" lon="32.7521787">
<ele>978.45</ele>
<time>2015-04-27T14:03:55Z</time>
</trkpt>
<trkpt lat="34.9852849" lon="32.7522810">
<ele>976.06</ele>
<time>2015-04-27T14:03:57Z</time>
</trkpt>
<trkpt lat="34.9852244" lon="32.7523530">
<ele>975.96</ele>
<time>2015-04-27T14:03:59Z</time>
</trkpt>
<trkpt lat="34.9851738" lon="32.7523855">
<ele>975.68</ele>
<time>2015-04-27T14:04:01Z</time>
</trkpt>
<trkpt lat="34.9851286" lon="32.7523960">
<ele>977.11</ele>
<time>2015-04-27T14:04:03Z</time>
</trkpt>
<trkpt lat="34.9850738" lon="32.7523968">
<ele>977.72</ele>
<time>2015-04-27T14:04:05Z</time>
</trkpt>
<trkpt lat="34.9850090" lon="32.7524020">
<ele>977.12</ele>
<time>2015-04-27T14:04:07Z</time>
</trkpt>
<trkpt lat="34.9849347" lon="32.7524170">
<ele>977.72</ele>
<time>2015-04-27T14:04:09Z</time>
</trkpt>
<trkpt lat="34.9848587" lon="32.7524217">
<ele>977.87</ele>
<time>2015-04-27T14:04:11Z</time>
</trkpt>
<trkpt lat="34.9847824" lon="32.7524224">
<ele>977.91</ele>
<time>2015-04-27T14:04:13Z</time>
</trkpt>
<trkpt lat="34.9847114" lon="32.7524236">
<ele>977.92</ele>
<time>2015-04-27T14:04:15Z</time>
</trkpt>
<trkpt lat="34.9846538" lon="32.7524353">
<ele>978.42</ele>
<time>2015-04-27T14:04:17Z</time>
</trkpt>
<trkpt lat="34.9846051" lon="32.7524434">
<ele>979.30</ele>
<time>2015-04-27T14:04:19Z</time>
</trkpt>
<trkpt lat="34.9845476" lon="32.7524409">
<ele>980.35</ele>
<time>2015-04-27T14:04:22Z</time>
</trkpt>
<trkpt lat="34.9844811" lon="32.7524556">
<ele>979.98</ele>
<time>2015-04-27T14:04:25Z</time>
</trkpt>
<trkpt lat="34.9844284" lon="32.7524848">
<ele>980.69</ele>
<time>2015-04-27T14:04:27Z</time>
</trkpt>
<trkpt lat="34.9843591" lon="32.7525060">
<ele>979.62</ele>
<time>2015-04-27T14:04:29Z</time>
</trkpt>
<trkpt lat="34.9842851" lon="32.7525246">
<ele>978.35</ele>
<time>2015-04-27T14:04:31Z</time>
</trkpt>
<trkpt lat="34.9842022" lon="32.7525593">
<ele>978.03</ele>
<time>2015-04-27T14:04:33Z</time>
</trkpt>
<trkpt lat="34.9841594" lon="32.7525802">
<ele>978.48</ele>
<time>2015-04-27T14:04:34Z</time>
</trkpt>
<trkpt lat="34.9840754" lon="32.7526222">
<ele>978.81</ele>
<time>2015-04-27T14:04:36Z</time>
</trkpt>
<trkpt lat="34.9840264" lon="32.7526524">
<ele>978.37</ele>
<time>2015-04-27T14:04:37Z</time>
</trkpt>
<trkpt lat="34.9839471" lon="32.7526925">
<ele>977.29</ele>
<time>2015-04-27T14:04:39Z</time>
</trkpt>
<trkpt lat="34.9838780" lon="32.7527312">
<ele>977.52</ele>
<time>2015-04-27T14:04:41Z</time>
</trkpt>
<trkpt lat="34.9838153" lon="32.7527671">
<ele>978.57</ele>
<time>2015-04-27T14:04:43Z</time>
</trkpt>
<trkpt lat="34.9837522" lon="32.7527993">
<ele>979.59</ele>
<time>2015-04-27T14:04:45Z</time>
</trkpt>
<trkpt lat="34.9836823" lon="32.7528318">
<ele>980.59</ele>
<time>2015-04-27T14:04:47Z</time>
</trkpt>
<trkpt lat="34.9836116" lon="32.7528673">
<ele>981.34</ele>
<time>2015-04-27T14:04:49Z</time>
</trkpt>
<trkpt lat="34.9835463" lon="32.7529019">
<ele>981.03</ele>
<time>2015-04-27T14:04:51Z</time>
</trkpt>
<trkpt lat="34.9834773" lon="32.7529369">
<ele>980.95</ele>
<time>2015-04-27T14:04:53Z</time>
</trkpt>
<trkpt lat="34.9833950" lon="32.7529757">
<ele>981.68</ele>
<time>2015-04-27T14:04:55Z</time>
</trkpt>
<trkpt lat="34.9833424" lon="32.7529930">
<ele>981.80</ele>
<time>2015-04-27T14:04:56Z</time>
</trkpt>
<trkpt lat="34.9832798" lon="32.7530245">
<ele>982.39</ele>
<time>2015-04-27T14:04:58Z</time>
</trkpt>
<trkpt lat="34.9832077" lon="32.7530580">
<ele>982.04</ele>
<time>2015-04-27T14:05:00Z</time>
</trkpt>
<trkpt lat="34.9831401" lon="32.7530990">
<ele>981.95</ele>
<time>2015-04-27T14:05:02Z</time>
</trkpt>
<trkpt lat="34.9830621" lon="32.7531410">
<ele>981.93</ele>
<time>2015-04-27T14:05:04Z</time>
</trkpt>
<trkpt lat="34.9829936" lon="32.7531600">
<ele>981.93</ele>
<time>2015-04-27T14:05:06Z</time>
</trkpt>
<trkpt lat="34.9829296" lon="32.7531824">
<ele>981.18</ele>
<time>2015-04-27T14:05:08Z</time>
</trkpt>
<trkpt lat="34.9828622" lon="32.7532080">
<ele>982.49</ele>
<time>2015-04-27T14:05:10Z</time>
</trkpt>
<trkpt lat="34.9827926" lon="32.7532371">
<ele>982.07</ele>
<time>2015-04-27T14:05:12Z</time>
</trkpt>
<trkpt lat="34.9827494" lon="32.7532568">
<ele>982.00</ele>
<time>2015-04-27T14:05:13Z</time>
</trkpt>
<trkpt lat="34.9827072" lon="32.7532769">
<ele>981.96</ele>
<time>2015-04-27T14:05:14Z</time>
</trkpt>
<trkpt lat="34.9826358" lon="32.7533172">
<ele>981.93</ele>
<time>2015-04-27T14:05:16Z</time>
</trkpt>
<trkpt lat="34.9825768" lon="32.7533562">
<ele>982.43</ele>
<time>2015-04-27T14:05:18Z</time>
</trkpt>
<trkpt lat="34.9825236" lon="32.7533976">
<ele>981.49</ele>
<time>2015-04-27T14:05:21Z</time>
</trkpt>
<trkpt lat="34.9824756" lon="32.7534639">
<ele>982.07</ele>
<time>2015-04-27T14:05:23Z</time>
</trkpt>
<trkpt lat="34.9824220" lon="32.7535168">
<ele>983.21</ele>
<time>2015-04-27T14:05:25Z</time>
</trkpt>
<trkpt lat="34.9823617" lon="32.7535685">
<ele>983.50</ele>
<time>2015-04-27T14:05:27Z</time>
</trkpt>
<trkpt lat="34.9823084" lon="32.7536146">
<ele>983.07</ele>
<time>2015-04-27T14:05:29Z</time>
</trkpt>
<trkpt lat="34.9822669" lon="32.7536489">
<ele>983.21</ele>
<time>2015-04-27T14:05:31Z</time>
</trkpt>
<trkpt lat="34.9822212" lon="32.7536817">
<ele>983.71</ele>
<time>2015-04-27T14:05:34Z</time>
</trkpt>
<trkpt lat="34.9821731" lon="32.7537002">
<ele>983.47</ele>
<time>2015-04-27T14:05:38Z</time>
</trkpt>
<trkpt lat="34.9821308" lon="32.7537200">
<ele>983.87</ele>
<time>2015-04-27T14:05:41Z</time>
</trkpt>
<trkpt lat="34.9820887" lon="32.7537412">
<ele>984.66</ele>
<time>2015-04-27T14:05:43Z</time>
</trkpt>
<trkpt lat="34.9820416" lon="32.7537673">
<ele>984.61</ele>
<time>2015-04-27T14:05:45Z</time>
</trkpt>
<trkpt lat="34.9819976" lon="32.7537955">
<ele>984.35</ele>
<time>2015-04-27T14:05:47Z</time>
</trkpt>
<trkpt lat="34.9819562" lon="32.7538255">
<ele>983.53</ele>
<time>2015-04-27T14:05:49Z</time>
</trkpt>
<trkpt lat="34.9819134" lon="32.7538554">
<ele>983.83</ele>
<time>2015-04-27T14:05:51Z</time>
</trkpt>
<trkpt lat="34.9818720" lon="32.7538879">
<ele>983.90</ele>
<time>2015-04-27T14:05:53Z</time>
</trkpt>
<trkpt lat="34.9818328" lon="32.7539225">
<ele>983.92</ele>
<time>2015-04-27T14:05:55Z</time>
</trkpt>
<trkpt lat="34.9817952" lon="32.7539593">
<ele>984.42</ele>
<time>2015-04-27T14:05:57Z</time>
</trkpt>
<trkpt lat="34.9817578" lon="32.7539949">
<ele>985.30</ele>
<time>2015-04-27T14:05:59Z</time>
</trkpt>
<trkpt lat="34.9817199" lon="32.7540290">
<ele>985.52</ele>
<time>2015-04-27T14:06:01Z</time>
</trkpt>
<trkpt lat="34.9816816" lon="32.7540638">
<ele>986.57</ele>
<time>2015-04-27T14:06:03Z</time>
</trkpt>
<trkpt lat="34.9816406" lon="32.7540943">
<ele>986.59</ele>
<time>2015-04-27T14:06:05Z</time>
</trkpt>
<trkpt lat="34.9816045" lon="32.7541295">
<ele>986.84</ele>
<time>2015-04-27T14:06:07Z</time>
</trkpt>
<trkpt lat="34.9815691" lon="32.7541683">
<ele>987.65</ele>
<time>2015-04-27T14:06:09Z</time>
</trkpt>
<trkpt lat="34.9815330" lon="32.7542054">
<ele>987.86</ele>
<time>2015-04-27T14:06:11Z</time>
</trkpt>
<trkpt lat="34.9814966" lon="32.7542404">
<ele>988.66</ele>
<time>2015-04-27T14:06:13Z</time>
</trkpt>
<trkpt lat="34.9814587" lon="32.7542720">
<ele>989.36</ele>
<time>2015-04-27T14:06:15Z</time>
</trkpt>
<trkpt lat="34.9814202" lon="32.7543040">
<ele>989.78</ele>
<time>2015-04-27T14:06:17Z</time>
</trkpt>
<trkpt lat="34.9813832" lon="32.7543372">
<ele>989.89</ele>
<time>2015-04-27T14:06:19Z</time>
</trkpt>
<trkpt lat="34.9813446" lon="32.7543658">
<ele>989.92</ele>
<time>2015-04-27T14:06:21Z</time>
</trkpt>
<trkpt lat="34.9812913" lon="32.7544154">
<ele>991.55</ele>
<time>2015-04-27T14:06:24Z</time>
</trkpt>
<trkpt lat="34.9812387" lon="32.7544608">
<ele>991.25</ele>
<time>2015-04-27T14:06:27Z</time>
</trkpt>
<trkpt lat="34.9811777" lon="32.7544893">
<ele>991.47</ele>
<time>2015-04-27T14:06:30Z</time>
</trkpt>
<trkpt lat="34.9811193" lon="32.7545159">
<ele>990.99</ele>
<time>2015-04-27T14:06:33Z</time>
</trkpt>
<trkpt lat="34.9810619" lon="32.7545521">
<ele>990.93</ele>
<time>2015-04-27T14:06:36Z</time>
</trkpt>
<trkpt lat="34.9810030" lon="32.7545724">
<ele>990.93</ele>
<time>2015-04-27T14:06:39Z</time>
</trkpt>
<trkpt lat="34.9809440" lon="32.7545761">
<ele>991.43</ele>
<time>2015-04-27T14:06:42Z</time>
</trkpt>
<trkpt lat="34.9808944" lon="32.7546123">
<ele>991.89</ele>
<time>2015-04-27T14:06:46Z</time>
</trkpt>
<trkpt lat="34.9808643" lon="32.7546644">
<ele>991.92</ele>
<time>2015-04-27T14:06:49Z</time>
</trkpt>
<trkpt lat="34.9808318" lon="32.7547253">
<ele>991.92</ele>
<time>2015-04-27T14:06:52Z</time>
</trkpt>
<trkpt lat="34.9808059" lon="32.7547960">
<ele>992.42</ele>
<time>2015-04-27T14:06:55Z</time>
</trkpt>
<trkpt lat="34.9807750" lon="32.7548732">
<ele>993.36</ele>
<time>2015-04-27T14:06:58Z</time>
</trkpt>
<trkpt lat="34.9807557" lon="32.7549283">
<ele>993.78</ele>
<time>2015-04-27T14:07:00Z</time>
</trkpt>
<trkpt lat="34.9807378" lon="32.7549832">
<ele>993.89</ele>
<time>2015-04-27T14:07:02Z</time>
</trkpt>
<trkpt lat="34.9807093" lon="32.7550310">
<ele>993.92</ele>
<time>2015-04-27T14:07:04Z</time>
</trkpt>
<trkpt lat="34.9806900" lon="32.7550813">
<ele>993.92</ele>
<time>2015-04-27T14:07:06Z</time>
</trkpt>
<trkpt lat="34.9806837" lon="32.7551549">
<ele>993.92</ele>
<time>2015-04-27T14:07:09Z</time>
</trkpt>
<trkpt lat="34.9806572" lon="32.7552174">
<ele>993.55</ele>
<time>2015-04-27T14:07:12Z</time>
</trkpt>
<trkpt lat="34.9806576" lon="32.7552851">
<ele>993.00</ele>
<time>2015-04-27T14:07:15Z</time>
</trkpt>
<trkpt lat="34.9806676" lon="32.7553578">
<ele>992.43</ele>
<time>2015-04-27T14:07:18Z</time>
</trkpt>
<trkpt lat="34.9806841" lon="32.7554094">
<ele>992.80</ele>
<time>2015-04-27T14:07:20Z</time>
</trkpt>
<trkpt lat="34.9806937" lon="32.7554851">
<ele>994.16</ele>
<time>2015-04-27T14:07:23Z</time>
</trkpt>
<trkpt lat="34.9807128" lon="32.7555601">
<ele>993.33</ele>
<time>2015-04-27T14:07:26Z</time>
</trkpt>
<trkpt lat="34.9807118" lon="32.7556363">
<ele>994.48</ele>
<time>2015-04-27T14:07:29Z</time>
</trkpt>
<trkpt lat="34.9807328" lon="32.7557146">
<ele>995.24</ele>
<time>2015-04-27T14:07:32Z</time>
</trkpt>
<trkpt lat="34.9807401" lon="32.7557915">
<ele>994.34</ele>
<time>2015-04-27T14:07:35Z</time>
</trkpt>
<trkpt lat="34.9807293" lon="32.7558685">
<ele>994.35</ele>
<time>2015-04-27T14:07:38Z</time>
</trkpt>
<trkpt lat="34.9807088" lon="32.7559431">
<ele>995.10</ele>
<time>2015-04-27T14:07:41Z</time>
</trkpt>
<trkpt lat="34.9807067" lon="32.7559994">
<ele>994.22</ele>
<time>2015-04-27T14:07:43Z</time>
</trkpt>
<trkpt lat="34.9807000" lon="32.7560552">
<ele>994.00</ele>
<time>2015-04-27T14:07:45Z</time>
</trkpt>
<trkpt lat="34.9806886" lon="32.7561094">
<ele>993.19</ele>
<time>2015-04-27T14:07:47Z</time>
</trkpt>
<trkpt lat="34.9806779" lon="32.7561638">
<ele>992.99</ele>
<time>2015-04-27T14:07:49Z</time>
</trkpt>
<trkpt lat="34.9806536" lon="32.7562402">
<ele>991.56</ele>
<time>2015-04-27T14:07:52Z</time>
</trkpt>
<trkpt lat="34.9806308" lon="32.7562888">
<ele>991.08</ele>
<time>2015-04-27T14:07:54Z</time>
</trkpt>
<trkpt lat="34.9806163" lon="32.7563413">
<ele>989.96</ele>
<time>2015-04-27T14:07:56Z</time>
</trkpt>
<trkpt lat="34.9806169" lon="32.7564008">
<ele>990.68</ele>
<time>2015-04-27T14:07:58Z</time>
</trkpt>
<trkpt lat="34.9806139" lon="32.7564579">
<ele>991.61</ele>
<time>2015-04-27T14:08:00Z</time>
</trkpt>
<trkpt lat="34.9805997" lon="32.7565108">
<ele>991.85</ele>
<time>2015-04-27T14:08:02Z</time>
</trkpt>
<trkpt lat="34.9805889" lon="32.7565658">
<ele>992.66</ele>
<time>2015-04-27T14:08:04Z</time>
</trkpt>
<trkpt lat="34.9805731" lon="32.7566177">
<ele>992.86</ele>
<time>2015-04-27T14:08:06Z</time>
</trkpt>
<trkpt lat="34.9805632" lon="32.7566966">
<ele>993.29</ele>
<time>2015-04-27T14:08:09Z</time>
</trkpt>
<trkpt lat="34.9805560" lon="32.7567758">
<ele>992.10</ele>
<time>2015-04-27T14:08:12Z</time>
</trkpt>
<trkpt lat="34.9805426" lon="32.7568511">
<ele>993.20</ele>
<time>2015-04-27T14:08:15Z</time>
</trkpt>
<trkpt lat="34.9805246" lon="32.7569261">
<ele>993.83</ele>
<time>2015-04-27T14:08:18Z</time>
</trkpt>
<trkpt lat="34.9805061" lon="32.7569855">
<ele>993.91</ele>
<time>2015-04-27T14:08:21Z</time>
</trkpt>
<trkpt lat="34.9804956" lon="32.7570401">
<ele>993.92</ele>
<time>2015-04-27T14:08:25Z</time>
</trkpt>
<trkpt lat="34.9804666" lon="32.7570979">
<ele>995.05</ele>
<time>2015-04-27T14:08:29Z</time>
</trkpt>
<trkpt lat="34.9804364" lon="32.7571625">
<ele>995.46</ele>
<time>2015-04-27T14:08:31Z</time>
</trkpt>
<trkpt lat="34.9804087" lon="32.7572269">
<ele>995.31</ele>
<time>2015-04-27T14:08:33Z</time>
</trkpt>
<trkpt lat="34.9803888" lon="32.7572852">
<ele>995.02</ele>
<time>2015-04-27T14:08:35Z</time>
</trkpt>
<trkpt lat="34.9803645" lon="32.7573437">
<ele>995.81</ele>
<time>2015-04-27T14:08:38Z</time>
</trkpt>
<trkpt lat="34.9803415" lon="32.7574080">
<ele>995.91</ele>
<time>2015-04-27T14:08:41Z</time>
</trkpt>
<trkpt lat="34.9803281" lon="32.7574826">
<ele>995.05</ele>
<time>2015-04-27T14:08:44Z</time>
</trkpt>
<trkpt lat="34.9803136" lon="32.7575537">
<ele>994.94</ele>
<time>2015-04-27T14:08:47Z</time>
</trkpt>
<trkpt lat="34.9803050" lon="32.7576355">
<ele>997.68</ele>
<time>2015-04-27T14:08:50Z</time>
</trkpt>
<trkpt lat="34.9803038" lon="32.7576993">
<ele>998.36</ele>
<time>2015-04-27T14:08:52Z</time>
</trkpt>
<trkpt lat="34.9803004" lon="32.7577609">
<ele>998.53</ele>
<time>2015-04-27T14:08:54Z</time>
</trkpt>
<trkpt lat="34.9803018" lon="32.7578220">
<ele>1000.08</ele>
<time>2015-04-27T14:08:56Z</time>
</trkpt>
<trkpt lat="34.9803070" lon="32.7578848">
<ele>1001.46</ele>
<time>2015-04-27T14:08:58Z</time>
</trkpt>
<trkpt lat="34.9803137" lon="32.7579538">
<ele>1002.23</ele>
<time>2015-04-27T14:09:00Z</time>
</trkpt>
<trkpt lat="34.9803190" lon="32.7580185">
<ele>1001.38</ele>
<time>2015-04-27T14:09:02Z</time>
</trkpt>
<trkpt lat="34.9803059" lon="32.7580774">
<ele>1000.41</ele>
<time>2015-04-27T14:09:04Z</time>
</trkpt>
<trkpt lat="34.9802999" lon="32.7581395">
<ele>999.92</ele>
<time>2015-04-27T14:09:06Z</time>
</trkpt>
<trkpt lat="34.9802979" lon="32.7581980">
<ele>1000.55</ele>
<time>2015-04-27T14:09:08Z</time>
</trkpt>
<trkpt lat="34.9802897" lon="32.7582553">
<ele>1001.23</ele>
<time>2015-04-27T14:09:11Z</time>
</trkpt>
<trkpt lat="34.9802671" lon="32.7583383">
<ele>1004.07</ele>
<time>2015-04-27T14:09:14Z</time>
</trkpt>
<trkpt lat="34.9802551" lon="32.7584033">
<ele>1003.09</ele>
<time>2015-04-27T14:09:16Z</time>
</trkpt>
<trkpt lat="34.9802513" lon="32.7584811">
<ele>1001.93</ele>
<time>2015-04-27T14:09:19Z</time>
</trkpt>
<trkpt lat="34.9802472" lon="32.7585541">
<ele>1001.16</ele>
<time>2015-04-27T14:09:22Z</time>
</trkpt>
<trkpt lat="34.9802277" lon="32.7586266">
<ele>1000.93</ele>
<time>2015-04-27T14:09:25Z</time>
</trkpt>
<trkpt lat="34.9802193" lon="32.7586821">
<ele>1000.80</ele>
<time>2015-04-27T14:09:27Z</time>
</trkpt>
<trkpt lat="34.9802085" lon="32.7587557">
<ele>1002.02</ele>
<time>2015-04-27T14:09:30Z</time>
</trkpt>
<trkpt lat="34.9801972" lon="32.7588192">
<ele>1001.53</ele>
<time>2015-04-27T14:09:34Z</time>
</trkpt>
<trkpt lat="34.9801811" lon="32.7588868">
<ele>1000.86</ele>
<time>2015-04-27T14:09:37Z</time>
</trkpt>
<trkpt lat="34.9801759" lon="32.7589530">
<ele>999.14</ele>
<time>2015-04-27T14:09:42Z</time>
</trkpt>
<trkpt lat="34.9801692" lon="32.7590257">
<ele>998.06</ele>
<time>2015-04-27T14:09:45Z</time>
</trkpt>
<trkpt lat="34.9801769" lon="32.7590953">
<ele>998.33</ele>
<time>2015-04-27T14:09:47Z</time>
</trkpt>
<trkpt lat="34.9801936" lon="32.7591572">
<ele>999.40</ele>
<time>2015-04-27T14:09:49Z</time>
</trkpt>
<trkpt lat="34.9802086" lon="32.7592137">
<ele>999.72</ele>
<time>2015-04-27T14:09:52Z</time>
</trkpt>
<trkpt lat="34.9802228" lon="32.7592818">
<ele>1000.38</ele>
<time>2015-04-27T14:09:55Z</time>
</trkpt>
<trkpt lat="34.9802354" lon="32.7593615">
<ele>999.71</ele>
<time>2015-04-27T14:09:58Z</time>
</trkpt>
<trkpt lat="34.9802528" lon="32.7594295">
<ele>998.63</ele>
<time>2015-04-27T14:10:01Z</time>
</trkpt>
<trkpt lat="34.9802750" lon="32.7594933">
<ele>999.38</ele>
<time>2015-04-27T14:10:05Z</time>
</trkpt>
<trkpt lat="34.9803138" lon="32.7595608">
<ele>999.96</ele>
<time>2015-04-27T14:10:08Z</time>
</trkpt>
<trkpt lat="34.9803501" lon="32.7596271">
<ele>999.79</ele>
<time>2015-04-27T14:10:11Z</time>
</trkpt>
<trkpt lat="34.9803772" lon="32.7596724">
<ele>1000.52</ele>
<time>2015-04-27T14:10:13Z</time>
</trkpt>
<trkpt lat="34.9804070" lon="32.7597172">
<ele>1000.70</ele>
<time>2015-04-27T14:10:15Z</time>
</trkpt>
<trkpt lat="34.9804357" lon="32.7597631">
<ele>1001.50</ele>
<time>2015-04-27T14:10:18Z</time>
</trkpt>
<trkpt lat="34.9804801" lon="32.7598231">
<ele>1001.74</ele>
<time>2015-04-27T14:10:22Z</time>
</trkpt>
<trkpt lat="34.9805187" lon="32.7598618">
<ele>1003.01</ele>
<time>2015-04-27T14:10:24Z</time>
</trkpt>
<trkpt lat="34.9805698" lon="32.7598956">
<ele>1003.29</ele>
<time>2015-04-27T14:10:27Z</time>
</trkpt>
<trkpt lat="34.9806235" lon="32.7599305">
<ele>1004.45</ele>
<time>2015-04-27T14:10:30Z</time>
</trkpt>
<trkpt lat="34.9806783" lon="32.7599619">
<ele>1005.22</ele>
<time>2015-04-27T14:10:33Z</time>
</trkpt>
<trkpt lat="34.9807275" lon="32.7599869">
<ele>1005.57</ele>
<time>2015-04-27T14:10:36Z</time>
</trkpt>
<trkpt lat="34.9807749" lon="32.7600206">
<ele>1006.24</ele>
<time>2015-04-27T14:10:39Z</time>
</trkpt>
<trkpt lat="34.9808253" lon="32.7600576">
<ele>1005.94</ele>
<time>2015-04-27T14:10:42Z</time>
</trkpt>
<trkpt lat="34.9808908" lon="32.7600994">
<ele>1004.91</ele>
<time>2015-04-27T14:10:45Z</time>
</trkpt>
<trkpt lat="34.9809459" lon="32.7601355">
<ele>1005.30</ele>
<time>2015-04-27T14:10:47Z</time>
</trkpt>
<trkpt lat="34.9809927" lon="32.7601818">
<ele>1004.89</ele>
<time>2015-04-27T14:10:49Z</time>
</trkpt>
<trkpt lat="34.9810376" lon="32.7602249">
<ele>1004.79</ele>
<time>2015-04-27T14:10:51Z</time>
</trkpt>
<trkpt lat="34.9810791" lon="32.7602602">
<ele>1004.89</ele>
<time>2015-04-27T14:10:54Z</time>
</trkpt>
<trkpt lat="34.9811094" lon="32.7603142">
<ele>1003.96</ele>
<time>2015-04-27T14:10:58Z</time>
</trkpt>
<trkpt lat="34.9811450" lon="32.7603504">
<ele>1004.66</ele>
<time>2015-04-27T14:11:01Z</time>
</trkpt>
<trkpt lat="34.9811736" lon="32.7604075">
<ele>1004.75</ele>
<time>2015-04-27T14:11:05Z</time>
</trkpt>
<trkpt lat="34.9811980" lon="32.7604540">
<ele>1003.76</ele>
<time>2015-04-27T14:11:08Z</time>
</trkpt>
<trkpt lat="34.9812315" lon="32.7605287">
<ele>1003.76</ele>
<time>2015-04-27T14:11:11Z</time>
</trkpt>
<trkpt lat="34.9812619" lon="32.7605842">
<ele>1003.76</ele>
<time>2015-04-27T14:11:13Z</time>
</trkpt>
<trkpt lat="34.9813027" lon="32.7606456">
<ele>1004.51</ele>
<time>2015-04-27T14:11:15Z</time>
</trkpt>
<trkpt lat="34.9813347" lon="32.7607005">
<ele>1005.45</ele>
<time>2015-04-27T14:11:17Z</time>
</trkpt>
<trkpt lat="34.9813516" lon="32.7607651">
<ele>1006.60</ele>
<time>2015-04-27T14:11:20Z</time>
</trkpt>
<trkpt lat="34.9813669" lon="32.7608200">
<ele>1007.49</ele>
<time>2015-04-27T14:11:23Z</time>
</trkpt>
<trkpt lat="34.9813767" lon="32.7608897">
<ele>1008.10</ele>
<time>2015-04-27T14:11:26Z</time>
</trkpt>
<trkpt lat="34.9813989" lon="32.7609645">
<ele>1008.60</ele>
<time>2015-04-27T14:11:28Z</time>
</trkpt>
<trkpt lat="34.9814250" lon="32.7610364">
<ele>1008.97</ele>
<time>2015-04-27T14:11:30Z</time>
</trkpt>
<trkpt lat="34.9814506" lon="32.7611043">
<ele>1009.56</ele>
<time>2015-04-27T14:11:32Z</time>
</trkpt>
<trkpt lat="34.9814736" lon="32.7611694">
<ele>1009.21</ele>
<time>2015-04-27T14:11:34Z</time>
</trkpt>
<trkpt lat="34.9815064" lon="32.7612302">
<ele>1009.37</ele>
<time>2015-04-27T14:11:36Z</time>
</trkpt>
<trkpt lat="34.9815447" lon="32.7612896">
<ele>1008.41</ele>
<time>2015-04-27T14:11:38Z</time>
</trkpt>
<trkpt lat="34.9815928" lon="32.7613322">
<ele>1007.92</ele>
<time>2015-04-27T14:11:40Z</time>
</trkpt>
<trkpt lat="34.9816348" lon="32.7613656">
<ele>1006.05</ele>
<time>2015-04-27T14:11:42Z</time>
</trkpt>
<trkpt lat="34.9816713" lon="32.7614045">
<ele>1005.05</ele>
<time>2015-04-27T14:11:45Z</time>
</trkpt>
<trkpt lat="34.9817142" lon="32.7614697">
<ele>1005.67</ele>
<time>2015-04-27T14:11:48Z</time>
</trkpt>
<trkpt lat="34.9817409" lon="32.7615176">
<ele>1006.99</ele>
<time>2015-04-27T14:11:50Z</time>
</trkpt>
<trkpt lat="34.9817657" lon="32.7615648">
<ele>1006.82</ele>
<time>2015-04-27T14:11:52Z</time>
</trkpt>
<trkpt lat="34.9817894" lon="32.7616224">
<ele>1007.27</ele>
<time>2015-04-27T14:11:54Z</time>
</trkpt>
<trkpt lat="34.9818195" lon="32.7617075">
<ele>1006.89</ele>
<time>2015-04-27T14:11:56Z</time>
</trkpt>
<trkpt lat="34.9818445" lon="32.7617940">
<ele>1007.04</ele>
<time>2015-04-27T14:11:58Z</time>
</trkpt>
<trkpt lat="34.9818662" lon="32.7618803">
<ele>1006.83</ele>
<time>2015-04-27T14:12:00Z</time>
</trkpt>
<trkpt lat="34.9818936" lon="32.7619684">
<ele>1006.03</ele>
<time>2015-04-27T14:12:02Z</time>
</trkpt>
<trkpt lat="34.9819371" lon="32.7620609">
<ele>1005.83</ele>
<time>2015-04-27T14:12:04Z</time>
</trkpt>
<trkpt lat="34.9819894" lon="32.7621456">
<ele>1006.53</ele>
<time>2015-04-27T14:12:06Z</time>
</trkpt>
<trkpt lat="34.9820438" lon="32.7622231">
<ele>1006.70</ele>
<time>2015-04-27T14:12:08Z</time>
</trkpt>
<trkpt lat="34.9820962" lon="32.7622894">
<ele>1007.50</ele>
<time>2015-04-27T14:12:10Z</time>
</trkpt>
<trkpt lat="34.9821446" lon="32.7623497">
<ele>1008.94</ele>
<time>2015-04-27T14:12:12Z</time>
</trkpt>
<trkpt lat="34.9821862" lon="32.7624110">
<ele>1010.06</ele>
<time>2015-04-27T14:12:14Z</time>
</trkpt>
<trkpt lat="34.9822125" lon="32.7624695">
<ele>1010.58</ele>
<time>2015-04-27T14:12:16Z</time>
</trkpt>
<trkpt lat="34.9822361" lon="32.7625287">
<ele>1012.11</ele>
<time>2015-04-27T14:12:19Z</time>
</trkpt>
<trkpt lat="34.9822476" lon="32.7625834">
<ele>1013.43</ele>
<time>2015-04-27T14:12:22Z</time>
</trkpt>
<trkpt lat="34.9822182" lon="32.7626461">
<ele>1013.36</ele>
<time>2015-04-27T14:12:26Z</time>
</trkpt>
<trkpt lat="34.9821881" lon="32.7626925">
<ele>1013.59</ele>
<time>2015-04-27T14:12:29Z</time>
</trkpt>
<trkpt lat="34.9821378" lon="32.7627230">
<ele>1013.36</ele>
<time>2015-04-27T14:12:32Z</time>
</trkpt>
<trkpt lat="34.9820919" lon="32.7627200">
<ele>1013.76</ele>
<time>2015-04-27T14:14:20Z</time>
</trkpt>
<trkpt lat="34.9820302" lon="32.7626986">
<ele>1013.78</ele>
<time>2015-04-27T14:14:49Z</time>
</trkpt>
<trkpt lat="34.9819742" lon="32.7626941">
<ele>1013.26</ele>
<time>2015-04-27T14:14:51Z</time>
</trkpt>
<trkpt lat="34.9819021" lon="32.7626825">
<ele>1013.64</ele>
<time>2015-04-27T14:14:53Z</time>
</trkpt>
<trkpt lat="34.9818576" lon="32.7626733">
<ele>1013.20</ele>
<time>2015-04-27T14:14:54Z</time>
</trkpt>
<trkpt lat="34.9818118" lon="32.7626647">
<ele>1012.48</ele>
<time>2015-04-27T14:14:55Z</time>
</trkpt>
<trkpt lat="34.9817602" lon="32.7626583">
<ele>1012.12</ele>
<time>2015-04-27T14:14:56Z</time>
</trkpt>
<trkpt lat="34.9817039" lon="32.7626554">
<ele>1011.44</ele>
<time>2015-04-27T14:14:57Z</time>
</trkpt>
<trkpt lat="34.9816468" lon="32.7626584">
<ele>1011.10</ele>
<time>2015-04-27T14:14:58Z</time>
</trkpt>
<trkpt lat="34.9815879" lon="32.7626748">
<ele>1010.93</ele>
<time>2015-04-27T14:14:59Z</time>
</trkpt>
<trkpt lat="34.9815258" lon="32.7626956">
<ele>1010.84</ele>
<time>2015-04-27T14:15:00Z</time>
</trkpt>
<trkpt lat="34.9814640" lon="32.7627175">
<ele>1010.80</ele>
<time>2015-04-27T14:15:01Z</time>
</trkpt>
<trkpt lat="34.9813957" lon="32.7627345">
<ele>1010.28</ele>
<time>2015-04-27T14:15:02Z</time>
</trkpt>
<trkpt lat="34.9813312" lon="32.7627466">
<ele>1010.02</ele>
<time>2015-04-27T14:15:03Z</time>
</trkpt>
<trkpt lat="34.9812610" lon="32.7627568">
<ele>1009.39</ele>
<time>2015-04-27T14:15:04Z</time>
</trkpt>
<trkpt lat="34.9811976" lon="32.7627438">
<ele>1009.58</ele>
<time>2015-04-27T14:15:05Z</time>
</trkpt>
<trkpt lat="34.9811285" lon="32.7627086">
<ele>1009.17</ele>
<time>2015-04-27T14:15:06Z</time>
</trkpt>
<trkpt lat="34.9810731" lon="32.7626485">
<ele>1008.96</ele>
<time>2015-04-27T14:15:07Z</time>
</trkpt>
<trkpt lat="34.9810284" lon="32.7625741">
<ele>1008.86</ele>
<time>2015-04-27T14:15:08Z</time>
</trkpt>
<trkpt lat="34.9809906" lon="32.7624902">
<ele>1008.31</ele>
<time>2015-04-27T14:15:09Z</time>
</trkpt>
<trkpt lat="34.9809609" lon="32.7623982">
<ele>1008.04</ele>
<time>2015-04-27T14:15:10Z</time>
</trkpt>
<trkpt lat="34.9809368" lon="32.7623073">
<ele>1007.90</ele>
<time>2015-04-27T14:15:11Z</time>
</trkpt>
<trkpt lat="34.9809169" lon="32.7622062">
<ele>1007.33</ele>
<time>2015-04-27T14:15:12Z</time>
</trkpt>
<trkpt lat="34.9808988" lon="32.7621093">
<ele>1007.04</ele>
<time>2015-04-27T14:15:13Z</time>
</trkpt>
<trkpt lat="34.9808624" lon="32.7620109">
<ele>1006.40</ele>
<time>2015-04-27T14:15:14Z</time>
</trkpt>
<trkpt lat="34.9808219" lon="32.7619107">
<ele>1006.08</ele>
<time>2015-04-27T14:15:15Z</time>
</trkpt>
<trkpt lat="34.9807716" lon="32.7618215">
<ele>1005.92</ele>
<time>2015-04-27T14:15:16Z</time>
</trkpt>
<trkpt lat="34.9807256" lon="32.7617358">
<ele>1005.34</ele>
<time>2015-04-27T14:15:17Z</time>
</trkpt>
<trkpt lat="34.9806765" lon="32.7616404">
<ele>1004.05</ele>
<time>2015-04-27T14:15:18Z</time>
</trkpt>
<trkpt lat="34.9806241" lon="32.7615637">
<ele>1003.41</ele>
<time>2015-04-27T14:15:19Z</time>
</trkpt>
<trkpt lat="34.9805556" lon="32.7614818">
<ele>1003.08</ele>
<time>2015-04-27T14:15:20Z</time>
</trkpt>
<trkpt lat="34.9804813" lon="32.7614164">
<ele>1002.42</ele>
<time>2015-04-27T14:15:21Z</time>
</trkpt>
<trkpt lat="34.9804171" lon="32.7613532">
<ele>1002.09</ele>
<time>2015-04-27T14:15:22Z</time>
</trkpt>
<trkpt lat="34.9803292" lon="32.7613294">
<ele>1001.93</ele>
<time>2015-04-27T14:15:23Z</time>
</trkpt>
<trkpt lat="34.9802375" lon="32.7613157">
<ele>1001.34</ele>
<time>2015-04-27T14:15:24Z</time>
</trkpt>
<trkpt lat="34.9801366" lon="32.7613237">
<ele>1001.05</ele>
<time>2015-04-27T14:15:25Z</time>
</trkpt>
<trkpt lat="34.9800389" lon="32.7613429">
<ele>1000.91</ele>
<time>2015-04-27T14:15:26Z</time>
</trkpt>
<trkpt lat="34.9799500" lon="32.7613861">
<ele>1000.33</ele>
<time>2015-04-27T14:15:27Z</time>
</trkpt>
<trkpt lat="34.9798774" lon="32.7614620">
<ele>1000.05</ele>
<time>2015-04-27T14:15:28Z</time>
</trkpt>
<trkpt lat="34.9798113" lon="32.7615450">
<ele>999.90</ele>
<time>2015-04-27T14:15:29Z</time>
</trkpt>
<trkpt lat="34.9797624" lon="32.7616459">
<ele>999.83</ele>
<time>2015-04-27T14:15:30Z</time>
</trkpt>
<trkpt lat="34.9797112" lon="32.7617429">
<ele>999.80</ele>
<time>2015-04-27T14:15:31Z</time>
</trkpt>
<trkpt lat="34.9796605" lon="32.7618376">
<ele>999.78</ele>
<time>2015-04-27T14:15:32Z</time>
</trkpt>
<trkpt lat="34.9796062" lon="32.7619394">
<ele>999.77</ele>
<time>2015-04-27T14:15:33Z</time>
</trkpt>
<trkpt lat="34.9795511" lon="32.7620442">
<ele>1000.26</ele>
<time>2015-04-27T14:15:34Z</time>
</trkpt>
<trkpt lat="34.9795009" lon="32.7621492">
<ele>999.51</ele>
<time>2015-04-27T14:15:35Z</time>
</trkpt>
<trkpt lat="34.9794544" lon="32.7622553">
<ele>999.14</ele>
<time>2015-04-27T14:15:36Z</time>
</trkpt>
<trkpt lat="34.9794098" lon="32.7623567">
<ele>998.45</ele>
<time>2015-04-27T14:15:37Z</time>
</trkpt>
<trkpt lat="34.9793563" lon="32.7624490">
<ele>997.60</ele>
<time>2015-04-27T14:15:38Z</time>
</trkpt>
<trkpt lat="34.9793039" lon="32.7625313">
<ele>997.18</ele>
<time>2015-04-27T14:15:39Z</time>
</trkpt>
<trkpt lat="34.9792358" lon="32.7626130">
<ele>996.97</ele>
<time>2015-04-27T14:15:40Z</time>
</trkpt>
<trkpt lat="34.9791393" lon="32.7626502">
<ele>996.87</ele>
<time>2015-04-27T14:15:41Z</time>
</trkpt>
<trkpt lat="34.9790365" lon="32.7626626">
<ele>996.31</ele>
<time>2015-04-27T14:15:42Z</time>
</trkpt>
<trkpt lat="34.9789445" lon="32.7627053">
<ele>995.54</ele>
<time>2015-04-27T14:15:43Z</time>
</trkpt>
<trkpt lat="34.9788478" lon="32.7627363">
<ele>995.15</ele>
<time>2015-04-27T14:15:44Z</time>
</trkpt>
<trkpt lat="34.9787640" lon="32.7627963">
<ele>994.95</ele>
<time>2015-04-27T14:15:45Z</time>
</trkpt>
<trkpt lat="34.9786773" lon="32.7628554">
<ele>993.86</ele>
<time>2015-04-27T14:15:46Z</time>
</trkpt>
<trkpt lat="34.9786087" lon="32.7629394">
<ele>993.81</ele>
<time>2015-04-27T14:15:47Z</time>
</trkpt>
<trkpt lat="34.9785493" lon="32.7630299">
<ele>993.78</ele>
<time>2015-04-27T14:15:48Z</time>
</trkpt>
<trkpt lat="34.9785676" lon="32.7631285">
<ele>993.27</ele>
<time>2015-04-27T14:15:49Z</time>
</trkpt>
<trkpt lat="34.9786228" lon="32.7632135">
<ele>993.02</ele>
<time>2015-04-27T14:15:50Z</time>
</trkpt>
<trkpt lat="34.9786471" lon="32.7632979">
<ele>992.89</ele>
<time>2015-04-27T14:15:51Z</time>
</trkpt>
<trkpt lat="34.9787004" lon="32.7633625">
<ele>992.32</ele>
<time>2015-04-27T14:15:52Z</time>
</trkpt>
<trkpt lat="34.9787954" lon="32.7634269">
<ele>991.54</ele>
<time>2015-04-27T14:15:53Z</time>
</trkpt>
<trkpt lat="34.9788417" lon="32.7635345">
<ele>991.65</ele>
<time>2015-04-27T14:15:54Z</time>
</trkpt>
<trkpt lat="34.9789295" lon="32.7636008">
<ele>991.71</ele>
<time>2015-04-27T14:15:55Z</time>
</trkpt>
<trkpt lat="34.9790252" lon="32.7636295">
<ele>989.73</ele>
<time>2015-04-27T14:15:56Z</time>
</trkpt>
<trkpt lat="34.9791081" lon="32.7637061">
<ele>989.25</ele>
<time>2015-04-27T14:15:57Z</time>
</trkpt>
<trkpt lat="34.9791683" lon="32.7637931">
<ele>988.50</ele>
<time>2015-04-27T14:15:58Z</time>
</trkpt>
<trkpt lat="34.9792289" lon="32.7638637">
<ele>987.63</ele>
<time>2015-04-27T14:15:59Z</time>
</trkpt>
<trkpt lat="34.9792806" lon="32.7639450">
<ele>987.20</ele>
<time>2015-04-27T14:16:00Z</time>
</trkpt>
<trkpt lat="34.9792872" lon="32.7640558">
<ele>987.48</ele>
<time>2015-04-27T14:16:01Z</time>
</trkpt>
<trkpt lat="34.9792905" lon="32.7641733">
<ele>987.12</ele>
<time>2015-04-27T14:16:02Z</time>
</trkpt>
<trkpt lat="34.9792453" lon="32.7642639">
<ele>986.44</ele>
<time>2015-04-27T14:16:03Z</time>
</trkpt>
<trkpt lat="34.9792092" lon="32.7643502">
<ele>986.10</ele>
<time>2015-04-27T14:16:04Z</time>
</trkpt>
<trkpt lat="34.9791590" lon="32.7644322">
<ele>985.43</ele>
<time>2015-04-27T14:16:05Z</time>
</trkpt>
<trkpt lat="34.9790997" lon="32.7645178">
<ele>985.09</ele>
<time>2015-04-27T14:16:06Z</time>
</trkpt>
<trkpt lat="34.9790691" lon="32.7646179">
<ele>984.93</ele>
<time>2015-04-27T14:16:07Z</time>
</trkpt>
<trkpt lat="34.9790287" lon="32.7647203">
<ele>984.84</ele>
<time>2015-04-27T14:16:08Z</time>
</trkpt>
<trkpt lat="34.9790031" lon="32.7648208">
<ele>984.80</ele>
<time>2015-04-27T14:16:09Z</time>
</trkpt>
<trkpt lat="34.9790430" lon="32.7649189">
<ele>984.78</ele>
<time>2015-04-27T14:16:10Z</time>
</trkpt>
<trkpt lat="34.9790613" lon="32.7650183">
<ele>985.27</ele>
<time>2015-04-27T14:16:11Z</time>
</trkpt>
<trkpt lat="34.9790309" lon="32.7651189">
<ele>984.52</ele>
<time>2015-04-27T14:16:12Z</time>
</trkpt>
<trkpt lat="34.9790084" lon="32.7652150">
<ele>983.14</ele>
<time>2015-04-27T14:16:13Z</time>
</trkpt>
<trkpt lat="34.9789528" lon="32.7653006">
<ele>981.45</ele>
<time>2015-04-27T14:16:14Z</time>
</trkpt>
<trkpt lat="34.9789167" lon="32.7653928">
<ele>980.60</ele>
<time>2015-04-27T14:16:15Z</time>
</trkpt>
<trkpt lat="34.9788777" lon="32.7654931">
<ele>980.18</ele>
<time>2015-04-27T14:16:16Z</time>
</trkpt>
<trkpt lat="34.9788470" lon="32.7655913">
<ele>979.47</ele>
<time>2015-04-27T14:16:17Z</time>
</trkpt>
<trkpt lat="34.9788162" lon="32.7657056">
<ele>979.62</ele>
<time>2015-04-27T14:16:18Z</time>
</trkpt>
<trkpt lat="34.9788268" lon="32.7658153">
<ele>979.19</ele>
<time>2015-04-27T14:16:19Z</time>
</trkpt>
<trkpt lat="34.9788347" lon="32.7659363">
<ele>978.97</ele>
<time>2015-04-27T14:16:20Z</time>
</trkpt>
<trkpt lat="34.9788253" lon="32.7660482">
<ele>978.87</ele>
<time>2015-04-27T14:16:21Z</time>
</trkpt>
<trkpt lat="34.9788322" lon="32.7661673">
<ele>978.31</ele>
<time>2015-04-27T14:16:22Z</time>
</trkpt>
<trkpt lat="34.9788613" lon="32.7662850">
<ele>978.54</ele>
<time>2015-04-27T14:16:23Z</time>
</trkpt>
<trkpt lat="34.9788771" lon="32.7664011">
<ele>978.65</ele>
<time>2015-04-27T14:16:24Z</time>
</trkpt>
<trkpt lat="34.9789190" lon="32.7665071">
<ele>978.70</ele>
<time>2015-04-27T14:16:25Z</time>
</trkpt>
<trkpt lat="34.9789666" lon="32.7665847">
<ele>978.73</ele>
<time>2015-04-27T14:16:26Z</time>
</trkpt>
<trkpt lat="34.9790044" lon="32.7666536">
<ele>978.25</ele>
<time>2015-04-27T14:16:27Z</time>
</trkpt>
<trkpt lat="34.9791212" lon="32.7667169">
<ele>978.00</ele>
<time>2015-04-27T14:16:28Z</time>
</trkpt>
<trkpt lat="34.9791897" lon="32.7667965">
<ele>977.38</ele>
<time>2015-04-27T14:16:29Z</time>
</trkpt>
<trkpt lat="34.9792274" lon="32.7668914">
<ele>976.07</ele>
<time>2015-04-27T14:16:30Z</time>
</trkpt>
<trkpt lat="34.9792411" lon="32.7669996">
<ele>975.42</ele>
<time>2015-04-27T14:16:31Z</time>
</trkpt>
<trkpt lat="34.9792641" lon="32.7671217">
<ele>974.59</ele>
<time>2015-04-27T14:16:32Z</time>
</trkpt>
<trkpt lat="34.9792976" lon="32.7672270">
<ele>974.17</ele>
<time>2015-04-27T14:16:33Z</time>
</trkpt>
<trkpt lat="34.9793120" lon="32.7673400">
<ele>973.97</ele>
<time>2015-04-27T14:16:34Z</time>
</trkpt>
<trkpt lat="34.9793155" lon="32.7674589">
<ele>973.86</ele>
<time>2015-04-27T14:16:35Z</time>
</trkpt>
<trkpt lat="34.9792950" lon="32.7675809">
<ele>972.81</ele>
<time>2015-04-27T14:16:36Z</time>
</trkpt>
<trkpt lat="34.9792584" lon="32.7676978">
<ele>971.79</ele>
<time>2015-04-27T14:16:37Z</time>
</trkpt>
<trkpt lat="34.9792144" lon="32.7678185">
<ele>970.27</ele>
<time>2015-04-27T14:16:38Z</time>
</trkpt>
<trkpt lat="34.9791502" lon="32.7679078">
<ele>968.52</ele>
<time>2015-04-27T14:16:39Z</time>
</trkpt>
<trkpt lat="34.9791110" lon="32.7680290">
<ele>967.64</ele>
<time>2015-04-27T14:16:40Z</time>
</trkpt>
<trkpt lat="34.9790642" lon="32.7681500">
<ele>967.20</ele>
<time>2015-04-27T14:16:41Z</time>
</trkpt>
<trkpt lat="34.9790291" lon="32.7682795">
<ele>966.98</ele>
<time>2015-04-27T14:16:42Z</time>
</trkpt>
<trkpt lat="34.9789924" lon="32.7684086">
<ele>966.37</ele>
<time>2015-04-27T14:16:43Z</time>
</trkpt>
<trkpt lat="34.9790014" lon="32.7685517">
<ele>965.56</ele>
<time>2015-04-27T14:16:44Z</time>
</trkpt>
<trkpt lat="34.9789866" lon="32.7686748">
<ele>965.16</ele>
<time>2015-04-27T14:16:45Z</time>
</trkpt>
<trkpt lat="34.9790019" lon="32.7687959">
<ele>964.96</ele>
<time>2015-04-27T14:16:46Z</time>
</trkpt>
<trkpt lat="34.9790040" lon="32.7689318">
<ele>964.86</ele>
<time>2015-04-27T14:16:47Z</time>
</trkpt>
<trkpt lat="34.9789917" lon="32.7690619">
<ele>964.31</ele>
<time>2015-04-27T14:16:48Z</time>
</trkpt>
<trkpt lat="34.9789634" lon="32.7691882">
<ele>964.04</ele>
<time>2015-04-27T14:16:49Z</time>
</trkpt>
<trkpt lat="34.9788796" lon="32.7692831">
<ele>963.40</ele>
<time>2015-04-27T14:16:50Z</time>
</trkpt>
<trkpt lat="34.9788505" lon="32.7694110">
<ele>962.58</ele>
<time>2015-04-27T14:16:51Z</time>
</trkpt>
<trkpt lat="34.9788463" lon="32.7695561">
<ele>961.67</ele>
<time>2015-04-27T14:16:52Z</time>
</trkpt>
<trkpt lat="34.9788453" lon="32.7696790">
<ele>960.71</ele>
<time>2015-04-27T14:16:53Z</time>
</trkpt>
<trkpt lat="34.9788442" lon="32.7698111">
<ele>960.74</ele>
<time>2015-04-27T14:16:54Z</time>
</trkpt>
<trkpt lat="34.9788608" lon="32.7699389">
<ele>960.75</ele>
<time>2015-04-27T14:16:55Z</time>
</trkpt>
<trkpt lat="34.9788826" lon="32.7700493">
<ele>960.75</ele>
<time>2015-04-27T14:16:56Z</time>
</trkpt>
<trkpt lat="34.9789257" lon="32.7701651">
<ele>960.76</ele>
<time>2015-04-27T14:16:57Z</time>
</trkpt>
<trkpt lat="34.9789452" lon="32.7702829">
<ele>960.76</ele>
<time>2015-04-27T14:16:58Z</time>
</trkpt>
<trkpt lat="34.9789461" lon="32.7704007">
<ele>960.76</ele>
<time>2015-04-27T14:16:59Z</time>
</trkpt>
<trkpt lat="34.9789333" lon="32.7705280">
<ele>960.26</ele>
<time>2015-04-27T14:17:00Z</time>
</trkpt>
<trkpt lat="34.9789216" lon="32.7706538">
<ele>960.01</ele>
<time>2015-04-27T14:17:01Z</time>
</trkpt>
<trkpt lat="34.9788806" lon="32.7707776">
<ele>959.88</ele>
<time>2015-04-27T14:17:02Z</time>
</trkpt>
<trkpt lat="34.9788286" lon="32.7708785">
<ele>959.32</ele>
<time>2015-04-27T14:17:03Z</time>
</trkpt>
<trkpt lat="34.9787937" lon="32.7710025">
<ele>958.54</ele>
<time>2015-04-27T14:17:04Z</time>
</trkpt>
<trkpt lat="34.9787922" lon="32.7711042">
<ele>957.65</ele>
<time>2015-04-27T14:17:05Z</time>
</trkpt>
<trkpt lat="34.9788060" lon="32.7712259">
<ele>957.71</ele>
<time>2015-04-27T14:17:06Z</time>
</trkpt>
<trkpt lat="34.9788320" lon="32.7713455">
<ele>957.73</ele>
<time>2015-04-27T14:17:07Z</time>
</trkpt>
<trkpt lat="34.9788485" lon="32.7714664">
<ele>957.25</ele>
<time>2015-04-27T14:17:08Z</time>
</trkpt>
<trkpt lat="34.9788767" lon="32.7715935">
<ele>957.00</ele>
<time>2015-04-27T14:17:09Z</time>
</trkpt>
<trkpt lat="34.9788859" lon="32.7717138">
<ele>956.38</ele>
<time>2015-04-27T14:17:10Z</time>
</trkpt>
<trkpt lat="34.9789108" lon="32.7718410">
<ele>956.07</ele>
<time>2015-04-27T14:17:11Z</time>
</trkpt>
<trkpt lat="34.9789271" lon="32.7719700">
<ele>955.92</ele>
<time>2015-04-27T14:17:12Z</time>
</trkpt>
<trkpt lat="34.9789672" lon="32.7721016">
<ele>956.84</ele>
<time>2015-04-27T14:17:13Z</time>
</trkpt>
<trkpt lat="34.9790021" lon="32.7722194">
<ele>956.80</ele>
<time>2015-04-27T14:17:14Z</time>
</trkpt>
<trkpt lat="34.9790244" lon="32.7723276">
<ele>956.28</ele>
<time>2015-04-27T14:17:15Z</time>
</trkpt>
<trkpt lat="34.9790423" lon="32.7724413">
<ele>956.02</ele>
<time>2015-04-27T14:17:16Z</time>
</trkpt>
<trkpt lat="34.9790203" lon="32.7725386">
<ele>955.39</ele>
<time>2015-04-27T14:17:17Z</time>
</trkpt>
<trkpt lat="34.9789868" lon="32.7726388">
<ele>954.07</ele>
<time>2015-04-27T14:17:18Z</time>
</trkpt>
<trkpt lat="34.9789504" lon="32.7727397">
<ele>953.42</ele>
<time>2015-04-27T14:17:19Z</time>
</trkpt>
<trkpt lat="34.9789004" lon="32.7728471">
<ele>952.09</ele>
<time>2015-04-27T14:17:20Z</time>
</trkpt>
<trkpt lat="34.9788777" lon="32.7729485">
<ele>951.42</ele>
<time>2015-04-27T14:17:21Z</time>
</trkpt>
<trkpt lat="34.9788445" lon="32.7730498">
<ele>951.09</ele>
<time>2015-04-27T14:17:22Z</time>
</trkpt>
<trkpt lat="34.9788591" lon="32.7731818">
<ele>950.43</ele>
<time>2015-04-27T14:17:23Z</time>
</trkpt>
<trkpt lat="34.9788481" lon="32.7732948">
<ele>950.59</ele>
<time>2015-04-27T14:17:24Z</time>
</trkpt>
<trkpt lat="34.9788434" lon="32.7734156">
<ele>950.18</ele>
<time>2015-04-27T14:17:25Z</time>
</trkpt>
<trkpt lat="34.9788306" lon="32.7735391">
<ele>950.47</ele>
<time>2015-04-27T14:17:26Z</time>
</trkpt>
<trkpt lat="34.9788076" lon="32.7736628">
<ele>950.11</ele>
<time>2015-04-27T14:17:27Z</time>
</trkpt>
<trkpt lat="34.9787736" lon="32.7737834">
<ele>949.44</ele>
<time>2015-04-27T14:17:28Z</time>
</trkpt>
<trkpt lat="34.9787406" lon="32.7739068">
<ele>948.60</ele>
<time>2015-04-27T14:17:29Z</time>
</trkpt>
<trkpt lat="34.9787330" lon="32.7740430">
<ele>947.68</ele>
<time>2015-04-27T14:17:30Z</time>
</trkpt>
<trkpt lat="34.9787483" lon="32.7741773">
<ele>947.22</ele>
<time>2015-04-27T14:17:31Z</time>
</trkpt>
<trkpt lat="34.9787858" lon="32.7743079">
<ele>947.49</ele>
<time>2015-04-27T14:17:32Z</time>
</trkpt>
<trkpt lat="34.9788390" lon="32.7744343">
<ele>947.62</ele>
<time>2015-04-27T14:17:33Z</time>
</trkpt>
<trkpt lat="34.9788790" lon="32.7745505">
<ele>946.69</ele>
<time>2015-04-27T14:17:34Z</time>
</trkpt>
<trkpt lat="34.9789100" lon="32.7746598">
<ele>946.23</ele>
<time>2015-04-27T14:17:35Z</time>
</trkpt>
<trkpt lat="34.9789311" lon="32.7747553">
<ele>945.49</ele>
<time>2015-04-27T14:17:36Z</time>
</trkpt>
<trkpt lat="34.9789170" lon="32.7748327">
<ele>944.63</ele>
<time>2015-04-27T14:17:37Z</time>
</trkpt>
<trkpt lat="34.9789027" lon="32.7749188">
<ele>943.69</ele>
<time>2015-04-27T14:17:38Z</time>
</trkpt>
<trkpt lat="34.9788556" lon="32.7749778">
<ele>941.73</ele>
<time>2015-04-27T14:17:39Z</time>
</trkpt>
<trkpt lat="34.9787911" lon="32.7750458">
<ele>940.24</ele>
<time>2015-04-27T14:17:40Z</time>
</trkpt>
<trkpt lat="34.9787309" lon="32.7751106">
<ele>939.00</ele>
<time>2015-04-27T14:17:41Z</time>
</trkpt>
<trkpt lat="34.9786696" lon="32.7751719">
<ele>938.38</ele>
<time>2015-04-27T14:17:42Z</time>
</trkpt>
<trkpt lat="34.9786051" lon="32.7752324">
<ele>938.07</ele>
<time>2015-04-27T14:17:43Z</time>
</trkpt>
<trkpt lat="34.9785384" lon="32.7753019">
<ele>937.92</ele>
<time>2015-04-27T14:17:44Z</time>
</trkpt>
<trkpt lat="34.9784677" lon="32.7753602">
<ele>937.34</ele>
<time>2015-04-27T14:17:45Z</time>
</trkpt>
<trkpt lat="34.9783953" lon="32.7754291">
<ele>937.05</ele>
<time>2015-04-27T14:17:46Z</time>
</trkpt>
<trkpt lat="34.9783356" lon="32.7755039">
<ele>936.90</ele>
<time>2015-04-27T14:17:47Z</time>
</trkpt>
<trkpt lat="34.9782678" lon="32.7755826">
<ele>936.33</ele>
<time>2015-04-27T14:17:48Z</time>
</trkpt>
<trkpt lat="34.9782128" lon="32.7756690">
<ele>936.55</ele>
<time>2015-04-27T14:17:49Z</time>
</trkpt>
<trkpt lat="34.9781451" lon="32.7757511">
<ele>936.65</ele>
<time>2015-04-27T14:17:50Z</time>
</trkpt>
<trkpt lat="34.9780834" lon="32.7758420">
<ele>936.71</ele>
<time>2015-04-27T14:17:51Z</time>
</trkpt>
<trkpt lat="34.9780214" lon="32.7759242">
<ele>936.73</ele>
<time>2015-04-27T14:17:52Z</time>
</trkpt>
<trkpt lat="34.9779676" lon="32.7760108">
<ele>936.75</ele>
<time>2015-04-27T14:17:53Z</time>
</trkpt>
<trkpt lat="34.9779223" lon="32.7760976">
<ele>936.25</ele>
<time>2015-04-27T14:17:54Z</time>
</trkpt>
<trkpt lat="34.9778997" lon="32.7761888">
<ele>936.01</ele>
<time>2015-04-27T14:17:55Z</time>
</trkpt>
<trkpt lat="34.9779368" lon="32.7762784">
<ele>934.38</ele>
<time>2015-04-27T14:17:56Z</time>
</trkpt>
<trkpt lat="34.9780000" lon="32.7763513">
<ele>932.57</ele>
<time>2015-04-27T14:17:57Z</time>
</trkpt>
<trkpt lat="34.9780588" lon="32.7764174">
<ele>931.67</ele>
<time>2015-04-27T14:17:58Z</time>
</trkpt>
<trkpt lat="34.9781251" lon="32.7764723">
<ele>931.21</ele>
<time>2015-04-27T14:17:59Z</time>
</trkpt>
<trkpt lat="34.9781997" lon="32.7765230">
<ele>930.49</ele>
<time>2015-04-27T14:18:00Z</time>
</trkpt>
<trkpt lat="34.9782864" lon="32.7765566">
<ele>929.62</ele>
<time>2015-04-27T14:18:01Z</time>
</trkpt>
<trkpt lat="34.9783681" lon="32.7766072">
<ele>929.19</ele>
<time>2015-04-27T14:18:02Z</time>
</trkpt>
<trkpt lat="34.9784315" lon="32.7766797">
<ele>928.98</ele>
<time>2015-04-27T14:18:03Z</time>
</trkpt>
<trkpt lat="34.9784979" lon="32.7767481">
<ele>928.37</ele>
<time>2015-04-27T14:18:04Z</time>
</trkpt>
<trkpt lat="34.9785453" lon="32.7768324">
<ele>927.56</ele>
<time>2015-04-27T14:18:05Z</time>
</trkpt>
<trkpt lat="34.9785881" lon="32.7769191">
<ele>927.66</ele>
<time>2015-04-27T14:18:06Z</time>
</trkpt>
<trkpt lat="34.9786031" lon="32.7770165">
<ele>926.71</ele>
<time>2015-04-27T14:18:07Z</time>
</trkpt>
<trkpt lat="34.9786152" lon="32.7771067">
<ele>926.24</ele>
<time>2015-04-27T14:18:08Z</time>
</trkpt>
<trkpt lat="34.9786228" lon="32.7771744">
<ele>926.00</ele>
<time>2015-04-27T14:18:09Z</time>
</trkpt>
<trkpt lat="34.9786240" lon="32.7772318">
<ele>925.38</ele>
<time>2015-04-27T14:18:10Z</time>
</trkpt>
<trkpt lat="34.9786286" lon="32.7773023">
<ele>925.07</ele>
<time>2015-04-27T14:18:11Z</time>
</trkpt>
<trkpt lat="34.9786464" lon="32.7773559">
<ele>925.41</ele>
<time>2015-04-27T14:18:12Z</time>
</trkpt>
<trkpt lat="34.9786746" lon="32.7774156">
<ele>925.59</ele>
<time>2015-04-27T14:18:13Z</time>
</trkpt>
<trkpt lat="34.9786869" lon="32.7774742">
<ele>925.17</ele>
<time>2015-04-27T14:18:14Z</time>
</trkpt>
<trkpt lat="34.9787058" lon="32.7775298">
<ele>924.97</ele>
<time>2015-04-27T14:18:15Z</time>
</trkpt>
<trkpt lat="34.9787507" lon="32.7776276">
<ele>924.81</ele>
<time>2015-04-27T14:18:17Z</time>
</trkpt>
<trkpt lat="34.9788117" lon="32.7776560">
<ele>924.29</ele>
<time>2015-04-27T14:18:18Z</time>
</trkpt>
<trkpt lat="34.9788548" lon="32.7776962">
<ele>924.02</ele>
<time>2015-04-27T14:18:19Z</time>
</trkpt>
<trkpt lat="34.9789050" lon="32.7777326">
<ele>923.39</ele>
<time>2015-04-27T14:18:20Z</time>
</trkpt>
<trkpt lat="34.9789527" lon="32.7777612">
<ele>922.08</ele>
<time>2015-04-27T14:18:21Z</time>
</trkpt>
<trkpt lat="34.9790020" lon="32.7778214">
<ele>921.42</ele>
<time>2015-04-27T14:18:22Z</time>
</trkpt>
<trkpt lat="34.9790403" lon="32.7778829">
<ele>920.59</ele>
<time>2015-04-27T14:18:23Z</time>
</trkpt>
<trkpt lat="34.9790677" lon="32.7779571">
<ele>920.17</ele>
<time>2015-04-27T14:18:24Z</time>
</trkpt>
<trkpt lat="34.9790857" lon="32.7780375">
<ele>919.97</ele>
<time>2015-04-27T14:18:25Z</time>
</trkpt>
<trkpt lat="34.9791032" lon="32.7781331">
<ele>919.86</ele>
<time>2015-04-27T14:18:26Z</time>
</trkpt>
<trkpt lat="34.9791112" lon="32.7782201">
<ele>919.31</ele>
<time>2015-04-27T14:18:27Z</time>
</trkpt>
<trkpt lat="34.9791218" lon="32.7783106">
<ele>918.54</ele>
<time>2015-04-27T14:18:28Z</time>
</trkpt>
<trkpt lat="34.9791359" lon="32.7783843">
<ele>917.65</ele>
<time>2015-04-27T14:18:29Z</time>
</trkpt>
<trkpt lat="34.9791540" lon="32.7784766">
<ele>917.20</ele>
<time>2015-04-27T14:18:30Z</time>
</trkpt>
<trkpt lat="34.9791714" lon="32.7785652">
<ele>917.48</ele>
<time>2015-04-27T14:18:31Z</time>
</trkpt>
<trkpt lat="34.9791845" lon="32.7786490">
<ele>918.12</ele>
<time>2015-04-27T14:18:32Z</time>
</trkpt>
<trkpt lat="34.9791983" lon="32.7787337">
<ele>918.44</ele>
<time>2015-04-27T14:18:33Z</time>
</trkpt>
<trkpt lat="34.9792169" lon="32.7788127">
<ele>919.10</ele>
<time>2015-04-27T14:18:34Z</time>
</trkpt>
<trkpt lat="34.9792279" lon="32.7788956">
<ele>919.93</ele>
<time>2015-04-27T14:18:35Z</time>
</trkpt>
<trkpt lat="34.9792363" lon="32.7789679">
<ele>920.85</ele>
<time>2015-04-27T14:18:36Z</time>
</trkpt>
<trkpt lat="34.9792412" lon="32.7790357">
<ele>921.30</ele>
<time>2015-04-27T14:18:37Z</time>
</trkpt>
<trkpt lat="34.9792523" lon="32.7791033">
<ele>921.53</ele>
<time>2015-04-27T14:18:38Z</time>
</trkpt>
<trkpt lat="34.9792662" lon="32.7791861">
<ele>921.65</ele>
<time>2015-04-27T14:18:39Z</time>
</trkpt>
<trkpt lat="34.9792795" lon="32.7792693">
<ele>921.20</ele>
<time>2015-04-27T14:18:40Z</time>
</trkpt>
<trkpt lat="34.9792978" lon="32.7793363">
<ele>920.48</ele>
<time>2015-04-27T14:18:41Z</time>
</trkpt>
<trkpt lat="34.9793134" lon="32.7794140">
<ele>920.12</ele>
<time>2015-04-27T14:18:42Z</time>
</trkpt>
<trkpt lat="34.9793235" lon="32.7794940">
<ele>919.94</ele>
<time>2015-04-27T14:18:43Z</time>
</trkpt>
<trkpt lat="34.9793130" lon="32.7795622">
<ele>919.35</ele>
<time>2015-04-27T14:18:44Z</time>
</trkpt>
<trkpt lat="34.9793256" lon="32.7796454">
<ele>919.06</ele>
<time>2015-04-27T14:18:45Z</time>
</trkpt>
<trkpt lat="34.9793329" lon="32.7797154">
<ele>919.41</ele>
<time>2015-04-27T14:18:46Z</time>
</trkpt>
<trkpt lat="34.9793358" lon="32.7797762">
<ele>919.58</ele>
<time>2015-04-27T14:18:47Z</time>
</trkpt>
<trkpt lat="34.9793005" lon="32.7799039">
<ele>918.97</ele>
<time>2015-04-27T14:18:49Z</time>
</trkpt>
<trkpt lat="34.9792838" lon="32.7799670">
<ele>918.86</ele>
<time>2015-04-27T14:18:50Z</time>
</trkpt>
<trkpt lat="34.9792802" lon="32.7800272">
<ele>918.81</ele>
<time>2015-04-27T14:18:51Z</time>
</trkpt>
<trkpt lat="34.9792719" lon="32.7800987">
<ele>919.79</ele>
<time>2015-04-27T14:18:52Z</time>
</trkpt>
<trkpt lat="34.9792535" lon="32.7801502">
<ele>920.27</ele>
<time>2015-04-27T14:18:53Z</time>
</trkpt>
<trkpt lat="34.9792440" lon="32.7802308">
<ele>920.64</ele>
<time>2015-04-27T14:18:55Z</time>
</trkpt>
<trkpt lat="34.9792757" lon="32.7803113">
<ele>918.98</ele>
<time>2015-04-27T14:18:57Z</time>
</trkpt>
<trkpt lat="34.9792816" lon="32.7803837">
<ele>919.56</ele>
<time>2015-04-27T14:18:59Z</time>
</trkpt>
<trkpt lat="34.9792859" lon="32.7804438">
<ele>920.46</ele>
<time>2015-04-27T14:19:01Z</time>
</trkpt>
<trkpt lat="34.9792836" lon="32.7805160">
<ele>919.97</ele>
<time>2015-04-27T14:19:04Z</time>
</trkpt>
<trkpt lat="34.9792747" lon="32.7805814">
<ele>919.81</ele>
<time>2015-04-27T14:19:06Z</time>
</trkpt>
<trkpt lat="34.9792676" lon="32.7806562">
<ele>920.27</ele>
<time>2015-04-27T14:19:08Z</time>
</trkpt>
<trkpt lat="34.9792612" lon="32.7807344">
<ele>919.89</ele>
<time>2015-04-27T14:19:10Z</time>
</trkpt>
<trkpt lat="34.9792790" lon="32.7808144">
<ele>920.29</ele>
<time>2015-04-27T14:19:12Z</time>
</trkpt>
<trkpt lat="34.9792868" lon="32.7808900">
<ele>921.14</ele>
<time>2015-04-27T14:19:14Z</time>
</trkpt>
<trkpt lat="34.9793068" lon="32.7809509">
<ele>923.43</ele>
<time>2015-04-27T14:19:17Z</time>
</trkpt>
<trkpt lat="34.9793003" lon="32.7810135">
<ele>923.09</ele>
<time>2015-04-27T14:19:20Z</time>
</trkpt>
<trkpt lat="34.9792946" lon="32.7810767">
<ele>922.84</ele>
<time>2015-04-27T14:19:22Z</time>
</trkpt>
<trkpt lat="34.9793075" lon="32.7811553">
<ele>924.28</ele>
<time>2015-04-27T14:19:24Z</time>
</trkpt>
<trkpt lat="34.9793268" lon="32.7812200">
<ele>924.64</ele>
<time>2015-04-27T14:19:26Z</time>
</trkpt>
<trkpt lat="34.9793456" lon="32.7812832">
<ele>923.75</ele>
<time>2015-04-27T14:19:29Z</time>
</trkpt>
<trkpt lat="34.9793944" lon="32.7813264">
<ele>925.63</ele>
<time>2015-04-27T14:19:32Z</time>
</trkpt>
<trkpt lat="34.9794790" lon="32.7813398">
<ele>926.48</ele>
<time>2015-04-27T14:19:34Z</time>
</trkpt>
<trkpt lat="34.9795530" lon="32.7813200">
<ele>926.69</ele>
<time>2015-04-27T14:19:36Z</time>
</trkpt>
<trkpt lat="34.9795987" lon="32.7812784">
<ele>926.74</ele>
<time>2015-04-27T14:19:38Z</time>
</trkpt>
<trkpt lat="34.9796388" lon="32.7812400">
<ele>926.76</ele>
<time>2015-04-27T14:19:40Z</time>
</trkpt>
<trkpt lat="34.9796823" lon="32.7812078">
<ele>927.51</ele>
<time>2015-04-27T14:19:42Z</time>
</trkpt>
<trkpt lat="34.9797266" lon="32.7811847">
<ele>927.70</ele>
<time>2015-04-27T14:19:44Z</time>
</trkpt>
<trkpt lat="34.9797792" lon="32.7811693">
<ele>927.26</ele>
<time>2015-04-27T14:19:48Z</time>
</trkpt>
<trkpt lat="34.9798363" lon="32.7811565">
<ele>925.92</ele>
<time>2015-04-27T14:19:52Z</time>
</trkpt>
<trkpt lat="34.9798850" lon="32.7811653">
<ele>925.65</ele>
<time>2015-04-27T14:19:55Z</time>
</trkpt>
<trkpt lat="34.9799352" lon="32.7811890">
<ele>926.25</ele>
<time>2015-04-27T14:19:58Z</time>
</trkpt>
<trkpt lat="34.9799806" lon="32.7812303">
<ele>927.45</ele>
<time>2015-04-27T14:20:01Z</time>
</trkpt>
<trkpt lat="34.9800146" lon="32.7812868">
<ele>927.85</ele>
<time>2015-04-27T14:20:04Z</time>
</trkpt>
<trkpt lat="34.9800378" lon="32.7813501">
<ele>928.52</ele>
<time>2015-04-27T14:20:07Z</time>
</trkpt>
<trkpt lat="34.9800579" lon="32.7814153">
<ele>928.23</ele>
<time>2015-04-27T14:20:10Z</time>
</trkpt>
<trkpt lat="34.9800690" lon="32.7814795">
<ele>928.57</ele>
<time>2015-04-27T14:20:13Z</time>
</trkpt>
<trkpt lat="34.9800811" lon="32.7815524">
<ele>927.99</ele>
<time>2015-04-27T14:20:16Z</time>
</trkpt>
<trkpt lat="34.9801036" lon="32.7816188">
<ele>927.29</ele>
<time>2015-04-27T14:20:19Z</time>
</trkpt>
<trkpt lat="34.9801368" lon="32.7816895">
<ele>925.58</ele>
<time>2015-04-27T14:20:22Z</time>
</trkpt>
<trkpt lat="34.9801812" lon="32.7817342">
<ele>926.46</ele>
<time>2015-04-27T14:20:24Z</time>
</trkpt>
<trkpt lat="34.9802264" lon="32.7817703">
<ele>926.69</ele>
<time>2015-04-27T14:20:26Z</time>
</trkpt>
<trkpt lat="34.9802720" lon="32.7817937">
<ele>926.74</ele>
<time>2015-04-27T14:20:28Z</time>
</trkpt>
<trkpt lat="34.9803232" lon="32.7818147">
<ele>927.38</ele>
<time>2015-04-27T14:20:31Z</time>
</trkpt>
<trkpt lat="34.9803862" lon="32.7818531">
<ele>928.21</ele>
<time>2015-04-27T14:20:34Z</time>
</trkpt>
<trkpt lat="34.9804298" lon="32.7818876">
<ele>927.87</ele>
<time>2015-04-27T14:20:36Z</time>
</trkpt>
<trkpt lat="34.9804708" lon="32.7819350">
<ele>927.79</ele>
<time>2015-04-27T14:20:38Z</time>
</trkpt>
<trkpt lat="34.9805086" lon="32.7819907">
<ele>927.77</ele>
<time>2015-04-27T14:20:40Z</time>
</trkpt>
<trkpt lat="34.9805374" lon="32.7820456">
<ele>928.26</ele>
<time>2015-04-27T14:20:42Z</time>
</trkpt>
<trkpt lat="34.9805651" lon="32.7820978">
<ele>929.57</ele>
<time>2015-04-27T14:20:45Z</time>
</trkpt>
<trkpt lat="34.9805929" lon="32.7821645">
<ele>931.11</ele>
<time>2015-04-27T14:20:48Z</time>
</trkpt>
<trkpt lat="34.9806159" lon="32.7822144">
<ele>931.60</ele>
<time>2015-04-27T14:20:50Z</time>
</trkpt>
<trkpt lat="34.9806441" lon="32.7822654">
<ele>931.72</ele>
<time>2015-04-27T14:20:52Z</time>
</trkpt>
<trkpt lat="34.9806759" lon="32.7823197">
<ele>931.00</ele>
<time>2015-04-27T14:20:54Z</time>
</trkpt>
<trkpt lat="34.9807002" lon="32.7823735">
<ele>930.32</ele>
<time>2015-04-27T14:20:56Z</time>
</trkpt>
<trkpt lat="34.9807246" lon="32.7824231">
<ele>929.40</ele>
<time>2015-04-27T14:20:58Z</time>
</trkpt>
<trkpt lat="34.9807538" lon="32.7824692">
<ele>928.92</ele>
<time>2015-04-27T14:21:00Z</time>
</trkpt>
<trkpt lat="34.9808052" lon="32.7825200">
<ele>927.41</ele>
<time>2015-04-27T14:21:03Z</time>
</trkpt>
<trkpt lat="34.9808480" lon="32.7825770">
<ele>928.59</ele>
<time>2015-04-27T14:21:06Z</time>
</trkpt>
<trkpt lat="34.9808812" lon="32.7826226">
<ele>930.22</ele>
<time>2015-04-27T14:21:08Z</time>
</trkpt>
<trkpt lat="34.9809165" lon="32.7826709">
<ele>931.87</ele>
<time>2015-04-27T14:21:10Z</time>
</trkpt>
<trkpt lat="34.9809456" lon="32.7827128">
<ele>933.04</ele>
<time>2015-04-27T14:21:12Z</time>
</trkpt>
<trkpt lat="34.9809650" lon="32.7827762">
<ele>935.11</ele>
<time>2015-04-27T14:21:17Z</time>
</trkpt>
<trkpt lat="34.9809821" lon="32.7828472">
<ele>936.18</ele>
<time>2015-04-27T14:21:20Z</time>
</trkpt>
<trkpt lat="34.9809959" lon="32.7829164">
<ele>937.94</ele>
<time>2015-04-27T14:21:23Z</time>
</trkpt>
<trkpt lat="34.9810087" lon="32.7829769">
<ele>937.83</ele>
<time>2015-04-27T14:21:27Z</time>
</trkpt>
<trkpt lat="34.9810034" lon="32.7830507">
<ele>938.07</ele>
<time>2015-04-27T14:21:32Z</time>
</trkpt>
<trkpt lat="34.9810116" lon="32.7831171">
<ele>938.09</ele>
<time>2015-04-27T14:21:34Z</time>
</trkpt>
<trkpt lat="34.9810222" lon="32.7831755">
<ele>938.59</ele>
<time>2015-04-27T14:21:36Z</time>
</trkpt>
<trkpt lat="34.9810138" lon="32.7832410">
<ele>937.81</ele>
<time>2015-04-27T14:21:40Z</time>
</trkpt>
<trkpt lat="34.9810230" lon="32.7832957">
<ele>937.64</ele>
<time>2015-04-27T14:21:43Z</time>
</trkpt>
<trkpt lat="34.9810374" lon="32.7833521">
<ele>937.23</ele>
<time>2015-04-27T14:21:45Z</time>
</trkpt>
<trkpt lat="34.9810644" lon="32.7834160">
<ele>937.69</ele>
<time>2015-04-27T14:21:48Z</time>
</trkpt>
<trkpt lat="34.9810930" lon="32.7834636">
<ele>937.25</ele>
<time>2015-04-27T14:21:51Z</time>
</trkpt>
<trkpt lat="34.9811261" lon="32.7835062">
<ele>936.07</ele>
<time>2015-04-27T14:21:54Z</time>
</trkpt>
<trkpt lat="34.9811709" lon="32.7835416">
<ele>935.80</ele>
<time>2015-04-27T14:21:57Z</time>
</trkpt>
<trkpt lat="34.9812166" lon="32.7835704">
<ele>936.51</ele>
<time>2015-04-27T14:22:00Z</time>
</trkpt>
<trkpt lat="34.9812734" lon="32.7836101">
<ele>937.48</ele>
<time>2015-04-27T14:22:03Z</time>
</trkpt>
<trkpt lat="34.9813193" lon="32.7836384">
<ele>937.69</ele>
<time>2015-04-27T14:22:05Z</time>
</trkpt>
<trkpt lat="34.9813716" lon="32.7836728">
<ele>937.75</ele>
<time>2015-04-27T14:22:08Z</time>
</trkpt>
<trkpt lat="34.9814280" lon="32.7837068">
<ele>937.76</ele>
<time>2015-04-27T14:22:11Z</time>
</trkpt>
<trkpt lat="34.9814698" lon="32.7837297">
<ele>938.51</ele>
<time>2015-04-27T14:22:13Z</time>
</trkpt>
<trkpt lat="34.9815196" lon="32.7837594">
<ele>938.73</ele>
<time>2015-04-27T14:22:16Z</time>
</trkpt>
<trkpt lat="34.9815640" lon="32.7837941">
<ele>938.76</ele>
<time>2015-04-27T14:22:19Z</time>
</trkpt>
<trkpt lat="34.9816165" lon="32.7838301">
<ele>939.51</ele>
<time>2015-04-27T14:22:22Z</time>
</trkpt>
<trkpt lat="34.9816568" lon="32.7838578">
<ele>939.95</ele>
<time>2015-04-27T14:22:24Z</time>
</trkpt>
<trkpt lat="34.9816966" lon="32.7838857">
<ele>939.81</ele>
<time>2015-04-27T14:22:26Z</time>
</trkpt>
<trkpt lat="34.9817456" lon="32.7839217">
<ele>940.14</ele>
<time>2015-04-27T14:22:29Z</time>
</trkpt>
<trkpt lat="34.9818022" lon="32.7839541">
<ele>940.68</ele>
<time>2015-04-27T14:22:32Z</time>
</trkpt>
<trkpt lat="34.9818518" lon="32.7839942">
<ele>940.75</ele>
<time>2015-04-27T14:22:35Z</time>
</trkpt>
<trkpt lat="34.9818955" lon="32.7840233">
<ele>940.76</ele>
<time>2015-04-27T14:22:39Z</time>
</trkpt>
<trkpt lat="34.9819576" lon="32.7840530">
<ele>940.76</ele>
<time>2015-04-27T14:22:42Z</time>
</trkpt>
<trkpt lat="34.9820007" lon="32.7840797">
<ele>940.76</ele>
<time>2015-04-27T14:22:44Z</time>
</trkpt>
<trkpt lat="34.9820444" lon="32.7841069">
<ele>940.76</ele>
<time>2015-04-27T14:22:46Z</time>
</trkpt>
<trkpt lat="34.9820882" lon="32.7841274">
<ele>941.26</ele>
<time>2015-04-27T14:22:48Z</time>
</trkpt>
<trkpt lat="34.9821504" lon="32.7841489">
<ele>941.20</ele>
<time>2015-04-27T14:22:51Z</time>
</trkpt>
<trkpt lat="34.9822073" lon="32.7841785">
<ele>941.69</ele>
<time>2015-04-27T14:22:54Z</time>
</trkpt>
<trkpt lat="34.9822660" lon="32.7842045">
<ele>941.75</ele>
<time>2015-04-27T14:22:57Z</time>
</trkpt>
<trkpt lat="34.9823186" lon="32.7842302">
<ele>941.76</ele>
<time>2015-04-27T14:23:00Z</time>
</trkpt>
<trkpt lat="34.9823618" lon="32.7842527">
<ele>942.26</ele>
<time>2015-04-27T14:23:03Z</time>
</trkpt>
<trkpt lat="34.9824136" lon="32.7842826">
<ele>942.73</ele>
<time>2015-04-27T14:23:07Z</time>
</trkpt>
<trkpt lat="34.9824585" lon="32.7843293">
<ele>942.76</ele>
<time>2015-04-27T14:23:11Z</time>
</trkpt>
<trkpt lat="34.9824961" lon="32.7843676">
<ele>943.01</ele>
<time>2015-04-27T14:23:14Z</time>
</trkpt>
<trkpt lat="34.9825392" lon="32.7844056">
<ele>943.54</ele>
<time>2015-04-27T14:23:17Z</time>
</trkpt>
<trkpt lat="34.9825812" lon="32.7844485">
<ele>944.23</ele>
<time>2015-04-27T14:23:20Z</time>
</trkpt>
<trkpt lat="34.9826195" lon="32.7844904">
<ele>943.82</ele>
<time>2015-04-27T14:23:23Z</time>
</trkpt>
<trkpt lat="34.9826625" lon="32.7845356">
<ele>944.52</ele>
<time>2015-04-27T14:23:26Z</time>
</trkpt>
<trkpt lat="34.9826973" lon="32.7845785">
<ele>944.70</ele>
<time>2015-04-27T14:23:28Z</time>
</trkpt>
<trkpt lat="34.9827311" lon="32.7846229">
<ele>945.49</ele>
<time>2015-04-27T14:23:30Z</time>
</trkpt>
<trkpt lat="34.9827662" lon="32.7846654">
<ele>946.44</ele>
<time>2015-04-27T14:23:32Z</time>
</trkpt>
<trkpt lat="34.9828042" lon="32.7847057">
<ele>947.43</ele>
<time>2015-04-27T14:23:34Z</time>
</trkpt>
<trkpt lat="34.9828400" lon="32.7847457">
<ele>947.68</ele>
<time>2015-04-27T14:23:36Z</time>
</trkpt>
<trkpt lat="34.9828755" lon="32.7847891">
<ele>947.49</ele>
<time>2015-04-27T14:23:38Z</time>
</trkpt>
<trkpt lat="34.9829096" lon="32.7848348">
<ele>947.69</ele>
<time>2015-04-27T14:23:40Z</time>
</trkpt>
<trkpt lat="34.9829464" lon="32.7848776">
<ele>948.49</ele>
<time>2015-04-27T14:23:42Z</time>
</trkpt>
<trkpt lat="34.9829803" lon="32.7849211">
<ele>947.94</ele>
<time>2015-04-27T14:23:44Z</time>
</trkpt>
<trkpt lat="34.9830090" lon="32.7849686">
<ele>947.81</ele>
<time>2015-04-27T14:23:46Z</time>
</trkpt>
<trkpt lat="34.9830463" lon="32.7850203">
<ele>948.52</ele>
<time>2015-04-27T14:23:48Z</time>
</trkpt>
<trkpt lat="34.9830834" lon="32.7850769">
<ele>947.45</ele>
<time>2015-04-27T14:23:50Z</time>
</trkpt>
<trkpt lat="34.9831096" lon="32.7851322">
<ele>946.93</ele>
<time>2015-04-27T14:23:52Z</time>
</trkpt>
<trkpt lat="34.9831133" lon="32.7852050">
<ele>945.53</ele>
<time>2015-04-27T14:23:55Z</time>
</trkpt>
<trkpt lat="34.9830873" lon="32.7852818">
<ele>944.86</ele>
<time>2015-04-27T14:23:58Z</time>
</trkpt>
<trkpt lat="34.9830796" lon="32.7853504">
<ele>944.78</ele>
<time>2015-04-27T14:24:00Z</time>
</trkpt>
<trkpt lat="34.9830761" lon="32.7854224">
<ele>945.52</ele>
<time>2015-04-27T14:24:02Z</time>
</trkpt>
<trkpt lat="34.9830539" lon="32.7854857">
<ele>945.70</ele>
<time>2015-04-27T14:24:04Z</time>
</trkpt>
<trkpt lat="34.9830150" lon="32.7855369">
<ele>945.24</ele>
<time>2015-04-27T14:24:06Z</time>
</trkpt>
<trkpt lat="34.9829714" lon="32.7855852">
<ele>944.38</ele>
<time>2015-04-27T14:24:08Z</time>
</trkpt>
<trkpt lat="34.9829290" lon="32.7856371">
<ele>943.42</ele>
<time>2015-04-27T14:24:10Z</time>
</trkpt>
<trkpt lat="34.9828838" lon="32.7856983">
<ele>942.92</ele>
<time>2015-04-27T14:24:12Z</time>
</trkpt>
<trkpt lat="34.9828455" lon="32.7857512">
<ele>942.30</ele>
<time>2015-04-27T14:24:14Z</time>
</trkpt>
<trkpt lat="34.9828050" lon="32.7857979">
<ele>941.83</ele>
<time>2015-04-27T14:24:17Z</time>
</trkpt>
<trkpt lat="34.9827663" lon="32.7858498">
<ele>941.73</ele>
<time>2015-04-27T14:24:22Z</time>
</trkpt>
<trkpt lat="34.9827201" lon="32.7858947">
<ele>942.25</ele>
<time>2015-04-27T14:24:24Z</time>
</trkpt>
<trkpt lat="34.9826792" lon="32.7859278">
<ele>942.13</ele>
<time>2015-04-27T14:24:26Z</time>
</trkpt>
<trkpt lat="34.9826440" lon="32.7859636">
<ele>942.68</ele>
<time>2015-04-27T14:24:29Z</time>
</trkpt>
<trkpt lat="34.9826055" lon="32.7860143">
<ele>942.63</ele>
<time>2015-04-27T14:24:34Z</time>
</trkpt>
<trkpt lat="34.9825626" lon="32.7860599">
<ele>943.23</ele>
<time>2015-04-27T14:24:36Z</time>
</trkpt>
<trkpt lat="34.9825242" lon="32.7861014">
<ele>943.63</ele>
<time>2015-04-27T14:24:38Z</time>
</trkpt>
<trkpt lat="34.9824778" lon="32.7861345">
<ele>944.25</ele>
<time>2015-04-27T14:24:42Z</time>
</trkpt>
<trkpt lat="34.9824407" lon="32.7861973">
<ele>943.98</ele>
<time>2015-04-27T14:24:46Z</time>
</trkpt>
<trkpt lat="34.9824218" lon="32.7862626">
<ele>943.81</ele>
<time>2015-04-27T14:24:48Z</time>
</trkpt>
<trkpt lat="34.9823940" lon="32.7863085">
<ele>943.77</ele>
<time>2015-04-27T14:24:50Z</time>
</trkpt>
<trkpt lat="34.9823690" lon="32.7863562">
<ele>944.51</ele>
<time>2015-04-27T14:24:52Z</time>
</trkpt>
<trkpt lat="34.9823531" lon="32.7864118">
<ele>944.70</ele>
<time>2015-04-27T14:24:54Z</time>
</trkpt>
<trkpt lat="34.9823396" lon="32.7864696">
<ele>944.74</ele>
<time>2015-04-27T14:24:56Z</time>
</trkpt>
<trkpt lat="34.9823280" lon="32.7865260">
<ele>944.76</ele>
<time>2015-04-27T14:24:58Z</time>
</trkpt>
<trkpt lat="34.9823255" lon="32.7865832">
<ele>944.76</ele>
<time>2015-04-27T14:25:00Z</time>
</trkpt>
<trkpt lat="34.9823209" lon="32.7866399">
<ele>945.01</ele>
<time>2015-04-27T14:25:02Z</time>
</trkpt>
<trkpt lat="34.9823241" lon="32.7867193">
<ele>945.54</ele>
<time>2015-04-27T14:25:05Z</time>
</trkpt>
<trkpt lat="34.9823358" lon="32.7867734">
<ele>946.21</ele>
<time>2015-04-27T14:25:07Z</time>
</trkpt>
<trkpt lat="34.9823584" lon="32.7868462">
<ele>948.07</ele>
<time>2015-04-27T14:25:10Z</time>
</trkpt>
<trkpt lat="34.9823908" lon="32.7869143">
<ele>949.92</ele>
<time>2015-04-27T14:25:13Z</time>
</trkpt>
<trkpt lat="34.9824278" lon="32.7869747">
<ele>951.16</ele>
<time>2015-04-27T14:25:16Z</time>
</trkpt>
<trkpt lat="34.9824682" lon="32.7870152">
<ele>949.56</ele>
<time>2015-04-27T14:25:19Z</time>
</trkpt>
<trkpt lat="34.9825186" lon="32.7870408">
<ele>949.73</ele>
<time>2015-04-27T14:25:22Z</time>
</trkpt>
<trkpt lat="34.9825768" lon="32.7870487">
<ele>950.13</ele>
<time>2015-04-27T14:25:26Z</time>
</trkpt>
<trkpt lat="34.9826358" lon="32.7870454">
<ele>950.93</ele>
<time>2015-04-27T14:25:29Z</time>
</trkpt>
<trkpt lat="34.9826883" lon="32.7870384">
<ele>951.41</ele>
<time>2015-04-27T14:25:32Z</time>
</trkpt>
<trkpt lat="34.9827376" lon="32.7870276">
<ele>952.47</ele>
<time>2015-04-27T14:25:35Z</time>
</trkpt>
<trkpt lat="34.9827824" lon="32.7870107">
<ele>953.19</ele>
<time>2015-04-27T14:25:37Z</time>
</trkpt>
<trkpt lat="34.9828386" lon="32.7869837">
<ele>953.19</ele>
<time>2015-04-27T14:25:40Z</time>
</trkpt>
<trkpt lat="34.9828930" lon="32.7869555">
<ele>952.79</ele>
<time>2015-04-27T14:25:44Z</time>
</trkpt>
<trkpt lat="34.9829343" lon="32.7869238">
<ele>953.27</ele>
<time>2015-04-27T14:25:46Z</time>
</trkpt>
<trkpt lat="34.9829790" lon="32.7868859">
<ele>953.64</ele>
<time>2015-04-27T14:25:48Z</time>
</trkpt>
<trkpt lat="34.9830280" lon="32.7868551">
<ele>954.48</ele>
<time>2015-04-27T14:25:50Z</time>
</trkpt>
<trkpt lat="34.9830714" lon="32.7868388">
<ele>953.85</ele>
<time>2015-04-27T14:25:53Z</time>
</trkpt>
<trkpt lat="34.9831196" lon="32.7868084">
<ele>954.52</ele>
<time>2015-04-27T14:25:56Z</time>
</trkpt>
<trkpt lat="34.9831565" lon="32.7867711">
<ele>954.75</ele>
<time>2015-04-27T14:26:00Z</time>
</trkpt>
<trkpt lat="34.9832051" lon="32.7867407">
<ele>953.51</ele>
<time>2015-04-27T14:26:03Z</time>
</trkpt>
<trkpt lat="34.9832506" lon="32.7867130">
<ele>952.95</ele>
<time>2015-04-27T14:26:05Z</time>
</trkpt>
<trkpt lat="34.9833014" lon="32.7866882">
<ele>952.28</ele>
<time>2015-04-27T14:26:08Z</time>
</trkpt>
<trkpt lat="34.9833526" lon="32.7866594">
<ele>953.33</ele>
<time>2015-04-27T14:26:11Z</time>
</trkpt>
<trkpt lat="34.9834053" lon="32.7866290">
<ele>953.71</ele>
<time>2015-04-27T14:26:14Z</time>
</trkpt>
<trkpt lat="34.9834352" lon="32.7865787">
<ele>952.76</ele>
<time>2015-04-27T14:26:18Z</time>
</trkpt>
<trkpt lat="34.9834548" lon="32.7865070">
<ele>951.88</ele>
<time>2015-04-27T14:26:22Z</time>
</trkpt>
<trkpt lat="34.9834712" lon="32.7864478">
<ele>953.15</ele>
<time>2015-04-27T14:26:25Z</time>
</trkpt>
<trkpt lat="34.9834919" lon="32.7863854">
<ele>954.56</ele>
<time>2015-04-27T14:26:28Z</time>
</trkpt>
<trkpt lat="34.9835141" lon="32.7863256">
<ele>954.73</ele>
<time>2015-04-27T14:26:31Z</time>
</trkpt>
<trkpt lat="34.9835485" lon="32.7862761">
<ele>955.70</ele>
<time>2015-04-27T14:26:35Z</time>
</trkpt>
<trkpt lat="34.9835810" lon="32.7862216">
<ele>956.69</ele>
<time>2015-04-27T14:26:39Z</time>
</trkpt>
<trkpt lat="34.9836142" lon="32.7861593">
<ele>956.88</ele>
<time>2015-04-27T14:26:42Z</time>
</trkpt>
<trkpt lat="34.9836563" lon="32.7861220">
<ele>957.27</ele>
<time>2015-04-27T14:26:45Z</time>
</trkpt>
<trkpt lat="34.9837000" lon="32.7860842">
<ele>959.32</ele>
<time>2015-04-27T14:26:48Z</time>
</trkpt>
<trkpt lat="34.9837442" lon="32.7860508">
<ele>958.46</ele>
<time>2015-04-27T14:26:51Z</time>
</trkpt>
<trkpt lat="34.9837996" lon="32.7860232">
<ele>957.85</ele>
<time>2015-04-27T14:26:54Z</time>
</trkpt>
<trkpt lat="34.9838484" lon="32.7860087">
<ele>957.52</ele>
<time>2015-04-27T14:26:57Z</time>
</trkpt>
<trkpt lat="34.9839013" lon="32.7859977">
<ele>960.48</ele>
<time>2015-04-27T14:27:00Z</time>
</trkpt>
<trkpt lat="34.9839534" lon="32.7859982">
<ele>961.48</ele>
<time>2015-04-27T14:27:03Z</time>
</trkpt>
<trkpt lat="34.9840097" lon="32.7859825">
<ele>959.72</ele>
<time>2015-04-27T14:27:06Z</time>
</trkpt>
<trkpt lat="34.9840681" lon="32.7859668">
<ele>959.00</ele>
<time>2015-04-27T14:27:08Z</time>
</trkpt>
<trkpt lat="34.9841205" lon="32.7859522">
<ele>959.32</ele>
<time>2015-04-27T14:27:10Z</time>
</trkpt>
<trkpt lat="34.9841706" lon="32.7859360">
<ele>958.96</ele>
<time>2015-04-27T14:27:13Z</time>
</trkpt>
<trkpt lat="34.9842300" lon="32.7859236">
<ele>958.78</ele>
<time>2015-04-27T14:27:16Z</time>
</trkpt>
<trkpt lat="34.9842863" lon="32.7859181">
<ele>958.51</ele>
<time>2015-04-27T14:27:19Z</time>
</trkpt>
<trkpt lat="34.9843437" lon="32.7859089">
<ele>958.73</ele>
<time>2015-04-27T14:27:22Z</time>
</trkpt>
<trkpt lat="34.9843990" lon="32.7859070">
<ele>960.51</ele>
<time>2015-04-27T14:27:25Z</time>
</trkpt>
<trkpt lat="34.9844516" lon="32.7859021">
<ele>961.23</ele>
<time>2015-04-27T14:27:28Z</time>
</trkpt>
<trkpt lat="34.9844985" lon="32.7858848">
<ele>960.94</ele>
<time>2015-04-27T14:27:31Z</time>
</trkpt>
<trkpt lat="34.9845468" lon="32.7858792">
<ele>961.66</ele>
<time>2015-04-27T14:27:34Z</time>
</trkpt>
<trkpt lat="34.9846001" lon="32.7858820">
<ele>962.50</ele>
<time>2015-04-27T14:27:37Z</time>
</trkpt>
<trkpt lat="34.9846496" lon="32.7858981">
<ele>962.23</ele>
<time>2015-04-27T14:27:40Z</time>
</trkpt>
<trkpt lat="34.9847097" lon="32.7859139">
<ele>962.32</ele>
<time>2015-04-27T14:27:43Z</time>
</trkpt>
<trkpt lat="34.9847543" lon="32.7859236">
<ele>962.15</ele>
<time>2015-04-27T14:27:45Z</time>
</trkpt>
<trkpt lat="34.9848140" lon="32.7859385">
<ele>962.31</ele>
<time>2015-04-27T14:27:48Z</time>
</trkpt>
<trkpt lat="34.9848778" lon="32.7859563">
<ele>963.95</ele>
<time>2015-04-27T14:27:51Z</time>
</trkpt>
<trkpt lat="34.9849241" lon="32.7859739">
<ele>964.56</ele>
<time>2015-04-27T14:27:53Z</time>
</trkpt>
<trkpt lat="34.9849679" lon="32.7859951">
<ele>964.71</ele>
<time>2015-04-27T14:27:55Z</time>
</trkpt>
<trkpt lat="34.9850116" lon="32.7860188">
<ele>965.00</ele>
<time>2015-04-27T14:27:57Z</time>
</trkpt>
<trkpt lat="34.9850664" lon="32.7860682">
<ele>964.79</ele>
<time>2015-04-27T14:28:00Z</time>
</trkpt>
<trkpt lat="34.9850956" lon="32.7861183">
<ele>964.02</ele>
<time>2015-04-27T14:28:02Z</time>
</trkpt>
<trkpt lat="34.9851232" lon="32.7861644">
<ele>963.82</ele>
<time>2015-04-27T14:28:04Z</time>
</trkpt>
<trkpt lat="34.9851566" lon="32.7862199">
<ele>965.20</ele>
<time>2015-04-27T14:28:08Z</time>
</trkpt>
<trkpt lat="34.9851715" lon="32.7862750">
<ele>965.69</ele>
<time>2015-04-27T14:28:11Z</time>
</trkpt>
<trkpt lat="34.9851846" lon="32.7863373">
<ele>965.25</ele>
<time>2015-04-27T14:28:14Z</time>
</trkpt>
<trkpt lat="34.9851918" lon="32.7864051">
<ele>964.32</ele>
<time>2015-04-27T14:28:17Z</time>
</trkpt>
<trkpt lat="34.9851992" lon="32.7864757">
<ele>964.71</ele>
<time>2015-04-27T14:28:20Z</time>
</trkpt>
<trkpt lat="34.9851994" lon="32.7865337">
<ele>964.75</ele>
<time>2015-04-27T14:28:23Z</time>
</trkpt>
<trkpt lat="34.9851987" lon="32.7865918">
<ele>964.01</ele>
<time>2015-04-27T14:28:26Z</time>
</trkpt>
<trkpt lat="34.9852050" lon="32.7866530">
<ele>964.29</ele>
<time>2015-04-27T14:28:29Z</time>
</trkpt>
<trkpt lat="34.9852133" lon="32.7867090">
<ele>965.95</ele>
<time>2015-04-27T14:28:32Z</time>
</trkpt>
<trkpt lat="34.9852398" lon="32.7867678">
<ele>967.96</ele>
<time>2015-04-27T14:28:36Z</time>
</trkpt>
<trkpt lat="34.9852638" lon="32.7868206">
<ele>969.53</ele>
<time>2015-04-27T14:28:39Z</time>
</trkpt>
<trkpt lat="34.9852990" lon="32.7868644">
<ele>970.61</ele>
<time>2015-04-27T14:28:42Z</time>
</trkpt>
<trkpt lat="34.9853479" lon="32.7869060">
<ele>971.25</ele>
<time>2015-04-27T14:28:46Z</time>
</trkpt>
<trkpt lat="34.9853960" lon="32.7869262">
<ele>972.45</ele>
<time>2015-04-27T14:28:49Z</time>
</trkpt>
<trkpt lat="34.9854479" lon="32.7869374">
<ele>972.72</ele>
<time>2015-04-27T14:28:52Z</time>
</trkpt>
<trkpt lat="34.9855042" lon="32.7869526">
<ele>973.01</ele>
<time>2015-04-27T14:28:55Z</time>
</trkpt>
<trkpt lat="34.9855606" lon="32.7869667">
<ele>973.32</ele>
<time>2015-04-27T14:28:57Z</time>
</trkpt>
<trkpt lat="34.9856061" lon="32.7869717">
<ele>973.65</ele>
<time>2015-04-27T14:28:59Z</time>
</trkpt>
<trkpt lat="34.9856510" lon="32.7869435">
<ele>977.31</ele>
<time>2015-04-27T14:29:23Z</time>
</trkpt>
<trkpt lat="34.9857007" lon="32.7869189">
<ele>976.08</ele>
<time>2015-04-27T14:29:26Z</time>
</trkpt>
<trkpt lat="34.9857580" lon="32.7869125">
<ele>975.78</ele>
<time>2015-04-27T14:29:30Z</time>
</trkpt>
<trkpt lat="34.9858039" lon="32.7868831">
<ele>975.76</ele>
<time>2015-04-27T14:29:33Z</time>
</trkpt>
<trkpt lat="34.9858496" lon="32.7868830">
<ele>974.14</ele>
<time>2015-04-27T14:29:36Z</time>
</trkpt>
<trkpt lat="34.9859060" lon="32.7868836">
<ele>972.60</ele>
<time>2015-04-27T14:29:40Z</time>
</trkpt>
<trkpt lat="34.9859549" lon="32.7868926">
<ele>972.06</ele>
<time>2015-04-27T14:29:44Z</time>
</trkpt>
<trkpt lat="34.9860038" lon="32.7869089">
<ele>972.65</ele>
<time>2015-04-27T14:29:48Z</time>
</trkpt>
<trkpt lat="34.9860468" lon="32.7869405">
<ele>973.94</ele>
<time>2015-04-27T14:29:52Z</time>
</trkpt>
<trkpt lat="34.9861008" lon="32.7869655">
<ele>976.33</ele>
<time>2015-04-27T14:29:56Z</time>
</trkpt>
<trkpt lat="34.9861336" lon="32.7870034">
<ele>976.83</ele>
<time>2015-04-27T14:29:59Z</time>
</trkpt>
<trkpt lat="34.9861647" lon="32.7870458">
<ele>976.77</ele>
<time>2015-04-27T14:30:02Z</time>
</trkpt>
<trkpt lat="34.9862018" lon="32.7870977">
<ele>976.76</ele>
<time>2015-04-27T14:30:06Z</time>
</trkpt>
<trkpt lat="34.9862325" lon="32.7871382">
<ele>977.01</ele>
<time>2015-04-27T14:30:09Z</time>
</trkpt>
<trkpt lat="34.9862626" lon="32.7871949">
<ele>978.40</ele>
<time>2015-04-27T14:30:13Z</time>
</trkpt>
<trkpt lat="34.9863021" lon="32.7872493">
<ele>980.18</ele>
<time>2015-04-27T14:30:17Z</time>
</trkpt>
<trkpt lat="34.9863323" lon="32.7872969">
<ele>981.94</ele>
<time>2015-04-27T14:30:20Z</time>
</trkpt>
<trkpt lat="34.9863631" lon="32.7873402">
<ele>982.91</ele>
<time>2015-04-27T14:30:23Z</time>
</trkpt>
<trkpt lat="34.9863989" lon="32.7873737">
<ele>982.78</ele>
<time>2015-04-27T14:30:26Z</time>
</trkpt>
<trkpt lat="34.9864438" lon="32.7873874">
<ele>985.26</ele>
<time>2015-04-27T14:30:29Z</time>
</trkpt>
<trkpt lat="34.9864905" lon="32.7873858">
<ele>985.70</ele>
<time>2015-04-27T14:30:32Z</time>
</trkpt>
<trkpt lat="34.9865376" lon="32.7873480">
<ele>984.63</ele>
<time>2015-04-27T14:30:36Z</time>
</trkpt>
<trkpt lat="34.9865871" lon="32.7872942">
<ele>985.24</ele>
<time>2015-04-27T14:30:39Z</time>
</trkpt>
<trkpt lat="34.9866150" lon="32.7872458">
<ele>985.07</ele>
<time>2015-04-27T14:30:42Z</time>
</trkpt>
<trkpt lat="34.9866491" lon="32.7871877">
<ele>986.15</ele>
<time>2015-04-27T14:30:46Z</time>
</trkpt>
<trkpt lat="34.9866804" lon="32.7871367">
<ele>987.43</ele>
<time>2015-04-27T14:30:49Z</time>
</trkpt>
<trkpt lat="34.9867147" lon="32.7870897">
<ele>988.09</ele>
<time>2015-04-27T14:30:52Z</time>
</trkpt>
<trkpt lat="34.9867613" lon="32.7870536">
<ele>986.68</ele>
<time>2015-04-27T14:30:55Z</time>
</trkpt>
<trkpt lat="34.9868204" lon="32.7870264">
<ele>985.87</ele>
<time>2015-04-27T14:30:58Z</time>
</trkpt>
<trkpt lat="34.9868762" lon="32.7870129">
<ele>985.04</ele>
<time>2015-04-27T14:31:00Z</time>
</trkpt>
<trkpt lat="34.9869349" lon="32.7870015">
<ele>984.83</ele>
<time>2015-04-27T14:31:02Z</time>
</trkpt>
<trkpt lat="34.9869944" lon="32.7869998">
<ele>984.03</ele>
<time>2015-04-27T14:31:04Z</time>
</trkpt>
<trkpt lat="34.9870459" lon="32.7870103">
<ele>983.83</ele>
<time>2015-04-27T14:31:06Z</time>
</trkpt>
<trkpt lat="34.9870982" lon="32.7870364">
<ele>982.27</ele>
<time>2015-04-27T14:31:09Z</time>
</trkpt>
<trkpt lat="34.9871524" lon="32.7870638">
<ele>983.54</ele>
<time>2015-04-27T14:31:13Z</time>
</trkpt>
<trkpt lat="34.9872060" lon="32.7871026">
<ele>985.86</ele>
<time>2015-04-27T14:31:16Z</time>
</trkpt>
<trkpt lat="34.9872441" lon="32.7871366">
<ele>987.03</ele>
<time>2015-04-27T14:31:18Z</time>
</trkpt>
<trkpt lat="34.9872959" lon="32.7871711">
<ele>986.03</ele>
<time>2015-04-27T14:31:22Z</time>
</trkpt>
<trkpt lat="34.9873382" lon="32.7872066">
<ele>988.04</ele>
<time>2015-04-27T14:31:25Z</time>
</trkpt>
<trkpt lat="34.9873818" lon="32.7872510">
<ele>989.30</ele>
<time>2015-04-27T14:31:28Z</time>
</trkpt>
<trkpt lat="34.9874369" lon="32.7873057">
<ele>987.20</ele>
<time>2015-04-27T14:31:31Z</time>
</trkpt>
<trkpt lat="34.9874738" lon="32.7873476">
<ele>987.37</ele>
<time>2015-04-27T14:31:33Z</time>
</trkpt>
<trkpt lat="34.9875202" lon="32.7874007">
<ele>987.59</ele>
<time>2015-04-27T14:31:36Z</time>
</trkpt>
<trkpt lat="34.9875689" lon="32.7874473">
<ele>986.99</ele>
<time>2015-04-27T14:31:39Z</time>
</trkpt>
<trkpt lat="34.9876057" lon="32.7874802">
<ele>986.79</ele>
<time>2015-04-27T14:31:42Z</time>
</trkpt>
<trkpt lat="34.9876416" lon="32.7875152">
<ele>988.64</ele>
<time>2015-04-27T14:31:45Z</time>
</trkpt>
<trkpt lat="34.9876839" lon="32.7875600">
<ele>988.73</ele>
<time>2015-04-27T14:31:47Z</time>
</trkpt>
<trkpt lat="34.9877329" lon="32.7875997">
<ele>988.75</ele>
<time>2015-04-27T14:31:49Z</time>
</trkpt>
<trkpt lat="34.9877801" lon="32.7876340">
<ele>990.01</ele>
<time>2015-04-27T14:31:51Z</time>
</trkpt>
<trkpt lat="34.9878280" lon="32.7876638">
<ele>990.07</ele>
<time>2015-04-27T14:31:53Z</time>
</trkpt>
<trkpt lat="34.9878776" lon="32.7876888">
<ele>991.09</ele>
<time>2015-04-27T14:31:55Z</time>
</trkpt>
<trkpt lat="34.9879254" lon="32.7877212">
<ele>990.93</ele>
<time>2015-04-27T14:31:58Z</time>
</trkpt>
<trkpt lat="34.9879841" lon="32.7877652">
<ele>990.78</ele>
<time>2015-04-27T14:32:01Z</time>
</trkpt>
<trkpt lat="34.9880315" lon="32.7877957">
<ele>990.77</ele>
<time>2015-04-27T14:32:03Z</time>
</trkpt>
<trkpt lat="34.9880704" lon="32.7878276">
<ele>990.76</ele>
<time>2015-04-27T14:32:05Z</time>
</trkpt>
<trkpt lat="34.9881098" lon="32.7878591">
<ele>991.01</ele>
<time>2015-04-27T14:32:07Z</time>
</trkpt>
<trkpt lat="34.9881528" lon="32.7878896">
<ele>991.32</ele>
<time>2015-04-27T14:32:09Z</time>
</trkpt>
<trkpt lat="34.9881924" lon="32.7879220">
<ele>991.65</ele>
<time>2015-04-27T14:32:11Z</time>
</trkpt>
<trkpt lat="34.9882290" lon="32.7879556">
<ele>991.37</ele>
<time>2015-04-27T14:32:14Z</time>
</trkpt>
<trkpt lat="34.9882688" lon="32.7879865">
<ele>991.71</ele>
<time>2015-04-27T14:32:17Z</time>
</trkpt>
<trkpt lat="34.9883143" lon="32.7880349">
<ele>992.26</ele>
<time>2015-04-27T14:32:21Z</time>
</trkpt>
<trkpt lat="34.9883509" lon="32.7880750">
<ele>992.20</ele>
<time>2015-04-27T14:32:24Z</time>
</trkpt>
<trkpt lat="34.9883916" lon="32.7881201">
<ele>990.94</ele>
<time>2015-04-27T14:32:27Z</time>
</trkpt>
<trkpt lat="34.9884284" lon="32.7881690">
<ele>992.16</ele>
<time>2015-04-27T14:32:30Z</time>
</trkpt>
<trkpt lat="34.9884760" lon="32.7882298">
<ele>992.68</ele>
<time>2015-04-27T14:32:33Z</time>
</trkpt>
<trkpt lat="34.9885117" lon="32.7882731">
<ele>991.99</ele>
<time>2015-04-27T14:32:35Z</time>
</trkpt>
<trkpt lat="34.9885621" lon="32.7883248">
<ele>991.79</ele>
<time>2015-04-27T14:32:38Z</time>
</trkpt>
<trkpt lat="34.9886011" lon="32.7883580">
<ele>992.52</ele>
<time>2015-04-27T14:32:40Z</time>
</trkpt>
<trkpt lat="34.9886561" lon="32.7884000">
<ele>992.73</ele>
<time>2015-04-27T14:32:43Z</time>
</trkpt>
<trkpt lat="34.9887125" lon="32.7884379">
<ele>992.76</ele>
<time>2015-04-27T14:32:46Z</time>
</trkpt>
<trkpt lat="34.9887756" lon="32.7884518">
<ele>994.13</ele>
<time>2015-04-27T14:32:49Z</time>
</trkpt>
<trkpt lat="34.9888247" lon="32.7884603">
<ele>993.81</ele>
<time>2015-04-27T14:32:52Z</time>
</trkpt>
<trkpt lat="34.9888749" lon="32.7884639">
<ele>994.27</ele>
<time>2015-04-27T14:32:54Z</time>
</trkpt>
<trkpt lat="34.9889199" lon="32.7884678">
<ele>994.64</ele>
<time>2015-04-27T14:32:56Z</time>
</trkpt>
<trkpt lat="34.9889729" lon="32.7884657">
<ele>995.49</ele>
<time>2015-04-27T14:32:59Z</time>
</trkpt>
<trkpt lat="34.9890395" lon="32.7884671">
<ele>996.60</ele>
<time>2015-04-27T14:33:02Z</time>
</trkpt>
<trkpt lat="34.9890854" lon="32.7884688">
<ele>996.72</ele>
<time>2015-04-27T14:33:04Z</time>
</trkpt>
<trkpt lat="34.9891471" lon="32.7884652">
<ele>997.01</ele>
<time>2015-04-27T14:33:07Z</time>
</trkpt>
<trkpt lat="34.9891936" lon="32.7884605">
<ele>996.79</ele>
<time>2015-04-27T14:33:10Z</time>
</trkpt>
<trkpt lat="34.9892579" lon="32.7884571">
<ele>997.64</ele>
<time>2015-04-27T14:33:13Z</time>
</trkpt>
<trkpt lat="34.9893218" lon="32.7884515">
<ele>998.24</ele>
<time>2015-04-27T14:33:16Z</time>
</trkpt>
<trkpt lat="34.9893812" lon="32.7884461">
<ele>998.63</ele>
<time>2015-04-27T14:33:18Z</time>
</trkpt>
<trkpt lat="34.9894394" lon="32.7884491">
<ele>998.73</ele>
<time>2015-04-27T14:33:20Z</time>
</trkpt>
<trkpt lat="34.9894907" lon="32.7884602">
<ele>998.50</ele>
<time>2015-04-27T14:33:22Z</time>
</trkpt>
<trkpt lat="34.9895393" lon="32.7884681">
<ele>998.20</ele>
<time>2015-04-27T14:33:24Z</time>
</trkpt>
<trkpt lat="34.9895963" lon="32.7884871">
<ele>997.44</ele>
<time>2015-04-27T14:33:27Z</time>
</trkpt>
<trkpt lat="34.9896471" lon="32.7885136">
<ele>998.34</ele>
<time>2015-04-27T14:33:30Z</time>
</trkpt>
<trkpt lat="34.9897056" lon="32.7885450">
<ele>998.71</ele>
<time>2015-04-27T14:33:33Z</time>
</trkpt>
<trkpt lat="34.9897488" lon="32.7885737">
<ele>999.50</ele>
<time>2015-04-27T14:33:35Z</time>
</trkpt>
<trkpt lat="34.9898196" lon="32.7886193">
<ele>1000.19</ele>
<time>2015-04-27T14:33:37Z</time>
</trkpt>
<trkpt lat="34.9898893" lon="32.7886627">
<ele>1000.87</ele>
<time>2015-04-27T14:33:39Z</time>
</trkpt>
<trkpt lat="34.9899542" lon="32.7886977">
<ele>1001.54</ele>
<time>2015-04-27T14:33:41Z</time>
</trkpt>
<trkpt lat="34.9899988" lon="32.7887259">
<ele>1001.20</ele>
<time>2015-04-27T14:33:43Z</time>
</trkpt>
<trkpt lat="34.9900427" lon="32.7887509">
<ele>1001.12</ele>
<time>2015-04-27T14:33:45Z</time>
</trkpt>
<trkpt lat="34.9900932" lon="32.7887697">
<ele>1000.85</ele>
<time>2015-04-27T14:33:47Z</time>
</trkpt>
<trkpt lat="34.9901390" lon="32.7887816">
<ele>1000.78</ele>
<time>2015-04-27T14:33:49Z</time>
</trkpt>
<trkpt lat="34.9901910" lon="32.7888088">
<ele>1000.76</ele>
<time>2015-04-27T14:33:53Z</time>
</trkpt>
<trkpt lat="34.9902348" lon="32.7888376">
<ele>1000.51</ele>
<time>2015-04-27T14:33:55Z</time>
</trkpt>
<trkpt lat="34.9902919" lon="32.7888764">
<ele>999.95</ele>
<time>2015-04-27T14:33:57Z</time>
</trkpt>
<trkpt lat="34.9903359" lon="32.7889126">
<ele>1000.56</ele>
<time>2015-04-27T14:33:59Z</time>
</trkpt>
<trkpt lat="34.9903840" lon="32.7889597">
<ele>1000.25</ele>
<time>2015-04-27T14:34:03Z</time>
</trkpt>
<trkpt lat="34.9904320" lon="32.7890144">
<ele>999.07</ele>
<time>2015-04-27T14:34:06Z</time>
</trkpt>
<trkpt lat="34.9904553" lon="32.7890740">
<ele>998.05</ele>
<time>2015-04-27T14:34:09Z</time>
</trkpt>
<trkpt lat="34.9904571" lon="32.7891395">
<ele>999.17</ele>
<time>2015-04-27T14:34:12Z</time>
</trkpt>
<trkpt lat="34.9904440" lon="32.7892151">
<ele>999.19</ele>
<time>2015-04-27T14:34:15Z</time>
</trkpt>
<trkpt lat="34.9904221" lon="32.7892703">
<ele>999.19</ele>
<time>2015-04-27T14:34:18Z</time>
</trkpt>
<trkpt lat="34.9903897" lon="32.7893328">
<ele>999.69</ele>
<time>2015-04-27T14:34:21Z</time>
</trkpt>
<trkpt lat="34.9903543" lon="32.7893686">
<ele>999.74</ele>
<time>2015-04-27T14:34:23Z</time>
</trkpt>
<trkpt lat="34.9902977" lon="32.7893927">
<ele>1000.26</ele>
<time>2015-04-27T14:34:26Z</time>
</trkpt>
<trkpt lat="34.9902367" lon="32.7894345">
<ele>1000.70</ele>
<time>2015-04-27T14:34:29Z</time>
</trkpt>
<trkpt lat="34.9901953" lon="32.7894587">
<ele>1000.74</ele>
<time>2015-04-27T14:34:31Z</time>
</trkpt>
<trkpt lat="34.9901461" lon="32.7894741">
<ele>1001.26</ele>
<time>2015-04-27T14:34:34Z</time>
</trkpt>
<trkpt lat="34.9900929" lon="32.7894841">
<ele>1002.20</ele>
<time>2015-04-27T14:34:37Z</time>
</trkpt>
<trkpt lat="34.9900412" lon="32.7895011">
<ele>1002.56</ele>
<time>2015-04-27T14:34:40Z</time>
</trkpt>
<trkpt lat="34.9899796" lon="32.7895210">
<ele>1002.11</ele>
<time>2015-04-27T14:34:43Z</time>
</trkpt>
<trkpt lat="34.9899197" lon="32.7895273">
<ele>1001.85</ele>
<time>2015-04-27T14:34:45Z</time>
</trkpt>
<trkpt lat="34.9898598" lon="32.7895443">
<ele>1001.78</ele>
<time>2015-04-27T14:34:47Z</time>
</trkpt>
<trkpt lat="34.9898029" lon="32.7895630">
<ele>1001.77</ele>
<time>2015-04-27T14:34:49Z</time>
</trkpt>
<trkpt lat="34.9897563" lon="32.7895806">
<ele>1002.26</ele>
<time>2015-04-27T14:34:51Z</time>
</trkpt>
<trkpt lat="34.9896948" lon="32.7896169">
<ele>1002.70</ele>
<time>2015-04-27T14:34:54Z</time>
</trkpt>
<trkpt lat="34.9896451" lon="32.7896408">
<ele>1002.99</ele>
<time>2015-04-27T14:34:56Z</time>
</trkpt>
<trkpt lat="34.9895955" lon="32.7896646">
<ele>1002.82</ele>
<time>2015-04-27T14:34:58Z</time>
</trkpt>
<trkpt lat="34.9895490" lon="32.7896881">
<ele>1003.52</ele>
<time>2015-04-27T14:35:00Z</time>
</trkpt>
<trkpt lat="34.9895045" lon="32.7897163">
<ele>1003.45</ele>
<time>2015-04-27T14:35:02Z</time>
</trkpt>
<trkpt lat="34.9894636" lon="32.7897464">
<ele>1003.68</ele>
<time>2015-04-27T14:35:04Z</time>
</trkpt>
<trkpt lat="34.9894121" lon="32.7897844">
<ele>1002.88</ele>
<time>2015-04-27T14:35:07Z</time>
</trkpt>
<trkpt lat="34.9893770" lon="32.7898236">
<ele>1002.79</ele>
<time>2015-04-27T14:35:09Z</time>
</trkpt>
<trkpt lat="34.9893498" lon="32.7898747">
<ele>1002.77</ele>
<time>2015-04-27T14:35:11Z</time>
</trkpt>
<trkpt lat="34.9893244" lon="32.7899236">
<ele>1002.76</ele>
<time>2015-04-27T14:35:13Z</time>
</trkpt>
<trkpt lat="34.9892980" lon="32.7899831">
<ele>1002.01</ele>
<time>2015-04-27T14:35:16Z</time>
</trkpt>
<trkpt lat="34.9892732" lon="32.7900488">
<ele>1002.29</ele>
<time>2015-04-27T14:35:19Z</time>
</trkpt>
<trkpt lat="34.9892656" lon="32.7901059">
<ele>1002.64</ele>
<time>2015-04-27T14:35:21Z</time>
</trkpt>
<trkpt lat="34.9892639" lon="32.7901684">
<ele>1002.98</ele>
<time>2015-04-27T14:35:23Z</time>
</trkpt>
<trkpt lat="34.9892605" lon="32.7902280">
<ele>1002.82</ele>
<time>2015-04-27T14:35:25Z</time>
</trkpt>
<trkpt lat="34.9892544" lon="32.7902985">
<ele>1002.77</ele>
<time>2015-04-27T14:35:28Z</time>
</trkpt>
<trkpt lat="34.9892391" lon="32.7903626">
<ele>1002.57</ele>
<time>2015-04-27T14:35:32Z</time>
</trkpt>
<trkpt lat="34.9892185" lon="32.7904352">
<ele>1002.49</ele>
<time>2015-04-27T14:35:35Z</time>
</trkpt>
<trkpt lat="34.9892023" lon="32.7904910">
<ele>1002.69</ele>
<time>2015-04-27T14:35:37Z</time>
</trkpt>
<trkpt lat="34.9891865" lon="32.7905578">
<ele>1002.25</ele>
<time>2015-04-27T14:35:40Z</time>
</trkpt>
<trkpt lat="34.9891598" lon="32.7906179">
<ele>1001.82</ele>
<time>2015-04-27T14:35:43Z</time>
</trkpt>
<trkpt lat="34.9891244" lon="32.7906817">
<ele>1002.52</ele>
<time>2015-04-27T14:35:46Z</time>
</trkpt>
<trkpt lat="34.9890772" lon="32.7907352">
<ele>1002.73</ele>
<time>2015-04-27T14:35:49Z</time>
</trkpt>
<trkpt lat="34.9890426" lon="32.7907723">
<ele>1002.75</ele>
<time>2015-04-27T14:35:51Z</time>
</trkpt>
<trkpt lat="34.9889866" lon="32.7908150">
<ele>1002.76</ele>
<time>2015-04-27T14:35:54Z</time>
</trkpt>
<trkpt lat="34.9889262" lon="32.7908498">
<ele>1004.01</ele>
<time>2015-04-27T14:35:57Z</time>
</trkpt>
<trkpt lat="34.9888827" lon="32.7908668">
<ele>1004.57</ele>
<time>2015-04-27T14:35:59Z</time>
</trkpt>
<trkpt lat="34.9888375" lon="32.7908712">
<ele>1004.71</ele>
<time>2015-04-27T14:36:01Z</time>
</trkpt>
<trkpt lat="34.9887911" lon="32.7908716">
<ele>1004.75</ele>
<time>2015-04-27T14:36:03Z</time>
</trkpt>
<trkpt lat="34.9887346" lon="32.7908621">
<ele>1004.76</ele>
<time>2015-04-27T14:36:05Z</time>
</trkpt>
<trkpt lat="34.9886745" lon="32.7908341">
<ele>1004.76</ele>
<time>2015-04-27T14:36:07Z</time>
</trkpt>
<trkpt lat="34.9886240" lon="32.7907941">
<ele>1005.26</ele>
<time>2015-04-27T14:36:09Z</time>
</trkpt>
<trkpt lat="34.9885825" lon="32.7907603">
<ele>1005.63</ele>
<time>2015-04-27T14:36:11Z</time>
</trkpt>
<trkpt lat="34.9885314" lon="32.7907238">
<ele>1005.74</ele>
<time>2015-04-27T14:36:14Z</time>
</trkpt>
<trkpt lat="34.9884796" lon="32.7906903">
<ele>1005.76</ele>
<time>2015-04-27T14:36:17Z</time>
</trkpt>
<trkpt lat="34.9884258" lon="32.7906474">
<ele>1005.76</ele>
<time>2015-04-27T14:36:19Z</time>
</trkpt>
<trkpt lat="34.9883602" lon="32.7906048">
<ele>1007.01</ele>
<time>2015-04-27T14:36:21Z</time>
</trkpt>
<trkpt lat="34.9882988" lon="32.7905746">
<ele>1007.57</ele>
<time>2015-04-27T14:36:23Z</time>
</trkpt>
<trkpt lat="34.9882392" lon="32.7905634">
<ele>1007.74</ele>
<time>2015-04-27T14:36:26Z</time>
</trkpt>
<trkpt lat="34.9881886" lon="32.7905763">
<ele>1007.76</ele>
<time>2015-04-27T14:36:29Z</time>
</trkpt>
<trkpt lat="34.9881324" lon="32.7905939">
<ele>1006.88</ele>
<time>2015-04-27T14:36:32Z</time>
</trkpt>
<trkpt lat="34.9880836" lon="32.7906201">
<ele>1006.78</ele>
<time>2015-04-27T14:36:35Z</time>
</trkpt>
<trkpt lat="34.9880577" lon="32.7906887">
<ele>1005.89</ele>
<time>2015-04-27T14:36:38Z</time>
</trkpt>
<trkpt lat="34.9880068" lon="32.7906969">
<ele>999.76</ele>
<time>2015-04-27T14:40:14Z</time>
</trkpt>
<trkpt lat="34.9879648" lon="32.7907349">
<ele>1001.51</ele>
<time>2015-04-27T14:40:32Z</time>
</trkpt>
<trkpt lat="34.9879393" lon="32.7907946">
<ele>1002.48</ele>
<time>2015-04-27T14:40:35Z</time>
</trkpt>
<trkpt lat="34.9879096" lon="32.7908468">
<ele>1002.72</ele>
<time>2015-04-27T14:40:38Z</time>
</trkpt>
<trkpt lat="34.9878805" lon="32.7908944">
<ele>1004.62</ele>
<time>2015-04-27T14:40:44Z</time>
</trkpt>
<trkpt lat="34.9878650" lon="32.7909657">
<ele>1006.19</ele>
<time>2015-04-27T14:40:49Z</time>
</trkpt>
<trkpt lat="34.9878465" lon="32.7910232">
<ele>1006.69</ele>
<time>2015-04-27T14:40:52Z</time>
</trkpt>
<trkpt lat="34.9878353" lon="32.7910791">
<ele>1006.75</ele>
<time>2015-04-27T14:40:55Z</time>
</trkpt>
<trkpt lat="34.9878312" lon="32.7911508">
<ele>1007.51</ele>
<time>2015-04-27T14:40:58Z</time>
</trkpt>
<trkpt lat="34.9878337" lon="32.7912147">
<ele>1007.74</ele>
<time>2015-04-27T14:41:02Z</time>
</trkpt>
<trkpt lat="34.9878537" lon="32.7912715">
<ele>1007.82</ele>
<time>2015-04-27T14:41:06Z</time>
</trkpt>
<trkpt lat="34.9878733" lon="32.7913314">
<ele>1006.77</ele>
<time>2015-04-27T14:41:09Z</time>
</trkpt>
<trkpt lat="34.9878937" lon="32.7913954">
<ele>1006.76</ele>
<time>2015-04-27T14:41:12Z</time>
</trkpt>
<trkpt lat="34.9879120" lon="32.7914515">
<ele>1007.26</ele>
<time>2015-04-27T14:41:15Z</time>
</trkpt>
<trkpt lat="34.9879330" lon="32.7915027">
<ele>1007.20</ele>
<time>2015-04-27T14:41:18Z</time>
</trkpt>
<trkpt lat="34.9879546" lon="32.7915534">
<ele>1006.81</ele>
<time>2015-04-27T14:41:21Z</time>
</trkpt>
<trkpt lat="34.9879756" lon="32.7916064">
<ele>1007.26</ele>
<time>2015-04-27T14:41:25Z</time>
</trkpt>
<trkpt lat="34.9879817" lon="32.7916709">
<ele>1008.57</ele>
<time>2015-04-27T14:41:28Z</time>
</trkpt>
<trkpt lat="34.9879948" lon="32.7917464">
<ele>1009.61</ele>
<time>2015-04-27T14:41:31Z</time>
</trkpt>
<trkpt lat="34.9880190" lon="32.7918101">
<ele>1009.74</ele>
<time>2015-04-27T14:41:34Z</time>
</trkpt>
<trkpt lat="34.9880433" lon="32.7918944">
<ele>1009.63</ele>
<time>2015-04-27T14:41:37Z</time>
</trkpt>
<trkpt lat="34.9880586" lon="32.7919678">
<ele>1009.73</ele>
<time>2015-04-27T14:41:39Z</time>
</trkpt>
<trkpt lat="34.9880748" lon="32.7920434">
<ele>1009.75</ele>
<time>2015-04-27T14:41:41Z</time>
</trkpt>
<trkpt lat="34.9880944" lon="32.7921143">
<ele>1010.51</ele>
<time>2015-04-27T14:41:43Z</time>
</trkpt>
<trkpt lat="34.9881071" lon="32.7921866">
<ele>1010.95</ele>
<time>2015-04-27T14:41:45Z</time>
</trkpt>
<trkpt lat="34.9881215" lon="32.7922626">
<ele>1010.31</ele>
<time>2015-04-27T14:41:47Z</time>
</trkpt>
<trkpt lat="34.9881344" lon="32.7923400">
<ele>1011.15</ele>
<time>2015-04-27T14:41:49Z</time>
</trkpt>
<trkpt lat="34.9881572" lon="32.7924158">
<ele>1012.11</ele>
<time>2015-04-27T14:41:51Z</time>
</trkpt>
<trkpt lat="34.9881888" lon="32.7924883">
<ele>1012.85</ele>
<time>2015-04-27T14:41:53Z</time>
</trkpt>
<trkpt lat="34.9882272" lon="32.7925492">
<ele>1012.78</ele>
<time>2015-04-27T14:41:55Z</time>
</trkpt>
<trkpt lat="34.9882732" lon="32.7925923">
<ele>1012.27</ele>
<time>2015-04-27T14:41:57Z</time>
</trkpt>
<trkpt lat="34.9883302" lon="32.7926303">
<ele>1011.14</ele>
<time>2015-04-27T14:41:59Z</time>
</trkpt>
<trkpt lat="34.9883946" lon="32.7926692">
<ele>1009.60</ele>
<time>2015-04-27T14:42:01Z</time>
</trkpt>
<trkpt lat="34.9884565" lon="32.7927089">
<ele>1009.22</ele>
<time>2015-04-27T14:42:03Z</time>
</trkpt>
<trkpt lat="34.9885150" lon="32.7927462">
<ele>1008.88</ele>
<time>2015-04-27T14:42:05Z</time>
</trkpt>
<trkpt lat="34.9885717" lon="32.7927859">
<ele>1009.04</ele>
<time>2015-04-27T14:42:07Z</time>
</trkpt>
<trkpt lat="34.9886197" lon="32.7928282">
<ele>1008.83</ele>
<time>2015-04-27T14:42:09Z</time>
</trkpt>
<trkpt lat="34.9886585" lon="32.7928788">
<ele>1009.28</ele>
<time>2015-04-27T14:42:11Z</time>
</trkpt>
<trkpt lat="34.9886961" lon="32.7929334">
<ele>1010.14</ele>
<time>2015-04-27T14:42:13Z</time>
</trkpt>
<trkpt lat="34.9887354" lon="32.7929937">
<ele>1010.60</ele>
<time>2015-04-27T14:42:15Z</time>
</trkpt>
<trkpt lat="34.9887740" lon="32.7930556">
<ele>1011.22</ele>
<time>2015-04-27T14:42:17Z</time>
</trkpt>
<trkpt lat="34.9888066" lon="32.7931251">
<ele>1011.63</ele>
<time>2015-04-27T14:42:19Z</time>
</trkpt>
<trkpt lat="34.9888337" lon="32.7932030">
<ele>1012.48</ele>
<time>2015-04-27T14:42:21Z</time>
</trkpt>
<trkpt lat="34.9888630" lon="32.7932831">
<ele>1012.69</ele>
<time>2015-04-27T14:42:23Z</time>
</trkpt>
<trkpt lat="34.9888924" lon="32.7933733">
<ele>1012.74</ele>
<time>2015-04-27T14:42:25Z</time>
</trkpt>
<trkpt lat="34.9889140" lon="32.7934655">
<ele>1013.26</ele>
<time>2015-04-27T14:42:27Z</time>
</trkpt>
<trkpt lat="34.9889350" lon="32.7935547">
<ele>1012.63</ele>
<time>2015-04-27T14:42:29Z</time>
</trkpt>
<trkpt lat="34.9889472" lon="32.7936391">
<ele>1012.48</ele>
<time>2015-04-27T14:42:31Z</time>
</trkpt>
<trkpt lat="34.9889588" lon="32.7937242">
<ele>1012.69</ele>
<time>2015-04-27T14:42:33Z</time>
</trkpt>
<trkpt lat="34.9889696" lon="32.7938089">
<ele>1012.74</ele>
<time>2015-04-27T14:42:35Z</time>
</trkpt>
<trkpt lat="34.9889855" lon="32.7938938">
<ele>1012.76</ele>
<time>2015-04-27T14:42:37Z</time>
</trkpt>
<trkpt lat="34.9890088" lon="32.7939725">
<ele>1012.76</ele>
<time>2015-04-27T14:42:39Z</time>
</trkpt>
<trkpt lat="34.9890275" lon="32.7940407">
<ele>1013.51</ele>
<time>2015-04-27T14:42:41Z</time>
</trkpt>
<trkpt lat="34.9890585" lon="32.7940934">
<ele>1013.45</ele>
<time>2015-04-27T14:42:43Z</time>
</trkpt>
<trkpt lat="34.9890979" lon="32.7941371">
<ele>1013.68</ele>
<time>2015-04-27T14:42:45Z</time>
</trkpt>
<trkpt lat="34.9891363" lon="32.7941870">
<ele>1013.74</ele>
<time>2015-04-27T14:42:47Z</time>
</trkpt>
<trkpt lat="34.9891783" lon="32.7942377">
<ele>1013.76</ele>
<time>2015-04-27T14:42:49Z</time>
</trkpt>
<trkpt lat="34.9892186" lon="32.7942926">
<ele>1013.76</ele>
<time>2015-04-27T14:42:51Z</time>
</trkpt>
<trkpt lat="34.9892638" lon="32.7943487">
<ele>1013.01</ele>
<time>2015-04-27T14:42:53Z</time>
</trkpt>
<trkpt lat="34.9893062" lon="32.7944103">
<ele>1011.32</ele>
<time>2015-04-27T14:42:55Z</time>
</trkpt>
<trkpt lat="34.9893402" lon="32.7944752">
<ele>1010.15</ele>
<time>2015-04-27T14:42:57Z</time>
</trkpt>
<trkpt lat="34.9893625" lon="32.7945460">
<ele>1009.86</ele>
<time>2015-04-27T14:42:59Z</time>
</trkpt>
<trkpt lat="34.9893736" lon="32.7946203">
<ele>1010.53</ele>
<time>2015-04-27T14:43:01Z</time>
</trkpt>
<trkpt lat="34.9893687" lon="32.7946885">
<ele>1011.45</ele>
<time>2015-04-27T14:43:03Z</time>
</trkpt>
<trkpt lat="34.9893582" lon="32.7947547">
<ele>1010.93</ele>
<time>2015-04-27T14:43:05Z</time>
</trkpt>
<trkpt lat="34.9893410" lon="32.7948236">
<ele>1011.30</ele>
<time>2015-04-27T14:43:07Z</time>
</trkpt>
<trkpt lat="34.9893208" lon="32.7949024">
<ele>1011.65</ele>
<time>2015-04-27T14:43:09Z</time>
</trkpt>
<trkpt lat="34.9892974" lon="32.7949882">
<ele>1012.23</ele>
<time>2015-04-27T14:43:11Z</time>
</trkpt>
<trkpt lat="34.9892818" lon="32.7950780">
<ele>1012.63</ele>
<time>2015-04-27T14:43:13Z</time>
</trkpt>
<trkpt lat="34.9892747" lon="32.7951709">
<ele>1012.73</ele>
<time>2015-04-27T14:43:15Z</time>
</trkpt>
<trkpt lat="34.9892845" lon="32.7952636">
<ele>1012.75</ele>
<time>2015-04-27T14:43:17Z</time>
</trkpt>
<trkpt lat="34.9893101" lon="32.7953520">
<ele>1012.01</ele>
<time>2015-04-27T14:43:19Z</time>
</trkpt>
<trkpt lat="34.9893382" lon="32.7954309">
<ele>1011.32</ele>
<time>2015-04-27T14:43:21Z</time>
</trkpt>
<trkpt lat="34.9893689" lon="32.7955075">
<ele>1011.90</ele>
<time>2015-04-27T14:43:23Z</time>
</trkpt>
<trkpt lat="34.9893959" lon="32.7955905">
<ele>1013.05</ele>
<time>2015-04-27T14:43:25Z</time>
</trkpt>
<trkpt lat="34.9894185" lon="32.7956718">
<ele>1013.58</ele>
<time>2015-04-27T14:43:27Z</time>
</trkpt>
<trkpt lat="34.9894376" lon="32.7957247">
<ele>1012.72</ele>
<time>2015-04-27T14:43:29Z</time>
</trkpt>
<trkpt lat="34.9894632" lon="32.7957880">
<ele>1012.25</ele>
<time>2015-04-27T14:43:32Z</time>
</trkpt>
<trkpt lat="34.9894924" lon="32.7958478">
<ele>1011.88</ele>
<time>2015-04-27T14:43:34Z</time>
</trkpt>
<trkpt lat="34.9895241" lon="32.7959179">
<ele>1012.54</ele>
<time>2015-04-27T14:43:36Z</time>
</trkpt>
<trkpt lat="34.9895580" lon="32.7959909">
<ele>1013.21</ele>
<time>2015-04-27T14:43:38Z</time>
</trkpt>
<trkpt lat="34.9895995" lon="32.7960731">
<ele>1013.62</ele>
<time>2015-04-27T14:43:40Z</time>
</trkpt>
<trkpt lat="34.9896425" lon="32.7961524">
<ele>1012.98</ele>
<time>2015-04-27T14:43:42Z</time>
</trkpt>
<trkpt lat="34.9896823" lon="32.7962244">
<ele>1013.31</ele>
<time>2015-04-27T14:43:44Z</time>
</trkpt>
<trkpt lat="34.9897136" lon="32.7962795">
<ele>1014.40</ele>
<time>2015-04-27T14:43:46Z</time>
</trkpt>
<trkpt lat="34.9897446" lon="32.7963259">
<ele>1014.67</ele>
<time>2015-04-27T14:43:48Z</time>
</trkpt>
<trkpt lat="34.9897827" lon="32.7963751">
<ele>1013.87</ele>
<time>2015-04-27T14:43:51Z</time>
</trkpt>
<trkpt lat="34.9898141" lon="32.7964319">
<ele>1013.77</ele>
<time>2015-04-27T14:43:54Z</time>
</trkpt>
<trkpt lat="34.9898489" lon="32.7964917">
<ele>1013.76</ele>
<time>2015-04-27T14:43:56Z</time>
</trkpt>
<trkpt lat="34.9898818" lon="32.7965572">
<ele>1014.51</ele>
<time>2015-04-27T14:43:58Z</time>
</trkpt>
<trkpt lat="34.9899024" lon="32.7966297">
<ele>1014.70</ele>
<time>2015-04-27T14:44:00Z</time>
</trkpt>
<trkpt lat="34.9899077" lon="32.7967118">
<ele>1014.74</ele>
<time>2015-04-27T14:44:02Z</time>
</trkpt>
<trkpt lat="34.9898869" lon="32.7967964">
<ele>1016.01</ele>
<time>2015-04-27T14:44:04Z</time>
</trkpt>
<trkpt lat="34.9898462" lon="32.7968724">
<ele>1016.57</ele>
<time>2015-04-27T14:44:06Z</time>
</trkpt>
<trkpt lat="34.9898127" lon="32.7969283">
<ele>1016.71</ele>
<time>2015-04-27T14:44:08Z</time>
</trkpt>
<trkpt lat="34.9897662" lon="32.7969572">
<ele>1017.25</ele>
<time>2015-04-27T14:44:10Z</time>
</trkpt>
<trkpt lat="34.9897168" lon="32.7969758">
<ele>1016.88</ele>
<time>2015-04-27T14:44:12Z</time>
</trkpt>
<trkpt lat="34.9896693" lon="32.7969880">
<ele>1017.54</ele>
<time>2015-04-27T14:44:14Z</time>
</trkpt>
<trkpt lat="34.9896170" lon="32.7970012">
<ele>1017.21</ele>
<time>2015-04-27T14:44:16Z</time>
</trkpt>
<trkpt lat="34.9895463" lon="32.7970295">
<ele>1016.87</ele>
<time>2015-04-27T14:44:18Z</time>
</trkpt>
<trkpt lat="34.9894867" lon="32.7970620">
<ele>1016.79</ele>
<time>2015-04-27T14:44:20Z</time>
</trkpt>
<trkpt lat="34.9894302" lon="32.7970988">
<ele>1016.77</ele>
<time>2015-04-27T14:44:22Z</time>
</trkpt>
<trkpt lat="34.9893773" lon="32.7971514">
<ele>1018.26</ele>
<time>2015-04-27T14:44:24Z</time>
</trkpt>
<trkpt lat="34.9893356" lon="32.7972197">
<ele>1017.89</ele>
<time>2015-04-27T14:44:26Z</time>
</trkpt>
<trkpt lat="34.9893008" lon="32.7972918">
<ele>1017.54</ele>
<time>2015-04-27T14:44:28Z</time>
</trkpt>
<trkpt lat="34.9892684" lon="32.7973632">
<ele>1018.46</ele>
<time>2015-04-27T14:44:30Z</time>
</trkpt>
<trkpt lat="34.9892398" lon="32.7974318">
<ele>1018.93</ele>
<time>2015-04-27T14:44:32Z</time>
</trkpt>
<trkpt lat="34.9892148" lon="32.7974914">
<ele>1019.55</ele>
<time>2015-04-27T14:44:34Z</time>
</trkpt>
<trkpt lat="34.9891865" lon="32.7975384">
<ele>1018.96</ele>
<time>2015-04-27T14:44:36Z</time>
</trkpt>
<trkpt lat="34.9891514" lon="32.7975735">
<ele>1019.06</ele>
<time>2015-04-27T14:44:38Z</time>
</trkpt>
<trkpt lat="34.9891012" lon="32.7975935">
<ele>1019.58</ele>
<time>2015-04-27T14:44:40Z</time>
</trkpt>
<trkpt lat="34.9890393" lon="32.7975948">
<ele>1018.97</ele>
<time>2015-04-27T14:44:42Z</time>
</trkpt>
<trkpt lat="34.9889900" lon="32.7975799">
<ele>1018.06</ele>
<time>2015-04-27T14:44:44Z</time>
</trkpt>
<trkpt lat="34.9889306" lon="32.7975356">
<ele>1018.55</ele>
<time>2015-04-27T14:44:47Z</time>
</trkpt>
<trkpt lat="34.9888757" lon="32.7974941">
<ele>1018.71</ele>
<time>2015-04-27T14:44:49Z</time>
</trkpt>
<trkpt lat="34.9888235" lon="32.7974404">
<ele>1019.50</ele>
<time>2015-04-27T14:44:51Z</time>
</trkpt>
<trkpt lat="34.9887869" lon="32.7973870">
<ele>1019.69</ele>
<time>2015-04-27T14:44:53Z</time>
</trkpt>
<trkpt lat="34.9887621" lon="32.7973312">
<ele>1019.76</ele>
<time>2015-04-27T14:44:57Z</time>
</trkpt>
<trkpt lat="34.9887335" lon="32.7972665">
<ele>1019.01</ele>
<time>2015-04-27T14:45:00Z</time>
</trkpt>
<trkpt lat="34.9887058" lon="32.7972138">
<ele>1018.82</ele>
<time>2015-04-27T14:45:02Z</time>
</trkpt>
<trkpt lat="34.9886761" lon="32.7971590">
<ele>1019.28</ele>
<time>2015-04-27T14:45:04Z</time>
</trkpt>
<trkpt lat="34.9886415" lon="32.7971000">
<ele>1018.89</ele>
<time>2015-04-27T14:45:06Z</time>
</trkpt>
<trkpt lat="34.9886079" lon="32.7970471">
<ele>1019.29</ele>
<time>2015-04-27T14:45:08Z</time>
</trkpt>
<trkpt lat="34.9885643" lon="32.7970082">
<ele>1020.14</ele>
<time>2015-04-27T14:45:10Z</time>
</trkpt>
<trkpt lat="34.9885094" lon="32.7969695">
<ele>1020.61</ele>
<time>2015-04-27T14:45:12Z</time>
</trkpt>
<trkpt lat="34.9884363" lon="32.7969606">
<ele>1021.22</ele>
<time>2015-04-27T14:45:14Z</time>
</trkpt>
<trkpt lat="34.9883530" lon="32.7969746">
<ele>1021.63</ele>
<time>2015-04-27T14:45:16Z</time>
</trkpt>
<trkpt lat="34.9882792" lon="32.7969933">
<ele>1021.73</ele>
<time>2015-04-27T14:45:18Z</time>
</trkpt>
<trkpt lat="34.9882279" lon="32.7970147">
<ele>1021.75</ele>
<time>2015-04-27T14:45:20Z</time>
</trkpt>
<trkpt lat="34.9881831" lon="32.7970313">
<ele>1021.76</ele>
<time>2015-04-27T14:45:22Z</time>
</trkpt>
<trkpt lat="34.9881374" lon="32.7970505">
<ele>1022.26</ele>
<time>2015-04-27T14:45:24Z</time>
</trkpt>
<trkpt lat="34.9880902" lon="32.7970690">
<ele>1023.13</ele>
<time>2015-04-27T14:45:26Z</time>
</trkpt>
<trkpt lat="34.9880420" lon="32.7970850">
<ele>1023.60</ele>
<time>2015-04-27T14:45:28Z</time>
</trkpt>
<trkpt lat="34.9879920" lon="32.7971027">
<ele>1023.72</ele>
<time>2015-04-27T14:45:30Z</time>
</trkpt>
<trkpt lat="34.9879470" lon="32.7971282">
<ele>1024.00</ele>
<time>2015-04-27T14:45:32Z</time>
</trkpt>
<trkpt lat="34.9879004" lon="32.7971527">
<ele>1024.29</ele>
<time>2015-04-27T14:45:35Z</time>
</trkpt>
<trkpt lat="34.9878480" lon="32.7971801">
<ele>1024.70</ele>
<time>2015-04-27T14:45:38Z</time>
</trkpt>
<trkpt lat="34.9877753" lon="32.7971861">
<ele>1024.25</ele>
<time>2015-04-27T14:45:41Z</time>
</trkpt>
<trkpt lat="34.9877286" lon="32.7971815">
<ele>1023.88</ele>
<time>2015-04-27T14:45:43Z</time>
</trkpt>
<trkpt lat="34.9876749" lon="32.7971724">
<ele>1024.53</ele>
<time>2015-04-27T14:45:46Z</time>
</trkpt>
<trkpt lat="34.9876228" lon="32.7971358">
<ele>1024.73</ele>
<time>2015-04-27T14:45:49Z</time>
</trkpt>
<trkpt lat="34.9875848" lon="32.7970897">
<ele>1025.26</ele>
<time>2015-04-27T14:45:53Z</time>
</trkpt>
<trkpt lat="34.9875483" lon="32.7970297">
<ele>1025.73</ele>
<time>2015-04-27T14:45:57Z</time>
</trkpt>
<trkpt lat="34.9875006" lon="32.7969773">
<ele>1025.76</ele>
<time>2015-04-27T14:46:00Z</time>
</trkpt>
<trkpt lat="34.9874673" lon="32.7969399">
<ele>1025.76</ele>
<time>2015-04-27T14:46:02Z</time>
</trkpt>
<trkpt lat="34.9874352" lon="32.7969011">
<ele>1025.76</ele>
<time>2015-04-27T14:46:04Z</time>
</trkpt>
<trkpt lat="34.9873766" lon="32.7968620">
<ele>1026.64</ele>
<time>2015-04-27T14:46:07Z</time>
</trkpt>
<trkpt lat="34.9873122" lon="32.7968448">
<ele>1028.12</ele>
<time>2015-04-27T14:46:10Z</time>
</trkpt>
<trkpt lat="34.9872654" lon="32.7968520">
<ele>1029.35</ele>
<time>2015-04-27T14:46:12Z</time>
</trkpt>
<trkpt lat="34.9872239" lon="32.7968735">
<ele>1030.16</ele>
<time>2015-04-27T14:46:14Z</time>
</trkpt>
<trkpt lat="34.9871757" lon="32.7968949">
<ele>1030.68</ele>
<time>2015-04-27T14:46:17Z</time>
</trkpt>
<trkpt lat="34.9871344" lon="32.7969175">
<ele>1031.50</ele>
<time>2015-04-27T14:46:20Z</time>
</trkpt>
<trkpt lat="34.9870955" lon="32.7969534">
<ele>1032.23</ele>
<time>2015-04-27T14:46:23Z</time>
</trkpt>
<trkpt lat="34.9870468" lon="32.7969721">
<ele>1033.19</ele>
<time>2015-04-27T14:46:26Z</time>
</trkpt>
<trkpt lat="34.9869904" lon="32.7969682">
<ele>1034.44</ele>
<time>2015-04-27T14:46:29Z</time>
</trkpt>
<trkpt lat="34.9869395" lon="32.7969623">
<ele>1035.22</ele>
<time>2015-04-27T14:46:32Z</time>
</trkpt>
<trkpt lat="34.9868864" lon="32.7969578">
<ele>1036.19</ele>
<time>2015-04-27T14:46:35Z</time>
</trkpt>
<trkpt lat="34.9868339" lon="32.7969358">
<ele>1036.19</ele>
<time>2015-04-27T14:46:38Z</time>
</trkpt>
<trkpt lat="34.9867868" lon="32.7968964">
<ele>1035.81</ele>
<time>2015-04-27T14:46:41Z</time>
</trkpt>
<trkpt lat="34.9867464" lon="32.7968509">
<ele>1036.64</ele>
<time>2015-04-27T14:46:44Z</time>
</trkpt>
<trkpt lat="34.9867103" lon="32.7968017">
<ele>1036.37</ele>
<time>2015-04-27T14:46:47Z</time>
</trkpt>
<trkpt lat="34.9866731" lon="32.7967552">
<ele>1036.71</ele>
<time>2015-04-27T14:46:50Z</time>
</trkpt>
<trkpt lat="34.9866363" lon="32.7967110">
<ele>1036.75</ele>
<time>2015-04-27T14:46:53Z</time>
</trkpt>
<trkpt lat="34.9866006" lon="32.7966705">
<ele>1036.76</ele>
<time>2015-04-27T14:46:56Z</time>
</trkpt>
<trkpt lat="34.9865691" lon="32.7966274">
<ele>1036.76</ele>
<time>2015-04-27T14:46:59Z</time>
</trkpt>
<trkpt lat="34.9865308" lon="32.7965905">
<ele>1036.76</ele>
<time>2015-04-27T14:47:02Z</time>
</trkpt>
<trkpt lat="34.9864958" lon="32.7965430">
<ele>1037.51</ele>
<time>2015-04-27T14:47:05Z</time>
</trkpt>
<trkpt lat="34.9864638" lon="32.7964879">
<ele>1037.73</ele>
<time>2015-04-27T14:47:08Z</time>
</trkpt>
<trkpt lat="34.9864227" lon="32.7964436">
<ele>1038.51</ele>
<time>2015-04-27T14:47:11Z</time>
</trkpt>
<trkpt lat="34.9863811" lon="32.7964041">
<ele>1038.73</ele>
<time>2015-04-27T14:47:14Z</time>
</trkpt>
<trkpt lat="34.9863377" lon="32.7963696">
<ele>1038.76</ele>
<time>2015-04-27T14:47:17Z</time>
</trkpt>
<trkpt lat="34.9862951" lon="32.7963325">
<ele>1038.76</ele>
<time>2015-04-27T14:47:20Z</time>
</trkpt>
<trkpt lat="34.9862534" lon="32.7962947">
<ele>1039.51</ele>
<time>2015-04-27T14:47:23Z</time>
</trkpt>
<trkpt lat="34.9862152" lon="32.7962531">
<ele>1039.73</ele>
<time>2015-04-27T14:47:26Z</time>
</trkpt>
<trkpt lat="34.9861752" lon="32.7962200">
<ele>1039.76</ele>
<time>2015-04-27T14:47:29Z</time>
</trkpt>
<trkpt lat="34.9861346" lon="32.7961902">
<ele>1039.76</ele>
<time>2015-04-27T14:47:32Z</time>
</trkpt>
<trkpt lat="34.9860966" lon="32.7961513">
<ele>1039.76</ele>
<time>2015-04-27T14:47:35Z</time>
</trkpt>
<trkpt lat="34.9860575" lon="32.7961108">
<ele>1040.01</ele>
<time>2015-04-27T14:47:38Z</time>
</trkpt>
<trkpt lat="34.9860197" lon="32.7960692">
<ele>1040.67</ele>
<time>2015-04-27T14:47:41Z</time>
</trkpt>
<trkpt lat="34.9859799" lon="32.7960289">
<ele>1040.75</ele>
<time>2015-04-27T14:47:44Z</time>
</trkpt>
<trkpt lat="34.9859447" lon="32.7959906">
<ele>1040.76</ele>
<time>2015-04-27T14:47:47Z</time>
</trkpt>
<trkpt lat="34.9859106" lon="32.7959530">
<ele>1041.51</ele>
<time>2015-04-27T14:47:50Z</time>
</trkpt>
<trkpt lat="34.9858670" lon="32.7959159">
<ele>1041.74</ele>
<time>2015-04-27T14:47:54Z</time>
</trkpt>
<trkpt lat="34.9858296" lon="32.7958818">
<ele>1041.76</ele>
<time>2015-04-27T14:47:58Z</time>
</trkpt>
<trkpt lat="34.9857850" lon="32.7958507">
<ele>1041.76</ele>
<time>2015-04-27T14:48:02Z</time>
</trkpt>
<trkpt lat="34.9857346" lon="32.7958250">
<ele>1042.64</ele>
<time>2015-04-27T14:48:06Z</time>
</trkpt>
<trkpt lat="34.9856899" lon="32.7958159">
<ele>1043.24</ele>
<time>2015-04-27T14:48:09Z</time>
</trkpt>
<trkpt lat="34.9856352" lon="32.7958249">
<ele>1044.23</ele>
<time>2015-04-27T14:48:13Z</time>
</trkpt>
<trkpt lat="34.9855974" lon="32.7958555">
<ele>1043.98</ele>
<time>2015-04-27T14:48:17Z</time>
</trkpt>
<trkpt lat="34.9855561" lon="32.7958971">
<ele>1044.01</ele>
<time>2015-04-27T14:48:42Z</time>
</trkpt>
<trkpt lat="34.9855157" lon="32.7959453">
<ele>1044.17</ele>
<time>2015-04-27T14:48:45Z</time>
</trkpt>
<trkpt lat="34.9855016" lon="32.7960025">
<ele>1043.56</ele>
<time>2015-04-27T14:48:48Z</time>
</trkpt>
<trkpt lat="34.9854948" lon="32.7960586">
<ele>1043.74</ele>
<time>2015-04-27T14:48:51Z</time>
</trkpt>
<trkpt lat="34.9855065" lon="32.7961140">
<ele>1044.26</ele>
<time>2015-04-27T14:48:54Z</time>
</trkpt>
<trkpt lat="34.9855339" lon="32.7961757">
<ele>1046.10</ele>
<time>2015-04-27T14:48:58Z</time>
</trkpt>
<trkpt lat="34.9855600" lon="32.7962210">
<ele>1046.18</ele>
<time>2015-04-27T14:49:01Z</time>
</trkpt>
<trkpt lat="34.9855985" lon="32.7962734">
<ele>1046.69</ele>
<time>2015-04-27T14:49:04Z</time>
</trkpt>
<trkpt lat="34.9856306" lon="32.7963138">
<ele>1047.49</ele>
<time>2015-04-27T14:49:06Z</time>
</trkpt>
<trkpt lat="34.9856695" lon="32.7963519">
<ele>1047.19</ele>
<time>2015-04-27T14:49:08Z</time>
</trkpt>
<trkpt lat="34.9857214" lon="32.7963942">
<ele>1047.56</ele>
<time>2015-04-27T14:49:11Z</time>
</trkpt>
<trkpt lat="34.9857702" lon="32.7964313">
<ele>1048.24</ele>
<time>2015-04-27T14:49:14Z</time>
</trkpt>
<trkpt lat="34.9858153" lon="32.7964716">
<ele>1047.82</ele>
<time>2015-04-27T14:49:17Z</time>
</trkpt>
<trkpt lat="34.9858593" lon="32.7965150">
<ele>1047.77</ele>
<time>2015-04-27T14:49:20Z</time>
</trkpt>
<trkpt lat="34.9859110" lon="32.7965617">
<ele>1048.51</ele>
<time>2015-04-27T14:49:23Z</time>
</trkpt>
<trkpt lat="34.9859566" lon="32.7966049">
<ele>1048.70</ele>
<time>2015-04-27T14:49:25Z</time>
</trkpt>
<trkpt lat="34.9859976" lon="32.7966397">
<ele>1048.74</ele>
<time>2015-04-27T14:49:27Z</time>
</trkpt>
<trkpt lat="34.9860367" lon="32.7966803">
<ele>1049.63</ele>
<time>2015-04-27T14:49:32Z</time>
</trkpt>
<trkpt lat="34.9860857" lon="32.7967197">
<ele>1050.63</ele>
<time>2015-04-27T14:49:36Z</time>
</trkpt>
<trkpt lat="34.9861245" lon="32.7967549">
<ele>1051.48</ele>
<time>2015-04-27T14:49:38Z</time>
</trkpt>
<trkpt lat="34.9861631" lon="32.7967913">
<ele>1051.19</ele>
<time>2015-04-27T14:49:40Z</time>
</trkpt>
<trkpt lat="34.9862184" lon="32.7968344">
<ele>1050.06</ele>
<time>2015-04-27T14:49:43Z</time>
</trkpt>
<trkpt lat="34.9862728" lon="32.7968779">
<ele>1050.30</ele>
<time>2015-04-27T14:49:46Z</time>
</trkpt>
<trkpt lat="34.9863175" lon="32.7969195">
<ele>1051.58</ele>
<time>2015-04-27T14:49:49Z</time>
</trkpt>
<trkpt lat="34.9863676" lon="32.7969600">
<ele>1052.49</ele>
<time>2015-04-27T14:49:52Z</time>
</trkpt>
<trkpt lat="34.9864148" lon="32.7970017">
<ele>1052.73</ele>
<time>2015-04-27T14:49:55Z</time>
</trkpt>
<trkpt lat="34.9864600" lon="32.7970453">
<ele>1051.88</ele>
<time>2015-04-27T14:49:58Z</time>
</trkpt>
<trkpt lat="34.9865011" lon="32.7970974">
<ele>1051.78</ele>
<time>2015-04-27T14:50:01Z</time>
</trkpt>
<trkpt lat="34.9865376" lon="32.7971369">
<ele>1052.01</ele>
<time>2015-04-27T14:50:04Z</time>
</trkpt>
<trkpt lat="34.9865738" lon="32.7971890">
<ele>1051.79</ele>
<time>2015-04-27T14:50:07Z</time>
</trkpt>
<trkpt lat="34.9865993" lon="32.7972441">
<ele>1051.76</ele>
<time>2015-04-27T14:50:10Z</time>
</trkpt>
<trkpt lat="34.9866435" lon="32.7972991">
<ele>1051.76</ele>
<time>2015-04-27T14:50:14Z</time>
</trkpt>
<trkpt lat="34.9866790" lon="32.7973628">
<ele>1052.64</ele>
<time>2015-04-27T14:50:17Z</time>
</trkpt>
<trkpt lat="34.9866992" lon="32.7974222">
<ele>1052.74</ele>
<time>2015-04-27T14:50:20Z</time>
</trkpt>
<trkpt lat="34.9867176" lon="32.7974755">
<ele>1053.63</ele>
<time>2015-04-27T14:50:23Z</time>
</trkpt>
<trkpt lat="34.9867448" lon="32.7975339">
<ele>1053.74</ele>
<time>2015-04-27T14:50:26Z</time>
</trkpt>
<trkpt lat="34.9867667" lon="32.7975957">
<ele>1053.26</ele>
<time>2015-04-27T14:50:29Z</time>
</trkpt>
<trkpt lat="34.9867842" lon="32.7976593">
<ele>1052.82</ele>
<time>2015-04-27T14:50:32Z</time>
</trkpt>
<trkpt lat="34.9868023" lon="32.7977344">
<ele>1053.52</ele>
<time>2015-04-27T14:50:35Z</time>
</trkpt>
<trkpt lat="34.9868227" lon="32.7978108">
<ele>1053.10</ele>
<time>2015-04-27T14:50:38Z</time>
</trkpt>
<trkpt lat="34.9868391" lon="32.7978634">
<ele>1052.85</ele>
<time>2015-04-27T14:50:40Z</time>
</trkpt>
<trkpt lat="34.9868616" lon="32.7979340">
<ele>1052.78</ele>
<time>2015-04-27T14:50:42Z</time>
</trkpt>
<trkpt lat="34.9868786" lon="32.7979905">
<ele>1053.52</ele>
<time>2015-04-27T14:50:44Z</time>
</trkpt>
<trkpt lat="34.9868995" lon="32.7980503">
<ele>1053.74</ele>
<time>2015-04-27T14:50:48Z</time>
</trkpt>
<trkpt lat="34.9869272" lon="32.7981160">
<ele>1054.13</ele>
<time>2015-04-27T14:50:51Z</time>
</trkpt>
<trkpt lat="34.9869491" lon="32.7981694">
<ele>1055.35</ele>
<time>2015-04-27T14:50:53Z</time>
</trkpt>
<trkpt lat="34.9869686" lon="32.7982235">
<ele>1056.41</ele>
<time>2015-04-27T14:50:55Z</time>
</trkpt>
<trkpt lat="34.9869886" lon="32.7982802">
<ele>1057.47</ele>
<time>2015-04-27T14:50:58Z</time>
</trkpt>
<trkpt lat="34.9870174" lon="32.7983373">
<ele>1058.62</ele>
<time>2015-04-27T14:51:02Z</time>
</trkpt>
<trkpt lat="34.9870427" lon="32.7983843">
<ele>1058.74</ele>
<time>2015-04-27T14:51:05Z</time>
</trkpt>
<trkpt lat="34.9870751" lon="32.7984256">
<ele>1059.26</ele>
<time>2015-04-27T14:51:09Z</time>
</trkpt>
<trkpt lat="34.9871272" lon="32.7984792">
<ele>1059.95</ele>
<time>2015-04-27T14:51:12Z</time>
</trkpt>
<trkpt lat="34.9871793" lon="32.7985282">
<ele>1059.78</ele>
<time>2015-04-27T14:51:15Z</time>
</trkpt>
<trkpt lat="34.9872373" lon="32.7985691">
<ele>1060.51</ele>
<time>2015-04-27T14:51:18Z</time>
</trkpt>
<trkpt lat="34.9872927" lon="32.7986102">
<ele>1061.48</ele>
<time>2015-04-27T14:51:21Z</time>
</trkpt>
<trkpt lat="34.9873491" lon="32.7986483">
<ele>1061.22</ele>
<time>2015-04-27T14:51:24Z</time>
</trkpt>
<trkpt lat="34.9874086" lon="32.7986793">
<ele>1061.32</ele>
<time>2015-04-27T14:51:27Z</time>
</trkpt>
<trkpt lat="34.9874685" lon="32.7987065">
<ele>1061.70</ele>
<time>2015-04-27T14:51:30Z</time>
</trkpt>
<trkpt lat="34.9875297" lon="32.7987351">
<ele>1062.25</ele>
<time>2015-04-27T14:51:33Z</time>
</trkpt>
<trkpt lat="34.9875808" lon="32.7987752">
<ele>1062.70</ele>
<time>2015-04-27T14:51:36Z</time>
</trkpt>
<trkpt lat="34.9876310" lon="32.7987969">
<ele>1064.63</ele>
<time>2015-04-27T14:51:40Z</time>
</trkpt>
<trkpt lat="34.9876736" lon="32.7988276">
<ele>1065.62</ele>
<time>2015-04-27T14:51:43Z</time>
</trkpt>
<trkpt lat="34.9877301" lon="32.7988657">
<ele>1066.62</ele>
<time>2015-04-27T14:51:46Z</time>
</trkpt>
<trkpt lat="34.9877716" lon="32.7988898">
<ele>1066.72</ele>
<time>2015-04-27T14:51:48Z</time>
</trkpt>
<trkpt lat="34.9878160" lon="32.7989122">
<ele>1066.75</ele>
<time>2015-04-27T14:51:50Z</time>
</trkpt>
<trkpt lat="34.9878552" lon="32.7989406">
<ele>1067.51</ele>
<time>2015-04-27T14:51:52Z</time>
</trkpt>
<trkpt lat="34.9878908" lon="32.7989774">
<ele>1067.70</ele>
<time>2015-04-27T14:51:54Z</time>
</trkpt>
<trkpt lat="34.9879377" lon="32.7990124">
<ele>1067.25</ele>
<time>2015-04-27T14:51:57Z</time>
</trkpt>
<trkpt lat="34.9879854" lon="32.7990364">
<ele>1067.70</ele>
<time>2015-04-27T14:52:00Z</time>
</trkpt>
<trkpt lat="34.9880360" lon="32.7990741">
<ele>1068.00</ele>
<time>2015-04-27T14:52:03Z</time>
</trkpt>
<trkpt lat="34.9880881" lon="32.7991163">
<ele>1069.04</ele>
<time>2015-04-27T14:52:06Z</time>
</trkpt>
<trkpt lat="34.9881253" lon="32.7991494">
<ele>1068.83</ele>
<time>2015-04-27T14:52:08Z</time>
</trkpt>
<trkpt lat="34.9881704" lon="32.7991872">
<ele>1069.03</ele>
<time>2015-04-27T14:52:10Z</time>
</trkpt>
<trkpt lat="34.9882105" lon="32.7992216">
<ele>1068.83</ele>
<time>2015-04-27T14:52:12Z</time>
</trkpt>
<trkpt lat="34.9882527" lon="32.7992504">
<ele>1068.53</ele>
<time>2015-04-27T14:52:14Z</time>
</trkpt>
<trkpt lat="34.9883058" lon="32.7992944">
<ele>1068.98</ele>
<time>2015-04-27T14:52:17Z</time>
</trkpt>
<trkpt lat="34.9883433" lon="32.7993402">
<ele>1068.79</ele>
<time>2015-04-27T14:52:20Z</time>
</trkpt>
<trkpt lat="34.9883830" lon="32.7993870">
<ele>1069.51</ele>
<time>2015-04-27T14:52:23Z</time>
</trkpt>
<trkpt lat="34.9884259" lon="32.7994396">
<ele>1070.60</ele>
<time>2015-04-27T14:52:26Z</time>
</trkpt>
<trkpt lat="34.9884687" lon="32.7994970">
<ele>1070.74</ele>
<time>2015-04-27T14:52:29Z</time>
</trkpt>
<trkpt lat="34.9885041" lon="32.7995456">
<ele>1069.88</ele>
<time>2015-04-27T14:52:32Z</time>
</trkpt>
<trkpt lat="34.9885396" lon="32.7995934">
<ele>1070.53</ele>
<time>2015-04-27T14:52:35Z</time>
</trkpt>
<trkpt lat="34.9885792" lon="32.7996482">
<ele>1071.48</ele>
<time>2015-04-27T14:52:38Z</time>
</trkpt>
<trkpt lat="34.9886261" lon="32.7997058">
<ele>1070.85</ele>
<time>2015-04-27T14:52:41Z</time>
</trkpt>
<trkpt lat="34.9886587" lon="32.7997549">
<ele>1071.28</ele>
<time>2015-04-27T14:52:43Z</time>
</trkpt>
<trkpt lat="34.9886892" lon="32.7998004">
<ele>1071.64</ele>
<time>2015-04-27T14:52:45Z</time>
</trkpt>
<trkpt lat="34.9887232" lon="32.7998365">
<ele>1071.57</ele>
<time>2015-04-27T14:52:49Z</time>
</trkpt>
<trkpt lat="34.9887510" lon="32.7998983">
<ele>1072.50</ele>
<time>2015-04-27T14:52:54Z</time>
</trkpt>
<trkpt lat="34.9888127" lon="32.7999351">
<ele>1071.85</ele>
<time>2015-04-27T14:52:57Z</time>
</trkpt>
<trkpt lat="34.9888513" lon="32.7999754">
<ele>1072.28</ele>
<time>2015-04-27T14:52:59Z</time>
</trkpt>
<trkpt lat="34.9888816" lon="32.8000271">
<ele>1072.64</ele>
<time>2015-04-27T14:53:01Z</time>
</trkpt>
<trkpt lat="34.9889221" lon="32.8000857">
<ele>1072.62</ele>
<time>2015-04-27T14:53:04Z</time>
</trkpt>
<trkpt lat="34.9889467" lon="32.8001430">
<ele>1072.88</ele>
<time>2015-04-27T14:53:08Z</time>
</trkpt>
<trkpt lat="34.9889652" lon="32.8002023">
<ele>1072.02</ele>
<time>2015-04-27T14:53:11Z</time>
</trkpt>
<trkpt lat="34.9889792" lon="32.8002787">
<ele>1071.79</ele>
<time>2015-04-27T14:53:14Z</time>
</trkpt>
<trkpt lat="34.9889816" lon="32.8003579">
<ele>1071.51</ele>
<time>2015-04-27T14:53:17Z</time>
</trkpt>
<trkpt lat="34.9889723" lon="32.8004264">
<ele>1071.73</ele>
<time>2015-04-27T14:53:20Z</time>
</trkpt>
<trkpt lat="34.9889527" lon="32.8004858">
<ele>1071.70</ele>
<time>2015-04-27T14:53:24Z</time>
</trkpt>
<trkpt lat="34.9889308" lon="32.8005380">
<ele>1072.24</ele>
<time>2015-04-27T14:53:26Z</time>
</trkpt>
<trkpt lat="34.9888950" lon="32.8005951">
<ele>1072.70</ele>
<time>2015-04-27T14:53:29Z</time>
</trkpt>
<trkpt lat="34.9888668" lon="32.8006503">
<ele>1072.76</ele>
<time>2015-04-27T14:53:33Z</time>
</trkpt>
<trkpt lat="34.9888411" lon="32.8007121">
<ele>1072.76</ele>
<time>2015-04-27T14:53:36Z</time>
</trkpt>
<trkpt lat="34.9888180" lon="32.8007620">
<ele>1072.76</ele>
<time>2015-04-27T14:53:39Z</time>
</trkpt>
<trkpt lat="34.9887960" lon="32.8008194">
<ele>1073.51</ele>
<time>2015-04-27T14:53:43Z</time>
</trkpt>
<trkpt lat="34.9887776" lon="32.8008890">
<ele>1072.98</ele>
<time>2015-04-27T14:53:46Z</time>
</trkpt>
<trkpt lat="34.9887642" lon="32.8009467">
<ele>1073.56</ele>
<time>2015-04-27T14:53:48Z</time>
</trkpt>
<trkpt lat="34.9887578" lon="32.8010033">
<ele>1074.21</ele>
<time>2015-04-27T14:53:50Z</time>
</trkpt>
<trkpt lat="34.9887652" lon="32.8010635">
<ele>1074.69</ele>
<time>2015-04-27T14:53:53Z</time>
</trkpt>
<trkpt lat="34.9887782" lon="32.8011264">
<ele>1074.63</ele>
<time>2015-04-27T14:53:58Z</time>
</trkpt>
<trkpt lat="34.9888007" lon="32.8011888">
<ele>1074.74</ele>
<time>2015-04-27T14:54:01Z</time>
</trkpt>
<trkpt lat="34.9888258" lon="32.8012578">
<ele>1075.63</ele>
<time>2015-04-27T14:54:04Z</time>
</trkpt>
<trkpt lat="34.9888453" lon="32.8013347">
<ele>1076.24</ele>
<time>2015-04-27T14:54:07Z</time>
</trkpt>
<trkpt lat="34.9888596" lon="32.8014052">
<ele>1076.63</ele>
<time>2015-04-27T14:54:09Z</time>
</trkpt>
<trkpt lat="34.9888676" lon="32.8014721">
<ele>1076.73</ele>
<time>2015-04-27T14:54:11Z</time>
</trkpt>
<trkpt lat="34.9888630" lon="32.8015292">
<ele>1075.75</ele>
<time>2015-04-27T14:54:13Z</time>
</trkpt>
<trkpt lat="34.9888517" lon="32.8015939">
<ele>1076.51</ele>
<time>2015-04-27T14:54:16Z</time>
</trkpt>
<trkpt lat="34.9888255" lon="32.8016474">
<ele>1076.73</ele>
<time>2015-04-27T14:54:19Z</time>
</trkpt>
<trkpt lat="34.9887870" lon="32.8017089">
<ele>1076.76</ele>
<time>2015-04-27T14:54:22Z</time>
</trkpt>
<trkpt lat="34.9887387" lon="32.8017556">
<ele>1076.76</ele>
<time>2015-04-27T14:54:24Z</time>
</trkpt>
<trkpt lat="34.9886753" lon="32.8017887">
<ele>1076.76</ele>
<time>2015-04-27T14:54:26Z</time>
</trkpt>
<trkpt lat="34.9885962" lon="32.8018187">
<ele>1076.76</ele>
<time>2015-04-27T14:54:28Z</time>
</trkpt>
<trkpt lat="34.9885207" lon="32.8018403">
<ele>1076.76</ele>
<time>2015-04-27T14:54:30Z</time>
</trkpt>
<trkpt lat="34.9884541" lon="32.8018811">
<ele>1076.26</ele>
<time>2015-04-27T14:54:32Z</time>
</trkpt>
<trkpt lat="34.9884011" lon="32.8019307">
<ele>1076.14</ele>
<time>2015-04-27T14:54:34Z</time>
</trkpt>
<trkpt lat="34.9883722" lon="32.8019774">
<ele>1076.60</ele>
<time>2015-04-27T14:54:36Z</time>
</trkpt>
<trkpt lat="34.9883472" lon="32.8020342">
<ele>1077.47</ele>
<time>2015-04-27T14:54:38Z</time>
</trkpt>
<trkpt lat="34.9883216" lon="32.8020919">
<ele>1078.44</ele>
<time>2015-04-27T14:54:40Z</time>
</trkpt>
<trkpt lat="34.9883038" lon="32.8021541">
<ele>1078.68</ele>
<time>2015-04-27T14:54:42Z</time>
</trkpt>
<trkpt lat="34.9882890" lon="32.8022213">
<ele>1078.74</ele>
<time>2015-04-27T14:54:44Z</time>
</trkpt>
<trkpt lat="34.9882671" lon="32.8022772">
<ele>1078.76</ele>
<time>2015-04-27T14:54:46Z</time>
</trkpt>
<trkpt lat="34.9882534" lon="32.8023415">
<ele>1079.63</ele>
<time>2015-04-27T14:54:50Z</time>
</trkpt>
<trkpt lat="34.9882298" lon="32.8024056">
<ele>1078.81</ele>
<time>2015-04-27T14:54:54Z</time>
</trkpt>
<trkpt lat="34.9882050" lon="32.8024543">
<ele>1079.64</ele>
<time>2015-04-27T14:54:57Z</time>
</trkpt>
<trkpt lat="34.9881641" lon="32.8024854">
<ele>1080.62</ele>
<time>2015-04-27T14:55:00Z</time>
</trkpt>
<trkpt lat="34.9881529" lon="32.8025404">
<ele>1081.99</ele>
<time>2015-04-27T14:55:03Z</time>
</trkpt>
<trkpt lat="34.9881480" lon="32.8025979">
<ele>1082.71</ele>
<time>2015-04-27T14:55:07Z</time>
</trkpt>
<trkpt lat="34.9881168" lon="32.8026514">
<ele>1083.51</ele>
<time>2015-04-27T14:55:11Z</time>
</trkpt>
<trkpt lat="34.9880863" lon="32.8026997">
<ele>1083.74</ele>
<time>2015-04-27T14:55:15Z</time>
</trkpt>
<trkpt lat="34.9880671" lon="32.8027512">
<ele>1083.26</ele>
<time>2015-04-27T14:55:19Z</time>
</trkpt>
<trkpt lat="34.9880352" lon="32.8028104">
<ele>1084.07</ele>
<time>2015-04-27T14:55:22Z</time>
</trkpt>
<trkpt lat="34.9880037" lon="32.8028556">
<ele>1084.84</ele>
<time>2015-04-27T14:55:24Z</time>
</trkpt>
<trkpt lat="34.9879583" lon="32.8029044">
<ele>1086.14</ele>
<time>2015-04-27T14:55:27Z</time>
</trkpt>
<trkpt lat="34.9879116" lon="32.8029534">
<ele>1085.81</ele>
<time>2015-04-27T14:55:30Z</time>
</trkpt>
<trkpt lat="34.9878664" lon="32.8030004">
<ele>1086.64</ele>
<time>2015-04-27T14:55:33Z</time>
</trkpt>
<trkpt lat="34.9878184" lon="32.8030508">
<ele>1087.50</ele>
<time>2015-04-27T14:55:36Z</time>
</trkpt>
<trkpt lat="34.9877634" lon="32.8030908">
<ele>1088.60</ele>
<time>2015-04-27T14:55:39Z</time>
</trkpt>
<trkpt lat="34.9877219" lon="32.8031302">
<ele>1088.72</ele>
<time>2015-04-27T14:55:41Z</time>
</trkpt>
<trkpt lat="34.9876840" lon="32.8031615">
<ele>1089.50</ele>
<time>2015-04-27T14:55:43Z</time>
</trkpt>
<trkpt lat="34.9876365" lon="32.8031911">
<ele>1089.73</ele>
<time>2015-04-27T14:55:46Z</time>
</trkpt>
<trkpt lat="34.9875954" lon="32.8032306">
<ele>1090.63</ele>
<time>2015-04-27T14:55:49Z</time>
</trkpt>
<trkpt lat="34.9875542" lon="32.8032674">
<ele>1091.24</ele>
<time>2015-04-27T14:55:52Z</time>
</trkpt>
<trkpt lat="34.9875014" lon="32.8032826">
<ele>1091.70</ele>
<time>2015-04-27T14:55:55Z</time>
</trkpt>
<trkpt lat="34.9874490" lon="32.8033047">
<ele>1092.63</ele>
<time>2015-04-27T14:55:58Z</time>
</trkpt>
<trkpt lat="34.9873990" lon="32.8033368">
<ele>1092.74</ele>
<time>2015-04-27T14:56:01Z</time>
</trkpt>
<trkpt lat="34.9873469" lon="32.8033578">
<ele>1093.51</ele>
<time>2015-04-27T14:56:04Z</time>
</trkpt>
<trkpt lat="34.9872969" lon="32.8033870">
<ele>1093.73</ele>
<time>2015-04-27T14:56:07Z</time>
</trkpt>
<trkpt lat="34.9872469" lon="32.8034147">
<ele>1094.26</ele>
<time>2015-04-27T14:56:10Z</time>
</trkpt>
<trkpt lat="34.9871996" lon="32.8034409">
<ele>1094.70</ele>
<time>2015-04-27T14:56:13Z</time>
</trkpt>
<trkpt lat="34.9871556" lon="32.8034760">
<ele>1094.25</ele>
<time>2015-04-27T14:56:16Z</time>
</trkpt>
<trkpt lat="34.9871074" lon="32.8035070">
<ele>1093.82</ele>
<time>2015-04-27T14:56:19Z</time>
</trkpt>
<trkpt lat="34.9870615" lon="32.8035456">
<ele>1094.52</ele>
<time>2015-04-27T14:56:22Z</time>
</trkpt>
<trkpt lat="34.9870077" lon="32.8035689">
<ele>1094.73</ele>
<time>2015-04-27T14:56:25Z</time>
</trkpt>
<trkpt lat="34.9869502" lon="32.8035963">
<ele>1095.51</ele>
<time>2015-04-27T14:56:28Z</time>
</trkpt>
<trkpt lat="34.9868939" lon="32.8036169">
<ele>1096.48</ele>
<time>2015-04-27T14:56:31Z</time>
</trkpt>
<trkpt lat="34.9868315" lon="32.8036202">
<ele>1096.47</ele>
<time>2015-04-27T14:56:34Z</time>
</trkpt>
<trkpt lat="34.9867676" lon="32.8036127">
<ele>1096.72</ele>
<time>2015-04-27T14:56:37Z</time>
</trkpt>
<trkpt lat="34.9867018" lon="32.8036157">
<ele>1097.26</ele>
<time>2015-04-27T14:56:40Z</time>
</trkpt>
<trkpt lat="34.9866413" lon="32.8036227">
<ele>1097.70</ele>
<time>2015-04-27T14:56:43Z</time>
</trkpt>
<trkpt lat="34.9865869" lon="32.8036272">
<ele>1097.75</ele>
<time>2015-04-27T14:56:46Z</time>
</trkpt>
<trkpt lat="34.9865352" lon="32.8036477">
<ele>1098.51</ele>
<time>2015-04-27T14:56:49Z</time>
</trkpt>
<trkpt lat="34.9864816" lon="32.8036562">
<ele>1098.73</ele>
<time>2015-04-27T14:56:52Z</time>
</trkpt>
<trkpt lat="34.9864309" lon="32.8036491">
<ele>1099.63</ele>
<time>2015-04-27T14:56:55Z</time>
</trkpt>
<trkpt lat="34.9863846" lon="32.8036556">
<ele>1099.74</ele>
<time>2015-04-27T14:56:58Z</time>
</trkpt>
<trkpt lat="34.9863809" lon="32.8037146">
<ele>1098.26</ele>
<time>2015-04-27T15:10:25Z</time>
</trkpt>
<trkpt lat="34.9863532" lon="32.8037781">
<ele>1098.73</ele>
<time>2015-04-27T15:10:29Z</time>
</trkpt>
<trkpt lat="34.9863244" lon="32.8038304">
<ele>1099.01</ele>
<time>2015-04-27T15:10:32Z</time>
</trkpt>
<trkpt lat="34.9863018" lon="32.8038952">
<ele>1098.04</ele>
<time>2015-04-27T15:10:35Z</time>
</trkpt>
<trkpt lat="34.9862884" lon="32.8039582">
<ele>1097.80</ele>
<time>2015-04-27T15:10:38Z</time>
</trkpt>
<trkpt lat="34.9862632" lon="32.8040093">
<ele>1097.76</ele>
<time>2015-04-27T15:10:41Z</time>
</trkpt>
<trkpt lat="34.9862394" lon="32.8040676">
<ele>1098.51</ele>
<time>2015-04-27T15:10:45Z</time>
</trkpt>
<trkpt lat="34.9862224" lon="32.8041228">
<ele>1099.60</ele>
<time>2015-04-27T15:10:48Z</time>
</trkpt>
<trkpt lat="34.9861984" lon="32.8041822">
<ele>1099.99</ele>
<time>2015-04-27T15:10:51Z</time>
</trkpt>
<trkpt lat="34.9861709" lon="32.8042448">
<ele>1100.29</ele>
<time>2015-04-27T15:10:54Z</time>
</trkpt>
<trkpt lat="34.9861365" lon="32.8043200">
<ele>1100.83</ele>
<time>2015-04-27T15:10:57Z</time>
</trkpt>
<trkpt lat="34.9861060" lon="32.8043871">
<ele>1101.28</ele>
<time>2015-04-27T15:10:59Z</time>
</trkpt>
<trkpt lat="34.9860778" lon="32.8044606">
<ele>1101.39</ele>
<time>2015-04-27T15:11:01Z</time>
</trkpt>
<trkpt lat="34.9860544" lon="32.8045370">
<ele>1101.67</ele>
<time>2015-04-27T15:11:03Z</time>
</trkpt>
<trkpt lat="34.9860283" lon="32.8046109">
<ele>1101.24</ele>
<time>2015-04-27T15:11:05Z</time>
</trkpt>
<trkpt lat="34.9860052" lon="32.8046875">
<ele>1099.63</ele>
<time>2015-04-27T15:11:07Z</time>
</trkpt>
<trkpt lat="34.9859673" lon="32.8047517">
<ele>1098.23</ele>
<time>2015-04-27T15:11:09Z</time>
</trkpt>
<trkpt lat="34.9859207" lon="32.8048120">
<ele>1098.63</ele>
<time>2015-04-27T15:11:11Z</time>
</trkpt>
<trkpt lat="34.9858671" lon="32.8048676">
<ele>1098.23</ele>
<time>2015-04-27T15:11:13Z</time>
</trkpt>
<trkpt lat="34.9858132" lon="32.8049260">
<ele>1098.13</ele>
<time>2015-04-27T15:11:15Z</time>
</trkpt>
<trkpt lat="34.9857641" lon="32.8049842">
<ele>1098.35</ele>
<time>2015-04-27T15:11:17Z</time>
</trkpt>
<trkpt lat="34.9857018" lon="32.8050369">
<ele>1098.16</ele>
<time>2015-04-27T15:11:19Z</time>
</trkpt>
<trkpt lat="34.9856430" lon="32.8050763">
<ele>1098.36</ele>
<time>2015-04-27T15:11:21Z</time>
</trkpt>
<trkpt lat="34.9855838" lon="32.8051062">
<ele>1097.91</ele>
<time>2015-04-27T15:11:23Z</time>
</trkpt>
<trkpt lat="34.9855271" lon="32.8051394">
<ele>1097.80</ele>
<time>2015-04-27T15:11:25Z</time>
</trkpt>
<trkpt lat="34.9854712" lon="32.8051729">
<ele>1097.02</ele>
<time>2015-04-27T15:11:27Z</time>
</trkpt>
<trkpt lat="34.9854148" lon="32.8052104">
<ele>1096.07</ele>
<time>2015-04-27T15:11:29Z</time>
</trkpt>
<trkpt lat="34.9853618" lon="32.8052596">
<ele>1096.09</ele>
<time>2015-04-27T15:11:31Z</time>
</trkpt>
<trkpt lat="34.9853075" lon="32.8053116">
<ele>1095.84</ele>
<time>2015-04-27T15:11:33Z</time>
</trkpt>
<trkpt lat="34.9852488" lon="32.8053597">
<ele>1095.03</ele>
<time>2015-04-27T15:11:35Z</time>
</trkpt>
<trkpt lat="34.9851894" lon="32.8054087">
<ele>1094.83</ele>
<time>2015-04-27T15:11:37Z</time>
</trkpt>
<trkpt lat="34.9851303" lon="32.8054674">
<ele>1094.28</ele>
<time>2015-04-27T15:11:39Z</time>
</trkpt>
<trkpt lat="34.9850742" lon="32.8055234">
<ele>1094.64</ele>
<time>2015-04-27T15:11:41Z</time>
</trkpt>
<trkpt lat="34.9850320" lon="32.8055621">
<ele>1094.20</ele>
<time>2015-04-27T15:11:42Z</time>
</trkpt>
<trkpt lat="34.9849932" lon="32.8055960">
<ele>1093.98</ele>
<time>2015-04-27T15:11:43Z</time>
</trkpt>
<trkpt lat="34.9849276" lon="32.8056489">
<ele>1093.87</ele>
<time>2015-04-27T15:11:44Z</time>
</trkpt>
<trkpt lat="34.9848907" lon="32.8056852">
<ele>1093.81</ele>
<time>2015-04-27T15:11:45Z</time>
</trkpt>
<trkpt lat="34.9848483" lon="32.8057206">
<ele>1093.79</ele>
<time>2015-04-27T15:11:46Z</time>
</trkpt>
<trkpt lat="34.9848094" lon="32.8057588">
<ele>1093.77</ele>
<time>2015-04-27T15:11:47Z</time>
</trkpt>
<trkpt lat="34.9847548" lon="32.8057889">
<ele>1094.27</ele>
<time>2015-04-27T15:11:48Z</time>
</trkpt>
<trkpt lat="34.9847113" lon="32.8058312">
<ele>1094.01</ele>
<time>2015-04-27T15:11:49Z</time>
</trkpt>
<trkpt lat="34.9846649" lon="32.8058710">
<ele>1094.39</ele>
<time>2015-04-27T15:11:50Z</time>
</trkpt>
<trkpt lat="34.9846156" lon="32.8059189">
<ele>1094.07</ele>
<time>2015-04-27T15:11:51Z</time>
</trkpt>
<trkpt lat="34.9845614" lon="32.8059676">
<ele>1093.92</ele>
<time>2015-04-27T15:11:52Z</time>
</trkpt>
<trkpt lat="34.9845128" lon="32.8060042">
<ele>1093.34</ele>
<time>2015-04-27T15:11:53Z</time>
</trkpt>
<trkpt lat="34.9844723" lon="32.8060461">
<ele>1093.55</ele>
<time>2015-04-27T15:11:54Z</time>
</trkpt>
<trkpt lat="34.9844236" lon="32.8060697">
<ele>1093.15</ele>
<time>2015-04-27T15:11:55Z</time>
</trkpt>
<trkpt lat="34.9843802" lon="32.8061077">
<ele>1093.46</ele>
<time>2015-04-27T15:11:56Z</time>
</trkpt>
<trkpt lat="34.9843321" lon="32.8061355">
<ele>1093.61</ele>
<time>2015-04-27T15:11:57Z</time>
</trkpt>
<trkpt lat="34.9842896" lon="32.8061708">
<ele>1093.68</ele>
<time>2015-04-27T15:11:58Z</time>
</trkpt>
<trkpt lat="34.9842494" lon="32.8062109">
<ele>1093.72</ele>
<time>2015-04-27T15:11:59Z</time>
</trkpt>
<trkpt lat="34.9842078" lon="32.8062446">
<ele>1093.24</ele>
<time>2015-04-27T15:12:00Z</time>
</trkpt>
<trkpt lat="34.9841298" lon="32.8062937">
<ele>1094.38</ele>
<time>2015-04-27T15:12:02Z</time>
</trkpt>
<trkpt lat="34.9840897" lon="32.8063229">
<ele>1095.07</ele>
<time>2015-04-27T15:12:03Z</time>
</trkpt>
<trkpt lat="34.9840069" lon="32.8063923">
<ele>1092.59</ele>
<time>2015-04-27T15:12:05Z</time>
</trkpt>
<trkpt lat="34.9839692" lon="32.8064232">
<ele>1091.67</ele>
<time>2015-04-27T15:12:06Z</time>
</trkpt>
<trkpt lat="34.9839329" lon="32.8064573">
<ele>1090.72</ele>
<time>2015-04-27T15:12:07Z</time>
</trkpt>
<trkpt lat="34.9838683" lon="32.8065286">
<ele>1089.50</ele>
<time>2015-04-27T15:12:09Z</time>
</trkpt>
<trkpt lat="34.9838345" lon="32.8065682">
<ele>1089.13</ele>
<time>2015-04-27T15:12:10Z</time>
</trkpt>
<trkpt lat="34.9837965" lon="32.8066022">
<ele>1088.44</ele>
<time>2015-04-27T15:12:11Z</time>
</trkpt>
<trkpt lat="34.9837637" lon="32.8066417">
<ele>1088.10</ele>
<time>2015-04-27T15:12:12Z</time>
</trkpt>
<trkpt lat="34.9837339" lon="32.8066844">
<ele>1088.43</ele>
<time>2015-04-27T15:12:13Z</time>
</trkpt>
<trkpt lat="34.9836851" lon="32.8067657">
<ele>1088.68</ele>
<time>2015-04-27T15:12:15Z</time>
</trkpt>
<trkpt lat="34.9836518" lon="32.8068201">
<ele>1090.74</ele>
<time>2015-04-27T15:12:17Z</time>
</trkpt>
<trkpt lat="34.9836138" lon="32.8068929">
<ele>1091.50</ele>
<time>2015-04-27T15:12:19Z</time>
</trkpt>
<trkpt lat="34.9835846" lon="32.8069353">
<ele>1091.63</ele>
<time>2015-04-27T15:12:20Z</time>
</trkpt>
<trkpt lat="34.9835532" lon="32.8069778">
<ele>1091.20</ele>
<time>2015-04-27T15:12:21Z</time>
</trkpt>
<trkpt lat="34.9835136" lon="32.8070206">
<ele>1090.98</ele>
<time>2015-04-27T15:12:22Z</time>
</trkpt>
<trkpt lat="34.9834762" lon="32.8070604">
<ele>1090.87</ele>
<time>2015-04-27T15:12:23Z</time>
</trkpt>
<trkpt lat="34.9834374" lon="32.8070897">
<ele>1090.81</ele>
<time>2015-04-27T15:12:24Z</time>
</trkpt>
<trkpt lat="34.9833941" lon="32.8071131">
<ele>1090.29</ele>
<time>2015-04-27T15:12:25Z</time>
</trkpt>
<trkpt lat="34.9833157" lon="32.8071579">
<ele>1089.14</ele>
<time>2015-04-27T15:12:27Z</time>
</trkpt>
<trkpt lat="34.9832496" lon="32.8071967">
<ele>1088.86</ele>
<time>2015-04-27T15:12:29Z</time>
</trkpt>
<trkpt lat="34.9831823" lon="32.8072330">
<ele>1088.03</ele>
<time>2015-04-27T15:12:31Z</time>
</trkpt>
<trkpt lat="34.9831172" lon="32.8072751">
<ele>1087.83</ele>
<time>2015-04-27T15:12:33Z</time>
</trkpt>
<trkpt lat="34.9830654" lon="32.8073252">
<ele>1088.28</ele>
<time>2015-04-27T15:12:35Z</time>
</trkpt>
<trkpt lat="34.9830206" lon="32.8073852">
<ele>1088.64</ele>
<time>2015-04-27T15:12:37Z</time>
</trkpt>
<trkpt lat="34.9829786" lon="32.8074473">
<ele>1088.23</ele>
<time>2015-04-27T15:12:39Z</time>
</trkpt>
<trkpt lat="34.9829392" lon="32.8075139">
<ele>1088.13</ele>
<time>2015-04-27T15:12:41Z</time>
</trkpt>
<trkpt lat="34.9829106" lon="32.8075831">
<ele>1086.85</ele>
<time>2015-04-27T15:12:43Z</time>
</trkpt>
<trkpt lat="34.9828826" lon="32.8076464">
<ele>1086.78</ele>
<time>2015-04-27T15:12:45Z</time>
</trkpt>
<trkpt lat="34.9828458" lon="32.8077059">
<ele>1087.52</ele>
<time>2015-04-27T15:12:47Z</time>
</trkpt>
<trkpt lat="34.9828087" lon="32.8077703">
<ele>1087.70</ele>
<time>2015-04-27T15:12:49Z</time>
</trkpt>
<trkpt lat="34.9827711" lon="32.8078320">
<ele>1087.49</ele>
<time>2015-04-27T15:12:51Z</time>
</trkpt>
<trkpt lat="34.9827294" lon="32.8078826">
<ele>1087.69</ele>
<time>2015-04-27T15:12:53Z</time>
</trkpt>
<trkpt lat="34.9826832" lon="32.8079322">
<ele>1088.49</ele>
<time>2015-04-27T15:12:55Z</time>
</trkpt>
<trkpt lat="34.9826269" lon="32.8079815">
<ele>1088.69</ele>
<time>2015-04-27T15:12:57Z</time>
</trkpt>
<trkpt lat="34.9825701" lon="32.8080309">
<ele>1089.49</ele>
<time>2015-04-27T15:12:59Z</time>
</trkpt>
<trkpt lat="34.9825102" lon="32.8080902">
<ele>1089.69</ele>
<time>2015-04-27T15:13:01Z</time>
</trkpt>
<trkpt lat="34.9824614" lon="32.8081517">
<ele>1089.74</ele>
<time>2015-04-27T15:13:03Z</time>
</trkpt>
<trkpt lat="34.9824182" lon="32.8082134">
<ele>1089.26</ele>
<time>2015-04-27T15:13:05Z</time>
</trkpt>
<trkpt lat="34.9823784" lon="32.8082680">
<ele>1089.13</ele>
<time>2015-04-27T15:13:07Z</time>
</trkpt>
<trkpt lat="34.9823355" lon="32.8083118">
<ele>1089.35</ele>
<time>2015-04-27T15:13:09Z</time>
</trkpt>
<trkpt lat="34.9822958" lon="32.8083588">
<ele>1089.16</ele>
<time>2015-04-27T15:13:11Z</time>
</trkpt>
<trkpt lat="34.9822628" lon="32.8084114">
<ele>1088.86</ele>
<time>2015-04-27T15:13:13Z</time>
</trkpt>
<trkpt lat="34.9822338" lon="32.8084672">
<ele>1088.78</ele>
<time>2015-04-27T15:13:15Z</time>
</trkpt>
<trkpt lat="34.9822012" lon="32.8085238">
<ele>1089.27</ele>
<time>2015-04-27T15:13:17Z</time>
</trkpt>
<trkpt lat="34.9821631" lon="32.8085826">
<ele>1088.89</ele>
<time>2015-04-27T15:13:19Z</time>
</trkpt>
<trkpt lat="34.9821105" lon="32.8086371">
<ele>1087.54</ele>
<time>2015-04-27T15:13:21Z</time>
</trkpt>
<trkpt lat="34.9820551" lon="32.8086951">
<ele>1087.21</ele>
<time>2015-04-27T15:13:23Z</time>
</trkpt>
<trkpt lat="34.9819972" lon="32.8087471">
<ele>1088.37</ele>
<time>2015-04-27T15:13:25Z</time>
</trkpt>
<trkpt lat="34.9819304" lon="32.8087804">
<ele>1089.41</ele>
<time>2015-04-27T15:13:27Z</time>
</trkpt>
<trkpt lat="34.9818642" lon="32.8088069">
<ele>1089.17</ele>
<time>2015-04-27T15:13:29Z</time>
</trkpt>
<trkpt lat="34.9817995" lon="32.8088316">
<ele>1088.86</ele>
<time>2015-04-27T15:13:31Z</time>
</trkpt>
<trkpt lat="34.9817323" lon="32.8088461">
<ele>1089.79</ele>
<time>2015-04-27T15:13:33Z</time>
</trkpt>
<trkpt lat="34.9816622" lon="32.8088481">
<ele>1090.52</ele>
<time>2015-04-27T15:13:35Z</time>
</trkpt>
<trkpt lat="34.9815926" lon="32.8088438">
<ele>1091.45</ele>
<time>2015-04-27T15:13:37Z</time>
</trkpt>
<trkpt lat="34.9815259" lon="32.8088450">
<ele>1091.93</ele>
<time>2015-04-27T15:13:39Z</time>
</trkpt>
<trkpt lat="34.9814565" lon="32.8088518">
<ele>1093.05</ele>
<time>2015-04-27T15:13:41Z</time>
</trkpt>
<trkpt lat="34.9813866" lon="32.8088594">
<ele>1094.08</ele>
<time>2015-04-27T15:13:43Z</time>
</trkpt>
<trkpt lat="34.9813166" lon="32.8088736">
<ele>1094.59</ele>
<time>2015-04-27T15:13:45Z</time>
</trkpt>
<trkpt lat="34.9812493" lon="32.8089023">
<ele>1094.72</ele>
<time>2015-04-27T15:13:47Z</time>
</trkpt>
<trkpt lat="34.9811809" lon="32.8089406">
<ele>1094.75</ele>
<time>2015-04-27T15:13:49Z</time>
</trkpt>
<trkpt lat="34.9811157" lon="32.8089854">
<ele>1094.51</ele>
<time>2015-04-27T15:13:51Z</time>
</trkpt>
<trkpt lat="34.9810563" lon="32.8090311">
<ele>1094.45</ele>
<time>2015-04-27T15:13:53Z</time>
</trkpt>
<trkpt lat="34.9810025" lon="32.8090814">
<ele>1094.68</ele>
<time>2015-04-27T15:13:55Z</time>
</trkpt>
<trkpt lat="34.9809533" lon="32.8091327">
<ele>1094.24</ele>
<time>2015-04-27T15:13:57Z</time>
</trkpt>
<trkpt lat="34.9809028" lon="32.8091866">
<ele>1094.38</ele>
<time>2015-04-27T15:13:59Z</time>
</trkpt>
<trkpt lat="34.9808521" lon="32.8092393">
<ele>1095.17</ele>
<time>2015-04-27T15:14:01Z</time>
</trkpt>
<trkpt lat="34.9808047" lon="32.8092766">
<ele>1096.36</ele>
<time>2015-04-27T15:14:03Z</time>
</trkpt>
<trkpt lat="34.9807570" lon="32.8093105">
<ele>1095.91</ele>
<time>2015-04-27T15:14:05Z</time>
</trkpt>
<trkpt lat="34.9807002" lon="32.8093437">
<ele>1096.30</ele>
<time>2015-04-27T15:14:07Z</time>
</trkpt>
<trkpt lat="34.9806353" lon="32.8093812">
<ele>1096.64</ele>
<time>2015-04-27T15:14:09Z</time>
</trkpt>
<trkpt lat="34.9805629" lon="32.8094191">
<ele>1096.73</ele>
<time>2015-04-27T15:14:11Z</time>
</trkpt>
<trkpt lat="34.9804922" lon="32.8094468">
<ele>1097.50</ele>
<time>2015-04-27T15:14:13Z</time>
</trkpt>
<trkpt lat="34.9804241" lon="32.8094641">
<ele>1097.70</ele>
<time>2015-04-27T15:14:15Z</time>
</trkpt>
<trkpt lat="34.9803611" lon="32.8094758">
<ele>1098.24</ele>
<time>2015-04-27T15:14:17Z</time>
</trkpt>
<trkpt lat="34.9803030" lon="32.8094713">
<ele>1098.63</ele>
<time>2015-04-27T15:14:19Z</time>
</trkpt>
<trkpt lat="34.9802463" lon="32.8094544">
<ele>1099.23</ele>
<time>2015-04-27T15:14:21Z</time>
</trkpt>
<trkpt lat="34.9801919" lon="32.8094441">
<ele>1099.13</ele>
<time>2015-04-27T15:14:23Z</time>
</trkpt>
<trkpt lat="34.9801395" lon="32.8094488">
<ele>1099.60</ele>
<time>2015-04-27T15:14:25Z</time>
</trkpt>
<trkpt lat="34.9800833" lon="32.8094549">
<ele>1099.22</ele>
<time>2015-04-27T15:14:27Z</time>
</trkpt>
<trkpt lat="34.9800174" lon="32.8094613">
<ele>1098.38</ele>
<time>2015-04-27T15:14:29Z</time>
</trkpt>
<trkpt lat="34.9799415" lon="32.8094671">
<ele>1097.91</ele>
<time>2015-04-27T15:14:31Z</time>
</trkpt>
<trkpt lat="34.9798563" lon="32.8094780">
<ele>1097.80</ele>
<time>2015-04-27T15:14:33Z</time>
</trkpt>
<trkpt lat="34.9797714" lon="32.8095008">
<ele>1097.77</ele>
<time>2015-04-27T15:14:35Z</time>
</trkpt>
<trkpt lat="34.9796946" lon="32.8095505">
<ele>1097.76</ele>
<time>2015-04-27T15:14:37Z</time>
</trkpt>
<trkpt lat="34.9796223" lon="32.8096034">
<ele>1097.76</ele>
<time>2015-04-27T15:14:39Z</time>
</trkpt>
<trkpt lat="34.9795467" lon="32.8096427">
<ele>1097.26</ele>
<time>2015-04-27T15:14:41Z</time>
</trkpt>
<trkpt lat="34.9794615" lon="32.8096603">
<ele>1096.14</ele>
<time>2015-04-27T15:14:43Z</time>
</trkpt>
<trkpt lat="34.9793736" lon="32.8096572">
<ele>1095.85</ele>
<time>2015-04-27T15:14:45Z</time>
</trkpt>
<trkpt lat="34.9793083" lon="32.8096373">
<ele>1095.81</ele>
<time>2015-04-27T15:14:46Z</time>
</trkpt>
<trkpt lat="34.9792265" lon="32.8096080">
<ele>1095.77</ele>
<time>2015-04-27T15:14:48Z</time>
</trkpt>
<trkpt lat="34.9791752" lon="32.8095929">
<ele>1095.27</ele>
<time>2015-04-27T15:14:49Z</time>
</trkpt>
<trkpt lat="34.9791261" lon="32.8095694">
<ele>1095.51</ele>
<time>2015-04-27T15:14:50Z</time>
</trkpt>
<trkpt lat="34.9790247" lon="32.8095538">
<ele>1095.70</ele>
<time>2015-04-27T15:14:52Z</time>
</trkpt>
<trkpt lat="34.9789710" lon="32.8095594">
<ele>1095.23</ele>
<time>2015-04-27T15:14:53Z</time>
</trkpt>
<trkpt lat="34.9789159" lon="32.8095722">
<ele>1095.49</ele>
<time>2015-04-27T15:14:54Z</time>
</trkpt>
<trkpt lat="34.9788632" lon="32.8095839">
<ele>1095.13</ele>
<time>2015-04-27T15:14:55Z</time>
</trkpt>
<trkpt lat="34.9788086" lon="32.8095968">
<ele>1094.94</ele>
<time>2015-04-27T15:14:56Z</time>
</trkpt>
<trkpt lat="34.9787479" lon="32.8096081">
<ele>1094.35</ele>
<time>2015-04-27T15:14:57Z</time>
</trkpt>
<trkpt lat="34.9786895" lon="32.8096079">
<ele>1094.06</ele>
<time>2015-04-27T15:14:58Z</time>
</trkpt>
<trkpt lat="34.9786364" lon="32.8096149">
<ele>1093.91</ele>
<time>2015-04-27T15:14:59Z</time>
</trkpt>
<trkpt lat="34.9785917" lon="32.8096239">
<ele>1093.33</ele>
<time>2015-04-27T15:15:00Z</time>
</trkpt>
<trkpt lat="34.9785396" lon="32.8096101">
<ele>1090.90</ele>
<time>2015-04-27T15:15:02Z</time>
</trkpt>
<trkpt lat="34.9785011" lon="32.8095811">
<ele>1090.84</ele>
<time>2015-04-27T15:16:42Z</time>
</trkpt>
<trkpt lat="34.9784636" lon="32.8095484">
<ele>1090.03</ele>
<time>2015-04-27T15:16:44Z</time>
</trkpt>
<trkpt lat="34.9784003" lon="32.8095168">
<ele>1089.79</ele>
<time>2015-04-27T15:16:47Z</time>
</trkpt>
<trkpt lat="34.9783438" lon="32.8095037">
<ele>1090.02</ele>
<time>2015-04-27T15:16:49Z</time>
</trkpt>
<trkpt lat="34.9782721" lon="32.8094842">
<ele>1088.32</ele>
<time>2015-04-27T15:16:51Z</time>
</trkpt>
<trkpt lat="34.9781970" lon="32.8094580">
<ele>1087.90</ele>
<time>2015-04-27T15:16:53Z</time>
</trkpt>
<trkpt lat="34.9781164" lon="32.8094423">
<ele>1088.55</ele>
<time>2015-04-27T15:16:55Z</time>
</trkpt>
<trkpt lat="34.9780366" lon="32.8094602">
<ele>1088.96</ele>
<time>2015-04-27T15:16:57Z</time>
</trkpt>
<trkpt lat="34.9779564" lon="32.8094944">
<ele>1088.06</ele>
<time>2015-04-27T15:16:59Z</time>
</trkpt>
<trkpt lat="34.9779028" lon="32.8095255">
<ele>1087.91</ele>
<time>2015-04-27T15:17:00Z</time>
</trkpt>
<trkpt lat="34.9778545" lon="32.8095410">
<ele>1087.33</ele>
<time>2015-04-27T15:17:01Z</time>
</trkpt>
<trkpt lat="34.9778082" lon="32.8095606">
<ele>1087.55</ele>
<time>2015-04-27T15:17:02Z</time>
</trkpt>
<trkpt lat="34.9777576" lon="32.8095824">
<ele>1087.15</ele>
<time>2015-04-27T15:17:03Z</time>
</trkpt>
<trkpt lat="34.9777096" lon="32.8096054">
<ele>1086.96</ele>
<time>2015-04-27T15:17:04Z</time>
</trkpt>
<trkpt lat="34.9776588" lon="32.8096235">
<ele>1086.86</ele>
<time>2015-04-27T15:17:05Z</time>
</trkpt>
<trkpt lat="34.9776101" lon="32.8096447">
<ele>1087.31</ele>
<time>2015-04-27T15:17:06Z</time>
</trkpt>
<trkpt lat="34.9775571" lon="32.8096695">
<ele>1087.03</ele>
<time>2015-04-27T15:17:07Z</time>
</trkpt>
<trkpt lat="34.9775060" lon="32.8096938">
<ele>1087.40</ele>
<time>2015-04-27T15:17:08Z</time>
</trkpt>
<trkpt lat="34.9774457" lon="32.8097139">
<ele>1087.08</ele>
<time>2015-04-27T15:17:09Z</time>
</trkpt>
<trkpt lat="34.9773870" lon="32.8097305">
<ele>1086.92</ele>
<time>2015-04-27T15:17:10Z</time>
</trkpt>
<trkpt lat="34.9773286" lon="32.8097430">
<ele>1086.34</ele>
<time>2015-04-27T15:17:11Z</time>
</trkpt>
<trkpt lat="34.9772720" lon="32.8097569">
<ele>1086.05</ele>
<time>2015-04-27T15:17:12Z</time>
</trkpt>
<trkpt lat="34.9772131" lon="32.8097726">
<ele>1085.90</ele>
<time>2015-04-27T15:17:13Z</time>
</trkpt>
<trkpt lat="34.9771547" lon="32.8097883">
<ele>1085.83</ele>
<time>2015-04-27T15:17:14Z</time>
</trkpt>
<trkpt lat="34.9771050" lon="32.8098012">
<ele>1085.80</ele>
<time>2015-04-27T15:17:15Z</time>
</trkpt>
<trkpt lat="34.9770479" lon="32.8098024">
<ele>1085.78</ele>
<time>2015-04-27T15:17:16Z</time>
</trkpt>
<trkpt lat="34.9769986" lon="32.8098074">
<ele>1085.77</ele>
<time>2015-04-27T15:17:17Z</time>
</trkpt>
<trkpt lat="34.9769445" lon="32.8098103">
<ele>1085.76</ele>
<time>2015-04-27T15:17:18Z</time>
</trkpt>
<trkpt lat="34.9768533" lon="32.8098136">
<ele>1086.76</ele>
<time>2015-04-27T15:17:20Z</time>
</trkpt>
<trkpt lat="34.9767731" lon="32.8098115">
<ele>1087.51</ele>
<time>2015-04-27T15:17:22Z</time>
</trkpt>
<trkpt lat="34.9767090" lon="32.8098015">
<ele>1088.20</ele>
<time>2015-04-27T15:17:24Z</time>
</trkpt>
<trkpt lat="34.9766591" lon="32.8097947">
<ele>1089.12</ele>
<time>2015-04-27T15:17:26Z</time>
</trkpt>
<trkpt lat="34.9766025" lon="32.8097722">
<ele>1090.43</ele>
<time>2015-04-27T15:17:29Z</time>
</trkpt>
<trkpt lat="34.9765562" lon="32.8097698">
<ele>1090.68</ele>
<time>2015-04-27T15:17:31Z</time>
</trkpt>
<trkpt lat="34.9765024" lon="32.8097596">
<ele>1090.74</ele>
<time>2015-04-27T15:17:33Z</time>
</trkpt>
<trkpt lat="34.9764438" lon="32.8097420">
<ele>1090.75</ele>
<time>2015-04-27T15:17:35Z</time>
</trkpt>
<trkpt lat="34.9763753" lon="32.8097265">
<ele>1090.76</ele>
<time>2015-04-27T15:17:37Z</time>
</trkpt>
<trkpt lat="34.9763152" lon="32.8097160">
<ele>1090.76</ele>
<time>2015-04-27T15:17:39Z</time>
</trkpt>
<trkpt lat="34.9762582" lon="32.8097009">
<ele>1090.76</ele>
<time>2015-04-27T15:17:42Z</time>
</trkpt>
<trkpt lat="34.9761973" lon="32.8096931">
<ele>1089.89</ele>
<time>2015-04-27T15:17:45Z</time>
</trkpt>
<trkpt lat="34.9761498" lon="32.8096886">
<ele>1090.54</ele>
<time>2015-04-27T15:17:47Z</time>
</trkpt>
<trkpt lat="34.9760996" lon="32.8096825">
<ele>1090.71</ele>
<time>2015-04-27T15:17:49Z</time>
</trkpt>
<trkpt lat="34.9760486" lon="32.8096694">
<ele>1090.75</ele>
<time>2015-04-27T15:17:51Z</time>
</trkpt>
<trkpt lat="34.9759944" lon="32.8096574">
<ele>1091.26</ele>
<time>2015-04-27T15:17:53Z</time>
</trkpt>
<trkpt lat="34.9759431" lon="32.8096420">
<ele>1091.63</ele>
<time>2015-04-27T15:17:55Z</time>
</trkpt>
<trkpt lat="34.9758992" lon="32.8096165">
<ele>1091.73</ele>
<time>2015-04-27T15:17:57Z</time>
</trkpt>
<trkpt lat="34.9758562" lon="32.8095969">
<ele>1091.25</ele>
<time>2015-04-27T15:17:59Z</time>
</trkpt>
<trkpt lat="34.9758067" lon="32.8095834">
<ele>1091.63</ele>
<time>2015-04-27T15:18:01Z</time>
</trkpt>
<trkpt lat="34.9757576" lon="32.8095609">
<ele>1091.98</ele>
<time>2015-04-27T15:18:03Z</time>
</trkpt>
<trkpt lat="34.9757117" lon="32.8095225">
<ele>1091.81</ele>
<time>2015-04-27T15:18:05Z</time>
</trkpt>
<trkpt lat="34.9756632" lon="32.8094800">
<ele>1091.77</ele>
<time>2015-04-27T15:18:07Z</time>
</trkpt>
<trkpt lat="34.9756171" lon="32.8094472">
<ele>1091.26</ele>
<time>2015-04-27T15:18:09Z</time>
</trkpt>
<trkpt lat="34.9755717" lon="32.8094178">
<ele>1090.39</ele>
<time>2015-04-27T15:18:11Z</time>
</trkpt>
<trkpt lat="34.9755280" lon="32.8093852">
<ele>1090.67</ele>
<time>2015-04-27T15:18:13Z</time>
</trkpt>
<trkpt lat="34.9754848" lon="32.8093563">
<ele>1090.49</ele>
<time>2015-04-27T15:18:15Z</time>
</trkpt>
<trkpt lat="34.9754424" lon="32.8093286">
<ele>1091.19</ele>
<time>2015-04-27T15:18:17Z</time>
</trkpt>
<trkpt lat="34.9753986" lon="32.8093090">
<ele>1091.37</ele>
<time>2015-04-27T15:18:19Z</time>
</trkpt>
<trkpt lat="34.9753486" lon="32.8093031">
<ele>1091.91</ele>
<time>2015-04-27T15:18:21Z</time>
</trkpt>
<trkpt lat="34.9753001" lon="32.8093030">
<ele>1093.05</ele>
<time>2015-04-27T15:18:23Z</time>
</trkpt>
<trkpt lat="34.9752364" lon="32.8093176">
<ele>1093.92</ele>
<time>2015-04-27T15:18:26Z</time>
</trkpt>
<trkpt lat="34.9751774" lon="32.8093372">
<ele>1094.28</ele>
<time>2015-04-27T15:18:29Z</time>
</trkpt>
<trkpt lat="34.9751293" lon="32.8093860">
<ele>1094.70</ele>
<time>2015-04-27T15:18:32Z</time>
</trkpt>
<trkpt lat="34.9750840" lon="32.8094400">
<ele>1094.88</ele>
<time>2015-04-27T15:18:35Z</time>
</trkpt>
<trkpt lat="34.9750491" lon="32.8094969">
<ele>1095.02</ele>
<time>2015-04-27T15:18:38Z</time>
</trkpt>
<trkpt lat="34.9750176" lon="32.8095488">
<ele>1096.54</ele>
<time>2015-04-27T15:18:41Z</time>
</trkpt>
<trkpt lat="34.9749816" lon="32.8095988">
<ele>1096.43</ele>
<time>2015-04-27T15:18:45Z</time>
</trkpt>
<trkpt lat="34.9749450" lon="32.8096460">
<ele>1095.05</ele>
<time>2015-04-27T15:18:49Z</time>
</trkpt>
<trkpt lat="34.9749022" lon="32.8097016">
<ele>1090.84</ele>
<time>2015-04-27T15:18:53Z</time>
</trkpt>
<trkpt lat="34.9748501" lon="32.8097436">
<ele>1089.27</ele>
<time>2015-04-27T15:18:56Z</time>
</trkpt>
<trkpt lat="34.9748106" lon="32.8097760">
<ele>1089.14</ele>
<time>2015-04-27T15:18:58Z</time>
</trkpt>
<trkpt lat="34.9747686" lon="32.8098133">
<ele>1088.35</ele>
<time>2015-04-27T15:19:00Z</time>
</trkpt>
<trkpt lat="34.9747284" lon="32.8098438">
<ele>1089.41</ele>
<time>2015-04-27T15:19:02Z</time>
</trkpt>
<trkpt lat="34.9746874" lon="32.8098680">
<ele>1090.42</ele>
<time>2015-04-27T15:19:04Z</time>
</trkpt>
<trkpt lat="34.9746266" lon="32.8099102">
<ele>1090.97</ele>
<time>2015-04-27T15:19:07Z</time>
</trkpt>
<trkpt lat="34.9745853" lon="32.8099340">
<ele>1092.31</ele>
<time>2015-04-27T15:19:09Z</time>
</trkpt>
<trkpt lat="34.9745274" lon="32.8099632">
<ele>1094.15</ele>
<time>2015-04-27T15:19:11Z</time>
</trkpt>
<trkpt lat="34.9744833" lon="32.8099830">
<ele>1095.86</ele>
<time>2015-04-27T15:19:13Z</time>
</trkpt>
<trkpt lat="34.9744387" lon="32.8100090">
<ele>1095.78</ele>
<time>2015-04-27T15:19:15Z</time>
</trkpt>
<trkpt lat="34.9743977" lon="32.8100343">
<ele>1095.77</ele>
<time>2015-04-27T15:19:17Z</time>
</trkpt>
<trkpt lat="34.9743414" lon="32.8100669">
<ele>1097.14</ele>
<time>2015-04-27T15:19:20Z</time>
</trkpt>
<trkpt lat="34.9742850" lon="32.8100916">
<ele>1097.68</ele>
<time>2015-04-27T15:19:23Z</time>
</trkpt>
<trkpt lat="34.9742272" lon="32.8101233">
<ele>1096.88</ele>
<time>2015-04-27T15:19:26Z</time>
</trkpt>
<trkpt lat="34.9741677" lon="32.8101558">
<ele>1096.90</ele>
<time>2015-04-27T15:19:29Z</time>
</trkpt>
<trkpt lat="34.9741122" lon="32.8101896">
<ele>1097.03</ele>
<time>2015-04-27T15:19:32Z</time>
</trkpt>
<trkpt lat="34.9740560" lon="32.8102345">
<ele>1097.54</ele>
<time>2015-04-27T15:19:35Z</time>
</trkpt>
<trkpt lat="34.9740006" lon="32.8102786">
<ele>1098.23</ele>
<time>2015-04-27T15:19:38Z</time>
</trkpt>
<trkpt lat="34.9739503" lon="32.8103207">
<ele>1098.19</ele>
<time>2015-04-27T15:19:41Z</time>
</trkpt>
<trkpt lat="34.9739020" lon="32.8103449">
<ele>1097.99</ele>
<time>2015-04-27T15:19:46Z</time>
</trkpt>
<trkpt lat="34.9738797" lon="32.8103956">
<ele>1098.65</ele>
<time>2015-04-27T15:19:50Z</time>
</trkpt>
<trkpt lat="34.9738534" lon="32.8104612">
<ele>1099.13</ele>
<time>2015-04-27T15:19:54Z</time>
</trkpt>
<trkpt lat="34.9738353" lon="32.8105118">
<ele>1100.18</ele>
<time>2015-04-27T15:19:57Z</time>
</trkpt>
<trkpt lat="34.9738259" lon="32.8105687">
<ele>1100.69</ele>
<time>2015-04-27T15:20:00Z</time>
</trkpt>
<trkpt lat="34.9738197" lon="32.8106289">
<ele>1100.25</ele>
<time>2015-04-27T15:20:03Z</time>
</trkpt>
<trkpt lat="34.9738094" lon="32.8106884">
<ele>1099.07</ele>
<time>2015-04-27T15:20:06Z</time>
</trkpt>
<trkpt lat="34.9737913" lon="32.8107481">
<ele>1099.30</ele>
<time>2015-04-27T15:20:09Z</time>
</trkpt>
<trkpt lat="34.9737852" lon="32.8108103">
<ele>1100.45</ele>
<time>2015-04-27T15:20:12Z</time>
</trkpt>
<trkpt lat="34.9737600" lon="32.8108678">
<ele>1100.22</ele>
<time>2015-04-27T15:20:15Z</time>
</trkpt>
<trkpt lat="34.9737387" lon="32.8109322">
<ele>1101.44</ele>
<time>2015-04-27T15:20:18Z</time>
</trkpt>
<trkpt lat="34.9737268" lon="32.8109860">
<ele>1101.72</ele>
<time>2015-04-27T15:20:21Z</time>
</trkpt>
<trkpt lat="34.9737012" lon="32.8110325">
<ele>1102.26</ele>
<time>2015-04-27T15:20:24Z</time>
</trkpt>
<trkpt lat="34.9736709" lon="32.8110915">
<ele>1104.04</ele>
<time>2015-04-27T15:20:28Z</time>
</trkpt>
<trkpt lat="34.9736252" lon="32.8111185">
<ele>1103.80</ele>
<time>2015-04-27T15:20:31Z</time>
</trkpt>
<trkpt lat="34.9735733" lon="32.8111342">
<ele>1101.60</ele>
<time>2015-04-27T15:20:36Z</time>
</trkpt>
<trkpt lat="34.9735213" lon="32.8111562">
<ele>1100.81</ele>
<time>2015-04-27T15:20:40Z</time>
</trkpt>
<trkpt lat="34.9734684" lon="32.8111678">
<ele>1102.39</ele>
<time>2015-04-27T15:20:43Z</time>
</trkpt>
<trkpt lat="34.9734147" lon="32.8111685">
<ele>1103.09</ele>
<time>2015-04-27T15:20:46Z</time>
</trkpt>
<trkpt lat="34.9733658" lon="32.8111606">
<ele>1102.05</ele>
<time>2015-04-27T15:20:49Z</time>
</trkpt>
<trkpt lat="34.9733116" lon="32.8111892">
<ele>1103.65</ele>
<time>2015-04-27T15:20:53Z</time>
</trkpt>
<trkpt lat="34.9732681" lon="32.8112081">
<ele>1105.12</ele>
<time>2015-04-27T15:20:56Z</time>
</trkpt>
<trkpt lat="34.9732147" lon="32.8112105">
<ele>1104.68</ele>
<time>2015-04-27T15:20:59Z</time>
</trkpt>
<trkpt lat="34.9731694" lon="32.8111984">
<ele>1103.07</ele>
<time>2015-04-27T15:21:03Z</time>
</trkpt>
<trkpt lat="34.9731167" lon="32.8112241">
<ele>1104.68</ele>
<time>2015-04-27T15:21:08Z</time>
</trkpt>
<trkpt lat="34.9730647" lon="32.8112198">
<ele>1104.32</ele>
<time>2015-04-27T15:21:12Z</time>
</trkpt>
<trkpt lat="34.9730177" lon="32.8112281">
<ele>1105.45</ele>
<time>2015-04-27T15:21:15Z</time>
</trkpt>
<trkpt lat="34.9729716" lon="32.8112207">
<ele>1105.72</ele>
<time>2015-04-27T15:21:18Z</time>
</trkpt>
<trkpt lat="34.9729242" lon="32.8112279">
<ele>1106.13</ele>
<time>2015-04-27T15:21:21Z</time>
</trkpt>
<trkpt lat="34.9728758" lon="32.8112456">
<ele>1107.06</ele>
<time>2015-04-27T15:21:24Z</time>
</trkpt>
<trkpt lat="34.9728310" lon="32.8112561">
<ele>1109.17</ele>
<time>2015-04-27T15:21:27Z</time>
</trkpt>
<trkpt lat="34.9727809" lon="32.8112635">
<ele>1109.06</ele>
<time>2015-04-27T15:21:30Z</time>
</trkpt>
<trkpt lat="34.9727307" lon="32.8112660">
<ele>1109.55</ele>
<time>2015-04-27T15:21:33Z</time>
</trkpt>
<trkpt lat="34.9726834" lon="32.8112866">
<ele>1108.86</ele>
<time>2015-04-27T15:21:36Z</time>
</trkpt>
<trkpt lat="34.9726254" lon="32.8113012">
<ele>1107.52</ele>
<time>2015-04-27T15:21:39Z</time>
</trkpt>
<trkpt lat="34.9725705" lon="32.8113295">
<ele>1108.61</ele>
<time>2015-04-27T15:21:42Z</time>
</trkpt>
<trkpt lat="34.9725176" lon="32.8113653">
<ele>1107.87</ele>
<time>2015-04-27T15:21:45Z</time>
</trkpt>
<trkpt lat="34.9724758" lon="32.8114042">
<ele>1106.15</ele>
<time>2015-04-27T15:21:48Z</time>
</trkpt>
<trkpt lat="34.9724364" lon="32.8114440">
<ele>1103.81</ele>
<time>2015-04-27T15:21:51Z</time>
</trkpt>
<trkpt lat="34.9724036" lon="32.8114935">
<ele>1104.27</ele>
<time>2015-04-27T15:21:54Z</time>
</trkpt>
<trkpt lat="34.9723655" lon="32.8115379">
<ele>1104.95</ele>
<time>2015-04-27T15:21:57Z</time>
</trkpt>
<trkpt lat="34.9723186" lon="32.8115704">
<ele>1106.53</ele>
<time>2015-04-27T15:22:00Z</time>
</trkpt>
<trkpt lat="34.9722694" lon="32.8116175">
<ele>1107.61</ele>
<time>2015-04-27T15:22:03Z</time>
</trkpt>
<trkpt lat="34.9722264" lon="32.8116604">
<ele>1108.12</ele>
<time>2015-04-27T15:22:06Z</time>
</trkpt>
<trkpt lat="34.9721811" lon="32.8116934">
<ele>1107.80</ele>
<time>2015-04-27T15:22:09Z</time>
</trkpt>
<trkpt lat="34.9721349" lon="32.8117129">
<ele>1108.39</ele>
<time>2015-04-27T15:22:12Z</time>
</trkpt>
<trkpt lat="34.9720904" lon="32.8117413">
<ele>1108.59</ele>
<time>2015-04-27T15:22:15Z</time>
</trkpt>
<trkpt lat="34.9720422" lon="32.8117698">
<ele>1109.24</ele>
<time>2015-04-27T15:22:18Z</time>
</trkpt>
<trkpt lat="34.9719950" lon="32.8117997">
<ele>1109.69</ele>
<time>2015-04-27T15:22:21Z</time>
</trkpt>
<trkpt lat="34.9719516" lon="32.8118321">
<ele>1108.13</ele>
<time>2015-04-27T15:22:24Z</time>
</trkpt>
<trkpt lat="34.9718972" lon="32.8118579">
<ele>1109.66</ele>
<time>2015-04-27T15:22:28Z</time>
</trkpt>
<trkpt lat="34.9718529" lon="32.8118688">
<ele>1109.25</ele>
<time>2015-04-27T15:22:31Z</time>
</trkpt>
<trkpt lat="34.9718084" lon="32.8118798">
<ele>1109.70</ele>
<time>2015-04-27T15:22:34Z</time>
</trkpt>
<trkpt lat="34.9717622" lon="32.8118939">
<ele>1110.63</ele>
<time>2015-04-27T15:22:37Z</time>
</trkpt>
<trkpt lat="34.9717047" lon="32.8119112">
<ele>1110.74</ele>
<time>2015-04-27T15:22:40Z</time>
</trkpt>
<trkpt lat="34.9716456" lon="32.8119280">
<ele>1109.88</ele>
<time>2015-04-27T15:22:43Z</time>
</trkpt>
<trkpt lat="34.9716020" lon="32.8119435">
<ele>1111.04</ele>
<time>2015-04-27T15:22:45Z</time>
</trkpt>
<trkpt lat="34.9715369" lon="32.8119605">
<ele>1111.05</ele>
<time>2015-04-27T15:22:48Z</time>
</trkpt>
<trkpt lat="34.9714909" lon="32.8119736">
<ele>1110.83</ele>
<time>2015-04-27T15:22:50Z</time>
</trkpt>
<trkpt lat="34.9714472" lon="32.8119930">
<ele>1111.28</ele>
<time>2015-04-27T15:22:52Z</time>
</trkpt>
<trkpt lat="34.9713929" lon="32.8120187">
<ele>1112.45</ele>
<time>2015-04-27T15:22:55Z</time>
</trkpt>
<trkpt lat="34.9713349" lon="32.8120404">
<ele>1113.47</ele>
<time>2015-04-27T15:22:58Z</time>
</trkpt>
<trkpt lat="34.9712754" lon="32.8120704">
<ele>1113.22</ele>
<time>2015-04-27T15:23:01Z</time>
</trkpt>
<trkpt lat="34.9712150" lon="32.8120920">
<ele>1112.32</ele>
<time>2015-04-27T15:23:04Z</time>
</trkpt>
<trkpt lat="34.9711727" lon="32.8121119">
<ele>1112.70</ele>
<time>2015-04-27T15:23:07Z</time>
</trkpt>
<trkpt lat="34.9711207" lon="32.8121317">
<ele>1113.13</ele>
<time>2015-04-27T15:23:11Z</time>
</trkpt>
<trkpt lat="34.9710784" lon="32.8121726">
<ele>1116.10</ele>
<time>2015-04-27T15:23:15Z</time>
</trkpt>
<trkpt lat="34.9710426" lon="32.8122150">
<ele>1117.43</ele>
<time>2015-04-27T15:23:18Z</time>
</trkpt>
<trkpt lat="34.9710066" lon="32.8122634">
<ele>1118.22</ele>
<time>2015-04-27T15:23:21Z</time>
</trkpt>
<trkpt lat="34.9709806" lon="32.8123091">
<ele>1118.87</ele>
<time>2015-04-27T15:23:23Z</time>
</trkpt>
<trkpt lat="34.9709623" lon="32.8123820">
<ele>1117.90</ele>
<time>2015-04-27T15:23:26Z</time>
</trkpt>
<trkpt lat="34.9709687" lon="32.8124555">
<ele>1116.90</ele>
<time>2015-04-27T15:23:29Z</time>
</trkpt>
<trkpt lat="34.9709955" lon="32.8125306">
<ele>1116.55</ele>
<time>2015-04-27T15:23:31Z</time>
</trkpt>
<trkpt lat="34.9710156" lon="32.8126012">
<ele>1114.96</ele>
<time>2015-04-27T15:23:33Z</time>
</trkpt>
<trkpt lat="34.9710287" lon="32.8126663">
<ele>1114.06</ele>
<time>2015-04-27T15:23:35Z</time>
</trkpt>
<trkpt lat="34.9710510" lon="32.8127275">
<ele>1113.83</ele>
<time>2015-04-27T15:23:37Z</time>
</trkpt>
<trkpt lat="34.9710754" lon="32.8127901">
<ele>1114.28</ele>
<time>2015-04-27T15:23:39Z</time>
</trkpt>
<trkpt lat="34.9710908" lon="32.8128532">
<ele>1114.64</ele>
<time>2015-04-27T15:23:41Z</time>
</trkpt>
<trkpt lat="34.9711128" lon="32.8129252">
<ele>1113.99</ele>
<time>2015-04-27T15:23:44Z</time>
</trkpt>
<trkpt lat="34.9711256" lon="32.8129882">
<ele>1113.54</ele>
<time>2015-04-27T15:23:47Z</time>
</trkpt>
<trkpt lat="34.9711476" lon="32.8130490">
<ele>1112.86</ele>
<time>2015-04-27T15:23:50Z</time>
</trkpt>
<trkpt lat="34.9711583" lon="32.8131118">
<ele>1112.28</ele>
<time>2015-04-27T15:23:52Z</time>
</trkpt>
<trkpt lat="34.9711693" lon="32.8131845">
<ele>1111.89</ele>
<time>2015-04-27T15:23:54Z</time>
</trkpt>
<trkpt lat="34.9711781" lon="32.8132529">
<ele>1112.54</ele>
<time>2015-04-27T15:23:56Z</time>
</trkpt>
<trkpt lat="34.9711777" lon="32.8133122">
<ele>1112.21</ele>
<time>2015-04-27T15:23:58Z</time>
</trkpt>
<trkpt lat="34.9711738" lon="32.8133740">
<ele>1111.87</ele>
<time>2015-04-27T15:24:00Z</time>
</trkpt>
<trkpt lat="34.9711776" lon="32.8134384">
<ele>1111.79</ele>
<time>2015-04-27T15:24:02Z</time>
</trkpt>
<trkpt lat="34.9711792" lon="32.8135043">
<ele>1111.77</ele>
<time>2015-04-27T15:24:04Z</time>
</trkpt>
<trkpt lat="34.9711786" lon="32.8135668">
<ele>1112.51</ele>
<time>2015-04-27T15:24:06Z</time>
</trkpt>
<trkpt lat="34.9711695" lon="32.8136394">
<ele>1111.98</ele>
<time>2015-04-27T15:24:09Z</time>
</trkpt>
<trkpt lat="34.9711654" lon="32.8137054">
<ele>1112.66</ele>
<time>2015-04-27T15:24:12Z</time>
</trkpt>
<trkpt lat="34.9711556" lon="32.8137756">
<ele>1112.74</ele>
<time>2015-04-27T15:24:14Z</time>
</trkpt>
<trkpt lat="34.9711277" lon="32.8138509">
<ele>1112.75</ele>
<time>2015-04-27T15:24:16Z</time>
</trkpt>
<trkpt lat="34.9710847" lon="32.8139090">
<ele>1112.76</ele>
<time>2015-04-27T15:24:18Z</time>
</trkpt>
<trkpt lat="34.9710376" lon="32.8139537">
<ele>1113.51</ele>
<time>2015-04-27T15:24:20Z</time>
</trkpt>
<trkpt lat="34.9709826" lon="32.8139978">
<ele>1114.23</ele>
<time>2015-04-27T15:24:23Z</time>
</trkpt>
<trkpt lat="34.9709422" lon="32.8140262">
<ele>1114.63</ele>
<time>2015-04-27T15:24:25Z</time>
</trkpt>
<trkpt lat="34.9708901" lon="32.8140608">
<ele>1115.48</ele>
<time>2015-04-27T15:24:27Z</time>
</trkpt>
<trkpt lat="34.9708277" lon="32.8140957">
<ele>1115.69</ele>
<time>2015-04-27T15:24:29Z</time>
</trkpt>
<trkpt lat="34.9707599" lon="32.8140997">
<ele>1115.74</ele>
<time>2015-04-27T15:24:31Z</time>
</trkpt>
<trkpt lat="34.9706956" lon="32.8140840">
<ele>1115.76</ele>
<time>2015-04-27T15:24:33Z</time>
</trkpt>
<trkpt lat="34.9706447" lon="32.8140654">
<ele>1115.76</ele>
<time>2015-04-27T15:24:35Z</time>
</trkpt>
<trkpt lat="34.9706004" lon="32.8140387">
<ele>1115.76</ele>
<time>2015-04-27T15:24:37Z</time>
</trkpt>
<trkpt lat="34.9705591" lon="32.8140020">
<ele>1116.51</ele>
<time>2015-04-27T15:24:39Z</time>
</trkpt>
<trkpt lat="34.9705170" lon="32.8139652">
<ele>1116.70</ele>
<time>2015-04-27T15:24:41Z</time>
</trkpt>
<trkpt lat="34.9704726" lon="32.8139316">
<ele>1116.74</ele>
<time>2015-04-27T15:24:43Z</time>
</trkpt>
<trkpt lat="34.9704303" lon="32.8138946">
<ele>1117.51</ele>
<time>2015-04-27T15:24:45Z</time>
</trkpt>
<trkpt lat="34.9703872" lon="32.8138567">
<ele>1118.20</ele>
<time>2015-04-27T15:24:47Z</time>
</trkpt>
<trkpt lat="34.9703428" lon="32.8138213">
<ele>1118.62</ele>
<time>2015-04-27T15:24:49Z</time>
</trkpt>
<trkpt lat="34.9702989" lon="32.8137826">
<ele>1118.72</ele>
<time>2015-04-27T15:24:51Z</time>
</trkpt>
<trkpt lat="34.9702541" lon="32.8137427">
<ele>1118.25</ele>
<time>2015-04-27T15:24:53Z</time>
</trkpt>
<trkpt lat="34.9702080" lon="32.8137066">
<ele>1117.88</ele>
<time>2015-04-27T15:24:55Z</time>
</trkpt>
<trkpt lat="34.9701588" lon="32.8136800">
<ele>1118.29</ele>
<time>2015-04-27T15:24:57Z</time>
</trkpt>
<trkpt lat="34.9701083" lon="32.8136589">
<ele>1118.64</ele>
<time>2015-04-27T15:24:59Z</time>
</trkpt>
<trkpt lat="34.9700580" lon="32.8136341">
<ele>1118.73</ele>
<time>2015-04-27T15:25:01Z</time>
</trkpt>
<trkpt lat="34.9700067" lon="32.8136123">
<ele>1118.75</ele>
<time>2015-04-27T15:25:03Z</time>
</trkpt>
<trkpt lat="34.9699543" lon="32.8135934">
<ele>1118.26</ele>
<time>2015-04-27T15:25:05Z</time>
</trkpt>
<trkpt lat="34.9698999" lon="32.8135866">
<ele>1118.63</ele>
<time>2015-04-27T15:25:07Z</time>
</trkpt>
<trkpt lat="34.9698385" lon="32.8135988">
<ele>1118.98</ele>
<time>2015-04-27T15:25:09Z</time>
</trkpt>
<trkpt lat="34.9697761" lon="32.8136298">
<ele>1119.31</ele>
<time>2015-04-27T15:25:11Z</time>
</trkpt>
<trkpt lat="34.9697192" lon="32.8136746">
<ele>1118.90</ele>
<time>2015-04-27T15:25:13Z</time>
</trkpt>
<trkpt lat="34.9696666" lon="32.8137255">
<ele>1118.79</ele>
<time>2015-04-27T15:25:15Z</time>
</trkpt>
<trkpt lat="34.9696163" lon="32.8137743">
<ele>1119.27</ele>
<time>2015-04-27T15:25:17Z</time>
</trkpt>
<trkpt lat="34.9695623" lon="32.8138147">
<ele>1120.14</ele>
<time>2015-04-27T15:25:19Z</time>
</trkpt>
<trkpt lat="34.9695081" lon="32.8138520">
<ele>1120.60</ele>
<time>2015-04-27T15:25:21Z</time>
</trkpt>
<trkpt lat="34.9694538" lon="32.8138828">
<ele>1120.72</ele>
<time>2015-04-27T15:25:23Z</time>
</trkpt>
<trkpt lat="34.9693934" lon="32.8138954">
<ele>1120.75</ele>
<time>2015-04-27T15:25:25Z</time>
</trkpt>
<trkpt lat="34.9693219" lon="32.8138925">
<ele>1119.51</ele>
<time>2015-04-27T15:25:27Z</time>
</trkpt>
<trkpt lat="34.9692438" lon="32.8138868">
<ele>1118.20</ele>
<time>2015-04-27T15:25:29Z</time>
</trkpt>
<trkpt lat="34.9691620" lon="32.8138695">
<ele>1118.37</ele>
<time>2015-04-27T15:25:31Z</time>
</trkpt>
<trkpt lat="34.9691014" lon="32.8138492">
<ele>1118.56</ele>
<time>2015-04-27T15:25:32Z</time>
</trkpt>
<trkpt lat="34.9690502" lon="32.8138472">
<ele>1118.16</ele>
<time>2015-04-27T15:25:33Z</time>
</trkpt>
<trkpt lat="34.9690019" lon="32.8138405">
<ele>1117.96</ele>
<time>2015-04-27T15:25:34Z</time>
</trkpt>
<trkpt lat="34.9689512" lon="32.8138292">
<ele>1117.86</ele>
<time>2015-04-27T15:25:35Z</time>
</trkpt>
<trkpt lat="34.9689067" lon="32.8138194">
<ele>1118.31</ele>
<time>2015-04-27T15:25:36Z</time>
</trkpt>
<trkpt lat="34.9688606" lon="32.8138091">
<ele>1119.04</ele>
<time>2015-04-27T15:25:37Z</time>
</trkpt>
<trkpt lat="34.9688112" lon="32.8137962">
<ele>1119.40</ele>
<time>2015-04-27T15:25:38Z</time>
</trkpt>
<trkpt lat="34.9687618" lon="32.8137805">
<ele>1119.08</ele>
<time>2015-04-27T15:25:39Z</time>
</trkpt>
<trkpt lat="34.9687105" lon="32.8137721">
<ele>1118.92</ele>
<time>2015-04-27T15:25:40Z</time>
</trkpt>
<trkpt lat="34.9686519" lon="32.8137742">
<ele>1118.84</ele>
<time>2015-04-27T15:25:41Z</time>
</trkpt>
<trkpt lat="34.9685851" lon="32.8137614">
<ele>1118.80</ele>
<time>2015-04-27T15:25:42Z</time>
</trkpt>
<trkpt lat="34.9685247" lon="32.8137483">
<ele>1118.78</ele>
<time>2015-04-27T15:25:43Z</time>
</trkpt>
<trkpt lat="34.9684610" lon="32.8137376">
<ele>1118.77</ele>
<time>2015-04-27T15:25:44Z</time>
</trkpt>
<trkpt lat="34.9684004" lon="32.8137326">
<ele>1118.77</ele>
<time>2015-04-27T15:25:45Z</time>
</trkpt>
<trkpt lat="34.9683339" lon="32.8137265">
<ele>1118.76</ele>
<time>2015-04-27T15:25:46Z</time>
</trkpt>
<trkpt lat="34.9682678" lon="32.8137294">
<ele>1118.26</ele>
<time>2015-04-27T15:25:47Z</time>
</trkpt>
<trkpt lat="34.9681993" lon="32.8137426">
<ele>1118.01</ele>
<time>2015-04-27T15:25:48Z</time>
</trkpt>
<trkpt lat="34.9681337" lon="32.8137755">
<ele>1116.89</ele>
<time>2015-04-27T15:25:49Z</time>
</trkpt>
<trkpt lat="34.9680771" lon="32.8138248">
<ele>1116.32</ele>
<time>2015-04-27T15:25:50Z</time>
</trkpt>
<trkpt lat="34.9680350" lon="32.8138878">
<ele>1116.04</ele>
<time>2015-04-27T15:25:51Z</time>
</trkpt>
<trkpt lat="34.9680049" lon="32.8139598">
<ele>1115.90</ele>
<time>2015-04-27T15:25:52Z</time>
</trkpt>
<trkpt lat="34.9679769" lon="32.8140294">
<ele>1116.33</ele>
<time>2015-04-27T15:25:53Z</time>
</trkpt>
<trkpt lat="34.9679316" lon="32.8140874">
<ele>1117.05</ele>
<time>2015-04-27T15:25:54Z</time>
</trkpt>
<trkpt lat="34.9678752" lon="32.8141347">
<ele>1117.40</ele>
<time>2015-04-27T15:25:55Z</time>
</trkpt>
<trkpt lat="34.9678137" lon="32.8141700">
<ele>1118.08</ele>
<time>2015-04-27T15:25:56Z</time>
</trkpt>
<trkpt lat="34.9677526" lon="32.8141884">
<ele>1118.42</ele>
<time>2015-04-27T15:25:57Z</time>
</trkpt>
<trkpt lat="34.9676909" lon="32.8142196">
<ele>1119.09</ele>
<time>2015-04-27T15:25:58Z</time>
</trkpt>
<trkpt lat="34.9676404" lon="32.8142571">
<ele>1119.93</ele>
<time>2015-04-27T15:25:59Z</time>
</trkpt>
<trkpt lat="34.9675928" lon="32.8143135">
<ele>1119.84</ele>
<time>2015-04-27T15:26:00Z</time>
</trkpt>
<trkpt lat="34.9675724" lon="32.8143737">
<ele>1119.80</ele>
<time>2015-04-27T15:26:01Z</time>
</trkpt>
<trkpt lat="34.9675729" lon="32.8144405">
<ele>1119.78</ele>
<time>2015-04-27T15:26:02Z</time>
</trkpt>
<trkpt lat="34.9675755" lon="32.8145047">
<ele>1119.27</ele>
<time>2015-04-27T15:26:03Z</time>
</trkpt>
<trkpt lat="34.9675812" lon="32.8145724">
<ele>1119.02</ele>
<time>2015-04-27T15:26:04Z</time>
</trkpt>
<trkpt lat="34.9675816" lon="32.8146304">
<ele>1118.89</ele>
<time>2015-04-27T15:26:05Z</time>
</trkpt>
<trkpt lat="34.9675786" lon="32.8146906">
<ele>1118.82</ele>
<time>2015-04-27T15:26:06Z</time>
</trkpt>
<trkpt lat="34.9675756" lon="32.8147477">
<ele>1118.79</ele>
<time>2015-04-27T15:26:07Z</time>
</trkpt>
<trkpt lat="34.9675656" lon="32.8148074">
<ele>1118.28</ele>
<time>2015-04-27T15:26:08Z</time>
</trkpt>
<trkpt lat="34.9675534" lon="32.8148657">
<ele>1118.02</ele>
<time>2015-04-27T15:26:09Z</time>
</trkpt>
<trkpt lat="34.9675371" lon="32.8149247">
<ele>1117.89</ele>
<time>2015-04-27T15:26:10Z</time>
</trkpt>
<trkpt lat="34.9675278" lon="32.8149854">
<ele>1117.82</ele>
<time>2015-04-27T15:26:11Z</time>
</trkpt>
<trkpt lat="34.9675324" lon="32.8150490">
<ele>1117.29</ele>
<time>2015-04-27T15:26:12Z</time>
</trkpt>
<trkpt lat="34.9675374" lon="32.8151197">
<ele>1116.53</ele>
<time>2015-04-27T15:26:13Z</time>
</trkpt>
<trkpt lat="34.9675592" lon="32.8151990">
<ele>1116.64</ele>
<time>2015-04-27T15:26:14Z</time>
</trkpt>
<trkpt lat="34.9675873" lon="32.8152668">
<ele>1116.20</ele>
<time>2015-04-27T15:26:15Z</time>
</trkpt>
<trkpt lat="34.9676218" lon="32.8153334">
<ele>1116.48</ele>
<time>2015-04-27T15:26:16Z</time>
</trkpt>
<trkpt lat="34.9676540" lon="32.8153928">
<ele>1116.62</ele>
<time>2015-04-27T15:26:17Z</time>
</trkpt>
<trkpt lat="34.9676862" lon="32.8154545">
<ele>1116.69</ele>
<time>2015-04-27T15:26:18Z</time>
</trkpt>
<trkpt lat="34.9677110" lon="32.8155167">
<ele>1116.73</ele>
<time>2015-04-27T15:26:19Z</time>
</trkpt>
<trkpt lat="34.9677333" lon="32.8155768">
<ele>1116.74</ele>
<time>2015-04-27T15:26:20Z</time>
</trkpt>
<trkpt lat="34.9677513" lon="32.8156464">
<ele>1117.25</ele>
<time>2015-04-27T15:26:21Z</time>
</trkpt>
<trkpt lat="34.9677676" lon="32.8157260">
<ele>1117.51</ele>
<time>2015-04-27T15:26:22Z</time>
</trkpt>
<trkpt lat="34.9677786" lon="32.8157995">
<ele>1117.63</ele>
<time>2015-04-27T15:26:23Z</time>
</trkpt>
<trkpt lat="34.9677800" lon="32.8158829">
<ele>1117.70</ele>
<time>2015-04-27T15:26:24Z</time>
</trkpt>
<trkpt lat="34.9677738" lon="32.8159599">
<ele>1117.73</ele>
<time>2015-04-27T15:26:25Z</time>
</trkpt>
<trkpt lat="34.9677631" lon="32.8160416">
<ele>1117.24</ele>
<time>2015-04-27T15:26:26Z</time>
</trkpt>
<trkpt lat="34.9677470" lon="32.8161211">
<ele>1117.50</ele>
<time>2015-04-27T15:26:27Z</time>
</trkpt>
<trkpt lat="34.9677318" lon="32.8161988">
<ele>1117.63</ele>
<time>2015-04-27T15:26:28Z</time>
</trkpt>
<trkpt lat="34.9677164" lon="32.8162740">
<ele>1117.20</ele>
<time>2015-04-27T15:26:29Z</time>
</trkpt>
<trkpt lat="34.9677047" lon="32.8163518">
<ele>1116.98</ele>
<time>2015-04-27T15:26:30Z</time>
</trkpt>
<trkpt lat="34.9676880" lon="32.8164182">
<ele>1116.37</ele>
<time>2015-04-27T15:26:31Z</time>
</trkpt>
<trkpt lat="34.9676722" lon="32.8164926">
<ele>1115.56</ele>
<time>2015-04-27T15:26:32Z</time>
</trkpt>
<trkpt lat="34.9676606" lon="32.8165634">
<ele>1115.16</ele>
<time>2015-04-27T15:26:33Z</time>
</trkpt>
<trkpt lat="34.9676506" lon="32.8166326">
<ele>1115.46</ele>
<time>2015-04-27T15:26:34Z</time>
</trkpt>
<trkpt lat="34.9676392" lon="32.8167017">
<ele>1115.11</ele>
<time>2015-04-27T15:26:35Z</time>
</trkpt>
<trkpt lat="34.9676315" lon="32.8167746">
<ele>1114.94</ele>
<time>2015-04-27T15:26:36Z</time>
</trkpt>
<trkpt lat="34.9676233" lon="32.8168494">
<ele>1114.85</ele>
<time>2015-04-27T15:26:37Z</time>
</trkpt>
<trkpt lat="34.9676223" lon="32.8169269">
<ele>1114.80</ele>
<time>2015-04-27T15:26:38Z</time>
</trkpt>
<trkpt lat="34.9676248" lon="32.8170008">
<ele>1114.28</ele>
<time>2015-04-27T15:26:39Z</time>
</trkpt>
<trkpt lat="34.9676342" lon="32.8170796">
<ele>1114.52</ele>
<time>2015-04-27T15:26:40Z</time>
</trkpt>
<trkpt lat="34.9676485" lon="32.8171585">
<ele>1114.64</ele>
<time>2015-04-27T15:26:41Z</time>
</trkpt>
<trkpt lat="34.9676706" lon="32.8172380">
<ele>1114.70</ele>
<time>2015-04-27T15:26:42Z</time>
</trkpt>
<trkpt lat="34.9677012" lon="32.8173189">
<ele>1114.73</ele>
<time>2015-04-27T15:26:43Z</time>
</trkpt>
<trkpt lat="34.9677444" lon="32.8174016">
<ele>1114.75</ele>
<time>2015-04-27T15:26:44Z</time>
</trkpt>
<trkpt lat="34.9677691" lon="32.8174846">
<ele>1114.75</ele>
<time>2015-04-27T15:26:45Z</time>
</trkpt>
<trkpt lat="34.9677989" lon="32.8175596">
<ele>1114.26</ele>
<time>2015-04-27T15:26:46Z</time>
</trkpt>
<trkpt lat="34.9678249" lon="32.8176430">
<ele>1114.01</ele>
<time>2015-04-27T15:26:47Z</time>
</trkpt>
<trkpt lat="34.9678602" lon="32.8177183">
<ele>1114.38</ele>
<time>2015-04-27T15:26:48Z</time>
</trkpt>
<trkpt lat="34.9678955" lon="32.8177942">
<ele>1114.57</ele>
<time>2015-04-27T15:26:49Z</time>
</trkpt>
<trkpt lat="34.9679312" lon="32.8178632">
<ele>1115.17</ele>
<time>2015-04-27T15:26:50Z</time>
</trkpt>
<trkpt lat="34.9679580" lon="32.8179343">
<ele>1115.96</ele>
<time>2015-04-27T15:26:51Z</time>
</trkpt>
<trkpt lat="34.9679817" lon="32.8179941">
<ele>1116.36</ele>
<time>2015-04-27T15:26:52Z</time>
</trkpt>
<trkpt lat="34.9680013" lon="32.8180653">
<ele>1116.56</ele>
<time>2015-04-27T15:26:53Z</time>
</trkpt>
<trkpt lat="34.9680383" lon="32.8181371">
<ele>1117.16</ele>
<time>2015-04-27T15:26:54Z</time>
</trkpt>
<trkpt lat="34.9680668" lon="32.8182048">
<ele>1117.46</ele>
<time>2015-04-27T15:26:55Z</time>
</trkpt>
<trkpt lat="34.9680853" lon="32.8182604">
<ele>1117.61</ele>
<time>2015-04-27T15:26:56Z</time>
</trkpt>
<trkpt lat="34.9681123" lon="32.8183173">
<ele>1117.69</ele>
<time>2015-04-27T15:26:57Z</time>
</trkpt>
<trkpt lat="34.9681321" lon="32.8183815">
<ele>1117.72</ele>
<time>2015-04-27T15:26:58Z</time>
</trkpt>
<trkpt lat="34.9681580" lon="32.8184437">
<ele>1118.24</ele>
<time>2015-04-27T15:26:59Z</time>
</trkpt>
<trkpt lat="34.9681841" lon="32.8185050">
<ele>1118.50</ele>
<time>2015-04-27T15:27:00Z</time>
</trkpt>
<trkpt lat="34.9682148" lon="32.8185880">
<ele>1119.20</ele>
<time>2015-04-27T15:27:02Z</time>
</trkpt>
<trkpt lat="34.9682355" lon="32.8186806">
<ele>1119.62</ele>
<time>2015-04-27T15:27:04Z</time>
</trkpt>
<trkpt lat="34.9682367" lon="32.8187355">
<ele>1119.19</ele>
<time>2015-04-27T15:27:05Z</time>
</trkpt>
<trkpt lat="34.9682481" lon="32.8188168">
<ele>1118.62</ele>
<time>2015-04-27T15:27:07Z</time>
</trkpt>
<trkpt lat="34.9682512" lon="32.8188874">
<ele>1116.99</ele>
<time>2015-04-27T15:27:10Z</time>
</trkpt>
<trkpt lat="34.9682319" lon="32.8189481">
<ele>1117.29</ele>
<time>2015-04-27T15:27:13Z</time>
</trkpt>
<trkpt lat="34.9682030" lon="32.8190173">
<ele>1118.20</ele>
<time>2015-04-27T15:27:16Z</time>
</trkpt>
<trkpt lat="34.9681670" lon="32.8190805">
<ele>1120.44</ele>
<time>2015-04-27T15:27:19Z</time>
</trkpt>
<trkpt lat="34.9681357" lon="32.8191486">
<ele>1121.09</ele>
<time>2015-04-27T15:27:22Z</time>
</trkpt>
<trkpt lat="34.9681046" lon="32.8191920">
<ele>1121.09</ele>
<time>2015-04-27T15:27:24Z</time>
</trkpt>
<trkpt lat="34.9680772" lon="32.8192383">
<ele>1122.59</ele>
<time>2015-04-27T15:27:26Z</time>
</trkpt>
<trkpt lat="34.9680469" lon="32.8193048">
<ele>1124.49</ele>
<time>2015-04-27T15:27:29Z</time>
</trkpt>
<trkpt lat="34.9680088" lon="32.8193590">
<ele>1125.48</ele>
<time>2015-04-27T15:27:32Z</time>
</trkpt>
<trkpt lat="34.9679896" lon="32.8194109">
<ele>1126.97</ele>
<time>2015-04-27T15:27:35Z</time>
</trkpt>
<trkpt lat="34.9679708" lon="32.8194797">
<ele>1128.21</ele>
<time>2015-04-27T15:27:39Z</time>
</trkpt>
<trkpt lat="34.9679472" lon="32.8195323">
<ele>1127.69</ele>
<time>2015-04-27T15:27:42Z</time>
</trkpt>
<trkpt lat="34.9679300" lon="32.8195940">
<ele>1128.13</ele>
<time>2015-04-27T15:27:45Z</time>
</trkpt>
<trkpt lat="34.9679051" lon="32.8196433">
<ele>1129.81</ele>
<time>2015-04-27T15:27:48Z</time>
</trkpt>
<trkpt lat="34.9678718" lon="32.8196964">
<ele>1129.02</ele>
<time>2015-04-27T15:27:51Z</time>
</trkpt>
<trkpt lat="34.9678403" lon="32.8197559">
<ele>1128.04</ele>
<time>2015-04-27T15:27:54Z</time>
</trkpt>
<trkpt lat="34.9678073" lon="32.8198082">
<ele>1127.80</ele>
<time>2015-04-27T15:27:57Z</time>
</trkpt>
<trkpt lat="34.9677737" lon="32.8198538">
<ele>1128.51</ele>
<time>2015-04-27T15:28:00Z</time>
</trkpt>
<trkpt lat="34.9677409" lon="32.8199002">
<ele>1128.73</ele>
<time>2015-04-27T15:28:03Z</time>
</trkpt>
<trkpt lat="34.9677080" lon="32.8199575">
<ele>1128.26</ele>
<time>2015-04-27T15:28:06Z</time>
</trkpt>
<trkpt lat="34.9676758" lon="32.8199988">
<ele>1128.45</ele>
<time>2015-04-27T15:28:09Z</time>
</trkpt>
<trkpt lat="34.9676260" lon="32.8200320">
<ele>1128.49</ele>
<time>2015-04-27T15:28:13Z</time>
</trkpt>
<trkpt lat="34.9675823" lon="32.8200680">
<ele>1128.31</ele>
<time>2015-04-27T15:28:17Z</time>
</trkpt>
<trkpt lat="34.9675424" lon="32.8201000">
<ele>1128.70</ele>
<time>2015-04-27T15:28:20Z</time>
</trkpt>
<trkpt lat="34.9674961" lon="32.8201175">
<ele>1128.25</ele>
<time>2015-04-27T15:28:23Z</time>
</trkpt>
<trkpt lat="34.9674397" lon="32.8201338">
<ele>1128.73</ele>
<time>2015-04-27T15:28:27Z</time>
</trkpt>
<trkpt lat="34.9673914" lon="32.8201615">
<ele>1128.82</ele>
<time>2015-04-27T15:28:31Z</time>
</trkpt>
<trkpt lat="34.9673354" lon="32.8201733">
<ele>1128.33</ele>
<time>2015-04-27T15:28:35Z</time>
</trkpt>
<trkpt lat="34.9672896" lon="32.8201695">
<ele>1129.46</ele>
<time>2015-04-27T15:28:38Z</time>
</trkpt>
<trkpt lat="34.9672394" lon="32.8201496">
<ele>1129.85</ele>
<time>2015-04-27T15:28:41Z</time>
</trkpt>
<trkpt lat="34.9671900" lon="32.8201239">
<ele>1129.27</ele>
<time>2015-04-27T15:28:44Z</time>
</trkpt>
<trkpt lat="34.9671475" lon="32.8200867">
<ele>1129.32</ele>
<time>2015-04-27T15:28:47Z</time>
</trkpt>
<trkpt lat="34.9671072" lon="32.8200468">
<ele>1128.33</ele>
<time>2015-04-27T15:28:50Z</time>
</trkpt>
<trkpt lat="34.9670701" lon="32.8199950">
<ele>1129.58</ele>
<time>2015-04-27T15:28:53Z</time>
</trkpt>
<trkpt lat="34.9670336" lon="32.8199495">
<ele>1128.24</ele>
<time>2015-04-27T15:28:56Z</time>
</trkpt>
<trkpt lat="34.9669951" lon="32.8198993">
<ele>1129.44</ele>
<time>2015-04-27T15:28:59Z</time>
</trkpt>
<trkpt lat="34.9669408" lon="32.8198584">
<ele>1127.60</ele>
<time>2015-04-27T15:29:02Z</time>
</trkpt>
<trkpt lat="34.9668954" lon="32.8198188">
<ele>1127.24</ele>
<time>2015-04-27T15:29:05Z</time>
</trkpt>
<trkpt lat="34.9668574" lon="32.8197815">
<ele>1127.07</ele>
<time>2015-04-27T15:29:08Z</time>
</trkpt>
<trkpt lat="34.9668195" lon="32.8197437">
<ele>1126.05</ele>
<time>2015-04-27T15:29:11Z</time>
</trkpt>
<trkpt lat="34.9667945" lon="32.8196909">
<ele>1126.30</ele>
<time>2015-04-27T15:29:14Z</time>
</trkpt>
<trkpt lat="34.9667594" lon="32.8196485">
<ele>1125.83</ele>
<time>2015-04-27T15:29:17Z</time>
</trkpt>
<trkpt lat="34.9667267" lon="32.8195957">
<ele>1127.02</ele>
<time>2015-04-27T15:29:20Z</time>
</trkpt>
<trkpt lat="34.9666843" lon="32.8195505">
<ele>1128.42</ele>
<time>2015-04-27T15:29:23Z</time>
</trkpt>
<trkpt lat="34.9666457" lon="32.8194937">
<ele>1129.84</ele>
<time>2015-04-27T15:29:26Z</time>
</trkpt>
<trkpt lat="34.9666003" lon="32.8194500">
<ele>1130.27</ele>
<time>2015-04-27T15:29:29Z</time>
</trkpt>
<trkpt lat="34.9665572" lon="32.8194032">
<ele>1131.20</ele>
<time>2015-04-27T15:29:32Z</time>
</trkpt>
<trkpt lat="34.9665147" lon="32.8193558">
<ele>1132.19</ele>
<time>2015-04-27T15:29:35Z</time>
</trkpt>
<trkpt lat="34.9664768" lon="32.8193107">
<ele>1132.69</ele>
<time>2015-04-27T15:29:38Z</time>
</trkpt>
<trkpt lat="34.9664395" lon="32.8192758">
<ele>1132.75</ele>
<time>2015-04-27T15:29:41Z</time>
</trkpt>
<trkpt lat="34.9663930" lon="32.8192602">
<ele>1132.76</ele>
<time>2015-04-27T15:29:44Z</time>
</trkpt>
<trkpt lat="34.9663385" lon="32.8192648">
<ele>1132.76</ele>
<time>2015-04-27T15:29:47Z</time>
</trkpt>
<trkpt lat="34.9662735" lon="32.8192830">
<ele>1133.01</ele>
<time>2015-04-27T15:29:50Z</time>
</trkpt>
<trkpt lat="34.9662323" lon="32.8193161">
<ele>1133.57</ele>
<time>2015-04-27T15:29:52Z</time>
</trkpt>
<trkpt lat="34.9661993" lon="32.8193662">
<ele>1133.71</ele>
<time>2015-04-27T15:29:54Z</time>
</trkpt>
<trkpt lat="34.9661813" lon="32.8194225">
<ele>1134.00</ele>
<time>2015-04-27T15:29:56Z</time>
</trkpt>
<trkpt lat="34.9661726" lon="32.8194800">
<ele>1134.07</ele>
<time>2015-04-27T15:29:58Z</time>
</trkpt>
<trkpt lat="34.9661664" lon="32.8195371">
<ele>1134.09</ele>
<time>2015-04-27T15:30:00Z</time>
</trkpt>
<trkpt lat="34.9661628" lon="32.8195948">
<ele>1134.34</ele>
<time>2015-04-27T15:30:02Z</time>
</trkpt>
<trkpt lat="34.9661540" lon="32.8196518">
<ele>1135.91</ele>
<time>2015-04-27T15:30:04Z</time>
</trkpt>
<trkpt lat="34.9661320" lon="32.8197081">
<ele>1137.05</ele>
<time>2015-04-27T15:30:06Z</time>
</trkpt>
<trkpt lat="34.9661035" lon="32.8197627">
<ele>1138.33</ele>
<time>2015-04-27T15:30:08Z</time>
</trkpt>
<trkpt lat="34.9660712" lon="32.8198306">
<ele>1139.15</ele>
<time>2015-04-27T15:30:10Z</time>
</trkpt>
<trkpt lat="34.9660357" lon="32.8199019">
<ele>1139.36</ele>
<time>2015-04-27T15:30:12Z</time>
</trkpt>
<trkpt lat="34.9660006" lon="32.8199732">
<ele>1137.91</ele>
<time>2015-04-27T15:30:14Z</time>
</trkpt>
<trkpt lat="34.9659715" lon="32.8200450">
<ele>1138.30</ele>
<time>2015-04-27T15:30:16Z</time>
</trkpt>
<trkpt lat="34.9659446" lon="32.8201101">
<ele>1138.89</ele>
<time>2015-04-27T15:30:18Z</time>
</trkpt>
<trkpt lat="34.9659184" lon="32.8201720">
<ele>1139.54</ele>
<time>2015-04-27T15:30:20Z</time>
</trkpt>
<trkpt lat="34.9659064" lon="32.8202319">
<ele>1141.21</ele>
<time>2015-04-27T15:30:22Z</time>
</trkpt>
<trkpt lat="34.9658979" lon="32.8202902">
<ele>1141.87</ele>
<time>2015-04-27T15:30:24Z</time>
</trkpt>
<trkpt lat="34.9658948" lon="32.8203521">
<ele>1141.79</ele>
<time>2015-04-27T15:30:26Z</time>
</trkpt>
<trkpt lat="34.9659177" lon="32.8204021">
<ele>1141.02</ele>
<time>2015-04-27T15:30:28Z</time>
</trkpt>
<trkpt lat="34.9659377" lon="32.8204528">
<ele>1140.32</ele>
<time>2015-04-27T15:30:30Z</time>
</trkpt>
<trkpt lat="34.9659661" lon="32.8205009">
<ele>1140.40</ele>
<time>2015-04-27T15:30:32Z</time>
</trkpt>
<trkpt lat="34.9659884" lon="32.8205520">
<ele>1140.67</ele>
<time>2015-04-27T15:30:34Z</time>
</trkpt>
<trkpt lat="34.9659996" lon="32.8206075">
<ele>1140.24</ele>
<time>2015-04-27T15:30:36Z</time>
</trkpt>
<trkpt lat="34.9660124" lon="32.8206889">
<ele>1139.07</ele>
<time>2015-04-27T15:30:39Z</time>
</trkpt>
<trkpt lat="34.9660093" lon="32.8207716">
<ele>1138.05</ele>
<time>2015-04-27T15:30:42Z</time>
</trkpt>
<trkpt lat="34.9660132" lon="32.8208281">
<ele>1137.83</ele>
<time>2015-04-27T15:30:44Z</time>
</trkpt>
<trkpt lat="34.9660190" lon="32.8208898">
<ele>1137.78</ele>
<time>2015-04-27T15:30:46Z</time>
</trkpt>
<trkpt lat="34.9660124" lon="32.8209503">
<ele>1136.51</ele>
<time>2015-04-27T15:30:48Z</time>
</trkpt>
<trkpt lat="34.9659996" lon="32.8210130">
<ele>1135.95</ele>
<time>2015-04-27T15:30:50Z</time>
</trkpt>
<trkpt lat="34.9659896" lon="32.8210783">
<ele>1136.31</ele>
<time>2015-04-27T15:30:52Z</time>
</trkpt>
<trkpt lat="34.9659834" lon="32.8211395">
<ele>1136.65</ele>
<time>2015-04-27T15:30:54Z</time>
</trkpt>
<trkpt lat="34.9659879" lon="32.8212013">
<ele>1135.98</ele>
<time>2015-04-27T15:30:56Z</time>
</trkpt>
<trkpt lat="34.9659998" lon="32.8212609">
<ele>1134.57</ele>
<time>2015-04-27T15:30:58Z</time>
</trkpt>
<trkpt lat="34.9660135" lon="32.8213198">
<ele>1133.96</ele>
<time>2015-04-27T15:31:00Z</time>
</trkpt>
<trkpt lat="34.9660294" lon="32.8213784">
<ele>1134.31</ele>
<time>2015-04-27T15:31:02Z</time>
</trkpt>
<trkpt lat="34.9660494" lon="32.8214362">
<ele>1135.40</ele>
<time>2015-04-27T15:31:04Z</time>
</trkpt>
<trkpt lat="34.9660679" lon="32.8214941">
<ele>1134.92</ele>
<time>2015-04-27T15:31:06Z</time>
</trkpt>
<trkpt lat="34.9660915" lon="32.8215521">
<ele>1135.55</ele>
<time>2015-04-27T15:31:08Z</time>
</trkpt>
<trkpt lat="34.9661112" lon="32.8216220">
<ele>1135.21</ele>
<time>2015-04-27T15:31:10Z</time>
</trkpt>
<trkpt lat="34.9661217" lon="32.8217034">
<ele>1134.37</ele>
<time>2015-04-27T15:31:12Z</time>
</trkpt>
<trkpt lat="34.9661184" lon="32.8218781">
<ele>1133.91</ele>
<time>2015-04-27T15:31:14Z</time>
</trkpt>
<trkpt lat="34.9661211" lon="32.8219581">
<ele>1133.84</ele>
<time>2015-04-27T15:31:15Z</time>
</trkpt>
<trkpt lat="34.9661253" lon="32.8220234">
<ele>1133.80</ele>
<time>2015-04-27T15:31:16Z</time>
</trkpt>
<trkpt lat="34.9661444" lon="32.8220946">
<ele>1134.28</ele>
<time>2015-04-27T15:31:17Z</time>
</trkpt>
<trkpt lat="34.9661764" lon="32.8221636">
<ele>1134.52</ele>
<time>2015-04-27T15:31:18Z</time>
</trkpt>
<trkpt lat="34.9662187" lon="32.8222064">
<ele>1134.64</ele>
<time>2015-04-27T15:31:19Z</time>
</trkpt>
<trkpt lat="34.9662674" lon="32.8222405">
<ele>1134.70</ele>
<time>2015-04-27T15:31:20Z</time>
</trkpt>
<trkpt lat="34.9663264" lon="32.8222331">
<ele>1135.23</ele>
<time>2015-04-27T15:31:21Z</time>
</trkpt>
<trkpt lat="34.9663830" lon="32.8222406">
<ele>1135.99</ele>
<time>2015-04-27T15:31:22Z</time>
</trkpt>
<trkpt lat="34.9664365" lon="32.8222445">
<ele>1136.38</ele>
<time>2015-04-27T15:31:23Z</time>
</trkpt>
<trkpt lat="34.9664924" lon="32.8222688">
<ele>1136.57</ele>
<time>2015-04-27T15:31:24Z</time>
</trkpt>
<trkpt lat="34.9665772" lon="32.8223245">
<ele>1136.71</ele>
<time>2015-04-27T15:31:26Z</time>
</trkpt>
<trkpt lat="34.9666142" lon="32.8223647">
<ele>1137.24</ele>
<time>2015-04-27T15:31:27Z</time>
</trkpt>
<trkpt lat="34.9666683" lon="32.8223985">
<ele>1137.50</ele>
<time>2015-04-27T15:31:28Z</time>
</trkpt>
<trkpt lat="34.9667119" lon="32.8224376">
<ele>1137.13</ele>
<time>2015-04-27T15:31:29Z</time>
</trkpt>
<trkpt lat="34.9667682" lon="32.8224704">
<ele>1137.94</ele>
<time>2015-04-27T15:31:30Z</time>
</trkpt>
<trkpt lat="34.9668147" lon="32.8225054">
<ele>1138.85</ele>
<time>2015-04-27T15:31:31Z</time>
</trkpt>
<trkpt lat="34.9668652" lon="32.8225256">
<ele>1139.31</ele>
<time>2015-04-27T15:31:32Z</time>
</trkpt>
<trkpt lat="34.9669481" lon="32.8225591">
<ele>1140.15</ele>
<time>2015-04-27T15:31:34Z</time>
</trkpt>
<trkpt lat="34.9670209" lon="32.8225702">
<ele>1140.61</ele>
<time>2015-04-27T15:31:36Z</time>
</trkpt>
<trkpt lat="34.9670947" lon="32.8225591">
<ele>1139.72</ele>
<time>2015-04-27T15:31:38Z</time>
</trkpt>
<trkpt lat="34.9671422" lon="32.8225495">
<ele>1139.00</ele>
<time>2015-04-27T15:31:40Z</time>
</trkpt>
<trkpt lat="34.9671883" lon="32.8225420">
<ele>1138.82</ele>
<time>2015-04-27T15:31:42Z</time>
</trkpt>
<trkpt lat="34.9672411" lon="32.8225285">
<ele>1138.03</ele>
<time>2015-04-27T15:31:44Z</time>
</trkpt>
<trkpt lat="34.9673003" lon="32.8225095">
<ele>1137.83</ele>
<time>2015-04-27T15:31:46Z</time>
</trkpt>
<trkpt lat="34.9673598" lon="32.8224913">
<ele>1137.03</ele>
<time>2015-04-27T15:31:48Z</time>
</trkpt>
<trkpt lat="34.9674164" lon="32.8224730">
<ele>1137.58</ele>
<time>2015-04-27T15:31:50Z</time>
</trkpt>
<trkpt lat="34.9674650" lon="32.8224674">
<ele>1136.96</ele>
<time>2015-04-27T15:31:52Z</time>
</trkpt>
<trkpt lat="34.9675124" lon="32.8224752">
<ele>1136.79</ele>
<time>2015-04-27T15:31:55Z</time>
</trkpt>
<trkpt lat="34.9675662" lon="32.8224909">
<ele>1138.89</ele>
<time>2015-04-27T15:32:00Z</time>
</trkpt>
<trkpt lat="34.9676158" lon="32.8225167">
<ele>1139.14</ele>
<time>2015-04-27T15:32:04Z</time>
</trkpt>
<trkpt lat="34.9676603" lon="32.8225390">
<ele>1139.56</ele>
<time>2015-04-27T15:32:07Z</time>
</trkpt>
<trkpt lat="34.9677136" lon="32.8225594">
<ele>1142.00</ele>
<time>2015-04-27T15:32:11Z</time>
</trkpt>
<trkpt lat="34.9677678" lon="32.8225674">
<ele>1141.02</ele>
<time>2015-04-27T15:32:15Z</time>
</trkpt>
<trkpt lat="34.9678141" lon="32.8225738">
<ele>1141.42</ele>
<time>2015-04-27T15:32:18Z</time>
</trkpt>
<trkpt lat="34.9678633" lon="32.8225820">
<ele>1142.97</ele>
<time>2015-04-27T15:32:21Z</time>
</trkpt>
<trkpt lat="34.9679114" lon="32.8225873">
<ele>1144.54</ele>
<time>2015-04-27T15:32:24Z</time>
</trkpt>
<trkpt lat="34.9679630" lon="32.8225925">
<ele>1145.61</ele>
<time>2015-04-27T15:32:27Z</time>
</trkpt>
<trkpt lat="34.9680117" lon="32.8226122">
<ele>1145.75</ele>
<time>2015-04-27T15:32:31Z</time>
</trkpt>
<trkpt lat="34.9680578" lon="32.8226482">
<ele>1142.01</ele>
<time>2015-04-27T15:32:36Z</time>
</trkpt>
<trkpt lat="34.9681010" lon="32.8226707">
<ele>1143.92</ele>
<time>2015-04-27T15:32:39Z</time>
</trkpt>
<trkpt lat="34.9681270" lon="32.8227206">
<ele>1145.15</ele>
<time>2015-04-27T15:32:42Z</time>
</trkpt>
<trkpt lat="34.9681428" lon="32.8227822">
<ele>1146.31</ele>
<time>2015-04-27T15:32:45Z</time>
</trkpt>
<trkpt lat="34.9681522" lon="32.8228467">
<ele>1147.58</ele>
<time>2015-04-27T15:32:48Z</time>
</trkpt>
<trkpt lat="34.9681509" lon="32.8229120">
<ele>1148.11</ele>
<time>2015-04-27T15:32:51Z</time>
</trkpt>
<trkpt lat="34.9681561" lon="32.8229766">
<ele>1148.30</ele>
<time>2015-04-27T15:32:54Z</time>
</trkpt>
<trkpt lat="34.9681549" lon="32.8230331">
<ele>1148.58</ele>
<time>2015-04-27T15:32:57Z</time>
</trkpt>
<trkpt lat="34.9681547" lon="32.8230889">
<ele>1149.61</ele>
<time>2015-04-27T15:33:00Z</time>
</trkpt>
<trkpt lat="34.9681632" lon="32.8231457">
<ele>1147.87</ele>
<time>2015-04-27T15:33:03Z</time>
</trkpt>
<trkpt lat="34.9681889" lon="32.8231963">
<ele>1148.52</ele>
<time>2015-04-27T15:33:06Z</time>
</trkpt>
<trkpt lat="34.9682092" lon="32.8232612">
<ele>1150.06</ele>
<time>2015-04-27T15:33:10Z</time>
</trkpt>
<trkpt lat="34.9682441" lon="32.8233015">
<ele>1148.30</ele>
<time>2015-04-27T15:33:13Z</time>
</trkpt>
<trkpt lat="34.9682792" lon="32.8233520">
<ele>1148.29</ele>
<time>2015-04-27T15:33:17Z</time>
</trkpt>
<trkpt lat="34.9683050" lon="32.8234109">
<ele>1149.92</ele>
<time>2015-04-27T15:33:21Z</time>
</trkpt>
<trkpt lat="34.9683261" lon="32.8234618">
<ele>1150.40</ele>
<time>2015-04-27T15:33:24Z</time>
</trkpt>
<trkpt lat="34.9683466" lon="32.8235168">
<ele>1150.97</ele>
<time>2015-04-27T15:33:27Z</time>
</trkpt>
<trkpt lat="34.9683601" lon="32.8235775">
<ele>1151.04</ele>
<time>2015-04-27T15:33:30Z</time>
</trkpt>
<trkpt lat="34.9683661" lon="32.8236326">
<ele>1151.54</ele>
<time>2015-04-27T15:33:33Z</time>
</trkpt>
<trkpt lat="34.9683746" lon="32.8236976">
<ele>1151.31</ele>
<time>2015-04-27T15:33:37Z</time>
</trkpt>
<trkpt lat="34.9683670" lon="32.8237632">
<ele>1150.86</ele>
<time>2015-04-27T15:33:41Z</time>
</trkpt>
<trkpt lat="34.9683837" lon="32.8238171">
<ele>1152.52</ele>
<time>2015-04-27T15:33:45Z</time>
</trkpt>
<trkpt lat="34.9684142" lon="32.8238764">
<ele>1153.24</ele>
<time>2015-04-27T15:33:49Z</time>
</trkpt>
<trkpt lat="34.9684393" lon="32.8239335">
<ele>1156.10</ele>
<time>2015-04-27T15:33:53Z</time>
</trkpt>
<trkpt lat="34.9684721" lon="32.8239748">
<ele>1155.97</ele>
<time>2015-04-27T15:33:57Z</time>
</trkpt>
<trkpt lat="34.9685015" lon="32.8240342">
<ele>1154.83</ele>
<time>2015-04-27T15:34:02Z</time>
</trkpt>
<trkpt lat="34.9685465" lon="32.8240642">
<ele>1156.67</ele>
<time>2015-04-27T15:34:07Z</time>
</trkpt>
<trkpt lat="34.9685996" lon="32.8240979">
<ele>1156.38</ele>
<time>2015-04-27T15:34:11Z</time>
</trkpt>
<trkpt lat="34.9686555" lon="32.8241193">
<ele>1156.86</ele>
<time>2015-04-27T15:34:15Z</time>
</trkpt>
<trkpt lat="34.9687036" lon="32.8241224">
<ele>1157.27</ele>
<time>2015-04-27T15:34:18Z</time>
</trkpt>
<trkpt lat="34.9687526" lon="32.8241234">
<ele>1158.20</ele>
<time>2015-04-27T15:34:21Z</time>
</trkpt>
<trkpt lat="34.9687990" lon="32.8241301">
<ele>1158.06</ele>
<time>2015-04-27T15:34:24Z</time>
</trkpt>
<trkpt lat="34.9688530" lon="32.8241317">
<ele>1159.17</ele>
<time>2015-04-27T15:34:27Z</time>
</trkpt>
<trkpt lat="34.9689042" lon="32.8241310">
<ele>1159.69</ele>
<time>2015-04-27T15:34:30Z</time>
</trkpt>
<trkpt lat="34.9689554" lon="32.8241325">
<ele>1160.63</ele>
<time>2015-04-27T15:34:33Z</time>
</trkpt>
<trkpt lat="34.9689996" lon="32.8241453">
<ele>1161.49</ele>
<time>2015-04-27T15:34:36Z</time>
</trkpt>
<trkpt lat="34.9690531" lon="32.8241502">
<ele>1160.49</ele>
<time>2015-04-27T15:34:40Z</time>
</trkpt>
<trkpt lat="34.9691109" lon="32.8241479">
<ele>1159.49</ele>
<time>2015-04-27T15:34:44Z</time>
</trkpt>
<trkpt lat="34.9691587" lon="32.8241506">
<ele>1159.23</ele>
<time>2015-04-27T15:34:47Z</time>
</trkpt>
<trkpt lat="34.9692058" lon="32.8241631">
<ele>1158.82</ele>
<time>2015-04-27T15:34:50Z</time>
</trkpt>
<trkpt lat="34.9692554" lon="32.8241671">
<ele>1160.14</ele>
<time>2015-04-27T15:34:53Z</time>
</trkpt>
<trkpt lat="34.9693036" lon="32.8241547">
<ele>1160.68</ele>
<time>2015-04-27T15:34:56Z</time>
</trkpt>
<trkpt lat="34.9693640" lon="32.8241449">
<ele>1163.00</ele>
<time>2015-04-27T15:34:59Z</time>
</trkpt>
<trkpt lat="34.9694230" lon="32.8241556">
<ele>1162.79</ele>
<time>2015-04-27T15:35:02Z</time>
</trkpt>
<trkpt lat="34.9694779" lon="32.8241739">
<ele>1162.76</ele>
<time>2015-04-27T15:35:05Z</time>
</trkpt>
<trkpt lat="34.9695254" lon="32.8242046">
<ele>1162.89</ele>
<time>2015-04-27T15:35:08Z</time>
</trkpt>
<trkpt lat="34.9695575" lon="32.8242567">
<ele>1161.40</ele>
<time>2015-04-27T15:35:11Z</time>
</trkpt>
<trkpt lat="34.9695783" lon="32.8243145">
<ele>1161.34</ele>
<time>2015-04-27T15:35:14Z</time>
</trkpt>
<trkpt lat="34.9695822" lon="32.8243723">
<ele>1162.58</ele>
<time>2015-04-27T15:35:17Z</time>
</trkpt>
<trkpt lat="34.9695581" lon="32.8244223">
<ele>1163.49</ele>
<time>2015-04-27T15:35:20Z</time>
</trkpt>
<trkpt lat="34.9695512" lon="32.8244779">
<ele>1159.01</ele>
<time>2015-04-27T15:36:01Z</time>
</trkpt>
<trkpt lat="34.9695296" lon="32.8245291">
<ele>1161.01</ele>
<time>2015-04-27T15:36:40Z</time>
</trkpt>
<trkpt lat="34.9695721" lon="32.8244958">
<ele>1163.76</ele>
<time>2015-04-27T15:37:33Z</time>
</trkpt>
<trkpt lat="34.9696193" lon="32.8244673">
<ele>1163.76</ele>
<time>2015-04-27T15:37:38Z</time>
</trkpt>
<trkpt lat="34.9696632" lon="32.8244540">
<ele>1163.76</ele>
<time>2015-04-27T15:37:50Z</time>
</trkpt>
<trkpt lat="34.9696180" lon="32.8244619">
<ele>1162.00</ele>
<time>2015-04-27T15:38:48Z</time>
</trkpt>
<trkpt lat="34.9695743" lon="32.8244915">
<ele>1160.84</ele>
<time>2015-04-27T15:38:52Z</time>
</trkpt>
<trkpt lat="34.9695334" lon="32.8245241">
<ele>1158.95</ele>
<time>2015-04-27T15:38:56Z</time>
</trkpt>
<trkpt lat="34.9694896" lon="32.8245527">
<ele>1166.22</ele>
<time>2015-04-27T15:39:13Z</time>
</trkpt>
<trkpt lat="34.9694513" lon="32.8245921">
<ele>1164.16</ele>
<time>2015-04-27T15:39:17Z</time>
</trkpt>
<trkpt lat="34.9694104" lon="32.8246332">
<ele>1164.76</ele>
<time>2015-04-27T15:39:39Z</time>
</trkpt>
<trkpt lat="34.9693637" lon="32.8246725">
<ele>1164.26</ele>
<time>2015-04-27T15:39:43Z</time>
</trkpt>
<trkpt lat="34.9693155" lon="32.8247121">
<ele>1164.70</ele>
<time>2015-04-27T15:39:46Z</time>
</trkpt>
<trkpt lat="34.9692789" lon="32.8247467">
<ele>1164.74</ele>
<time>2015-04-27T15:39:48Z</time>
</trkpt>
<trkpt lat="34.9692448" lon="32.8247838">
<ele>1164.76</ele>
<time>2015-04-27T15:39:50Z</time>
</trkpt>
<trkpt lat="34.9692011" lon="32.8248394">
<ele>1165.63</ele>
<time>2015-04-27T15:39:53Z</time>
</trkpt>
<trkpt lat="34.9691599" lon="32.8248894">
<ele>1165.74</ele>
<time>2015-04-27T15:39:56Z</time>
</trkpt>
<trkpt lat="34.9691136" lon="32.8249510">
<ele>1166.63</ele>
<time>2015-04-27T15:39:59Z</time>
</trkpt>
<trkpt lat="34.9690771" lon="32.8249947">
<ele>1167.48</ele>
<time>2015-04-27T15:40:01Z</time>
</trkpt>
<trkpt lat="34.9690440" lon="32.8250401">
<ele>1167.69</ele>
<time>2015-04-27T15:40:03Z</time>
</trkpt>
<trkpt lat="34.9690036" lon="32.8251021">
<ele>1167.50</ele>
<time>2015-04-27T15:40:06Z</time>
</trkpt>
<trkpt lat="34.9689705" lon="32.8251412">
<ele>1167.70</ele>
<time>2015-04-27T15:40:08Z</time>
</trkpt>
<trkpt lat="34.9689356" lon="32.8251852">
<ele>1167.74</ele>
<time>2015-04-27T15:40:10Z</time>
</trkpt>
<trkpt lat="34.9688966" lon="32.8252223">
<ele>1167.76</ele>
<time>2015-04-27T15:40:12Z</time>
</trkpt>
<trkpt lat="34.9688600" lon="32.8252634">
<ele>1167.01</ele>
<time>2015-04-27T15:40:14Z</time>
</trkpt>
<trkpt lat="34.9688291" lon="32.8253109">
<ele>1167.32</ele>
<time>2015-04-27T15:40:16Z</time>
</trkpt>
<trkpt lat="34.9687985" lon="32.8253559">
<ele>1167.65</ele>
<time>2015-04-27T15:40:18Z</time>
</trkpt>
<trkpt lat="34.9687657" lon="32.8253958">
<ele>1167.73</ele>
<time>2015-04-27T15:40:20Z</time>
</trkpt>
<trkpt lat="34.9687162" lon="32.8254497">
<ele>1168.63</ele>
<time>2015-04-27T15:40:23Z</time>
</trkpt>
<trkpt lat="34.9686802" lon="32.8254844">
<ele>1169.48</ele>
<time>2015-04-27T15:40:25Z</time>
</trkpt>
<trkpt lat="34.9686400" lon="32.8255181">
<ele>1168.94</ele>
<time>2015-04-27T15:40:27Z</time>
</trkpt>
<trkpt lat="34.9686003" lon="32.8255465">
<ele>1169.55</ele>
<time>2015-04-27T15:40:29Z</time>
</trkpt>
<trkpt lat="34.9685376" lon="32.8255641">
<ele>1169.73</ele>
<time>2015-04-27T15:40:32Z</time>
</trkpt>
<trkpt lat="34.9684891" lon="32.8255749">
<ele>1169.25</ele>
<time>2015-04-27T15:40:34Z</time>
</trkpt>
<trkpt lat="34.9684357" lon="32.8255844">
<ele>1168.88</ele>
<time>2015-04-27T15:40:36Z</time>
</trkpt>
<trkpt lat="34.9683730" lon="32.8255908">
<ele>1168.29</ele>
<time>2015-04-27T15:40:38Z</time>
</trkpt>
<trkpt lat="34.9683200" lon="32.8255960">
<ele>1168.39</ele>
<time>2015-04-27T15:40:40Z</time>
</trkpt>
<trkpt lat="34.9682720" lon="32.8256098">
<ele>1167.92</ele>
<time>2015-04-27T15:40:42Z</time>
</trkpt>
<trkpt lat="34.9682197" lon="32.8256212">
<ele>1167.30</ele>
<time>2015-04-27T15:40:44Z</time>
</trkpt>
<trkpt lat="34.9681633" lon="32.8256283">
<ele>1167.39</ele>
<time>2015-04-27T15:40:46Z</time>
</trkpt>
<trkpt lat="34.9681048" lon="32.8256417">
<ele>1167.17</ele>
<time>2015-04-27T15:40:48Z</time>
</trkpt>
<trkpt lat="34.9680480" lon="32.8256578">
<ele>1166.11</ele>
<time>2015-04-27T15:40:50Z</time>
</trkpt>
<trkpt lat="34.9679979" lon="32.8256772">
<ele>1166.60</ele>
<time>2015-04-27T15:40:52Z</time>
</trkpt>
<trkpt lat="34.9679420" lon="32.8257107">
<ele>1167.61</ele>
<time>2015-04-27T15:40:55Z</time>
</trkpt>
<trkpt lat="34.9678886" lon="32.8257503">
<ele>1166.37</ele>
<time>2015-04-27T15:40:58Z</time>
</trkpt>
<trkpt lat="34.9678472" lon="32.8257771">
<ele>1167.41</ele>
<time>2015-04-27T15:41:00Z</time>
</trkpt>
<trkpt lat="34.9678049" lon="32.8258066">
<ele>1167.17</ele>
<time>2015-04-27T15:41:02Z</time>
</trkpt>
<trkpt lat="34.9677542" lon="32.8258465">
<ele>1169.06</ele>
<time>2015-04-27T15:41:05Z</time>
</trkpt>
<trkpt lat="34.9677096" lon="32.8258710">
<ele>1168.59</ele>
<time>2015-04-27T15:41:07Z</time>
</trkpt>
<trkpt lat="34.9676632" lon="32.8259001">
<ele>1168.72</ele>
<time>2015-04-27T15:41:09Z</time>
</trkpt>
<trkpt lat="34.9676130" lon="32.8259242">
<ele>1169.25</ele>
<time>2015-04-27T15:41:11Z</time>
</trkpt>
<trkpt lat="34.9675665" lon="32.8259497">
<ele>1169.63</ele>
<time>2015-04-27T15:41:13Z</time>
</trkpt>
<trkpt lat="34.9675177" lon="32.8259761">
<ele>1169.23</ele>
<time>2015-04-27T15:41:15Z</time>
</trkpt>
<trkpt lat="34.9674690" lon="32.8260084">
<ele>1168.38</ele>
<time>2015-04-27T15:41:17Z</time>
</trkpt>
<trkpt lat="34.9674103" lon="32.8260565">
<ele>1167.41</ele>
<time>2015-04-27T15:41:19Z</time>
</trkpt>
<trkpt lat="34.9673543" lon="32.8260966">
<ele>1167.42</ele>
<time>2015-04-27T15:41:21Z</time>
</trkpt>
<trkpt lat="34.9672990" lon="32.8261397">
<ele>1167.43</ele>
<time>2015-04-27T15:41:23Z</time>
</trkpt>
<trkpt lat="34.9672457" lon="32.8261818">
<ele>1166.68</ele>
<time>2015-04-27T15:41:25Z</time>
</trkpt>
<trkpt lat="34.9671882" lon="32.8262223">
<ele>1165.99</ele>
<time>2015-04-27T15:41:27Z</time>
</trkpt>
<trkpt lat="34.9671271" lon="32.8262654">
<ele>1166.57</ele>
<time>2015-04-27T15:41:29Z</time>
</trkpt>
<trkpt lat="34.9670740" lon="32.8263018">
<ele>1166.21</ele>
<time>2015-04-27T15:41:31Z</time>
</trkpt>
<trkpt lat="34.9670136" lon="32.8263415">
<ele>1164.37</ele>
<time>2015-04-27T15:41:33Z</time>
</trkpt>
<trkpt lat="34.9669634" lon="32.8263851">
<ele>1165.16</ele>
<time>2015-04-27T15:41:35Z</time>
</trkpt>
<trkpt lat="34.9669142" lon="32.8264279">
<ele>1166.11</ele>
<time>2015-04-27T15:41:37Z</time>
</trkpt>
<trkpt lat="34.9668648" lon="32.8264665">
<ele>1166.10</ele>
<time>2015-04-27T15:41:39Z</time>
</trkpt>
<trkpt lat="34.9668218" lon="32.8264995">
<ele>1166.09</ele>
<time>2015-04-27T15:41:41Z</time>
</trkpt>
<trkpt lat="34.9667808" lon="32.8265278">
<ele>1165.84</ele>
<time>2015-04-27T15:41:43Z</time>
</trkpt>
<trkpt lat="34.9667425" lon="32.8265630">
<ele>1165.78</ele>
<time>2015-04-27T15:41:45Z</time>
</trkpt>
<trkpt lat="34.9667094" lon="32.8266027">
<ele>1165.77</ele>
<time>2015-04-27T15:41:47Z</time>
</trkpt>
<trkpt lat="34.9666648" lon="32.8266476">
<ele>1165.51</ele>
<time>2015-04-27T15:41:50Z</time>
</trkpt>
<trkpt lat="34.9666189" lon="32.8266870">
<ele>1166.13</ele>
<time>2015-04-27T15:41:55Z</time>
</trkpt>
<trkpt lat="34.9665787" lon="32.8267294">
<ele>1167.18</ele>
<time>2015-04-27T15:41:58Z</time>
</trkpt>
<trkpt lat="34.9665429" lon="32.8267681">
<ele>1168.37</ele>
<time>2015-04-27T15:42:00Z</time>
</trkpt>
<trkpt lat="34.9665022" lon="32.8268062">
<ele>1168.66</ele>
<time>2015-04-27T15:42:02Z</time>
</trkpt>
<trkpt lat="34.9664540" lon="32.8268545">
<ele>1169.25</ele>
<time>2015-04-27T15:42:05Z</time>
</trkpt>
<trkpt lat="34.9664130" lon="32.8268821">
<ele>1169.70</ele>
<time>2015-04-27T15:42:08Z</time>
</trkpt>
<trkpt lat="34.9663815" lon="32.8269291">
<ele>1170.63</ele>
<time>2015-04-27T15:42:11Z</time>
</trkpt>
<trkpt lat="34.9663488" lon="32.8269696">
<ele>1170.73</ele>
<time>2015-04-27T15:42:13Z</time>
</trkpt>
<trkpt lat="34.9662974" lon="32.8270186">
<ele>1170.51</ele>
<time>2015-04-27T15:42:16Z</time>
</trkpt>
<trkpt lat="34.9662438" lon="32.8270683">
<ele>1168.98</ele>
<time>2015-04-27T15:42:19Z</time>
</trkpt>
<trkpt lat="34.9661924" lon="32.8271128">
<ele>1168.81</ele>
<time>2015-04-27T15:42:21Z</time>
</trkpt>
<trkpt lat="34.9661296" lon="32.8271634">
<ele>1169.52</ele>
<time>2015-04-27T15:42:23Z</time>
</trkpt>
<trkpt lat="34.9660668" lon="32.8272174">
<ele>1168.95</ele>
<time>2015-04-27T15:42:25Z</time>
</trkpt>
<trkpt lat="34.9660082" lon="32.8272721">
<ele>1168.31</ele>
<time>2015-04-27T15:42:27Z</time>
</trkpt>
<trkpt lat="34.9659483" lon="32.8273190">
<ele>1167.90</ele>
<time>2015-04-27T15:42:29Z</time>
</trkpt>
<trkpt lat="34.9658911" lon="32.8273606">
<ele>1168.54</ele>
<time>2015-04-27T15:42:31Z</time>
</trkpt>
<trkpt lat="34.9658414" lon="32.8273992">
<ele>1169.21</ele>
<time>2015-04-27T15:42:33Z</time>
</trkpt>
<trkpt lat="34.9657970" lon="32.8274206">
<ele>1169.62</ele>
<time>2015-04-27T15:42:35Z</time>
</trkpt>
<trkpt lat="34.9657480" lon="32.8274521">
<ele>1170.23</ele>
<time>2015-04-27T15:42:37Z</time>
</trkpt>
<trkpt lat="34.9656954" lon="32.8274860">
<ele>1170.13</ele>
<time>2015-04-27T15:42:39Z</time>
</trkpt>
<trkpt lat="34.9656442" lon="32.8275157">
<ele>1171.10</ele>
<time>2015-04-27T15:42:41Z</time>
</trkpt>
<trkpt lat="34.9655981" lon="32.8275490">
<ele>1172.60</ele>
<time>2015-04-27T15:42:43Z</time>
</trkpt>
<trkpt lat="34.9655518" lon="32.8275900">
<ele>1172.72</ele>
<time>2015-04-27T15:42:45Z</time>
</trkpt>
<trkpt lat="34.9655063" lon="32.8276399">
<ele>1173.25</ele>
<time>2015-04-27T15:42:47Z</time>
</trkpt>
<trkpt lat="34.9654663" lon="32.8276950">
<ele>1173.13</ele>
<time>2015-04-27T15:42:49Z</time>
</trkpt>
<trkpt lat="34.9654231" lon="32.8277372">
<ele>1172.85</ele>
<time>2015-04-27T15:42:51Z</time>
</trkpt>
<trkpt lat="34.9653745" lon="32.8277760">
<ele>1172.03</ele>
<time>2015-04-27T15:42:53Z</time>
</trkpt>
<trkpt lat="34.9653231" lon="32.8278091">
<ele>1171.08</ele>
<time>2015-04-27T15:42:55Z</time>
</trkpt>
<trkpt lat="34.9652733" lon="32.8278395">
<ele>1170.84</ele>
<time>2015-04-27T15:42:57Z</time>
</trkpt>
<trkpt lat="34.9652250" lon="32.8278668">
<ele>1170.03</ele>
<time>2015-04-27T15:42:59Z</time>
</trkpt>
<trkpt lat="34.9651778" lon="32.8278986">
<ele>1169.83</ele>
<time>2015-04-27T15:43:01Z</time>
</trkpt>
<trkpt lat="34.9651319" lon="32.8279264">
<ele>1170.78</ele>
<time>2015-04-27T15:43:03Z</time>
</trkpt>
<trkpt lat="34.9650893" lon="32.8279527">
<ele>1170.76</ele>
<time>2015-04-27T15:43:05Z</time>
</trkpt>
<trkpt lat="34.9650476" lon="32.8279782">
<ele>1170.76</ele>
<time>2015-04-27T15:43:07Z</time>
</trkpt>
<trkpt lat="34.9650072" lon="32.8280039">
<ele>1170.76</ele>
<time>2015-04-27T15:43:09Z</time>
</trkpt>
<trkpt lat="34.9649450" lon="32.8280337">
<ele>1172.01</ele>
<time>2015-04-27T15:43:12Z</time>
</trkpt>
<trkpt lat="34.9648862" lon="32.8280587">
<ele>1173.54</ele>
<time>2015-04-27T15:43:15Z</time>
</trkpt>
<trkpt lat="34.9648319" lon="32.8280878">
<ele>1172.36</ele>
<time>2015-04-27T15:43:18Z</time>
</trkpt>
<trkpt lat="34.9647868" lon="32.8281248">
<ele>1172.42</ele>
<time>2015-04-27T15:43:22Z</time>
</trkpt>
<trkpt lat="34.9647389" lon="32.8281472">
<ele>1172.72</ele>
<time>2015-04-27T15:43:25Z</time>
</trkpt>
<trkpt lat="34.9646885" lon="32.8281814">
<ele>1176.32</ele>
<time>2015-04-27T15:43:29Z</time>
</trkpt>
<trkpt lat="34.9646324" lon="32.8281986">
<ele>1176.55</ele>
<time>2015-04-27T15:43:33Z</time>
</trkpt>
<trkpt lat="34.9645738" lon="32.8281936">
<ele>1175.62</ele>
<time>2015-04-27T15:43:37Z</time>
</trkpt>
<trkpt lat="34.9645254" lon="32.8281875">
<ele>1176.24</ele>
<time>2015-04-27T15:43:40Z</time>
</trkpt>
<trkpt lat="34.9644760" lon="32.8281904">
<ele>1176.63</ele>
<time>2015-04-27T15:43:42Z</time>
</trkpt>
<trkpt lat="34.9644254" lon="32.8282001">
<ele>1176.73</ele>
<time>2015-04-27T15:43:44Z</time>
</trkpt>
<trkpt lat="34.9643793" lon="32.8282152">
<ele>1176.75</ele>
<time>2015-04-27T15:43:46Z</time>
</trkpt>
<trkpt lat="34.9643302" lon="32.8282349">
<ele>1177.26</ele>
<time>2015-04-27T15:43:48Z</time>
</trkpt>
<trkpt lat="34.9642837" lon="32.8282583">
<ele>1178.13</ele>
<time>2015-04-27T15:43:50Z</time>
</trkpt>
<trkpt lat="34.9642366" lon="32.8282791">
<ele>1179.22</ele>
<time>2015-04-27T15:43:54Z</time>
</trkpt>
<trkpt lat="34.9641864" lon="32.8283139">
<ele>1180.48</ele>
<time>2015-04-27T15:43:58Z</time>
</trkpt>
<trkpt lat="34.9641402" lon="32.8283376">
<ele>1180.69</ele>
<time>2015-04-27T15:44:00Z</time>
</trkpt>
<trkpt lat="34.9640871" lon="32.8283664">
<ele>1180.75</ele>
<time>2015-04-27T15:44:03Z</time>
</trkpt>
<trkpt lat="34.9640408" lon="32.8283710">
<ele>1181.70</ele>
<time>2015-04-27T15:44:07Z</time>
</trkpt>
<trkpt lat="34.9639961" lon="32.8284138">
<ele>1181.01</ele>
<time>2015-04-27T15:44:11Z</time>
</trkpt>
<trkpt lat="34.9639424" lon="32.8284420">
<ele>1180.79</ele>
<time>2015-04-27T15:44:14Z</time>
</trkpt>
<trkpt lat="34.9638786" lon="32.8284506">
<ele>1180.02</ele>
<time>2015-04-27T15:44:16Z</time>
</trkpt>
<trkpt lat="34.9637912" lon="32.8284429">
<ele>1180.07</ele>
<time>2015-04-27T15:44:18Z</time>
</trkpt>
<trkpt lat="34.9637422" lon="32.8284357">
<ele>1179.92</ele>
<time>2015-04-27T15:44:19Z</time>
</trkpt>
<trkpt lat="34.9636829" lon="32.8284240">
<ele>1179.84</ele>
<time>2015-04-27T15:44:20Z</time>
</trkpt>
<trkpt lat="34.9636263" lon="32.8284212">
<ele>1179.30</ele>
<time>2015-04-27T15:44:21Z</time>
</trkpt>
<trkpt lat="34.9635640" lon="32.8284232">
<ele>1179.03</ele>
<time>2015-04-27T15:44:22Z</time>
</trkpt>
<trkpt lat="34.9635035" lon="32.8284397">
<ele>1178.89</ele>
<time>2015-04-27T15:44:23Z</time>
</trkpt>
<trkpt lat="34.9634359" lon="32.8284571">
<ele>1178.83</ele>
<time>2015-04-27T15:44:24Z</time>
</trkpt>
<trkpt lat="34.9633610" lon="32.8284788">
<ele>1178.79</ele>
<time>2015-04-27T15:44:25Z</time>
</trkpt>
<trkpt lat="34.9632804" lon="32.8284970">
<ele>1178.78</ele>
<time>2015-04-27T15:44:26Z</time>
</trkpt>
<trkpt lat="34.9632070" lon="32.8285212">
<ele>1178.77</ele>
<time>2015-04-27T15:44:27Z</time>
</trkpt>
<trkpt lat="34.9631273" lon="32.8285422">
<ele>1178.76</ele>
<time>2015-04-27T15:44:28Z</time>
</trkpt>
<trkpt lat="34.9630480" lon="32.8285522">
<ele>1178.76</ele>
<time>2015-04-27T15:44:29Z</time>
</trkpt>
<trkpt lat="34.9629586" lon="32.8285635">
<ele>1178.76</ele>
<time>2015-04-27T15:44:30Z</time>
</trkpt>
<trkpt lat="34.9628626" lon="32.8285620">
<ele>1178.26</ele>
<time>2015-04-27T15:44:31Z</time>
</trkpt>
<trkpt lat="34.9627682" lon="32.8285653">
<ele>1178.01</ele>
<time>2015-04-27T15:44:32Z</time>
</trkpt>
<trkpt lat="34.9626726" lon="32.8285675">
<ele>1177.39</ele>
<time>2015-04-27T15:44:33Z</time>
</trkpt>
<trkpt lat="34.9625850" lon="32.8285664">
<ele>1176.57</ele>
<time>2015-04-27T15:44:34Z</time>
</trkpt>
<trkpt lat="34.9625070" lon="32.8285720">
<ele>1176.17</ele>
<time>2015-04-27T15:44:35Z</time>
</trkpt>
<trkpt lat="34.9624287" lon="32.8285876">
<ele>1175.46</ele>
<time>2015-04-27T15:44:36Z</time>
</trkpt>
<trkpt lat="34.9623655" lon="32.8286189">
<ele>1175.11</ele>
<time>2015-04-27T15:44:37Z</time>
</trkpt>
<trkpt lat="34.9623076" lon="32.8286699">
<ele>1174.94</ele>
<time>2015-04-27T15:44:38Z</time>
</trkpt>
<trkpt lat="34.9622580" lon="32.8287228">
<ele>1174.35</ele>
<time>2015-04-27T15:44:39Z</time>
</trkpt>
<trkpt lat="34.9622098" lon="32.8287804">
<ele>1174.05</ele>
<time>2015-04-27T15:44:40Z</time>
</trkpt>
<trkpt lat="34.9621561" lon="32.8288177">
<ele>1173.91</ele>
<time>2015-04-27T15:44:41Z</time>
</trkpt>
<trkpt lat="34.9620997" lon="32.8288374">
<ele>1173.83</ele>
<time>2015-04-27T15:44:42Z</time>
</trkpt>
<trkpt lat="34.9620408" lon="32.8288479">
<ele>1174.30</ele>
<time>2015-04-27T15:44:43Z</time>
</trkpt>
<trkpt lat="34.9619828" lon="32.8288408">
<ele>1174.53</ele>
<time>2015-04-27T15:44:44Z</time>
</trkpt>
<trkpt lat="34.9619236" lon="32.8288304">
<ele>1174.14</ele>
<time>2015-04-27T15:44:45Z</time>
</trkpt>
<trkpt lat="34.9618640" lon="32.8288261">
<ele>1173.45</ele>
<time>2015-04-27T15:44:46Z</time>
</trkpt>
<trkpt lat="34.9618184" lon="32.8288166">
<ele>1173.11</ele>
<time>2015-04-27T15:44:47Z</time>
</trkpt>
<trkpt lat="34.9617573" lon="32.8288451">
<ele>1173.35</ele>
<time>2015-04-27T15:44:49Z</time>
</trkpt>
<trkpt lat="34.9617683" lon="32.8289014">
<ele>1172.66</ele>
<time>2015-04-27T15:44:51Z</time>
</trkpt>
<trkpt lat="34.9618565" lon="32.8289275">
<ele>1171.48</ele>
<time>2015-04-27T15:44:53Z</time>
</trkpt>
<trkpt lat="34.9619186" lon="32.8289307">
<ele>1171.12</ele>
<time>2015-04-27T15:44:54Z</time>
</trkpt>
<trkpt lat="34.9619733" lon="32.8289319">
<ele>1171.44</ele>
<time>2015-04-27T15:44:55Z</time>
</trkpt>
<trkpt lat="34.9620505" lon="32.8289258">
<ele>1170.60</ele>
<time>2015-04-27T15:44:56Z</time>
</trkpt>
<trkpt lat="34.9621228" lon="32.8289227">
<ele>1169.68</ele>
<time>2015-04-27T15:44:57Z</time>
</trkpt>
<trkpt lat="34.9622001" lon="32.8289178">
<ele>1168.72</ele>
<time>2015-04-27T15:44:58Z</time>
</trkpt>
<trkpt lat="34.9622893" lon="32.8289078">
<ele>1167.74</ele>
<time>2015-04-27T15:44:59Z</time>
</trkpt>
<trkpt lat="34.9623797" lon="32.8288978">
<ele>1167.25</ele>
<time>2015-04-27T15:45:00Z</time>
</trkpt>
<trkpt lat="34.9624697" lon="32.8288892">
<ele>1166.01</ele>
<time>2015-04-27T15:45:01Z</time>
</trkpt>
<trkpt lat="34.9625653" lon="32.8288736">
<ele>1165.38</ele>
<time>2015-04-27T15:45:02Z</time>
</trkpt>
<trkpt lat="34.9626631" lon="32.8288812">
<ele>1165.07</ele>
<time>2015-04-27T15:45:03Z</time>
</trkpt>
<trkpt lat="34.9627540" lon="32.8288976">
<ele>1164.42</ele>
<time>2015-04-27T15:45:04Z</time>
</trkpt>
<trkpt lat="34.9628486" lon="32.8289182">
<ele>1163.09</ele>
<time>2015-04-27T15:45:05Z</time>
</trkpt>
<trkpt lat="34.9629427" lon="32.8289397">
<ele>1162.42</ele>
<time>2015-04-27T15:45:06Z</time>
</trkpt>
<trkpt lat="34.9630312" lon="32.8289582">
<ele>1161.59</ele>
<time>2015-04-27T15:45:07Z</time>
</trkpt>
<trkpt lat="34.9631312" lon="32.8289569">
<ele>1161.18</ele>
<time>2015-04-27T15:45:08Z</time>
</trkpt>
<trkpt lat="34.9632358" lon="32.8289397">
<ele>1160.47</ele>
<time>2015-04-27T15:45:09Z</time>
</trkpt>
<trkpt lat="34.9633344" lon="32.8289258">
<ele>1159.11</ele>
<time>2015-04-27T15:45:10Z</time>
</trkpt>
<trkpt lat="34.9634400" lon="32.8289221">
<ele>1157.94</ele>
<time>2015-04-27T15:45:11Z</time>
</trkpt>
<trkpt lat="34.9635459" lon="32.8289107">
<ele>1156.35</ele>
<time>2015-04-27T15:45:12Z</time>
</trkpt>
<trkpt lat="34.9636548" lon="32.8289132">
<ele>1155.05</ele>
<time>2015-04-27T15:45:13Z</time>
</trkpt>
<trkpt lat="34.9637630" lon="32.8289190">
<ele>1153.91</ele>
<time>2015-04-27T15:45:14Z</time>
</trkpt>
<trkpt lat="34.9638792" lon="32.8289252">
<ele>1152.83</ele>
<time>2015-04-27T15:45:15Z</time>
</trkpt>
<trkpt lat="34.9639908" lon="32.8289242">
<ele>1151.80</ele>
<time>2015-04-27T15:45:16Z</time>
</trkpt>
<trkpt lat="34.9641019" lon="32.8289274">
<ele>1150.78</ele>
<time>2015-04-27T15:45:17Z</time>
</trkpt>
<trkpt lat="34.9642102" lon="32.8289270">
<ele>1150.27</ele>
<time>2015-04-27T15:45:18Z</time>
</trkpt>
<trkpt lat="34.9643146" lon="32.8289396">
<ele>1149.51</ele>
<time>2015-04-27T15:45:19Z</time>
</trkpt>
<trkpt lat="34.9644191" lon="32.8289617">
<ele>1148.64</ele>
<time>2015-04-27T15:45:20Z</time>
</trkpt>
<trkpt lat="34.9644978" lon="32.8289895">
<ele>1147.20</ele>
<time>2015-04-27T15:45:21Z</time>
</trkpt>
<trkpt lat="34.9645771" lon="32.8290195">
<ele>1145.98</ele>
<time>2015-04-27T15:45:22Z</time>
</trkpt>
<trkpt lat="34.9646553" lon="32.8290620">
<ele>1145.37</ele>
<time>2015-04-27T15:45:23Z</time>
</trkpt>
<trkpt lat="34.9647324" lon="32.8291027">
<ele>1144.56</ele>
<time>2015-04-27T15:45:24Z</time>
</trkpt>
<trkpt lat="34.9647947" lon="32.8291317">
<ele>1143.66</ele>
<time>2015-04-27T15:45:25Z</time>
</trkpt>
<trkpt lat="34.9648485" lon="32.8291498">
<ele>1143.21</ele>
<time>2015-04-27T15:45:26Z</time>
</trkpt>
<trkpt lat="34.9648982" lon="32.8291495">
<ele>1142.49</ele>
<time>2015-04-27T15:45:27Z</time>
</trkpt>
<trkpt lat="34.9650112" lon="32.8291328">
<ele>1141.69</ele>
<time>2015-04-27T15:45:29Z</time>
</trkpt>
<trkpt lat="34.9650677" lon="32.8291110">
<ele>1142.23</ele>
<time>2015-04-27T15:45:30Z</time>
</trkpt>
<trkpt lat="34.9650982" lon="32.8290562">
<ele>1142.99</ele>
<time>2015-04-27T15:45:31Z</time>
</trkpt>
<trkpt lat="34.9651521" lon="32.8290019">
<ele>1143.38</ele>
<time>2015-04-27T15:45:32Z</time>
</trkpt>
<trkpt lat="34.9652088" lon="32.8289524">
<ele>1143.57</ele>
<time>2015-04-27T15:45:33Z</time>
</trkpt>
<trkpt lat="34.9652584" lon="32.8289082">
<ele>1144.16</ele>
<time>2015-04-27T15:45:34Z</time>
</trkpt>
<trkpt lat="34.9653005" lon="32.8288535">
<ele>1143.96</ele>
<time>2015-04-27T15:45:35Z</time>
</trkpt>
<trkpt lat="34.9653584" lon="32.8288076">
<ele>1144.36</ele>
<time>2015-04-27T15:45:36Z</time>
</trkpt>
<trkpt lat="34.9654149" lon="32.8287656">
<ele>1144.56</ele>
<time>2015-04-27T15:45:37Z</time>
</trkpt>
<trkpt lat="34.9654648" lon="32.8287079">
<ele>1143.66</ele>
<time>2015-04-27T15:45:38Z</time>
</trkpt>
<trkpt lat="34.9655182" lon="32.8286510">
<ele>1142.71</ele>
<time>2015-04-27T15:45:39Z</time>
</trkpt>
<trkpt lat="34.9655855" lon="32.8285849">
<ele>1141.74</ele>
<time>2015-04-27T15:45:40Z</time>
</trkpt>
<trkpt lat="34.9656533" lon="32.8285207">
<ele>1141.25</ele>
<time>2015-04-27T15:45:41Z</time>
</trkpt>
<trkpt lat="34.9657213" lon="32.8284490">
<ele>1141.00</ele>
<time>2015-04-27T15:45:42Z</time>
</trkpt>
<trkpt lat="34.9657928" lon="32.8283780">
<ele>1140.38</ele>
<time>2015-04-27T15:45:43Z</time>
</trkpt>
<trkpt lat="34.9658766" lon="32.8283240">
<ele>1139.57</ele>
<time>2015-04-27T15:45:44Z</time>
</trkpt>
<trkpt lat="34.9659546" lon="32.8282731">
<ele>1139.17</ele>
<time>2015-04-27T15:45:45Z</time>
</trkpt>
<trkpt lat="34.9660456" lon="32.8282189">
<ele>1137.96</ele>
<time>2015-04-27T15:45:46Z</time>
</trkpt>
<trkpt lat="34.9661177" lon="32.8281639">
<ele>1135.86</ele>
<time>2015-04-27T15:45:47Z</time>
</trkpt>
<trkpt lat="34.9661998" lon="32.8281025">
<ele>1135.31</ele>
<time>2015-04-27T15:45:48Z</time>
</trkpt>
<trkpt lat="34.9662711" lon="32.8280466">
<ele>1135.04</ele>
<time>2015-04-27T15:45:49Z</time>
</trkpt>
<trkpt lat="34.9663422" lon="32.8279954">
<ele>1134.40</ele>
<time>2015-04-27T15:45:50Z</time>
</trkpt>
<trkpt lat="34.9664073" lon="32.8279485">
<ele>1134.08</ele>
<time>2015-04-27T15:45:51Z</time>
</trkpt>
<trkpt lat="34.9664734" lon="32.8278980">
<ele>1133.92</ele>
<time>2015-04-27T15:45:52Z</time>
</trkpt>
<trkpt lat="34.9665297" lon="32.8278608">
<ele>1133.34</ele>
<time>2015-04-27T15:45:53Z</time>
</trkpt>
<trkpt lat="34.9665832" lon="32.8278107">
<ele>1132.55</ele>
<time>2015-04-27T15:45:54Z</time>
</trkpt>
<trkpt lat="34.9666236" lon="32.8277762">
<ele>1132.15</ele>
<time>2015-04-27T15:45:55Z</time>
</trkpt>
<trkpt lat="34.9666712" lon="32.8277417">
<ele>1131.46</ele>
<time>2015-04-27T15:45:56Z</time>
</trkpt>
<trkpt lat="34.9667476" lon="32.8276653">
<ele>1130.68</ele>
<time>2015-04-27T15:45:58Z</time>
</trkpt>
<trkpt lat="34.9667894" lon="32.8276242">
<ele>1131.22</ele>
<time>2015-04-27T15:45:59Z</time>
</trkpt>
<trkpt lat="34.9668364" lon="32.8275839">
<ele>1130.99</ele>
<time>2015-04-27T15:46:00Z</time>
</trkpt>
<trkpt lat="34.9668768" lon="32.8275463">
<ele>1130.38</ele>
<time>2015-04-27T15:46:01Z</time>
</trkpt>
<trkpt lat="34.9669170" lon="32.8275199">
<ele>1130.07</ele>
<time>2015-04-27T15:46:02Z</time>
</trkpt>
<trkpt lat="34.9669865" lon="32.8274967">
<ele>1129.34</ele>
<time>2015-04-27T15:46:04Z</time>
</trkpt>
<trkpt lat="34.9670227" lon="32.8274530">
<ele>1129.15</ele>
<time>2015-04-27T15:46:06Z</time>
</trkpt>
<trkpt lat="34.9670981" lon="32.8274361">
<ele>1129.11</ele>
<time>2015-04-27T15:46:08Z</time>
</trkpt>
<trkpt lat="34.9671636" lon="32.8274407">
<ele>1128.85</ele>
<time>2015-04-27T15:46:10Z</time>
</trkpt>
<trkpt lat="34.9672089" lon="32.8274050">
<ele>1128.30</ele>
<time>2015-04-27T15:46:11Z</time>
</trkpt>
<trkpt lat="34.9672911" lon="32.8274240">
<ele>1127.65</ele>
<time>2015-04-27T15:46:13Z</time>
</trkpt>
<trkpt lat="34.9673734" lon="32.8274353">
<ele>1124.23</ele>
<time>2015-04-27T15:46:15Z</time>
</trkpt>
<trkpt lat="34.9674617" lon="32.8274473">
<ele>1123.13</ele>
<time>2015-04-27T15:46:17Z</time>
</trkpt>
<trkpt lat="34.9675161" lon="32.8274668">
<ele>1122.94</ele>
<time>2015-04-27T15:46:18Z</time>
</trkpt>
<trkpt lat="34.9675875" lon="32.8274967">
<ele>1122.31</ele>
<time>2015-04-27T15:46:20Z</time>
</trkpt>
<trkpt lat="34.9676565" lon="32.8275406">
<ele>1123.15</ele>
<time>2015-04-27T15:46:22Z</time>
</trkpt>
<trkpt lat="34.9677104" lon="32.8275831">
<ele>1123.61</ele>
<time>2015-04-27T15:46:24Z</time>
</trkpt>
<trkpt lat="34.9677639" lon="32.8276103">
<ele>1122.47</ele>
<time>2015-04-27T15:46:26Z</time>
</trkpt>
<trkpt lat="34.9677983" lon="32.8276503">
<ele>1122.75</ele>
<time>2015-04-27T15:46:45Z</time>
</trkpt>
<trkpt lat="34.9678426" lon="32.8276779">
<ele>1124.18</ele>
<time>2015-04-27T15:46:54Z</time>
</trkpt>
<trkpt lat="34.9678864" lon="32.8276947">
<ele>1123.70</ele>
<time>2015-04-27T15:47:00Z</time>
</trkpt>
<trkpt lat="34.9679326" lon="32.8277316">
<ele>1123.76</ele>
<time>2015-04-27T15:47:05Z</time>
</trkpt>
<trkpt lat="34.9679543" lon="32.8277807">
<ele>1124.26</ele>
<time>2015-04-27T15:47:37Z</time>
</trkpt>
</trkseg>
</trk>
</gpx>
